<?xml version="1.0" encoding="UTF-8"?>
<gpx version="1.1" creator="https://www.youtrack.es" xsi:schemaLocation="http://www.topografix.com/GPX/1/1 http://www.topografix.com/GPX/1/1/gpx.xsd http://www.garmin.com/xmlschemas/GpxExtensions/v3 http://www.garmin.com/xmlschemas/GpxExtensionsv3.xsd http://www.garmin.com/xmlschemas/TrackPointExtension/v1 http://www.garmin.com/xmlschemas/TrackPointExtensionv1.xsd" xmlns:gpxtpx="http://www.garmin.com/xmlschemas/TrackPointExtension/v1" xmlns:gpxx="http://www.garmin.com/xmlschemas/GpxExtensions/v3" xmlns:xsi="http://www.w3.org/2001/XMLSchema-instance">
  <metadata>
    <link href="https://www.youtrack.es">
      <text>YouTrack.es</text>
    </link>
    <time>2026-05-10T19:17:54Z</time>
  </metadata>
  <trk>
    <src>https://www.youtrack.es</src>
    <link href="https://www.youtrack.es/ruta/9045-doblamos">
      <text>YouTrack.es</text>
    </link>
    <trkseg>
      <trkpt lat="38.2739660" lon="-0.6830610">
        <ele>87.3</ele>
        <time>2019-10-19T09:31:13Z</time>
      </trkpt>
      <trkpt lat="38.2739840" lon="-0.6830020">
        <ele>87.0</ele>
        <time>2019-10-19T09:31:14Z</time>
      </trkpt>
      <trkpt lat="38.2739900" lon="-0.6829720">
        <ele>87.0</ele>
        <time>2019-10-19T09:31:15Z</time>
      </trkpt>
      <trkpt lat="38.2739980" lon="-0.6829320">
        <ele>87.1</ele>
        <time>2019-10-19T09:31:16Z</time>
      </trkpt>
      <trkpt lat="38.2740030" lon="-0.6828860">
        <ele>87.1</ele>
        <time>2019-10-19T09:31:17Z</time>
      </trkpt>
      <trkpt lat="38.2740110" lon="-0.6828290">
        <ele>87.3</ele>
        <time>2019-10-19T09:31:18Z</time>
      </trkpt>
      <trkpt lat="38.2740210" lon="-0.6827690">
        <ele>87.4</ele>
        <time>2019-10-19T09:31:19Z</time>
      </trkpt>
      <trkpt lat="38.2740330" lon="-0.6827100">
        <ele>87.6</ele>
        <time>2019-10-19T09:31:20Z</time>
      </trkpt>
      <trkpt lat="38.2740440" lon="-0.6826490">
        <ele>87.7</ele>
        <time>2019-10-19T09:31:21Z</time>
      </trkpt>
      <trkpt lat="38.2740550" lon="-0.6825880">
        <ele>87.8</ele>
        <time>2019-10-19T09:31:22Z</time>
      </trkpt>
      <trkpt lat="38.2740670" lon="-0.6825250">
        <ele>87.9</ele>
        <time>2019-10-19T09:31:23Z</time>
      </trkpt>
      <trkpt lat="38.2740780" lon="-0.6824610">
        <ele>88.0</ele>
        <time>2019-10-19T09:31:24Z</time>
      </trkpt>
      <trkpt lat="38.2740870" lon="-0.6823980">
        <ele>88.2</ele>
        <time>2019-10-19T09:31:25Z</time>
      </trkpt>
      <trkpt lat="38.2741000" lon="-0.6823320">
        <ele>88.3</ele>
        <time>2019-10-19T09:31:26Z</time>
      </trkpt>
      <trkpt lat="38.2741110" lon="-0.6822660">
        <ele>88.4</ele>
        <time>2019-10-19T09:31:27Z</time>
      </trkpt>
      <trkpt lat="38.2741220" lon="-0.6822010">
        <ele>88.5</ele>
        <time>2019-10-19T09:31:28Z</time>
      </trkpt>
      <trkpt lat="38.2741330" lon="-0.6821370">
        <ele>88.6</ele>
        <time>2019-10-19T09:31:29Z</time>
      </trkpt>
      <trkpt lat="38.2741440" lon="-0.6820750">
        <ele>88.7</ele>
        <time>2019-10-19T09:31:30Z</time>
      </trkpt>
      <trkpt lat="38.2741530" lon="-0.6820150">
        <ele>88.8</ele>
        <time>2019-10-19T09:31:31Z</time>
      </trkpt>
      <trkpt lat="38.2741650" lon="-0.6819530">
        <ele>88.9</ele>
        <time>2019-10-19T09:31:32Z</time>
      </trkpt>
      <trkpt lat="38.2741760" lon="-0.6818840">
        <ele>89.0</ele>
        <time>2019-10-19T09:31:33Z</time>
      </trkpt>
      <trkpt lat="38.2741850" lon="-0.6818220">
        <ele>89.1</ele>
        <time>2019-10-19T09:31:34Z</time>
      </trkpt>
      <trkpt lat="38.2741990" lon="-0.6817620">
        <ele>89.4</ele>
        <time>2019-10-19T09:31:35Z</time>
      </trkpt>
      <trkpt lat="38.2742140" lon="-0.6816970">
        <ele>89.6</ele>
        <time>2019-10-19T09:31:36Z</time>
      </trkpt>
      <trkpt lat="38.2742320" lon="-0.6816310">
        <ele>89.7</ele>
        <time>2019-10-19T09:31:37Z</time>
      </trkpt>
      <trkpt lat="38.2742450" lon="-0.6815650">
        <ele>89.8</ele>
        <time>2019-10-19T09:31:38Z</time>
      </trkpt>
      <trkpt lat="38.2742560" lon="-0.6814970">
        <ele>89.9</ele>
        <time>2019-10-19T09:31:39Z</time>
      </trkpt>
      <trkpt lat="38.2742630" lon="-0.6814290">
        <ele>89.9</ele>
        <time>2019-10-19T09:31:40Z</time>
      </trkpt>
      <trkpt lat="38.2742690" lon="-0.6813620">
        <ele>89.9</ele>
        <time>2019-10-19T09:31:41Z</time>
      </trkpt>
      <trkpt lat="38.2742740" lon="-0.6812950">
        <ele>89.9</ele>
        <time>2019-10-19T09:31:42Z</time>
      </trkpt>
      <trkpt lat="38.2742830" lon="-0.6812250">
        <ele>89.9</ele>
        <time>2019-10-19T09:31:43Z</time>
      </trkpt>
      <trkpt lat="38.2742900" lon="-0.6811570">
        <ele>89.9</ele>
        <time>2019-10-19T09:31:44Z</time>
      </trkpt>
      <trkpt lat="38.2743030" lon="-0.6810940">
        <ele>90.0</ele>
        <time>2019-10-19T09:31:45Z</time>
      </trkpt>
      <trkpt lat="38.2743140" lon="-0.6810310">
        <ele>90.0</ele>
        <time>2019-10-19T09:31:46Z</time>
      </trkpt>
      <trkpt lat="38.2743250" lon="-0.6809650">
        <ele>90.1</ele>
        <time>2019-10-19T09:31:47Z</time>
      </trkpt>
      <trkpt lat="38.2743320" lon="-0.6809030">
        <ele>90.3</ele>
        <time>2019-10-19T09:31:48Z</time>
      </trkpt>
      <trkpt lat="38.2743390" lon="-0.6808420">
        <ele>90.4</ele>
        <time>2019-10-19T09:31:49Z</time>
      </trkpt>
      <trkpt lat="38.2743530" lon="-0.6807760">
        <ele>90.5</ele>
        <time>2019-10-19T09:31:50Z</time>
      </trkpt>
      <trkpt lat="38.2743670" lon="-0.6807090">
        <ele>90.6</ele>
        <time>2019-10-19T09:31:51Z</time>
      </trkpt>
      <trkpt lat="38.2743760" lon="-0.6806490">
        <ele>90.7</ele>
        <time>2019-10-19T09:31:52Z</time>
      </trkpt>
      <trkpt lat="38.2743860" lon="-0.6805890">
        <ele>90.7</ele>
        <time>2019-10-19T09:31:53Z</time>
      </trkpt>
      <trkpt lat="38.2743900" lon="-0.6805340">
        <ele>90.7</ele>
        <time>2019-10-19T09:31:54Z</time>
      </trkpt>
      <trkpt lat="38.2743960" lon="-0.6804810">
        <ele>90.7</ele>
        <time>2019-10-19T09:31:55Z</time>
      </trkpt>
      <trkpt lat="38.2743940" lon="-0.6804410">
        <ele>90.7</ele>
        <time>2019-10-19T09:31:56Z</time>
      </trkpt>
      <trkpt lat="38.2743910" lon="-0.6804040">
        <ele>90.7</ele>
        <time>2019-10-19T09:31:57Z</time>
      </trkpt>
      <trkpt lat="38.2743830" lon="-0.6803690">
        <ele>90.8</ele>
        <time>2019-10-19T09:31:58Z</time>
      </trkpt>
      <trkpt lat="38.2743790" lon="-0.6803360">
        <ele>90.8</ele>
        <time>2019-10-19T09:31:59Z</time>
      </trkpt>
      <trkpt lat="38.2743760" lon="-0.6803090">
        <ele>90.9</ele>
        <time>2019-10-19T09:32:00Z</time>
      </trkpt>
      <trkpt lat="38.2743750" lon="-0.6802640">
        <ele>90.9</ele>
        <time>2019-10-19T09:32:01Z</time>
      </trkpt>
      <trkpt lat="38.2743770" lon="-0.6802370">
        <ele>91.0</ele>
        <time>2019-10-19T09:32:05Z</time>
      </trkpt>
      <trkpt lat="38.2743780" lon="-0.6802100">
        <ele>91.0</ele>
        <time>2019-10-19T09:32:06Z</time>
      </trkpt>
      <trkpt lat="38.2743800" lon="-0.6801830">
        <ele>91.1</ele>
        <time>2019-10-19T09:32:07Z</time>
      </trkpt>
      <trkpt lat="38.2743820" lon="-0.6801560">
        <ele>91.1</ele>
        <time>2019-10-19T09:32:08Z</time>
      </trkpt>
      <trkpt lat="38.2743900" lon="-0.6801050">
        <ele>91.2</ele>
        <time>2019-10-19T09:32:09Z</time>
      </trkpt>
      <trkpt lat="38.2743970" lon="-0.6800530">
        <ele>91.3</ele>
        <time>2019-10-19T09:32:10Z</time>
      </trkpt>
      <trkpt lat="38.2744160" lon="-0.6800020">
        <ele>91.3</ele>
        <time>2019-10-19T09:32:11Z</time>
      </trkpt>
      <trkpt lat="38.2744340" lon="-0.6799500">
        <ele>91.4</ele>
        <time>2019-10-19T09:32:12Z</time>
      </trkpt>
      <trkpt lat="38.2744490" lon="-0.6799270">
        <ele>91.4</ele>
        <time>2019-10-19T09:32:13Z</time>
      </trkpt>
      <trkpt lat="38.2744640" lon="-0.6799030">
        <ele>91.4</ele>
        <time>2019-10-19T09:32:14Z</time>
      </trkpt>
      <trkpt lat="38.2744920" lon="-0.6798470">
        <ele>91.4</ele>
        <time>2019-10-19T09:32:15Z</time>
      </trkpt>
      <trkpt lat="38.2745230" lon="-0.6797190">
        <ele>91.6</ele>
        <time>2019-10-19T09:32:16Z</time>
      </trkpt>
      <trkpt lat="38.2745330" lon="-0.6796700">
        <ele>91.6</ele>
        <time>2019-10-19T09:32:17Z</time>
      </trkpt>
      <trkpt lat="38.2745420" lon="-0.6796210">
        <ele>91.6</ele>
        <time>2019-10-19T09:32:18Z</time>
      </trkpt>
      <trkpt lat="38.2745610" lon="-0.6795220">
        <ele>91.8</ele>
        <time>2019-10-19T09:32:19Z</time>
      </trkpt>
      <trkpt lat="38.2745740" lon="-0.6794520">
        <ele>91.8</ele>
        <time>2019-10-19T09:32:20Z</time>
      </trkpt>
      <trkpt lat="38.2745870" lon="-0.6793810">
        <ele>91.8</ele>
        <time>2019-10-19T09:32:21Z</time>
      </trkpt>
      <trkpt lat="38.2745940" lon="-0.6793480">
        <ele>91.8</ele>
        <time>2019-10-19T09:32:22Z</time>
      </trkpt>
      <trkpt lat="38.2746000" lon="-0.6793140">
        <ele>91.8</ele>
        <time>2019-10-19T09:32:23Z</time>
      </trkpt>
      <trkpt lat="38.2746190" lon="-0.6792110">
        <ele>92.0</ele>
        <time>2019-10-19T09:32:24Z</time>
      </trkpt>
      <trkpt lat="38.2746240" lon="-0.6791760">
        <ele>92.1</ele>
        <time>2019-10-19T09:32:25Z</time>
      </trkpt>
      <trkpt lat="38.2746500" lon="-0.6790360">
        <ele>92.2</ele>
        <time>2019-10-19T09:32:26Z</time>
      </trkpt>
      <trkpt lat="38.2746610" lon="-0.6789840">
        <ele>92.2</ele>
        <time>2019-10-19T09:32:27Z</time>
      </trkpt>
      <trkpt lat="38.2746710" lon="-0.6789320">
        <ele>92.1</ele>
        <time>2019-10-19T09:32:28Z</time>
      </trkpt>
      <trkpt lat="38.2746910" lon="-0.6788280">
        <ele>91.9</ele>
        <time>2019-10-19T09:32:29Z</time>
      </trkpt>
      <trkpt lat="38.2746980" lon="-0.6787940">
        <ele>91.8</ele>
        <time>2019-10-19T09:32:30Z</time>
      </trkpt>
      <trkpt lat="38.2747050" lon="-0.6787590">
        <ele>91.7</ele>
        <time>2019-10-19T09:32:31Z</time>
      </trkpt>
      <trkpt lat="38.2747300" lon="-0.6786200">
        <ele>91.5</ele>
        <time>2019-10-19T09:32:32Z</time>
      </trkpt>
      <trkpt lat="38.2747360" lon="-0.6785850">
        <ele>91.4</ele>
        <time>2019-10-19T09:32:33Z</time>
      </trkpt>
      <trkpt lat="38.2747410" lon="-0.6785490">
        <ele>91.3</ele>
        <time>2019-10-19T09:32:34Z</time>
      </trkpt>
      <trkpt lat="38.2747600" lon="-0.6784230">
        <ele>91.0</ele>
        <time>2019-10-19T09:32:35Z</time>
      </trkpt>
      <trkpt lat="38.2747680" lon="-0.6783690">
        <ele>90.9</ele>
        <time>2019-10-19T09:32:36Z</time>
      </trkpt>
      <trkpt lat="38.2747840" lon="-0.6782600">
        <ele>90.8</ele>
        <time>2019-10-19T09:32:37Z</time>
      </trkpt>
      <trkpt lat="38.2748010" lon="-0.6781890">
        <ele>90.7</ele>
        <time>2019-10-19T09:32:38Z</time>
      </trkpt>
      <trkpt lat="38.2748130" lon="-0.6781180">
        <ele>90.6</ele>
        <time>2019-10-19T09:32:39Z</time>
      </trkpt>
      <trkpt lat="38.2748180" lon="-0.6780840">
        <ele>90.6</ele>
        <time>2019-10-19T09:32:40Z</time>
      </trkpt>
      <trkpt lat="38.2748220" lon="-0.6780490">
        <ele>90.6</ele>
        <time>2019-10-19T09:32:41Z</time>
      </trkpt>
      <trkpt lat="38.2748350" lon="-0.6779800">
        <ele>90.5</ele>
        <time>2019-10-19T09:32:42Z</time>
      </trkpt>
      <trkpt lat="38.2748570" lon="-0.6778390">
        <ele>90.4</ele>
        <time>2019-10-19T09:32:43Z</time>
      </trkpt>
      <trkpt lat="38.2748630" lon="-0.6778060">
        <ele>90.4</ele>
        <time>2019-10-19T09:32:44Z</time>
      </trkpt>
      <trkpt lat="38.2748680" lon="-0.6777720">
        <ele>90.4</ele>
        <time>2019-10-19T09:32:45Z</time>
      </trkpt>
      <trkpt lat="38.2748860" lon="-0.6776400">
        <ele>90.4</ele>
        <time>2019-10-19T09:32:46Z</time>
      </trkpt>
      <trkpt lat="38.2749000" lon="-0.6775790">
        <ele>90.5</ele>
        <time>2019-10-19T09:32:47Z</time>
      </trkpt>
      <trkpt lat="38.2749130" lon="-0.6775160">
        <ele>90.5</ele>
        <time>2019-10-19T09:32:48Z</time>
      </trkpt>
      <trkpt lat="38.2749190" lon="-0.6774850">
        <ele>90.6</ele>
        <time>2019-10-19T09:32:49Z</time>
      </trkpt>
      <trkpt lat="38.2749240" lon="-0.6774530">
        <ele>90.6</ele>
        <time>2019-10-19T09:32:50Z</time>
      </trkpt>
      <trkpt lat="38.2749520" lon="-0.6773190">
        <ele>90.6</ele>
        <time>2019-10-19T09:32:51Z</time>
      </trkpt>
      <trkpt lat="38.2749580" lon="-0.6772820">
        <ele>90.6</ele>
        <time>2019-10-19T09:32:52Z</time>
      </trkpt>
      <trkpt lat="38.2749640" lon="-0.6772450">
        <ele>90.7</ele>
        <time>2019-10-19T09:32:53Z</time>
      </trkpt>
      <trkpt lat="38.2749720" lon="-0.6771760">
        <ele>90.7</ele>
        <time>2019-10-19T09:32:54Z</time>
      </trkpt>
      <trkpt lat="38.2749810" lon="-0.6771100">
        <ele>90.7</ele>
        <time>2019-10-19T09:32:55Z</time>
      </trkpt>
      <trkpt lat="38.2749890" lon="-0.6770450">
        <ele>90.7</ele>
        <time>2019-10-19T09:32:56Z</time>
      </trkpt>
      <trkpt lat="38.2749910" lon="-0.6769070">
        <ele>90.7</ele>
        <time>2019-10-19T09:32:57Z</time>
      </trkpt>
      <trkpt lat="38.2749910" lon="-0.6768730">
        <ele>90.7</ele>
        <time>2019-10-19T09:32:58Z</time>
      </trkpt>
      <trkpt lat="38.2749910" lon="-0.6768390">
        <ele>90.7</ele>
        <time>2019-10-19T09:32:59Z</time>
      </trkpt>
      <trkpt lat="38.2750110" lon="-0.6766960">
        <ele>90.6</ele>
        <time>2019-10-19T09:33:00Z</time>
      </trkpt>
      <trkpt lat="38.2750240" lon="-0.6766260">
        <ele>90.6</ele>
        <time>2019-10-19T09:33:01Z</time>
      </trkpt>
      <trkpt lat="38.2750280" lon="-0.6765910">
        <ele>90.7</ele>
        <time>2019-10-19T09:33:02Z</time>
      </trkpt>
      <trkpt lat="38.2750310" lon="-0.6765550">
        <ele>90.7</ele>
        <time>2019-10-19T09:33:03Z</time>
      </trkpt>
      <trkpt lat="38.2750340" lon="-0.6764510">
        <ele>90.7</ele>
        <time>2019-10-19T09:33:04Z</time>
      </trkpt>
      <trkpt lat="38.2750300" lon="-0.6764180">
        <ele>90.8</ele>
        <time>2019-10-19T09:33:05Z</time>
      </trkpt>
      <trkpt lat="38.2750000" lon="-0.6762870">
        <ele>90.9</ele>
        <time>2019-10-19T09:33:06Z</time>
      </trkpt>
      <trkpt lat="38.2749930" lon="-0.6762560">
        <ele>90.9</ele>
        <time>2019-10-19T09:33:07Z</time>
      </trkpt>
      <trkpt lat="38.2749850" lon="-0.6762260">
        <ele>90.9</ele>
        <time>2019-10-19T09:33:08Z</time>
      </trkpt>
      <trkpt lat="38.2749630" lon="-0.6761400">
        <ele>91.0</ele>
        <time>2019-10-19T09:33:09Z</time>
      </trkpt>
      <trkpt lat="38.2749550" lon="-0.6761140">
        <ele>91.0</ele>
        <time>2019-10-19T09:33:10Z</time>
      </trkpt>
      <trkpt lat="38.2749410" lon="-0.6760630">
        <ele>91.1</ele>
        <time>2019-10-19T09:33:11Z</time>
      </trkpt>
      <trkpt lat="38.2749310" lon="-0.6760170">
        <ele>91.1</ele>
        <time>2019-10-19T09:33:12Z</time>
      </trkpt>
      <trkpt lat="38.2749240" lon="-0.6759800">
        <ele>91.2</ele>
        <time>2019-10-19T09:33:13Z</time>
      </trkpt>
      <trkpt lat="38.2749160" lon="-0.6759340">
        <ele>91.2</ele>
        <time>2019-10-19T09:33:14Z</time>
      </trkpt>
      <trkpt lat="38.2749080" lon="-0.6758830">
        <ele>91.2</ele>
        <time>2019-10-19T09:33:15Z</time>
      </trkpt>
      <trkpt lat="38.2748990" lon="-0.6758330">
        <ele>91.2</ele>
        <time>2019-10-19T09:33:16Z</time>
      </trkpt>
      <trkpt lat="38.2748880" lon="-0.6757770">
        <ele>91.2</ele>
        <time>2019-10-19T09:33:17Z</time>
      </trkpt>
      <trkpt lat="38.2748640" lon="-0.6756540">
        <ele>91.4</ele>
        <time>2019-10-19T09:33:18Z</time>
      </trkpt>
      <trkpt lat="38.2748570" lon="-0.6756220">
        <ele>91.4</ele>
        <time>2019-10-19T09:33:19Z</time>
      </trkpt>
      <trkpt lat="38.2748490" lon="-0.6755900">
        <ele>91.4</ele>
        <time>2019-10-19T09:33:20Z</time>
      </trkpt>
      <trkpt lat="38.2748270" lon="-0.6754910">
        <ele>91.6</ele>
        <time>2019-10-19T09:33:21Z</time>
      </trkpt>
      <trkpt lat="38.2748190" lon="-0.6754570">
        <ele>91.6</ele>
        <time>2019-10-19T09:33:22Z</time>
      </trkpt>
      <trkpt lat="38.2747870" lon="-0.6753210">
        <ele>91.8</ele>
        <time>2019-10-19T09:33:23Z</time>
      </trkpt>
      <trkpt lat="38.2747790" lon="-0.6752840">
        <ele>91.9</ele>
        <time>2019-10-19T09:33:24Z</time>
      </trkpt>
      <trkpt lat="38.2747710" lon="-0.6752470">
        <ele>91.9</ele>
        <time>2019-10-19T09:33:25Z</time>
      </trkpt>
      <trkpt lat="38.2747460" lon="-0.6751340">
        <ele>92.1</ele>
        <time>2019-10-19T09:33:26Z</time>
      </trkpt>
      <trkpt lat="38.2747380" lon="-0.6750960">
        <ele>92.2</ele>
        <time>2019-10-19T09:33:27Z</time>
      </trkpt>
      <trkpt lat="38.2747030" lon="-0.6749340">
        <ele>92.4</ele>
        <time>2019-10-19T09:33:28Z</time>
      </trkpt>
      <trkpt lat="38.2746870" lon="-0.6748500">
        <ele>92.6</ele>
        <time>2019-10-19T09:33:29Z</time>
      </trkpt>
      <trkpt lat="38.2746730" lon="-0.6747870">
        <ele>92.6</ele>
        <time>2019-10-19T09:33:30Z</time>
      </trkpt>
      <trkpt lat="38.2746590" lon="-0.6747240">
        <ele>92.7</ele>
        <time>2019-10-19T09:33:31Z</time>
      </trkpt>
      <trkpt lat="38.2746310" lon="-0.6745990">
        <ele>92.7</ele>
        <time>2019-10-19T09:33:32Z</time>
      </trkpt>
      <trkpt lat="38.2746180" lon="-0.6745340">
        <ele>92.8</ele>
        <time>2019-10-19T09:33:33Z</time>
      </trkpt>
      <trkpt lat="38.2746040" lon="-0.6744690">
        <ele>92.8</ele>
        <time>2019-10-19T09:33:34Z</time>
      </trkpt>
      <trkpt lat="38.2745760" lon="-0.6743390">
        <ele>92.8</ele>
        <time>2019-10-19T09:33:35Z</time>
      </trkpt>
      <trkpt lat="38.2745620" lon="-0.6742740">
        <ele>92.7</ele>
        <time>2019-10-19T09:33:36Z</time>
      </trkpt>
      <trkpt lat="38.2745480" lon="-0.6742090">
        <ele>92.6</ele>
        <time>2019-10-19T09:33:37Z</time>
      </trkpt>
      <trkpt lat="38.2745200" lon="-0.6740800">
        <ele>92.3</ele>
        <time>2019-10-19T09:33:38Z</time>
      </trkpt>
      <trkpt lat="38.2745120" lon="-0.6740330">
        <ele>92.1</ele>
        <time>2019-10-19T09:33:39Z</time>
      </trkpt>
      <trkpt lat="38.2745030" lon="-0.6739860">
        <ele>92.0</ele>
        <time>2019-10-19T09:33:40Z</time>
      </trkpt>
      <trkpt lat="38.2744640" lon="-0.6738140">
        <ele>91.2</ele>
        <time>2019-10-19T09:33:41Z</time>
      </trkpt>
      <trkpt lat="38.2744460" lon="-0.6737500">
        <ele>91.0</ele>
        <time>2019-10-19T09:33:42Z</time>
      </trkpt>
      <trkpt lat="38.2744270" lon="-0.6736860">
        <ele>90.8</ele>
        <time>2019-10-19T09:33:43Z</time>
      </trkpt>
      <trkpt lat="38.2743900" lon="-0.6735590">
        <ele>90.6</ele>
        <time>2019-10-19T09:33:44Z</time>
      </trkpt>
      <trkpt lat="38.2743640" lon="-0.6735290">
        <ele>90.5</ele>
        <time>2019-10-19T09:33:45Z</time>
      </trkpt>
      <trkpt lat="38.2743380" lon="-0.6734990">
        <ele>90.3</ele>
        <time>2019-10-19T09:33:46Z</time>
      </trkpt>
      <trkpt lat="38.2742600" lon="-0.6734100">
        <ele>89.9</ele>
        <time>2019-10-19T09:33:47Z</time>
      </trkpt>
      <trkpt lat="38.2742330" lon="-0.6733810">
        <ele>89.9</ele>
        <time>2019-10-19T09:33:48Z</time>
      </trkpt>
      <trkpt lat="38.2741670" lon="-0.6732240">
        <ele>89.7</ele>
        <time>2019-10-19T09:33:49Z</time>
      </trkpt>
      <trkpt lat="38.2741630" lon="-0.6731330">
        <ele>89.5</ele>
        <time>2019-10-19T09:33:50Z</time>
      </trkpt>
      <trkpt lat="38.2741730" lon="-0.6730900">
        <ele>89.4</ele>
        <time>2019-10-19T09:33:51Z</time>
      </trkpt>
      <trkpt lat="38.2741820" lon="-0.6730470">
        <ele>89.2</ele>
        <time>2019-10-19T09:33:52Z</time>
      </trkpt>
      <trkpt lat="38.2742070" lon="-0.6729150">
        <ele>88.7</ele>
        <time>2019-10-19T09:33:53Z</time>
      </trkpt>
      <trkpt lat="38.2742120" lon="-0.6728700">
        <ele>88.5</ele>
        <time>2019-10-19T09:33:54Z</time>
      </trkpt>
      <trkpt lat="38.2742120" lon="-0.6727350">
        <ele>88.0</ele>
        <time>2019-10-19T09:33:55Z</time>
      </trkpt>
      <trkpt lat="38.2742010" lon="-0.6726900">
        <ele>88.0</ele>
        <time>2019-10-19T09:33:56Z</time>
      </trkpt>
      <trkpt lat="38.2741490" lon="-0.6725400">
        <ele>87.5</ele>
        <time>2019-10-19T09:33:57Z</time>
      </trkpt>
      <trkpt lat="38.2741200" lon="-0.6724790">
        <ele>87.4</ele>
        <time>2019-10-19T09:33:58Z</time>
      </trkpt>
      <trkpt lat="38.2740620" lon="-0.6723570">
        <ele>87.1</ele>
        <time>2019-10-19T09:33:59Z</time>
      </trkpt>
      <trkpt lat="38.2740410" lon="-0.6723170">
        <ele>87.0</ele>
        <time>2019-10-19T09:34:00Z</time>
      </trkpt>
      <trkpt lat="38.2740190" lon="-0.6722780">
        <ele>86.9</ele>
        <time>2019-10-19T09:34:01Z</time>
      </trkpt>
      <trkpt lat="38.2739740" lon="-0.6722030">
        <ele>86.8</ele>
        <time>2019-10-19T09:34:02Z</time>
      </trkpt>
      <trkpt lat="38.2739260" lon="-0.6721290">
        <ele>86.7</ele>
        <time>2019-10-19T09:34:03Z</time>
      </trkpt>
      <trkpt lat="38.2738210" lon="-0.6719880">
        <ele>86.5</ele>
        <time>2019-10-19T09:34:04Z</time>
      </trkpt>
      <trkpt lat="38.2737930" lon="-0.6719560">
        <ele>86.4</ele>
        <time>2019-10-19T09:34:05Z</time>
      </trkpt>
      <trkpt lat="38.2737640" lon="-0.6719240">
        <ele>86.4</ele>
        <time>2019-10-19T09:34:06Z</time>
      </trkpt>
      <trkpt lat="38.2736480" lon="-0.6718020">
        <ele>86.1</ele>
        <time>2019-10-19T09:34:07Z</time>
      </trkpt>
      <trkpt lat="38.2736180" lon="-0.6717730">
        <ele>86.0</ele>
        <time>2019-10-19T09:34:08Z</time>
      </trkpt>
      <trkpt lat="38.2735880" lon="-0.6717450">
        <ele>86.0</ele>
        <time>2019-10-19T09:34:09Z</time>
      </trkpt>
      <trkpt lat="38.2735260" lon="-0.6716920">
        <ele>85.8</ele>
        <time>2019-10-19T09:34:10Z</time>
      </trkpt>
      <trkpt lat="38.2733950" lon="-0.6716040">
        <ele>85.5</ele>
        <time>2019-10-19T09:34:11Z</time>
      </trkpt>
      <trkpt lat="38.2733260" lon="-0.6715660">
        <ele>85.4</ele>
        <time>2019-10-19T09:34:12Z</time>
      </trkpt>
      <trkpt lat="38.2732910" lon="-0.6715480">
        <ele>85.4</ele>
        <time>2019-10-19T09:34:13Z</time>
      </trkpt>
      <trkpt lat="38.2732550" lon="-0.6715310">
        <ele>85.4</ele>
        <time>2019-10-19T09:34:14Z</time>
      </trkpt>
      <trkpt lat="38.2731840" lon="-0.6715000">
        <ele>85.3</ele>
        <time>2019-10-19T09:34:15Z</time>
      </trkpt>
      <trkpt lat="38.2730480" lon="-0.6714440">
        <ele>85.3</ele>
        <time>2019-10-19T09:34:16Z</time>
      </trkpt>
      <trkpt lat="38.2729830" lon="-0.6714160">
        <ele>85.3</ele>
        <time>2019-10-19T09:34:17Z</time>
      </trkpt>
      <trkpt lat="38.2729210" lon="-0.6713890">
        <ele>85.3</ele>
        <time>2019-10-19T09:34:18Z</time>
      </trkpt>
      <trkpt lat="38.2728920" lon="-0.6713800">
        <ele>85.4</ele>
        <time>2019-10-19T09:34:19Z</time>
      </trkpt>
      <trkpt lat="38.2728620" lon="-0.6713710">
        <ele>85.4</ele>
        <time>2019-10-19T09:34:20Z</time>
      </trkpt>
      <trkpt lat="38.2727810" lon="-0.6713540">
        <ele>85.4</ele>
        <time>2019-10-19T09:34:21Z</time>
      </trkpt>
      <trkpt lat="38.2727600" lon="-0.6713540">
        <ele>85.5</ele>
        <time>2019-10-19T09:34:22Z</time>
      </trkpt>
      <trkpt lat="38.2726840" lon="-0.6713780">
        <ele>85.5</ele>
        <time>2019-10-19T09:34:23Z</time>
      </trkpt>
      <trkpt lat="38.2726400" lon="-0.6713940">
        <ele>85.6</ele>
        <time>2019-10-19T09:34:24Z</time>
      </trkpt>
      <trkpt lat="38.2725950" lon="-0.6714090">
        <ele>85.7</ele>
        <time>2019-10-19T09:34:25Z</time>
      </trkpt>
      <trkpt lat="38.2725700" lon="-0.6714150">
        <ele>85.7</ele>
        <time>2019-10-19T09:34:26Z</time>
      </trkpt>
      <trkpt lat="38.2725450" lon="-0.6714210">
        <ele>85.7</ele>
        <time>2019-10-19T09:34:27Z</time>
      </trkpt>
      <trkpt lat="38.2724910" lon="-0.6714270">
        <ele>85.8</ele>
        <time>2019-10-19T09:34:28Z</time>
      </trkpt>
      <trkpt lat="38.2724330" lon="-0.6714240">
        <ele>85.9</ele>
        <time>2019-10-19T09:34:29Z</time>
      </trkpt>
      <trkpt lat="38.2723760" lon="-0.6714110">
        <ele>85.9</ele>
        <time>2019-10-19T09:34:30Z</time>
      </trkpt>
      <trkpt lat="38.2722610" lon="-0.6713430">
        <ele>86.0</ele>
        <time>2019-10-19T09:34:31Z</time>
      </trkpt>
      <trkpt lat="38.2722360" lon="-0.6713180">
        <ele>86.0</ele>
        <time>2019-10-19T09:34:32Z</time>
      </trkpt>
      <trkpt lat="38.2722110" lon="-0.6712930">
        <ele>86.1</ele>
        <time>2019-10-19T09:34:33Z</time>
      </trkpt>
      <trkpt lat="38.2721360" lon="-0.6711610">
        <ele>86.1</ele>
        <time>2019-10-19T09:34:34Z</time>
      </trkpt>
      <trkpt lat="38.2721190" lon="-0.6711230">
        <ele>86.1</ele>
        <time>2019-10-19T09:34:35Z</time>
      </trkpt>
      <trkpt lat="38.2721010" lon="-0.6710860">
        <ele>86.1</ele>
        <time>2019-10-19T09:34:36Z</time>
      </trkpt>
      <trkpt lat="38.2720430" lon="-0.6709840">
        <ele>86.1</ele>
        <time>2019-10-19T09:34:37Z</time>
      </trkpt>
      <trkpt lat="38.2720430" lon="-0.6709840">
        <ele>86.1</ele>
        <time>2019-10-19T09:34:38Z</time>
      </trkpt>
      <trkpt lat="38.2720260" lon="-0.6709640">
        <ele>86.2</ele>
        <time>2019-10-19T09:34:39Z</time>
      </trkpt>
      <trkpt lat="38.2720040" lon="-0.6709400">
        <ele>86.2</ele>
        <time>2019-10-19T09:34:40Z</time>
      </trkpt>
      <trkpt lat="38.2720040" lon="-0.6709400">
        <ele>86.2</ele>
        <time>2019-10-19T09:34:41Z</time>
      </trkpt>
      <trkpt lat="38.2719880" lon="-0.6709260">
        <ele>86.3</ele>
        <time>2019-10-19T09:34:42Z</time>
      </trkpt>
      <trkpt lat="38.2719630" lon="-0.6709090">
        <ele>86.3</ele>
        <time>2019-10-19T09:34:43Z</time>
      </trkpt>
      <trkpt lat="38.2719270" lon="-0.6708900">
        <ele>86.4</ele>
        <time>2019-10-19T09:34:44Z</time>
      </trkpt>
      <trkpt lat="38.2718860" lon="-0.6708710">
        <ele>86.5</ele>
        <time>2019-10-19T09:34:45Z</time>
      </trkpt>
      <trkpt lat="38.2718380" lon="-0.6708530">
        <ele>86.5</ele>
        <time>2019-10-19T09:34:46Z</time>
      </trkpt>
      <trkpt lat="38.2717860" lon="-0.6708330">
        <ele>86.6</ele>
        <time>2019-10-19T09:34:47Z</time>
      </trkpt>
      <trkpt lat="38.2717330" lon="-0.6708060">
        <ele>86.6</ele>
        <time>2019-10-19T09:34:48Z</time>
      </trkpt>
      <trkpt lat="38.2716740" lon="-0.6707850">
        <ele>86.6</ele>
        <time>2019-10-19T09:34:49Z</time>
      </trkpt>
      <trkpt lat="38.2715540" lon="-0.6707460">
        <ele>86.5</ele>
        <time>2019-10-19T09:34:50Z</time>
      </trkpt>
      <trkpt lat="38.2715220" lon="-0.6707340">
        <ele>86.4</ele>
        <time>2019-10-19T09:34:51Z</time>
      </trkpt>
      <trkpt lat="38.2714890" lon="-0.6707220">
        <ele>86.4</ele>
        <time>2019-10-19T09:34:52Z</time>
      </trkpt>
      <trkpt lat="38.2714230" lon="-0.6706990">
        <ele>86.2</ele>
        <time>2019-10-19T09:34:53Z</time>
      </trkpt>
      <trkpt lat="38.2713550" lon="-0.6706730">
        <ele>86.1</ele>
        <time>2019-10-19T09:34:54Z</time>
      </trkpt>
      <trkpt lat="38.2712880" lon="-0.6706510">
        <ele>86.0</ele>
        <time>2019-10-19T09:34:55Z</time>
      </trkpt>
      <trkpt lat="38.2712200" lon="-0.6706280">
        <ele>86.0</ele>
        <time>2019-10-19T09:34:56Z</time>
      </trkpt>
      <trkpt lat="38.2711500" lon="-0.6706040">
        <ele>85.9</ele>
        <time>2019-10-19T09:34:57Z</time>
      </trkpt>
      <trkpt lat="38.2710810" lon="-0.6705830">
        <ele>85.9</ele>
        <time>2019-10-19T09:34:58Z</time>
      </trkpt>
      <trkpt lat="38.2710120" lon="-0.6705590">
        <ele>85.9</ele>
        <time>2019-10-19T09:34:59Z</time>
      </trkpt>
      <trkpt lat="38.2709430" lon="-0.6705350">
        <ele>86.0</ele>
        <time>2019-10-19T09:35:00Z</time>
      </trkpt>
      <trkpt lat="38.2708750" lon="-0.6705120">
        <ele>86.0</ele>
        <time>2019-10-19T09:35:01Z</time>
      </trkpt>
      <trkpt lat="38.2708050" lon="-0.6704910">
        <ele>86.0</ele>
        <time>2019-10-19T09:35:02Z</time>
      </trkpt>
      <trkpt lat="38.2706690" lon="-0.6704480">
        <ele>85.4</ele>
        <time>2019-10-19T09:35:03Z</time>
      </trkpt>
      <trkpt lat="38.2706040" lon="-0.6704330">
        <ele>85.0</ele>
        <time>2019-10-19T09:35:04Z</time>
      </trkpt>
      <trkpt lat="38.2705730" lon="-0.6704290">
        <ele>84.9</ele>
        <time>2019-10-19T09:35:05Z</time>
      </trkpt>
      <trkpt lat="38.2705410" lon="-0.6704260">
        <ele>84.7</ele>
        <time>2019-10-19T09:35:06Z</time>
      </trkpt>
      <trkpt lat="38.2704770" lon="-0.6704360">
        <ele>84.3</ele>
        <time>2019-10-19T09:35:07Z</time>
      </trkpt>
      <trkpt lat="38.2704160" lon="-0.6704650">
        <ele>83.9</ele>
        <time>2019-10-19T09:35:08Z</time>
      </trkpt>
      <trkpt lat="38.2703570" lon="-0.6704980">
        <ele>83.5</ele>
        <time>2019-10-19T09:35:09Z</time>
      </trkpt>
      <trkpt lat="38.2702280" lon="-0.6705220">
        <ele>82.8</ele>
        <time>2019-10-19T09:35:10Z</time>
      </trkpt>
      <trkpt lat="38.2701950" lon="-0.6705150">
        <ele>82.6</ele>
        <time>2019-10-19T09:35:11Z</time>
      </trkpt>
      <trkpt lat="38.2701610" lon="-0.6705080">
        <ele>82.4</ele>
        <time>2019-10-19T09:35:12Z</time>
      </trkpt>
      <trkpt lat="38.2700960" lon="-0.6704780">
        <ele>82.0</ele>
        <time>2019-10-19T09:35:13Z</time>
      </trkpt>
      <trkpt lat="38.2700380" lon="-0.6704320">
        <ele>81.7</ele>
        <time>2019-10-19T09:35:14Z</time>
      </trkpt>
      <trkpt lat="38.2699850" lon="-0.6703750">
        <ele>81.5</ele>
        <time>2019-10-19T09:35:15Z</time>
      </trkpt>
      <trkpt lat="38.2699310" lon="-0.6703220">
        <ele>81.2</ele>
        <time>2019-10-19T09:35:16Z</time>
      </trkpt>
      <trkpt lat="38.2698030" lon="-0.6702620">
        <ele>80.8</ele>
        <time>2019-10-19T09:35:17Z</time>
      </trkpt>
      <trkpt lat="38.2697680" lon="-0.6702630">
        <ele>80.8</ele>
        <time>2019-10-19T09:35:18Z</time>
      </trkpt>
      <trkpt lat="38.2697330" lon="-0.6702630">
        <ele>80.7</ele>
        <time>2019-10-19T09:35:19Z</time>
      </trkpt>
      <trkpt lat="38.2696680" lon="-0.6702890">
        <ele>80.5</ele>
        <time>2019-10-19T09:35:20Z</time>
      </trkpt>
      <trkpt lat="38.2696120" lon="-0.6703320">
        <ele>80.4</ele>
        <time>2019-10-19T09:35:21Z</time>
      </trkpt>
      <trkpt lat="38.2695570" lon="-0.6703810">
        <ele>80.4</ele>
        <time>2019-10-19T09:35:22Z</time>
      </trkpt>
      <trkpt lat="38.2694960" lon="-0.6704200">
        <ele>80.3</ele>
        <time>2019-10-19T09:35:23Z</time>
      </trkpt>
      <trkpt lat="38.2694310" lon="-0.6704420">
        <ele>80.3</ele>
        <time>2019-10-19T09:35:24Z</time>
      </trkpt>
      <trkpt lat="38.2693620" lon="-0.6704450">
        <ele>80.3</ele>
        <time>2019-10-19T09:35:25Z</time>
      </trkpt>
      <trkpt lat="38.2692930" lon="-0.6704310">
        <ele>80.3</ele>
        <time>2019-10-19T09:35:26Z</time>
      </trkpt>
      <trkpt lat="38.2691700" lon="-0.6703480">
        <ele>80.2</ele>
        <time>2019-10-19T09:35:27Z</time>
      </trkpt>
      <trkpt lat="38.2691500" lon="-0.6703120">
        <ele>80.1</ele>
        <time>2019-10-19T09:35:28Z</time>
      </trkpt>
      <trkpt lat="38.2691290" lon="-0.6702770">
        <ele>80.1</ele>
        <time>2019-10-19T09:35:29Z</time>
      </trkpt>
      <trkpt lat="38.2691000" lon="-0.6701920">
        <ele>80.1</ele>
        <time>2019-10-19T09:35:30Z</time>
      </trkpt>
      <trkpt lat="38.2690850" lon="-0.6701000">
        <ele>80.0</ele>
        <time>2019-10-19T09:35:31Z</time>
      </trkpt>
      <trkpt lat="38.2691070" lon="-0.6699200">
        <ele>80.0</ele>
        <time>2019-10-19T09:35:32Z</time>
      </trkpt>
      <trkpt lat="38.2691230" lon="-0.6698790">
        <ele>80.0</ele>
        <time>2019-10-19T09:35:33Z</time>
      </trkpt>
      <trkpt lat="38.2691390" lon="-0.6698370">
        <ele>80.0</ele>
        <time>2019-10-19T09:35:34Z</time>
      </trkpt>
      <trkpt lat="38.2691980" lon="-0.6696750">
        <ele>79.9</ele>
        <time>2019-10-19T09:35:35Z</time>
      </trkpt>
      <trkpt lat="38.2691970" lon="-0.6696090">
        <ele>79.9</ele>
        <time>2019-10-19T09:35:36Z</time>
      </trkpt>
      <trkpt lat="38.2691960" lon="-0.6695430">
        <ele>79.8</ele>
        <time>2019-10-19T09:35:37Z</time>
      </trkpt>
      <trkpt lat="38.2691930" lon="-0.6694120">
        <ele>79.7</ele>
        <time>2019-10-19T09:35:38Z</time>
      </trkpt>
      <trkpt lat="38.2691880" lon="-0.6693680">
        <ele>79.7</ele>
        <time>2019-10-19T09:35:39Z</time>
      </trkpt>
      <trkpt lat="38.2691830" lon="-0.6693240">
        <ele>79.6</ele>
        <time>2019-10-19T09:35:40Z</time>
      </trkpt>
      <trkpt lat="38.2691740" lon="-0.6692360">
        <ele>79.6</ele>
        <time>2019-10-19T09:35:41Z</time>
      </trkpt>
      <trkpt lat="38.2691640" lon="-0.6691470">
        <ele>79.5</ele>
        <time>2019-10-19T09:35:42Z</time>
      </trkpt>
      <trkpt lat="38.2691450" lon="-0.6689670">
        <ele>79.2</ele>
        <time>2019-10-19T09:35:43Z</time>
      </trkpt>
      <trkpt lat="38.2691390" lon="-0.6688770">
        <ele>79.1</ele>
        <time>2019-10-19T09:35:44Z</time>
      </trkpt>
      <trkpt lat="38.2691320" lon="-0.6687840">
        <ele>79.0</ele>
        <time>2019-10-19T09:35:45Z</time>
      </trkpt>
      <trkpt lat="38.2691290" lon="-0.6687370">
        <ele>78.9</ele>
        <time>2019-10-19T09:35:46Z</time>
      </trkpt>
      <trkpt lat="38.2691250" lon="-0.6686910">
        <ele>78.9</ele>
        <time>2019-10-19T09:35:47Z</time>
      </trkpt>
      <trkpt lat="38.2691170" lon="-0.6685990">
        <ele>78.7</ele>
        <time>2019-10-19T09:35:48Z</time>
      </trkpt>
      <trkpt lat="38.2691090" lon="-0.6685060">
        <ele>78.6</ele>
        <time>2019-10-19T09:35:49Z</time>
      </trkpt>
      <trkpt lat="38.2691010" lon="-0.6683190">
        <ele>78.5</ele>
        <time>2019-10-19T09:35:50Z</time>
      </trkpt>
      <trkpt lat="38.2691050" lon="-0.6682270">
        <ele>78.5</ele>
        <time>2019-10-19T09:35:51Z</time>
      </trkpt>
      <trkpt lat="38.2691050" lon="-0.6681330">
        <ele>78.5</ele>
        <time>2019-10-19T09:35:52Z</time>
      </trkpt>
      <trkpt lat="38.2691060" lon="-0.6680860">
        <ele>78.5</ele>
        <time>2019-10-19T09:35:53Z</time>
      </trkpt>
      <trkpt lat="38.2691070" lon="-0.6680380">
        <ele>78.4</ele>
        <time>2019-10-19T09:35:54Z</time>
      </trkpt>
      <trkpt lat="38.2691090" lon="-0.6678950">
        <ele>78.4</ele>
        <time>2019-10-19T09:35:55Z</time>
      </trkpt>
      <trkpt lat="38.2691090" lon="-0.6678460">
        <ele>78.4</ele>
        <time>2019-10-19T09:35:56Z</time>
      </trkpt>
      <trkpt lat="38.2691090" lon="-0.6677500">
        <ele>78.4</ele>
        <time>2019-10-19T09:35:57Z</time>
      </trkpt>
      <trkpt lat="38.2691090" lon="-0.6676530">
        <ele>78.4</ele>
        <time>2019-10-19T09:35:58Z</time>
      </trkpt>
      <trkpt lat="38.2691090" lon="-0.6675570">
        <ele>78.4</ele>
        <time>2019-10-19T09:35:59Z</time>
      </trkpt>
      <trkpt lat="38.2691090" lon="-0.6674600">
        <ele>78.3</ele>
        <time>2019-10-19T09:36:00Z</time>
      </trkpt>
      <trkpt lat="38.2691100" lon="-0.6673630">
        <ele>78.3</ele>
        <time>2019-10-19T09:36:01Z</time>
      </trkpt>
      <trkpt lat="38.2691120" lon="-0.6672640">
        <ele>78.2</ele>
        <time>2019-10-19T09:36:02Z</time>
      </trkpt>
      <trkpt lat="38.2691130" lon="-0.6671670">
        <ele>78.0</ele>
        <time>2019-10-19T09:36:03Z</time>
      </trkpt>
      <trkpt lat="38.2691150" lon="-0.6669760">
        <ele>77.6</ele>
        <time>2019-10-19T09:36:04Z</time>
      </trkpt>
      <trkpt lat="38.2691150" lon="-0.6669290">
        <ele>77.5</ele>
        <time>2019-10-19T09:36:05Z</time>
      </trkpt>
      <trkpt lat="38.2691150" lon="-0.6668820">
        <ele>77.5</ele>
        <time>2019-10-19T09:36:06Z</time>
      </trkpt>
      <trkpt lat="38.2691150" lon="-0.6667890">
        <ele>77.4</ele>
        <time>2019-10-19T09:36:07Z</time>
      </trkpt>
      <trkpt lat="38.2691130" lon="-0.6666970">
        <ele>77.3</ele>
        <time>2019-10-19T09:36:08Z</time>
      </trkpt>
      <trkpt lat="38.2691110" lon="-0.6666040">
        <ele>77.3</ele>
        <time>2019-10-19T09:36:09Z</time>
      </trkpt>
      <trkpt lat="38.2691100" lon="-0.6664190">
        <ele>77.3</ele>
        <time>2019-10-19T09:36:10Z</time>
      </trkpt>
      <trkpt lat="38.2691100" lon="-0.6663730">
        <ele>77.4</ele>
        <time>2019-10-19T09:36:11Z</time>
      </trkpt>
      <trkpt lat="38.2691090" lon="-0.6663270">
        <ele>77.4</ele>
        <time>2019-10-19T09:36:12Z</time>
      </trkpt>
      <trkpt lat="38.2691070" lon="-0.6662360">
        <ele>77.6</ele>
        <time>2019-10-19T09:36:13Z</time>
      </trkpt>
      <trkpt lat="38.2691030" lon="-0.6661450">
        <ele>77.8</ele>
        <time>2019-10-19T09:36:14Z</time>
      </trkpt>
      <trkpt lat="38.2691020" lon="-0.6660610">
        <ele>77.9</ele>
        <time>2019-10-19T09:36:15Z</time>
      </trkpt>
      <trkpt lat="38.2691040" lon="-0.6658870">
        <ele>78.1</ele>
        <time>2019-10-19T09:36:16Z</time>
      </trkpt>
      <trkpt lat="38.2691040" lon="-0.6658400">
        <ele>78.1</ele>
        <time>2019-10-19T09:36:17Z</time>
      </trkpt>
      <trkpt lat="38.2691030" lon="-0.6657940">
        <ele>78.1</ele>
        <time>2019-10-19T09:36:18Z</time>
      </trkpt>
      <trkpt lat="38.2691010" lon="-0.6657030">
        <ele>78.1</ele>
        <time>2019-10-19T09:36:19Z</time>
      </trkpt>
      <trkpt lat="38.2690990" lon="-0.6656110">
        <ele>78.1</ele>
        <time>2019-10-19T09:36:20Z</time>
      </trkpt>
      <trkpt lat="38.2691000" lon="-0.6655180">
        <ele>78.1</ele>
        <time>2019-10-19T09:36:21Z</time>
      </trkpt>
      <trkpt lat="38.2691020" lon="-0.6654250">
        <ele>78.1</ele>
        <time>2019-10-19T09:36:22Z</time>
      </trkpt>
      <trkpt lat="38.2691050" lon="-0.6653310">
        <ele>78.1</ele>
        <time>2019-10-19T09:36:23Z</time>
      </trkpt>
      <trkpt lat="38.2691100" lon="-0.6652360">
        <ele>78.1</ele>
        <time>2019-10-19T09:36:24Z</time>
      </trkpt>
      <trkpt lat="38.2691170" lon="-0.6651390">
        <ele>78.0</ele>
        <time>2019-10-19T09:36:25Z</time>
      </trkpt>
      <trkpt lat="38.2691260" lon="-0.6650430">
        <ele>78.0</ele>
        <time>2019-10-19T09:36:26Z</time>
      </trkpt>
      <trkpt lat="38.2691370" lon="-0.6649470">
        <ele>78.1</ele>
        <time>2019-10-19T09:36:27Z</time>
      </trkpt>
      <trkpt lat="38.2691510" lon="-0.6648490">
        <ele>78.1</ele>
        <time>2019-10-19T09:36:28Z</time>
      </trkpt>
      <trkpt lat="38.2691610" lon="-0.6647500">
        <ele>78.3</ele>
        <time>2019-10-19T09:36:29Z</time>
      </trkpt>
      <trkpt lat="38.2691710" lon="-0.6646500">
        <ele>78.9</ele>
        <time>2019-10-19T09:36:30Z</time>
      </trkpt>
      <trkpt lat="38.2691840" lon="-0.6645510">
        <ele>79.4</ele>
        <time>2019-10-19T09:36:31Z</time>
      </trkpt>
      <trkpt lat="38.2691990" lon="-0.6644540">
        <ele>79.9</ele>
        <time>2019-10-19T09:36:32Z</time>
      </trkpt>
      <trkpt lat="38.2692150" lon="-0.6643550">
        <ele>80.3</ele>
        <time>2019-10-19T09:36:33Z</time>
      </trkpt>
      <trkpt lat="38.2692300" lon="-0.6642560">
        <ele>80.4</ele>
        <time>2019-10-19T09:36:34Z</time>
      </trkpt>
      <trkpt lat="38.2692440" lon="-0.6641580">
        <ele>80.3</ele>
        <time>2019-10-19T09:36:35Z</time>
      </trkpt>
      <trkpt lat="38.2692700" lon="-0.6639600">
        <ele>80.2</ele>
        <time>2019-10-19T09:36:36Z</time>
      </trkpt>
      <trkpt lat="38.2692740" lon="-0.6639100">
        <ele>80.1</ele>
        <time>2019-10-19T09:36:37Z</time>
      </trkpt>
      <trkpt lat="38.2692780" lon="-0.6638590">
        <ele>80.0</ele>
        <time>2019-10-19T09:36:38Z</time>
      </trkpt>
      <trkpt lat="38.2692880" lon="-0.6637600">
        <ele>79.9</ele>
        <time>2019-10-19T09:36:39Z</time>
      </trkpt>
      <trkpt lat="38.2692950" lon="-0.6636600">
        <ele>79.8</ele>
        <time>2019-10-19T09:36:40Z</time>
      </trkpt>
      <trkpt lat="38.2693040" lon="-0.6634530">
        <ele>79.7</ele>
        <time>2019-10-19T09:36:41Z</time>
      </trkpt>
      <trkpt lat="38.2693040" lon="-0.6633510">
        <ele>79.6</ele>
        <time>2019-10-19T09:36:42Z</time>
      </trkpt>
      <trkpt lat="38.2693030" lon="-0.6632970">
        <ele>79.6</ele>
        <time>2019-10-19T09:36:43Z</time>
      </trkpt>
      <trkpt lat="38.2693010" lon="-0.6632440">
        <ele>79.6</ele>
        <time>2019-10-19T09:36:44Z</time>
      </trkpt>
      <trkpt lat="38.2692950" lon="-0.6630860">
        <ele>79.5</ele>
        <time>2019-10-19T09:36:45Z</time>
      </trkpt>
      <trkpt lat="38.2692910" lon="-0.6630340">
        <ele>79.5</ele>
        <time>2019-10-19T09:36:46Z</time>
      </trkpt>
      <trkpt lat="38.2692790" lon="-0.6628790">
        <ele>79.4</ele>
        <time>2019-10-19T09:36:47Z</time>
      </trkpt>
      <trkpt lat="38.2692740" lon="-0.6628280">
        <ele>79.3</ele>
        <time>2019-10-19T09:36:48Z</time>
      </trkpt>
      <trkpt lat="38.2692520" lon="-0.6626250">
        <ele>79.3</ele>
        <time>2019-10-19T09:36:49Z</time>
      </trkpt>
      <trkpt lat="38.2692390" lon="-0.6625230">
        <ele>79.2</ele>
        <time>2019-10-19T09:36:50Z</time>
      </trkpt>
      <trkpt lat="38.2692280" lon="-0.6624480">
        <ele>79.2</ele>
        <time>2019-10-19T09:36:51Z</time>
      </trkpt>
      <trkpt lat="38.2692160" lon="-0.6623730">
        <ele>79.2</ele>
        <time>2019-10-19T09:36:52Z</time>
      </trkpt>
      <trkpt lat="38.2691930" lon="-0.6622230">
        <ele>79.1</ele>
        <time>2019-10-19T09:36:53Z</time>
      </trkpt>
      <trkpt lat="38.2691850" lon="-0.6621730">
        <ele>79.1</ele>
        <time>2019-10-19T09:36:54Z</time>
      </trkpt>
      <trkpt lat="38.2691770" lon="-0.6621240">
        <ele>79.0</ele>
        <time>2019-10-19T09:36:55Z</time>
      </trkpt>
      <trkpt lat="38.2691440" lon="-0.6619230">
        <ele>78.8</ele>
        <time>2019-10-19T09:36:56Z</time>
      </trkpt>
      <trkpt lat="38.2691340" lon="-0.6618500">
        <ele>78.6</ele>
        <time>2019-10-19T09:36:57Z</time>
      </trkpt>
      <trkpt lat="38.2691240" lon="-0.6617770">
        <ele>78.4</ele>
        <time>2019-10-19T09:36:58Z</time>
      </trkpt>
      <trkpt lat="38.2691040" lon="-0.6616310">
        <ele>78.4</ele>
        <time>2019-10-19T09:36:59Z</time>
      </trkpt>
      <trkpt lat="38.2690990" lon="-0.6615900">
        <ele>78.5</ele>
        <time>2019-10-19T09:37:00Z</time>
      </trkpt>
      <trkpt lat="38.2690930" lon="-0.6615500">
        <ele>78.5</ele>
        <time>2019-10-19T09:37:01Z</time>
      </trkpt>
      <trkpt lat="38.2690790" lon="-0.6614180">
        <ele>78.8</ele>
        <time>2019-10-19T09:37:02Z</time>
      </trkpt>
      <trkpt lat="38.2690760" lon="-0.6613660">
        <ele>78.9</ele>
        <time>2019-10-19T09:37:03Z</time>
      </trkpt>
      <trkpt lat="38.2690700" lon="-0.6612630">
        <ele>79.1</ele>
        <time>2019-10-19T09:37:04Z</time>
      </trkpt>
      <trkpt lat="38.2690700" lon="-0.6612310">
        <ele>79.2</ele>
        <time>2019-10-19T09:37:05Z</time>
      </trkpt>
      <trkpt lat="38.2690700" lon="-0.6611990">
        <ele>79.2</ele>
        <time>2019-10-19T09:37:06Z</time>
      </trkpt>
      <trkpt lat="38.2690710" lon="-0.6611360">
        <ele>79.4</ele>
        <time>2019-10-19T09:37:07Z</time>
      </trkpt>
      <trkpt lat="38.2690720" lon="-0.6610730">
        <ele>79.5</ele>
        <time>2019-10-19T09:37:08Z</time>
      </trkpt>
      <trkpt lat="38.2690730" lon="-0.6610080">
        <ele>79.7</ele>
        <time>2019-10-19T09:37:09Z</time>
      </trkpt>
      <trkpt lat="38.2690740" lon="-0.6608640">
        <ele>80.3</ele>
        <time>2019-10-19T09:37:10Z</time>
      </trkpt>
      <trkpt lat="38.2690760" lon="-0.6608270">
        <ele>80.4</ele>
        <time>2019-10-19T09:37:11Z</time>
      </trkpt>
      <trkpt lat="38.2690770" lon="-0.6607900">
        <ele>80.5</ele>
        <time>2019-10-19T09:37:12Z</time>
      </trkpt>
      <trkpt lat="38.2690790" lon="-0.6606390">
        <ele>80.9</ele>
        <time>2019-10-19T09:37:13Z</time>
      </trkpt>
      <trkpt lat="38.2690800" lon="-0.6605620">
        <ele>81.1</ele>
        <time>2019-10-19T09:37:14Z</time>
      </trkpt>
      <trkpt lat="38.2690820" lon="-0.6604800">
        <ele>81.2</ele>
        <time>2019-10-19T09:37:15Z</time>
      </trkpt>
      <trkpt lat="38.2690840" lon="-0.6604180">
        <ele>81.3</ele>
        <time>2019-10-19T09:37:16Z</time>
      </trkpt>
      <trkpt lat="38.2690850" lon="-0.6603550">
        <ele>81.4</ele>
        <time>2019-10-19T09:37:17Z</time>
      </trkpt>
      <trkpt lat="38.2690880" lon="-0.6602300">
        <ele>81.7</ele>
        <time>2019-10-19T09:37:18Z</time>
      </trkpt>
      <trkpt lat="38.2690900" lon="-0.6601880">
        <ele>81.5</ele>
        <time>2019-10-19T09:37:19Z</time>
      </trkpt>
      <trkpt lat="38.2690910" lon="-0.6601450">
        <ele>81.3</ele>
        <time>2019-10-19T09:37:20Z</time>
      </trkpt>
      <trkpt lat="38.2690930" lon="-0.6600550">
        <ele>80.9</ele>
        <time>2019-10-19T09:37:21Z</time>
      </trkpt>
      <trkpt lat="38.2691110" lon="-0.6598640">
        <ele>79.8</ele>
        <time>2019-10-19T09:37:22Z</time>
      </trkpt>
      <trkpt lat="38.2691270" lon="-0.6597630">
        <ele>79.4</ele>
        <time>2019-10-19T09:37:23Z</time>
      </trkpt>
      <trkpt lat="38.2691380" lon="-0.6597120">
        <ele>79.2</ele>
        <time>2019-10-19T09:37:24Z</time>
      </trkpt>
      <trkpt lat="38.2691490" lon="-0.6596600">
        <ele>79.0</ele>
        <time>2019-10-19T09:37:25Z</time>
      </trkpt>
      <trkpt lat="38.2692100" lon="-0.6594440">
        <ele>78.2</ele>
        <time>2019-10-19T09:37:26Z</time>
      </trkpt>
      <trkpt lat="38.2692290" lon="-0.6593890">
        <ele>78.0</ele>
        <time>2019-10-19T09:37:27Z</time>
      </trkpt>
      <trkpt lat="38.2692470" lon="-0.6593340">
        <ele>77.9</ele>
        <time>2019-10-19T09:37:28Z</time>
      </trkpt>
      <trkpt lat="38.2692840" lon="-0.6592190">
        <ele>77.6</ele>
        <time>2019-10-19T09:37:29Z</time>
      </trkpt>
      <trkpt lat="38.2693200" lon="-0.6590990">
        <ele>77.4</ele>
        <time>2019-10-19T09:37:30Z</time>
      </trkpt>
      <trkpt lat="38.2693540" lon="-0.6589770">
        <ele>77.2</ele>
        <time>2019-10-19T09:37:31Z</time>
      </trkpt>
      <trkpt lat="38.2693850" lon="-0.6588560">
        <ele>77.1</ele>
        <time>2019-10-19T09:37:32Z</time>
      </trkpt>
      <trkpt lat="38.2694300" lon="-0.6586740">
        <ele>76.9</ele>
        <time>2019-10-19T09:37:33Z</time>
      </trkpt>
      <trkpt lat="38.2694440" lon="-0.6586140">
        <ele>76.9</ele>
        <time>2019-10-19T09:37:34Z</time>
      </trkpt>
      <trkpt lat="38.2695020" lon="-0.6583800">
        <ele>77.1</ele>
        <time>2019-10-19T09:37:35Z</time>
      </trkpt>
      <trkpt lat="38.2695160" lon="-0.6583230">
        <ele>77.0</ele>
        <time>2019-10-19T09:37:36Z</time>
      </trkpt>
      <trkpt lat="38.2695300" lon="-0.6582650">
        <ele>77.0</ele>
        <time>2019-10-19T09:37:37Z</time>
      </trkpt>
      <trkpt lat="38.2695830" lon="-0.6580380">
        <ele>77.1</ele>
        <time>2019-10-19T09:37:38Z</time>
      </trkpt>
      <trkpt lat="38.2695950" lon="-0.6579810">
        <ele>77.1</ele>
        <time>2019-10-19T09:37:39Z</time>
      </trkpt>
      <trkpt lat="38.2696060" lon="-0.6579240">
        <ele>77.0</ele>
        <time>2019-10-19T09:37:40Z</time>
      </trkpt>
      <trkpt lat="38.2696260" lon="-0.6578120">
        <ele>77.0</ele>
        <time>2019-10-19T09:37:41Z</time>
      </trkpt>
      <trkpt lat="38.2696410" lon="-0.6577010">
        <ele>76.8</ele>
        <time>2019-10-19T09:37:42Z</time>
      </trkpt>
      <trkpt lat="38.2696570" lon="-0.6575900">
        <ele>76.7</ele>
        <time>2019-10-19T09:37:43Z</time>
      </trkpt>
      <trkpt lat="38.2696850" lon="-0.6573700">
        <ele>76.7</ele>
        <time>2019-10-19T09:37:44Z</time>
      </trkpt>
      <trkpt lat="38.2696920" lon="-0.6573150">
        <ele>76.7</ele>
        <time>2019-10-19T09:37:45Z</time>
      </trkpt>
      <trkpt lat="38.2696980" lon="-0.6572600">
        <ele>76.7</ele>
        <time>2019-10-19T09:37:46Z</time>
      </trkpt>
      <trkpt lat="38.2697150" lon="-0.6570950">
        <ele>76.7</ele>
        <time>2019-10-19T09:37:47Z</time>
      </trkpt>
      <trkpt lat="38.2697190" lon="-0.6570400">
        <ele>76.7</ele>
        <time>2019-10-19T09:37:48Z</time>
      </trkpt>
      <trkpt lat="38.2697280" lon="-0.6569310">
        <ele>76.7</ele>
        <time>2019-10-19T09:37:49Z</time>
      </trkpt>
      <trkpt lat="38.2697390" lon="-0.6568230">
        <ele>76.6</ele>
        <time>2019-10-19T09:37:50Z</time>
      </trkpt>
      <trkpt lat="38.2697500" lon="-0.6567150">
        <ele>76.6</ele>
        <time>2019-10-19T09:37:51Z</time>
      </trkpt>
      <trkpt lat="38.2697620" lon="-0.6566080">
        <ele>76.6</ele>
        <time>2019-10-19T09:37:52Z</time>
      </trkpt>
      <trkpt lat="38.2697760" lon="-0.6565020">
        <ele>76.7</ele>
        <time>2019-10-19T09:37:53Z</time>
      </trkpt>
      <trkpt lat="38.2698030" lon="-0.6562880">
        <ele>76.9</ele>
        <time>2019-10-19T09:37:54Z</time>
      </trkpt>
      <trkpt lat="38.2698100" lon="-0.6562350">
        <ele>77.0</ele>
        <time>2019-10-19T09:37:55Z</time>
      </trkpt>
      <trkpt lat="38.2698170" lon="-0.6561810">
        <ele>77.1</ele>
        <time>2019-10-19T09:37:56Z</time>
      </trkpt>
      <trkpt lat="38.2698320" lon="-0.6560730">
        <ele>77.3</ele>
        <time>2019-10-19T09:37:57Z</time>
      </trkpt>
      <trkpt lat="38.2698460" lon="-0.6559630">
        <ele>77.5</ele>
        <time>2019-10-19T09:37:58Z</time>
      </trkpt>
      <trkpt lat="38.2698610" lon="-0.6558540">
        <ele>77.7</ele>
        <time>2019-10-19T09:37:59Z</time>
      </trkpt>
      <trkpt lat="38.2698930" lon="-0.6556330">
        <ele>77.9</ele>
        <time>2019-10-19T09:38:00Z</time>
      </trkpt>
      <trkpt lat="38.2699020" lon="-0.6555780">
        <ele>77.9</ele>
        <time>2019-10-19T09:38:01Z</time>
      </trkpt>
      <trkpt lat="38.2699100" lon="-0.6555230">
        <ele>77.9</ele>
        <time>2019-10-19T09:38:02Z</time>
      </trkpt>
      <trkpt lat="38.2699260" lon="-0.6554140">
        <ele>77.9</ele>
        <time>2019-10-19T09:38:03Z</time>
      </trkpt>
      <trkpt lat="38.2699430" lon="-0.6553040">
        <ele>77.9</ele>
        <time>2019-10-19T09:38:04Z</time>
      </trkpt>
      <trkpt lat="38.2699610" lon="-0.6551940">
        <ele>77.9</ele>
        <time>2019-10-19T09:38:05Z</time>
      </trkpt>
      <trkpt lat="38.2699920" lon="-0.6549730">
        <ele>77.9</ele>
        <time>2019-10-19T09:38:06Z</time>
      </trkpt>
      <trkpt lat="38.2700000" lon="-0.6549220">
        <ele>77.9</ele>
        <time>2019-10-19T09:38:07Z</time>
      </trkpt>
      <trkpt lat="38.2700080" lon="-0.6548710">
        <ele>77.9</ele>
        <time>2019-10-19T09:38:08Z</time>
      </trkpt>
      <trkpt lat="38.2700230" lon="-0.6547670">
        <ele>77.9</ele>
        <time>2019-10-19T09:38:09Z</time>
      </trkpt>
      <trkpt lat="38.2700390" lon="-0.6546630">
        <ele>77.9</ele>
        <time>2019-10-19T09:38:10Z</time>
      </trkpt>
      <trkpt lat="38.2700540" lon="-0.6545560">
        <ele>78.0</ele>
        <time>2019-10-19T09:38:11Z</time>
      </trkpt>
      <trkpt lat="38.2700840" lon="-0.6543390">
        <ele>78.2</ele>
        <time>2019-10-19T09:38:12Z</time>
      </trkpt>
      <trkpt lat="38.2700920" lon="-0.6542850">
        <ele>78.2</ele>
        <time>2019-10-19T09:38:13Z</time>
      </trkpt>
      <trkpt lat="38.2700990" lon="-0.6542300">
        <ele>78.2</ele>
        <time>2019-10-19T09:38:14Z</time>
      </trkpt>
      <trkpt lat="38.2701260" lon="-0.6540180">
        <ele>78.3</ele>
        <time>2019-10-19T09:38:15Z</time>
      </trkpt>
      <trkpt lat="38.2701320" lon="-0.6539640">
        <ele>78.3</ele>
        <time>2019-10-19T09:38:16Z</time>
      </trkpt>
      <trkpt lat="38.2701380" lon="-0.6539100">
        <ele>78.3</ele>
        <time>2019-10-19T09:38:17Z</time>
      </trkpt>
      <trkpt lat="38.2701590" lon="-0.6536950">
        <ele>78.3</ele>
        <time>2019-10-19T09:38:18Z</time>
      </trkpt>
      <trkpt lat="38.2701630" lon="-0.6536410">
        <ele>78.3</ele>
        <time>2019-10-19T09:38:19Z</time>
      </trkpt>
      <trkpt lat="38.2701670" lon="-0.6535870">
        <ele>78.3</ele>
        <time>2019-10-19T09:38:20Z</time>
      </trkpt>
      <trkpt lat="38.2701820" lon="-0.6533710">
        <ele>78.2</ele>
        <time>2019-10-19T09:38:21Z</time>
      </trkpt>
      <trkpt lat="38.2701900" lon="-0.6532640">
        <ele>78.1</ele>
        <time>2019-10-19T09:38:22Z</time>
      </trkpt>
      <trkpt lat="38.2701940" lon="-0.6532120">
        <ele>78.0</ele>
        <time>2019-10-19T09:38:23Z</time>
      </trkpt>
      <trkpt lat="38.2701970" lon="-0.6531590">
        <ele>78.0</ele>
        <time>2019-10-19T09:38:24Z</time>
      </trkpt>
      <trkpt lat="38.2702070" lon="-0.6530000">
        <ele>77.8</ele>
        <time>2019-10-19T09:38:25Z</time>
      </trkpt>
      <trkpt lat="38.2702100" lon="-0.6529470">
        <ele>77.8</ele>
        <time>2019-10-19T09:38:26Z</time>
      </trkpt>
      <trkpt lat="38.2702230" lon="-0.6527340">
        <ele>77.5</ele>
        <time>2019-10-19T09:38:27Z</time>
      </trkpt>
      <trkpt lat="38.2702280" lon="-0.6526550">
        <ele>77.4</ele>
        <time>2019-10-19T09:38:28Z</time>
      </trkpt>
      <trkpt lat="38.2702320" lon="-0.6525760">
        <ele>77.3</ele>
        <time>2019-10-19T09:38:29Z</time>
      </trkpt>
      <trkpt lat="38.2702410" lon="-0.6524180">
        <ele>77.2</ele>
        <time>2019-10-19T09:38:30Z</time>
      </trkpt>
      <trkpt lat="38.2702430" lon="-0.6523650">
        <ele>77.2</ele>
        <time>2019-10-19T09:38:31Z</time>
      </trkpt>
      <trkpt lat="38.2702440" lon="-0.6523120">
        <ele>77.1</ele>
        <time>2019-10-19T09:38:32Z</time>
      </trkpt>
      <trkpt lat="38.2702530" lon="-0.6521010">
        <ele>77.2</ele>
        <time>2019-10-19T09:38:33Z</time>
      </trkpt>
      <trkpt lat="38.2702570" lon="-0.6519950">
        <ele>77.2</ele>
        <time>2019-10-19T09:38:34Z</time>
      </trkpt>
      <trkpt lat="38.2702590" lon="-0.6519150">
        <ele>77.4</ele>
        <time>2019-10-19T09:38:35Z</time>
      </trkpt>
      <trkpt lat="38.2702610" lon="-0.6518350">
        <ele>77.4</ele>
        <time>2019-10-19T09:38:36Z</time>
      </trkpt>
      <trkpt lat="38.2702650" lon="-0.6516740">
        <ele>77.4</ele>
        <time>2019-10-19T09:38:37Z</time>
      </trkpt>
      <trkpt lat="38.2702720" lon="-0.6515690">
        <ele>77.5</ele>
        <time>2019-10-19T09:38:38Z</time>
      </trkpt>
      <trkpt lat="38.2702760" lon="-0.6514910">
        <ele>77.5</ele>
        <time>2019-10-19T09:38:39Z</time>
      </trkpt>
      <trkpt lat="38.2702790" lon="-0.6514120">
        <ele>77.5</ele>
        <time>2019-10-19T09:38:40Z</time>
      </trkpt>
      <trkpt lat="38.2702850" lon="-0.6512550">
        <ele>77.5</ele>
        <time>2019-10-19T09:38:41Z</time>
      </trkpt>
      <trkpt lat="38.2702880" lon="-0.6511500">
        <ele>77.5</ele>
        <time>2019-10-19T09:38:42Z</time>
      </trkpt>
      <trkpt lat="38.2702930" lon="-0.6510470">
        <ele>77.4</ele>
        <time>2019-10-19T09:38:43Z</time>
      </trkpt>
      <trkpt lat="38.2702960" lon="-0.6509420">
        <ele>77.3</ele>
        <time>2019-10-19T09:38:44Z</time>
      </trkpt>
      <trkpt lat="38.2702970" lon="-0.6508890">
        <ele>77.3</ele>
        <time>2019-10-19T09:38:45Z</time>
      </trkpt>
      <trkpt lat="38.2702980" lon="-0.6508350">
        <ele>77.3</ele>
        <time>2019-10-19T09:38:46Z</time>
      </trkpt>
      <trkpt lat="38.2703030" lon="-0.6507340">
        <ele>77.3</ele>
        <time>2019-10-19T09:38:47Z</time>
      </trkpt>
      <trkpt lat="38.2703080" lon="-0.6505190">
        <ele>77.4</ele>
        <time>2019-10-19T09:38:48Z</time>
      </trkpt>
      <trkpt lat="38.2703100" lon="-0.6504670">
        <ele>77.4</ele>
        <time>2019-10-19T09:38:49Z</time>
      </trkpt>
      <trkpt lat="38.2703120" lon="-0.6504150">
        <ele>77.4</ele>
        <time>2019-10-19T09:38:50Z</time>
      </trkpt>
      <trkpt lat="38.2703220" lon="-0.6501990">
        <ele>78.1</ele>
        <time>2019-10-19T09:38:51Z</time>
      </trkpt>
      <trkpt lat="38.2703250" lon="-0.6500890">
        <ele>78.2</ele>
        <time>2019-10-19T09:38:52Z</time>
      </trkpt>
      <trkpt lat="38.2703290" lon="-0.6499780">
        <ele>78.2</ele>
        <time>2019-10-19T09:38:53Z</time>
      </trkpt>
      <trkpt lat="38.2703310" lon="-0.6499240">
        <ele>78.2</ele>
        <time>2019-10-19T09:38:54Z</time>
      </trkpt>
      <trkpt lat="38.2703330" lon="-0.6498690">
        <ele>78.2</ele>
        <time>2019-10-19T09:38:55Z</time>
      </trkpt>
      <trkpt lat="38.2703430" lon="-0.6496420">
        <ele>78.2</ele>
        <time>2019-10-19T09:38:56Z</time>
      </trkpt>
      <trkpt lat="38.2703460" lon="-0.6495570">
        <ele>78.2</ele>
        <time>2019-10-19T09:38:57Z</time>
      </trkpt>
      <trkpt lat="38.2703490" lon="-0.6494710">
        <ele>78.1</ele>
        <time>2019-10-19T09:38:58Z</time>
      </trkpt>
      <trkpt lat="38.2703540" lon="-0.6493000">
        <ele>78.1</ele>
        <time>2019-10-19T09:38:59Z</time>
      </trkpt>
      <trkpt lat="38.2703590" lon="-0.6491870">
        <ele>78.1</ele>
        <time>2019-10-19T09:39:00Z</time>
      </trkpt>
      <trkpt lat="38.2703630" lon="-0.6490740">
        <ele>78.0</ele>
        <time>2019-10-19T09:39:01Z</time>
      </trkpt>
      <trkpt lat="38.2703670" lon="-0.6489610">
        <ele>78.0</ele>
        <time>2019-10-19T09:39:02Z</time>
      </trkpt>
      <trkpt lat="38.2703720" lon="-0.6488490">
        <ele>78.0</ele>
        <time>2019-10-19T09:39:03Z</time>
      </trkpt>
      <trkpt lat="38.2703760" lon="-0.6487380">
        <ele>78.0</ele>
        <time>2019-10-19T09:39:04Z</time>
      </trkpt>
      <trkpt lat="38.2703790" lon="-0.6486830">
        <ele>78.0</ele>
        <time>2019-10-19T09:39:05Z</time>
      </trkpt>
      <trkpt lat="38.2703820" lon="-0.6486270">
        <ele>78.0</ele>
        <time>2019-10-19T09:39:06Z</time>
      </trkpt>
      <trkpt lat="38.2703860" lon="-0.6485180">
        <ele>77.9</ele>
        <time>2019-10-19T09:39:07Z</time>
      </trkpt>
      <trkpt lat="38.2703950" lon="-0.6484090">
        <ele>77.9</ele>
        <time>2019-10-19T09:39:08Z</time>
      </trkpt>
      <trkpt lat="38.2704060" lon="-0.6483000">
        <ele>77.9</ele>
        <time>2019-10-19T09:39:09Z</time>
      </trkpt>
      <trkpt lat="38.2704170" lon="-0.6481900">
        <ele>77.9</ele>
        <time>2019-10-19T09:39:10Z</time>
      </trkpt>
      <trkpt lat="38.2704310" lon="-0.6480800">
        <ele>78.0</ele>
        <time>2019-10-19T09:39:11Z</time>
      </trkpt>
      <trkpt lat="38.2704580" lon="-0.6478590">
        <ele>77.9</ele>
        <time>2019-10-19T09:39:12Z</time>
      </trkpt>
      <trkpt lat="38.2704660" lon="-0.6478030">
        <ele>77.9</ele>
        <time>2019-10-19T09:39:13Z</time>
      </trkpt>
      <trkpt lat="38.2704730" lon="-0.6477460">
        <ele>78.0</ele>
        <time>2019-10-19T09:39:14Z</time>
      </trkpt>
      <trkpt lat="38.2705000" lon="-0.6475210">
        <ele>77.9</ele>
        <time>2019-10-19T09:39:15Z</time>
      </trkpt>
      <trkpt lat="38.2705080" lon="-0.6474650">
        <ele>77.9</ele>
        <time>2019-10-19T09:39:16Z</time>
      </trkpt>
      <trkpt lat="38.2705150" lon="-0.6474090">
        <ele>77.9</ele>
        <time>2019-10-19T09:39:17Z</time>
      </trkpt>
      <trkpt lat="38.2705320" lon="-0.6472970">
        <ele>77.7</ele>
        <time>2019-10-19T09:39:18Z</time>
      </trkpt>
      <trkpt lat="38.2705670" lon="-0.6470740">
        <ele>77.5</ele>
        <time>2019-10-19T09:39:19Z</time>
      </trkpt>
      <trkpt lat="38.2705760" lon="-0.6470180">
        <ele>77.4</ele>
        <time>2019-10-19T09:39:20Z</time>
      </trkpt>
      <trkpt lat="38.2705840" lon="-0.6469620">
        <ele>77.4</ele>
        <time>2019-10-19T09:39:21Z</time>
      </trkpt>
      <trkpt lat="38.2706020" lon="-0.6468500">
        <ele>77.3</ele>
        <time>2019-10-19T09:39:22Z</time>
      </trkpt>
      <trkpt lat="38.2706220" lon="-0.6467400">
        <ele>77.3</ele>
        <time>2019-10-19T09:39:23Z</time>
      </trkpt>
      <trkpt lat="38.2706430" lon="-0.6466300">
        <ele>77.0</ele>
        <time>2019-10-19T09:39:24Z</time>
      </trkpt>
      <trkpt lat="38.2706890" lon="-0.6464100">
        <ele>76.9</ele>
        <time>2019-10-19T09:39:25Z</time>
      </trkpt>
      <trkpt lat="38.2707140" lon="-0.6463020">
        <ele>76.8</ele>
        <time>2019-10-19T09:39:26Z</time>
      </trkpt>
      <trkpt lat="38.2707280" lon="-0.6462480">
        <ele>76.7</ele>
        <time>2019-10-19T09:39:27Z</time>
      </trkpt>
      <trkpt lat="38.2707420" lon="-0.6461930">
        <ele>76.7</ele>
        <time>2019-10-19T09:39:28Z</time>
      </trkpt>
      <trkpt lat="38.2708010" lon="-0.6459780">
        <ele>76.5</ele>
        <time>2019-10-19T09:39:29Z</time>
      </trkpt>
      <trkpt lat="38.2708250" lon="-0.6458990">
        <ele>76.4</ele>
        <time>2019-10-19T09:39:30Z</time>
      </trkpt>
      <trkpt lat="38.2708490" lon="-0.6458190">
        <ele>76.4</ele>
        <time>2019-10-19T09:39:31Z</time>
      </trkpt>
      <trkpt lat="38.2708960" lon="-0.6456600">
        <ele>76.3</ele>
        <time>2019-10-19T09:39:32Z</time>
      </trkpt>
      <trkpt lat="38.2709300" lon="-0.6455540">
        <ele>76.2</ele>
        <time>2019-10-19T09:39:33Z</time>
      </trkpt>
      <trkpt lat="38.2709480" lon="-0.6455020">
        <ele>76.2</ele>
        <time>2019-10-19T09:39:34Z</time>
      </trkpt>
      <trkpt lat="38.2709650" lon="-0.6454490">
        <ele>76.2</ele>
        <time>2019-10-19T09:39:35Z</time>
      </trkpt>
      <trkpt lat="38.2710000" lon="-0.6453440">
        <ele>76.2</ele>
        <time>2019-10-19T09:39:36Z</time>
      </trkpt>
      <trkpt lat="38.2710340" lon="-0.6452380">
        <ele>76.3</ele>
        <time>2019-10-19T09:39:37Z</time>
      </trkpt>
      <trkpt lat="38.2710700" lon="-0.6451340">
        <ele>76.5</ele>
        <time>2019-10-19T09:39:38Z</time>
      </trkpt>
      <trkpt lat="38.2711050" lon="-0.6450300">
        <ele>76.5</ele>
        <time>2019-10-19T09:39:39Z</time>
      </trkpt>
      <trkpt lat="38.2711390" lon="-0.6449250">
        <ele>76.6</ele>
        <time>2019-10-19T09:39:40Z</time>
      </trkpt>
      <trkpt lat="38.2711750" lon="-0.6448210">
        <ele>76.7</ele>
        <time>2019-10-19T09:39:41Z</time>
      </trkpt>
      <trkpt lat="38.2712460" lon="-0.6446150">
        <ele>76.7</ele>
        <time>2019-10-19T09:39:42Z</time>
      </trkpt>
      <trkpt lat="38.2712620" lon="-0.6445640">
        <ele>76.8</ele>
        <time>2019-10-19T09:39:43Z</time>
      </trkpt>
      <trkpt lat="38.2712780" lon="-0.6445120">
        <ele>76.8</ele>
        <time>2019-10-19T09:39:44Z</time>
      </trkpt>
      <trkpt lat="38.2713120" lon="-0.6444070">
        <ele>76.8</ele>
        <time>2019-10-19T09:39:45Z</time>
      </trkpt>
      <trkpt lat="38.2713460" lon="-0.6443050">
        <ele>76.9</ele>
        <time>2019-10-19T09:39:46Z</time>
      </trkpt>
      <trkpt lat="38.2714150" lon="-0.6441010">
        <ele>76.9</ele>
        <time>2019-10-19T09:39:47Z</time>
      </trkpt>
      <trkpt lat="38.2714320" lon="-0.6440510">
        <ele>76.9</ele>
        <time>2019-10-19T09:39:48Z</time>
      </trkpt>
      <trkpt lat="38.2714490" lon="-0.6440000">
        <ele>76.9</ele>
        <time>2019-10-19T09:39:49Z</time>
      </trkpt>
      <trkpt lat="38.2715170" lon="-0.6437950">
        <ele>77.0</ele>
        <time>2019-10-19T09:39:50Z</time>
      </trkpt>
      <trkpt lat="38.2715340" lon="-0.6437440">
        <ele>77.1</ele>
        <time>2019-10-19T09:39:51Z</time>
      </trkpt>
      <trkpt lat="38.2715510" lon="-0.6436920">
        <ele>77.1</ele>
        <time>2019-10-19T09:39:52Z</time>
      </trkpt>
      <trkpt lat="38.2716170" lon="-0.6434870">
        <ele>77.3</ele>
        <time>2019-10-19T09:39:53Z</time>
      </trkpt>
      <trkpt lat="38.2716340" lon="-0.6434360">
        <ele>77.4</ele>
        <time>2019-10-19T09:39:54Z</time>
      </trkpt>
      <trkpt lat="38.2716500" lon="-0.6433850">
        <ele>77.5</ele>
        <time>2019-10-19T09:39:55Z</time>
      </trkpt>
      <trkpt lat="38.2716980" lon="-0.6432310">
        <ele>77.7</ele>
        <time>2019-10-19T09:39:56Z</time>
      </trkpt>
      <trkpt lat="38.2717140" lon="-0.6431790">
        <ele>77.7</ele>
        <time>2019-10-19T09:39:57Z</time>
      </trkpt>
      <trkpt lat="38.2717710" lon="-0.6429720">
        <ele>77.9</ele>
        <time>2019-10-19T09:39:58Z</time>
      </trkpt>
      <trkpt lat="38.2717980" lon="-0.6428670">
        <ele>77.9</ele>
        <time>2019-10-19T09:39:59Z</time>
      </trkpt>
      <trkpt lat="38.2718160" lon="-0.6427880">
        <ele>77.9</ele>
        <time>2019-10-19T09:40:00Z</time>
      </trkpt>
      <trkpt lat="38.2718330" lon="-0.6427090">
        <ele>77.9</ele>
        <time>2019-10-19T09:40:01Z</time>
      </trkpt>
      <trkpt lat="38.2718680" lon="-0.6425510">
        <ele>78.0</ele>
        <time>2019-10-19T09:40:02Z</time>
      </trkpt>
      <trkpt lat="38.2718790" lon="-0.6424980">
        <ele>78.0</ele>
        <time>2019-10-19T09:40:03Z</time>
      </trkpt>
      <trkpt lat="38.2718900" lon="-0.6424450">
        <ele>78.0</ele>
        <time>2019-10-19T09:40:04Z</time>
      </trkpt>
      <trkpt lat="38.2719140" lon="-0.6423400">
        <ele>78.0</ele>
        <time>2019-10-19T09:40:05Z</time>
      </trkpt>
      <trkpt lat="38.2719380" lon="-0.6422360">
        <ele>78.0</ele>
        <time>2019-10-19T09:40:06Z</time>
      </trkpt>
      <trkpt lat="38.2719590" lon="-0.6421330">
        <ele>78.0</ele>
        <time>2019-10-19T09:40:07Z</time>
      </trkpt>
      <trkpt lat="38.2719820" lon="-0.6420310">
        <ele>78.0</ele>
        <time>2019-10-19T09:40:08Z</time>
      </trkpt>
      <trkpt lat="38.2720060" lon="-0.6419300">
        <ele>78.0</ele>
        <time>2019-10-19T09:40:09Z</time>
      </trkpt>
      <trkpt lat="38.2720570" lon="-0.6417330">
        <ele>78.0</ele>
        <time>2019-10-19T09:40:10Z</time>
      </trkpt>
      <trkpt lat="38.2720700" lon="-0.6416850">
        <ele>78.0</ele>
        <time>2019-10-19T09:40:11Z</time>
      </trkpt>
      <trkpt lat="38.2720830" lon="-0.6416360">
        <ele>78.0</ele>
        <time>2019-10-19T09:40:12Z</time>
      </trkpt>
      <trkpt lat="38.2721400" lon="-0.6414460">
        <ele>78.1</ele>
        <time>2019-10-19T09:40:13Z</time>
      </trkpt>
      <trkpt lat="38.2721680" lon="-0.6413520">
        <ele>78.2</ele>
        <time>2019-10-19T09:40:14Z</time>
      </trkpt>
      <trkpt lat="38.2721840" lon="-0.6413060">
        <ele>78.2</ele>
        <time>2019-10-19T09:40:15Z</time>
      </trkpt>
      <trkpt lat="38.2721990" lon="-0.6412590">
        <ele>78.2</ele>
        <time>2019-10-19T09:40:16Z</time>
      </trkpt>
      <trkpt lat="38.2722450" lon="-0.6411200">
        <ele>78.1</ele>
        <time>2019-10-19T09:40:17Z</time>
      </trkpt>
      <trkpt lat="38.2722610" lon="-0.6410740">
        <ele>78.1</ele>
        <time>2019-10-19T09:40:18Z</time>
      </trkpt>
      <trkpt lat="38.2723280" lon="-0.6408920">
        <ele>78.0</ele>
        <time>2019-10-19T09:40:19Z</time>
      </trkpt>
      <trkpt lat="38.2723620" lon="-0.6408020">
        <ele>78.0</ele>
        <time>2019-10-19T09:40:20Z</time>
      </trkpt>
      <trkpt lat="38.2723960" lon="-0.6407100">
        <ele>78.0</ele>
        <time>2019-10-19T09:40:21Z</time>
      </trkpt>
      <trkpt lat="38.2724310" lon="-0.6406190">
        <ele>78.0</ele>
        <time>2019-10-19T09:40:22Z</time>
      </trkpt>
      <trkpt lat="38.2724490" lon="-0.6405740">
        <ele>78.0</ele>
        <time>2019-10-19T09:40:23Z</time>
      </trkpt>
      <trkpt lat="38.2724670" lon="-0.6405290">
        <ele>78.0</ele>
        <time>2019-10-19T09:40:24Z</time>
      </trkpt>
      <trkpt lat="38.2725490" lon="-0.6403520">
        <ele>78.0</ele>
        <time>2019-10-19T09:40:25Z</time>
      </trkpt>
      <trkpt lat="38.2725910" lon="-0.6402640">
        <ele>78.0</ele>
        <time>2019-10-19T09:40:26Z</time>
      </trkpt>
      <trkpt lat="38.2726140" lon="-0.6402200">
        <ele>78.0</ele>
        <time>2019-10-19T09:40:27Z</time>
      </trkpt>
      <trkpt lat="38.2726360" lon="-0.6401750">
        <ele>78.0</ele>
        <time>2019-10-19T09:40:28Z</time>
      </trkpt>
      <trkpt lat="38.2726810" lon="-0.6400860">
        <ele>77.9</ele>
        <time>2019-10-19T09:40:29Z</time>
      </trkpt>
      <trkpt lat="38.2727260" lon="-0.6400010">
        <ele>77.7</ele>
        <time>2019-10-19T09:40:30Z</time>
      </trkpt>
      <trkpt lat="38.2727700" lon="-0.6399150">
        <ele>77.6</ele>
        <time>2019-10-19T09:40:31Z</time>
      </trkpt>
      <trkpt lat="38.2728180" lon="-0.6398300">
        <ele>77.5</ele>
        <time>2019-10-19T09:40:32Z</time>
      </trkpt>
      <trkpt lat="38.2728640" lon="-0.6397460">
        <ele>77.4</ele>
        <time>2019-10-19T09:40:33Z</time>
      </trkpt>
      <trkpt lat="38.2729580" lon="-0.6395740">
        <ele>77.2</ele>
        <time>2019-10-19T09:40:34Z</time>
      </trkpt>
      <trkpt lat="38.2730040" lon="-0.6394900">
        <ele>77.2</ele>
        <time>2019-10-19T09:40:35Z</time>
      </trkpt>
      <trkpt lat="38.2730270" lon="-0.6394480">
        <ele>77.2</ele>
        <time>2019-10-19T09:40:36Z</time>
      </trkpt>
      <trkpt lat="38.2730490" lon="-0.6394060">
        <ele>77.2</ele>
        <time>2019-10-19T09:40:37Z</time>
      </trkpt>
      <trkpt lat="38.2730970" lon="-0.6393240">
        <ele>77.2</ele>
        <time>2019-10-19T09:40:38Z</time>
      </trkpt>
      <trkpt lat="38.2731480" lon="-0.6392420">
        <ele>77.2</ele>
        <time>2019-10-19T09:40:39Z</time>
      </trkpt>
      <trkpt lat="38.2732000" lon="-0.6391620">
        <ele>77.3</ele>
        <time>2019-10-19T09:40:40Z</time>
      </trkpt>
      <trkpt lat="38.2733110" lon="-0.6390040">
        <ele>77.3</ele>
        <time>2019-10-19T09:40:41Z</time>
      </trkpt>
      <trkpt lat="38.2733680" lon="-0.6389250">
        <ele>77.3</ele>
        <time>2019-10-19T09:40:42Z</time>
      </trkpt>
      <trkpt lat="38.2733980" lon="-0.6388860">
        <ele>77.3</ele>
        <time>2019-10-19T09:40:43Z</time>
      </trkpt>
      <trkpt lat="38.2734270" lon="-0.6388470">
        <ele>77.3</ele>
        <time>2019-10-19T09:40:44Z</time>
      </trkpt>
      <trkpt lat="38.2735490" lon="-0.6386930">
        <ele>77.4</ele>
        <time>2019-10-19T09:40:45Z</time>
      </trkpt>
      <trkpt lat="38.2735800" lon="-0.6386550">
        <ele>77.4</ele>
        <time>2019-10-19T09:40:46Z</time>
      </trkpt>
      <trkpt lat="38.2736110" lon="-0.6386160">
        <ele>77.4</ele>
        <time>2019-10-19T09:40:47Z</time>
      </trkpt>
      <trkpt lat="38.2737350" lon="-0.6384600">
        <ele>77.4</ele>
        <time>2019-10-19T09:40:48Z</time>
      </trkpt>
      <trkpt lat="38.2737960" lon="-0.6383800">
        <ele>77.5</ele>
        <time>2019-10-19T09:40:49Z</time>
      </trkpt>
      <trkpt lat="38.2738570" lon="-0.6382980">
        <ele>77.3</ele>
        <time>2019-10-19T09:40:50Z</time>
      </trkpt>
      <trkpt lat="38.2739160" lon="-0.6382160">
        <ele>77.2</ele>
        <time>2019-10-19T09:40:51Z</time>
      </trkpt>
      <trkpt lat="38.2739450" lon="-0.6381750">
        <ele>77.2</ele>
        <time>2019-10-19T09:40:52Z</time>
      </trkpt>
      <trkpt lat="38.2739730" lon="-0.6381340">
        <ele>77.2</ele>
        <time>2019-10-19T09:40:53Z</time>
      </trkpt>
      <trkpt lat="38.2740810" lon="-0.6379610">
        <ele>77.1</ele>
        <time>2019-10-19T09:40:54Z</time>
      </trkpt>
      <trkpt lat="38.2741340" lon="-0.6378730">
        <ele>77.1</ele>
        <time>2019-10-19T09:40:55Z</time>
      </trkpt>
      <trkpt lat="38.2741600" lon="-0.6378300">
        <ele>77.1</ele>
        <time>2019-10-19T09:40:56Z</time>
      </trkpt>
      <trkpt lat="38.2741860" lon="-0.6377860">
        <ele>77.1</ele>
        <time>2019-10-19T09:40:57Z</time>
      </trkpt>
      <trkpt lat="38.2742620" lon="-0.6376550">
        <ele>77.1</ele>
        <time>2019-10-19T09:40:58Z</time>
      </trkpt>
      <trkpt lat="38.2742870" lon="-0.6376100">
        <ele>77.1</ele>
        <time>2019-10-19T09:40:59Z</time>
      </trkpt>
      <trkpt lat="38.2743840" lon="-0.6374310">
        <ele>77.1</ele>
        <time>2019-10-19T09:41:00Z</time>
      </trkpt>
      <trkpt lat="38.2744060" lon="-0.6373860">
        <ele>77.1</ele>
        <time>2019-10-19T09:41:01Z</time>
      </trkpt>
      <trkpt lat="38.2744280" lon="-0.6373400">
        <ele>77.1</ele>
        <time>2019-10-19T09:41:02Z</time>
      </trkpt>
      <trkpt lat="38.2745140" lon="-0.6371550">
        <ele>77.1</ele>
        <time>2019-10-19T09:41:03Z</time>
      </trkpt>
      <trkpt lat="38.2745550" lon="-0.6370640">
        <ele>77.1</ele>
        <time>2019-10-19T09:41:04Z</time>
      </trkpt>
      <trkpt lat="38.2745730" lon="-0.6370170">
        <ele>77.1</ele>
        <time>2019-10-19T09:41:05Z</time>
      </trkpt>
      <trkpt lat="38.2745910" lon="-0.6369690">
        <ele>77.1</ele>
        <time>2019-10-19T09:41:06Z</time>
      </trkpt>
      <trkpt lat="38.2746470" lon="-0.6367740">
        <ele>76.9</ele>
        <time>2019-10-19T09:41:07Z</time>
      </trkpt>
      <trkpt lat="38.2746590" lon="-0.6367250">
        <ele>76.9</ele>
        <time>2019-10-19T09:41:08Z</time>
      </trkpt>
      <trkpt lat="38.2746710" lon="-0.6366750">
        <ele>76.9</ele>
        <time>2019-10-19T09:41:09Z</time>
      </trkpt>
      <trkpt lat="38.2747070" lon="-0.6365260">
        <ele>76.7</ele>
        <time>2019-10-19T09:41:10Z</time>
      </trkpt>
      <trkpt lat="38.2747200" lon="-0.6364760">
        <ele>76.6</ele>
        <time>2019-10-19T09:41:11Z</time>
      </trkpt>
      <trkpt lat="38.2747560" lon="-0.6363260">
        <ele>76.5</ele>
        <time>2019-10-19T09:41:12Z</time>
      </trkpt>
      <trkpt lat="38.2747670" lon="-0.6362760">
        <ele>76.4</ele>
        <time>2019-10-19T09:41:13Z</time>
      </trkpt>
      <trkpt lat="38.2748030" lon="-0.6361000">
        <ele>75.9</ele>
        <time>2019-10-19T09:41:14Z</time>
      </trkpt>
      <trkpt lat="38.2748170" lon="-0.6360250">
        <ele>75.6</ele>
        <time>2019-10-19T09:41:15Z</time>
      </trkpt>
      <trkpt lat="38.2748450" lon="-0.6358750">
        <ele>75.1</ele>
        <time>2019-10-19T09:41:16Z</time>
      </trkpt>
      <trkpt lat="38.2748600" lon="-0.6357980">
        <ele>74.9</ele>
        <time>2019-10-19T09:41:17Z</time>
      </trkpt>
      <trkpt lat="38.2748750" lon="-0.6357210">
        <ele>74.8</ele>
        <time>2019-10-19T09:41:18Z</time>
      </trkpt>
      <trkpt lat="38.2749040" lon="-0.6355660">
        <ele>74.8</ele>
        <time>2019-10-19T09:41:19Z</time>
      </trkpt>
      <trkpt lat="38.2749250" lon="-0.6354650">
        <ele>75.1</ele>
        <time>2019-10-19T09:41:20Z</time>
      </trkpt>
      <trkpt lat="38.2749360" lon="-0.6354150">
        <ele>75.2</ele>
        <time>2019-10-19T09:41:21Z</time>
      </trkpt>
      <trkpt lat="38.2749470" lon="-0.6353640">
        <ele>75.4</ele>
        <time>2019-10-19T09:41:22Z</time>
      </trkpt>
      <trkpt lat="38.2749800" lon="-0.6351580">
        <ele>75.9</ele>
        <time>2019-10-19T09:41:23Z</time>
      </trkpt>
      <trkpt lat="38.2749880" lon="-0.6351060">
        <ele>75.9</ele>
        <time>2019-10-19T09:41:24Z</time>
      </trkpt>
      <trkpt lat="38.2749960" lon="-0.6350530">
        <ele>76.0</ele>
        <time>2019-10-19T09:41:25Z</time>
      </trkpt>
      <trkpt lat="38.2750330" lon="-0.6348480">
        <ele>76.3</ele>
        <time>2019-10-19T09:41:26Z</time>
      </trkpt>
      <trkpt lat="38.2750440" lon="-0.6347980">
        <ele>76.3</ele>
        <time>2019-10-19T09:41:27Z</time>
      </trkpt>
      <trkpt lat="38.2750540" lon="-0.6347470">
        <ele>76.4</ele>
        <time>2019-10-19T09:41:28Z</time>
      </trkpt>
      <trkpt lat="38.2750740" lon="-0.6346460">
        <ele>76.6</ele>
        <time>2019-10-19T09:41:29Z</time>
      </trkpt>
      <trkpt lat="38.2750920" lon="-0.6345450">
        <ele>76.8</ele>
        <time>2019-10-19T09:41:30Z</time>
      </trkpt>
      <trkpt lat="38.2751170" lon="-0.6344460">
        <ele>77.1</ele>
        <time>2019-10-19T09:41:31Z</time>
      </trkpt>
      <trkpt lat="38.2751790" lon="-0.6342500">
        <ele>77.7</ele>
        <time>2019-10-19T09:41:32Z</time>
      </trkpt>
      <trkpt lat="38.2752150" lon="-0.6341560">
        <ele>78.0</ele>
        <time>2019-10-19T09:41:33Z</time>
      </trkpt>
      <trkpt lat="38.2752570" lon="-0.6340640">
        <ele>78.2</ele>
        <time>2019-10-19T09:41:34Z</time>
      </trkpt>
      <trkpt lat="38.2752800" lon="-0.6340200">
        <ele>78.3</ele>
        <time>2019-10-19T09:41:35Z</time>
      </trkpt>
      <trkpt lat="38.2753030" lon="-0.6339750">
        <ele>78.4</ele>
        <time>2019-10-19T09:41:36Z</time>
      </trkpt>
      <trkpt lat="38.2753740" lon="-0.6338430">
        <ele>78.3</ele>
        <time>2019-10-19T09:41:37Z</time>
      </trkpt>
      <trkpt lat="38.2753980" lon="-0.6338000">
        <ele>78.3</ele>
        <time>2019-10-19T09:41:38Z</time>
      </trkpt>
      <trkpt lat="38.2754480" lon="-0.6337160">
        <ele>78.2</ele>
        <time>2019-10-19T09:41:39Z</time>
      </trkpt>
      <trkpt lat="38.2755480" lon="-0.6335500">
        <ele>78.3</ele>
        <time>2019-10-19T09:41:40Z</time>
      </trkpt>
      <trkpt lat="38.2755980" lon="-0.6334660">
        <ele>78.4</ele>
        <time>2019-10-19T09:41:41Z</time>
      </trkpt>
      <trkpt lat="38.2756360" lon="-0.6334050">
        <ele>78.4</ele>
        <time>2019-10-19T09:41:42Z</time>
      </trkpt>
      <trkpt lat="38.2756740" lon="-0.6333440">
        <ele>78.5</ele>
        <time>2019-10-19T09:41:43Z</time>
      </trkpt>
      <trkpt lat="38.2757490" lon="-0.6332220">
        <ele>78.7</ele>
        <time>2019-10-19T09:41:44Z</time>
      </trkpt>
      <trkpt lat="38.2757960" lon="-0.6331390">
        <ele>78.8</ele>
        <time>2019-10-19T09:41:45Z</time>
      </trkpt>
      <trkpt lat="38.2758200" lon="-0.6330980">
        <ele>78.9</ele>
        <time>2019-10-19T09:41:46Z</time>
      </trkpt>
      <trkpt lat="38.2758440" lon="-0.6330570">
        <ele>78.9</ele>
        <time>2019-10-19T09:41:47Z</time>
      </trkpt>
      <trkpt lat="38.2759160" lon="-0.6329350">
        <ele>79.0</ele>
        <time>2019-10-19T09:41:48Z</time>
      </trkpt>
      <trkpt lat="38.2759390" lon="-0.6328940">
        <ele>79.1</ele>
        <time>2019-10-19T09:41:49Z</time>
      </trkpt>
      <trkpt lat="38.2760110" lon="-0.6327730">
        <ele>79.2</ele>
        <time>2019-10-19T09:41:50Z</time>
      </trkpt>
      <trkpt lat="38.2760350" lon="-0.6327330">
        <ele>79.2</ele>
        <time>2019-10-19T09:41:51Z</time>
      </trkpt>
      <trkpt lat="38.2761320" lon="-0.6325710">
        <ele>79.3</ele>
        <time>2019-10-19T09:41:52Z</time>
      </trkpt>
      <trkpt lat="38.2761830" lon="-0.6324900">
        <ele>79.3</ele>
        <time>2019-10-19T09:41:53Z</time>
      </trkpt>
      <trkpt lat="38.2762320" lon="-0.6324090">
        <ele>79.4</ele>
        <time>2019-10-19T09:41:54Z</time>
      </trkpt>
      <trkpt lat="38.2762810" lon="-0.6323280">
        <ele>79.4</ele>
        <time>2019-10-19T09:41:55Z</time>
      </trkpt>
      <trkpt lat="38.2763300" lon="-0.6322460">
        <ele>79.4</ele>
        <time>2019-10-19T09:41:56Z</time>
      </trkpt>
      <trkpt lat="38.2763770" lon="-0.6321650">
        <ele>79.5</ele>
        <time>2019-10-19T09:41:57Z</time>
      </trkpt>
      <trkpt lat="38.2764010" lon="-0.6321250">
        <ele>79.5</ele>
        <time>2019-10-19T09:41:58Z</time>
      </trkpt>
      <trkpt lat="38.2764250" lon="-0.6320850">
        <ele>79.5</ele>
        <time>2019-10-19T09:41:59Z</time>
      </trkpt>
      <trkpt lat="38.2765210" lon="-0.6319260">
        <ele>79.6</ele>
        <time>2019-10-19T09:42:00Z</time>
      </trkpt>
      <trkpt lat="38.2765570" lon="-0.6318670">
        <ele>79.7</ele>
        <time>2019-10-19T09:42:01Z</time>
      </trkpt>
      <trkpt lat="38.2765930" lon="-0.6318080">
        <ele>79.8</ele>
        <time>2019-10-19T09:42:02Z</time>
      </trkpt>
      <trkpt lat="38.2766650" lon="-0.6316890">
        <ele>80.1</ele>
        <time>2019-10-19T09:42:03Z</time>
      </trkpt>
      <trkpt lat="38.2766900" lon="-0.6316500">
        <ele>80.2</ele>
        <time>2019-10-19T09:42:04Z</time>
      </trkpt>
      <trkpt lat="38.2767150" lon="-0.6316110">
        <ele>80.3</ele>
        <time>2019-10-19T09:42:05Z</time>
      </trkpt>
      <trkpt lat="38.2768120" lon="-0.6314550">
        <ele>80.4</ele>
        <time>2019-10-19T09:42:06Z</time>
      </trkpt>
      <trkpt lat="38.2768370" lon="-0.6314160">
        <ele>80.4</ele>
        <time>2019-10-19T09:42:07Z</time>
      </trkpt>
      <trkpt lat="38.2768620" lon="-0.6313770">
        <ele>80.4</ele>
        <time>2019-10-19T09:42:08Z</time>
      </trkpt>
      <trkpt lat="38.2769360" lon="-0.6312600">
        <ele>80.4</ele>
        <time>2019-10-19T09:42:09Z</time>
      </trkpt>
      <trkpt lat="38.2769610" lon="-0.6312210">
        <ele>80.4</ele>
        <time>2019-10-19T09:42:10Z</time>
      </trkpt>
      <trkpt lat="38.2770110" lon="-0.6311420">
        <ele>80.4</ele>
        <time>2019-10-19T09:42:11Z</time>
      </trkpt>
      <trkpt lat="38.2770620" lon="-0.6310620">
        <ele>80.5</ele>
        <time>2019-10-19T09:42:12Z</time>
      </trkpt>
      <trkpt lat="38.2771130" lon="-0.6309840">
        <ele>80.6</ele>
        <time>2019-10-19T09:42:13Z</time>
      </trkpt>
      <trkpt lat="38.2772130" lon="-0.6308260">
        <ele>80.9</ele>
        <time>2019-10-19T09:42:14Z</time>
      </trkpt>
      <trkpt lat="38.2772390" lon="-0.6307870">
        <ele>81.1</ele>
        <time>2019-10-19T09:42:15Z</time>
      </trkpt>
      <trkpt lat="38.2772650" lon="-0.6307480">
        <ele>81.1</ele>
        <time>2019-10-19T09:42:16Z</time>
      </trkpt>
      <trkpt lat="38.2773180" lon="-0.6306700">
        <ele>81.2</ele>
        <time>2019-10-19T09:42:17Z</time>
      </trkpt>
      <trkpt lat="38.2773710" lon="-0.6305920">
        <ele>81.3</ele>
        <time>2019-10-19T09:42:18Z</time>
      </trkpt>
      <trkpt lat="38.2774750" lon="-0.6304350">
        <ele>81.3</ele>
        <time>2019-10-19T09:42:19Z</time>
      </trkpt>
      <trkpt lat="38.2775270" lon="-0.6303570">
        <ele>81.2</ele>
        <time>2019-10-19T09:42:20Z</time>
      </trkpt>
      <trkpt lat="38.2775530" lon="-0.6303190">
        <ele>81.2</ele>
        <time>2019-10-19T09:42:21Z</time>
      </trkpt>
      <trkpt lat="38.2775790" lon="-0.6302800">
        <ele>81.2</ele>
        <time>2019-10-19T09:42:22Z</time>
      </trkpt>
      <trkpt lat="38.2776320" lon="-0.6302030">
        <ele>81.2</ele>
        <time>2019-10-19T09:42:23Z</time>
      </trkpt>
      <trkpt lat="38.2777350" lon="-0.6300490">
        <ele>81.2</ele>
        <time>2019-10-19T09:42:24Z</time>
      </trkpt>
      <trkpt lat="38.2777600" lon="-0.6300120">
        <ele>81.2</ele>
        <time>2019-10-19T09:42:25Z</time>
      </trkpt>
      <trkpt lat="38.2777850" lon="-0.6299740">
        <ele>81.2</ele>
        <time>2019-10-19T09:42:26Z</time>
      </trkpt>
      <trkpt lat="38.2778840" lon="-0.6298190">
        <ele>81.6</ele>
        <time>2019-10-19T09:42:27Z</time>
      </trkpt>
      <trkpt lat="38.2779090" lon="-0.6297810">
        <ele>81.4</ele>
        <time>2019-10-19T09:42:28Z</time>
      </trkpt>
      <trkpt lat="38.2779330" lon="-0.6297430">
        <ele>81.3</ele>
        <time>2019-10-19T09:42:29Z</time>
      </trkpt>
      <trkpt lat="38.2779850" lon="-0.6296670">
        <ele>81.1</ele>
        <time>2019-10-19T09:42:30Z</time>
      </trkpt>
      <trkpt lat="38.2780920" lon="-0.6295180">
        <ele>81.1</ele>
        <time>2019-10-19T09:42:31Z</time>
      </trkpt>
      <trkpt lat="38.2781190" lon="-0.6294800">
        <ele>81.1</ele>
        <time>2019-10-19T09:42:32Z</time>
      </trkpt>
      <trkpt lat="38.2781460" lon="-0.6294410">
        <ele>81.1</ele>
        <time>2019-10-19T09:42:33Z</time>
      </trkpt>
      <trkpt lat="38.2782270" lon="-0.6293230">
        <ele>81.1</ele>
        <time>2019-10-19T09:42:34Z</time>
      </trkpt>
      <trkpt lat="38.2782530" lon="-0.6292830">
        <ele>81.1</ele>
        <time>2019-10-19T09:42:35Z</time>
      </trkpt>
      <trkpt lat="38.2783630" lon="-0.6291290">
        <ele>81.0</ele>
        <time>2019-10-19T09:42:36Z</time>
      </trkpt>
      <trkpt lat="38.2783910" lon="-0.6290910">
        <ele>81.0</ele>
        <time>2019-10-19T09:42:37Z</time>
      </trkpt>
      <trkpt lat="38.2784190" lon="-0.6290530">
        <ele>81.0</ele>
        <time>2019-10-19T09:42:38Z</time>
      </trkpt>
      <trkpt lat="38.2784780" lon="-0.6289760">
        <ele>81.0</ele>
        <time>2019-10-19T09:42:39Z</time>
      </trkpt>
      <trkpt lat="38.2785340" lon="-0.6289000">
        <ele>81.0</ele>
        <time>2019-10-19T09:42:40Z</time>
      </trkpt>
      <trkpt lat="38.2785910" lon="-0.6288240">
        <ele>81.0</ele>
        <time>2019-10-19T09:42:41Z</time>
      </trkpt>
      <trkpt lat="38.2786480" lon="-0.6287470">
        <ele>81.0</ele>
        <time>2019-10-19T09:42:42Z</time>
      </trkpt>
      <trkpt lat="38.2787040" lon="-0.6286690">
        <ele>81.0</ele>
        <time>2019-10-19T09:42:43Z</time>
      </trkpt>
      <trkpt lat="38.2787610" lon="-0.6285910">
        <ele>80.9</ele>
        <time>2019-10-19T09:42:44Z</time>
      </trkpt>
      <trkpt lat="38.2788190" lon="-0.6285130">
        <ele>80.7</ele>
        <time>2019-10-19T09:42:45Z</time>
      </trkpt>
      <trkpt lat="38.2789350" lon="-0.6283540">
        <ele>80.3</ele>
        <time>2019-10-19T09:42:46Z</time>
      </trkpt>
      <trkpt lat="38.2789930" lon="-0.6282760">
        <ele>80.1</ele>
        <time>2019-10-19T09:42:47Z</time>
      </trkpt>
      <trkpt lat="38.2790230" lon="-0.6282380">
        <ele>80.1</ele>
        <time>2019-10-19T09:42:48Z</time>
      </trkpt>
      <trkpt lat="38.2790520" lon="-0.6281990">
        <ele>80.1</ele>
        <time>2019-10-19T09:42:49Z</time>
      </trkpt>
      <trkpt lat="38.2791110" lon="-0.6281230">
        <ele>80.0</ele>
        <time>2019-10-19T09:42:50Z</time>
      </trkpt>
      <trkpt lat="38.2791700" lon="-0.6280460">
        <ele>80.0</ele>
        <time>2019-10-19T09:42:51Z</time>
      </trkpt>
      <trkpt lat="38.2792280" lon="-0.6279680">
        <ele>80.0</ele>
        <time>2019-10-19T09:42:52Z</time>
      </trkpt>
      <trkpt lat="38.2792870" lon="-0.6278910">
        <ele>79.9</ele>
        <time>2019-10-19T09:42:53Z</time>
      </trkpt>
      <trkpt lat="38.2793460" lon="-0.6278150">
        <ele>79.8</ele>
        <time>2019-10-19T09:42:54Z</time>
      </trkpt>
      <trkpt lat="38.2794070" lon="-0.6277390">
        <ele>79.6</ele>
        <time>2019-10-19T09:42:55Z</time>
      </trkpt>
      <trkpt lat="38.2795310" lon="-0.6275880">
        <ele>79.2</ele>
        <time>2019-10-19T09:42:56Z</time>
      </trkpt>
      <trkpt lat="38.2795620" lon="-0.6275500">
        <ele>79.2</ele>
        <time>2019-10-19T09:42:57Z</time>
      </trkpt>
      <trkpt lat="38.2795920" lon="-0.6275120">
        <ele>79.1</ele>
        <time>2019-10-19T09:42:58Z</time>
      </trkpt>
      <trkpt lat="38.2797160" lon="-0.6273620">
        <ele>79.0</ele>
        <time>2019-10-19T09:42:59Z</time>
      </trkpt>
      <trkpt lat="38.2797470" lon="-0.6273250">
        <ele>79.0</ele>
        <time>2019-10-19T09:43:00Z</time>
      </trkpt>
      <trkpt lat="38.2797780" lon="-0.6272870">
        <ele>78.9</ele>
        <time>2019-10-19T09:43:01Z</time>
      </trkpt>
      <trkpt lat="38.2798390" lon="-0.6272130">
        <ele>78.9</ele>
        <time>2019-10-19T09:43:02Z</time>
      </trkpt>
      <trkpt lat="38.2799000" lon="-0.6271380">
        <ele>78.9</ele>
        <time>2019-10-19T09:43:03Z</time>
      </trkpt>
      <trkpt lat="38.2800260" lon="-0.6269890">
        <ele>78.9</ele>
        <time>2019-10-19T09:43:04Z</time>
      </trkpt>
      <trkpt lat="38.2800890" lon="-0.6269130">
        <ele>78.9</ele>
        <time>2019-10-19T09:43:05Z</time>
      </trkpt>
      <trkpt lat="38.2801190" lon="-0.6268740">
        <ele>78.9</ele>
        <time>2019-10-19T09:43:06Z</time>
      </trkpt>
      <trkpt lat="38.2801480" lon="-0.6268340">
        <ele>78.9</ele>
        <time>2019-10-19T09:43:07Z</time>
      </trkpt>
      <trkpt lat="38.2802360" lon="-0.6267130">
        <ele>78.9</ele>
        <time>2019-10-19T09:43:08Z</time>
      </trkpt>
      <trkpt lat="38.2802650" lon="-0.6266710">
        <ele>78.9</ele>
        <time>2019-10-19T09:43:09Z</time>
      </trkpt>
      <trkpt lat="38.2803220" lon="-0.6265870">
        <ele>78.9</ele>
        <time>2019-10-19T09:43:10Z</time>
      </trkpt>
      <trkpt lat="38.2803760" lon="-0.6264990">
        <ele>78.9</ele>
        <time>2019-10-19T09:43:11Z</time>
      </trkpt>
      <trkpt lat="38.2804310" lon="-0.6264110">
        <ele>78.8</ele>
        <time>2019-10-19T09:43:12Z</time>
      </trkpt>
      <trkpt lat="38.2804850" lon="-0.6263220">
        <ele>78.7</ele>
        <time>2019-10-19T09:43:13Z</time>
      </trkpt>
      <trkpt lat="38.2805940" lon="-0.6261420">
        <ele>78.3</ele>
        <time>2019-10-19T09:43:14Z</time>
      </trkpt>
      <trkpt lat="38.2806200" lon="-0.6260970">
        <ele>78.2</ele>
        <time>2019-10-19T09:43:15Z</time>
      </trkpt>
      <trkpt lat="38.2806460" lon="-0.6260520">
        <ele>78.1</ele>
        <time>2019-10-19T09:43:16Z</time>
      </trkpt>
      <trkpt lat="38.2806980" lon="-0.6259620">
        <ele>78.0</ele>
        <time>2019-10-19T09:43:17Z</time>
      </trkpt>
      <trkpt lat="38.2808000" lon="-0.6257830">
        <ele>77.9</ele>
        <time>2019-10-19T09:43:18Z</time>
      </trkpt>
      <trkpt lat="38.2808510" lon="-0.6256930">
        <ele>77.9</ele>
        <time>2019-10-19T09:43:19Z</time>
      </trkpt>
      <trkpt lat="38.2808760" lon="-0.6256490">
        <ele>77.9</ele>
        <time>2019-10-19T09:43:20Z</time>
      </trkpt>
      <trkpt lat="38.2809010" lon="-0.6256040">
        <ele>77.9</ele>
        <time>2019-10-19T09:43:21Z</time>
      </trkpt>
      <trkpt lat="38.2810010" lon="-0.6254240">
        <ele>77.8</ele>
        <time>2019-10-19T09:43:22Z</time>
      </trkpt>
      <trkpt lat="38.2810260" lon="-0.6253810">
        <ele>77.8</ele>
        <time>2019-10-19T09:43:23Z</time>
      </trkpt>
      <trkpt lat="38.2810500" lon="-0.6253370">
        <ele>77.8</ele>
        <time>2019-10-19T09:43:24Z</time>
      </trkpt>
      <trkpt lat="38.2811000" lon="-0.6252490">
        <ele>77.8</ele>
        <time>2019-10-19T09:43:25Z</time>
      </trkpt>
      <trkpt lat="38.2811480" lon="-0.6251580">
        <ele>77.8</ele>
        <time>2019-10-19T09:43:26Z</time>
      </trkpt>
      <trkpt lat="38.2812440" lon="-0.6249770">
        <ele>77.8</ele>
        <time>2019-10-19T09:43:27Z</time>
      </trkpt>
      <trkpt lat="38.2812680" lon="-0.6249320">
        <ele>77.8</ele>
        <time>2019-10-19T09:43:28Z</time>
      </trkpt>
      <trkpt lat="38.2812910" lon="-0.6248860">
        <ele>77.8</ele>
        <time>2019-10-19T09:43:29Z</time>
      </trkpt>
      <trkpt lat="38.2813370" lon="-0.6247960">
        <ele>77.8</ele>
        <time>2019-10-19T09:43:30Z</time>
      </trkpt>
      <trkpt lat="38.2814310" lon="-0.6246160">
        <ele>77.8</ele>
        <time>2019-10-19T09:43:31Z</time>
      </trkpt>
      <trkpt lat="38.2814540" lon="-0.6245710">
        <ele>77.8</ele>
        <time>2019-10-19T09:43:32Z</time>
      </trkpt>
      <trkpt lat="38.2814760" lon="-0.6245260">
        <ele>77.8</ele>
        <time>2019-10-19T09:43:33Z</time>
      </trkpt>
      <trkpt lat="38.2815200" lon="-0.6244340">
        <ele>77.8</ele>
        <time>2019-10-19T09:43:34Z</time>
      </trkpt>
      <trkpt lat="38.2815650" lon="-0.6243430">
        <ele>77.8</ele>
        <time>2019-10-19T09:43:35Z</time>
      </trkpt>
      <trkpt lat="38.2816100" lon="-0.6242520">
        <ele>77.8</ele>
        <time>2019-10-19T09:43:36Z</time>
      </trkpt>
      <trkpt lat="38.2816970" lon="-0.6240710">
        <ele>77.7</ele>
        <time>2019-10-19T09:43:37Z</time>
      </trkpt>
      <trkpt lat="38.2817400" lon="-0.6239800">
        <ele>77.7</ele>
        <time>2019-10-19T09:43:38Z</time>
      </trkpt>
      <trkpt lat="38.2817610" lon="-0.6239350">
        <ele>77.7</ele>
        <time>2019-10-19T09:43:39Z</time>
      </trkpt>
      <trkpt lat="38.2817820" lon="-0.6238890">
        <ele>77.6</ele>
        <time>2019-10-19T09:43:40Z</time>
      </trkpt>
      <trkpt lat="38.2818440" lon="-0.6237520">
        <ele>77.4</ele>
        <time>2019-10-19T09:43:41Z</time>
      </trkpt>
      <trkpt lat="38.2818640" lon="-0.6237060">
        <ele>77.3</ele>
        <time>2019-10-19T09:43:42Z</time>
      </trkpt>
      <trkpt lat="38.2819440" lon="-0.6235230">
        <ele>77.1</ele>
        <time>2019-10-19T09:43:43Z</time>
      </trkpt>
      <trkpt lat="38.2819620" lon="-0.6234770">
        <ele>77.0</ele>
        <time>2019-10-19T09:43:44Z</time>
      </trkpt>
      <trkpt lat="38.2819800" lon="-0.6234300">
        <ele>77.0</ele>
        <time>2019-10-19T09:43:45Z</time>
      </trkpt>
      <trkpt lat="38.2820500" lon="-0.6232410">
        <ele>76.9</ele>
        <time>2019-10-19T09:43:46Z</time>
      </trkpt>
      <trkpt lat="38.2820680" lon="-0.6231940">
        <ele>76.9</ele>
        <time>2019-10-19T09:43:47Z</time>
      </trkpt>
      <trkpt lat="38.2820860" lon="-0.6231470">
        <ele>76.9</ele>
        <time>2019-10-19T09:43:48Z</time>
      </trkpt>
      <trkpt lat="38.2821410" lon="-0.6230060">
        <ele>76.9</ele>
        <time>2019-10-19T09:43:49Z</time>
      </trkpt>
      <trkpt lat="38.2821590" lon="-0.6229590">
        <ele>77.0</ele>
        <time>2019-10-19T09:43:50Z</time>
      </trkpt>
      <trkpt lat="38.2821960" lon="-0.6228660">
        <ele>77.0</ele>
        <time>2019-10-19T09:43:51Z</time>
      </trkpt>
      <trkpt lat="38.2822340" lon="-0.6227720">
        <ele>77.0</ele>
        <time>2019-10-19T09:43:52Z</time>
      </trkpt>
      <trkpt lat="38.2822720" lon="-0.6226770">
        <ele>77.0</ele>
        <time>2019-10-19T09:43:53Z</time>
      </trkpt>
      <trkpt lat="38.2823490" lon="-0.6224860">
        <ele>76.9</ele>
        <time>2019-10-19T09:43:54Z</time>
      </trkpt>
      <trkpt lat="38.2823700" lon="-0.6224380">
        <ele>76.8</ele>
        <time>2019-10-19T09:43:55Z</time>
      </trkpt>
      <trkpt lat="38.2823900" lon="-0.6223900">
        <ele>76.8</ele>
        <time>2019-10-19T09:43:56Z</time>
      </trkpt>
      <trkpt lat="38.2824530" lon="-0.6222460">
        <ele>76.4</ele>
        <time>2019-10-19T09:43:57Z</time>
      </trkpt>
      <trkpt lat="38.2824750" lon="-0.6221970">
        <ele>76.3</ele>
        <time>2019-10-19T09:43:58Z</time>
      </trkpt>
      <trkpt lat="38.2825210" lon="-0.6220980">
        <ele>76.1</ele>
        <time>2019-10-19T09:43:59Z</time>
      </trkpt>
      <trkpt lat="38.2826110" lon="-0.6219010">
        <ele>76.0</ele>
        <time>2019-10-19T09:44:00Z</time>
      </trkpt>
      <trkpt lat="38.2826590" lon="-0.6218010">
        <ele>76.0</ele>
        <time>2019-10-19T09:44:01Z</time>
      </trkpt>
      <trkpt lat="38.2827070" lon="-0.6217010">
        <ele>76.0</ele>
        <time>2019-10-19T09:44:02Z</time>
      </trkpt>
      <trkpt lat="38.2827320" lon="-0.6216510">
        <ele>76.0</ele>
        <time>2019-10-19T09:44:03Z</time>
      </trkpt>
      <trkpt lat="38.2827560" lon="-0.6216010">
        <ele>76.0</ele>
        <time>2019-10-19T09:44:04Z</time>
      </trkpt>
      <trkpt lat="38.2828040" lon="-0.6215000">
        <ele>76.0</ele>
        <time>2019-10-19T09:44:05Z</time>
      </trkpt>
      <trkpt lat="38.2828510" lon="-0.6214000">
        <ele>76.0</ele>
        <time>2019-10-19T09:44:06Z</time>
      </trkpt>
      <trkpt lat="38.2828980" lon="-0.6212990">
        <ele>75.9</ele>
        <time>2019-10-19T09:44:07Z</time>
      </trkpt>
      <trkpt lat="38.2829450" lon="-0.6211980">
        <ele>75.8</ele>
        <time>2019-10-19T09:44:08Z</time>
      </trkpt>
      <trkpt lat="38.2830400" lon="-0.6209990">
        <ele>75.3</ele>
        <time>2019-10-19T09:44:09Z</time>
      </trkpt>
      <trkpt lat="38.2830640" lon="-0.6209490">
        <ele>75.2</ele>
        <time>2019-10-19T09:44:10Z</time>
      </trkpt>
      <trkpt lat="38.2830880" lon="-0.6208990">
        <ele>75.2</ele>
        <time>2019-10-19T09:44:11Z</time>
      </trkpt>
      <trkpt lat="38.2831590" lon="-0.6207490">
        <ele>75.1</ele>
        <time>2019-10-19T09:44:12Z</time>
      </trkpt>
      <trkpt lat="38.2831820" lon="-0.6206990">
        <ele>75.1</ele>
        <time>2019-10-19T09:44:13Z</time>
      </trkpt>
      <trkpt lat="38.2832740" lon="-0.6204970">
        <ele>75.1</ele>
        <time>2019-10-19T09:44:14Z</time>
      </trkpt>
      <trkpt lat="38.2832950" lon="-0.6204460">
        <ele>75.1</ele>
        <time>2019-10-19T09:44:15Z</time>
      </trkpt>
      <trkpt lat="38.2833160" lon="-0.6203950">
        <ele>75.1</ele>
        <time>2019-10-19T09:44:16Z</time>
      </trkpt>
      <trkpt lat="38.2833960" lon="-0.6201870">
        <ele>75.2</ele>
        <time>2019-10-19T09:44:17Z</time>
      </trkpt>
      <trkpt lat="38.2834140" lon="-0.6201350">
        <ele>75.3</ele>
        <time>2019-10-19T09:44:18Z</time>
      </trkpt>
      <trkpt lat="38.2834320" lon="-0.6200820">
        <ele>75.4</ele>
        <time>2019-10-19T09:44:19Z</time>
      </trkpt>
      <trkpt lat="38.2834640" lon="-0.6199770">
        <ele>75.6</ele>
        <time>2019-10-19T09:44:20Z</time>
      </trkpt>
      <trkpt lat="38.2834910" lon="-0.6198690">
        <ele>75.8</ele>
        <time>2019-10-19T09:44:21Z</time>
      </trkpt>
      <trkpt lat="38.2835130" lon="-0.6197610">
        <ele>76.0</ele>
        <time>2019-10-19T09:44:22Z</time>
      </trkpt>
      <trkpt lat="38.2835570" lon="-0.6195460">
        <ele>76.0</ele>
        <time>2019-10-19T09:44:23Z</time>
      </trkpt>
      <trkpt lat="38.2835680" lon="-0.6194930">
        <ele>76.1</ele>
        <time>2019-10-19T09:44:24Z</time>
      </trkpt>
      <trkpt lat="38.2835780" lon="-0.6194400">
        <ele>76.1</ele>
        <time>2019-10-19T09:44:25Z</time>
      </trkpt>
      <trkpt lat="38.2836160" lon="-0.6192330">
        <ele>76.1</ele>
        <time>2019-10-19T09:44:26Z</time>
      </trkpt>
      <trkpt lat="38.2836260" lon="-0.6191800">
        <ele>76.1</ele>
        <time>2019-10-19T09:44:27Z</time>
      </trkpt>
      <trkpt lat="38.2836350" lon="-0.6191270">
        <ele>76.0</ele>
        <time>2019-10-19T09:44:28Z</time>
      </trkpt>
      <trkpt lat="38.2836550" lon="-0.6190200">
        <ele>76.0</ele>
        <time>2019-10-19T09:44:29Z</time>
      </trkpt>
      <trkpt lat="38.2836740" lon="-0.6189130">
        <ele>75.8</ele>
        <time>2019-10-19T09:44:30Z</time>
      </trkpt>
      <trkpt lat="38.2836920" lon="-0.6188060">
        <ele>75.6</ele>
        <time>2019-10-19T09:44:31Z</time>
      </trkpt>
      <trkpt lat="38.2837270" lon="-0.6185900">
        <ele>75.2</ele>
        <time>2019-10-19T09:44:32Z</time>
      </trkpt>
      <trkpt lat="38.2837370" lon="-0.6185360">
        <ele>75.2</ele>
        <time>2019-10-19T09:44:33Z</time>
      </trkpt>
      <trkpt lat="38.2837460" lon="-0.6184820">
        <ele>75.1</ele>
        <time>2019-10-19T09:44:34Z</time>
      </trkpt>
      <trkpt lat="38.2837830" lon="-0.6182660">
        <ele>75.1</ele>
        <time>2019-10-19T09:44:35Z</time>
      </trkpt>
      <trkpt lat="38.2837930" lon="-0.6182130">
        <ele>75.1</ele>
        <time>2019-10-19T09:44:36Z</time>
      </trkpt>
      <trkpt lat="38.2838020" lon="-0.6181590">
        <ele>75.1</ele>
        <time>2019-10-19T09:44:37Z</time>
      </trkpt>
      <trkpt lat="38.2838190" lon="-0.6180520">
        <ele>75.1</ele>
        <time>2019-10-19T09:44:38Z</time>
      </trkpt>
      <trkpt lat="38.2838380" lon="-0.6179450">
        <ele>75.2</ele>
        <time>2019-10-19T09:44:39Z</time>
      </trkpt>
      <trkpt lat="38.2838560" lon="-0.6178380">
        <ele>75.4</ele>
        <time>2019-10-19T09:44:40Z</time>
      </trkpt>
      <trkpt lat="38.2838950" lon="-0.6176270">
        <ele>75.8</ele>
        <time>2019-10-19T09:44:41Z</time>
      </trkpt>
      <trkpt lat="38.2839050" lon="-0.6175750">
        <ele>75.9</ele>
        <time>2019-10-19T09:44:42Z</time>
      </trkpt>
      <trkpt lat="38.2839140" lon="-0.6175230">
        <ele>76.0</ele>
        <time>2019-10-19T09:44:43Z</time>
      </trkpt>
      <trkpt lat="38.2839490" lon="-0.6173160">
        <ele>76.1</ele>
        <time>2019-10-19T09:44:44Z</time>
      </trkpt>
      <trkpt lat="38.2839570" lon="-0.6172650">
        <ele>76.1</ele>
        <time>2019-10-19T09:44:45Z</time>
      </trkpt>
      <trkpt lat="38.2839650" lon="-0.6172140">
        <ele>76.1</ele>
        <time>2019-10-19T09:44:46Z</time>
      </trkpt>
      <trkpt lat="38.2839920" lon="-0.6170110">
        <ele>76.1</ele>
        <time>2019-10-19T09:44:47Z</time>
      </trkpt>
      <trkpt lat="38.2840030" lon="-0.6169090">
        <ele>76.1</ele>
        <time>2019-10-19T09:44:48Z</time>
      </trkpt>
      <trkpt lat="38.2840080" lon="-0.6168580">
        <ele>76.1</ele>
        <time>2019-10-19T09:44:49Z</time>
      </trkpt>
      <trkpt lat="38.2840120" lon="-0.6168070">
        <ele>76.0</ele>
        <time>2019-10-19T09:44:50Z</time>
      </trkpt>
      <trkpt lat="38.2840110" lon="-0.6166260">
        <ele>75.8</ele>
        <time>2019-10-19T09:44:51Z</time>
      </trkpt>
      <trkpt lat="38.2840020" lon="-0.6165490">
        <ele>75.6</ele>
        <time>2019-10-19T09:44:52Z</time>
      </trkpt>
      <trkpt lat="38.2839830" lon="-0.6163940">
        <ele>75.4</ele>
        <time>2019-10-19T09:44:53Z</time>
      </trkpt>
      <trkpt lat="38.2839720" lon="-0.6163450">
        <ele>75.3</ele>
        <time>2019-10-19T09:44:54Z</time>
      </trkpt>
      <trkpt lat="38.2839600" lon="-0.6162960">
        <ele>75.3</ele>
        <time>2019-10-19T09:44:55Z</time>
      </trkpt>
      <trkpt lat="38.2839050" lon="-0.6161050">
        <ele>75.2</ele>
        <time>2019-10-19T09:44:56Z</time>
      </trkpt>
      <trkpt lat="38.2838880" lon="-0.6160580">
        <ele>75.2</ele>
        <time>2019-10-19T09:44:57Z</time>
      </trkpt>
      <trkpt lat="38.2838700" lon="-0.6160110">
        <ele>75.1</ele>
        <time>2019-10-19T09:44:58Z</time>
      </trkpt>
      <trkpt lat="38.2837940" lon="-0.6158250">
        <ele>75.0</ele>
        <time>2019-10-19T09:44:59Z</time>
      </trkpt>
      <trkpt lat="38.2837760" lon="-0.6157780">
        <ele>74.9</ele>
        <time>2019-10-19T09:45:00Z</time>
      </trkpt>
      <trkpt lat="38.2837580" lon="-0.6157310">
        <ele>74.8</ele>
        <time>2019-10-19T09:45:01Z</time>
      </trkpt>
      <trkpt lat="38.2837040" lon="-0.6155890">
        <ele>74.5</ele>
        <time>2019-10-19T09:45:02Z</time>
      </trkpt>
      <trkpt lat="38.2836860" lon="-0.6155410">
        <ele>74.4</ele>
        <time>2019-10-19T09:45:03Z</time>
      </trkpt>
      <trkpt lat="38.2836330" lon="-0.6153950">
        <ele>74.2</ele>
        <time>2019-10-19T09:45:04Z</time>
      </trkpt>
      <trkpt lat="38.2836150" lon="-0.6153450">
        <ele>74.1</ele>
        <time>2019-10-19T09:45:05Z</time>
      </trkpt>
      <trkpt lat="38.2835480" lon="-0.6151470">
        <ele>73.7</ele>
        <time>2019-10-19T09:45:06Z</time>
      </trkpt>
      <trkpt lat="38.2835120" lon="-0.6150490">
        <ele>73.5</ele>
        <time>2019-10-19T09:45:07Z</time>
      </trkpt>
      <trkpt lat="38.2834770" lon="-0.6149510">
        <ele>73.3</ele>
        <time>2019-10-19T09:45:08Z</time>
      </trkpt>
      <trkpt lat="38.2834400" lon="-0.6148530">
        <ele>73.2</ele>
        <time>2019-10-19T09:45:09Z</time>
      </trkpt>
      <trkpt lat="38.2834030" lon="-0.6147550">
        <ele>73.2</ele>
        <time>2019-10-19T09:45:10Z</time>
      </trkpt>
      <trkpt lat="38.2833670" lon="-0.6146560">
        <ele>73.2</ele>
        <time>2019-10-19T09:45:11Z</time>
      </trkpt>
      <trkpt lat="38.2833500" lon="-0.6146050">
        <ele>73.2</ele>
        <time>2019-10-19T09:45:12Z</time>
      </trkpt>
      <trkpt lat="38.2833330" lon="-0.6145550">
        <ele>73.2</ele>
        <time>2019-10-19T09:45:13Z</time>
      </trkpt>
      <trkpt lat="38.2832810" lon="-0.6143760">
        <ele>73.2</ele>
        <time>2019-10-19T09:45:14Z</time>
      </trkpt>
      <trkpt lat="38.2832630" lon="-0.6142980">
        <ele>73.2</ele>
        <time>2019-10-19T09:45:15Z</time>
      </trkpt>
      <trkpt lat="38.2832270" lon="-0.6141420">
        <ele>73.2</ele>
        <time>2019-10-19T09:45:16Z</time>
      </trkpt>
      <trkpt lat="38.2832210" lon="-0.6140880">
        <ele>73.2</ele>
        <time>2019-10-19T09:45:17Z</time>
      </trkpt>
      <trkpt lat="38.2832150" lon="-0.6140340">
        <ele>73.2</ele>
        <time>2019-10-19T09:45:18Z</time>
      </trkpt>
      <trkpt lat="38.2832100" lon="-0.6139200">
        <ele>73.2</ele>
        <time>2019-10-19T09:45:19Z</time>
      </trkpt>
      <trkpt lat="38.2832030" lon="-0.6138070">
        <ele>73.2</ele>
        <time>2019-10-19T09:45:20Z</time>
      </trkpt>
      <trkpt lat="38.2831970" lon="-0.6136990">
        <ele>73.2</ele>
        <time>2019-10-19T09:45:21Z</time>
      </trkpt>
      <trkpt lat="38.2831930" lon="-0.6135890">
        <ele>73.2</ele>
        <time>2019-10-19T09:45:22Z</time>
      </trkpt>
      <trkpt lat="38.2831870" lon="-0.6134790">
        <ele>73.1</ele>
        <time>2019-10-19T09:45:23Z</time>
      </trkpt>
      <trkpt lat="38.2831660" lon="-0.6132560">
        <ele>72.7</ele>
        <time>2019-10-19T09:45:24Z</time>
      </trkpt>
      <trkpt lat="38.2831530" lon="-0.6132020">
        <ele>72.6</ele>
        <time>2019-10-19T09:45:25Z</time>
      </trkpt>
      <trkpt lat="38.2831400" lon="-0.6131480">
        <ele>72.4</ele>
        <time>2019-10-19T09:45:26Z</time>
      </trkpt>
      <trkpt lat="38.2830520" lon="-0.6129560">
        <ele>71.8</ele>
        <time>2019-10-19T09:45:27Z</time>
      </trkpt>
      <trkpt lat="38.2830270" lon="-0.6129110">
        <ele>71.7</ele>
        <time>2019-10-19T09:45:28Z</time>
      </trkpt>
      <trkpt lat="38.2830010" lon="-0.6128660">
        <ele>71.5</ele>
        <time>2019-10-19T09:45:29Z</time>
      </trkpt>
      <trkpt lat="38.2829520" lon="-0.6127770">
        <ele>71.4</ele>
        <time>2019-10-19T09:45:30Z</time>
      </trkpt>
      <trkpt lat="38.2828550" lon="-0.6125990">
        <ele>71.3</ele>
        <time>2019-10-19T09:45:31Z</time>
      </trkpt>
      <trkpt lat="38.2828210" lon="-0.6125290">
        <ele>71.3</ele>
        <time>2019-10-19T09:45:32Z</time>
      </trkpt>
      <trkpt lat="38.2827870" lon="-0.6124600">
        <ele>71.3</ele>
        <time>2019-10-19T09:45:33Z</time>
      </trkpt>
      <trkpt lat="38.2827180" lon="-0.6123210">
        <ele>71.3</ele>
        <time>2019-10-19T09:45:34Z</time>
      </trkpt>
      <trkpt lat="38.2826970" lon="-0.6122720">
        <ele>71.3</ele>
        <time>2019-10-19T09:45:35Z</time>
      </trkpt>
      <trkpt lat="38.2826750" lon="-0.6122230">
        <ele>71.3</ele>
        <time>2019-10-19T09:45:36Z</time>
      </trkpt>
      <trkpt lat="38.2826130" lon="-0.6120210">
        <ele>71.3</ele>
        <time>2019-10-19T09:45:37Z</time>
      </trkpt>
      <trkpt lat="38.2826000" lon="-0.6119170">
        <ele>71.3</ele>
        <time>2019-10-19T09:45:38Z</time>
      </trkpt>
      <trkpt lat="38.2826000" lon="-0.6118640">
        <ele>71.3</ele>
        <time>2019-10-19T09:45:39Z</time>
      </trkpt>
      <trkpt lat="38.2826000" lon="-0.6118110">
        <ele>71.3</ele>
        <time>2019-10-19T09:45:40Z</time>
      </trkpt>
      <trkpt lat="38.2826370" lon="-0.6116070">
        <ele>69.6</ele>
        <time>2019-10-19T09:45:41Z</time>
      </trkpt>
      <trkpt lat="38.2826670" lon="-0.6115050">
        <ele>69.4</ele>
        <time>2019-10-19T09:45:42Z</time>
      </trkpt>
      <trkpt lat="38.2826860" lon="-0.6114560">
        <ele>69.6</ele>
        <time>2019-10-19T09:45:43Z</time>
      </trkpt>
      <trkpt lat="38.2827040" lon="-0.6114060">
        <ele>69.9</ele>
        <time>2019-10-19T09:45:44Z</time>
      </trkpt>
      <trkpt lat="38.2827850" lon="-0.6112060">
        <ele>72.7</ele>
        <time>2019-10-19T09:45:45Z</time>
      </trkpt>
      <trkpt lat="38.2828060" lon="-0.6111580">
        <ele>73.2</ele>
        <time>2019-10-19T09:45:46Z</time>
      </trkpt>
      <trkpt lat="38.2828270" lon="-0.6111090">
        <ele>73.6</ele>
        <time>2019-10-19T09:45:47Z</time>
      </trkpt>
      <trkpt lat="38.2829130" lon="-0.6109140">
        <ele>73.6</ele>
        <time>2019-10-19T09:45:48Z</time>
      </trkpt>
      <trkpt lat="38.2829330" lon="-0.6108640">
        <ele>73.4</ele>
        <time>2019-10-19T09:45:49Z</time>
      </trkpt>
      <trkpt lat="38.2829530" lon="-0.6108140">
        <ele>73.2</ele>
        <time>2019-10-19T09:45:50Z</time>
      </trkpt>
      <trkpt lat="38.2829940" lon="-0.6107130">
        <ele>72.7</ele>
        <time>2019-10-19T09:45:51Z</time>
      </trkpt>
      <trkpt lat="38.2830370" lon="-0.6106120">
        <ele>72.1</ele>
        <time>2019-10-19T09:45:52Z</time>
      </trkpt>
      <trkpt lat="38.2830800" lon="-0.6105100">
        <ele>71.4</ele>
        <time>2019-10-19T09:45:53Z</time>
      </trkpt>
      <trkpt lat="38.2831680" lon="-0.6103080">
        <ele>69.5</ele>
        <time>2019-10-19T09:45:54Z</time>
      </trkpt>
      <trkpt lat="38.2832120" lon="-0.6102080">
        <ele>68.6</ele>
        <time>2019-10-19T09:45:55Z</time>
      </trkpt>
      <trkpt lat="38.2832550" lon="-0.6101060">
        <ele>68.0</ele>
        <time>2019-10-19T09:45:56Z</time>
      </trkpt>
      <trkpt lat="38.2832970" lon="-0.6100040">
        <ele>67.5</ele>
        <time>2019-10-19T09:45:57Z</time>
      </trkpt>
      <trkpt lat="38.2833180" lon="-0.6099530">
        <ele>67.2</ele>
        <time>2019-10-19T09:45:58Z</time>
      </trkpt>
      <trkpt lat="38.2833380" lon="-0.6099010">
        <ele>67.0</ele>
        <time>2019-10-19T09:45:59Z</time>
      </trkpt>
      <trkpt lat="38.2833760" lon="-0.6097990">
        <ele>66.7</ele>
        <time>2019-10-19T09:46:00Z</time>
      </trkpt>
      <trkpt lat="38.2834530" lon="-0.6095930">
        <ele>66.7</ele>
        <time>2019-10-19T09:46:01Z</time>
      </trkpt>
      <trkpt lat="38.2834720" lon="-0.6095430">
        <ele>66.8</ele>
        <time>2019-10-19T09:46:02Z</time>
      </trkpt>
      <trkpt lat="38.2834910" lon="-0.6094920">
        <ele>66.9</ele>
        <time>2019-10-19T09:46:03Z</time>
      </trkpt>
      <trkpt lat="38.2835700" lon="-0.6092950">
        <ele>67.3</ele>
        <time>2019-10-19T09:46:04Z</time>
      </trkpt>
      <trkpt lat="38.2835900" lon="-0.6092460">
        <ele>67.4</ele>
        <time>2019-10-19T09:46:05Z</time>
      </trkpt>
      <trkpt lat="38.2836100" lon="-0.6091960">
        <ele>67.4</ele>
        <time>2019-10-19T09:46:06Z</time>
      </trkpt>
      <trkpt lat="38.2836510" lon="-0.6090980">
        <ele>67.4</ele>
        <time>2019-10-19T09:46:07Z</time>
      </trkpt>
      <trkpt lat="38.2836940" lon="-0.6090020">
        <ele>67.4</ele>
        <time>2019-10-19T09:46:08Z</time>
      </trkpt>
      <trkpt lat="38.2837370" lon="-0.6089060">
        <ele>67.4</ele>
        <time>2019-10-19T09:46:09Z</time>
      </trkpt>
      <trkpt lat="38.2838250" lon="-0.6087160">
        <ele>67.5</ele>
        <time>2019-10-19T09:46:10Z</time>
      </trkpt>
      <trkpt lat="38.2838470" lon="-0.6086680">
        <ele>67.6</ele>
        <time>2019-10-19T09:46:11Z</time>
      </trkpt>
      <trkpt lat="38.2838690" lon="-0.6086200">
        <ele>67.6</ele>
        <time>2019-10-19T09:46:12Z</time>
      </trkpt>
      <trkpt lat="38.2839120" lon="-0.6085240">
        <ele>67.6</ele>
        <time>2019-10-19T09:46:13Z</time>
      </trkpt>
      <trkpt lat="38.2839550" lon="-0.6084280">
        <ele>67.5</ele>
        <time>2019-10-19T09:46:14Z</time>
      </trkpt>
      <trkpt lat="38.2840430" lon="-0.6082380">
        <ele>67.3</ele>
        <time>2019-10-19T09:46:15Z</time>
      </trkpt>
      <trkpt lat="38.2840650" lon="-0.6081910">
        <ele>67.3</ele>
        <time>2019-10-19T09:46:16Z</time>
      </trkpt>
      <trkpt lat="38.2840870" lon="-0.6081440">
        <ele>67.2</ele>
        <time>2019-10-19T09:46:17Z</time>
      </trkpt>
      <trkpt lat="38.2841310" lon="-0.6080500">
        <ele>67.2</ele>
        <time>2019-10-19T09:46:18Z</time>
      </trkpt>
      <trkpt lat="38.2842160" lon="-0.6078640">
        <ele>67.2</ele>
        <time>2019-10-19T09:46:19Z</time>
      </trkpt>
      <trkpt lat="38.2842360" lon="-0.6078170">
        <ele>67.3</ele>
        <time>2019-10-19T09:46:20Z</time>
      </trkpt>
      <trkpt lat="38.2842560" lon="-0.6077700">
        <ele>67.3</ele>
        <time>2019-10-19T09:46:21Z</time>
      </trkpt>
      <trkpt lat="38.2842940" lon="-0.6076750">
        <ele>67.4</ele>
        <time>2019-10-19T09:46:22Z</time>
      </trkpt>
      <trkpt lat="38.2843480" lon="-0.6074680">
        <ele>67.1</ele>
        <time>2019-10-19T09:46:23Z</time>
      </trkpt>
      <trkpt lat="38.2843520" lon="-0.6074130">
        <ele>67.0</ele>
        <time>2019-10-19T09:46:24Z</time>
      </trkpt>
      <trkpt lat="38.2843550" lon="-0.6073580">
        <ele>66.9</ele>
        <time>2019-10-19T09:46:25Z</time>
      </trkpt>
      <trkpt lat="38.2843490" lon="-0.6072480">
        <ele>66.8</ele>
        <time>2019-10-19T09:46:26Z</time>
      </trkpt>
      <trkpt lat="38.2843010" lon="-0.6070410">
        <ele>66.9</ele>
        <time>2019-10-19T09:46:27Z</time>
      </trkpt>
      <trkpt lat="38.2842850" lon="-0.6069920">
        <ele>67.0</ele>
        <time>2019-10-19T09:46:28Z</time>
      </trkpt>
      <trkpt lat="38.2842690" lon="-0.6069440">
        <ele>67.0</ele>
        <time>2019-10-19T09:46:29Z</time>
      </trkpt>
      <trkpt lat="38.2842200" lon="-0.6067980">
        <ele>66.8</ele>
        <time>2019-10-19T09:46:30Z</time>
      </trkpt>
      <trkpt lat="38.2842030" lon="-0.6067490">
        <ele>66.7</ele>
        <time>2019-10-19T09:46:31Z</time>
      </trkpt>
      <trkpt lat="38.2841400" lon="-0.6065530">
        <ele>66.1</ele>
        <time>2019-10-19T09:46:32Z</time>
      </trkpt>
      <trkpt lat="38.2841080" lon="-0.6064560">
        <ele>66.1</ele>
        <time>2019-10-19T09:46:33Z</time>
      </trkpt>
      <trkpt lat="38.2840910" lon="-0.6064070">
        <ele>66.2</ele>
        <time>2019-10-19T09:46:34Z</time>
      </trkpt>
      <trkpt lat="38.2840740" lon="-0.6063590">
        <ele>66.3</ele>
        <time>2019-10-19T09:46:35Z</time>
      </trkpt>
      <trkpt lat="38.2840380" lon="-0.6062640">
        <ele>66.4</ele>
        <time>2019-10-19T09:46:36Z</time>
      </trkpt>
      <trkpt lat="38.2840020" lon="-0.6061680">
        <ele>66.5</ele>
        <time>2019-10-19T09:46:37Z</time>
      </trkpt>
      <trkpt lat="38.2839660" lon="-0.6060740">
        <ele>66.6</ele>
        <time>2019-10-19T09:46:38Z</time>
      </trkpt>
      <trkpt lat="38.2839280" lon="-0.6059770">
        <ele>66.7</ele>
        <time>2019-10-19T09:46:39Z</time>
      </trkpt>
      <trkpt lat="38.2838870" lon="-0.6058840">
        <ele>66.8</ele>
        <time>2019-10-19T09:46:40Z</time>
      </trkpt>
      <trkpt lat="38.2838440" lon="-0.6057920">
        <ele>66.9</ele>
        <time>2019-10-19T09:46:41Z</time>
      </trkpt>
      <trkpt lat="38.2837990" lon="-0.6057010">
        <ele>67.1</ele>
        <time>2019-10-19T09:46:42Z</time>
      </trkpt>
      <trkpt lat="38.2837540" lon="-0.6056120">
        <ele>67.3</ele>
        <time>2019-10-19T09:46:43Z</time>
      </trkpt>
      <trkpt lat="38.2836530" lon="-0.6054500">
        <ele>67.8</ele>
        <time>2019-10-19T09:46:44Z</time>
      </trkpt>
      <trkpt lat="38.2835960" lon="-0.6053750">
        <ele>68.1</ele>
        <time>2019-10-19T09:46:45Z</time>
      </trkpt>
      <trkpt lat="38.2835510" lon="-0.6053250">
        <ele>67.8</ele>
        <time>2019-10-19T09:46:46Z</time>
      </trkpt>
      <trkpt lat="38.2835050" lon="-0.6052760">
        <ele>67.6</ele>
        <time>2019-10-19T09:46:47Z</time>
      </trkpt>
      <trkpt lat="38.2834130" lon="-0.6051770">
        <ele>67.0</ele>
        <time>2019-10-19T09:46:48Z</time>
      </trkpt>
      <trkpt lat="38.2833790" lon="-0.6051150">
        <ele>66.9</ele>
        <time>2019-10-19T09:46:49Z</time>
      </trkpt>
      <trkpt lat="38.2833450" lon="-0.6050530">
        <ele>66.7</ele>
        <time>2019-10-19T09:46:50Z</time>
      </trkpt>
      <trkpt lat="38.2832760" lon="-0.6049290">
        <ele>66.5</ele>
        <time>2019-10-19T09:46:51Z</time>
      </trkpt>
      <trkpt lat="38.2832710" lon="-0.6048520">
        <ele>66.3</ele>
        <time>2019-10-19T09:46:52Z</time>
      </trkpt>
      <trkpt lat="38.2832650" lon="-0.6047750">
        <ele>66.2</ele>
        <time>2019-10-19T09:46:53Z</time>
      </trkpt>
      <trkpt lat="38.2832540" lon="-0.6046220">
        <ele>66.1</ele>
        <time>2019-10-19T09:46:54Z</time>
      </trkpt>
      <trkpt lat="38.2832610" lon="-0.6045690">
        <ele>66.1</ele>
        <time>2019-10-19T09:46:55Z</time>
      </trkpt>
      <trkpt lat="38.2832670" lon="-0.6045150">
        <ele>66.1</ele>
        <time>2019-10-19T09:46:56Z</time>
      </trkpt>
      <trkpt lat="38.2833090" lon="-0.6043040">
        <ele>66.0</ele>
        <time>2019-10-19T09:46:57Z</time>
      </trkpt>
      <trkpt lat="38.2833220" lon="-0.6042510">
        <ele>65.9</ele>
        <time>2019-10-19T09:46:58Z</time>
      </trkpt>
      <trkpt lat="38.2833350" lon="-0.6041980">
        <ele>65.8</ele>
        <time>2019-10-19T09:46:59Z</time>
      </trkpt>
      <trkpt lat="38.2833900" lon="-0.6039870">
        <ele>65.4</ele>
        <time>2019-10-19T09:47:00Z</time>
      </trkpt>
      <trkpt lat="38.2834050" lon="-0.6039350">
        <ele>65.3</ele>
        <time>2019-10-19T09:47:01Z</time>
      </trkpt>
      <trkpt lat="38.2834190" lon="-0.6038820">
        <ele>65.3</ele>
        <time>2019-10-19T09:47:02Z</time>
      </trkpt>
      <trkpt lat="38.2834740" lon="-0.6036720">
        <ele>65.1</ele>
        <time>2019-10-19T09:47:03Z</time>
      </trkpt>
      <trkpt lat="38.2834950" lon="-0.6035950">
        <ele>65.1</ele>
        <time>2019-10-19T09:47:04Z</time>
      </trkpt>
      <trkpt lat="38.2835150" lon="-0.6035170">
        <ele>65.1</ele>
        <time>2019-10-19T09:47:05Z</time>
      </trkpt>
      <trkpt lat="38.2835560" lon="-0.6033610">
        <ele>65.1</ele>
        <time>2019-10-19T09:47:06Z</time>
      </trkpt>
      <trkpt lat="38.2835710" lon="-0.6033100">
        <ele>65.1</ele>
        <time>2019-10-19T09:47:07Z</time>
      </trkpt>
      <trkpt lat="38.2835850" lon="-0.6032590">
        <ele>65.1</ele>
        <time>2019-10-19T09:47:08Z</time>
      </trkpt>
      <trkpt lat="38.2836390" lon="-0.6030530">
        <ele>65.1</ele>
        <time>2019-10-19T09:47:09Z</time>
      </trkpt>
      <trkpt lat="38.2836540" lon="-0.6030030">
        <ele>65.1</ele>
        <time>2019-10-19T09:47:10Z</time>
      </trkpt>
      <trkpt lat="38.2836690" lon="-0.6029520">
        <ele>65.1</ele>
        <time>2019-10-19T09:47:11Z</time>
      </trkpt>
      <trkpt lat="38.2836970" lon="-0.6028530">
        <ele>65.1</ele>
        <time>2019-10-19T09:47:12Z</time>
      </trkpt>
      <trkpt lat="38.2837250" lon="-0.6027530">
        <ele>65.0</ele>
        <time>2019-10-19T09:47:13Z</time>
      </trkpt>
      <trkpt lat="38.2837750" lon="-0.6025520">
        <ele>65.0</ele>
        <time>2019-10-19T09:47:14Z</time>
      </trkpt>
      <trkpt lat="38.2837880" lon="-0.6025010">
        <ele>65.0</ele>
        <time>2019-10-19T09:47:15Z</time>
      </trkpt>
      <trkpt lat="38.2838000" lon="-0.6024500">
        <ele>65.0</ele>
        <time>2019-10-19T09:47:16Z</time>
      </trkpt>
      <trkpt lat="38.2838270" lon="-0.6023500">
        <ele>65.0</ele>
        <time>2019-10-19T09:47:17Z</time>
      </trkpt>
      <trkpt lat="38.2838530" lon="-0.6022480">
        <ele>65.0</ele>
        <time>2019-10-19T09:47:18Z</time>
      </trkpt>
      <trkpt lat="38.2838800" lon="-0.6021500">
        <ele>65.0</ele>
        <time>2019-10-19T09:47:19Z</time>
      </trkpt>
      <trkpt lat="38.2839360" lon="-0.6019530">
        <ele>65.0</ele>
        <time>2019-10-19T09:47:20Z</time>
      </trkpt>
      <trkpt lat="38.2839510" lon="-0.6019040">
        <ele>65.0</ele>
        <time>2019-10-19T09:47:21Z</time>
      </trkpt>
      <trkpt lat="38.2839650" lon="-0.6018550">
        <ele>65.0</ele>
        <time>2019-10-19T09:47:22Z</time>
      </trkpt>
      <trkpt lat="38.2840290" lon="-0.6016620">
        <ele>65.0</ele>
        <time>2019-10-19T09:47:23Z</time>
      </trkpt>
      <trkpt lat="38.2840460" lon="-0.6016150">
        <ele>65.0</ele>
        <time>2019-10-19T09:47:24Z</time>
      </trkpt>
      <trkpt lat="38.2840630" lon="-0.6015670">
        <ele>65.0</ele>
        <time>2019-10-19T09:47:25Z</time>
      </trkpt>
      <trkpt lat="38.2841370" lon="-0.6013790">
        <ele>65.0</ele>
        <time>2019-10-19T09:47:26Z</time>
      </trkpt>
      <trkpt lat="38.2841550" lon="-0.6013320">
        <ele>65.0</ele>
        <time>2019-10-19T09:47:27Z</time>
      </trkpt>
      <trkpt lat="38.2841730" lon="-0.6012850">
        <ele>65.0</ele>
        <time>2019-10-19T09:47:28Z</time>
      </trkpt>
      <trkpt lat="38.2842280" lon="-0.6011440">
        <ele>65.0</ele>
        <time>2019-10-19T09:47:29Z</time>
      </trkpt>
      <trkpt lat="38.2842470" lon="-0.6010980">
        <ele>65.0</ele>
        <time>2019-10-19T09:47:30Z</time>
      </trkpt>
      <trkpt lat="38.2842860" lon="-0.6010040">
        <ele>65.0</ele>
        <time>2019-10-19T09:47:31Z</time>
      </trkpt>
      <trkpt lat="38.2843250" lon="-0.6009110">
        <ele>65.0</ele>
        <time>2019-10-19T09:47:32Z</time>
      </trkpt>
      <trkpt lat="38.2843620" lon="-0.6008170">
        <ele>65.0</ele>
        <time>2019-10-19T09:47:33Z</time>
      </trkpt>
      <trkpt lat="38.2844000" lon="-0.6007230">
        <ele>65.0</ele>
        <time>2019-10-19T09:47:34Z</time>
      </trkpt>
      <trkpt lat="38.2844370" lon="-0.6006290">
        <ele>65.0</ele>
        <time>2019-10-19T09:47:35Z</time>
      </trkpt>
      <trkpt lat="38.2844730" lon="-0.6005350">
        <ele>64.9</ele>
        <time>2019-10-19T09:47:36Z</time>
      </trkpt>
      <trkpt lat="38.2845090" lon="-0.6004410">
        <ele>64.9</ele>
        <time>2019-10-19T09:47:37Z</time>
      </trkpt>
      <trkpt lat="38.2845430" lon="-0.6003450">
        <ele>64.9</ele>
        <time>2019-10-19T09:47:38Z</time>
      </trkpt>
      <trkpt lat="38.2845760" lon="-0.6002490">
        <ele>64.9</ele>
        <time>2019-10-19T09:47:39Z</time>
      </trkpt>
      <trkpt lat="38.2846070" lon="-0.6001500">
        <ele>64.9</ele>
        <time>2019-10-19T09:47:40Z</time>
      </trkpt>
      <trkpt lat="38.2846330" lon="-0.6000490">
        <ele>64.9</ele>
        <time>2019-10-19T09:47:41Z</time>
      </trkpt>
      <trkpt lat="38.2846740" lon="-0.5998380">
        <ele>64.9</ele>
        <time>2019-10-19T09:47:42Z</time>
      </trkpt>
      <trkpt lat="38.2846800" lon="-0.5997840">
        <ele>64.9</ele>
        <time>2019-10-19T09:47:43Z</time>
      </trkpt>
      <trkpt lat="38.2846860" lon="-0.5997300">
        <ele>64.9</ele>
        <time>2019-10-19T09:47:44Z</time>
      </trkpt>
      <trkpt lat="38.2846910" lon="-0.5996240">
        <ele>64.9</ele>
        <time>2019-10-19T09:47:45Z</time>
      </trkpt>
      <trkpt lat="38.2846940" lon="-0.5995170">
        <ele>64.9</ele>
        <time>2019-10-19T09:47:46Z</time>
      </trkpt>
      <trkpt lat="38.2846940" lon="-0.5994110">
        <ele>64.9</ele>
        <time>2019-10-19T09:47:47Z</time>
      </trkpt>
      <trkpt lat="38.2846880" lon="-0.5991960">
        <ele>64.9</ele>
        <time>2019-10-19T09:47:48Z</time>
      </trkpt>
      <trkpt lat="38.2846840" lon="-0.5990880">
        <ele>64.9</ele>
        <time>2019-10-19T09:47:49Z</time>
      </trkpt>
      <trkpt lat="38.2846840" lon="-0.5990070">
        <ele>64.9</ele>
        <time>2019-10-19T09:47:50Z</time>
      </trkpt>
      <trkpt lat="38.2846840" lon="-0.5989250">
        <ele>64.9</ele>
        <time>2019-10-19T09:47:51Z</time>
      </trkpt>
      <trkpt lat="38.2846830" lon="-0.5987620">
        <ele>64.9</ele>
        <time>2019-10-19T09:47:52Z</time>
      </trkpt>
      <trkpt lat="38.2846880" lon="-0.5987070">
        <ele>64.9</ele>
        <time>2019-10-19T09:47:53Z</time>
      </trkpt>
      <trkpt lat="38.2846930" lon="-0.5986520">
        <ele>64.9</ele>
        <time>2019-10-19T09:47:54Z</time>
      </trkpt>
      <trkpt lat="38.2847070" lon="-0.5985420">
        <ele>64.9</ele>
        <time>2019-10-19T09:47:55Z</time>
      </trkpt>
      <trkpt lat="38.2847280" lon="-0.5984310">
        <ele>64.9</ele>
        <time>2019-10-19T09:47:56Z</time>
      </trkpt>
      <trkpt lat="38.2847540" lon="-0.5983230">
        <ele>64.8</ele>
        <time>2019-10-19T09:47:57Z</time>
      </trkpt>
      <trkpt lat="38.2847850" lon="-0.5982140">
        <ele>64.8</ele>
        <time>2019-10-19T09:47:58Z</time>
      </trkpt>
      <trkpt lat="38.2848500" lon="-0.5979950">
        <ele>64.5</ele>
        <time>2019-10-19T09:47:59Z</time>
      </trkpt>
      <trkpt lat="38.2848670" lon="-0.5979410">
        <ele>64.4</ele>
        <time>2019-10-19T09:48:00Z</time>
      </trkpt>
      <trkpt lat="38.2848840" lon="-0.5978870">
        <ele>64.3</ele>
        <time>2019-10-19T09:48:01Z</time>
      </trkpt>
      <trkpt lat="38.2849170" lon="-0.5977790">
        <ele>64.1</ele>
        <time>2019-10-19T09:48:02Z</time>
      </trkpt>
      <trkpt lat="38.2849510" lon="-0.5976720">
        <ele>63.9</ele>
        <time>2019-10-19T09:48:03Z</time>
      </trkpt>
      <trkpt lat="38.2849860" lon="-0.5975680">
        <ele>63.9</ele>
        <time>2019-10-19T09:48:04Z</time>
      </trkpt>
      <trkpt lat="38.2850190" lon="-0.5974630">
        <ele>63.8</ele>
        <time>2019-10-19T09:48:05Z</time>
      </trkpt>
      <trkpt lat="38.2850500" lon="-0.5973560">
        <ele>63.8</ele>
        <time>2019-10-19T09:48:06Z</time>
      </trkpt>
      <trkpt lat="38.2850780" lon="-0.5972500">
        <ele>63.8</ele>
        <time>2019-10-19T09:48:07Z</time>
      </trkpt>
      <trkpt lat="38.2851060" lon="-0.5971450">
        <ele>63.8</ele>
        <time>2019-10-19T09:48:08Z</time>
      </trkpt>
      <trkpt lat="38.2851330" lon="-0.5970400">
        <ele>63.8</ele>
        <time>2019-10-19T09:48:09Z</time>
      </trkpt>
      <trkpt lat="38.2851590" lon="-0.5969360">
        <ele>63.8</ele>
        <time>2019-10-19T09:48:10Z</time>
      </trkpt>
      <trkpt lat="38.2851790" lon="-0.5968290">
        <ele>63.8</ele>
        <time>2019-10-19T09:48:11Z</time>
      </trkpt>
      <trkpt lat="38.2852040" lon="-0.5966100">
        <ele>63.8</ele>
        <time>2019-10-19T09:48:12Z</time>
      </trkpt>
      <trkpt lat="38.2852070" lon="-0.5965560">
        <ele>63.8</ele>
        <time>2019-10-19T09:48:13Z</time>
      </trkpt>
      <trkpt lat="38.2852100" lon="-0.5965010">
        <ele>63.8</ele>
        <time>2019-10-19T09:48:14Z</time>
      </trkpt>
      <trkpt lat="38.2852130" lon="-0.5963920">
        <ele>63.8</ele>
        <time>2019-10-19T09:48:15Z</time>
      </trkpt>
      <trkpt lat="38.2852150" lon="-0.5962840">
        <ele>63.8</ele>
        <time>2019-10-19T09:48:16Z</time>
      </trkpt>
      <trkpt lat="38.2852150" lon="-0.5961740">
        <ele>63.8</ele>
        <time>2019-10-19T09:48:17Z</time>
      </trkpt>
      <trkpt lat="38.2852180" lon="-0.5959550">
        <ele>63.8</ele>
        <time>2019-10-19T09:48:18Z</time>
      </trkpt>
      <trkpt lat="38.2852190" lon="-0.5959000">
        <ele>63.8</ele>
        <time>2019-10-19T09:48:19Z</time>
      </trkpt>
      <trkpt lat="38.2852200" lon="-0.5958450">
        <ele>63.8</ele>
        <time>2019-10-19T09:48:20Z</time>
      </trkpt>
      <trkpt lat="38.2852200" lon="-0.5956270">
        <ele>63.8</ele>
        <time>2019-10-19T09:48:21Z</time>
      </trkpt>
      <trkpt lat="38.2852200" lon="-0.5955730">
        <ele>63.8</ele>
        <time>2019-10-19T09:48:22Z</time>
      </trkpt>
      <trkpt lat="38.2852200" lon="-0.5955180">
        <ele>63.5</ele>
        <time>2019-10-19T09:48:23Z</time>
      </trkpt>
      <trkpt lat="38.2852190" lon="-0.5954090">
        <ele>63.2</ele>
        <time>2019-10-19T09:48:24Z</time>
      </trkpt>
      <trkpt lat="38.2852180" lon="-0.5953000">
        <ele>63.0</ele>
        <time>2019-10-19T09:48:25Z</time>
      </trkpt>
      <trkpt lat="38.2852200" lon="-0.5950820">
        <ele>62.8</ele>
        <time>2019-10-19T09:48:26Z</time>
      </trkpt>
      <trkpt lat="38.2852210" lon="-0.5949730">
        <ele>62.8</ele>
        <time>2019-10-19T09:48:27Z</time>
      </trkpt>
      <trkpt lat="38.2852220" lon="-0.5948620">
        <ele>62.8</ele>
        <time>2019-10-19T09:48:28Z</time>
      </trkpt>
      <trkpt lat="38.2852230" lon="-0.5948070">
        <ele>62.8</ele>
        <time>2019-10-19T09:48:29Z</time>
      </trkpt>
      <trkpt lat="38.2852240" lon="-0.5947510">
        <ele>62.7</ele>
        <time>2019-10-19T09:48:30Z</time>
      </trkpt>
      <trkpt lat="38.2852240" lon="-0.5946430">
        <ele>62.6</ele>
        <time>2019-10-19T09:48:31Z</time>
      </trkpt>
      <trkpt lat="38.2852240" lon="-0.5945360">
        <ele>62.5</ele>
        <time>2019-10-19T09:48:32Z</time>
      </trkpt>
      <trkpt lat="38.2852260" lon="-0.5944280">
        <ele>62.3</ele>
        <time>2019-10-19T09:48:33Z</time>
      </trkpt>
      <trkpt lat="38.2852270" lon="-0.5943190">
        <ele>62.1</ele>
        <time>2019-10-19T09:48:34Z</time>
      </trkpt>
      <trkpt lat="38.2852270" lon="-0.5942110">
        <ele>62.0</ele>
        <time>2019-10-19T09:48:35Z</time>
      </trkpt>
      <trkpt lat="38.2852270" lon="-0.5941020">
        <ele>61.9</ele>
        <time>2019-10-19T09:48:36Z</time>
      </trkpt>
      <trkpt lat="38.2852270" lon="-0.5939940">
        <ele>61.9</ele>
        <time>2019-10-19T09:48:37Z</time>
      </trkpt>
      <trkpt lat="38.2852370" lon="-0.5937760">
        <ele>61.9</ele>
        <time>2019-10-19T09:48:38Z</time>
      </trkpt>
      <trkpt lat="38.2852430" lon="-0.5937220">
        <ele>61.9</ele>
        <time>2019-10-19T09:48:39Z</time>
      </trkpt>
      <trkpt lat="38.2852480" lon="-0.5936680">
        <ele>61.9</ele>
        <time>2019-10-19T09:48:40Z</time>
      </trkpt>
      <trkpt lat="38.2852660" lon="-0.5935610">
        <ele>61.9</ele>
        <time>2019-10-19T09:48:41Z</time>
      </trkpt>
      <trkpt lat="38.2852910" lon="-0.5934570">
        <ele>61.9</ele>
        <time>2019-10-19T09:48:42Z</time>
      </trkpt>
      <trkpt lat="38.2853540" lon="-0.5932500">
        <ele>61.9</ele>
        <time>2019-10-19T09:48:43Z</time>
      </trkpt>
      <trkpt lat="38.2853920" lon="-0.5931490">
        <ele>61.9</ele>
        <time>2019-10-19T09:48:44Z</time>
      </trkpt>
      <trkpt lat="38.2854150" lon="-0.5931010">
        <ele>61.9</ele>
        <time>2019-10-19T09:48:45Z</time>
      </trkpt>
      <trkpt lat="38.2854380" lon="-0.5930530">
        <ele>61.9</ele>
        <time>2019-10-19T09:48:46Z</time>
      </trkpt>
      <trkpt lat="38.2855100" lon="-0.5929110">
        <ele>61.9</ele>
        <time>2019-10-19T09:48:47Z</time>
      </trkpt>
      <trkpt lat="38.2855350" lon="-0.5928650">
        <ele>61.9</ele>
        <time>2019-10-19T09:48:48Z</time>
      </trkpt>
      <trkpt lat="38.2856410" lon="-0.5926820">
        <ele>61.9</ele>
        <time>2019-10-19T09:48:49Z</time>
      </trkpt>
      <trkpt lat="38.2856670" lon="-0.5926360">
        <ele>61.8</ele>
        <time>2019-10-19T09:48:50Z</time>
      </trkpt>
      <trkpt lat="38.2856930" lon="-0.5925900">
        <ele>61.7</ele>
        <time>2019-10-19T09:48:51Z</time>
      </trkpt>
      <trkpt lat="38.2857990" lon="-0.5924050">
        <ele>61.2</ele>
        <time>2019-10-19T09:48:52Z</time>
      </trkpt>
      <trkpt lat="38.2858530" lon="-0.5923150">
        <ele>60.8</ele>
        <time>2019-10-19T09:48:53Z</time>
      </trkpt>
      <trkpt lat="38.2859070" lon="-0.5922260">
        <ele>60.4</ele>
        <time>2019-10-19T09:48:54Z</time>
      </trkpt>
      <trkpt lat="38.2859350" lon="-0.5921810">
        <ele>60.3</ele>
        <time>2019-10-19T09:48:55Z</time>
      </trkpt>
      <trkpt lat="38.2859620" lon="-0.5921360">
        <ele>60.3</ele>
        <time>2019-10-19T09:48:56Z</time>
      </trkpt>
      <trkpt lat="38.2860650" lon="-0.5919540">
        <ele>60.6</ele>
        <time>2019-10-19T09:48:57Z</time>
      </trkpt>
      <trkpt lat="38.2860910" lon="-0.5919090">
        <ele>60.9</ele>
        <time>2019-10-19T09:48:58Z</time>
      </trkpt>
      <trkpt lat="38.2861170" lon="-0.5918630">
        <ele>61.2</ele>
        <time>2019-10-19T09:48:59Z</time>
      </trkpt>
      <trkpt lat="38.2862210" lon="-0.5916820">
        <ele>61.9</ele>
        <time>2019-10-19T09:49:00Z</time>
      </trkpt>
      <trkpt lat="38.2862470" lon="-0.5916370">
        <ele>61.9</ele>
        <time>2019-10-19T09:49:01Z</time>
      </trkpt>
      <trkpt lat="38.2862730" lon="-0.5915910">
        <ele>62.0</ele>
        <time>2019-10-19T09:49:02Z</time>
      </trkpt>
      <trkpt lat="38.2863780" lon="-0.5914130">
        <ele>61.9</ele>
        <time>2019-10-19T09:49:03Z</time>
      </trkpt>
      <trkpt lat="38.2864040" lon="-0.5913680">
        <ele>61.9</ele>
        <time>2019-10-19T09:49:04Z</time>
      </trkpt>
      <trkpt lat="38.2864290" lon="-0.5913230">
        <ele>61.9</ele>
        <time>2019-10-19T09:49:05Z</time>
      </trkpt>
      <trkpt lat="38.2864830" lon="-0.5912340">
        <ele>61.9</ele>
        <time>2019-10-19T09:49:06Z</time>
      </trkpt>
      <trkpt lat="38.2865360" lon="-0.5911460">
        <ele>61.8</ele>
        <time>2019-10-19T09:49:07Z</time>
      </trkpt>
      <trkpt lat="38.2865880" lon="-0.5910570">
        <ele>61.8</ele>
        <time>2019-10-19T09:49:08Z</time>
      </trkpt>
      <trkpt lat="38.2866900" lon="-0.5908770">
        <ele>61.7</ele>
        <time>2019-10-19T09:49:09Z</time>
      </trkpt>
      <trkpt lat="38.2867170" lon="-0.5908330">
        <ele>61.7</ele>
        <time>2019-10-19T09:49:10Z</time>
      </trkpt>
      <trkpt lat="38.2867430" lon="-0.5907890">
        <ele>61.7</ele>
        <time>2019-10-19T09:49:11Z</time>
      </trkpt>
      <trkpt lat="38.2868440" lon="-0.5906110">
        <ele>61.6</ele>
        <time>2019-10-19T09:49:12Z</time>
      </trkpt>
      <trkpt lat="38.2868690" lon="-0.5905660">
        <ele>61.6</ele>
        <time>2019-10-19T09:49:13Z</time>
      </trkpt>
      <trkpt lat="38.2868930" lon="-0.5905200">
        <ele>61.6</ele>
        <time>2019-10-19T09:49:14Z</time>
      </trkpt>
      <trkpt lat="38.2869880" lon="-0.5903360">
        <ele>61.2</ele>
        <time>2019-10-19T09:49:15Z</time>
      </trkpt>
      <trkpt lat="38.2870350" lon="-0.5902420">
        <ele>61.1</ele>
        <time>2019-10-19T09:49:16Z</time>
      </trkpt>
      <trkpt lat="38.2870560" lon="-0.5901940">
        <ele>61.0</ele>
        <time>2019-10-19T09:49:17Z</time>
      </trkpt>
      <trkpt lat="38.2870770" lon="-0.5901460">
        <ele>61.0</ele>
        <time>2019-10-19T09:49:18Z</time>
      </trkpt>
      <trkpt lat="38.2871460" lon="-0.5899740">
        <ele>60.7</ele>
        <time>2019-10-19T09:49:19Z</time>
      </trkpt>
      <trkpt lat="38.2871740" lon="-0.5898980">
        <ele>60.6</ele>
        <time>2019-10-19T09:49:20Z</time>
      </trkpt>
      <trkpt lat="38.2872300" lon="-0.5897460">
        <ele>60.4</ele>
        <time>2019-10-19T09:49:21Z</time>
      </trkpt>
      <trkpt lat="38.2872460" lon="-0.5896940">
        <ele>60.3</ele>
        <time>2019-10-19T09:49:22Z</time>
      </trkpt>
      <trkpt lat="38.2872620" lon="-0.5896410">
        <ele>60.3</ele>
        <time>2019-10-19T09:49:23Z</time>
      </trkpt>
      <trkpt lat="38.2872960" lon="-0.5895350">
        <ele>60.3</ele>
        <time>2019-10-19T09:49:24Z</time>
      </trkpt>
      <trkpt lat="38.2873290" lon="-0.5894300">
        <ele>60.3</ele>
        <time>2019-10-19T09:49:25Z</time>
      </trkpt>
      <trkpt lat="38.2873620" lon="-0.5893250">
        <ele>60.4</ele>
        <time>2019-10-19T09:49:26Z</time>
      </trkpt>
      <trkpt lat="38.2873950" lon="-0.5892200">
        <ele>60.4</ele>
        <time>2019-10-19T09:49:27Z</time>
      </trkpt>
      <trkpt lat="38.2874630" lon="-0.5890120">
        <ele>60.5</ele>
        <time>2019-10-19T09:49:28Z</time>
      </trkpt>
      <trkpt lat="38.2874960" lon="-0.5889080">
        <ele>60.6</ele>
        <time>2019-10-19T09:49:29Z</time>
      </trkpt>
      <trkpt lat="38.2875120" lon="-0.5888570">
        <ele>60.6</ele>
        <time>2019-10-19T09:49:30Z</time>
      </trkpt>
      <trkpt lat="38.2875270" lon="-0.5888050">
        <ele>60.6</ele>
        <time>2019-10-19T09:49:31Z</time>
      </trkpt>
      <trkpt lat="38.2875600" lon="-0.5887030">
        <ele>60.6</ele>
        <time>2019-10-19T09:49:32Z</time>
      </trkpt>
      <trkpt lat="38.2875920" lon="-0.5886010">
        <ele>60.6</ele>
        <time>2019-10-19T09:49:33Z</time>
      </trkpt>
      <trkpt lat="38.2876270" lon="-0.5885010">
        <ele>60.5</ele>
        <time>2019-10-19T09:49:34Z</time>
      </trkpt>
      <trkpt lat="38.2876600" lon="-0.5884020">
        <ele>60.5</ele>
        <time>2019-10-19T09:49:35Z</time>
      </trkpt>
      <trkpt lat="38.2876910" lon="-0.5883020">
        <ele>60.4</ele>
        <time>2019-10-19T09:49:36Z</time>
      </trkpt>
      <trkpt lat="38.2877200" lon="-0.5882050">
        <ele>60.3</ele>
        <time>2019-10-19T09:49:37Z</time>
      </trkpt>
      <trkpt lat="38.2877500" lon="-0.5881090">
        <ele>60.2</ele>
        <time>2019-10-19T09:49:38Z</time>
      </trkpt>
      <trkpt lat="38.2877770" lon="-0.5880100">
        <ele>60.2</ele>
        <time>2019-10-19T09:49:39Z</time>
      </trkpt>
      <trkpt lat="38.2878300" lon="-0.5878130">
        <ele>60.4</ele>
        <time>2019-10-19T09:49:40Z</time>
      </trkpt>
      <trkpt lat="38.2878590" lon="-0.5877160">
        <ele>60.4</ele>
        <time>2019-10-19T09:49:41Z</time>
      </trkpt>
      <trkpt lat="38.2878800" lon="-0.5876430">
        <ele>60.4</ele>
        <time>2019-10-19T09:49:42Z</time>
      </trkpt>
      <trkpt lat="38.2879010" lon="-0.5875700">
        <ele>60.4</ele>
        <time>2019-10-19T09:49:43Z</time>
      </trkpt>
      <trkpt lat="38.2879430" lon="-0.5874230">
        <ele>60.4</ele>
        <time>2019-10-19T09:49:44Z</time>
      </trkpt>
      <trkpt lat="38.2879680" lon="-0.5873230">
        <ele>60.4</ele>
        <time>2019-10-19T09:49:45Z</time>
      </trkpt>
      <trkpt lat="38.2879910" lon="-0.5872220">
        <ele>60.4</ele>
        <time>2019-10-19T09:49:46Z</time>
      </trkpt>
      <trkpt lat="38.2880030" lon="-0.5871720">
        <ele>60.4</ele>
        <time>2019-10-19T09:49:47Z</time>
      </trkpt>
      <trkpt lat="38.2880140" lon="-0.5871210">
        <ele>60.3</ele>
        <time>2019-10-19T09:49:48Z</time>
      </trkpt>
      <trkpt lat="38.2880470" lon="-0.5869070">
        <ele>60.0</ele>
        <time>2019-10-19T09:49:49Z</time>
      </trkpt>
      <trkpt lat="38.2880540" lon="-0.5867990">
        <ele>59.8</ele>
        <time>2019-10-19T09:49:50Z</time>
      </trkpt>
      <trkpt lat="38.2880520" lon="-0.5866900">
        <ele>59.6</ele>
        <time>2019-10-19T09:49:51Z</time>
      </trkpt>
      <trkpt lat="38.2880400" lon="-0.5865800">
        <ele>59.5</ele>
        <time>2019-10-19T09:49:52Z</time>
      </trkpt>
      <trkpt lat="38.2880330" lon="-0.5865260">
        <ele>59.5</ele>
        <time>2019-10-19T09:49:53Z</time>
      </trkpt>
      <trkpt lat="38.2880250" lon="-0.5864720">
        <ele>59.5</ele>
        <time>2019-10-19T09:49:54Z</time>
      </trkpt>
      <trkpt lat="38.2879830" lon="-0.5862580">
        <ele>59.5</ele>
        <time>2019-10-19T09:49:55Z</time>
      </trkpt>
      <trkpt lat="38.2879600" lon="-0.5861520">
        <ele>59.4</ele>
        <time>2019-10-19T09:49:56Z</time>
      </trkpt>
      <trkpt lat="38.2879340" lon="-0.5860470">
        <ele>59.3</ele>
        <time>2019-10-19T09:49:57Z</time>
      </trkpt>
      <trkpt lat="38.2879060" lon="-0.5859410">
        <ele>59.1</ele>
        <time>2019-10-19T09:49:58Z</time>
      </trkpt>
      <trkpt lat="38.2878920" lon="-0.5858880">
        <ele>59.0</ele>
        <time>2019-10-19T09:49:59Z</time>
      </trkpt>
      <trkpt lat="38.2878780" lon="-0.5858360">
        <ele>58.8</ele>
        <time>2019-10-19T09:50:00Z</time>
      </trkpt>
      <trkpt lat="38.2878350" lon="-0.5856780">
        <ele>58.2</ele>
        <time>2019-10-19T09:50:01Z</time>
      </trkpt>
      <trkpt lat="38.2878210" lon="-0.5856250">
        <ele>58.0</ele>
        <time>2019-10-19T09:50:02Z</time>
      </trkpt>
      <trkpt lat="38.2877790" lon="-0.5854660">
        <ele>57.5</ele>
        <time>2019-10-19T09:50:03Z</time>
      </trkpt>
      <trkpt lat="38.2877650" lon="-0.5854130">
        <ele>57.3</ele>
        <time>2019-10-19T09:50:04Z</time>
      </trkpt>
      <trkpt lat="38.2877370" lon="-0.5853080">
        <ele>57.0</ele>
        <time>2019-10-19T09:50:05Z</time>
      </trkpt>
      <trkpt lat="38.2877080" lon="-0.5852020">
        <ele>56.8</ele>
        <time>2019-10-19T09:50:06Z</time>
      </trkpt>
      <trkpt lat="38.2876790" lon="-0.5850980">
        <ele>56.6</ele>
        <time>2019-10-19T09:50:07Z</time>
      </trkpt>
      <trkpt lat="38.2876220" lon="-0.5848880">
        <ele>56.3</ele>
        <time>2019-10-19T09:50:08Z</time>
      </trkpt>
      <trkpt lat="38.2876020" lon="-0.5848080">
        <ele>56.1</ele>
        <time>2019-10-19T09:50:09Z</time>
      </trkpt>
      <trkpt lat="38.2875820" lon="-0.5847290">
        <ele>55.9</ele>
        <time>2019-10-19T09:50:10Z</time>
      </trkpt>
      <trkpt lat="38.2875410" lon="-0.5845700">
        <ele>55.7</ele>
        <time>2019-10-19T09:50:11Z</time>
      </trkpt>
      <trkpt lat="38.2875120" lon="-0.5844650">
        <ele>55.6</ele>
        <time>2019-10-19T09:50:12Z</time>
      </trkpt>
      <trkpt lat="38.2874830" lon="-0.5843610">
        <ele>55.5</ele>
        <time>2019-10-19T09:50:13Z</time>
      </trkpt>
      <trkpt lat="38.2874530" lon="-0.5842540">
        <ele>55.5</ele>
        <time>2019-10-19T09:50:14Z</time>
      </trkpt>
      <trkpt lat="38.2874370" lon="-0.5841740">
        <ele>55.5</ele>
        <time>2019-10-19T09:50:15Z</time>
      </trkpt>
      <trkpt lat="38.2874200" lon="-0.5840940">
        <ele>55.5</ele>
        <time>2019-10-19T09:50:16Z</time>
      </trkpt>
      <trkpt lat="38.2873860" lon="-0.5839340">
        <ele>55.5</ele>
        <time>2019-10-19T09:50:17Z</time>
      </trkpt>
      <trkpt lat="38.2873770" lon="-0.5838790">
        <ele>55.5</ele>
        <time>2019-10-19T09:50:18Z</time>
      </trkpt>
      <trkpt lat="38.2873680" lon="-0.5838240">
        <ele>55.5</ele>
        <time>2019-10-19T09:50:19Z</time>
      </trkpt>
      <trkpt lat="38.2873550" lon="-0.5837140">
        <ele>55.5</ele>
        <time>2019-10-19T09:50:20Z</time>
      </trkpt>
      <trkpt lat="38.2873470" lon="-0.5836020">
        <ele>55.4</ele>
        <time>2019-10-19T09:50:21Z</time>
      </trkpt>
      <trkpt lat="38.2873670" lon="-0.5833810">
        <ele>54.9</ele>
        <time>2019-10-19T09:50:22Z</time>
      </trkpt>
      <trkpt lat="38.2873940" lon="-0.5832750">
        <ele>54.5</ele>
        <time>2019-10-19T09:50:23Z</time>
      </trkpt>
      <trkpt lat="38.2874260" lon="-0.5831710">
        <ele>54.5</ele>
        <time>2019-10-19T09:50:24Z</time>
      </trkpt>
      <trkpt lat="38.2874550" lon="-0.5830650">
        <ele>54.4</ele>
        <time>2019-10-19T09:50:25Z</time>
      </trkpt>
      <trkpt lat="38.2874730" lon="-0.5829560">
        <ele>54.4</ele>
        <time>2019-10-19T09:50:26Z</time>
      </trkpt>
      <trkpt lat="38.2874800" lon="-0.5829020">
        <ele>54.4</ele>
        <time>2019-10-19T09:50:27Z</time>
      </trkpt>
      <trkpt lat="38.2874860" lon="-0.5828470">
        <ele>54.4</ele>
        <time>2019-10-19T09:50:28Z</time>
      </trkpt>
      <trkpt lat="38.2875090" lon="-0.5827390">
        <ele>54.4</ele>
        <time>2019-10-19T09:50:29Z</time>
      </trkpt>
      <trkpt lat="38.2875540" lon="-0.5826510">
        <ele>54.4</ele>
        <time>2019-10-19T09:50:30Z</time>
      </trkpt>
      <trkpt lat="38.2876200" lon="-0.5825930">
        <ele>54.5</ele>
        <time>2019-10-19T09:50:31Z</time>
      </trkpt>
      <trkpt lat="38.2877690" lon="-0.5825930">
        <ele>54.8</ele>
        <time>2019-10-19T09:50:32Z</time>
      </trkpt>
      <trkpt lat="38.2878000" lon="-0.5826190">
        <ele>54.9</ele>
        <time>2019-10-19T09:50:33Z</time>
      </trkpt>
      <trkpt lat="38.2878300" lon="-0.5826460">
        <ele>54.9</ele>
        <time>2019-10-19T09:50:34Z</time>
      </trkpt>
      <trkpt lat="38.2878700" lon="-0.5827190">
        <ele>55.1</ele>
        <time>2019-10-19T09:50:35Z</time>
      </trkpt>
      <trkpt lat="38.2878920" lon="-0.5827970">
        <ele>55.2</ele>
        <time>2019-10-19T09:50:36Z</time>
      </trkpt>
      <trkpt lat="38.2879340" lon="-0.5829660">
        <ele>55.6</ele>
        <time>2019-10-19T09:50:37Z</time>
      </trkpt>
      <trkpt lat="38.2879660" lon="-0.5830440">
        <ele>55.8</ele>
        <time>2019-10-19T09:50:38Z</time>
      </trkpt>
      <trkpt lat="38.2880100" lon="-0.5831100">
        <ele>56.0</ele>
        <time>2019-10-19T09:50:39Z</time>
      </trkpt>
      <trkpt lat="38.2880610" lon="-0.5831680">
        <ele>56.0</ele>
        <time>2019-10-19T09:50:40Z</time>
      </trkpt>
      <trkpt lat="38.2881130" lon="-0.5832260">
        <ele>56.0</ele>
        <time>2019-10-19T09:50:41Z</time>
      </trkpt>
      <trkpt lat="38.2881660" lon="-0.5832840">
        <ele>56.0</ele>
        <time>2019-10-19T09:50:42Z</time>
      </trkpt>
      <trkpt lat="38.2882070" lon="-0.5833280">
        <ele>56.1</ele>
        <time>2019-10-19T09:50:43Z</time>
      </trkpt>
      <trkpt lat="38.2882470" lon="-0.5833720">
        <ele>56.2</ele>
        <time>2019-10-19T09:50:44Z</time>
      </trkpt>
      <trkpt lat="38.2883280" lon="-0.5834610">
        <ele>56.6</ele>
        <time>2019-10-19T09:50:45Z</time>
      </trkpt>
      <trkpt lat="38.2883560" lon="-0.5834900">
        <ele>56.7</ele>
        <time>2019-10-19T09:50:46Z</time>
      </trkpt>
      <trkpt lat="38.2883840" lon="-0.5835190">
        <ele>56.9</ele>
        <time>2019-10-19T09:50:47Z</time>
      </trkpt>
      <trkpt lat="38.2884450" lon="-0.5835710">
        <ele>57.3</ele>
        <time>2019-10-19T09:50:48Z</time>
      </trkpt>
      <trkpt lat="38.2885100" lon="-0.5836050">
        <ele>57.6</ele>
        <time>2019-10-19T09:50:49Z</time>
      </trkpt>
      <trkpt lat="38.2886510" lon="-0.5836510">
        <ele>58.3</ele>
        <time>2019-10-19T09:50:50Z</time>
      </trkpt>
      <trkpt lat="38.2886880" lon="-0.5836550">
        <ele>58.4</ele>
        <time>2019-10-19T09:50:51Z</time>
      </trkpt>
      <trkpt lat="38.2887240" lon="-0.5836590">
        <ele>58.5</ele>
        <time>2019-10-19T09:50:52Z</time>
      </trkpt>
      <trkpt lat="38.2888700" lon="-0.5836590">
        <ele>58.7</ele>
        <time>2019-10-19T09:50:53Z</time>
      </trkpt>
      <trkpt lat="38.2889440" lon="-0.5836530">
        <ele>58.7</ele>
        <time>2019-10-19T09:50:54Z</time>
      </trkpt>
      <trkpt lat="38.2890130" lon="-0.5836400">
        <ele>58.8</ele>
        <time>2019-10-19T09:50:55Z</time>
      </trkpt>
      <trkpt lat="38.2890860" lon="-0.5836360">
        <ele>58.8</ele>
        <time>2019-10-19T09:50:56Z</time>
      </trkpt>
      <trkpt lat="38.2891220" lon="-0.5836390">
        <ele>58.8</ele>
        <time>2019-10-19T09:50:57Z</time>
      </trkpt>
      <trkpt lat="38.2891580" lon="-0.5836420">
        <ele>58.8</ele>
        <time>2019-10-19T09:50:58Z</time>
      </trkpt>
      <trkpt lat="38.2892630" lon="-0.5836580">
        <ele>58.9</ele>
        <time>2019-10-19T09:50:59Z</time>
      </trkpt>
      <trkpt lat="38.2892970" lon="-0.5836680">
        <ele>58.9</ele>
        <time>2019-10-19T09:51:00Z</time>
      </trkpt>
      <trkpt lat="38.2893640" lon="-0.5836970">
        <ele>59.2</ele>
        <time>2019-10-19T09:51:01Z</time>
      </trkpt>
      <trkpt lat="38.2895000" lon="-0.5837690">
        <ele>60.0</ele>
        <time>2019-10-19T09:51:02Z</time>
      </trkpt>
      <trkpt lat="38.2895700" lon="-0.5838070">
        <ele>60.3</ele>
        <time>2019-10-19T09:51:03Z</time>
      </trkpt>
      <trkpt lat="38.2896050" lon="-0.5838250">
        <ele>60.4</ele>
        <time>2019-10-19T09:51:04Z</time>
      </trkpt>
      <trkpt lat="38.2896390" lon="-0.5838440">
        <ele>60.5</ele>
        <time>2019-10-19T09:51:05Z</time>
      </trkpt>
      <trkpt lat="38.2897730" lon="-0.5839230">
        <ele>61.0</ele>
        <time>2019-10-19T09:51:06Z</time>
      </trkpt>
      <trkpt lat="38.2898050" lon="-0.5839410">
        <ele>61.2</ele>
        <time>2019-10-19T09:51:07Z</time>
      </trkpt>
      <trkpt lat="38.2898370" lon="-0.5839600">
        <ele>61.3</ele>
        <time>2019-10-19T09:51:08Z</time>
      </trkpt>
      <trkpt lat="38.2899000" lon="-0.5839990">
        <ele>61.6</ele>
        <time>2019-10-19T09:51:09Z</time>
      </trkpt>
      <trkpt lat="38.2899640" lon="-0.5840420">
        <ele>61.8</ele>
        <time>2019-10-19T09:51:10Z</time>
      </trkpt>
      <trkpt lat="38.2900270" lon="-0.5840840">
        <ele>62.1</ele>
        <time>2019-10-19T09:51:11Z</time>
      </trkpt>
      <trkpt lat="38.2900880" lon="-0.5841260">
        <ele>62.4</ele>
        <time>2019-10-19T09:51:12Z</time>
      </trkpt>
      <trkpt lat="38.2901500" lon="-0.5841670">
        <ele>62.6</ele>
        <time>2019-10-19T09:51:13Z</time>
      </trkpt>
      <trkpt lat="38.2902770" lon="-0.5842540">
        <ele>63.3</ele>
        <time>2019-10-19T09:51:14Z</time>
      </trkpt>
      <trkpt lat="38.2903400" lon="-0.5842960">
        <ele>63.6</ele>
        <time>2019-10-19T09:51:15Z</time>
      </trkpt>
      <trkpt lat="38.2904000" lon="-0.5843360">
        <ele>63.9</ele>
        <time>2019-10-19T09:51:16Z</time>
      </trkpt>
      <trkpt lat="38.2904300" lon="-0.5843560">
        <ele>64.1</ele>
        <time>2019-10-19T09:51:17Z</time>
      </trkpt>
      <trkpt lat="38.2904590" lon="-0.5843760">
        <ele>64.2</ele>
        <time>2019-10-19T09:51:18Z</time>
      </trkpt>
      <trkpt lat="38.2905150" lon="-0.5844160">
        <ele>64.4</ele>
        <time>2019-10-19T09:51:19Z</time>
      </trkpt>
      <trkpt lat="38.2905710" lon="-0.5844440">
        <ele>64.7</ele>
        <time>2019-10-19T09:51:20Z</time>
      </trkpt>
      <trkpt lat="38.2906280" lon="-0.5844420">
        <ele>64.9</ele>
        <time>2019-10-19T09:51:21Z</time>
      </trkpt>
      <trkpt lat="38.2906740" lon="-0.5844110">
        <ele>65.0</ele>
        <time>2019-10-19T09:51:22Z</time>
      </trkpt>
      <trkpt lat="38.2907070" lon="-0.5843590">
        <ele>64.9</ele>
        <time>2019-10-19T09:51:23Z</time>
      </trkpt>
      <trkpt lat="38.2907580" lon="-0.5842210">
        <ele>64.7</ele>
        <time>2019-10-19T09:51:24Z</time>
      </trkpt>
      <trkpt lat="38.2907720" lon="-0.5841830">
        <ele>64.6</ele>
        <time>2019-10-19T09:51:25Z</time>
      </trkpt>
      <trkpt lat="38.2907850" lon="-0.5841440">
        <ele>64.6</ele>
        <time>2019-10-19T09:51:26Z</time>
      </trkpt>
      <trkpt lat="38.2908270" lon="-0.5840280">
        <ele>64.3</ele>
        <time>2019-10-19T09:51:27Z</time>
      </trkpt>
      <trkpt lat="38.2908410" lon="-0.5839890">
        <ele>64.2</ele>
        <time>2019-10-19T09:51:28Z</time>
      </trkpt>
      <trkpt lat="38.2908700" lon="-0.5839110">
        <ele>64.0</ele>
        <time>2019-10-19T09:51:29Z</time>
      </trkpt>
      <trkpt lat="38.2909290" lon="-0.5837550">
        <ele>63.5</ele>
        <time>2019-10-19T09:51:30Z</time>
      </trkpt>
      <trkpt lat="38.2909440" lon="-0.5837170">
        <ele>63.4</ele>
        <time>2019-10-19T09:51:31Z</time>
      </trkpt>
      <trkpt lat="38.2909590" lon="-0.5836780">
        <ele>63.3</ele>
        <time>2019-10-19T09:51:32Z</time>
      </trkpt>
      <trkpt lat="38.2909870" lon="-0.5836030">
        <ele>63.1</ele>
        <time>2019-10-19T09:51:33Z</time>
      </trkpt>
      <trkpt lat="38.2910160" lon="-0.5835350">
        <ele>62.9</ele>
        <time>2019-10-19T09:51:34Z</time>
      </trkpt>
      <trkpt lat="38.2910780" lon="-0.5834540">
        <ele>62.6</ele>
        <time>2019-10-19T09:51:35Z</time>
      </trkpt>
      <trkpt lat="38.2911020" lon="-0.5834490">
        <ele>62.5</ele>
        <time>2019-10-19T09:51:36Z</time>
      </trkpt>
      <trkpt lat="38.2911250" lon="-0.5834430">
        <ele>62.4</ele>
        <time>2019-10-19T09:51:37Z</time>
      </trkpt>
      <trkpt lat="38.2912170" lon="-0.5834580">
        <ele>63.3</ele>
        <time>2019-10-19T09:51:38Z</time>
      </trkpt>
      <trkpt lat="38.2912420" lon="-0.5834690">
        <ele>63.4</ele>
        <time>2019-10-19T09:51:39Z</time>
      </trkpt>
      <trkpt lat="38.2912660" lon="-0.5834800">
        <ele>63.6</ele>
        <time>2019-10-19T09:51:40Z</time>
      </trkpt>
      <trkpt lat="38.2913420" lon="-0.5835150">
        <ele>63.9</ele>
        <time>2019-10-19T09:51:41Z</time>
      </trkpt>
      <trkpt lat="38.2913680" lon="-0.5835270">
        <ele>64.0</ele>
        <time>2019-10-19T09:51:42Z</time>
      </trkpt>
      <trkpt lat="38.2914810" lon="-0.5835760">
        <ele>64.4</ele>
        <time>2019-10-19T09:51:43Z</time>
      </trkpt>
      <trkpt lat="38.2915110" lon="-0.5835900">
        <ele>64.6</ele>
        <time>2019-10-19T09:51:44Z</time>
      </trkpt>
      <trkpt lat="38.2915410" lon="-0.5836040">
        <ele>64.7</ele>
        <time>2019-10-19T09:51:45Z</time>
      </trkpt>
      <trkpt lat="38.2916530" lon="-0.5836580">
        <ele>65.0</ele>
        <time>2019-10-19T09:51:46Z</time>
      </trkpt>
      <trkpt lat="38.2916820" lon="-0.5836710">
        <ele>65.1</ele>
        <time>2019-10-19T09:51:47Z</time>
      </trkpt>
      <trkpt lat="38.2917110" lon="-0.5836840">
        <ele>65.2</ele>
        <time>2019-10-19T09:51:48Z</time>
      </trkpt>
      <trkpt lat="38.2918350" lon="-0.5837430">
        <ele>65.8</ele>
        <time>2019-10-19T09:51:49Z</time>
      </trkpt>
      <trkpt lat="38.2918670" lon="-0.5837570">
        <ele>66.0</ele>
        <time>2019-10-19T09:51:50Z</time>
      </trkpt>
      <trkpt lat="38.2918980" lon="-0.5837720">
        <ele>66.1</ele>
        <time>2019-10-19T09:51:51Z</time>
      </trkpt>
      <trkpt lat="38.2919950" lon="-0.5838150">
        <ele>66.4</ele>
        <time>2019-10-19T09:51:52Z</time>
      </trkpt>
      <trkpt lat="38.2920280" lon="-0.5838290">
        <ele>66.5</ele>
        <time>2019-10-19T09:51:53Z</time>
      </trkpt>
      <trkpt lat="38.2921290" lon="-0.5838730">
        <ele>66.9</ele>
        <time>2019-10-19T09:51:54Z</time>
      </trkpt>
      <trkpt lat="38.2921620" lon="-0.5838900">
        <ele>67.0</ele>
        <time>2019-10-19T09:51:55Z</time>
      </trkpt>
      <trkpt lat="38.2922340" lon="-0.5839260">
        <ele>67.3</ele>
        <time>2019-10-19T09:51:56Z</time>
      </trkpt>
      <trkpt lat="38.2923050" lon="-0.5839540">
        <ele>67.5</ele>
        <time>2019-10-19T09:51:57Z</time>
      </trkpt>
      <trkpt lat="38.2923740" lon="-0.5839850">
        <ele>67.5</ele>
        <time>2019-10-19T09:51:58Z</time>
      </trkpt>
      <trkpt lat="38.2925080" lon="-0.5840510">
        <ele>67.7</ele>
        <time>2019-10-19T09:51:59Z</time>
      </trkpt>
      <trkpt lat="38.2925430" lon="-0.5840670">
        <ele>67.7</ele>
        <time>2019-10-19T09:52:00Z</time>
      </trkpt>
      <trkpt lat="38.2925770" lon="-0.5840830">
        <ele>67.8</ele>
        <time>2019-10-19T09:52:01Z</time>
      </trkpt>
      <trkpt lat="38.2927100" lon="-0.5841410">
        <ele>68.0</ele>
        <time>2019-10-19T09:52:02Z</time>
      </trkpt>
      <trkpt lat="38.2927590" lon="-0.5841630">
        <ele>68.1</ele>
        <time>2019-10-19T09:52:03Z</time>
      </trkpt>
      <trkpt lat="38.2928070" lon="-0.5841850">
        <ele>68.1</ele>
        <time>2019-10-19T09:52:04Z</time>
      </trkpt>
      <trkpt lat="38.2929040" lon="-0.5842300">
        <ele>68.2</ele>
        <time>2019-10-19T09:52:05Z</time>
      </trkpt>
      <trkpt lat="38.2929360" lon="-0.5842440">
        <ele>68.3</ele>
        <time>2019-10-19T09:52:06Z</time>
      </trkpt>
      <trkpt lat="38.2929670" lon="-0.5842590">
        <ele>68.3</ele>
        <time>2019-10-19T09:52:07Z</time>
      </trkpt>
      <trkpt lat="38.2930600" lon="-0.5843010">
        <ele>68.4</ele>
        <time>2019-10-19T09:52:08Z</time>
      </trkpt>
      <trkpt lat="38.2930900" lon="-0.5843140">
        <ele>68.4</ele>
        <time>2019-10-19T09:52:09Z</time>
      </trkpt>
      <trkpt lat="38.2931520" lon="-0.5843390">
        <ele>68.5</ele>
        <time>2019-10-19T09:52:10Z</time>
      </trkpt>
      <trkpt lat="38.2932150" lon="-0.5843680">
        <ele>68.6</ele>
        <time>2019-10-19T09:52:11Z</time>
      </trkpt>
      <trkpt lat="38.2932780" lon="-0.5843950">
        <ele>68.7</ele>
        <time>2019-10-19T09:52:12Z</time>
      </trkpt>
      <trkpt lat="38.2934080" lon="-0.5844540">
        <ele>68.8</ele>
        <time>2019-10-19T09:52:13Z</time>
      </trkpt>
      <trkpt lat="38.2934700" lon="-0.5844810">
        <ele>68.8</ele>
        <time>2019-10-19T09:52:14Z</time>
      </trkpt>
      <trkpt lat="38.2935020" lon="-0.5844940">
        <ele>68.7</ele>
        <time>2019-10-19T09:52:15Z</time>
      </trkpt>
      <trkpt lat="38.2935340" lon="-0.5845080">
        <ele>68.7</ele>
        <time>2019-10-19T09:52:16Z</time>
      </trkpt>
      <trkpt lat="38.2936310" lon="-0.5845490">
        <ele>68.5</ele>
        <time>2019-10-19T09:52:17Z</time>
      </trkpt>
      <trkpt lat="38.2936630" lon="-0.5845620">
        <ele>68.5</ele>
        <time>2019-10-19T09:52:18Z</time>
      </trkpt>
      <trkpt lat="38.2937860" lon="-0.5846030">
        <ele>68.3</ele>
        <time>2019-10-19T09:52:19Z</time>
      </trkpt>
      <trkpt lat="38.2938160" lon="-0.5846120">
        <ele>68.2</ele>
        <time>2019-10-19T09:52:20Z</time>
      </trkpt>
      <trkpt lat="38.2938460" lon="-0.5846220">
        <ele>68.2</ele>
        <time>2019-10-19T09:52:21Z</time>
      </trkpt>
      <trkpt lat="38.2939710" lon="-0.5846650">
        <ele>68.2</ele>
        <time>2019-10-19T09:52:22Z</time>
      </trkpt>
      <trkpt lat="38.2940330" lon="-0.5846880">
        <ele>68.2</ele>
        <time>2019-10-19T09:52:23Z</time>
      </trkpt>
      <trkpt lat="38.2940970" lon="-0.5847130">
        <ele>68.1</ele>
        <time>2019-10-19T09:52:24Z</time>
      </trkpt>
      <trkpt lat="38.2941600" lon="-0.5847410">
        <ele>67.9</ele>
        <time>2019-10-19T09:52:25Z</time>
      </trkpt>
      <trkpt lat="38.2942210" lon="-0.5847620">
        <ele>67.9</ele>
        <time>2019-10-19T09:52:26Z</time>
      </trkpt>
      <trkpt lat="38.2942520" lon="-0.5847640">
        <ele>67.8</ele>
        <time>2019-10-19T09:52:27Z</time>
      </trkpt>
      <trkpt lat="38.2942830" lon="-0.5847670">
        <ele>67.8</ele>
        <time>2019-10-19T09:52:28Z</time>
      </trkpt>
      <trkpt lat="38.2943400" lon="-0.5847400">
        <ele>67.7</ele>
        <time>2019-10-19T09:52:29Z</time>
      </trkpt>
      <trkpt lat="38.2943890" lon="-0.5846950">
        <ele>67.6</ele>
        <time>2019-10-19T09:52:30Z</time>
      </trkpt>
      <trkpt lat="38.2944630" lon="-0.5845670">
        <ele>67.1</ele>
        <time>2019-10-19T09:52:31Z</time>
      </trkpt>
      <trkpt lat="38.2944980" lon="-0.5844950">
        <ele>66.9</ele>
        <time>2019-10-19T09:52:32Z</time>
      </trkpt>
      <trkpt lat="38.2945310" lon="-0.5844200">
        <ele>66.7</ele>
        <time>2019-10-19T09:52:33Z</time>
      </trkpt>
      <trkpt lat="38.2945640" lon="-0.5843480">
        <ele>66.5</ele>
        <time>2019-10-19T09:52:34Z</time>
      </trkpt>
      <trkpt lat="38.2945890" lon="-0.5842900">
        <ele>66.3</ele>
        <time>2019-10-19T09:52:35Z</time>
      </trkpt>
      <trkpt lat="38.2946140" lon="-0.5842320">
        <ele>66.1</ele>
        <time>2019-10-19T09:52:36Z</time>
      </trkpt>
      <trkpt lat="38.2946630" lon="-0.5841160">
        <ele>65.8</ele>
        <time>2019-10-19T09:52:37Z</time>
      </trkpt>
      <trkpt lat="38.2946790" lon="-0.5840760">
        <ele>65.7</ele>
        <time>2019-10-19T09:52:38Z</time>
      </trkpt>
      <trkpt lat="38.2946940" lon="-0.5840350">
        <ele>65.7</ele>
        <time>2019-10-19T09:52:39Z</time>
      </trkpt>
      <trkpt lat="38.2947280" lon="-0.5839560">
        <ele>65.6</ele>
        <time>2019-10-19T09:52:40Z</time>
      </trkpt>
      <trkpt lat="38.2948020" lon="-0.5838000">
        <ele>65.4</ele>
        <time>2019-10-19T09:52:41Z</time>
      </trkpt>
      <trkpt lat="38.2948330" lon="-0.5837410">
        <ele>65.3</ele>
        <time>2019-10-19T09:52:42Z</time>
      </trkpt>
      <trkpt lat="38.2948630" lon="-0.5836820">
        <ele>65.2</ele>
        <time>2019-10-19T09:52:43Z</time>
      </trkpt>
      <trkpt lat="38.2949240" lon="-0.5835630">
        <ele>65.1</ele>
        <time>2019-10-19T09:52:44Z</time>
      </trkpt>
      <trkpt lat="38.2949430" lon="-0.5835220">
        <ele>65.1</ele>
        <time>2019-10-19T09:52:45Z</time>
      </trkpt>
      <trkpt lat="38.2949620" lon="-0.5834800">
        <ele>65.1</ele>
        <time>2019-10-19T09:52:46Z</time>
      </trkpt>
      <trkpt lat="38.2950340" lon="-0.5833160">
        <ele>65.1</ele>
        <time>2019-10-19T09:52:47Z</time>
      </trkpt>
      <trkpt lat="38.2950620" lon="-0.5832560">
        <ele>65.1</ele>
        <time>2019-10-19T09:52:48Z</time>
      </trkpt>
      <trkpt lat="38.2950900" lon="-0.5831950">
        <ele>65.1</ele>
        <time>2019-10-19T09:52:49Z</time>
      </trkpt>
      <trkpt lat="38.2951450" lon="-0.5830730">
        <ele>65.1</ele>
        <time>2019-10-19T09:52:50Z</time>
      </trkpt>
      <trkpt lat="38.2951680" lon="-0.5830360">
        <ele>65.1</ele>
        <time>2019-10-19T09:52:51Z</time>
      </trkpt>
      <trkpt lat="38.2951910" lon="-0.5829980">
        <ele>65.1</ele>
        <time>2019-10-19T09:52:52Z</time>
      </trkpt>
      <trkpt lat="38.2952570" lon="-0.5828830">
        <ele>65.1</ele>
        <time>2019-10-19T09:52:53Z</time>
      </trkpt>
      <trkpt lat="38.2952780" lon="-0.5828440">
        <ele>65.1</ele>
        <time>2019-10-19T09:52:54Z</time>
      </trkpt>
      <trkpt lat="38.2953540" lon="-0.5826830">
        <ele>65.1</ele>
        <time>2019-10-19T09:52:55Z</time>
      </trkpt>
      <trkpt lat="38.2953910" lon="-0.5826010">
        <ele>65.1</ele>
        <time>2019-10-19T09:52:56Z</time>
      </trkpt>
      <trkpt lat="38.2954100" lon="-0.5825600">
        <ele>65.1</ele>
        <time>2019-10-19T09:52:57Z</time>
      </trkpt>
      <trkpt lat="38.2954290" lon="-0.5825180">
        <ele>65.1</ele>
        <time>2019-10-19T09:52:58Z</time>
      </trkpt>
      <trkpt lat="38.2955080" lon="-0.5823490">
        <ele>65.1</ele>
        <time>2019-10-19T09:52:59Z</time>
      </trkpt>
      <trkpt lat="38.2955270" lon="-0.5823070">
        <ele>65.1</ele>
        <time>2019-10-19T09:53:00Z</time>
      </trkpt>
      <trkpt lat="38.2955450" lon="-0.5822650">
        <ele>65.1</ele>
        <time>2019-10-19T09:53:01Z</time>
      </trkpt>
      <trkpt lat="38.2956220" lon="-0.5820970">
        <ele>65.1</ele>
        <time>2019-10-19T09:53:02Z</time>
      </trkpt>
      <trkpt lat="38.2956410" lon="-0.5820550">
        <ele>65.1</ele>
        <time>2019-10-19T09:53:03Z</time>
      </trkpt>
      <trkpt lat="38.2956600" lon="-0.5820120">
        <ele>65.2</ele>
        <time>2019-10-19T09:53:04Z</time>
      </trkpt>
      <trkpt lat="38.2957340" lon="-0.5818430">
        <ele>65.2</ele>
        <time>2019-10-19T09:53:05Z</time>
      </trkpt>
      <trkpt lat="38.2957700" lon="-0.5817570">
        <ele>65.2</ele>
        <time>2019-10-19T09:53:06Z</time>
      </trkpt>
      <trkpt lat="38.2957890" lon="-0.5817140">
        <ele>65.2</ele>
        <time>2019-10-19T09:53:07Z</time>
      </trkpt>
      <trkpt lat="38.2958070" lon="-0.5816710">
        <ele>65.2</ele>
        <time>2019-10-19T09:53:08Z</time>
      </trkpt>
      <trkpt lat="38.2958460" lon="-0.5815850">
        <ele>65.2</ele>
        <time>2019-10-19T09:53:09Z</time>
      </trkpt>
      <trkpt lat="38.2959240" lon="-0.5814090">
        <ele>65.2</ele>
        <time>2019-10-19T09:53:10Z</time>
      </trkpt>
      <trkpt lat="38.2959440" lon="-0.5813650">
        <ele>65.2</ele>
        <time>2019-10-19T09:53:11Z</time>
      </trkpt>
      <trkpt lat="38.2959640" lon="-0.5813200">
        <ele>65.2</ele>
        <time>2019-10-19T09:53:12Z</time>
      </trkpt>
      <trkpt lat="38.2960420" lon="-0.5811400">
        <ele>65.2</ele>
        <time>2019-10-19T09:53:13Z</time>
      </trkpt>
      <trkpt lat="38.2960620" lon="-0.5810950">
        <ele>65.2</ele>
        <time>2019-10-19T09:53:14Z</time>
      </trkpt>
      <trkpt lat="38.2960820" lon="-0.5810500">
        <ele>65.2</ele>
        <time>2019-10-19T09:53:15Z</time>
      </trkpt>
      <trkpt lat="38.2961220" lon="-0.5809600">
        <ele>65.2</ele>
        <time>2019-10-19T09:53:16Z</time>
      </trkpt>
      <trkpt lat="38.2962000" lon="-0.5807810">
        <ele>65.2</ele>
        <time>2019-10-19T09:53:17Z</time>
      </trkpt>
      <trkpt lat="38.2962200" lon="-0.5807360">
        <ele>65.2</ele>
        <time>2019-10-19T09:53:18Z</time>
      </trkpt>
      <trkpt lat="38.2962390" lon="-0.5806910">
        <ele>65.3</ele>
        <time>2019-10-19T09:53:19Z</time>
      </trkpt>
      <trkpt lat="38.2962780" lon="-0.5806020">
        <ele>65.3</ele>
        <time>2019-10-19T09:53:20Z</time>
      </trkpt>
      <trkpt lat="38.2963170" lon="-0.5805130">
        <ele>65.3</ele>
        <time>2019-10-19T09:53:21Z</time>
      </trkpt>
      <trkpt lat="38.2963950" lon="-0.5803350">
        <ele>65.6</ele>
        <time>2019-10-19T09:53:22Z</time>
      </trkpt>
      <trkpt lat="38.2964350" lon="-0.5802470">
        <ele>65.8</ele>
        <time>2019-10-19T09:53:23Z</time>
      </trkpt>
      <trkpt lat="38.2964560" lon="-0.5802040">
        <ele>65.9</ele>
        <time>2019-10-19T09:53:24Z</time>
      </trkpt>
      <trkpt lat="38.2964770" lon="-0.5801600">
        <ele>66.0</ele>
        <time>2019-10-19T09:53:25Z</time>
      </trkpt>
      <trkpt lat="38.2965170" lon="-0.5800710">
        <ele>66.1</ele>
        <time>2019-10-19T09:53:26Z</time>
      </trkpt>
      <trkpt lat="38.2965960" lon="-0.5798920">
        <ele>66.3</ele>
        <time>2019-10-19T09:53:27Z</time>
      </trkpt>
      <trkpt lat="38.2966160" lon="-0.5798480">
        <ele>66.3</ele>
        <time>2019-10-19T09:53:28Z</time>
      </trkpt>
      <trkpt lat="38.2966350" lon="-0.5798030">
        <ele>66.3</ele>
        <time>2019-10-19T09:53:29Z</time>
      </trkpt>
      <trkpt lat="38.2966950" lon="-0.5796700">
        <ele>66.3</ele>
        <time>2019-10-19T09:53:30Z</time>
      </trkpt>
      <trkpt lat="38.2967150" lon="-0.5796270">
        <ele>66.3</ele>
        <time>2019-10-19T09:53:31Z</time>
      </trkpt>
      <trkpt lat="38.2967750" lon="-0.5794990">
        <ele>66.3</ele>
        <time>2019-10-19T09:53:32Z</time>
      </trkpt>
      <trkpt lat="38.2967950" lon="-0.5794570">
        <ele>66.3</ele>
        <time>2019-10-19T09:53:33Z</time>
      </trkpt>
      <trkpt lat="38.2968710" lon="-0.5792870">
        <ele>66.3</ele>
        <time>2019-10-19T09:53:34Z</time>
      </trkpt>
      <trkpt lat="38.2968900" lon="-0.5792450">
        <ele>66.3</ele>
        <time>2019-10-19T09:53:35Z</time>
      </trkpt>
      <trkpt lat="38.2969090" lon="-0.5792020">
        <ele>66.3</ele>
        <time>2019-10-19T09:53:36Z</time>
      </trkpt>
      <trkpt lat="38.2969830" lon="-0.5790370">
        <ele>66.3</ele>
        <time>2019-10-19T09:53:37Z</time>
      </trkpt>
      <trkpt lat="38.2970010" lon="-0.5789960">
        <ele>66.3</ele>
        <time>2019-10-19T09:53:38Z</time>
      </trkpt>
      <trkpt lat="38.2970180" lon="-0.5789540">
        <ele>66.4</ele>
        <time>2019-10-19T09:53:39Z</time>
      </trkpt>
      <trkpt lat="38.2970710" lon="-0.5788030">
        <ele>66.4</ele>
        <time>2019-10-19T09:53:40Z</time>
      </trkpt>
      <trkpt lat="38.2970890" lon="-0.5787350">
        <ele>66.4</ele>
        <time>2019-10-19T09:53:41Z</time>
      </trkpt>
      <trkpt lat="38.2971250" lon="-0.5786000">
        <ele>66.8</ele>
        <time>2019-10-19T09:53:42Z</time>
      </trkpt>
      <trkpt lat="38.2971300" lon="-0.5785020">
        <ele>67.1</ele>
        <time>2019-10-19T09:53:43Z</time>
      </trkpt>
      <trkpt lat="38.2971230" lon="-0.5784550">
        <ele>67.1</ele>
        <time>2019-10-19T09:53:44Z</time>
      </trkpt>
      <trkpt lat="38.2971150" lon="-0.5784090">
        <ele>67.1</ele>
        <time>2019-10-19T09:53:45Z</time>
      </trkpt>
      <trkpt lat="38.2970660" lon="-0.5782270">
        <ele>66.5</ele>
        <time>2019-10-19T09:53:46Z</time>
      </trkpt>
      <trkpt lat="38.2970500" lon="-0.5781810">
        <ele>66.4</ele>
        <time>2019-10-19T09:53:47Z</time>
      </trkpt>
      <trkpt lat="38.2970340" lon="-0.5781350">
        <ele>66.2</ele>
        <time>2019-10-19T09:53:48Z</time>
      </trkpt>
      <trkpt lat="38.2969880" lon="-0.5779360">
        <ele>65.8</ele>
        <time>2019-10-19T09:53:49Z</time>
      </trkpt>
      <trkpt lat="38.2969820" lon="-0.5778830">
        <ele>65.7</ele>
        <time>2019-10-19T09:53:50Z</time>
      </trkpt>
      <trkpt lat="38.2969750" lon="-0.5778300">
        <ele>65.6</ele>
        <time>2019-10-19T09:53:51Z</time>
      </trkpt>
      <trkpt lat="38.2969740" lon="-0.5776150">
        <ele>65.3</ele>
        <time>2019-10-19T09:53:52Z</time>
      </trkpt>
      <trkpt lat="38.2969860" lon="-0.5775080">
        <ele>65.4</ele>
        <time>2019-10-19T09:53:53Z</time>
      </trkpt>
      <trkpt lat="38.2970050" lon="-0.5774020">
        <ele>65.5</ele>
        <time>2019-10-19T09:53:54Z</time>
      </trkpt>
      <trkpt lat="38.2970180" lon="-0.5773510">
        <ele>65.5</ele>
        <time>2019-10-19T09:53:55Z</time>
      </trkpt>
      <trkpt lat="38.2970310" lon="-0.5772990">
        <ele>65.6</ele>
        <time>2019-10-19T09:53:56Z</time>
      </trkpt>
      <trkpt lat="38.2971090" lon="-0.5771060">
        <ele>65.8</ele>
        <time>2019-10-19T09:53:57Z</time>
      </trkpt>
      <trkpt lat="38.2971340" lon="-0.5770630">
        <ele>65.9</ele>
        <time>2019-10-19T09:53:58Z</time>
      </trkpt>
      <trkpt lat="38.2971580" lon="-0.5770200">
        <ele>66.1</ele>
        <time>2019-10-19T09:53:59Z</time>
      </trkpt>
      <trkpt lat="38.2972120" lon="-0.5769390">
        <ele>66.4</ele>
        <time>2019-10-19T09:54:00Z</time>
      </trkpt>
      <trkpt lat="38.2973340" lon="-0.5768010">
        <ele>67.1</ele>
        <time>2019-10-19T09:54:01Z</time>
      </trkpt>
      <trkpt lat="38.2974020" lon="-0.5767470">
        <ele>67.4</ele>
        <time>2019-10-19T09:54:02Z</time>
      </trkpt>
      <trkpt lat="38.2974380" lon="-0.5767260">
        <ele>67.7</ele>
        <time>2019-10-19T09:54:03Z</time>
      </trkpt>
      <trkpt lat="38.2974730" lon="-0.5767040">
        <ele>67.9</ele>
        <time>2019-10-19T09:54:04Z</time>
      </trkpt>
      <trkpt lat="38.2975450" lon="-0.5766680">
        <ele>68.2</ele>
        <time>2019-10-19T09:54:05Z</time>
      </trkpt>
      <trkpt lat="38.2976170" lon="-0.5766360">
        <ele>68.5</ele>
        <time>2019-10-19T09:54:06Z</time>
      </trkpt>
      <trkpt lat="38.2976910" lon="-0.5766120">
        <ele>68.8</ele>
        <time>2019-10-19T09:54:07Z</time>
      </trkpt>
      <trkpt lat="38.2977670" lon="-0.5765960">
        <ele>69.1</ele>
        <time>2019-10-19T09:54:08Z</time>
      </trkpt>
      <trkpt lat="38.2979180" lon="-0.5765900">
        <ele>69.8</ele>
        <time>2019-10-19T09:54:09Z</time>
      </trkpt>
      <trkpt lat="38.2979940" lon="-0.5766000">
        <ele>70.2</ele>
        <time>2019-10-19T09:54:10Z</time>
      </trkpt>
      <trkpt lat="38.2980310" lon="-0.5766100">
        <ele>70.4</ele>
        <time>2019-10-19T09:54:11Z</time>
      </trkpt>
      <trkpt lat="38.2980670" lon="-0.5766210">
        <ele>70.5</ele>
        <time>2019-10-19T09:54:12Z</time>
      </trkpt>
      <trkpt lat="38.2982050" lon="-0.5766890">
        <ele>71.1</ele>
        <time>2019-10-19T09:54:13Z</time>
      </trkpt>
      <trkpt lat="38.2982690" lon="-0.5767340">
        <ele>71.3</ele>
        <time>2019-10-19T09:54:14Z</time>
      </trkpt>
      <trkpt lat="38.2983110" lon="-0.5767760">
        <ele>71.5</ele>
        <time>2019-10-19T09:54:15Z</time>
      </trkpt>
      <trkpt lat="38.2983530" lon="-0.5768190">
        <ele>71.7</ele>
        <time>2019-10-19T09:54:16Z</time>
      </trkpt>
      <trkpt lat="38.2984370" lon="-0.5769050">
        <ele>72.3</ele>
        <time>2019-10-19T09:54:17Z</time>
      </trkpt>
      <trkpt lat="38.2984610" lon="-0.5769390">
        <ele>72.5</ele>
        <time>2019-10-19T09:54:18Z</time>
      </trkpt>
      <trkpt lat="38.2984840" lon="-0.5769740">
        <ele>72.7</ele>
        <time>2019-10-19T09:54:19Z</time>
      </trkpt>
      <trkpt lat="38.2985580" lon="-0.5771030">
        <ele>73.2</ele>
        <time>2019-10-19T09:54:20Z</time>
      </trkpt>
      <trkpt lat="38.2985850" lon="-0.5771630">
        <ele>73.5</ele>
        <time>2019-10-19T09:54:21Z</time>
      </trkpt>
      <trkpt lat="38.2986380" lon="-0.5772830">
        <ele>73.8</ele>
        <time>2019-10-19T09:54:22Z</time>
      </trkpt>
      <trkpt lat="38.2986490" lon="-0.5773260">
        <ele>73.7</ele>
        <time>2019-10-19T09:54:23Z</time>
      </trkpt>
      <trkpt lat="38.2986600" lon="-0.5773700">
        <ele>73.7</ele>
        <time>2019-10-19T09:54:24Z</time>
      </trkpt>
      <trkpt lat="38.2986860" lon="-0.5775520">
        <ele>74.0</ele>
        <time>2019-10-19T09:54:25Z</time>
      </trkpt>
      <trkpt lat="38.2986910" lon="-0.5776440">
        <ele>74.2</ele>
        <time>2019-10-19T09:54:26Z</time>
      </trkpt>
      <trkpt lat="38.2986940" lon="-0.5777370">
        <ele>74.3</ele>
        <time>2019-10-19T09:54:27Z</time>
      </trkpt>
      <trkpt lat="38.2986930" lon="-0.5778290">
        <ele>74.2</ele>
        <time>2019-10-19T09:54:28Z</time>
      </trkpt>
      <trkpt lat="38.2986930" lon="-0.5778760">
        <ele>74.1</ele>
        <time>2019-10-19T09:54:29Z</time>
      </trkpt>
      <trkpt lat="38.2986930" lon="-0.5779220">
        <ele>74.1</ele>
        <time>2019-10-19T09:54:30Z</time>
      </trkpt>
      <trkpt lat="38.2986970" lon="-0.5780150">
        <ele>74.1</ele>
        <time>2019-10-19T09:54:31Z</time>
      </trkpt>
      <trkpt lat="38.2987170" lon="-0.5781960">
        <ele>74.1</ele>
        <time>2019-10-19T09:54:32Z</time>
      </trkpt>
      <trkpt lat="38.2987330" lon="-0.5782860">
        <ele>74.1</ele>
        <time>2019-10-19T09:54:33Z</time>
      </trkpt>
      <trkpt lat="38.2987440" lon="-0.5783310">
        <ele>74.1</ele>
        <time>2019-10-19T09:54:34Z</time>
      </trkpt>
      <trkpt lat="38.2987550" lon="-0.5783770">
        <ele>74.1</ele>
        <time>2019-10-19T09:54:35Z</time>
      </trkpt>
      <trkpt lat="38.2987790" lon="-0.5784670">
        <ele>74.1</ele>
        <time>2019-10-19T09:54:36Z</time>
      </trkpt>
      <trkpt lat="38.2988310" lon="-0.5786450">
        <ele>74.3</ele>
        <time>2019-10-19T09:54:37Z</time>
      </trkpt>
      <trkpt lat="38.2988460" lon="-0.5786870">
        <ele>74.4</ele>
        <time>2019-10-19T09:54:38Z</time>
      </trkpt>
      <trkpt lat="38.2988600" lon="-0.5787300">
        <ele>74.5</ele>
        <time>2019-10-19T09:54:39Z</time>
      </trkpt>
      <trkpt lat="38.2988910" lon="-0.5788140">
        <ele>74.8</ele>
        <time>2019-10-19T09:54:40Z</time>
      </trkpt>
      <trkpt lat="38.2989210" lon="-0.5788990">
        <ele>75.0</ele>
        <time>2019-10-19T09:54:41Z</time>
      </trkpt>
      <trkpt lat="38.2989540" lon="-0.5789800">
        <ele>75.3</ele>
        <time>2019-10-19T09:54:42Z</time>
      </trkpt>
      <trkpt lat="38.2990200" lon="-0.5791380">
        <ele>75.9</ele>
        <time>2019-10-19T09:54:43Z</time>
      </trkpt>
      <trkpt lat="38.2990360" lon="-0.5791760">
        <ele>76.1</ele>
        <time>2019-10-19T09:54:44Z</time>
      </trkpt>
      <trkpt lat="38.2990520" lon="-0.5792150">
        <ele>76.2</ele>
        <time>2019-10-19T09:54:45Z</time>
      </trkpt>
      <trkpt lat="38.2990850" lon="-0.5792900">
        <ele>76.5</ele>
        <time>2019-10-19T09:54:46Z</time>
      </trkpt>
      <trkpt lat="38.2991600" lon="-0.5794300">
        <ele>77.1</ele>
        <time>2019-10-19T09:54:47Z</time>
      </trkpt>
      <trkpt lat="38.2991810" lon="-0.5794630">
        <ele>77.2</ele>
        <time>2019-10-19T09:54:48Z</time>
      </trkpt>
      <trkpt lat="38.2992010" lon="-0.5794960">
        <ele>77.4</ele>
        <time>2019-10-19T09:54:49Z</time>
      </trkpt>
      <trkpt lat="38.2993010" lon="-0.5796140">
        <ele>77.9</ele>
        <time>2019-10-19T09:54:50Z</time>
      </trkpt>
      <trkpt lat="38.2993380" lon="-0.5796590">
        <ele>78.1</ele>
        <time>2019-10-19T09:54:51Z</time>
      </trkpt>
      <trkpt lat="38.2993740" lon="-0.5797050">
        <ele>78.3</ele>
        <time>2019-10-19T09:54:52Z</time>
      </trkpt>
      <trkpt lat="38.2994460" lon="-0.5797970">
        <ele>78.7</ele>
        <time>2019-10-19T09:54:53Z</time>
      </trkpt>
      <trkpt lat="38.2994680" lon="-0.5798310">
        <ele>78.7</ele>
        <time>2019-10-19T09:54:54Z</time>
      </trkpt>
      <trkpt lat="38.2994890" lon="-0.5798650">
        <ele>78.8</ele>
        <time>2019-10-19T09:54:55Z</time>
      </trkpt>
      <trkpt lat="38.2995670" lon="-0.5799930">
        <ele>79.0</ele>
        <time>2019-10-19T09:54:56Z</time>
      </trkpt>
      <trkpt lat="38.2995850" lon="-0.5800230">
        <ele>79.0</ele>
        <time>2019-10-19T09:54:57Z</time>
      </trkpt>
      <trkpt lat="38.2996030" lon="-0.5800530">
        <ele>79.1</ele>
        <time>2019-10-19T09:54:58Z</time>
      </trkpt>
      <trkpt lat="38.2996560" lon="-0.5801430">
        <ele>79.2</ele>
        <time>2019-10-19T09:54:59Z</time>
      </trkpt>
      <trkpt lat="38.2996730" lon="-0.5801730">
        <ele>79.2</ele>
        <time>2019-10-19T09:55:00Z</time>
      </trkpt>
      <trkpt lat="38.2997390" lon="-0.5802920">
        <ele>79.8</ele>
        <time>2019-10-19T09:55:01Z</time>
      </trkpt>
      <trkpt lat="38.2997720" lon="-0.5803510">
        <ele>80.3</ele>
        <time>2019-10-19T09:55:02Z</time>
      </trkpt>
      <trkpt lat="38.2998040" lon="-0.5804110">
        <ele>80.8</ele>
        <time>2019-10-19T09:55:03Z</time>
      </trkpt>
      <trkpt lat="38.2998360" lon="-0.5804720">
        <ele>81.3</ele>
        <time>2019-10-19T09:55:04Z</time>
      </trkpt>
      <trkpt lat="38.2998520" lon="-0.5805020">
        <ele>81.5</ele>
        <time>2019-10-19T09:55:05Z</time>
      </trkpt>
      <trkpt lat="38.2998670" lon="-0.5805330">
        <ele>81.6</ele>
        <time>2019-10-19T09:55:06Z</time>
      </trkpt>
      <trkpt lat="38.2999280" lon="-0.5806560">
        <ele>82.1</ele>
        <time>2019-10-19T09:55:07Z</time>
      </trkpt>
      <trkpt lat="38.2999440" lon="-0.5806860">
        <ele>82.2</ele>
        <time>2019-10-19T09:55:08Z</time>
      </trkpt>
      <trkpt lat="38.2999600" lon="-0.5807170">
        <ele>82.3</ele>
        <time>2019-10-19T09:55:09Z</time>
      </trkpt>
      <trkpt lat="38.3000190" lon="-0.5808400">
        <ele>82.7</ele>
        <time>2019-10-19T09:55:10Z</time>
      </trkpt>
      <trkpt lat="38.3000480" lon="-0.5809040">
        <ele>83.0</ele>
        <time>2019-10-19T09:55:11Z</time>
      </trkpt>
      <trkpt lat="38.3000620" lon="-0.5809350">
        <ele>83.2</ele>
        <time>2019-10-19T09:55:12Z</time>
      </trkpt>
      <trkpt lat="38.3000760" lon="-0.5809660">
        <ele>83.4</ele>
        <time>2019-10-19T09:55:13Z</time>
      </trkpt>
      <trkpt lat="38.3001290" lon="-0.5810910">
        <ele>84.1</ele>
        <time>2019-10-19T09:55:14Z</time>
      </trkpt>
      <trkpt lat="38.3001420" lon="-0.5811220">
        <ele>84.2</ele>
        <time>2019-10-19T09:55:15Z</time>
      </trkpt>
      <trkpt lat="38.3001540" lon="-0.5811540">
        <ele>84.3</ele>
        <time>2019-10-19T09:55:16Z</time>
      </trkpt>
      <trkpt lat="38.3002050" lon="-0.5812810">
        <ele>84.7</ele>
        <time>2019-10-19T09:55:17Z</time>
      </trkpt>
      <trkpt lat="38.3002230" lon="-0.5813290">
        <ele>84.8</ele>
        <time>2019-10-19T09:55:18Z</time>
      </trkpt>
      <trkpt lat="38.3002400" lon="-0.5813780">
        <ele>84.9</ele>
        <time>2019-10-19T09:55:19Z</time>
      </trkpt>
      <trkpt lat="38.3002750" lon="-0.5814760">
        <ele>85.0</ele>
        <time>2019-10-19T09:55:20Z</time>
      </trkpt>
      <trkpt lat="38.3002960" lon="-0.5815440">
        <ele>85.0</ele>
        <time>2019-10-19T09:55:21Z</time>
      </trkpt>
      <trkpt lat="38.3003170" lon="-0.5816120">
        <ele>85.0</ele>
        <time>2019-10-19T09:55:22Z</time>
      </trkpt>
      <trkpt lat="38.3003370" lon="-0.5816810">
        <ele>85.0</ele>
        <time>2019-10-19T09:55:23Z</time>
      </trkpt>
      <trkpt lat="38.3003580" lon="-0.5817500">
        <ele>85.0</ele>
        <time>2019-10-19T09:55:24Z</time>
      </trkpt>
      <trkpt lat="38.3003730" lon="-0.5818020">
        <ele>85.1</ele>
        <time>2019-10-19T09:55:25Z</time>
      </trkpt>
      <trkpt lat="38.3003880" lon="-0.5818550">
        <ele>85.1</ele>
        <time>2019-10-19T09:55:26Z</time>
      </trkpt>
      <trkpt lat="38.3004180" lon="-0.5819600">
        <ele>85.3</ele>
        <time>2019-10-19T09:55:27Z</time>
      </trkpt>
      <trkpt lat="38.3004380" lon="-0.5820310">
        <ele>85.4</ele>
        <time>2019-10-19T09:55:28Z</time>
      </trkpt>
      <trkpt lat="38.3004520" lon="-0.5820840">
        <ele>85.5</ele>
        <time>2019-10-19T09:55:29Z</time>
      </trkpt>
      <trkpt lat="38.3004660" lon="-0.5821370">
        <ele>85.6</ele>
        <time>2019-10-19T09:55:30Z</time>
      </trkpt>
      <trkpt lat="38.3004940" lon="-0.5822430">
        <ele>85.8</ele>
        <time>2019-10-19T09:55:31Z</time>
      </trkpt>
      <trkpt lat="38.3005120" lon="-0.5823150">
        <ele>86.0</ele>
        <time>2019-10-19T09:55:32Z</time>
      </trkpt>
      <trkpt lat="38.3005280" lon="-0.5823880">
        <ele>86.1</ele>
        <time>2019-10-19T09:55:33Z</time>
      </trkpt>
      <trkpt lat="38.3005410" lon="-0.5824410">
        <ele>86.2</ele>
        <time>2019-10-19T09:55:34Z</time>
      </trkpt>
      <trkpt lat="38.3005540" lon="-0.5824950">
        <ele>86.3</ele>
        <time>2019-10-19T09:55:35Z</time>
      </trkpt>
      <trkpt lat="38.3005790" lon="-0.5826030">
        <ele>86.5</ele>
        <time>2019-10-19T09:55:36Z</time>
      </trkpt>
      <trkpt lat="38.3005880" lon="-0.5826380">
        <ele>86.6</ele>
        <time>2019-10-19T09:55:37Z</time>
      </trkpt>
      <trkpt lat="38.3005960" lon="-0.5826740">
        <ele>86.7</ele>
        <time>2019-10-19T09:55:38Z</time>
      </trkpt>
      <trkpt lat="38.3006260" lon="-0.5828020">
        <ele>86.9</ele>
        <time>2019-10-19T09:55:39Z</time>
      </trkpt>
      <trkpt lat="38.3006380" lon="-0.5828590">
        <ele>87.0</ele>
        <time>2019-10-19T09:55:40Z</time>
      </trkpt>
      <trkpt lat="38.3006620" lon="-0.5829730">
        <ele>87.1</ele>
        <time>2019-10-19T09:55:41Z</time>
      </trkpt>
      <trkpt lat="38.3006720" lon="-0.5830110">
        <ele>87.2</ele>
        <time>2019-10-19T09:55:42Z</time>
      </trkpt>
      <trkpt lat="38.3006810" lon="-0.5830490">
        <ele>87.3</ele>
        <time>2019-10-19T09:55:43Z</time>
      </trkpt>
      <trkpt lat="38.3007180" lon="-0.5832040">
        <ele>87.6</ele>
        <time>2019-10-19T09:55:44Z</time>
      </trkpt>
      <trkpt lat="38.3007340" lon="-0.5832810">
        <ele>87.7</ele>
        <time>2019-10-19T09:55:45Z</time>
      </trkpt>
      <trkpt lat="38.3007420" lon="-0.5833190">
        <ele>87.8</ele>
        <time>2019-10-19T09:55:46Z</time>
      </trkpt>
      <trkpt lat="38.3007500" lon="-0.5833570">
        <ele>87.8</ele>
        <time>2019-10-19T09:55:47Z</time>
      </trkpt>
      <trkpt lat="38.3007730" lon="-0.5834730">
        <ele>87.9</ele>
        <time>2019-10-19T09:55:48Z</time>
      </trkpt>
      <trkpt lat="38.3007800" lon="-0.5835120">
        <ele>87.9</ele>
        <time>2019-10-19T09:55:49Z</time>
      </trkpt>
      <trkpt lat="38.3007960" lon="-0.5835900">
        <ele>88.0</ele>
        <time>2019-10-19T09:55:50Z</time>
      </trkpt>
      <trkpt lat="38.3008140" lon="-0.5836680">
        <ele>88.0</ele>
        <time>2019-10-19T09:55:51Z</time>
      </trkpt>
      <trkpt lat="38.3008520" lon="-0.5838240">
        <ele>88.0</ele>
        <time>2019-10-19T09:55:52Z</time>
      </trkpt>
      <trkpt lat="38.3008610" lon="-0.5838640">
        <ele>88.0</ele>
        <time>2019-10-19T09:55:53Z</time>
      </trkpt>
      <trkpt lat="38.3008700" lon="-0.5839040">
        <ele>88.0</ele>
        <time>2019-10-19T09:55:54Z</time>
      </trkpt>
      <trkpt lat="38.3008980" lon="-0.5840250">
        <ele>88.0</ele>
        <time>2019-10-19T09:55:55Z</time>
      </trkpt>
      <trkpt lat="38.3009070" lon="-0.5840660">
        <ele>88.0</ele>
        <time>2019-10-19T09:55:56Z</time>
      </trkpt>
      <trkpt lat="38.3009260" lon="-0.5841480">
        <ele>88.0</ele>
        <time>2019-10-19T09:55:57Z</time>
      </trkpt>
      <trkpt lat="38.3009440" lon="-0.5842310">
        <ele>88.0</ele>
        <time>2019-10-19T09:55:58Z</time>
      </trkpt>
      <trkpt lat="38.3009620" lon="-0.5843150">
        <ele>88.0</ele>
        <time>2019-10-19T09:55:59Z</time>
      </trkpt>
      <trkpt lat="38.3009800" lon="-0.5843990">
        <ele>88.0</ele>
        <time>2019-10-19T09:56:00Z</time>
      </trkpt>
      <trkpt lat="38.3010000" lon="-0.5844840">
        <ele>88.0</ele>
        <time>2019-10-19T09:56:01Z</time>
      </trkpt>
      <trkpt lat="38.3010180" lon="-0.5845690">
        <ele>88.1</ele>
        <time>2019-10-19T09:56:02Z</time>
      </trkpt>
      <trkpt lat="38.3010370" lon="-0.5846540">
        <ele>88.2</ele>
        <time>2019-10-19T09:56:03Z</time>
      </trkpt>
      <trkpt lat="38.3010550" lon="-0.5847400">
        <ele>88.3</ele>
        <time>2019-10-19T09:56:04Z</time>
      </trkpt>
      <trkpt lat="38.3010740" lon="-0.5848250">
        <ele>88.5</ele>
        <time>2019-10-19T09:56:05Z</time>
      </trkpt>
      <trkpt lat="38.3010940" lon="-0.5849110">
        <ele>88.6</ele>
        <time>2019-10-19T09:56:06Z</time>
      </trkpt>
      <trkpt lat="38.3011130" lon="-0.5849980">
        <ele>88.8</ele>
        <time>2019-10-19T09:56:07Z</time>
      </trkpt>
      <trkpt lat="38.3011320" lon="-0.5850850">
        <ele>88.8</ele>
        <time>2019-10-19T09:56:08Z</time>
      </trkpt>
      <trkpt lat="38.3011500" lon="-0.5851730">
        <ele>88.9</ele>
        <time>2019-10-19T09:56:09Z</time>
      </trkpt>
      <trkpt lat="38.3011890" lon="-0.5853500">
        <ele>88.9</ele>
        <time>2019-10-19T09:56:10Z</time>
      </trkpt>
      <trkpt lat="38.3011990" lon="-0.5853950">
        <ele>89.0</ele>
        <time>2019-10-19T09:56:11Z</time>
      </trkpt>
      <trkpt lat="38.3012080" lon="-0.5854400">
        <ele>89.0</ele>
        <time>2019-10-19T09:56:12Z</time>
      </trkpt>
      <trkpt lat="38.3012480" lon="-0.5856220">
        <ele>89.0</ele>
        <time>2019-10-19T09:56:13Z</time>
      </trkpt>
      <trkpt lat="38.3012580" lon="-0.5856670">
        <ele>89.0</ele>
        <time>2019-10-19T09:56:14Z</time>
      </trkpt>
      <trkpt lat="38.3012670" lon="-0.5857120">
        <ele>89.0</ele>
        <time>2019-10-19T09:56:15Z</time>
      </trkpt>
      <trkpt lat="38.3012870" lon="-0.5858020">
        <ele>89.0</ele>
        <time>2019-10-19T09:56:16Z</time>
      </trkpt>
      <trkpt lat="38.3013270" lon="-0.5859780">
        <ele>89.0</ele>
        <time>2019-10-19T09:56:17Z</time>
      </trkpt>
      <trkpt lat="38.3013480" lon="-0.5860650">
        <ele>89.0</ele>
        <time>2019-10-19T09:56:18Z</time>
      </trkpt>
      <trkpt lat="38.3013590" lon="-0.5861090">
        <ele>89.0</ele>
        <time>2019-10-19T09:56:19Z</time>
      </trkpt>
      <trkpt lat="38.3013690" lon="-0.5861530">
        <ele>89.0</ele>
        <time>2019-10-19T09:56:20Z</time>
      </trkpt>
      <trkpt lat="38.3014100" lon="-0.5863320">
        <ele>89.0</ele>
        <time>2019-10-19T09:56:21Z</time>
      </trkpt>
      <trkpt lat="38.3014200" lon="-0.5863770">
        <ele>89.0</ele>
        <time>2019-10-19T09:56:22Z</time>
      </trkpt>
      <trkpt lat="38.3014300" lon="-0.5864220">
        <ele>89.0</ele>
        <time>2019-10-19T09:56:23Z</time>
      </trkpt>
      <trkpt lat="38.3014700" lon="-0.5866040">
        <ele>89.0</ele>
        <time>2019-10-19T09:56:24Z</time>
      </trkpt>
      <trkpt lat="38.3014800" lon="-0.5866500">
        <ele>89.0</ele>
        <time>2019-10-19T09:56:25Z</time>
      </trkpt>
      <trkpt lat="38.3014900" lon="-0.5866970">
        <ele>89.0</ele>
        <time>2019-10-19T09:56:26Z</time>
      </trkpt>
      <trkpt lat="38.3015110" lon="-0.5867910">
        <ele>89.0</ele>
        <time>2019-10-19T09:56:27Z</time>
      </trkpt>
      <trkpt lat="38.3015520" lon="-0.5869810">
        <ele>89.0</ele>
        <time>2019-10-19T09:56:28Z</time>
      </trkpt>
      <trkpt lat="38.3015640" lon="-0.5870280">
        <ele>89.0</ele>
        <time>2019-10-19T09:56:29Z</time>
      </trkpt>
      <trkpt lat="38.3015760" lon="-0.5870760">
        <ele>89.0</ele>
        <time>2019-10-19T09:56:30Z</time>
      </trkpt>
      <trkpt lat="38.3015990" lon="-0.5871700">
        <ele>89.0</ele>
        <time>2019-10-19T09:56:31Z</time>
      </trkpt>
      <trkpt lat="38.3016390" lon="-0.5873610">
        <ele>89.2</ele>
        <time>2019-10-19T09:56:32Z</time>
      </trkpt>
      <trkpt lat="38.3016490" lon="-0.5874090">
        <ele>89.3</ele>
        <time>2019-10-19T09:56:33Z</time>
      </trkpt>
      <trkpt lat="38.3016590" lon="-0.5874580">
        <ele>89.4</ele>
        <time>2019-10-19T09:56:34Z</time>
      </trkpt>
      <trkpt lat="38.3017000" lon="-0.5876520">
        <ele>89.7</ele>
        <time>2019-10-19T09:56:35Z</time>
      </trkpt>
      <trkpt lat="38.3017110" lon="-0.5877000">
        <ele>89.8</ele>
        <time>2019-10-19T09:56:36Z</time>
      </trkpt>
      <trkpt lat="38.3017210" lon="-0.5877490">
        <ele>89.8</ele>
        <time>2019-10-19T09:56:37Z</time>
      </trkpt>
      <trkpt lat="38.3017640" lon="-0.5879470">
        <ele>89.9</ele>
        <time>2019-10-19T09:56:38Z</time>
      </trkpt>
      <trkpt lat="38.3017750" lon="-0.5879960">
        <ele>89.9</ele>
        <time>2019-10-19T09:56:39Z</time>
      </trkpt>
      <trkpt lat="38.3017860" lon="-0.5880450">
        <ele>89.9</ele>
        <time>2019-10-19T09:56:40Z</time>
      </trkpt>
      <trkpt lat="38.3018080" lon="-0.5881420">
        <ele>89.9</ele>
        <time>2019-10-19T09:56:41Z</time>
      </trkpt>
      <trkpt lat="38.3018290" lon="-0.5882390">
        <ele>89.9</ele>
        <time>2019-10-19T09:56:42Z</time>
      </trkpt>
      <trkpt lat="38.3018720" lon="-0.5884340">
        <ele>89.9</ele>
        <time>2019-10-19T09:56:43Z</time>
      </trkpt>
      <trkpt lat="38.3018830" lon="-0.5884820">
        <ele>89.9</ele>
        <time>2019-10-19T09:56:44Z</time>
      </trkpt>
      <trkpt lat="38.3018930" lon="-0.5885310">
        <ele>89.9</ele>
        <time>2019-10-19T09:56:45Z</time>
      </trkpt>
      <trkpt lat="38.3019130" lon="-0.5886270">
        <ele>89.9</ele>
        <time>2019-10-19T09:56:46Z</time>
      </trkpt>
      <trkpt lat="38.3019350" lon="-0.5887240">
        <ele>89.9</ele>
        <time>2019-10-19T09:56:47Z</time>
      </trkpt>
      <trkpt lat="38.3019590" lon="-0.5888210">
        <ele>89.9</ele>
        <time>2019-10-19T09:56:48Z</time>
      </trkpt>
      <trkpt lat="38.3019820" lon="-0.5889190">
        <ele>89.9</ele>
        <time>2019-10-19T09:56:49Z</time>
      </trkpt>
      <trkpt lat="38.3020040" lon="-0.5890170">
        <ele>89.9</ele>
        <time>2019-10-19T09:56:50Z</time>
      </trkpt>
      <trkpt lat="38.3020450" lon="-0.5892150">
        <ele>89.9</ele>
        <time>2019-10-19T09:56:51Z</time>
      </trkpt>
      <trkpt lat="38.3020560" lon="-0.5892640">
        <ele>89.9</ele>
        <time>2019-10-19T09:56:52Z</time>
      </trkpt>
      <trkpt lat="38.3020670" lon="-0.5893140">
        <ele>89.9</ele>
        <time>2019-10-19T09:56:53Z</time>
      </trkpt>
      <trkpt lat="38.3020990" lon="-0.5894610">
        <ele>89.9</ele>
        <time>2019-10-19T09:56:54Z</time>
      </trkpt>
      <trkpt lat="38.3021100" lon="-0.5895100">
        <ele>89.9</ele>
        <time>2019-10-19T09:56:55Z</time>
      </trkpt>
      <trkpt lat="38.3021550" lon="-0.5897060">
        <ele>89.9</ele>
        <time>2019-10-19T09:56:56Z</time>
      </trkpt>
      <trkpt lat="38.3021790" lon="-0.5898040">
        <ele>89.9</ele>
        <time>2019-10-19T09:56:57Z</time>
      </trkpt>
      <trkpt lat="38.3022020" lon="-0.5899020">
        <ele>89.9</ele>
        <time>2019-10-19T09:56:58Z</time>
      </trkpt>
      <trkpt lat="38.3022140" lon="-0.5899510">
        <ele>89.9</ele>
        <time>2019-10-19T09:56:59Z</time>
      </trkpt>
      <trkpt lat="38.3022250" lon="-0.5900000">
        <ele>89.9</ele>
        <time>2019-10-19T09:57:00Z</time>
      </trkpt>
      <trkpt lat="38.3022470" lon="-0.5901000">
        <ele>89.9</ele>
        <time>2019-10-19T09:57:01Z</time>
      </trkpt>
      <trkpt lat="38.3022680" lon="-0.5901990">
        <ele>89.9</ele>
        <time>2019-10-19T09:57:02Z</time>
      </trkpt>
      <trkpt lat="38.3022910" lon="-0.5902990">
        <ele>89.9</ele>
        <time>2019-10-19T09:57:03Z</time>
      </trkpt>
      <trkpt lat="38.3023140" lon="-0.5903990">
        <ele>89.8</ele>
        <time>2019-10-19T09:57:04Z</time>
      </trkpt>
      <trkpt lat="38.3023360" lon="-0.5904980">
        <ele>89.8</ele>
        <time>2019-10-19T09:57:05Z</time>
      </trkpt>
      <trkpt lat="38.3023820" lon="-0.5906950">
        <ele>89.5</ele>
        <time>2019-10-19T09:57:06Z</time>
      </trkpt>
      <trkpt lat="38.3023940" lon="-0.5907450">
        <ele>89.5</ele>
        <time>2019-10-19T09:57:07Z</time>
      </trkpt>
      <trkpt lat="38.3024060" lon="-0.5907950">
        <ele>89.4</ele>
        <time>2019-10-19T09:57:08Z</time>
      </trkpt>
      <trkpt lat="38.3024410" lon="-0.5909450">
        <ele>89.1</ele>
        <time>2019-10-19T09:57:09Z</time>
      </trkpt>
      <trkpt lat="38.3024530" lon="-0.5909950">
        <ele>89.0</ele>
        <time>2019-10-19T09:57:10Z</time>
      </trkpt>
      <trkpt lat="38.3024770" lon="-0.5910950">
        <ele>88.9</ele>
        <time>2019-10-19T09:57:11Z</time>
      </trkpt>
      <trkpt lat="38.3025310" lon="-0.5912950">
        <ele>88.6</ele>
        <time>2019-10-19T09:57:12Z</time>
      </trkpt>
      <trkpt lat="38.3025440" lon="-0.5913450">
        <ele>88.5</ele>
        <time>2019-10-19T09:57:13Z</time>
      </trkpt>
      <trkpt lat="38.3025570" lon="-0.5913950">
        <ele>88.5</ele>
        <time>2019-10-19T09:57:14Z</time>
      </trkpt>
      <trkpt lat="38.3026100" lon="-0.5915950">
        <ele>88.1</ele>
        <time>2019-10-19T09:57:15Z</time>
      </trkpt>
      <trkpt lat="38.3026240" lon="-0.5916440">
        <ele>88.1</ele>
        <time>2019-10-19T09:57:16Z</time>
      </trkpt>
      <trkpt lat="38.3026380" lon="-0.5916940">
        <ele>88.0</ele>
        <time>2019-10-19T09:57:17Z</time>
      </trkpt>
      <trkpt lat="38.3026660" lon="-0.5917940">
        <ele>88.0</ele>
        <time>2019-10-19T09:57:18Z</time>
      </trkpt>
      <trkpt lat="38.3026950" lon="-0.5918930">
        <ele>87.9</ele>
        <time>2019-10-19T09:57:19Z</time>
      </trkpt>
      <trkpt lat="38.3027530" lon="-0.5920910">
        <ele>87.9</ele>
        <time>2019-10-19T09:57:20Z</time>
      </trkpt>
      <trkpt lat="38.3027830" lon="-0.5921910">
        <ele>87.9</ele>
        <time>2019-10-19T09:57:21Z</time>
      </trkpt>
      <trkpt lat="38.3027980" lon="-0.5922410">
        <ele>87.9</ele>
        <time>2019-10-19T09:57:22Z</time>
      </trkpt>
      <trkpt lat="38.3028130" lon="-0.5922910">
        <ele>87.9</ele>
        <time>2019-10-19T09:57:23Z</time>
      </trkpt>
      <trkpt lat="38.3028580" lon="-0.5924410">
        <ele>87.8</ele>
        <time>2019-10-19T09:57:24Z</time>
      </trkpt>
      <trkpt lat="38.3028740" lon="-0.5924910">
        <ele>87.7</ele>
        <time>2019-10-19T09:57:25Z</time>
      </trkpt>
      <trkpt lat="38.3029390" lon="-0.5926910">
        <ele>87.4</ele>
        <time>2019-10-19T09:57:26Z</time>
      </trkpt>
      <trkpt lat="38.3029720" lon="-0.5927910">
        <ele>87.3</ele>
        <time>2019-10-19T09:57:27Z</time>
      </trkpt>
      <trkpt lat="38.3030040" lon="-0.5928920">
        <ele>87.1</ele>
        <time>2019-10-19T09:57:28Z</time>
      </trkpt>
      <trkpt lat="38.3030370" lon="-0.5929910">
        <ele>87.1</ele>
        <time>2019-10-19T09:57:29Z</time>
      </trkpt>
      <trkpt lat="38.3030530" lon="-0.5930400">
        <ele>87.1</ele>
        <time>2019-10-19T09:57:30Z</time>
      </trkpt>
      <trkpt lat="38.3030690" lon="-0.5930890">
        <ele>87.1</ele>
        <time>2019-10-19T09:57:31Z</time>
      </trkpt>
      <trkpt lat="38.3031000" lon="-0.5931850">
        <ele>87.2</ele>
        <time>2019-10-19T09:57:32Z</time>
      </trkpt>
      <trkpt lat="38.3031290" lon="-0.5932810">
        <ele>87.4</ele>
        <time>2019-10-19T09:57:33Z</time>
      </trkpt>
      <trkpt lat="38.3031870" lon="-0.5934700">
        <ele>87.7</ele>
        <time>2019-10-19T09:57:34Z</time>
      </trkpt>
      <trkpt lat="38.3032010" lon="-0.5935160">
        <ele>87.8</ele>
        <time>2019-10-19T09:57:35Z</time>
      </trkpt>
      <trkpt lat="38.3032150" lon="-0.5935620">
        <ele>87.8</ele>
        <time>2019-10-19T09:57:36Z</time>
      </trkpt>
      <trkpt lat="38.3032420" lon="-0.5936540">
        <ele>87.9</ele>
        <time>2019-10-19T09:57:37Z</time>
      </trkpt>
      <trkpt lat="38.3032690" lon="-0.5937450">
        <ele>88.0</ele>
        <time>2019-10-19T09:57:38Z</time>
      </trkpt>
      <trkpt lat="38.3032960" lon="-0.5938370">
        <ele>88.1</ele>
        <time>2019-10-19T09:57:39Z</time>
      </trkpt>
      <trkpt lat="38.3033470" lon="-0.5940150">
        <ele>88.5</ele>
        <time>2019-10-19T09:57:40Z</time>
      </trkpt>
      <trkpt lat="38.3033590" lon="-0.5940590">
        <ele>88.6</ele>
        <time>2019-10-19T09:57:41Z</time>
      </trkpt>
      <trkpt lat="38.3033710" lon="-0.5941030">
        <ele>88.7</ele>
        <time>2019-10-19T09:57:42Z</time>
      </trkpt>
      <trkpt lat="38.3034180" lon="-0.5942770">
        <ele>89.1</ele>
        <time>2019-10-19T09:57:43Z</time>
      </trkpt>
      <trkpt lat="38.3034290" lon="-0.5943200">
        <ele>89.2</ele>
        <time>2019-10-19T09:57:44Z</time>
      </trkpt>
      <trkpt lat="38.3034400" lon="-0.5943640">
        <ele>89.3</ele>
        <time>2019-10-19T09:57:45Z</time>
      </trkpt>
      <trkpt lat="38.3034620" lon="-0.5944500">
        <ele>89.5</ele>
        <time>2019-10-19T09:57:46Z</time>
      </trkpt>
      <trkpt lat="38.3035030" lon="-0.5946270">
        <ele>89.8</ele>
        <time>2019-10-19T09:57:47Z</time>
      </trkpt>
      <trkpt lat="38.3035220" lon="-0.5947150">
        <ele>90.0</ele>
        <time>2019-10-19T09:57:48Z</time>
      </trkpt>
      <trkpt lat="38.3035330" lon="-0.5947580">
        <ele>90.1</ele>
        <time>2019-10-19T09:57:49Z</time>
      </trkpt>
      <trkpt lat="38.3035430" lon="-0.5948020">
        <ele>90.2</ele>
        <time>2019-10-19T09:57:50Z</time>
      </trkpt>
      <trkpt lat="38.3035850" lon="-0.5949770">
        <ele>90.5</ele>
        <time>2019-10-19T09:57:51Z</time>
      </trkpt>
      <trkpt lat="38.3035930" lon="-0.5950210">
        <ele>90.6</ele>
        <time>2019-10-19T09:57:52Z</time>
      </trkpt>
      <trkpt lat="38.3036010" lon="-0.5950650">
        <ele>90.7</ele>
        <time>2019-10-19T09:57:53Z</time>
      </trkpt>
      <trkpt lat="38.3036260" lon="-0.5951970">
        <ele>90.8</ele>
        <time>2019-10-19T09:57:54Z</time>
      </trkpt>
      <trkpt lat="38.3036350" lon="-0.5952410">
        <ele>90.9</ele>
        <time>2019-10-19T09:57:55Z</time>
      </trkpt>
      <trkpt lat="38.3036660" lon="-0.5954190">
        <ele>91.1</ele>
        <time>2019-10-19T09:57:56Z</time>
      </trkpt>
      <trkpt lat="38.3036740" lon="-0.5954620">
        <ele>91.1</ele>
        <time>2019-10-19T09:57:57Z</time>
      </trkpt>
      <trkpt lat="38.3036810" lon="-0.5955050">
        <ele>91.2</ele>
        <time>2019-10-19T09:57:58Z</time>
      </trkpt>
      <trkpt lat="38.3036960" lon="-0.5955880">
        <ele>91.4</ele>
        <time>2019-10-19T09:57:59Z</time>
      </trkpt>
      <trkpt lat="38.3037230" lon="-0.5957530">
        <ele>91.7</ele>
        <time>2019-10-19T09:58:00Z</time>
      </trkpt>
      <trkpt lat="38.3037370" lon="-0.5958350">
        <ele>91.9</ele>
        <time>2019-10-19T09:58:01Z</time>
      </trkpt>
      <trkpt lat="38.3037430" lon="-0.5958760">
        <ele>92.0</ele>
        <time>2019-10-19T09:58:02Z</time>
      </trkpt>
      <trkpt lat="38.3037480" lon="-0.5959180">
        <ele>92.1</ele>
        <time>2019-10-19T09:58:03Z</time>
      </trkpt>
      <trkpt lat="38.3037580" lon="-0.5960010">
        <ele>92.3</ele>
        <time>2019-10-19T09:58:04Z</time>
      </trkpt>
      <trkpt lat="38.3037680" lon="-0.5960830">
        <ele>92.5</ele>
        <time>2019-10-19T09:58:05Z</time>
      </trkpt>
      <trkpt lat="38.3037780" lon="-0.5961650">
        <ele>92.6</ele>
        <time>2019-10-19T09:58:06Z</time>
      </trkpt>
      <trkpt lat="38.3037960" lon="-0.5963250">
        <ele>92.8</ele>
        <time>2019-10-19T09:58:07Z</time>
      </trkpt>
      <trkpt lat="38.3038000" lon="-0.5963640">
        <ele>92.9</ele>
        <time>2019-10-19T09:58:08Z</time>
      </trkpt>
      <trkpt lat="38.3038030" lon="-0.5964040">
        <ele>92.9</ele>
        <time>2019-10-19T09:58:09Z</time>
      </trkpt>
      <trkpt lat="38.3038140" lon="-0.5965610">
        <ele>93.3</ele>
        <time>2019-10-19T09:58:10Z</time>
      </trkpt>
      <trkpt lat="38.3038170" lon="-0.5965990">
        <ele>93.5</ele>
        <time>2019-10-19T09:58:11Z</time>
      </trkpt>
      <trkpt lat="38.3038190" lon="-0.5966380">
        <ele>93.7</ele>
        <time>2019-10-19T09:58:12Z</time>
      </trkpt>
      <trkpt lat="38.3038300" lon="-0.5967910">
        <ele>94.2</ele>
        <time>2019-10-19T09:58:13Z</time>
      </trkpt>
      <trkpt lat="38.3038320" lon="-0.5968290">
        <ele>94.4</ele>
        <time>2019-10-19T09:58:14Z</time>
      </trkpt>
      <trkpt lat="38.3038340" lon="-0.5968670">
        <ele>94.6</ele>
        <time>2019-10-19T09:58:15Z</time>
      </trkpt>
      <trkpt lat="38.3038440" lon="-0.5970170">
        <ele>95.2</ele>
        <time>2019-10-19T09:58:16Z</time>
      </trkpt>
      <trkpt lat="38.3038470" lon="-0.5970550">
        <ele>95.4</ele>
        <time>2019-10-19T09:58:17Z</time>
      </trkpt>
      <trkpt lat="38.3038490" lon="-0.5970930">
        <ele>95.5</ele>
        <time>2019-10-19T09:58:18Z</time>
      </trkpt>
      <trkpt lat="38.3038540" lon="-0.5971680">
        <ele>95.6</ele>
        <time>2019-10-19T09:58:19Z</time>
      </trkpt>
      <trkpt lat="38.3038590" lon="-0.5972420">
        <ele>95.7</ele>
        <time>2019-10-19T09:58:20Z</time>
      </trkpt>
      <trkpt lat="38.3038620" lon="-0.5973170">
        <ele>95.8</ele>
        <time>2019-10-19T09:58:21Z</time>
      </trkpt>
      <trkpt lat="38.3038690" lon="-0.5974660">
        <ele>95.8</ele>
        <time>2019-10-19T09:58:22Z</time>
      </trkpt>
      <trkpt lat="38.3038710" lon="-0.5975410">
        <ele>95.8</ele>
        <time>2019-10-19T09:58:23Z</time>
      </trkpt>
      <trkpt lat="38.3038730" lon="-0.5975780">
        <ele>95.8</ele>
        <time>2019-10-19T09:58:24Z</time>
      </trkpt>
      <trkpt lat="38.3038750" lon="-0.5976160">
        <ele>95.8</ele>
        <time>2019-10-19T09:58:25Z</time>
      </trkpt>
      <trkpt lat="38.3038800" lon="-0.5977280">
        <ele>95.8</ele>
        <time>2019-10-19T09:58:26Z</time>
      </trkpt>
      <trkpt lat="38.3038820" lon="-0.5977660">
        <ele>95.8</ele>
        <time>2019-10-19T09:58:27Z</time>
      </trkpt>
      <trkpt lat="38.3038880" lon="-0.5978410">
        <ele>95.8</ele>
        <time>2019-10-19T09:58:28Z</time>
      </trkpt>
      <trkpt lat="38.3039000" lon="-0.5979150">
        <ele>95.8</ele>
        <time>2019-10-19T09:58:29Z</time>
      </trkpt>
      <trkpt lat="38.3039200" lon="-0.5979840">
        <ele>95.8</ele>
        <time>2019-10-19T09:58:30Z</time>
      </trkpt>
      <trkpt lat="38.3039490" lon="-0.5980480">
        <ele>95.8</ele>
        <time>2019-10-19T09:58:31Z</time>
      </trkpt>
      <trkpt lat="38.3039870" lon="-0.5981050">
        <ele>96.0</ele>
        <time>2019-10-19T09:58:32Z</time>
      </trkpt>
      <trkpt lat="38.3040300" lon="-0.5981580">
        <ele>96.3</ele>
        <time>2019-10-19T09:58:33Z</time>
      </trkpt>
      <trkpt lat="38.3040740" lon="-0.5982090">
        <ele>96.6</ele>
        <time>2019-10-19T09:58:34Z</time>
      </trkpt>
      <trkpt lat="38.3041190" lon="-0.5982610">
        <ele>96.9</ele>
        <time>2019-10-19T09:58:35Z</time>
      </trkpt>
      <trkpt lat="38.3041990" lon="-0.5983780">
        <ele>97.3</ele>
        <time>2019-10-19T09:58:36Z</time>
      </trkpt>
      <trkpt lat="38.3042140" lon="-0.5984120">
        <ele>97.4</ele>
        <time>2019-10-19T09:58:37Z</time>
      </trkpt>
      <trkpt lat="38.3042280" lon="-0.5984470">
        <ele>97.5</ele>
        <time>2019-10-19T09:58:38Z</time>
      </trkpt>
      <trkpt lat="38.3042510" lon="-0.5985220">
        <ele>97.7</ele>
        <time>2019-10-19T09:58:39Z</time>
      </trkpt>
      <trkpt lat="38.3042730" lon="-0.5986770">
        <ele>98.0</ele>
        <time>2019-10-19T09:58:40Z</time>
      </trkpt>
      <trkpt lat="38.3042740" lon="-0.5987170">
        <ele>98.1</ele>
        <time>2019-10-19T09:58:41Z</time>
      </trkpt>
      <trkpt lat="38.3042750" lon="-0.5987580">
        <ele>98.1</ele>
        <time>2019-10-19T09:58:42Z</time>
      </trkpt>
      <trkpt lat="38.3042740" lon="-0.5988400">
        <ele>98.3</ele>
        <time>2019-10-19T09:58:43Z</time>
      </trkpt>
      <trkpt lat="38.3042880" lon="-0.5989190">
        <ele>98.6</ele>
        <time>2019-10-19T09:58:44Z</time>
      </trkpt>
      <trkpt lat="38.3043470" lon="-0.5990670">
        <ele>99.1</ele>
        <time>2019-10-19T09:58:45Z</time>
      </trkpt>
      <trkpt lat="38.3043630" lon="-0.5991030">
        <ele>99.2</ele>
        <time>2019-10-19T09:58:46Z</time>
      </trkpt>
      <trkpt lat="38.3043790" lon="-0.5991400">
        <ele>99.5</ele>
        <time>2019-10-19T09:58:47Z</time>
      </trkpt>
      <trkpt lat="38.3044100" lon="-0.5992150">
        <ele>99.8</ele>
        <time>2019-10-19T09:58:48Z</time>
      </trkpt>
      <trkpt lat="38.3044350" lon="-0.5992900">
        <ele>100.0</ele>
        <time>2019-10-19T09:58:49Z</time>
      </trkpt>
      <trkpt lat="38.3044580" lon="-0.5993670">
        <ele>100.2</ele>
        <time>2019-10-19T09:58:50Z</time>
      </trkpt>
      <trkpt lat="38.3044820" lon="-0.5994430">
        <ele>100.5</ele>
        <time>2019-10-19T09:58:51Z</time>
      </trkpt>
      <trkpt lat="38.3045480" lon="-0.5995810">
        <ele>100.9</ele>
        <time>2019-10-19T09:58:52Z</time>
      </trkpt>
      <trkpt lat="38.3045670" lon="-0.5996130">
        <ele>101.0</ele>
        <time>2019-10-19T09:58:53Z</time>
      </trkpt>
      <trkpt lat="38.3045850" lon="-0.5996450">
        <ele>101.1</ele>
        <time>2019-10-19T09:58:54Z</time>
      </trkpt>
      <trkpt lat="38.3046250" lon="-0.5997050">
        <ele>101.2</ele>
        <time>2019-10-19T09:58:55Z</time>
      </trkpt>
      <trkpt lat="38.3046680" lon="-0.5997630">
        <ele>101.4</ele>
        <time>2019-10-19T09:58:56Z</time>
      </trkpt>
      <trkpt lat="38.3047130" lon="-0.5998160">
        <ele>101.6</ele>
        <time>2019-10-19T09:58:57Z</time>
      </trkpt>
      <trkpt lat="38.3047590" lon="-0.5998650">
        <ele>101.8</ele>
        <time>2019-10-19T09:58:58Z</time>
      </trkpt>
      <trkpt lat="38.3048410" lon="-0.5999740">
        <ele>102.3</ele>
        <time>2019-10-19T09:58:59Z</time>
      </trkpt>
      <trkpt lat="38.3048500" lon="-0.6000080">
        <ele>102.4</ele>
        <time>2019-10-19T09:59:00Z</time>
      </trkpt>
      <trkpt lat="38.3048590" lon="-0.6000430">
        <ele>102.6</ele>
        <time>2019-10-19T09:59:01Z</time>
      </trkpt>
      <trkpt lat="38.3048410" lon="-0.6001860">
        <ele>102.5</ele>
        <time>2019-10-19T09:59:02Z</time>
      </trkpt>
      <trkpt lat="38.3048370" lon="-0.6002240">
        <ele>102.5</ele>
        <time>2019-10-19T09:59:03Z</time>
      </trkpt>
      <trkpt lat="38.3048330" lon="-0.6002620">
        <ele>102.4</ele>
        <time>2019-10-19T09:59:04Z</time>
      </trkpt>
      <trkpt lat="38.3048230" lon="-0.6003420">
        <ele>102.4</ele>
        <time>2019-10-19T09:59:05Z</time>
      </trkpt>
      <trkpt lat="38.3048150" lon="-0.6004250">
        <ele>102.4</ele>
        <time>2019-10-19T09:59:06Z</time>
      </trkpt>
      <trkpt lat="38.3048080" lon="-0.6005090">
        <ele>102.4</ele>
        <time>2019-10-19T09:59:07Z</time>
      </trkpt>
      <trkpt lat="38.3048110" lon="-0.6005930">
        <ele>102.4</ele>
        <time>2019-10-19T09:59:08Z</time>
      </trkpt>
      <trkpt lat="38.3048270" lon="-0.6006740">
        <ele>102.4</ele>
        <time>2019-10-19T09:59:09Z</time>
      </trkpt>
      <trkpt lat="38.3048710" lon="-0.6008370">
        <ele>102.4</ele>
        <time>2019-10-19T09:59:10Z</time>
      </trkpt>
      <trkpt lat="38.3048840" lon="-0.6008770">
        <ele>102.4</ele>
        <time>2019-10-19T09:59:11Z</time>
      </trkpt>
      <trkpt lat="38.3048960" lon="-0.6009180">
        <ele>102.4</ele>
        <time>2019-10-19T09:59:12Z</time>
      </trkpt>
      <trkpt lat="38.3049440" lon="-0.6010800">
        <ele>102.4</ele>
        <time>2019-10-19T09:59:13Z</time>
      </trkpt>
      <trkpt lat="38.3049550" lon="-0.6011200">
        <ele>102.4</ele>
        <time>2019-10-19T09:59:14Z</time>
      </trkpt>
      <trkpt lat="38.3049660" lon="-0.6011610">
        <ele>102.4</ele>
        <time>2019-10-19T09:59:15Z</time>
      </trkpt>
      <trkpt lat="38.3049860" lon="-0.6012430">
        <ele>102.4</ele>
        <time>2019-10-19T09:59:16Z</time>
      </trkpt>
      <trkpt lat="38.3050050" lon="-0.6013270">
        <ele>102.4</ele>
        <time>2019-10-19T09:59:17Z</time>
      </trkpt>
      <trkpt lat="38.3050230" lon="-0.6014110">
        <ele>102.4</ele>
        <time>2019-10-19T09:59:18Z</time>
      </trkpt>
      <trkpt lat="38.3050400" lon="-0.6014950">
        <ele>102.5</ele>
        <time>2019-10-19T09:59:19Z</time>
      </trkpt>
      <trkpt lat="38.3050560" lon="-0.6015810">
        <ele>102.6</ele>
        <time>2019-10-19T09:59:20Z</time>
      </trkpt>
      <trkpt lat="38.3050720" lon="-0.6016650">
        <ele>102.7</ele>
        <time>2019-10-19T09:59:21Z</time>
      </trkpt>
      <trkpt lat="38.3050960" lon="-0.6018320">
        <ele>103.1</ele>
        <time>2019-10-19T09:59:22Z</time>
      </trkpt>
      <trkpt lat="38.3051030" lon="-0.6018750">
        <ele>103.2</ele>
        <time>2019-10-19T09:59:23Z</time>
      </trkpt>
      <trkpt lat="38.3051090" lon="-0.6019180">
        <ele>103.3</ele>
        <time>2019-10-19T09:59:24Z</time>
      </trkpt>
      <trkpt lat="38.3051200" lon="-0.6020020">
        <ele>103.4</ele>
        <time>2019-10-19T09:59:25Z</time>
      </trkpt>
      <trkpt lat="38.3051430" lon="-0.6021670">
        <ele>103.7</ele>
        <time>2019-10-19T09:59:26Z</time>
      </trkpt>
      <trkpt lat="38.3051490" lon="-0.6022080">
        <ele>103.8</ele>
        <time>2019-10-19T09:59:27Z</time>
      </trkpt>
      <trkpt lat="38.3051550" lon="-0.6022490">
        <ele>104.0</ele>
        <time>2019-10-19T09:59:28Z</time>
      </trkpt>
      <trkpt lat="38.3051660" lon="-0.6023310">
        <ele>104.3</ele>
        <time>2019-10-19T09:59:29Z</time>
      </trkpt>
      <trkpt lat="38.3051770" lon="-0.6024150">
        <ele>104.7</ele>
        <time>2019-10-19T09:59:30Z</time>
      </trkpt>
      <trkpt lat="38.3051980" lon="-0.6025820">
        <ele>105.2</ele>
        <time>2019-10-19T09:59:31Z</time>
      </trkpt>
      <trkpt lat="38.3052040" lon="-0.6026240">
        <ele>105.3</ele>
        <time>2019-10-19T09:59:32Z</time>
      </trkpt>
      <trkpt lat="38.3052090" lon="-0.6026670">
        <ele>105.3</ele>
        <time>2019-10-19T09:59:33Z</time>
      </trkpt>
      <trkpt lat="38.3052200" lon="-0.6027520">
        <ele>105.4</ele>
        <time>2019-10-19T09:59:34Z</time>
      </trkpt>
      <trkpt lat="38.3052450" lon="-0.6029220">
        <ele>105.5</ele>
        <time>2019-10-19T09:59:35Z</time>
      </trkpt>
      <trkpt lat="38.3052650" lon="-0.6030080">
        <ele>105.5</ele>
        <time>2019-10-19T09:59:36Z</time>
      </trkpt>
      <trkpt lat="38.3052760" lon="-0.6030510">
        <ele>105.5</ele>
        <time>2019-10-19T09:59:37Z</time>
      </trkpt>
      <trkpt lat="38.3052870" lon="-0.6030950">
        <ele>105.6</ele>
        <time>2019-10-19T09:59:38Z</time>
      </trkpt>
      <trkpt lat="38.3053340" lon="-0.6032640">
        <ele>105.9</ele>
        <time>2019-10-19T09:59:39Z</time>
      </trkpt>
      <trkpt lat="38.3053530" lon="-0.6033250">
        <ele>106.1</ele>
        <time>2019-10-19T09:59:40Z</time>
      </trkpt>
      <trkpt lat="38.3053710" lon="-0.6033870">
        <ele>106.4</ele>
        <time>2019-10-19T09:59:41Z</time>
      </trkpt>
      <trkpt lat="38.3054080" lon="-0.6035110">
        <ele>107.0</ele>
        <time>2019-10-19T09:59:42Z</time>
      </trkpt>
      <trkpt lat="38.3054210" lon="-0.6035520">
        <ele>107.1</ele>
        <time>2019-10-19T09:59:43Z</time>
      </trkpt>
      <trkpt lat="38.3054340" lon="-0.6035940">
        <ele>107.3</ele>
        <time>2019-10-19T09:59:44Z</time>
      </trkpt>
      <trkpt lat="38.3054850" lon="-0.6037630">
        <ele>107.5</ele>
        <time>2019-10-19T09:59:45Z</time>
      </trkpt>
      <trkpt lat="38.3055090" lon="-0.6038490">
        <ele>107.5</ele>
        <time>2019-10-19T09:59:46Z</time>
      </trkpt>
      <trkpt lat="38.3055190" lon="-0.6038930">
        <ele>107.5</ele>
        <time>2019-10-19T09:59:47Z</time>
      </trkpt>
      <trkpt lat="38.3055290" lon="-0.6039370">
        <ele>107.5</ele>
        <time>2019-10-19T09:59:48Z</time>
      </trkpt>
      <trkpt lat="38.3055550" lon="-0.6040700">
        <ele>107.5</ele>
        <time>2019-10-19T09:59:49Z</time>
      </trkpt>
      <trkpt lat="38.3055620" lon="-0.6041150">
        <ele>107.5</ele>
        <time>2019-10-19T09:59:50Z</time>
      </trkpt>
      <trkpt lat="38.3055730" lon="-0.6042050">
        <ele>107.5</ele>
        <time>2019-10-19T09:59:51Z</time>
      </trkpt>
      <trkpt lat="38.3055810" lon="-0.6042970">
        <ele>107.5</ele>
        <time>2019-10-19T09:59:52Z</time>
      </trkpt>
      <trkpt lat="38.3055890" lon="-0.6043900">
        <ele>107.5</ele>
        <time>2019-10-19T09:59:53Z</time>
      </trkpt>
      <trkpt lat="38.3055950" lon="-0.6044830">
        <ele>107.5</ele>
        <time>2019-10-19T09:59:54Z</time>
      </trkpt>
      <trkpt lat="38.3056070" lon="-0.6046630">
        <ele>107.5</ele>
        <time>2019-10-19T09:59:55Z</time>
      </trkpt>
      <trkpt lat="38.3056080" lon="-0.6047080">
        <ele>107.5</ele>
        <time>2019-10-19T09:59:56Z</time>
      </trkpt>
      <trkpt lat="38.3056080" lon="-0.6047530">
        <ele>107.5</ele>
        <time>2019-10-19T09:59:57Z</time>
      </trkpt>
      <trkpt lat="38.3056110" lon="-0.6048470">
        <ele>107.5</ele>
        <time>2019-10-19T09:59:58Z</time>
      </trkpt>
      <trkpt lat="38.3056100" lon="-0.6049380">
        <ele>107.5</ele>
        <time>2019-10-19T09:59:59Z</time>
      </trkpt>
      <trkpt lat="38.3056040" lon="-0.6050290">
        <ele>107.5</ele>
        <time>2019-10-19T10:00:00Z</time>
      </trkpt>
      <trkpt lat="38.3055920" lon="-0.6051210">
        <ele>107.5</ele>
        <time>2019-10-19T10:00:01Z</time>
      </trkpt>
      <trkpt lat="38.3055630" lon="-0.6053030">
        <ele>107.5</ele>
        <time>2019-10-19T10:00:02Z</time>
      </trkpt>
      <trkpt lat="38.3055470" lon="-0.6053940">
        <ele>107.5</ele>
        <time>2019-10-19T10:00:03Z</time>
      </trkpt>
      <trkpt lat="38.3055290" lon="-0.6054860">
        <ele>107.6</ele>
        <time>2019-10-19T10:00:04Z</time>
      </trkpt>
      <trkpt lat="38.3055200" lon="-0.6055330">
        <ele>107.6</ele>
        <time>2019-10-19T10:00:05Z</time>
      </trkpt>
      <trkpt lat="38.3055100" lon="-0.6055790">
        <ele>107.6</ele>
        <time>2019-10-19T10:00:06Z</time>
      </trkpt>
      <trkpt lat="38.3054940" lon="-0.6056730">
        <ele>107.6</ele>
        <time>2019-10-19T10:00:07Z</time>
      </trkpt>
      <trkpt lat="38.3054830" lon="-0.6057690">
        <ele>107.6</ele>
        <time>2019-10-19T10:00:08Z</time>
      </trkpt>
      <trkpt lat="38.3054770" lon="-0.6058650">
        <ele>107.6</ele>
        <time>2019-10-19T10:00:09Z</time>
      </trkpt>
      <trkpt lat="38.3054770" lon="-0.6059600">
        <ele>107.6</ele>
        <time>2019-10-19T10:00:10Z</time>
      </trkpt>
      <trkpt lat="38.3054820" lon="-0.6060560">
        <ele>107.6</ele>
        <time>2019-10-19T10:00:11Z</time>
      </trkpt>
      <trkpt lat="38.3054880" lon="-0.6061510">
        <ele>107.6</ele>
        <time>2019-10-19T10:00:12Z</time>
      </trkpt>
      <trkpt lat="38.3054970" lon="-0.6062460">
        <ele>107.6</ele>
        <time>2019-10-19T10:00:13Z</time>
      </trkpt>
      <trkpt lat="38.3055060" lon="-0.6063410">
        <ele>107.7</ele>
        <time>2019-10-19T10:00:14Z</time>
      </trkpt>
      <trkpt lat="38.3055180" lon="-0.6064350">
        <ele>107.8</ele>
        <time>2019-10-19T10:00:15Z</time>
      </trkpt>
      <trkpt lat="38.3055490" lon="-0.6066260">
        <ele>108.5</ele>
        <time>2019-10-19T10:00:16Z</time>
      </trkpt>
      <trkpt lat="38.3055580" lon="-0.6066730">
        <ele>108.7</ele>
        <time>2019-10-19T10:00:17Z</time>
      </trkpt>
      <trkpt lat="38.3055670" lon="-0.6067210">
        <ele>108.9</ele>
        <time>2019-10-19T10:00:18Z</time>
      </trkpt>
      <trkpt lat="38.3055860" lon="-0.6068160">
        <ele>109.3</ele>
        <time>2019-10-19T10:00:19Z</time>
      </trkpt>
      <trkpt lat="38.3056260" lon="-0.6070040">
        <ele>109.6</ele>
        <time>2019-10-19T10:00:20Z</time>
      </trkpt>
      <trkpt lat="38.3056380" lon="-0.6070510">
        <ele>109.6</ele>
        <time>2019-10-19T10:00:21Z</time>
      </trkpt>
      <trkpt lat="38.3056490" lon="-0.6070980">
        <ele>109.6</ele>
        <time>2019-10-19T10:00:22Z</time>
      </trkpt>
      <trkpt lat="38.3056860" lon="-0.6072380">
        <ele>109.6</ele>
        <time>2019-10-19T10:00:23Z</time>
      </trkpt>
      <trkpt lat="38.3057000" lon="-0.6072840">
        <ele>109.6</ele>
        <time>2019-10-19T10:00:24Z</time>
      </trkpt>
      <trkpt lat="38.3057310" lon="-0.6073730">
        <ele>109.6</ele>
        <time>2019-10-19T10:00:25Z</time>
      </trkpt>
      <trkpt lat="38.3058060" lon="-0.6075370">
        <ele>110.1</ele>
        <time>2019-10-19T10:00:26Z</time>
      </trkpt>
      <trkpt lat="38.3058260" lon="-0.6075750">
        <ele>110.2</ele>
        <time>2019-10-19T10:00:27Z</time>
      </trkpt>
      <trkpt lat="38.3058460" lon="-0.6076130">
        <ele>110.3</ele>
        <time>2019-10-19T10:00:28Z</time>
      </trkpt>
      <trkpt lat="38.3058880" lon="-0.6076880">
        <ele>110.5</ele>
        <time>2019-10-19T10:00:29Z</time>
      </trkpt>
      <trkpt lat="38.3059280" lon="-0.6077620">
        <ele>110.7</ele>
        <time>2019-10-19T10:00:30Z</time>
      </trkpt>
      <trkpt lat="38.3059690" lon="-0.6078350">
        <ele>110.9</ele>
        <time>2019-10-19T10:00:31Z</time>
      </trkpt>
      <trkpt lat="38.3060130" lon="-0.6079050">
        <ele>111.0</ele>
        <time>2019-10-19T10:00:32Z</time>
      </trkpt>
      <trkpt lat="38.3060570" lon="-0.6079740">
        <ele>111.2</ele>
        <time>2019-10-19T10:00:33Z</time>
      </trkpt>
      <trkpt lat="38.3061030" lon="-0.6080410">
        <ele>111.3</ele>
        <time>2019-10-19T10:00:34Z</time>
      </trkpt>
      <trkpt lat="38.3061490" lon="-0.6081090">
        <ele>111.5</ele>
        <time>2019-10-19T10:00:35Z</time>
      </trkpt>
      <trkpt lat="38.3061980" lon="-0.6081760">
        <ele>111.6</ele>
        <time>2019-10-19T10:00:36Z</time>
      </trkpt>
      <trkpt lat="38.3062460" lon="-0.6082430">
        <ele>111.8</ele>
        <time>2019-10-19T10:00:37Z</time>
      </trkpt>
      <trkpt lat="38.3062930" lon="-0.6083120">
        <ele>111.9</ele>
        <time>2019-10-19T10:00:38Z</time>
      </trkpt>
      <trkpt lat="38.3063900" lon="-0.6084470">
        <ele>112.1</ele>
        <time>2019-10-19T10:00:39Z</time>
      </trkpt>
      <trkpt lat="38.3064160" lon="-0.6084790">
        <ele>112.2</ele>
        <time>2019-10-19T10:00:40Z</time>
      </trkpt>
      <trkpt lat="38.3064410" lon="-0.6085110">
        <ele>112.2</ele>
        <time>2019-10-19T10:00:41Z</time>
      </trkpt>
      <trkpt lat="38.3064920" lon="-0.6085740">
        <ele>112.3</ele>
        <time>2019-10-19T10:00:42Z</time>
      </trkpt>
      <trkpt lat="38.3065970" lon="-0.6087010">
        <ele>112.5</ele>
        <time>2019-10-19T10:00:43Z</time>
      </trkpt>
      <trkpt lat="38.3066230" lon="-0.6087330">
        <ele>112.5</ele>
        <time>2019-10-19T10:00:44Z</time>
      </trkpt>
      <trkpt lat="38.3066490" lon="-0.6087650">
        <ele>112.6</ele>
        <time>2019-10-19T10:00:45Z</time>
      </trkpt>
      <trkpt lat="38.3067030" lon="-0.6088260">
        <ele>112.6</ele>
        <time>2019-10-19T10:00:46Z</time>
      </trkpt>
      <trkpt lat="38.3068090" lon="-0.6089470">
        <ele>112.9</ele>
        <time>2019-10-19T10:00:47Z</time>
      </trkpt>
      <trkpt lat="38.3068350" lon="-0.6089770">
        <ele>112.9</ele>
        <time>2019-10-19T10:00:48Z</time>
      </trkpt>
      <trkpt lat="38.3068610" lon="-0.6090070">
        <ele>113.0</ele>
        <time>2019-10-19T10:00:49Z</time>
      </trkpt>
      <trkpt lat="38.3069140" lon="-0.6090680">
        <ele>113.2</ele>
        <time>2019-10-19T10:00:50Z</time>
      </trkpt>
      <trkpt lat="38.3069660" lon="-0.6091270">
        <ele>113.3</ele>
        <time>2019-10-19T10:00:51Z</time>
      </trkpt>
      <trkpt lat="38.3070160" lon="-0.6091870">
        <ele>113.4</ele>
        <time>2019-10-19T10:00:52Z</time>
      </trkpt>
      <trkpt lat="38.3070670" lon="-0.6092490">
        <ele>113.5</ele>
        <time>2019-10-19T10:00:53Z</time>
      </trkpt>
      <trkpt lat="38.3071700" lon="-0.6093710">
        <ele>113.7</ele>
        <time>2019-10-19T10:00:54Z</time>
      </trkpt>
      <trkpt lat="38.3071960" lon="-0.6094000">
        <ele>113.8</ele>
        <time>2019-10-19T10:00:55Z</time>
      </trkpt>
      <trkpt lat="38.3072210" lon="-0.6094300">
        <ele>113.8</ele>
        <time>2019-10-19T10:00:56Z</time>
      </trkpt>
      <trkpt lat="38.3072770" lon="-0.6094900">
        <ele>113.9</ele>
        <time>2019-10-19T10:00:57Z</time>
      </trkpt>
      <trkpt lat="38.3073800" lon="-0.6096130">
        <ele>114.1</ele>
        <time>2019-10-19T10:00:58Z</time>
      </trkpt>
      <trkpt lat="38.3074280" lon="-0.6096750">
        <ele>114.2</ele>
        <time>2019-10-19T10:00:59Z</time>
      </trkpt>
      <trkpt lat="38.3074500" lon="-0.6097080">
        <ele>114.2</ele>
        <time>2019-10-19T10:01:00Z</time>
      </trkpt>
      <trkpt lat="38.3074720" lon="-0.6097420">
        <ele>114.3</ele>
        <time>2019-10-19T10:01:01Z</time>
      </trkpt>
      <trkpt lat="38.3075420" lon="-0.6098900">
        <ele>114.4</ele>
        <time>2019-10-19T10:01:02Z</time>
      </trkpt>
      <trkpt lat="38.3075550" lon="-0.6099290">
        <ele>114.4</ele>
        <time>2019-10-19T10:01:03Z</time>
      </trkpt>
      <trkpt lat="38.3075680" lon="-0.6099690">
        <ele>114.4</ele>
        <time>2019-10-19T10:01:04Z</time>
      </trkpt>
      <trkpt lat="38.3076050" lon="-0.6100890">
        <ele>114.5</ele>
        <time>2019-10-19T10:01:05Z</time>
      </trkpt>
      <trkpt lat="38.3076160" lon="-0.6101300">
        <ele>114.5</ele>
        <time>2019-10-19T10:01:06Z</time>
      </trkpt>
      <trkpt lat="38.3076350" lon="-0.6102140">
        <ele>114.5</ele>
        <time>2019-10-19T10:01:07Z</time>
      </trkpt>
      <trkpt lat="38.3076680" lon="-0.6103860">
        <ele>114.5</ele>
        <time>2019-10-19T10:01:08Z</time>
      </trkpt>
      <trkpt lat="38.3076750" lon="-0.6104290">
        <ele>114.5</ele>
        <time>2019-10-19T10:01:09Z</time>
      </trkpt>
      <trkpt lat="38.3076810" lon="-0.6104730">
        <ele>114.5</ele>
        <time>2019-10-19T10:01:10Z</time>
      </trkpt>
      <trkpt lat="38.3076920" lon="-0.6106390">
        <ele>114.5</ele>
        <time>2019-10-19T10:01:11Z</time>
      </trkpt>
      <trkpt lat="38.3076960" lon="-0.6106820">
        <ele>114.5</ele>
        <time>2019-10-19T10:01:12Z</time>
      </trkpt>
      <trkpt lat="38.3077000" lon="-0.6107260">
        <ele>114.5</ele>
        <time>2019-10-19T10:01:13Z</time>
      </trkpt>
      <trkpt lat="38.3077100" lon="-0.6108560">
        <ele>114.5</ele>
        <time>2019-10-19T10:01:14Z</time>
      </trkpt>
      <trkpt lat="38.3077120" lon="-0.6108990">
        <ele>114.5</ele>
        <time>2019-10-19T10:01:15Z</time>
      </trkpt>
      <trkpt lat="38.3077140" lon="-0.6109870">
        <ele>114.4</ele>
        <time>2019-10-19T10:01:16Z</time>
      </trkpt>
      <trkpt lat="38.3076990" lon="-0.6111770">
        <ele>114.1</ele>
        <time>2019-10-19T10:01:17Z</time>
      </trkpt>
      <trkpt lat="38.3076910" lon="-0.6112260">
        <ele>114.0</ele>
        <time>2019-10-19T10:01:18Z</time>
      </trkpt>
      <trkpt lat="38.3076830" lon="-0.6112740">
        <ele>113.9</ele>
        <time>2019-10-19T10:01:19Z</time>
      </trkpt>
      <trkpt lat="38.3076550" lon="-0.6114190">
        <ele>113.6</ele>
        <time>2019-10-19T10:01:20Z</time>
      </trkpt>
      <trkpt lat="38.3076440" lon="-0.6114670">
        <ele>113.5</ele>
        <time>2019-10-19T10:01:21Z</time>
      </trkpt>
      <trkpt lat="38.3075830" lon="-0.6116480">
        <ele>113.2</ele>
        <time>2019-10-19T10:01:22Z</time>
      </trkpt>
      <trkpt lat="38.3075630" lon="-0.6116890">
        <ele>113.1</ele>
        <time>2019-10-19T10:01:23Z</time>
      </trkpt>
      <trkpt lat="38.3075420" lon="-0.6117300">
        <ele>113.0</ele>
        <time>2019-10-19T10:01:24Z</time>
      </trkpt>
      <trkpt lat="38.3074970" lon="-0.6118050">
        <ele>112.6</ele>
        <time>2019-10-19T10:01:25Z</time>
      </trkpt>
      <trkpt lat="38.3074540" lon="-0.6118780">
        <ele>112.3</ele>
        <time>2019-10-19T10:01:26Z</time>
      </trkpt>
      <trkpt lat="38.3074120" lon="-0.6119520">
        <ele>112.0</ele>
        <time>2019-10-19T10:01:27Z</time>
      </trkpt>
      <trkpt lat="38.3073770" lon="-0.6120250">
        <ele>111.8</ele>
        <time>2019-10-19T10:01:28Z</time>
      </trkpt>
      <trkpt lat="38.3073470" lon="-0.6120970">
        <ele>111.6</ele>
        <time>2019-10-19T10:01:29Z</time>
      </trkpt>
      <trkpt lat="38.3073220" lon="-0.6121710">
        <ele>111.6</ele>
        <time>2019-10-19T10:01:30Z</time>
      </trkpt>
      <trkpt lat="38.3072770" lon="-0.6123160">
        <ele>111.5</ele>
        <time>2019-10-19T10:01:31Z</time>
      </trkpt>
      <trkpt lat="38.3072660" lon="-0.6123530">
        <ele>111.5</ele>
        <time>2019-10-19T10:01:32Z</time>
      </trkpt>
      <trkpt lat="38.3072540" lon="-0.6123890">
        <ele>111.5</ele>
        <time>2019-10-19T10:01:33Z</time>
      </trkpt>
      <trkpt lat="38.3072350" lon="-0.6124650">
        <ele>111.6</ele>
        <time>2019-10-19T10:01:34Z</time>
      </trkpt>
      <trkpt lat="38.3072140" lon="-0.6125410">
        <ele>111.6</ele>
        <time>2019-10-19T10:01:35Z</time>
      </trkpt>
      <trkpt lat="38.3071880" lon="-0.6126160">
        <ele>111.7</ele>
        <time>2019-10-19T10:01:36Z</time>
      </trkpt>
      <trkpt lat="38.3071590" lon="-0.6126890">
        <ele>111.8</ele>
        <time>2019-10-19T10:01:37Z</time>
      </trkpt>
      <trkpt lat="38.3071300" lon="-0.6127610">
        <ele>112.1</ele>
        <time>2019-10-19T10:01:38Z</time>
      </trkpt>
      <trkpt lat="38.3070730" lon="-0.6129090">
        <ele>112.7</ele>
        <time>2019-10-19T10:01:39Z</time>
      </trkpt>
      <trkpt lat="38.3070590" lon="-0.6129480">
        <ele>112.9</ele>
        <time>2019-10-19T10:01:40Z</time>
      </trkpt>
      <trkpt lat="38.3070450" lon="-0.6129870">
        <ele>113.0</ele>
        <time>2019-10-19T10:01:41Z</time>
      </trkpt>
      <trkpt lat="38.3069860" lon="-0.6131400">
        <ele>113.4</ele>
        <time>2019-10-19T10:01:42Z</time>
      </trkpt>
      <trkpt lat="38.3069700" lon="-0.6131780">
        <ele>113.5</ele>
        <time>2019-10-19T10:01:43Z</time>
      </trkpt>
      <trkpt lat="38.3069540" lon="-0.6132150">
        <ele>113.5</ele>
        <time>2019-10-19T10:01:44Z</time>
      </trkpt>
      <trkpt lat="38.3069060" lon="-0.6133280">
        <ele>113.5</ele>
        <time>2019-10-19T10:01:45Z</time>
      </trkpt>
      <trkpt lat="38.3068900" lon="-0.6133660">
        <ele>113.5</ele>
        <time>2019-10-19T10:01:46Z</time>
      </trkpt>
      <trkpt lat="38.3068580" lon="-0.6134410">
        <ele>113.5</ele>
        <time>2019-10-19T10:01:47Z</time>
      </trkpt>
      <trkpt lat="38.3067950" lon="-0.6135890">
        <ele>113.5</ele>
        <time>2019-10-19T10:01:48Z</time>
      </trkpt>
      <trkpt lat="38.3067790" lon="-0.6136270">
        <ele>113.5</ele>
        <time>2019-10-19T10:01:49Z</time>
      </trkpt>
      <trkpt lat="38.3067630" lon="-0.6136640">
        <ele>113.5</ele>
        <time>2019-10-19T10:01:50Z</time>
      </trkpt>
      <trkpt lat="38.3067300" lon="-0.6137410">
        <ele>113.5</ele>
        <time>2019-10-19T10:01:51Z</time>
      </trkpt>
      <trkpt lat="38.3066970" lon="-0.6138180">
        <ele>113.5</ele>
        <time>2019-10-19T10:01:52Z</time>
      </trkpt>
      <trkpt lat="38.3066650" lon="-0.6138960">
        <ele>113.5</ele>
        <time>2019-10-19T10:01:53Z</time>
      </trkpt>
      <trkpt lat="38.3066320" lon="-0.6139750">
        <ele>113.5</ele>
        <time>2019-10-19T10:01:54Z</time>
      </trkpt>
      <trkpt lat="38.3065990" lon="-0.6140530">
        <ele>113.5</ele>
        <time>2019-10-19T10:01:55Z</time>
      </trkpt>
      <trkpt lat="38.3065660" lon="-0.6141320">
        <ele>113.5</ele>
        <time>2019-10-19T10:01:56Z</time>
      </trkpt>
      <trkpt lat="38.3064970" lon="-0.6142900">
        <ele>113.4</ele>
        <time>2019-10-19T10:01:57Z</time>
      </trkpt>
      <trkpt lat="38.3064800" lon="-0.6143300">
        <ele>113.4</ele>
        <time>2019-10-19T10:01:58Z</time>
      </trkpt>
      <trkpt lat="38.3064620" lon="-0.6143700">
        <ele>113.3</ele>
        <time>2019-10-19T10:01:59Z</time>
      </trkpt>
      <trkpt lat="38.3064280" lon="-0.6144480">
        <ele>113.2</ele>
        <time>2019-10-19T10:02:00Z</time>
      </trkpt>
      <trkpt lat="38.3063870" lon="-0.6145190">
        <ele>112.9</ele>
        <time>2019-10-19T10:02:01Z</time>
      </trkpt>
      <trkpt lat="38.3063350" lon="-0.6145770">
        <ele>112.8</ele>
        <time>2019-10-19T10:02:02Z</time>
      </trkpt>
      <trkpt lat="38.3062720" lon="-0.6146200">
        <ele>112.6</ele>
        <time>2019-10-19T10:02:03Z</time>
      </trkpt>
      <trkpt lat="38.3062050" lon="-0.6146530">
        <ele>112.6</ele>
        <time>2019-10-19T10:02:04Z</time>
      </trkpt>
      <trkpt lat="38.3060630" lon="-0.6147180">
        <ele>112.5</ele>
        <time>2019-10-19T10:02:05Z</time>
      </trkpt>
      <trkpt lat="38.3060280" lon="-0.6147370">
        <ele>112.5</ele>
        <time>2019-10-19T10:02:06Z</time>
      </trkpt>
      <trkpt lat="38.3059920" lon="-0.6147550">
        <ele>112.4</ele>
        <time>2019-10-19T10:02:07Z</time>
      </trkpt>
      <trkpt lat="38.3059230" lon="-0.6147990">
        <ele>112.2</ele>
        <time>2019-10-19T10:02:08Z</time>
      </trkpt>
      <trkpt lat="38.3058560" lon="-0.6148490">
        <ele>112.0</ele>
        <time>2019-10-19T10:02:09Z</time>
      </trkpt>
      <trkpt lat="38.3057880" lon="-0.6148980">
        <ele>111.8</ele>
        <time>2019-10-19T10:02:10Z</time>
      </trkpt>
      <trkpt lat="38.3057190" lon="-0.6149470">
        <ele>111.7</ele>
        <time>2019-10-19T10:02:11Z</time>
      </trkpt>
      <trkpt lat="38.3056480" lon="-0.6149940">
        <ele>111.6</ele>
        <time>2019-10-19T10:02:12Z</time>
      </trkpt>
      <trkpt lat="38.3055770" lon="-0.6150400">
        <ele>111.5</ele>
        <time>2019-10-19T10:02:13Z</time>
      </trkpt>
      <trkpt lat="38.3055060" lon="-0.6150870">
        <ele>111.4</ele>
        <time>2019-10-19T10:02:14Z</time>
      </trkpt>
      <trkpt lat="38.3054340" lon="-0.6151330">
        <ele>111.1</ele>
        <time>2019-10-19T10:02:15Z</time>
      </trkpt>
      <trkpt lat="38.3053620" lon="-0.6151780">
        <ele>110.8</ele>
        <time>2019-10-19T10:02:16Z</time>
      </trkpt>
      <trkpt lat="38.3052880" lon="-0.6152240">
        <ele>110.4</ele>
        <time>2019-10-19T10:02:17Z</time>
      </trkpt>
      <trkpt lat="38.3052140" lon="-0.6152710">
        <ele>110.0</ele>
        <time>2019-10-19T10:02:18Z</time>
      </trkpt>
      <trkpt lat="38.3050650" lon="-0.6153660">
        <ele>109.4</ele>
        <time>2019-10-19T10:02:19Z</time>
      </trkpt>
      <trkpt lat="38.3050280" lon="-0.6153900">
        <ele>109.2</ele>
        <time>2019-10-19T10:02:20Z</time>
      </trkpt>
      <trkpt lat="38.3049910" lon="-0.6154130">
        <ele>109.1</ele>
        <time>2019-10-19T10:02:21Z</time>
      </trkpt>
      <trkpt lat="38.3048410" lon="-0.6155110">
        <ele>108.7</ele>
        <time>2019-10-19T10:02:22Z</time>
      </trkpt>
      <trkpt lat="38.3048040" lon="-0.6155360">
        <ele>108.7</ele>
        <time>2019-10-19T10:02:23Z</time>
      </trkpt>
      <trkpt lat="38.3047660" lon="-0.6155610">
        <ele>108.7</ele>
        <time>2019-10-19T10:02:24Z</time>
      </trkpt>
      <trkpt lat="38.3046250" lon="-0.6156760">
        <ele>108.5</ele>
        <time>2019-10-19T10:02:25Z</time>
      </trkpt>
      <trkpt lat="38.3045590" lon="-0.6157410">
        <ele>108.4</ele>
        <time>2019-10-19T10:02:26Z</time>
      </trkpt>
      <trkpt lat="38.3045270" lon="-0.6157740">
        <ele>108.4</ele>
        <time>2019-10-19T10:02:27Z</time>
      </trkpt>
      <trkpt lat="38.3044940" lon="-0.6158070">
        <ele>108.3</ele>
        <time>2019-10-19T10:02:28Z</time>
      </trkpt>
      <trkpt lat="38.3043950" lon="-0.6159030">
        <ele>108.0</ele>
        <time>2019-10-19T10:02:29Z</time>
      </trkpt>
      <trkpt lat="38.3043620" lon="-0.6159330">
        <ele>107.9</ele>
        <time>2019-10-19T10:02:30Z</time>
      </trkpt>
      <trkpt lat="38.3042940" lon="-0.6159930">
        <ele>107.7</ele>
        <time>2019-10-19T10:02:31Z</time>
      </trkpt>
      <trkpt lat="38.3041570" lon="-0.6161120">
        <ele>107.3</ele>
        <time>2019-10-19T10:02:32Z</time>
      </trkpt>
      <trkpt lat="38.3041220" lon="-0.6161420">
        <ele>107.2</ele>
        <time>2019-10-19T10:02:33Z</time>
      </trkpt>
      <trkpt lat="38.3040870" lon="-0.6161710">
        <ele>107.1</ele>
        <time>2019-10-19T10:02:34Z</time>
      </trkpt>
      <trkpt lat="38.3040200" lon="-0.6162330">
        <ele>106.9</ele>
        <time>2019-10-19T10:02:35Z</time>
      </trkpt>
      <trkpt lat="38.3039460" lon="-0.6162900">
        <ele>106.5</ele>
        <time>2019-10-19T10:02:36Z</time>
      </trkpt>
      <trkpt lat="38.3038740" lon="-0.6163470">
        <ele>106.2</ele>
        <time>2019-10-19T10:02:37Z</time>
      </trkpt>
      <trkpt lat="38.3037990" lon="-0.6164060">
        <ele>105.8</ele>
        <time>2019-10-19T10:02:38Z</time>
      </trkpt>
      <trkpt lat="38.3037230" lon="-0.6164680">
        <ele>105.4</ele>
        <time>2019-10-19T10:02:39Z</time>
      </trkpt>
      <trkpt lat="38.3036470" lon="-0.6165350">
        <ele>104.9</ele>
        <time>2019-10-19T10:02:40Z</time>
      </trkpt>
      <trkpt lat="38.3035710" lon="-0.6166040">
        <ele>104.5</ele>
        <time>2019-10-19T10:02:41Z</time>
      </trkpt>
      <trkpt lat="38.3034990" lon="-0.6166770">
        <ele>104.1</ele>
        <time>2019-10-19T10:02:42Z</time>
      </trkpt>
      <trkpt lat="38.3034250" lon="-0.6167500">
        <ele>103.7</ele>
        <time>2019-10-19T10:02:43Z</time>
      </trkpt>
      <trkpt lat="38.3033540" lon="-0.6168230">
        <ele>103.3</ele>
        <time>2019-10-19T10:02:44Z</time>
      </trkpt>
      <trkpt lat="38.3032850" lon="-0.6168950">
        <ele>102.8</ele>
        <time>2019-10-19T10:02:45Z</time>
      </trkpt>
      <trkpt lat="38.3032180" lon="-0.6169660">
        <ele>102.4</ele>
        <time>2019-10-19T10:02:46Z</time>
      </trkpt>
      <trkpt lat="38.3030900" lon="-0.6171070">
        <ele>101.5</ele>
        <time>2019-10-19T10:02:47Z</time>
      </trkpt>
      <trkpt lat="38.3030610" lon="-0.6171440">
        <ele>101.2</ele>
        <time>2019-10-19T10:02:48Z</time>
      </trkpt>
      <trkpt lat="38.3030310" lon="-0.6171800">
        <ele>101.0</ele>
        <time>2019-10-19T10:02:49Z</time>
      </trkpt>
      <trkpt lat="38.3029730" lon="-0.6172530">
        <ele>100.6</ele>
        <time>2019-10-19T10:02:50Z</time>
      </trkpt>
      <trkpt lat="38.3029180" lon="-0.6173300">
        <ele>100.2</ele>
        <time>2019-10-19T10:02:51Z</time>
      </trkpt>
      <trkpt lat="38.3028690" lon="-0.6174110">
        <ele>100.0</ele>
        <time>2019-10-19T10:02:52Z</time>
      </trkpt>
      <trkpt lat="38.3027860" lon="-0.6175800">
        <ele>99.7</ele>
        <time>2019-10-19T10:02:53Z</time>
      </trkpt>
      <trkpt lat="38.3027690" lon="-0.6176230">
        <ele>99.7</ele>
        <time>2019-10-19T10:02:54Z</time>
      </trkpt>
      <trkpt lat="38.3027520" lon="-0.6176650">
        <ele>99.7</ele>
        <time>2019-10-19T10:02:55Z</time>
      </trkpt>
      <trkpt lat="38.3027210" lon="-0.6177480">
        <ele>99.7</ele>
        <time>2019-10-19T10:02:56Z</time>
      </trkpt>
      <trkpt lat="38.3026890" lon="-0.6178270">
        <ele>99.7</ele>
        <time>2019-10-19T10:02:57Z</time>
      </trkpt>
      <trkpt lat="38.3026580" lon="-0.6178980">
        <ele>99.7</ele>
        <time>2019-10-19T10:02:58Z</time>
      </trkpt>
      <trkpt lat="38.3026250" lon="-0.6179640">
        <ele>99.7</ele>
        <time>2019-10-19T10:02:59Z</time>
      </trkpt>
      <trkpt lat="38.3025550" lon="-0.6180880">
        <ele>99.7</ele>
        <time>2019-10-19T10:03:00Z</time>
      </trkpt>
      <trkpt lat="38.3025380" lon="-0.6181190">
        <ele>99.7</ele>
        <time>2019-10-19T10:03:01Z</time>
      </trkpt>
      <trkpt lat="38.3025210" lon="-0.6181500">
        <ele>99.8</ele>
        <time>2019-10-19T10:03:02Z</time>
      </trkpt>
      <trkpt lat="38.3024680" lon="-0.6182650">
        <ele>100.1</ele>
        <time>2019-10-19T10:03:03Z</time>
      </trkpt>
      <trkpt lat="38.3024480" lon="-0.6183190">
        <ele>100.3</ele>
        <time>2019-10-19T10:03:04Z</time>
      </trkpt>
      <trkpt lat="38.3024090" lon="-0.6184260">
        <ele>100.8</ele>
        <time>2019-10-19T10:03:05Z</time>
      </trkpt>
      <trkpt lat="38.3023880" lon="-0.6185050">
        <ele>101.1</ele>
        <time>2019-10-19T10:03:06Z</time>
      </trkpt>
      <trkpt lat="38.3023780" lon="-0.6185440">
        <ele>101.3</ele>
        <time>2019-10-19T10:03:07Z</time>
      </trkpt>
      <trkpt lat="38.3023670" lon="-0.6185830">
        <ele>101.4</ele>
        <time>2019-10-19T10:03:08Z</time>
      </trkpt>
      <trkpt lat="38.3023460" lon="-0.6186620">
        <ele>101.6</ele>
        <time>2019-10-19T10:03:09Z</time>
      </trkpt>
      <trkpt lat="38.3023260" lon="-0.6187420">
        <ele>101.8</ele>
        <time>2019-10-19T10:03:10Z</time>
      </trkpt>
      <trkpt lat="38.3023070" lon="-0.6188230">
        <ele>102.0</ele>
        <time>2019-10-19T10:03:11Z</time>
      </trkpt>
      <trkpt lat="38.3022890" lon="-0.6189040">
        <ele>102.2</ele>
        <time>2019-10-19T10:03:12Z</time>
      </trkpt>
      <trkpt lat="38.3022690" lon="-0.6189870">
        <ele>102.4</ele>
        <time>2019-10-19T10:03:13Z</time>
      </trkpt>
      <trkpt lat="38.3022440" lon="-0.6190670">
        <ele>102.6</ele>
        <time>2019-10-19T10:03:14Z</time>
      </trkpt>
      <trkpt lat="38.3021770" lon="-0.6192200">
        <ele>102.7</ele>
        <time>2019-10-19T10:03:15Z</time>
      </trkpt>
      <trkpt lat="38.3021540" lon="-0.6192530">
        <ele>102.8</ele>
        <time>2019-10-19T10:03:16Z</time>
      </trkpt>
      <trkpt lat="38.3021300" lon="-0.6192860">
        <ele>102.8</ele>
        <time>2019-10-19T10:03:17Z</time>
      </trkpt>
      <trkpt lat="38.3020570" lon="-0.6193820">
        <ele>103.0</ele>
        <time>2019-10-19T10:03:18Z</time>
      </trkpt>
      <trkpt lat="38.3020310" lon="-0.6194120">
        <ele>103.1</ele>
        <time>2019-10-19T10:03:19Z</time>
      </trkpt>
      <trkpt lat="38.3019770" lon="-0.6194720">
        <ele>103.3</ele>
        <time>2019-10-19T10:03:20Z</time>
      </trkpt>
      <trkpt lat="38.3018720" lon="-0.6195900">
        <ele>103.6</ele>
        <time>2019-10-19T10:03:21Z</time>
      </trkpt>
      <trkpt lat="38.3018470" lon="-0.6196200">
        <ele>103.6</ele>
        <time>2019-10-19T10:03:22Z</time>
      </trkpt>
      <trkpt lat="38.3018220" lon="-0.6196490">
        <ele>103.6</ele>
        <time>2019-10-19T10:03:23Z</time>
      </trkpt>
      <trkpt lat="38.3017720" lon="-0.6197060">
        <ele>103.7</ele>
        <time>2019-10-19T10:03:24Z</time>
      </trkpt>
      <trkpt lat="38.3017210" lon="-0.6197620">
        <ele>103.7</ele>
        <time>2019-10-19T10:03:25Z</time>
      </trkpt>
      <trkpt lat="38.3016210" lon="-0.6198680">
        <ele>103.7</ele>
        <time>2019-10-19T10:03:26Z</time>
      </trkpt>
      <trkpt lat="38.3015960" lon="-0.6198950">
        <ele>103.7</ele>
        <time>2019-10-19T10:03:27Z</time>
      </trkpt>
      <trkpt lat="38.3015700" lon="-0.6199210">
        <ele>103.7</ele>
        <time>2019-10-19T10:03:28Z</time>
      </trkpt>
      <trkpt lat="38.3015220" lon="-0.6199740">
        <ele>103.7</ele>
        <time>2019-10-19T10:03:29Z</time>
      </trkpt>
      <trkpt lat="38.3014760" lon="-0.6200270">
        <ele>103.7</ele>
        <time>2019-10-19T10:03:30Z</time>
      </trkpt>
      <trkpt lat="38.3014290" lon="-0.6200810">
        <ele>103.7</ele>
        <time>2019-10-19T10:03:31Z</time>
      </trkpt>
      <trkpt lat="38.3013850" lon="-0.6201320">
        <ele>103.7</ele>
        <time>2019-10-19T10:03:32Z</time>
      </trkpt>
      <trkpt lat="38.3013390" lon="-0.6201840">
        <ele>103.9</ele>
        <time>2019-10-19T10:03:33Z</time>
      </trkpt>
      <trkpt lat="38.3012920" lon="-0.6202370">
        <ele>104.1</ele>
        <time>2019-10-19T10:03:34Z</time>
      </trkpt>
      <trkpt lat="38.3012450" lon="-0.6202910">
        <ele>104.2</ele>
        <time>2019-10-19T10:03:35Z</time>
      </trkpt>
      <trkpt lat="38.3011950" lon="-0.6203460">
        <ele>104.4</ele>
        <time>2019-10-19T10:03:36Z</time>
      </trkpt>
      <trkpt lat="38.3011430" lon="-0.6204020">
        <ele>104.5</ele>
        <time>2019-10-19T10:03:37Z</time>
      </trkpt>
      <trkpt lat="38.3010910" lon="-0.6204580">
        <ele>104.6</ele>
        <time>2019-10-19T10:03:38Z</time>
      </trkpt>
      <trkpt lat="38.3010370" lon="-0.6205140">
        <ele>104.6</ele>
        <time>2019-10-19T10:03:39Z</time>
      </trkpt>
      <trkpt lat="38.3009310" lon="-0.6206340">
        <ele>104.6</ele>
        <time>2019-10-19T10:03:40Z</time>
      </trkpt>
      <trkpt lat="38.3009050" lon="-0.6206650">
        <ele>104.6</ele>
        <time>2019-10-19T10:03:41Z</time>
      </trkpt>
      <trkpt lat="38.3008790" lon="-0.6206960">
        <ele>104.6</ele>
        <time>2019-10-19T10:03:42Z</time>
      </trkpt>
      <trkpt lat="38.3007750" lon="-0.6208250">
        <ele>104.6</ele>
        <time>2019-10-19T10:03:43Z</time>
      </trkpt>
      <trkpt lat="38.3007250" lon="-0.6208890">
        <ele>104.6</ele>
        <time>2019-10-19T10:03:44Z</time>
      </trkpt>
      <trkpt lat="38.3007010" lon="-0.6209210">
        <ele>104.6</ele>
        <time>2019-10-19T10:03:45Z</time>
      </trkpt>
      <trkpt lat="38.3006770" lon="-0.6209520">
        <ele>104.6</ele>
        <time>2019-10-19T10:03:46Z</time>
      </trkpt>
      <trkpt lat="38.3006290" lon="-0.6210150">
        <ele>104.6</ele>
        <time>2019-10-19T10:03:47Z</time>
      </trkpt>
      <trkpt lat="38.3005800" lon="-0.6210780">
        <ele>104.6</ele>
        <time>2019-10-19T10:03:48Z</time>
      </trkpt>
      <trkpt lat="38.3004840" lon="-0.6212040">
        <ele>104.4</ele>
        <time>2019-10-19T10:03:49Z</time>
      </trkpt>
      <trkpt lat="38.3004410" lon="-0.6212740">
        <ele>104.4</ele>
        <time>2019-10-19T10:03:50Z</time>
      </trkpt>
      <trkpt lat="38.3004220" lon="-0.6213140">
        <ele>104.3</ele>
        <time>2019-10-19T10:03:51Z</time>
      </trkpt>
      <trkpt lat="38.3004020" lon="-0.6213530">
        <ele>104.3</ele>
        <time>2019-10-19T10:03:52Z</time>
      </trkpt>
      <trkpt lat="38.3003670" lon="-0.6214370">
        <ele>104.1</ele>
        <time>2019-10-19T10:03:53Z</time>
      </trkpt>
      <trkpt lat="38.3003270" lon="-0.6215190">
        <ele>104.0</ele>
        <time>2019-10-19T10:03:54Z</time>
      </trkpt>
      <trkpt lat="38.3002680" lon="-0.6216970">
        <ele>103.6</ele>
        <time>2019-10-19T10:03:55Z</time>
      </trkpt>
      <trkpt lat="38.3002560" lon="-0.6217430">
        <ele>103.5</ele>
        <time>2019-10-19T10:03:56Z</time>
      </trkpt>
      <trkpt lat="38.3002440" lon="-0.6217890">
        <ele>103.4</ele>
        <time>2019-10-19T10:03:57Z</time>
      </trkpt>
      <trkpt lat="38.3002180" lon="-0.6218780">
        <ele>103.2</ele>
        <time>2019-10-19T10:03:58Z</time>
      </trkpt>
      <trkpt lat="38.3001920" lon="-0.6219660">
        <ele>103.0</ele>
        <time>2019-10-19T10:03:59Z</time>
      </trkpt>
      <trkpt lat="38.3001670" lon="-0.6220560">
        <ele>102.9</ele>
        <time>2019-10-19T10:04:00Z</time>
      </trkpt>
      <trkpt lat="38.3001250" lon="-0.6222420">
        <ele>102.7</ele>
        <time>2019-10-19T10:04:01Z</time>
      </trkpt>
      <trkpt lat="38.3001140" lon="-0.6222890">
        <ele>102.6</ele>
        <time>2019-10-19T10:04:02Z</time>
      </trkpt>
      <trkpt lat="38.3001020" lon="-0.6223350">
        <ele>102.6</ele>
        <time>2019-10-19T10:04:03Z</time>
      </trkpt>
      <trkpt lat="38.3000640" lon="-0.6224720">
        <ele>102.5</ele>
        <time>2019-10-19T10:04:04Z</time>
      </trkpt>
      <trkpt lat="38.3000490" lon="-0.6225170">
        <ele>102.5</ele>
        <time>2019-10-19T10:04:05Z</time>
      </trkpt>
      <trkpt lat="38.3000040" lon="-0.6226510">
        <ele>102.5</ele>
        <time>2019-10-19T10:04:06Z</time>
      </trkpt>
      <trkpt lat="38.2999880" lon="-0.6226950">
        <ele>102.5</ele>
        <time>2019-10-19T10:04:07Z</time>
      </trkpt>
      <trkpt lat="38.2999210" lon="-0.6228720">
        <ele>102.5</ele>
        <time>2019-10-19T10:04:08Z</time>
      </trkpt>
      <trkpt lat="38.2999040" lon="-0.6229150">
        <ele>102.5</ele>
        <time>2019-10-19T10:04:09Z</time>
      </trkpt>
      <trkpt lat="38.2998860" lon="-0.6229580">
        <ele>102.5</ele>
        <time>2019-10-19T10:04:10Z</time>
      </trkpt>
      <trkpt lat="38.2998160" lon="-0.6231300">
        <ele>102.5</ele>
        <time>2019-10-19T10:04:11Z</time>
      </trkpt>
      <trkpt lat="38.2997990" lon="-0.6231730">
        <ele>102.4</ele>
        <time>2019-10-19T10:04:12Z</time>
      </trkpt>
      <trkpt lat="38.2997820" lon="-0.6232160">
        <ele>102.4</ele>
        <time>2019-10-19T10:04:13Z</time>
      </trkpt>
      <trkpt lat="38.2997490" lon="-0.6233050">
        <ele>102.2</ele>
        <time>2019-10-19T10:04:14Z</time>
      </trkpt>
      <trkpt lat="38.2996840" lon="-0.6234820">
        <ele>101.9</ele>
        <time>2019-10-19T10:04:15Z</time>
      </trkpt>
      <trkpt lat="38.2996690" lon="-0.6235270">
        <ele>101.8</ele>
        <time>2019-10-19T10:04:16Z</time>
      </trkpt>
      <trkpt lat="38.2996530" lon="-0.6235720">
        <ele>101.7</ele>
        <time>2019-10-19T10:04:17Z</time>
      </trkpt>
      <trkpt lat="38.2996230" lon="-0.6236630">
        <ele>101.6</ele>
        <time>2019-10-19T10:04:18Z</time>
      </trkpt>
      <trkpt lat="38.2995650" lon="-0.6238460">
        <ele>101.5</ele>
        <time>2019-10-19T10:04:19Z</time>
      </trkpt>
      <trkpt lat="38.2995520" lon="-0.6238940">
        <ele>101.5</ele>
        <time>2019-10-19T10:04:20Z</time>
      </trkpt>
      <trkpt lat="38.2995380" lon="-0.6239410">
        <ele>101.5</ele>
        <time>2019-10-19T10:04:21Z</time>
      </trkpt>
      <trkpt lat="38.2995100" lon="-0.6240330">
        <ele>101.5</ele>
        <time>2019-10-19T10:04:22Z</time>
      </trkpt>
      <trkpt lat="38.2994830" lon="-0.6241240">
        <ele>101.5</ele>
        <time>2019-10-19T10:04:23Z</time>
      </trkpt>
      <trkpt lat="38.2994550" lon="-0.6242130">
        <ele>101.5</ele>
        <time>2019-10-19T10:04:24Z</time>
      </trkpt>
      <trkpt lat="38.2993920" lon="-0.6243870">
        <ele>101.5</ele>
        <time>2019-10-19T10:04:25Z</time>
      </trkpt>
      <trkpt lat="38.2993750" lon="-0.6244300">
        <ele>101.5</ele>
        <time>2019-10-19T10:04:26Z</time>
      </trkpt>
      <trkpt lat="38.2993580" lon="-0.6244730">
        <ele>101.5</ele>
        <time>2019-10-19T10:04:27Z</time>
      </trkpt>
      <trkpt lat="38.2993250" lon="-0.6245590">
        <ele>101.5</ele>
        <time>2019-10-19T10:04:28Z</time>
      </trkpt>
      <trkpt lat="38.2992930" lon="-0.6246460">
        <ele>101.5</ele>
        <time>2019-10-19T10:04:29Z</time>
      </trkpt>
      <trkpt lat="38.2992630" lon="-0.6247330">
        <ele>101.5</ele>
        <time>2019-10-19T10:04:30Z</time>
      </trkpt>
      <trkpt lat="38.2992330" lon="-0.6248210">
        <ele>101.4</ele>
        <time>2019-10-19T10:04:31Z</time>
      </trkpt>
      <trkpt lat="38.2991740" lon="-0.6249980">
        <ele>101.1</ele>
        <time>2019-10-19T10:04:32Z</time>
      </trkpt>
      <trkpt lat="38.2991610" lon="-0.6250430">
        <ele>101.0</ele>
        <time>2019-10-19T10:04:33Z</time>
      </trkpt>
      <trkpt lat="38.2991470" lon="-0.6250870">
        <ele>100.9</ele>
        <time>2019-10-19T10:04:34Z</time>
      </trkpt>
      <trkpt lat="38.2990980" lon="-0.6252700">
        <ele>100.7</ele>
        <time>2019-10-19T10:04:35Z</time>
      </trkpt>
      <trkpt lat="38.2990780" lon="-0.6253370">
        <ele>100.6</ele>
        <time>2019-10-19T10:04:36Z</time>
      </trkpt>
      <trkpt lat="38.2990580" lon="-0.6254040">
        <ele>100.6</ele>
        <time>2019-10-19T10:04:37Z</time>
      </trkpt>
      <trkpt lat="38.2990170" lon="-0.6255370">
        <ele>100.6</ele>
        <time>2019-10-19T10:04:38Z</time>
      </trkpt>
      <trkpt lat="38.2990020" lon="-0.6255810">
        <ele>100.6</ele>
        <time>2019-10-19T10:04:39Z</time>
      </trkpt>
      <trkpt lat="38.2989860" lon="-0.6256240">
        <ele>100.6</ele>
        <time>2019-10-19T10:04:40Z</time>
      </trkpt>
      <trkpt lat="38.2989490" lon="-0.6257070">
        <ele>100.6</ele>
        <time>2019-10-19T10:04:41Z</time>
      </trkpt>
      <trkpt lat="38.2989120" lon="-0.6257900">
        <ele>100.6</ele>
        <time>2019-10-19T10:04:42Z</time>
      </trkpt>
      <trkpt lat="38.2988730" lon="-0.6258730">
        <ele>100.6</ele>
        <time>2019-10-19T10:04:43Z</time>
      </trkpt>
      <trkpt lat="38.2988350" lon="-0.6259560">
        <ele>100.6</ele>
        <time>2019-10-19T10:04:44Z</time>
      </trkpt>
      <trkpt lat="38.2987970" lon="-0.6260390">
        <ele>100.6</ele>
        <time>2019-10-19T10:04:45Z</time>
      </trkpt>
      <trkpt lat="38.2987610" lon="-0.6261240">
        <ele>100.6</ele>
        <time>2019-10-19T10:04:46Z</time>
      </trkpt>
      <trkpt lat="38.2987280" lon="-0.6262100">
        <ele>100.6</ele>
        <time>2019-10-19T10:04:47Z</time>
      </trkpt>
      <trkpt lat="38.2986980" lon="-0.6262990">
        <ele>100.6</ele>
        <time>2019-10-19T10:04:48Z</time>
      </trkpt>
      <trkpt lat="38.2986700" lon="-0.6263890">
        <ele>100.6</ele>
        <time>2019-10-19T10:04:49Z</time>
      </trkpt>
      <trkpt lat="38.2986420" lon="-0.6264810">
        <ele>100.6</ele>
        <time>2019-10-19T10:04:50Z</time>
      </trkpt>
      <trkpt lat="38.2986140" lon="-0.6265720">
        <ele>100.6</ele>
        <time>2019-10-19T10:04:51Z</time>
      </trkpt>
      <trkpt lat="38.2985880" lon="-0.6266640">
        <ele>100.6</ele>
        <time>2019-10-19T10:04:52Z</time>
      </trkpt>
      <trkpt lat="38.2985630" lon="-0.6267570">
        <ele>100.6</ele>
        <time>2019-10-19T10:04:53Z</time>
      </trkpt>
      <trkpt lat="38.2985370" lon="-0.6268480">
        <ele>100.6</ele>
        <time>2019-10-19T10:04:54Z</time>
      </trkpt>
      <trkpt lat="38.2985110" lon="-0.6269420">
        <ele>100.5</ele>
        <time>2019-10-19T10:04:55Z</time>
      </trkpt>
      <trkpt lat="38.2984850" lon="-0.6270350">
        <ele>100.3</ele>
        <time>2019-10-19T10:04:56Z</time>
      </trkpt>
      <trkpt lat="38.2984580" lon="-0.6271260">
        <ele>100.2</ele>
        <time>2019-10-19T10:04:57Z</time>
      </trkpt>
      <trkpt lat="38.2984050" lon="-0.6273100">
        <ele>99.8</ele>
        <time>2019-10-19T10:04:58Z</time>
      </trkpt>
      <trkpt lat="38.2983910" lon="-0.6273560">
        <ele>99.8</ele>
        <time>2019-10-19T10:04:59Z</time>
      </trkpt>
      <trkpt lat="38.2983770" lon="-0.6274010">
        <ele>99.8</ele>
        <time>2019-10-19T10:05:00Z</time>
      </trkpt>
      <trkpt lat="38.2983510" lon="-0.6274930">
        <ele>99.7</ele>
        <time>2019-10-19T10:05:01Z</time>
      </trkpt>
      <trkpt lat="38.2983230" lon="-0.6275830">
        <ele>99.7</ele>
        <time>2019-10-19T10:05:02Z</time>
      </trkpt>
      <trkpt lat="38.2982950" lon="-0.6276730">
        <ele>99.7</ele>
        <time>2019-10-19T10:05:03Z</time>
      </trkpt>
      <trkpt lat="38.2982410" lon="-0.6278470">
        <ele>99.7</ele>
        <time>2019-10-19T10:05:04Z</time>
      </trkpt>
      <trkpt lat="38.2982270" lon="-0.6278900">
        <ele>99.7</ele>
        <time>2019-10-19T10:05:05Z</time>
      </trkpt>
      <trkpt lat="38.2982120" lon="-0.6279330">
        <ele>99.7</ele>
        <time>2019-10-19T10:05:06Z</time>
      </trkpt>
      <trkpt lat="38.2981840" lon="-0.6280220">
        <ele>99.7</ele>
        <time>2019-10-19T10:05:07Z</time>
      </trkpt>
      <trkpt lat="38.2981590" lon="-0.6281100">
        <ele>99.7</ele>
        <time>2019-10-19T10:05:08Z</time>
      </trkpt>
      <trkpt lat="38.2981330" lon="-0.6281980">
        <ele>99.7</ele>
        <time>2019-10-19T10:05:09Z</time>
      </trkpt>
      <trkpt lat="38.2981070" lon="-0.6282850">
        <ele>99.7</ele>
        <time>2019-10-19T10:05:10Z</time>
      </trkpt>
      <trkpt lat="38.2980800" lon="-0.6283720">
        <ele>99.8</ele>
        <time>2019-10-19T10:05:11Z</time>
      </trkpt>
      <trkpt lat="38.2980530" lon="-0.6284570">
        <ele>99.8</ele>
        <time>2019-10-19T10:05:12Z</time>
      </trkpt>
      <trkpt lat="38.2980270" lon="-0.6285410">
        <ele>99.8</ele>
        <time>2019-10-19T10:05:13Z</time>
      </trkpt>
      <trkpt lat="38.2980010" lon="-0.6286240">
        <ele>99.8</ele>
        <time>2019-10-19T10:05:14Z</time>
      </trkpt>
      <trkpt lat="38.2979770" lon="-0.6287080">
        <ele>99.8</ele>
        <time>2019-10-19T10:05:15Z</time>
      </trkpt>
      <trkpt lat="38.2979300" lon="-0.6288720">
        <ele>99.9</ele>
        <time>2019-10-19T10:05:16Z</time>
      </trkpt>
      <trkpt lat="38.2979190" lon="-0.6289130">
        <ele>99.9</ele>
        <time>2019-10-19T10:05:17Z</time>
      </trkpt>
      <trkpt lat="38.2979080" lon="-0.6289540">
        <ele>100.0</ele>
        <time>2019-10-19T10:05:18Z</time>
      </trkpt>
      <trkpt lat="38.2978850" lon="-0.6290350">
        <ele>100.0</ele>
        <time>2019-10-19T10:05:19Z</time>
      </trkpt>
      <trkpt lat="38.2978610" lon="-0.6291160">
        <ele>100.0</ele>
        <time>2019-10-19T10:05:20Z</time>
      </trkpt>
      <trkpt lat="38.2978370" lon="-0.6291970">
        <ele>100.1</ele>
        <time>2019-10-19T10:05:21Z</time>
      </trkpt>
      <trkpt lat="38.2978120" lon="-0.6292770">
        <ele>100.1</ele>
        <time>2019-10-19T10:05:22Z</time>
      </trkpt>
      <trkpt lat="38.2977900" lon="-0.6293570">
        <ele>100.2</ele>
        <time>2019-10-19T10:05:23Z</time>
      </trkpt>
      <trkpt lat="38.2977400" lon="-0.6295150">
        <ele>100.2</ele>
        <time>2019-10-19T10:05:24Z</time>
      </trkpt>
      <trkpt lat="38.2977280" lon="-0.6295550">
        <ele>100.2</ele>
        <time>2019-10-19T10:05:25Z</time>
      </trkpt>
      <trkpt lat="38.2977160" lon="-0.6295940">
        <ele>100.2</ele>
        <time>2019-10-19T10:05:26Z</time>
      </trkpt>
      <trkpt lat="38.2976910" lon="-0.6296720">
        <ele>100.2</ele>
        <time>2019-10-19T10:05:27Z</time>
      </trkpt>
      <trkpt lat="38.2976670" lon="-0.6297490">
        <ele>100.2</ele>
        <time>2019-10-19T10:05:28Z</time>
      </trkpt>
      <trkpt lat="38.2976420" lon="-0.6298280">
        <ele>100.2</ele>
        <time>2019-10-19T10:05:29Z</time>
      </trkpt>
      <trkpt lat="38.2976180" lon="-0.6299070">
        <ele>100.1</ele>
        <time>2019-10-19T10:05:30Z</time>
      </trkpt>
      <trkpt lat="38.2975900" lon="-0.6299840">
        <ele>100.0</ele>
        <time>2019-10-19T10:05:31Z</time>
      </trkpt>
      <trkpt lat="38.2975220" lon="-0.6301290">
        <ele>99.8</ele>
        <time>2019-10-19T10:05:32Z</time>
      </trkpt>
      <trkpt lat="38.2975020" lon="-0.6301640">
        <ele>99.7</ele>
        <time>2019-10-19T10:05:33Z</time>
      </trkpt>
      <trkpt lat="38.2974820" lon="-0.6301980">
        <ele>99.6</ele>
        <time>2019-10-19T10:05:34Z</time>
      </trkpt>
      <trkpt lat="38.2974390" lon="-0.6302640">
        <ele>99.5</ele>
        <time>2019-10-19T10:05:35Z</time>
      </trkpt>
      <trkpt lat="38.2973930" lon="-0.6303260">
        <ele>99.3</ele>
        <time>2019-10-19T10:05:36Z</time>
      </trkpt>
      <trkpt lat="38.2973430" lon="-0.6303840">
        <ele>99.1</ele>
        <time>2019-10-19T10:05:37Z</time>
      </trkpt>
      <trkpt lat="38.2972900" lon="-0.6304380">
        <ele>99.0</ele>
        <time>2019-10-19T10:05:38Z</time>
      </trkpt>
      <trkpt lat="38.2972340" lon="-0.6304890">
        <ele>99.0</ele>
        <time>2019-10-19T10:05:39Z</time>
      </trkpt>
      <trkpt lat="38.2971780" lon="-0.6305360">
        <ele>98.9</ele>
        <time>2019-10-19T10:05:40Z</time>
      </trkpt>
      <trkpt lat="38.2971200" lon="-0.6305790">
        <ele>98.9</ele>
        <time>2019-10-19T10:05:41Z</time>
      </trkpt>
      <trkpt lat="38.2970610" lon="-0.6306190">
        <ele>99.0</ele>
        <time>2019-10-19T10:05:42Z</time>
      </trkpt>
      <trkpt lat="38.2970000" lon="-0.6306560">
        <ele>99.1</ele>
        <time>2019-10-19T10:05:43Z</time>
      </trkpt>
      <trkpt lat="38.2969400" lon="-0.6306930">
        <ele>99.2</ele>
        <time>2019-10-19T10:05:44Z</time>
      </trkpt>
      <trkpt lat="38.2968320" lon="-0.6307870">
        <ele>99.5</ele>
        <time>2019-10-19T10:05:45Z</time>
      </trkpt>
      <trkpt lat="38.2968130" lon="-0.6308200">
        <ele>99.5</ele>
        <time>2019-10-19T10:05:46Z</time>
      </trkpt>
      <trkpt lat="38.2967930" lon="-0.6308520">
        <ele>99.7</ele>
        <time>2019-10-19T10:05:47Z</time>
      </trkpt>
      <trkpt lat="38.2967630" lon="-0.6309240">
        <ele>99.7</ele>
        <time>2019-10-19T10:05:48Z</time>
      </trkpt>
      <trkpt lat="38.2967350" lon="-0.6309980">
        <ele>99.8</ele>
        <time>2019-10-19T10:05:49Z</time>
      </trkpt>
      <trkpt lat="38.2966610" lon="-0.6311340">
        <ele>99.9</ele>
        <time>2019-10-19T10:05:50Z</time>
      </trkpt>
      <trkpt lat="38.2966210" lon="-0.6311690">
        <ele>100.0</ele>
        <time>2019-10-19T10:05:51Z</time>
      </trkpt>
      <trkpt lat="38.2965800" lon="-0.6312030">
        <ele>100.0</ele>
        <time>2019-10-19T10:05:52Z</time>
      </trkpt>
      <trkpt lat="38.2964980" lon="-0.6312710">
        <ele>100.2</ele>
        <time>2019-10-19T10:05:53Z</time>
      </trkpt>
      <trkpt lat="38.2964560" lon="-0.6313080">
        <ele>100.3</ele>
        <time>2019-10-19T10:05:54Z</time>
      </trkpt>
      <trkpt lat="38.2964140" lon="-0.6313440">
        <ele>100.3</ele>
        <time>2019-10-19T10:05:55Z</time>
      </trkpt>
      <trkpt lat="38.2963300" lon="-0.6314170">
        <ele>100.6</ele>
        <time>2019-10-19T10:05:56Z</time>
      </trkpt>
      <trkpt lat="38.2963080" lon="-0.6314520">
        <ele>100.7</ele>
        <time>2019-10-19T10:05:57Z</time>
      </trkpt>
      <trkpt lat="38.2962860" lon="-0.6314860">
        <ele>100.8</ele>
        <time>2019-10-19T10:05:58Z</time>
      </trkpt>
      <trkpt lat="38.2962260" lon="-0.6315930">
        <ele>101.1</ele>
        <time>2019-10-19T10:05:59Z</time>
      </trkpt>
      <trkpt lat="38.2962100" lon="-0.6316320">
        <ele>101.2</ele>
        <time>2019-10-19T10:06:00Z</time>
      </trkpt>
      <trkpt lat="38.2961840" lon="-0.6317130">
        <ele>101.4</ele>
        <time>2019-10-19T10:06:01Z</time>
      </trkpt>
      <trkpt lat="38.2961360" lon="-0.6318770">
        <ele>101.9</ele>
        <time>2019-10-19T10:06:02Z</time>
      </trkpt>
      <trkpt lat="38.2961240" lon="-0.6319180">
        <ele>102.0</ele>
        <time>2019-10-19T10:06:03Z</time>
      </trkpt>
      <trkpt lat="38.2961110" lon="-0.6319580">
        <ele>102.0</ele>
        <time>2019-10-19T10:06:04Z</time>
      </trkpt>
      <trkpt lat="38.2960890" lon="-0.6320430">
        <ele>102.2</ele>
        <time>2019-10-19T10:06:05Z</time>
      </trkpt>
      <trkpt lat="38.2960680" lon="-0.6321270">
        <ele>102.3</ele>
        <time>2019-10-19T10:06:06Z</time>
      </trkpt>
      <trkpt lat="38.2960460" lon="-0.6322100">
        <ele>102.4</ele>
        <time>2019-10-19T10:06:07Z</time>
      </trkpt>
      <trkpt lat="38.2960220" lon="-0.6322940">
        <ele>102.4</ele>
        <time>2019-10-19T10:06:08Z</time>
      </trkpt>
      <trkpt lat="38.2959980" lon="-0.6323760">
        <ele>102.4</ele>
        <time>2019-10-19T10:06:09Z</time>
      </trkpt>
      <trkpt lat="38.2959730" lon="-0.6324580">
        <ele>102.4</ele>
        <time>2019-10-19T10:06:10Z</time>
      </trkpt>
      <trkpt lat="38.2959490" lon="-0.6325400">
        <ele>102.4</ele>
        <time>2019-10-19T10:06:11Z</time>
      </trkpt>
      <trkpt lat="38.2959230" lon="-0.6326230">
        <ele>102.4</ele>
        <time>2019-10-19T10:06:12Z</time>
      </trkpt>
      <trkpt lat="38.2958980" lon="-0.6327060">
        <ele>102.4</ele>
        <time>2019-10-19T10:06:13Z</time>
      </trkpt>
      <trkpt lat="38.2958720" lon="-0.6327870">
        <ele>102.5</ele>
        <time>2019-10-19T10:06:14Z</time>
      </trkpt>
      <trkpt lat="38.2958460" lon="-0.6328690">
        <ele>102.5</ele>
        <time>2019-10-19T10:06:15Z</time>
      </trkpt>
      <trkpt lat="38.2958200" lon="-0.6329500">
        <ele>102.5</ele>
        <time>2019-10-19T10:06:16Z</time>
      </trkpt>
      <trkpt lat="38.2957670" lon="-0.6331110">
        <ele>102.6</ele>
        <time>2019-10-19T10:06:17Z</time>
      </trkpt>
      <trkpt lat="38.2957420" lon="-0.6331920">
        <ele>102.7</ele>
        <time>2019-10-19T10:06:18Z</time>
      </trkpt>
      <trkpt lat="38.2957300" lon="-0.6332340">
        <ele>102.8</ele>
        <time>2019-10-19T10:06:19Z</time>
      </trkpt>
      <trkpt lat="38.2957180" lon="-0.6332750">
        <ele>102.8</ele>
        <time>2019-10-19T10:06:20Z</time>
      </trkpt>
      <trkpt lat="38.2956920" lon="-0.6333580">
        <ele>103.0</ele>
        <time>2019-10-19T10:06:21Z</time>
      </trkpt>
      <trkpt lat="38.2956660" lon="-0.6334390">
        <ele>103.2</ele>
        <time>2019-10-19T10:06:22Z</time>
      </trkpt>
      <trkpt lat="38.2956390" lon="-0.6335210">
        <ele>103.3</ele>
        <time>2019-10-19T10:06:23Z</time>
      </trkpt>
      <trkpt lat="38.2956140" lon="-0.6336020">
        <ele>103.4</ele>
        <time>2019-10-19T10:06:24Z</time>
      </trkpt>
      <trkpt lat="38.2955880" lon="-0.6336830">
        <ele>103.4</ele>
        <time>2019-10-19T10:06:25Z</time>
      </trkpt>
      <trkpt lat="38.2955620" lon="-0.6337650">
        <ele>103.5</ele>
        <time>2019-10-19T10:06:26Z</time>
      </trkpt>
      <trkpt lat="38.2955350" lon="-0.6338470">
        <ele>103.6</ele>
        <time>2019-10-19T10:06:27Z</time>
      </trkpt>
      <trkpt lat="38.2955080" lon="-0.6339280">
        <ele>103.7</ele>
        <time>2019-10-19T10:06:28Z</time>
      </trkpt>
      <trkpt lat="38.2954800" lon="-0.6340080">
        <ele>103.9</ele>
        <time>2019-10-19T10:06:29Z</time>
      </trkpt>
      <trkpt lat="38.2954540" lon="-0.6340890">
        <ele>104.1</ele>
        <time>2019-10-19T10:06:30Z</time>
      </trkpt>
      <trkpt lat="38.2954270" lon="-0.6341700">
        <ele>104.2</ele>
        <time>2019-10-19T10:06:31Z</time>
      </trkpt>
      <trkpt lat="38.2953990" lon="-0.6342520">
        <ele>104.3</ele>
        <time>2019-10-19T10:06:32Z</time>
      </trkpt>
      <trkpt lat="38.2953720" lon="-0.6343340">
        <ele>104.4</ele>
        <time>2019-10-19T10:06:33Z</time>
      </trkpt>
      <trkpt lat="38.2953440" lon="-0.6344160">
        <ele>104.4</ele>
        <time>2019-10-19T10:06:34Z</time>
      </trkpt>
      <trkpt lat="38.2953180" lon="-0.6344960">
        <ele>104.4</ele>
        <time>2019-10-19T10:06:35Z</time>
      </trkpt>
      <trkpt lat="38.2952610" lon="-0.6346550">
        <ele>104.5</ele>
        <time>2019-10-19T10:06:36Z</time>
      </trkpt>
      <trkpt lat="38.2952470" lon="-0.6346950">
        <ele>104.5</ele>
        <time>2019-10-19T10:06:37Z</time>
      </trkpt>
      <trkpt lat="38.2952320" lon="-0.6347340">
        <ele>104.5</ele>
        <time>2019-10-19T10:06:38Z</time>
      </trkpt>
      <trkpt lat="38.2952020" lon="-0.6348130">
        <ele>104.5</ele>
        <time>2019-10-19T10:06:39Z</time>
      </trkpt>
      <trkpt lat="38.2951730" lon="-0.6348920">
        <ele>104.5</ele>
        <time>2019-10-19T10:06:40Z</time>
      </trkpt>
      <trkpt lat="38.2951150" lon="-0.6350510">
        <ele>104.5</ele>
        <time>2019-10-19T10:06:41Z</time>
      </trkpt>
      <trkpt lat="38.2951000" lon="-0.6350910">
        <ele>104.5</ele>
        <time>2019-10-19T10:06:42Z</time>
      </trkpt>
      <trkpt lat="38.2950840" lon="-0.6351310">
        <ele>104.5</ele>
        <time>2019-10-19T10:06:43Z</time>
      </trkpt>
      <trkpt lat="38.2950530" lon="-0.6352120">
        <ele>104.5</ele>
        <time>2019-10-19T10:06:44Z</time>
      </trkpt>
      <trkpt lat="38.2949920" lon="-0.6353710">
        <ele>104.5</ele>
        <time>2019-10-19T10:06:45Z</time>
      </trkpt>
      <trkpt lat="38.2949760" lon="-0.6354110">
        <ele>104.5</ele>
        <time>2019-10-19T10:06:46Z</time>
      </trkpt>
      <trkpt lat="38.2949600" lon="-0.6354500">
        <ele>104.5</ele>
        <time>2019-10-19T10:06:47Z</time>
      </trkpt>
      <trkpt lat="38.2948970" lon="-0.6356080">
        <ele>104.5</ele>
        <time>2019-10-19T10:06:48Z</time>
      </trkpt>
      <trkpt lat="38.2948820" lon="-0.6356470">
        <ele>104.5</ele>
        <time>2019-10-19T10:06:49Z</time>
      </trkpt>
      <trkpt lat="38.2948660" lon="-0.6356860">
        <ele>104.5</ele>
        <time>2019-10-19T10:06:50Z</time>
      </trkpt>
      <trkpt lat="38.2948340" lon="-0.6357640">
        <ele>104.5</ele>
        <time>2019-10-19T10:06:51Z</time>
      </trkpt>
      <trkpt lat="38.2948000" lon="-0.6358420">
        <ele>104.6</ele>
        <time>2019-10-19T10:06:52Z</time>
      </trkpt>
      <trkpt lat="38.2947310" lon="-0.6359970">
        <ele>104.8</ele>
        <time>2019-10-19T10:06:53Z</time>
      </trkpt>
      <trkpt lat="38.2947140" lon="-0.6360360">
        <ele>104.9</ele>
        <time>2019-10-19T10:06:54Z</time>
      </trkpt>
      <trkpt lat="38.2946960" lon="-0.6360740">
        <ele>105.0</ele>
        <time>2019-10-19T10:06:55Z</time>
      </trkpt>
      <trkpt lat="38.2946630" lon="-0.6361510">
        <ele>105.1</ele>
        <time>2019-10-19T10:06:56Z</time>
      </trkpt>
      <trkpt lat="38.2946300" lon="-0.6362280">
        <ele>105.3</ele>
        <time>2019-10-19T10:06:57Z</time>
      </trkpt>
      <trkpt lat="38.2945960" lon="-0.6363040">
        <ele>105.4</ele>
        <time>2019-10-19T10:06:58Z</time>
      </trkpt>
      <trkpt lat="38.2945620" lon="-0.6363790">
        <ele>105.4</ele>
        <time>2019-10-19T10:06:59Z</time>
      </trkpt>
      <trkpt lat="38.2945270" lon="-0.6364540">
        <ele>105.5</ele>
        <time>2019-10-19T10:07:00Z</time>
      </trkpt>
      <trkpt lat="38.2944910" lon="-0.6365290">
        <ele>105.5</ele>
        <time>2019-10-19T10:07:01Z</time>
      </trkpt>
      <trkpt lat="38.2944560" lon="-0.6366050">
        <ele>105.5</ele>
        <time>2019-10-19T10:07:02Z</time>
      </trkpt>
      <trkpt lat="38.2944200" lon="-0.6366810">
        <ele>105.5</ele>
        <time>2019-10-19T10:07:03Z</time>
      </trkpt>
      <trkpt lat="38.2943470" lon="-0.6368330">
        <ele>105.5</ele>
        <time>2019-10-19T10:07:04Z</time>
      </trkpt>
      <trkpt lat="38.2943290" lon="-0.6368710">
        <ele>105.5</ele>
        <time>2019-10-19T10:07:05Z</time>
      </trkpt>
      <trkpt lat="38.2943100" lon="-0.6369090">
        <ele>105.5</ele>
        <time>2019-10-19T10:07:06Z</time>
      </trkpt>
      <trkpt lat="38.2942730" lon="-0.6369840">
        <ele>105.5</ele>
        <time>2019-10-19T10:07:07Z</time>
      </trkpt>
      <trkpt lat="38.2942350" lon="-0.6370590">
        <ele>105.5</ele>
        <time>2019-10-19T10:07:08Z</time>
      </trkpt>
      <trkpt lat="38.2941960" lon="-0.6371340">
        <ele>105.5</ele>
        <time>2019-10-19T10:07:09Z</time>
      </trkpt>
      <trkpt lat="38.2941560" lon="-0.6372080">
        <ele>105.5</ele>
        <time>2019-10-19T10:07:10Z</time>
      </trkpt>
      <trkpt lat="38.2941160" lon="-0.6372830">
        <ele>105.5</ele>
        <time>2019-10-19T10:07:11Z</time>
      </trkpt>
      <trkpt lat="38.2940760" lon="-0.6373580">
        <ele>105.5</ele>
        <time>2019-10-19T10:07:12Z</time>
      </trkpt>
      <trkpt lat="38.2940360" lon="-0.6374340">
        <ele>105.5</ele>
        <time>2019-10-19T10:07:13Z</time>
      </trkpt>
      <trkpt lat="38.2939560" lon="-0.6375830">
        <ele>105.5</ele>
        <time>2019-10-19T10:07:14Z</time>
      </trkpt>
      <trkpt lat="38.2939360" lon="-0.6376200">
        <ele>105.5</ele>
        <time>2019-10-19T10:07:15Z</time>
      </trkpt>
      <trkpt lat="38.2939160" lon="-0.6376570">
        <ele>105.5</ele>
        <time>2019-10-19T10:07:16Z</time>
      </trkpt>
      <trkpt lat="38.2938360" lon="-0.6378050">
        <ele>105.5</ele>
        <time>2019-10-19T10:07:17Z</time>
      </trkpt>
      <trkpt lat="38.2938160" lon="-0.6378420">
        <ele>105.5</ele>
        <time>2019-10-19T10:07:18Z</time>
      </trkpt>
      <trkpt lat="38.2937950" lon="-0.6378780">
        <ele>105.5</ele>
        <time>2019-10-19T10:07:19Z</time>
      </trkpt>
      <trkpt lat="38.2937130" lon="-0.6380240">
        <ele>105.5</ele>
        <time>2019-10-19T10:07:20Z</time>
      </trkpt>
      <trkpt lat="38.2936920" lon="-0.6380600">
        <ele>105.5</ele>
        <time>2019-10-19T10:07:21Z</time>
      </trkpt>
      <trkpt lat="38.2936710" lon="-0.6380960">
        <ele>105.5</ele>
        <time>2019-10-19T10:07:22Z</time>
      </trkpt>
      <trkpt lat="38.2936300" lon="-0.6381690">
        <ele>105.5</ele>
        <time>2019-10-19T10:07:23Z</time>
      </trkpt>
      <trkpt lat="38.2935900" lon="-0.6382430">
        <ele>105.5</ele>
        <time>2019-10-19T10:07:24Z</time>
      </trkpt>
      <trkpt lat="38.2935510" lon="-0.6383160">
        <ele>105.5</ele>
        <time>2019-10-19T10:07:25Z</time>
      </trkpt>
      <trkpt lat="38.2935110" lon="-0.6383880">
        <ele>105.5</ele>
        <time>2019-10-19T10:07:26Z</time>
      </trkpt>
      <trkpt lat="38.2934690" lon="-0.6384590">
        <ele>105.5</ele>
        <time>2019-10-19T10:07:27Z</time>
      </trkpt>
      <trkpt lat="38.2934280" lon="-0.6385290">
        <ele>105.5</ele>
        <time>2019-10-19T10:07:28Z</time>
      </trkpt>
      <trkpt lat="38.2933860" lon="-0.6386000">
        <ele>105.5</ele>
        <time>2019-10-19T10:07:29Z</time>
      </trkpt>
      <trkpt lat="38.2933450" lon="-0.6386710">
        <ele>105.5</ele>
        <time>2019-10-19T10:07:30Z</time>
      </trkpt>
      <trkpt lat="38.2932650" lon="-0.6388090">
        <ele>105.5</ele>
        <time>2019-10-19T10:07:31Z</time>
      </trkpt>
      <trkpt lat="38.2932450" lon="-0.6388440">
        <ele>105.5</ele>
        <time>2019-10-19T10:07:32Z</time>
      </trkpt>
      <trkpt lat="38.2932250" lon="-0.6388780">
        <ele>105.5</ele>
        <time>2019-10-19T10:07:33Z</time>
      </trkpt>
      <trkpt lat="38.2931430" lon="-0.6390170">
        <ele>105.6</ele>
        <time>2019-10-19T10:07:34Z</time>
      </trkpt>
      <trkpt lat="38.2931230" lon="-0.6390520">
        <ele>105.6</ele>
        <time>2019-10-19T10:07:35Z</time>
      </trkpt>
      <trkpt lat="38.2931020" lon="-0.6390860">
        <ele>105.6</ele>
        <time>2019-10-19T10:07:36Z</time>
      </trkpt>
      <trkpt lat="38.2930610" lon="-0.6391560">
        <ele>105.6</ele>
        <time>2019-10-19T10:07:37Z</time>
      </trkpt>
      <trkpt lat="38.2930200" lon="-0.6392250">
        <ele>105.6</ele>
        <time>2019-10-19T10:07:38Z</time>
      </trkpt>
      <trkpt lat="38.2929800" lon="-0.6392930">
        <ele>105.6</ele>
        <time>2019-10-19T10:07:39Z</time>
      </trkpt>
      <trkpt lat="38.2929380" lon="-0.6393630">
        <ele>105.6</ele>
        <time>2019-10-19T10:07:40Z</time>
      </trkpt>
      <trkpt lat="38.2928980" lon="-0.6394320">
        <ele>105.6</ele>
        <time>2019-10-19T10:07:41Z</time>
      </trkpt>
      <trkpt lat="38.2928560" lon="-0.6395000">
        <ele>105.6</ele>
        <time>2019-10-19T10:07:42Z</time>
      </trkpt>
      <trkpt lat="38.2928180" lon="-0.6395700">
        <ele>105.6</ele>
        <time>2019-10-19T10:07:43Z</time>
      </trkpt>
      <trkpt lat="38.2927400" lon="-0.6397060">
        <ele>105.6</ele>
        <time>2019-10-19T10:07:44Z</time>
      </trkpt>
      <trkpt lat="38.2927200" lon="-0.6397400">
        <ele>105.6</ele>
        <time>2019-10-19T10:07:45Z</time>
      </trkpt>
      <trkpt lat="38.2926990" lon="-0.6397730">
        <ele>105.6</ele>
        <time>2019-10-19T10:07:46Z</time>
      </trkpt>
      <trkpt lat="38.2926570" lon="-0.6398400">
        <ele>105.6</ele>
        <time>2019-10-19T10:07:47Z</time>
      </trkpt>
      <trkpt lat="38.2925750" lon="-0.6399780">
        <ele>105.6</ele>
        <time>2019-10-19T10:07:48Z</time>
      </trkpt>
      <trkpt lat="38.2925550" lon="-0.6400140">
        <ele>105.6</ele>
        <time>2019-10-19T10:07:49Z</time>
      </trkpt>
      <trkpt lat="38.2925350" lon="-0.6400490">
        <ele>105.6</ele>
        <time>2019-10-19T10:07:50Z</time>
      </trkpt>
      <trkpt lat="38.2924930" lon="-0.6401200">
        <ele>105.6</ele>
        <time>2019-10-19T10:07:51Z</time>
      </trkpt>
      <trkpt lat="38.2924090" lon="-0.6402640">
        <ele>105.6</ele>
        <time>2019-10-19T10:07:52Z</time>
      </trkpt>
      <trkpt lat="38.2923880" lon="-0.6403010">
        <ele>105.6</ele>
        <time>2019-10-19T10:07:53Z</time>
      </trkpt>
      <trkpt lat="38.2923670" lon="-0.6403370">
        <ele>105.6</ele>
        <time>2019-10-19T10:07:54Z</time>
      </trkpt>
      <trkpt lat="38.2923050" lon="-0.6404470">
        <ele>105.6</ele>
        <time>2019-10-19T10:07:55Z</time>
      </trkpt>
      <trkpt lat="38.2922850" lon="-0.6404840">
        <ele>105.6</ele>
        <time>2019-10-19T10:07:56Z</time>
      </trkpt>
      <trkpt lat="38.2922230" lon="-0.6405950">
        <ele>105.6</ele>
        <time>2019-10-19T10:07:57Z</time>
      </trkpt>
      <trkpt lat="38.2922020" lon="-0.6406310">
        <ele>105.6</ele>
        <time>2019-10-19T10:07:58Z</time>
      </trkpt>
      <trkpt lat="38.2921170" lon="-0.6407800">
        <ele>105.6</ele>
        <time>2019-10-19T10:07:59Z</time>
      </trkpt>
      <trkpt lat="38.2920740" lon="-0.6408550">
        <ele>105.6</ele>
        <time>2019-10-19T10:08:00Z</time>
      </trkpt>
      <trkpt lat="38.2920520" lon="-0.6408930">
        <ele>105.6</ele>
        <time>2019-10-19T10:08:01Z</time>
      </trkpt>
      <trkpt lat="38.2920300" lon="-0.6409300">
        <ele>105.6</ele>
        <time>2019-10-19T10:08:02Z</time>
      </trkpt>
      <trkpt lat="38.2919540" lon="-0.6410610">
        <ele>105.6</ele>
        <time>2019-10-19T10:08:03Z</time>
      </trkpt>
      <trkpt lat="38.2919220" lon="-0.6411180">
        <ele>105.6</ele>
        <time>2019-10-19T10:08:04Z</time>
      </trkpt>
      <trkpt lat="38.2918580" lon="-0.6412320">
        <ele>105.6</ele>
        <time>2019-10-19T10:08:05Z</time>
      </trkpt>
      <trkpt lat="38.2918370" lon="-0.6412700">
        <ele>105.6</ele>
        <time>2019-10-19T10:08:06Z</time>
      </trkpt>
      <trkpt lat="38.2918150" lon="-0.6413070">
        <ele>105.7</ele>
        <time>2019-10-19T10:08:07Z</time>
      </trkpt>
      <trkpt lat="38.2917740" lon="-0.6413830">
        <ele>105.8</ele>
        <time>2019-10-19T10:08:08Z</time>
      </trkpt>
      <trkpt lat="38.2916910" lon="-0.6415340">
        <ele>106.1</ele>
        <time>2019-10-19T10:08:09Z</time>
      </trkpt>
      <trkpt lat="38.2916480" lon="-0.6416090">
        <ele>106.2</ele>
        <time>2019-10-19T10:08:10Z</time>
      </trkpt>
      <trkpt lat="38.2916260" lon="-0.6416460">
        <ele>106.3</ele>
        <time>2019-10-19T10:08:11Z</time>
      </trkpt>
      <trkpt lat="38.2916030" lon="-0.6416830">
        <ele>106.4</ele>
        <time>2019-10-19T10:08:12Z</time>
      </trkpt>
      <trkpt lat="38.2915600" lon="-0.6417580">
        <ele>106.5</ele>
        <time>2019-10-19T10:08:13Z</time>
      </trkpt>
      <trkpt lat="38.2915170" lon="-0.6418330">
        <ele>106.5</ele>
        <time>2019-10-19T10:08:14Z</time>
      </trkpt>
      <trkpt lat="38.2914740" lon="-0.6419070">
        <ele>106.6</ele>
        <time>2019-10-19T10:08:15Z</time>
      </trkpt>
      <trkpt lat="38.2913880" lon="-0.6420560">
        <ele>106.6</ele>
        <time>2019-10-19T10:08:16Z</time>
      </trkpt>
      <trkpt lat="38.2913470" lon="-0.6421330">
        <ele>106.6</ele>
        <time>2019-10-19T10:08:17Z</time>
      </trkpt>
      <trkpt lat="38.2913270" lon="-0.6421710">
        <ele>106.6</ele>
        <time>2019-10-19T10:08:18Z</time>
      </trkpt>
      <trkpt lat="38.2913070" lon="-0.6422090">
        <ele>106.6</ele>
        <time>2019-10-19T10:08:19Z</time>
      </trkpt>
      <trkpt lat="38.2912680" lon="-0.6422860">
        <ele>106.6</ele>
        <time>2019-10-19T10:08:20Z</time>
      </trkpt>
      <trkpt lat="38.2912270" lon="-0.6423640">
        <ele>106.6</ele>
        <time>2019-10-19T10:08:21Z</time>
      </trkpt>
      <trkpt lat="38.2911870" lon="-0.6424410">
        <ele>106.6</ele>
        <time>2019-10-19T10:08:22Z</time>
      </trkpt>
      <trkpt lat="38.2911060" lon="-0.6425970">
        <ele>106.6</ele>
        <time>2019-10-19T10:08:23Z</time>
      </trkpt>
      <trkpt lat="38.2910870" lon="-0.6426370">
        <ele>106.6</ele>
        <time>2019-10-19T10:08:24Z</time>
      </trkpt>
      <trkpt lat="38.2910670" lon="-0.6426760">
        <ele>106.6</ele>
        <time>2019-10-19T10:08:25Z</time>
      </trkpt>
      <trkpt lat="38.2910080" lon="-0.6427940">
        <ele>106.6</ele>
        <time>2019-10-19T10:08:26Z</time>
      </trkpt>
      <trkpt lat="38.2909890" lon="-0.6428330">
        <ele>106.6</ele>
        <time>2019-10-19T10:08:27Z</time>
      </trkpt>
      <trkpt lat="38.2909320" lon="-0.6429500">
        <ele>106.5</ele>
        <time>2019-10-19T10:08:28Z</time>
      </trkpt>
      <trkpt lat="38.2909130" lon="-0.6429890">
        <ele>106.5</ele>
        <time>2019-10-19T10:08:29Z</time>
      </trkpt>
      <trkpt lat="38.2908750" lon="-0.6430690">
        <ele>106.4</ele>
        <time>2019-10-19T10:08:30Z</time>
      </trkpt>
      <trkpt lat="38.2908370" lon="-0.6431490">
        <ele>106.3</ele>
        <time>2019-10-19T10:08:31Z</time>
      </trkpt>
      <trkpt lat="38.2908000" lon="-0.6432290">
        <ele>106.1</ele>
        <time>2019-10-19T10:08:32Z</time>
      </trkpt>
      <trkpt lat="38.2907630" lon="-0.6433100">
        <ele>106.0</ele>
        <time>2019-10-19T10:08:33Z</time>
      </trkpt>
      <trkpt lat="38.2906910" lon="-0.6434720">
        <ele>105.7</ele>
        <time>2019-10-19T10:08:34Z</time>
      </trkpt>
      <trkpt lat="38.2906550" lon="-0.6435530">
        <ele>105.7</ele>
        <time>2019-10-19T10:08:35Z</time>
      </trkpt>
      <trkpt lat="38.2906380" lon="-0.6435940">
        <ele>105.7</ele>
        <time>2019-10-19T10:08:36Z</time>
      </trkpt>
      <trkpt lat="38.2906200" lon="-0.6436340">
        <ele>105.7</ele>
        <time>2019-10-19T10:08:37Z</time>
      </trkpt>
      <trkpt lat="38.2905850" lon="-0.6437160">
        <ele>105.6</ele>
        <time>2019-10-19T10:08:38Z</time>
      </trkpt>
      <trkpt lat="38.2905510" lon="-0.6437980">
        <ele>105.6</ele>
        <time>2019-10-19T10:08:39Z</time>
      </trkpt>
      <trkpt lat="38.2904820" lon="-0.6439650">
        <ele>105.5</ele>
        <time>2019-10-19T10:08:40Z</time>
      </trkpt>
      <trkpt lat="38.2904650" lon="-0.6440080">
        <ele>105.5</ele>
        <time>2019-10-19T10:08:41Z</time>
      </trkpt>
      <trkpt lat="38.2904480" lon="-0.6440500">
        <ele>105.5</ele>
        <time>2019-10-19T10:08:42Z</time>
      </trkpt>
      <trkpt lat="38.2904150" lon="-0.6441360">
        <ele>105.3</ele>
        <time>2019-10-19T10:08:43Z</time>
      </trkpt>
      <trkpt lat="38.2903810" lon="-0.6442230">
        <ele>105.2</ele>
        <time>2019-10-19T10:08:44Z</time>
      </trkpt>
      <trkpt lat="38.2903470" lon="-0.6443090">
        <ele>105.0</ele>
        <time>2019-10-19T10:08:45Z</time>
      </trkpt>
      <trkpt lat="38.2903150" lon="-0.6443960">
        <ele>104.9</ele>
        <time>2019-10-19T10:08:46Z</time>
      </trkpt>
      <trkpt lat="38.2902800" lon="-0.6444820">
        <ele>104.8</ele>
        <time>2019-10-19T10:08:47Z</time>
      </trkpt>
      <trkpt lat="38.2902470" lon="-0.6445690">
        <ele>104.7</ele>
        <time>2019-10-19T10:08:48Z</time>
      </trkpt>
      <trkpt lat="38.2901820" lon="-0.6447450">
        <ele>104.7</ele>
        <time>2019-10-19T10:08:49Z</time>
      </trkpt>
      <trkpt lat="38.2901670" lon="-0.6447890">
        <ele>104.6</ele>
        <time>2019-10-19T10:08:50Z</time>
      </trkpt>
      <trkpt lat="38.2901520" lon="-0.6448330">
        <ele>104.6</ele>
        <time>2019-10-19T10:08:51Z</time>
      </trkpt>
      <trkpt lat="38.2901220" lon="-0.6449230">
        <ele>104.6</ele>
        <time>2019-10-19T10:08:52Z</time>
      </trkpt>
      <trkpt lat="38.2900620" lon="-0.6451030">
        <ele>104.5</ele>
        <time>2019-10-19T10:08:53Z</time>
      </trkpt>
      <trkpt lat="38.2900470" lon="-0.6451480">
        <ele>104.4</ele>
        <time>2019-10-19T10:08:54Z</time>
      </trkpt>
      <trkpt lat="38.2900320" lon="-0.6451920">
        <ele>104.3</ele>
        <time>2019-10-19T10:08:55Z</time>
      </trkpt>
      <trkpt lat="38.2900020" lon="-0.6452810">
        <ele>104.2</ele>
        <time>2019-10-19T10:08:56Z</time>
      </trkpt>
      <trkpt lat="38.2899720" lon="-0.6453710">
        <ele>104.0</ele>
        <time>2019-10-19T10:08:57Z</time>
      </trkpt>
      <trkpt lat="38.2899430" lon="-0.6454610">
        <ele>103.9</ele>
        <time>2019-10-19T10:08:58Z</time>
      </trkpt>
      <trkpt lat="38.2899140" lon="-0.6455530">
        <ele>103.8</ele>
        <time>2019-10-19T10:08:59Z</time>
      </trkpt>
      <trkpt lat="38.2898860" lon="-0.6456440">
        <ele>103.7</ele>
        <time>2019-10-19T10:09:00Z</time>
      </trkpt>
      <trkpt lat="38.2898590" lon="-0.6457350">
        <ele>103.7</ele>
        <time>2019-10-19T10:09:01Z</time>
      </trkpt>
      <trkpt lat="38.2898320" lon="-0.6458230">
        <ele>103.7</ele>
        <time>2019-10-19T10:09:02Z</time>
      </trkpt>
      <trkpt lat="38.2898050" lon="-0.6459150">
        <ele>103.7</ele>
        <time>2019-10-19T10:09:03Z</time>
      </trkpt>
      <trkpt lat="38.2897800" lon="-0.6460090">
        <ele>103.7</ele>
        <time>2019-10-19T10:09:04Z</time>
      </trkpt>
      <trkpt lat="38.2897550" lon="-0.6461030">
        <ele>103.7</ele>
        <time>2019-10-19T10:09:05Z</time>
      </trkpt>
      <trkpt lat="38.2897310" lon="-0.6461970">
        <ele>103.7</ele>
        <time>2019-10-19T10:09:06Z</time>
      </trkpt>
      <trkpt lat="38.2897060" lon="-0.6462930">
        <ele>103.7</ele>
        <time>2019-10-19T10:09:07Z</time>
      </trkpt>
      <trkpt lat="38.2896810" lon="-0.6463890">
        <ele>103.6</ele>
        <time>2019-10-19T10:09:08Z</time>
      </trkpt>
      <trkpt lat="38.2896580" lon="-0.6464840">
        <ele>103.6</ele>
        <time>2019-10-19T10:09:09Z</time>
      </trkpt>
      <trkpt lat="38.2896340" lon="-0.6465780">
        <ele>103.5</ele>
        <time>2019-10-19T10:09:10Z</time>
      </trkpt>
      <trkpt lat="38.2896100" lon="-0.6466740">
        <ele>103.3</ele>
        <time>2019-10-19T10:09:11Z</time>
      </trkpt>
      <trkpt lat="38.2895870" lon="-0.6467690">
        <ele>103.2</ele>
        <time>2019-10-19T10:09:12Z</time>
      </trkpt>
      <trkpt lat="38.2895640" lon="-0.6468640">
        <ele>103.0</ele>
        <time>2019-10-19T10:09:13Z</time>
      </trkpt>
      <trkpt lat="38.2895420" lon="-0.6469600">
        <ele>102.8</ele>
        <time>2019-10-19T10:09:14Z</time>
      </trkpt>
      <trkpt lat="38.2894950" lon="-0.6471500">
        <ele>102.5</ele>
        <time>2019-10-19T10:09:15Z</time>
      </trkpt>
      <trkpt lat="38.2894830" lon="-0.6471980">
        <ele>102.4</ele>
        <time>2019-10-19T10:09:16Z</time>
      </trkpt>
      <trkpt lat="38.2894710" lon="-0.6472460">
        <ele>102.2</ele>
        <time>2019-10-19T10:09:17Z</time>
      </trkpt>
      <trkpt lat="38.2894360" lon="-0.6473900">
        <ele>101.9</ele>
        <time>2019-10-19T10:09:18Z</time>
      </trkpt>
      <trkpt lat="38.2894260" lon="-0.6474380">
        <ele>101.8</ele>
        <time>2019-10-19T10:09:19Z</time>
      </trkpt>
      <trkpt lat="38.2893950" lon="-0.6475840">
        <ele>101.4</ele>
        <time>2019-10-19T10:09:20Z</time>
      </trkpt>
      <trkpt lat="38.2893830" lon="-0.6476320">
        <ele>101.3</ele>
        <time>2019-10-19T10:09:21Z</time>
      </trkpt>
      <trkpt lat="38.2893630" lon="-0.6477280">
        <ele>101.2</ele>
        <time>2019-10-19T10:09:22Z</time>
      </trkpt>
      <trkpt lat="38.2893240" lon="-0.6479150">
        <ele>101.0</ele>
        <time>2019-10-19T10:09:23Z</time>
      </trkpt>
      <trkpt lat="38.2893140" lon="-0.6479630">
        <ele>100.9</ele>
        <time>2019-10-19T10:09:24Z</time>
      </trkpt>
      <trkpt lat="38.2893030" lon="-0.6480100">
        <ele>100.9</ele>
        <time>2019-10-19T10:09:25Z</time>
      </trkpt>
      <trkpt lat="38.2892820" lon="-0.6481050">
        <ele>101.0</ele>
        <time>2019-10-19T10:09:26Z</time>
      </trkpt>
      <trkpt lat="38.2892620" lon="-0.6482000">
        <ele>101.1</ele>
        <time>2019-10-19T10:09:27Z</time>
      </trkpt>
      <trkpt lat="38.2892420" lon="-0.6482940">
        <ele>101.3</ele>
        <time>2019-10-19T10:09:28Z</time>
      </trkpt>
      <trkpt lat="38.2892210" lon="-0.6483880">
        <ele>101.4</ele>
        <time>2019-10-19T10:09:29Z</time>
      </trkpt>
      <trkpt lat="38.2892010" lon="-0.6484830">
        <ele>101.5</ele>
        <time>2019-10-19T10:09:30Z</time>
      </trkpt>
      <trkpt lat="38.2891830" lon="-0.6485780">
        <ele>101.6</ele>
        <time>2019-10-19T10:09:31Z</time>
      </trkpt>
      <trkpt lat="38.2891690" lon="-0.6486740">
        <ele>101.7</ele>
        <time>2019-10-19T10:09:32Z</time>
      </trkpt>
      <trkpt lat="38.2891660" lon="-0.6487730">
        <ele>101.8</ele>
        <time>2019-10-19T10:09:33Z</time>
      </trkpt>
      <trkpt lat="38.2891780" lon="-0.6488700">
        <ele>101.9</ele>
        <time>2019-10-19T10:09:34Z</time>
      </trkpt>
      <trkpt lat="38.2892040" lon="-0.6489630">
        <ele>102.0</ele>
        <time>2019-10-19T10:09:35Z</time>
      </trkpt>
      <trkpt lat="38.2892780" lon="-0.6491300">
        <ele>102.8</ele>
        <time>2019-10-19T10:09:36Z</time>
      </trkpt>
      <trkpt lat="38.2892940" lon="-0.6491730">
        <ele>102.9</ele>
        <time>2019-10-19T10:09:37Z</time>
      </trkpt>
      <trkpt lat="38.2893090" lon="-0.6492160">
        <ele>102.9</ele>
        <time>2019-10-19T10:09:38Z</time>
      </trkpt>
      <trkpt lat="38.2893320" lon="-0.6494030">
        <ele>103.5</ele>
        <time>2019-10-19T10:09:39Z</time>
      </trkpt>
      <trkpt lat="38.2893310" lon="-0.6494510">
        <ele>103.6</ele>
        <time>2019-10-19T10:09:40Z</time>
      </trkpt>
      <trkpt lat="38.2893290" lon="-0.6494980">
        <ele>103.7</ele>
        <time>2019-10-19T10:09:41Z</time>
      </trkpt>
      <trkpt lat="38.2893220" lon="-0.6495920">
        <ele>103.9</ele>
        <time>2019-10-19T10:09:42Z</time>
      </trkpt>
      <trkpt lat="38.2893130" lon="-0.6496850">
        <ele>104.1</ele>
        <time>2019-10-19T10:09:43Z</time>
      </trkpt>
      <trkpt lat="38.2893060" lon="-0.6498720">
        <ele>104.6</ele>
        <time>2019-10-19T10:09:44Z</time>
      </trkpt>
      <trkpt lat="38.2893100" lon="-0.6499640">
        <ele>104.8</ele>
        <time>2019-10-19T10:09:45Z</time>
      </trkpt>
      <trkpt lat="38.2893160" lon="-0.6500090">
        <ele>104.8</ele>
        <time>2019-10-19T10:09:46Z</time>
      </trkpt>
      <trkpt lat="38.2893220" lon="-0.6500540">
        <ele>104.9</ele>
        <time>2019-10-19T10:09:47Z</time>
      </trkpt>
      <trkpt lat="38.2893420" lon="-0.6501890">
        <ele>104.9</ele>
        <time>2019-10-19T10:09:48Z</time>
      </trkpt>
      <trkpt lat="38.2893490" lon="-0.6502340">
        <ele>104.9</ele>
        <time>2019-10-19T10:09:49Z</time>
      </trkpt>
      <trkpt lat="38.2893900" lon="-0.6504090">
        <ele>104.6</ele>
        <time>2019-10-19T10:09:50Z</time>
      </trkpt>
      <trkpt lat="38.2894040" lon="-0.6504510">
        <ele>104.6</ele>
        <time>2019-10-19T10:09:51Z</time>
      </trkpt>
      <trkpt lat="38.2894180" lon="-0.6504940">
        <ele>104.5</ele>
        <time>2019-10-19T10:09:52Z</time>
      </trkpt>
      <trkpt lat="38.2894600" lon="-0.6505690">
        <ele>104.5</ele>
        <time>2019-10-19T10:09:53Z</time>
      </trkpt>
      <trkpt lat="38.2895010" lon="-0.6506450">
        <ele>104.7</ele>
        <time>2019-10-19T10:09:54Z</time>
      </trkpt>
      <trkpt lat="38.2895440" lon="-0.6507200">
        <ele>104.8</ele>
        <time>2019-10-19T10:09:55Z</time>
      </trkpt>
      <trkpt lat="38.2895840" lon="-0.6507960">
        <ele>105.1</ele>
        <time>2019-10-19T10:09:56Z</time>
      </trkpt>
      <trkpt lat="38.2896280" lon="-0.6508660">
        <ele>105.3</ele>
        <time>2019-10-19T10:09:57Z</time>
      </trkpt>
      <trkpt lat="38.2897220" lon="-0.6510030">
        <ele>105.6</ele>
        <time>2019-10-19T10:09:58Z</time>
      </trkpt>
      <trkpt lat="38.2897730" lon="-0.6510690">
        <ele>105.7</ele>
        <time>2019-10-19T10:09:59Z</time>
      </trkpt>
      <trkpt lat="38.2898000" lon="-0.6511020">
        <ele>105.7</ele>
        <time>2019-10-19T10:10:00Z</time>
      </trkpt>
      <trkpt lat="38.2898270" lon="-0.6511350">
        <ele>105.7</ele>
        <time>2019-10-19T10:10:01Z</time>
      </trkpt>
      <trkpt lat="38.2898770" lon="-0.6511990">
        <ele>105.7</ele>
        <time>2019-10-19T10:10:02Z</time>
      </trkpt>
      <trkpt lat="38.2899320" lon="-0.6512630">
        <ele>105.8</ele>
        <time>2019-10-19T10:10:03Z</time>
      </trkpt>
      <trkpt lat="38.2899870" lon="-0.6513240">
        <ele>105.8</ele>
        <time>2019-10-19T10:10:04Z</time>
      </trkpt>
      <trkpt lat="38.2900430" lon="-0.6513850">
        <ele>105.9</ele>
        <time>2019-10-19T10:10:05Z</time>
      </trkpt>
      <trkpt lat="38.2901000" lon="-0.6514460">
        <ele>106.0</ele>
        <time>2019-10-19T10:10:06Z</time>
      </trkpt>
      <trkpt lat="38.2901570" lon="-0.6515050">
        <ele>106.2</ele>
        <time>2019-10-19T10:10:07Z</time>
      </trkpt>
      <trkpt lat="38.2902180" lon="-0.6515610">
        <ele>106.4</ele>
        <time>2019-10-19T10:10:08Z</time>
      </trkpt>
      <trkpt lat="38.2902800" lon="-0.6516180">
        <ele>106.7</ele>
        <time>2019-10-19T10:10:09Z</time>
      </trkpt>
      <trkpt lat="38.2903450" lon="-0.6516750">
        <ele>106.9</ele>
        <time>2019-10-19T10:10:10Z</time>
      </trkpt>
      <trkpt lat="38.2904070" lon="-0.6517310">
        <ele>107.2</ele>
        <time>2019-10-19T10:10:11Z</time>
      </trkpt>
      <trkpt lat="38.2904680" lon="-0.6517880">
        <ele>107.4</ele>
        <time>2019-10-19T10:10:12Z</time>
      </trkpt>
      <trkpt lat="38.2905930" lon="-0.6518960">
        <ele>107.9</ele>
        <time>2019-10-19T10:10:13Z</time>
      </trkpt>
      <trkpt lat="38.2906250" lon="-0.6519220">
        <ele>108.0</ele>
        <time>2019-10-19T10:10:14Z</time>
      </trkpt>
      <trkpt lat="38.2906560" lon="-0.6519480">
        <ele>108.1</ele>
        <time>2019-10-19T10:10:15Z</time>
      </trkpt>
      <trkpt lat="38.2907210" lon="-0.6519970">
        <ele>108.3</ele>
        <time>2019-10-19T10:10:16Z</time>
      </trkpt>
      <trkpt lat="38.2908550" lon="-0.6520880">
        <ele>108.6</ele>
        <time>2019-10-19T10:10:17Z</time>
      </trkpt>
      <trkpt lat="38.2908890" lon="-0.6521090">
        <ele>108.6</ele>
        <time>2019-10-19T10:10:18Z</time>
      </trkpt>
      <trkpt lat="38.2909230" lon="-0.6521300">
        <ele>108.6</ele>
        <time>2019-10-19T10:10:19Z</time>
      </trkpt>
      <trkpt lat="38.2910260" lon="-0.6521930">
        <ele>108.7</ele>
        <time>2019-10-19T10:10:20Z</time>
      </trkpt>
      <trkpt lat="38.2910610" lon="-0.6522130">
        <ele>108.7</ele>
        <time>2019-10-19T10:10:21Z</time>
      </trkpt>
      <trkpt lat="38.2911650" lon="-0.6522730">
        <ele>108.6</ele>
        <time>2019-10-19T10:10:22Z</time>
      </trkpt>
      <trkpt lat="38.2911990" lon="-0.6522930">
        <ele>108.6</ele>
        <time>2019-10-19T10:10:23Z</time>
      </trkpt>
      <trkpt lat="38.2912680" lon="-0.6523350">
        <ele>108.5</ele>
        <time>2019-10-19T10:10:24Z</time>
      </trkpt>
      <trkpt lat="38.2913370" lon="-0.6523730">
        <ele>108.5</ele>
        <time>2019-10-19T10:10:25Z</time>
      </trkpt>
      <trkpt lat="38.2914090" lon="-0.6524040">
        <ele>108.3</ele>
        <time>2019-10-19T10:10:26Z</time>
      </trkpt>
      <trkpt lat="38.2914850" lon="-0.6524250">
        <ele>108.0</ele>
        <time>2019-10-19T10:10:27Z</time>
      </trkpt>
      <trkpt lat="38.2916380" lon="-0.6524480">
        <ele>107.6</ele>
        <time>2019-10-19T10:10:28Z</time>
      </trkpt>
      <trkpt lat="38.2916770" lon="-0.6524500">
        <ele>107.6</ele>
        <time>2019-10-19T10:10:29Z</time>
      </trkpt>
      <trkpt lat="38.2917150" lon="-0.6524530">
        <ele>107.6</ele>
        <time>2019-10-19T10:10:30Z</time>
      </trkpt>
      <trkpt lat="38.2917960" lon="-0.6524560">
        <ele>107.6</ele>
        <time>2019-10-19T10:10:31Z</time>
      </trkpt>
      <trkpt lat="38.2918760" lon="-0.6524580">
        <ele>107.6</ele>
        <time>2019-10-19T10:10:32Z</time>
      </trkpt>
      <trkpt lat="38.2919560" lon="-0.6524560">
        <ele>107.6</ele>
        <time>2019-10-19T10:10:33Z</time>
      </trkpt>
      <trkpt lat="38.2920340" lon="-0.6524550">
        <ele>107.8</ele>
        <time>2019-10-19T10:10:34Z</time>
      </trkpt>
      <trkpt lat="38.2921830" lon="-0.6524560">
        <ele>108.3</ele>
        <time>2019-10-19T10:10:35Z</time>
      </trkpt>
      <trkpt lat="38.2922210" lon="-0.6524600">
        <ele>108.6</ele>
        <time>2019-10-19T10:10:36Z</time>
      </trkpt>
      <trkpt lat="38.2922580" lon="-0.6524650">
        <ele>108.8</ele>
        <time>2019-10-19T10:10:37Z</time>
      </trkpt>
      <trkpt lat="38.2923960" lon="-0.6525110">
        <ele>109.3</ele>
        <time>2019-10-19T10:10:38Z</time>
      </trkpt>
      <trkpt lat="38.2924300" lon="-0.6525280">
        <ele>109.4</ele>
        <time>2019-10-19T10:10:39Z</time>
      </trkpt>
      <trkpt lat="38.2924640" lon="-0.6525450">
        <ele>109.4</ele>
        <time>2019-10-19T10:10:40Z</time>
      </trkpt>
      <trkpt lat="38.2926010" lon="-0.6526190">
        <ele>109.6</ele>
        <time>2019-10-19T10:10:41Z</time>
      </trkpt>
      <trkpt lat="38.2926350" lon="-0.6526380">
        <ele>109.6</ele>
        <time>2019-10-19T10:10:42Z</time>
      </trkpt>
      <trkpt lat="38.2926690" lon="-0.6526570">
        <ele>109.6</ele>
        <time>2019-10-19T10:10:43Z</time>
      </trkpt>
      <trkpt lat="38.2928030" lon="-0.6527290">
        <ele>109.8</ele>
        <time>2019-10-19T10:10:44Z</time>
      </trkpt>
      <trkpt lat="38.2928360" lon="-0.6527450">
        <ele>109.8</ele>
        <time>2019-10-19T10:10:45Z</time>
      </trkpt>
      <trkpt lat="38.2928680" lon="-0.6527610">
        <ele>109.9</ele>
        <time>2019-10-19T10:10:46Z</time>
      </trkpt>
      <trkpt lat="38.2929360" lon="-0.6527940">
        <ele>110.1</ele>
        <time>2019-10-19T10:10:47Z</time>
      </trkpt>
      <trkpt lat="38.2930020" lon="-0.6528280">
        <ele>110.3</ele>
        <time>2019-10-19T10:10:48Z</time>
      </trkpt>
      <trkpt lat="38.2930700" lon="-0.6528590">
        <ele>110.5</ele>
        <time>2019-10-19T10:10:49Z</time>
      </trkpt>
      <trkpt lat="38.2931350" lon="-0.6528910">
        <ele>110.7</ele>
        <time>2019-10-19T10:10:50Z</time>
      </trkpt>
      <trkpt lat="38.2931970" lon="-0.6529260">
        <ele>110.9</ele>
        <time>2019-10-19T10:10:51Z</time>
      </trkpt>
      <trkpt lat="38.2932570" lon="-0.6529590">
        <ele>111.1</ele>
        <time>2019-10-19T10:10:52Z</time>
      </trkpt>
      <trkpt lat="38.2933160" lon="-0.6529910">
        <ele>111.2</ele>
        <time>2019-10-19T10:10:53Z</time>
      </trkpt>
      <trkpt lat="38.2933720" lon="-0.6530240">
        <ele>111.4</ele>
        <time>2019-10-19T10:10:54Z</time>
      </trkpt>
      <trkpt lat="38.2934280" lon="-0.6530580">
        <ele>111.5</ele>
        <time>2019-10-19T10:10:55Z</time>
      </trkpt>
      <trkpt lat="38.2934840" lon="-0.6530900">
        <ele>111.5</ele>
        <time>2019-10-19T10:10:56Z</time>
      </trkpt>
      <trkpt lat="38.2935370" lon="-0.6531200">
        <ele>111.5</ele>
        <time>2019-10-19T10:10:57Z</time>
      </trkpt>
      <trkpt lat="38.2935890" lon="-0.6531500">
        <ele>111.5</ele>
        <time>2019-10-19T10:10:58Z</time>
      </trkpt>
      <trkpt lat="38.2936380" lon="-0.6531800">
        <ele>111.4</ele>
        <time>2019-10-19T10:10:59Z</time>
      </trkpt>
      <trkpt lat="38.2936830" lon="-0.6532130">
        <ele>111.3</ele>
        <time>2019-10-19T10:11:00Z</time>
      </trkpt>
      <trkpt lat="38.2937260" lon="-0.6532400">
        <ele>111.2</ele>
        <time>2019-10-19T10:11:01Z</time>
      </trkpt>
      <trkpt lat="38.2937560" lon="-0.6532630">
        <ele>111.0</ele>
        <time>2019-10-19T10:11:02Z</time>
      </trkpt>
      <trkpt lat="38.2937690" lon="-0.6532920">
        <ele>110.9</ele>
        <time>2019-10-19T10:11:03Z</time>
      </trkpt>
      <trkpt lat="38.2937620" lon="-0.6533700">
        <ele>110.7</ele>
        <time>2019-10-19T10:11:04Z</time>
      </trkpt>
      <trkpt lat="38.2937510" lon="-0.6533900">
        <ele>110.6</ele>
        <time>2019-10-19T10:11:05Z</time>
      </trkpt>
      <trkpt lat="38.2937400" lon="-0.6534090">
        <ele>110.6</ele>
        <time>2019-10-19T10:11:06Z</time>
      </trkpt>
      <trkpt lat="38.2937110" lon="-0.6534480">
        <ele>110.6</ele>
        <time>2019-10-19T10:11:07Z</time>
      </trkpt>
      <trkpt lat="38.2936340" lon="-0.6535360">
        <ele>110.4</ele>
        <time>2019-10-19T10:11:08Z</time>
      </trkpt>
      <trkpt lat="38.2936130" lon="-0.6535610">
        <ele>110.3</ele>
        <time>2019-10-19T10:11:09Z</time>
      </trkpt>
      <trkpt lat="38.2935920" lon="-0.6535860">
        <ele>110.2</ele>
        <time>2019-10-19T10:11:10Z</time>
      </trkpt>
      <trkpt lat="38.2935440" lon="-0.6536370">
        <ele>110.1</ele>
        <time>2019-10-19T10:11:11Z</time>
      </trkpt>
      <trkpt lat="38.2934950" lon="-0.6536890">
        <ele>109.9</ele>
        <time>2019-10-19T10:11:12Z</time>
      </trkpt>
      <trkpt lat="38.2933910" lon="-0.6537970">
        <ele>109.6</ele>
        <time>2019-10-19T10:11:13Z</time>
      </trkpt>
      <trkpt lat="38.2933630" lon="-0.6538240">
        <ele>109.5</ele>
        <time>2019-10-19T10:11:14Z</time>
      </trkpt>
      <trkpt lat="38.2933350" lon="-0.6538510">
        <ele>109.4</ele>
        <time>2019-10-19T10:11:15Z</time>
      </trkpt>
      <trkpt lat="38.2932760" lon="-0.6539050">
        <ele>109.2</ele>
        <time>2019-10-19T10:11:16Z</time>
      </trkpt>
      <trkpt lat="38.2932150" lon="-0.6539580">
        <ele>109.0</ele>
        <time>2019-10-19T10:11:17Z</time>
      </trkpt>
      <trkpt lat="38.2931520" lon="-0.6540070">
        <ele>108.9</ele>
        <time>2019-10-19T10:11:18Z</time>
      </trkpt>
      <trkpt lat="38.2930160" lon="-0.6540970">
        <ele>108.0</ele>
        <time>2019-10-19T10:11:19Z</time>
      </trkpt>
      <trkpt lat="38.2929810" lon="-0.6541180">
        <ele>107.7</ele>
        <time>2019-10-19T10:11:20Z</time>
      </trkpt>
      <trkpt lat="38.2929450" lon="-0.6541380">
        <ele>107.5</ele>
        <time>2019-10-19T10:11:21Z</time>
      </trkpt>
      <trkpt lat="38.2928770" lon="-0.6541830">
        <ele>107.0</ele>
        <time>2019-10-19T10:11:22Z</time>
      </trkpt>
      <trkpt lat="38.2928020" lon="-0.6542330">
        <ele>106.4</ele>
        <time>2019-10-19T10:11:23Z</time>
      </trkpt>
      <trkpt lat="38.2927310" lon="-0.6542890">
        <ele>105.8</ele>
        <time>2019-10-19T10:11:24Z</time>
      </trkpt>
      <trkpt lat="38.2926580" lon="-0.6543490">
        <ele>105.3</ele>
        <time>2019-10-19T10:11:25Z</time>
      </trkpt>
      <trkpt lat="38.2925840" lon="-0.6544120">
        <ele>104.9</ele>
        <time>2019-10-19T10:11:26Z</time>
      </trkpt>
      <trkpt lat="38.2925100" lon="-0.6544840">
        <ele>104.5</ele>
        <time>2019-10-19T10:11:27Z</time>
      </trkpt>
      <trkpt lat="38.2924400" lon="-0.6545730">
        <ele>104.0</ele>
        <time>2019-10-19T10:11:28Z</time>
      </trkpt>
      <trkpt lat="38.2923730" lon="-0.6546750">
        <ele>103.4</ele>
        <time>2019-10-19T10:11:29Z</time>
      </trkpt>
      <trkpt lat="38.2923110" lon="-0.6547870">
        <ele>103.0</ele>
        <time>2019-10-19T10:11:30Z</time>
      </trkpt>
      <trkpt lat="38.2922190" lon="-0.6549520">
        <ele>103.0</ele>
        <time>2019-10-19T10:11:31Z</time>
      </trkpt>
      <trkpt lat="38.2921890" lon="-0.6550050">
        <ele>103.0</ele>
        <time>2019-10-19T10:11:32Z</time>
      </trkpt>
      <trkpt lat="38.2921000" lon="-0.6551600">
        <ele>103.1</ele>
        <time>2019-10-19T10:11:33Z</time>
      </trkpt>
      <trkpt lat="38.2920710" lon="-0.6552100">
        <ele>103.2</ele>
        <time>2019-10-19T10:11:34Z</time>
      </trkpt>
      <trkpt lat="38.2920200" lon="-0.6553070">
        <ele>103.6</ele>
        <time>2019-10-19T10:11:35Z</time>
      </trkpt>
      <trkpt lat="38.2919690" lon="-0.6554000">
        <ele>103.8</ele>
        <time>2019-10-19T10:11:36Z</time>
      </trkpt>
      <trkpt lat="38.2919210" lon="-0.6554880">
        <ele>104.1</ele>
        <time>2019-10-19T10:11:37Z</time>
      </trkpt>
      <trkpt lat="38.2918760" lon="-0.6555700">
        <ele>104.4</ele>
        <time>2019-10-19T10:11:38Z</time>
      </trkpt>
      <trkpt lat="38.2918330" lon="-0.6556470">
        <ele>104.7</ele>
        <time>2019-10-19T10:11:39Z</time>
      </trkpt>
      <trkpt lat="38.2917930" lon="-0.6557180">
        <ele>105.1</ele>
        <time>2019-10-19T10:11:40Z</time>
      </trkpt>
      <trkpt lat="38.2917530" lon="-0.6557890">
        <ele>105.5</ele>
        <time>2019-10-19T10:11:41Z</time>
      </trkpt>
      <trkpt lat="38.2917140" lon="-0.6558610">
        <ele>105.8</ele>
        <time>2019-10-19T10:11:42Z</time>
      </trkpt>
      <trkpt lat="38.2916320" lon="-0.6559990">
        <ele>106.2</ele>
        <time>2019-10-19T10:11:43Z</time>
      </trkpt>
      <trkpt lat="38.2916090" lon="-0.6560310">
        <ele>106.2</ele>
        <time>2019-10-19T10:11:44Z</time>
      </trkpt>
      <trkpt lat="38.2915850" lon="-0.6560630">
        <ele>106.3</ele>
        <time>2019-10-19T10:11:45Z</time>
      </trkpt>
      <trkpt lat="38.2915140" lon="-0.6561580">
        <ele>106.3</ele>
        <time>2019-10-19T10:11:46Z</time>
      </trkpt>
      <trkpt lat="38.2914890" lon="-0.6561880">
        <ele>106.3</ele>
        <time>2019-10-19T10:11:47Z</time>
      </trkpt>
      <trkpt lat="38.2914390" lon="-0.6562510">
        <ele>106.3</ele>
        <time>2019-10-19T10:11:48Z</time>
      </trkpt>
      <trkpt lat="38.2913890" lon="-0.6563120">
        <ele>106.2</ele>
        <time>2019-10-19T10:11:49Z</time>
      </trkpt>
      <trkpt lat="38.2912850" lon="-0.6564370">
        <ele>106.1</ele>
        <time>2019-10-19T10:11:50Z</time>
      </trkpt>
      <trkpt lat="38.2912590" lon="-0.6564700">
        <ele>106.0</ele>
        <time>2019-10-19T10:11:51Z</time>
      </trkpt>
      <trkpt lat="38.2912330" lon="-0.6565030">
        <ele>106.0</ele>
        <time>2019-10-19T10:11:52Z</time>
      </trkpt>
      <trkpt lat="38.2911560" lon="-0.6566030">
        <ele>105.8</ele>
        <time>2019-10-19T10:11:53Z</time>
      </trkpt>
      <trkpt lat="38.2911300" lon="-0.6566370">
        <ele>105.7</ele>
        <time>2019-10-19T10:11:54Z</time>
      </trkpt>
      <trkpt lat="38.2910320" lon="-0.6567820">
        <ele>105.5</ele>
        <time>2019-10-19T10:11:55Z</time>
      </trkpt>
      <trkpt lat="38.2910100" lon="-0.6568210">
        <ele>105.4</ele>
        <time>2019-10-19T10:11:56Z</time>
      </trkpt>
      <trkpt lat="38.2909870" lon="-0.6568600">
        <ele>105.4</ele>
        <time>2019-10-19T10:11:57Z</time>
      </trkpt>
      <trkpt lat="38.2909190" lon="-0.6569770">
        <ele>105.1</ele>
        <time>2019-10-19T10:11:58Z</time>
      </trkpt>
      <trkpt lat="38.2908960" lon="-0.6570160">
        <ele>105.1</ele>
        <time>2019-10-19T10:11:59Z</time>
      </trkpt>
      <trkpt lat="38.2908270" lon="-0.6571310">
        <ele>104.9</ele>
        <time>2019-10-19T10:12:00Z</time>
      </trkpt>
      <trkpt lat="38.2908020" lon="-0.6571680">
        <ele>104.8</ele>
        <time>2019-10-19T10:12:01Z</time>
      </trkpt>
      <trkpt lat="38.2907040" lon="-0.6573180">
        <ele>104.8</ele>
        <time>2019-10-19T10:12:02Z</time>
      </trkpt>
      <trkpt lat="38.2906790" lon="-0.6573560">
        <ele>104.7</ele>
        <time>2019-10-19T10:12:03Z</time>
      </trkpt>
      <trkpt lat="38.2906540" lon="-0.6573940">
        <ele>104.7</ele>
        <time>2019-10-19T10:12:04Z</time>
      </trkpt>
      <trkpt lat="38.2906040" lon="-0.6574680">
        <ele>104.9</ele>
        <time>2019-10-19T10:12:05Z</time>
      </trkpt>
      <trkpt lat="38.2905070" lon="-0.6576110">
        <ele>105.1</ele>
        <time>2019-10-19T10:12:06Z</time>
      </trkpt>
      <trkpt lat="38.2904840" lon="-0.6576460">
        <ele>105.2</ele>
        <time>2019-10-19T10:12:07Z</time>
      </trkpt>
      <trkpt lat="38.2904600" lon="-0.6576800">
        <ele>105.3</ele>
        <time>2019-10-19T10:12:08Z</time>
      </trkpt>
      <trkpt lat="38.2904140" lon="-0.6577490">
        <ele>105.4</ele>
        <time>2019-10-19T10:12:09Z</time>
      </trkpt>
      <trkpt lat="38.2903700" lon="-0.6578170">
        <ele>105.6</ele>
        <time>2019-10-19T10:12:10Z</time>
      </trkpt>
      <trkpt lat="38.2902810" lon="-0.6579540">
        <ele>105.7</ele>
        <time>2019-10-19T10:12:11Z</time>
      </trkpt>
      <trkpt lat="38.2902590" lon="-0.6579890">
        <ele>105.7</ele>
        <time>2019-10-19T10:12:12Z</time>
      </trkpt>
      <trkpt lat="38.2902360" lon="-0.6580240">
        <ele>105.8</ele>
        <time>2019-10-19T10:12:13Z</time>
      </trkpt>
      <trkpt lat="38.2901380" lon="-0.6581630">
        <ele>105.9</ele>
        <time>2019-10-19T10:12:14Z</time>
      </trkpt>
      <trkpt lat="38.2901120" lon="-0.6581970">
        <ele>105.9</ele>
        <time>2019-10-19T10:12:15Z</time>
      </trkpt>
      <trkpt lat="38.2900850" lon="-0.6582310">
        <ele>105.9</ele>
        <time>2019-10-19T10:12:16Z</time>
      </trkpt>
      <trkpt lat="38.2900310" lon="-0.6583010">
        <ele>105.7</ele>
        <time>2019-10-19T10:12:17Z</time>
      </trkpt>
      <trkpt lat="38.2899740" lon="-0.6583690">
        <ele>105.6</ele>
        <time>2019-10-19T10:12:18Z</time>
      </trkpt>
      <trkpt lat="38.2899140" lon="-0.6584370">
        <ele>105.4</ele>
        <time>2019-10-19T10:12:19Z</time>
      </trkpt>
      <trkpt lat="38.2897920" lon="-0.6585760">
        <ele>105.0</ele>
        <time>2019-10-19T10:12:20Z</time>
      </trkpt>
      <trkpt lat="38.2897600" lon="-0.6586100">
        <ele>104.8</ele>
        <time>2019-10-19T10:12:21Z</time>
      </trkpt>
      <trkpt lat="38.2897270" lon="-0.6586440">
        <ele>104.7</ele>
        <time>2019-10-19T10:12:22Z</time>
      </trkpt>
      <trkpt lat="38.2896610" lon="-0.6587130">
        <ele>104.5</ele>
        <time>2019-10-19T10:12:23Z</time>
      </trkpt>
      <trkpt lat="38.2895960" lon="-0.6587820">
        <ele>104.2</ele>
        <time>2019-10-19T10:12:24Z</time>
      </trkpt>
      <trkpt lat="38.2895310" lon="-0.6588510">
        <ele>104.0</ele>
        <time>2019-10-19T10:12:25Z</time>
      </trkpt>
      <trkpt lat="38.2894680" lon="-0.6589210">
        <ele>103.9</ele>
        <time>2019-10-19T10:12:26Z</time>
      </trkpt>
      <trkpt lat="38.2894060" lon="-0.6589890">
        <ele>103.9</ele>
        <time>2019-10-19T10:12:27Z</time>
      </trkpt>
      <trkpt lat="38.2893450" lon="-0.6590570">
        <ele>103.8</ele>
        <time>2019-10-19T10:12:28Z</time>
      </trkpt>
      <trkpt lat="38.2892830" lon="-0.6591220">
        <ele>103.8</ele>
        <time>2019-10-19T10:12:29Z</time>
      </trkpt>
      <trkpt lat="38.2892220" lon="-0.6591870">
        <ele>103.9</ele>
        <time>2019-10-19T10:12:30Z</time>
      </trkpt>
      <trkpt lat="38.2891630" lon="-0.6592530">
        <ele>104.0</ele>
        <time>2019-10-19T10:12:31Z</time>
      </trkpt>
      <trkpt lat="38.2891060" lon="-0.6593200">
        <ele>104.0</ele>
        <time>2019-10-19T10:12:32Z</time>
      </trkpt>
      <trkpt lat="38.2890510" lon="-0.6593880">
        <ele>104.2</ele>
        <time>2019-10-19T10:12:33Z</time>
      </trkpt>
      <trkpt lat="38.2889490" lon="-0.6595280">
        <ele>104.6</ele>
        <time>2019-10-19T10:12:34Z</time>
      </trkpt>
      <trkpt lat="38.2889260" lon="-0.6595630">
        <ele>104.7</ele>
        <time>2019-10-19T10:12:35Z</time>
      </trkpt>
      <trkpt lat="38.2889030" lon="-0.6595980">
        <ele>104.9</ele>
        <time>2019-10-19T10:12:36Z</time>
      </trkpt>
      <trkpt lat="38.2888560" lon="-0.6596670">
        <ele>105.0</ele>
        <time>2019-10-19T10:12:37Z</time>
      </trkpt>
      <trkpt lat="38.2888010" lon="-0.6597260">
        <ele>105.1</ele>
        <time>2019-10-19T10:12:38Z</time>
      </trkpt>
      <trkpt lat="38.2887410" lon="-0.6597750">
        <ele>105.2</ele>
        <time>2019-10-19T10:12:39Z</time>
      </trkpt>
      <trkpt lat="38.2886810" lon="-0.6598210">
        <ele>105.2</ele>
        <time>2019-10-19T10:12:40Z</time>
      </trkpt>
      <trkpt lat="38.2886230" lon="-0.6598720">
        <ele>105.7</ele>
        <time>2019-10-19T10:12:41Z</time>
      </trkpt>
      <trkpt lat="38.2885680" lon="-0.6599270">
        <ele>106.0</ele>
        <time>2019-10-19T10:12:42Z</time>
      </trkpt>
      <trkpt lat="38.2885160" lon="-0.6599850">
        <ele>106.3</ele>
        <time>2019-10-19T10:12:43Z</time>
      </trkpt>
      <trkpt lat="38.2884650" lon="-0.6600450">
        <ele>106.5</ele>
        <time>2019-10-19T10:12:44Z</time>
      </trkpt>
      <trkpt lat="38.2884140" lon="-0.6601040">
        <ele>106.7</ele>
        <time>2019-10-19T10:12:45Z</time>
      </trkpt>
      <trkpt lat="38.2883620" lon="-0.6601610">
        <ele>107.0</ele>
        <time>2019-10-19T10:12:46Z</time>
      </trkpt>
      <trkpt lat="38.2883090" lon="-0.6602170">
        <ele>107.0</ele>
        <time>2019-10-19T10:12:47Z</time>
      </trkpt>
      <trkpt lat="38.2882540" lon="-0.6602710">
        <ele>106.9</ele>
        <time>2019-10-19T10:12:48Z</time>
      </trkpt>
      <trkpt lat="38.2881990" lon="-0.6603260">
        <ele>106.9</ele>
        <time>2019-10-19T10:12:49Z</time>
      </trkpt>
      <trkpt lat="38.2880890" lon="-0.6604350">
        <ele>106.9</ele>
        <time>2019-10-19T10:12:50Z</time>
      </trkpt>
      <trkpt lat="38.2880610" lon="-0.6604620">
        <ele>106.9</ele>
        <time>2019-10-19T10:12:51Z</time>
      </trkpt>
      <trkpt lat="38.2880320" lon="-0.6604890">
        <ele>106.9</ele>
        <time>2019-10-19T10:12:52Z</time>
      </trkpt>
      <trkpt lat="38.2879750" lon="-0.6605410">
        <ele>106.9</ele>
        <time>2019-10-19T10:12:53Z</time>
      </trkpt>
      <trkpt lat="38.2878620" lon="-0.6606510">
        <ele>106.9</ele>
        <time>2019-10-19T10:12:54Z</time>
      </trkpt>
      <trkpt lat="38.2878310" lon="-0.6606980">
        <ele>106.9</ele>
        <time>2019-10-19T10:12:55Z</time>
      </trkpt>
      <trkpt lat="38.2878000" lon="-0.6607450">
        <ele>106.9</ele>
        <time>2019-10-19T10:12:56Z</time>
      </trkpt>
      <trkpt lat="38.2877370" lon="-0.6608380">
        <ele>106.9</ele>
        <time>2019-10-19T10:12:57Z</time>
      </trkpt>
      <trkpt lat="38.2877220" lon="-0.6608780">
        <ele>106.9</ele>
        <time>2019-10-19T10:12:58Z</time>
      </trkpt>
      <trkpt lat="38.2877060" lon="-0.6609170">
        <ele>106.9</ele>
        <time>2019-10-19T10:12:59Z</time>
      </trkpt>
      <trkpt lat="38.2876620" lon="-0.6610360">
        <ele>106.9</ele>
        <time>2019-10-19T10:13:00Z</time>
      </trkpt>
      <trkpt lat="38.2876490" lon="-0.6610760">
        <ele>106.9</ele>
        <time>2019-10-19T10:13:01Z</time>
      </trkpt>
      <trkpt lat="38.2876010" lon="-0.6612240">
        <ele>106.9</ele>
        <time>2019-10-19T10:13:02Z</time>
      </trkpt>
      <trkpt lat="38.2875770" lon="-0.6612970">
        <ele>107.0</ele>
        <time>2019-10-19T10:13:03Z</time>
      </trkpt>
      <trkpt lat="38.2875660" lon="-0.6613370">
        <ele>107.0</ele>
        <time>2019-10-19T10:13:04Z</time>
      </trkpt>
      <trkpt lat="38.2875540" lon="-0.6613760">
        <ele>107.1</ele>
        <time>2019-10-19T10:13:05Z</time>
      </trkpt>
      <trkpt lat="38.2875200" lon="-0.6614960">
        <ele>107.3</ele>
        <time>2019-10-19T10:13:06Z</time>
      </trkpt>
      <trkpt lat="38.2875090" lon="-0.6615370">
        <ele>107.4</ele>
        <time>2019-10-19T10:13:07Z</time>
      </trkpt>
      <trkpt lat="38.2874780" lon="-0.6616630">
        <ele>107.5</ele>
        <time>2019-10-19T10:13:08Z</time>
      </trkpt>
      <trkpt lat="38.2874680" lon="-0.6617050">
        <ele>107.5</ele>
        <time>2019-10-19T10:13:09Z</time>
      </trkpt>
      <trkpt lat="38.2874380" lon="-0.6618320">
        <ele>107.6</ele>
        <time>2019-10-19T10:13:10Z</time>
      </trkpt>
      <trkpt lat="38.2874260" lon="-0.6618750">
        <ele>107.7</ele>
        <time>2019-10-19T10:13:11Z</time>
      </trkpt>
      <trkpt lat="38.2874080" lon="-0.6619620">
        <ele>107.7</ele>
        <time>2019-10-19T10:13:12Z</time>
      </trkpt>
      <trkpt lat="38.2873870" lon="-0.6620470">
        <ele>107.7</ele>
        <time>2019-10-19T10:13:13Z</time>
      </trkpt>
      <trkpt lat="38.2873650" lon="-0.6621320">
        <ele>107.7</ele>
        <time>2019-10-19T10:13:14Z</time>
      </trkpt>
      <trkpt lat="38.2873450" lon="-0.6622160">
        <ele>107.7</ele>
        <time>2019-10-19T10:13:15Z</time>
      </trkpt>
      <trkpt lat="38.2873230" lon="-0.6623040">
        <ele>107.8</ele>
        <time>2019-10-19T10:13:16Z</time>
      </trkpt>
      <trkpt lat="38.2873030" lon="-0.6623880">
        <ele>107.8</ele>
        <time>2019-10-19T10:13:17Z</time>
      </trkpt>
      <trkpt lat="38.2872830" lon="-0.6624710">
        <ele>107.9</ele>
        <time>2019-10-19T10:13:18Z</time>
      </trkpt>
      <trkpt lat="38.2872460" lon="-0.6626370">
        <ele>108.1</ele>
        <time>2019-10-19T10:13:19Z</time>
      </trkpt>
      <trkpt lat="38.2872320" lon="-0.6627000">
        <ele>108.2</ele>
        <time>2019-10-19T10:13:20Z</time>
      </trkpt>
      <trkpt lat="38.2872170" lon="-0.6627630">
        <ele>108.3</ele>
        <time>2019-10-19T10:13:21Z</time>
      </trkpt>
      <trkpt lat="38.2871870" lon="-0.6628890">
        <ele>108.4</ele>
        <time>2019-10-19T10:13:22Z</time>
      </trkpt>
      <trkpt lat="38.2871790" lon="-0.6629310">
        <ele>108.5</ele>
        <time>2019-10-19T10:13:23Z</time>
      </trkpt>
      <trkpt lat="38.2871700" lon="-0.6629730">
        <ele>108.5</ele>
        <time>2019-10-19T10:13:24Z</time>
      </trkpt>
      <trkpt lat="38.2871520" lon="-0.6630570">
        <ele>108.6</ele>
        <time>2019-10-19T10:13:25Z</time>
      </trkpt>
      <trkpt lat="38.2871330" lon="-0.6631430">
        <ele>108.4</ele>
        <time>2019-10-19T10:13:26Z</time>
      </trkpt>
      <trkpt lat="38.2870950" lon="-0.6633120">
        <ele>108.1</ele>
        <time>2019-10-19T10:13:27Z</time>
      </trkpt>
      <trkpt lat="38.2870850" lon="-0.6633550">
        <ele>108.1</ele>
        <time>2019-10-19T10:13:28Z</time>
      </trkpt>
      <trkpt lat="38.2870750" lon="-0.6633970">
        <ele>108.0</ele>
        <time>2019-10-19T10:13:29Z</time>
      </trkpt>
      <trkpt lat="38.2870550" lon="-0.6634820">
        <ele>108.0</ele>
        <time>2019-10-19T10:13:30Z</time>
      </trkpt>
      <trkpt lat="38.2870350" lon="-0.6635650">
        <ele>107.9</ele>
        <time>2019-10-19T10:13:31Z</time>
      </trkpt>
      <trkpt lat="38.2870150" lon="-0.6636490">
        <ele>107.8</ele>
        <time>2019-10-19T10:13:32Z</time>
      </trkpt>
      <trkpt lat="38.2869960" lon="-0.6637320">
        <ele>107.8</ele>
        <time>2019-10-19T10:13:33Z</time>
      </trkpt>
      <trkpt lat="38.2869760" lon="-0.6638120">
        <ele>107.7</ele>
        <time>2019-10-19T10:13:34Z</time>
      </trkpt>
      <trkpt lat="38.2869580" lon="-0.6638920">
        <ele>107.7</ele>
        <time>2019-10-19T10:13:35Z</time>
      </trkpt>
      <trkpt lat="38.2869410" lon="-0.6639710">
        <ele>107.6</ele>
        <time>2019-10-19T10:13:36Z</time>
      </trkpt>
      <trkpt lat="38.2869260" lon="-0.6640490">
        <ele>107.6</ele>
        <time>2019-10-19T10:13:37Z</time>
      </trkpt>
      <trkpt lat="38.2869090" lon="-0.6641260">
        <ele>107.6</ele>
        <time>2019-10-19T10:13:38Z</time>
      </trkpt>
      <trkpt lat="38.2868910" lon="-0.6642000">
        <ele>107.8</ele>
        <time>2019-10-19T10:13:39Z</time>
      </trkpt>
      <trkpt lat="38.2868740" lon="-0.6642730">
        <ele>107.9</ele>
        <time>2019-10-19T10:13:40Z</time>
      </trkpt>
      <trkpt lat="38.2868590" lon="-0.6643470">
        <ele>108.2</ele>
        <time>2019-10-19T10:13:41Z</time>
      </trkpt>
      <trkpt lat="38.2868440" lon="-0.6644210">
        <ele>108.4</ele>
        <time>2019-10-19T10:13:42Z</time>
      </trkpt>
      <trkpt lat="38.2868310" lon="-0.6644960">
        <ele>108.8</ele>
        <time>2019-10-19T10:13:43Z</time>
      </trkpt>
      <trkpt lat="38.2868250" lon="-0.6645720">
        <ele>109.1</ele>
        <time>2019-10-19T10:13:44Z</time>
      </trkpt>
      <trkpt lat="38.2868280" lon="-0.6646490">
        <ele>109.4</ele>
        <time>2019-10-19T10:13:45Z</time>
      </trkpt>
      <trkpt lat="38.2868420" lon="-0.6647250">
        <ele>109.8</ele>
        <time>2019-10-19T10:13:46Z</time>
      </trkpt>
      <trkpt lat="38.2868660" lon="-0.6647970">
        <ele>110.1</ele>
        <time>2019-10-19T10:13:47Z</time>
      </trkpt>
      <trkpt lat="38.2868990" lon="-0.6648640">
        <ele>110.5</ele>
        <time>2019-10-19T10:13:48Z</time>
      </trkpt>
      <trkpt lat="38.2869680" lon="-0.6649950">
        <ele>110.8</ele>
        <time>2019-10-19T10:13:49Z</time>
      </trkpt>
      <trkpt lat="38.2870000" lon="-0.6650640">
        <ele>111.1</ele>
        <time>2019-10-19T10:13:50Z</time>
      </trkpt>
      <trkpt lat="38.2870150" lon="-0.6651010">
        <ele>111.2</ele>
        <time>2019-10-19T10:13:51Z</time>
      </trkpt>
      <trkpt lat="38.2870290" lon="-0.6651380">
        <ele>111.3</ele>
        <time>2019-10-19T10:13:52Z</time>
      </trkpt>
      <trkpt lat="38.2870650" lon="-0.6652960">
        <ele>111.7</ele>
        <time>2019-10-19T10:13:53Z</time>
      </trkpt>
      <trkpt lat="38.2870690" lon="-0.6653370">
        <ele>111.6</ele>
        <time>2019-10-19T10:13:54Z</time>
      </trkpt>
      <trkpt lat="38.2870720" lon="-0.6653790">
        <ele>111.6</ele>
        <time>2019-10-19T10:13:55Z</time>
      </trkpt>
      <trkpt lat="38.2870690" lon="-0.6654650">
        <ele>111.5</ele>
        <time>2019-10-19T10:13:56Z</time>
      </trkpt>
      <trkpt lat="38.2870590" lon="-0.6655500">
        <ele>111.5</ele>
        <time>2019-10-19T10:13:57Z</time>
      </trkpt>
      <trkpt lat="38.2870380" lon="-0.6656330">
        <ele>111.4</ele>
        <time>2019-10-19T10:13:58Z</time>
      </trkpt>
      <trkpt lat="38.2870110" lon="-0.6657110">
        <ele>111.4</ele>
        <time>2019-10-19T10:13:59Z</time>
      </trkpt>
      <trkpt lat="38.2869750" lon="-0.6657840">
        <ele>111.3</ele>
        <time>2019-10-19T10:14:00Z</time>
      </trkpt>
      <trkpt lat="38.2868830" lon="-0.6659040">
        <ele>110.8</ele>
        <time>2019-10-19T10:14:01Z</time>
      </trkpt>
      <trkpt lat="38.2868560" lon="-0.6659290">
        <ele>110.7</ele>
        <time>2019-10-19T10:14:02Z</time>
      </trkpt>
      <trkpt lat="38.2868280" lon="-0.6659540">
        <ele>110.5</ele>
        <time>2019-10-19T10:14:03Z</time>
      </trkpt>
      <trkpt lat="38.2867700" lon="-0.6659970">
        <ele>110.2</ele>
        <time>2019-10-19T10:14:04Z</time>
      </trkpt>
      <trkpt lat="38.2867100" lon="-0.6660420">
        <ele>110.0</ele>
        <time>2019-10-19T10:14:05Z</time>
      </trkpt>
      <trkpt lat="38.2866510" lon="-0.6660890">
        <ele>109.8</ele>
        <time>2019-10-19T10:14:06Z</time>
      </trkpt>
      <trkpt lat="38.2865960" lon="-0.6661450">
        <ele>109.6</ele>
        <time>2019-10-19T10:14:07Z</time>
      </trkpt>
      <trkpt lat="38.2865480" lon="-0.6662150">
        <ele>109.4</ele>
        <time>2019-10-19T10:14:08Z</time>
      </trkpt>
      <trkpt lat="38.2865100" lon="-0.6662960">
        <ele>109.2</ele>
        <time>2019-10-19T10:14:09Z</time>
      </trkpt>
      <trkpt lat="38.2864610" lon="-0.6664840">
        <ele>109.1</ele>
        <time>2019-10-19T10:14:10Z</time>
      </trkpt>
      <trkpt lat="38.2864530" lon="-0.6665320">
        <ele>109.1</ele>
        <time>2019-10-19T10:14:11Z</time>
      </trkpt>
      <trkpt lat="38.2864450" lon="-0.6665800">
        <ele>109.1</ele>
        <time>2019-10-19T10:14:12Z</time>
      </trkpt>
      <trkpt lat="38.2864200" lon="-0.6667240">
        <ele>109.1</ele>
        <time>2019-10-19T10:14:13Z</time>
      </trkpt>
      <trkpt lat="38.2864110" lon="-0.6667720">
        <ele>109.1</ele>
        <time>2019-10-19T10:14:14Z</time>
      </trkpt>
      <trkpt lat="38.2863960" lon="-0.6668670">
        <ele>109.1</ele>
        <time>2019-10-19T10:14:15Z</time>
      </trkpt>
      <trkpt lat="38.2863650" lon="-0.6670620">
        <ele>109.1</ele>
        <time>2019-10-19T10:14:16Z</time>
      </trkpt>
      <trkpt lat="38.2863490" lon="-0.6671590">
        <ele>109.1</ele>
        <time>2019-10-19T10:14:17Z</time>
      </trkpt>
      <trkpt lat="38.2863410" lon="-0.6672080">
        <ele>109.0</ele>
        <time>2019-10-19T10:14:18Z</time>
      </trkpt>
      <trkpt lat="38.2863330" lon="-0.6672560">
        <ele>109.0</ele>
        <time>2019-10-19T10:14:19Z</time>
      </trkpt>
      <trkpt lat="38.2863010" lon="-0.6674530">
        <ele>108.7</ele>
        <time>2019-10-19T10:14:20Z</time>
      </trkpt>
      <trkpt lat="38.2862940" lon="-0.6675020">
        <ele>108.6</ele>
        <time>2019-10-19T10:14:21Z</time>
      </trkpt>
      <trkpt lat="38.2862870" lon="-0.6675500">
        <ele>108.6</ele>
        <time>2019-10-19T10:14:22Z</time>
      </trkpt>
      <trkpt lat="38.2862540" lon="-0.6677500">
        <ele>108.3</ele>
        <time>2019-10-19T10:14:23Z</time>
      </trkpt>
      <trkpt lat="38.2862460" lon="-0.6678010">
        <ele>108.3</ele>
        <time>2019-10-19T10:14:24Z</time>
      </trkpt>
      <trkpt lat="38.2862370" lon="-0.6678510">
        <ele>108.3</ele>
        <time>2019-10-19T10:14:25Z</time>
      </trkpt>
      <trkpt lat="38.2862000" lon="-0.6680510">
        <ele>108.2</ele>
        <time>2019-10-19T10:14:26Z</time>
      </trkpt>
      <trkpt lat="38.2861910" lon="-0.6680990">
        <ele>108.2</ele>
        <time>2019-10-19T10:14:27Z</time>
      </trkpt>
      <trkpt lat="38.2861820" lon="-0.6681470">
        <ele>108.1</ele>
        <time>2019-10-19T10:14:28Z</time>
      </trkpt>
      <trkpt lat="38.2861570" lon="-0.6682460">
        <ele>108.1</ele>
        <time>2019-10-19T10:14:29Z</time>
      </trkpt>
      <trkpt lat="38.2861310" lon="-0.6683430">
        <ele>108.1</ele>
        <time>2019-10-19T10:14:30Z</time>
      </trkpt>
      <trkpt lat="38.2860760" lon="-0.6685360">
        <ele>107.9</ele>
        <time>2019-10-19T10:14:31Z</time>
      </trkpt>
      <trkpt lat="38.2860610" lon="-0.6685850">
        <ele>107.8</ele>
        <time>2019-10-19T10:14:32Z</time>
      </trkpt>
      <trkpt lat="38.2860460" lon="-0.6686340">
        <ele>107.7</ele>
        <time>2019-10-19T10:14:33Z</time>
      </trkpt>
      <trkpt lat="38.2859800" lon="-0.6688250">
        <ele>107.1</ele>
        <time>2019-10-19T10:14:34Z</time>
      </trkpt>
      <trkpt lat="38.2859470" lon="-0.6689190">
        <ele>107.0</ele>
        <time>2019-10-19T10:14:35Z</time>
      </trkpt>
      <trkpt lat="38.2859290" lon="-0.6689650">
        <ele>107.0</ele>
        <time>2019-10-19T10:14:36Z</time>
      </trkpt>
      <trkpt lat="38.2859110" lon="-0.6690100">
        <ele>106.9</ele>
        <time>2019-10-19T10:14:37Z</time>
      </trkpt>
      <trkpt lat="38.2858740" lon="-0.6691010">
        <ele>106.8</ele>
        <time>2019-10-19T10:14:38Z</time>
      </trkpt>
      <trkpt lat="38.2858340" lon="-0.6691900">
        <ele>106.6</ele>
        <time>2019-10-19T10:14:39Z</time>
      </trkpt>
      <trkpt lat="38.2857930" lon="-0.6692780">
        <ele>106.5</ele>
        <time>2019-10-19T10:14:40Z</time>
      </trkpt>
      <trkpt lat="38.2857070" lon="-0.6694520">
        <ele>106.2</ele>
        <time>2019-10-19T10:14:41Z</time>
      </trkpt>
      <trkpt lat="38.2856850" lon="-0.6694960">
        <ele>106.1</ele>
        <time>2019-10-19T10:14:42Z</time>
      </trkpt>
      <trkpt lat="38.2856630" lon="-0.6695390">
        <ele>106.0</ele>
        <time>2019-10-19T10:14:43Z</time>
      </trkpt>
      <trkpt lat="38.2856190" lon="-0.6696260">
        <ele>105.8</ele>
        <time>2019-10-19T10:14:44Z</time>
      </trkpt>
      <trkpt lat="38.2855300" lon="-0.6697980">
        <ele>105.2</ele>
        <time>2019-10-19T10:14:45Z</time>
      </trkpt>
      <trkpt lat="38.2855080" lon="-0.6698410">
        <ele>105.1</ele>
        <time>2019-10-19T10:14:46Z</time>
      </trkpt>
      <trkpt lat="38.2854860" lon="-0.6698840">
        <ele>105.0</ele>
        <time>2019-10-19T10:14:47Z</time>
      </trkpt>
      <trkpt lat="38.2854430" lon="-0.6699700">
        <ele>104.8</ele>
        <time>2019-10-19T10:14:48Z</time>
      </trkpt>
      <trkpt lat="38.2854000" lon="-0.6700550">
        <ele>104.6</ele>
        <time>2019-10-19T10:14:49Z</time>
      </trkpt>
      <trkpt lat="38.2853110" lon="-0.6702260">
        <ele>104.4</ele>
        <time>2019-10-19T10:14:50Z</time>
      </trkpt>
      <trkpt lat="38.2852890" lon="-0.6702690">
        <ele>104.4</ele>
        <time>2019-10-19T10:14:51Z</time>
      </trkpt>
      <trkpt lat="38.2852660" lon="-0.6703110">
        <ele>104.4</ele>
        <time>2019-10-19T10:14:52Z</time>
      </trkpt>
      <trkpt lat="38.2851770" lon="-0.6704810">
        <ele>104.3</ele>
        <time>2019-10-19T10:14:53Z</time>
      </trkpt>
      <trkpt lat="38.2851550" lon="-0.6705250">
        <ele>104.3</ele>
        <time>2019-10-19T10:14:54Z</time>
      </trkpt>
      <trkpt lat="38.2851330" lon="-0.6705690">
        <ele>104.3</ele>
        <time>2019-10-19T10:14:55Z</time>
      </trkpt>
      <trkpt lat="38.2850880" lon="-0.6706570">
        <ele>104.3</ele>
        <time>2019-10-19T10:14:56Z</time>
      </trkpt>
      <trkpt lat="38.2850430" lon="-0.6707460">
        <ele>104.2</ele>
        <time>2019-10-19T10:14:57Z</time>
      </trkpt>
      <trkpt lat="38.2849970" lon="-0.6708340">
        <ele>104.0</ele>
        <time>2019-10-19T10:14:58Z</time>
      </trkpt>
      <trkpt lat="38.2849520" lon="-0.6709230">
        <ele>103.8</ele>
        <time>2019-10-19T10:14:59Z</time>
      </trkpt>
      <trkpt lat="38.2849060" lon="-0.6710120">
        <ele>103.6</ele>
        <time>2019-10-19T10:15:00Z</time>
      </trkpt>
      <trkpt lat="38.2848600" lon="-0.6711010">
        <ele>103.6</ele>
        <time>2019-10-19T10:15:01Z</time>
      </trkpt>
      <trkpt lat="38.2848150" lon="-0.6711900">
        <ele>103.7</ele>
        <time>2019-10-19T10:15:02Z</time>
      </trkpt>
      <trkpt lat="38.2847690" lon="-0.6712800">
        <ele>103.9</ele>
        <time>2019-10-19T10:15:03Z</time>
      </trkpt>
      <trkpt lat="38.2847240" lon="-0.6713690">
        <ele>103.9</ele>
        <time>2019-10-19T10:15:04Z</time>
      </trkpt>
      <trkpt lat="38.2846790" lon="-0.6714570">
        <ele>104.0</ele>
        <time>2019-10-19T10:15:05Z</time>
      </trkpt>
      <trkpt lat="38.2846350" lon="-0.6715450">
        <ele>104.1</ele>
        <time>2019-10-19T10:15:06Z</time>
      </trkpt>
      <trkpt lat="38.2845900" lon="-0.6716330">
        <ele>104.3</ele>
        <time>2019-10-19T10:15:07Z</time>
      </trkpt>
      <trkpt lat="38.2845460" lon="-0.6717200">
        <ele>104.8</ele>
        <time>2019-10-19T10:15:08Z</time>
      </trkpt>
      <trkpt lat="38.2845010" lon="-0.6718070">
        <ele>105.2</ele>
        <time>2019-10-19T10:15:09Z</time>
      </trkpt>
      <trkpt lat="38.2844120" lon="-0.6719800">
        <ele>106.0</ele>
        <time>2019-10-19T10:15:10Z</time>
      </trkpt>
      <trkpt lat="38.2843900" lon="-0.6720240">
        <ele>106.2</ele>
        <time>2019-10-19T10:15:11Z</time>
      </trkpt>
      <trkpt lat="38.2843680" lon="-0.6720670">
        <ele>106.3</ele>
        <time>2019-10-19T10:15:12Z</time>
      </trkpt>
      <trkpt lat="38.2843240" lon="-0.6721530">
        <ele>106.6</ele>
        <time>2019-10-19T10:15:13Z</time>
      </trkpt>
      <trkpt lat="38.2842800" lon="-0.6722390">
        <ele>106.9</ele>
        <time>2019-10-19T10:15:14Z</time>
      </trkpt>
      <trkpt lat="38.2842360" lon="-0.6723240">
        <ele>107.1</ele>
        <time>2019-10-19T10:15:15Z</time>
      </trkpt>
      <trkpt lat="38.2841910" lon="-0.6724090">
        <ele>107.2</ele>
        <time>2019-10-19T10:15:16Z</time>
      </trkpt>
      <trkpt lat="38.2841470" lon="-0.6724940">
        <ele>107.3</ele>
        <time>2019-10-19T10:15:17Z</time>
      </trkpt>
      <trkpt lat="38.2841020" lon="-0.6725800">
        <ele>107.3</ele>
        <time>2019-10-19T10:15:18Z</time>
      </trkpt>
      <trkpt lat="38.2840580" lon="-0.6726650">
        <ele>107.4</ele>
        <time>2019-10-19T10:15:19Z</time>
      </trkpt>
      <trkpt lat="38.2840200" lon="-0.6727530">
        <ele>107.4</ele>
        <time>2019-10-19T10:15:20Z</time>
      </trkpt>
      <trkpt lat="38.2839870" lon="-0.6728400">
        <ele>107.5</ele>
        <time>2019-10-19T10:15:21Z</time>
      </trkpt>
      <trkpt lat="38.2839770" lon="-0.6729360">
        <ele>107.6</ele>
        <time>2019-10-19T10:15:22Z</time>
      </trkpt>
      <trkpt lat="38.2839870" lon="-0.6730340">
        <ele>107.7</ele>
        <time>2019-10-19T10:15:23Z</time>
      </trkpt>
      <trkpt lat="38.2840040" lon="-0.6731310">
        <ele>107.8</ele>
        <time>2019-10-19T10:15:24Z</time>
      </trkpt>
      <trkpt lat="38.2840130" lon="-0.6732270">
        <ele>107.9</ele>
        <time>2019-10-19T10:15:25Z</time>
      </trkpt>
      <trkpt lat="38.2839900" lon="-0.6734170">
        <ele>107.9</ele>
        <time>2019-10-19T10:15:26Z</time>
      </trkpt>
      <trkpt lat="38.2839710" lon="-0.6734580">
        <ele>107.8</ele>
        <time>2019-10-19T10:15:27Z</time>
      </trkpt>
      <trkpt lat="38.2839510" lon="-0.6734990">
        <ele>107.8</ele>
        <time>2019-10-19T10:15:28Z</time>
      </trkpt>
      <trkpt lat="38.2838840" lon="-0.6736130">
        <ele>107.7</ele>
        <time>2019-10-19T10:15:29Z</time>
      </trkpt>
      <trkpt lat="38.2838550" lon="-0.6736440">
        <ele>107.7</ele>
        <time>2019-10-19T10:15:30Z</time>
      </trkpt>
      <trkpt lat="38.2837890" lon="-0.6736940">
        <ele>107.7</ele>
        <time>2019-10-19T10:15:31Z</time>
      </trkpt>
      <trkpt lat="38.2837170" lon="-0.6737290">
        <ele>107.6</ele>
        <time>2019-10-19T10:15:32Z</time>
      </trkpt>
      <trkpt lat="38.2836430" lon="-0.6737570">
        <ele>107.6</ele>
        <time>2019-10-19T10:15:33Z</time>
      </trkpt>
      <trkpt lat="38.2835690" lon="-0.6737860">
        <ele>107.6</ele>
        <time>2019-10-19T10:15:34Z</time>
      </trkpt>
      <trkpt lat="38.2835020" lon="-0.6738310">
        <ele>107.4</ele>
        <time>2019-10-19T10:15:35Z</time>
      </trkpt>
      <trkpt lat="38.2834420" lon="-0.6738950">
        <ele>107.3</ele>
        <time>2019-10-19T10:15:36Z</time>
      </trkpt>
      <trkpt lat="38.2833900" lon="-0.6739720">
        <ele>107.2</ele>
        <time>2019-10-19T10:15:37Z</time>
      </trkpt>
      <trkpt lat="38.2833440" lon="-0.6740520">
        <ele>107.2</ele>
        <time>2019-10-19T10:15:38Z</time>
      </trkpt>
      <trkpt lat="38.2833000" lon="-0.6741360">
        <ele>107.1</ele>
        <time>2019-10-19T10:15:39Z</time>
      </trkpt>
      <trkpt lat="38.2832580" lon="-0.6742210">
        <ele>107.0</ele>
        <time>2019-10-19T10:15:40Z</time>
      </trkpt>
      <trkpt lat="38.2831750" lon="-0.6743960">
        <ele>106.7</ele>
        <time>2019-10-19T10:15:41Z</time>
      </trkpt>
      <trkpt lat="38.2831540" lon="-0.6744410">
        <ele>106.6</ele>
        <time>2019-10-19T10:15:42Z</time>
      </trkpt>
      <trkpt lat="38.2831330" lon="-0.6744860">
        <ele>106.5</ele>
        <time>2019-10-19T10:15:43Z</time>
      </trkpt>
      <trkpt lat="38.2830950" lon="-0.6745770">
        <ele>106.4</ele>
        <time>2019-10-19T10:15:44Z</time>
      </trkpt>
      <trkpt lat="38.2830570" lon="-0.6746700">
        <ele>106.3</ele>
        <time>2019-10-19T10:15:45Z</time>
      </trkpt>
      <trkpt lat="38.2830190" lon="-0.6747620">
        <ele>106.3</ele>
        <time>2019-10-19T10:15:46Z</time>
      </trkpt>
      <trkpt lat="38.2829830" lon="-0.6748570">
        <ele>106.3</ele>
        <time>2019-10-19T10:15:47Z</time>
      </trkpt>
      <trkpt lat="38.2829150" lon="-0.6750500">
        <ele>106.4</ele>
        <time>2019-10-19T10:15:48Z</time>
      </trkpt>
      <trkpt lat="38.2828990" lon="-0.6750990">
        <ele>106.4</ele>
        <time>2019-10-19T10:15:49Z</time>
      </trkpt>
      <trkpt lat="38.2828830" lon="-0.6751480">
        <ele>106.5</ele>
        <time>2019-10-19T10:15:50Z</time>
      </trkpt>
      <trkpt lat="38.2828240" lon="-0.6753480">
        <ele>106.6</ele>
        <time>2019-10-19T10:15:51Z</time>
      </trkpt>
      <trkpt lat="38.2828100" lon="-0.6753990">
        <ele>106.6</ele>
        <time>2019-10-19T10:15:52Z</time>
      </trkpt>
      <trkpt lat="38.2827960" lon="-0.6754490">
        <ele>106.6</ele>
        <time>2019-10-19T10:15:53Z</time>
      </trkpt>
      <trkpt lat="38.2827450" lon="-0.6756540">
        <ele>106.4</ele>
        <time>2019-10-19T10:15:54Z</time>
      </trkpt>
      <trkpt lat="38.2827330" lon="-0.6757050">
        <ele>106.3</ele>
        <time>2019-10-19T10:15:55Z</time>
      </trkpt>
      <trkpt lat="38.2827210" lon="-0.6757560">
        <ele>106.3</ele>
        <time>2019-10-19T10:15:56Z</time>
      </trkpt>
      <trkpt lat="38.2826990" lon="-0.6758610">
        <ele>106.3</ele>
        <time>2019-10-19T10:15:57Z</time>
      </trkpt>
      <trkpt lat="38.2826820" lon="-0.6759620">
        <ele>106.2</ele>
        <time>2019-10-19T10:15:58Z</time>
      </trkpt>
      <trkpt lat="38.2826640" lon="-0.6760670">
        <ele>106.2</ele>
        <time>2019-10-19T10:15:59Z</time>
      </trkpt>
      <trkpt lat="38.2826330" lon="-0.6762730">
        <ele>106.2</ele>
        <time>2019-10-19T10:16:00Z</time>
      </trkpt>
      <trkpt lat="38.2826270" lon="-0.6763260">
        <ele>106.2</ele>
        <time>2019-10-19T10:16:01Z</time>
      </trkpt>
      <trkpt lat="38.2826200" lon="-0.6763780">
        <ele>106.2</ele>
        <time>2019-10-19T10:16:02Z</time>
      </trkpt>
      <trkpt lat="38.2826070" lon="-0.6764830">
        <ele>106.2</ele>
        <time>2019-10-19T10:16:03Z</time>
      </trkpt>
      <trkpt lat="38.2825970" lon="-0.6765880">
        <ele>106.2</ele>
        <time>2019-10-19T10:16:04Z</time>
      </trkpt>
      <trkpt lat="38.2825860" lon="-0.6766900">
        <ele>106.2</ele>
        <time>2019-10-19T10:16:05Z</time>
      </trkpt>
      <trkpt lat="38.2825770" lon="-0.6767940">
        <ele>106.2</ele>
        <time>2019-10-19T10:16:06Z</time>
      </trkpt>
      <trkpt lat="38.2825680" lon="-0.6768980">
        <ele>106.2</ele>
        <time>2019-10-19T10:16:07Z</time>
      </trkpt>
      <trkpt lat="38.2825580" lon="-0.6770030">
        <ele>106.2</ele>
        <time>2019-10-19T10:16:08Z</time>
      </trkpt>
      <trkpt lat="38.2825500" lon="-0.6771070">
        <ele>106.2</ele>
        <time>2019-10-19T10:16:09Z</time>
      </trkpt>
      <trkpt lat="38.2825400" lon="-0.6772130">
        <ele>106.2</ele>
        <time>2019-10-19T10:16:10Z</time>
      </trkpt>
      <trkpt lat="38.2825310" lon="-0.6773180">
        <ele>106.2</ele>
        <time>2019-10-19T10:16:11Z</time>
      </trkpt>
      <trkpt lat="38.2825210" lon="-0.6774240">
        <ele>106.2</ele>
        <time>2019-10-19T10:16:12Z</time>
      </trkpt>
      <trkpt lat="38.2825110" lon="-0.6775290">
        <ele>106.2</ele>
        <time>2019-10-19T10:16:13Z</time>
      </trkpt>
      <trkpt lat="38.2825020" lon="-0.6776350">
        <ele>106.2</ele>
        <time>2019-10-19T10:16:14Z</time>
      </trkpt>
      <trkpt lat="38.2824940" lon="-0.6777420">
        <ele>106.2</ele>
        <time>2019-10-19T10:16:15Z</time>
      </trkpt>
      <trkpt lat="38.2824750" lon="-0.6779580">
        <ele>106.2</ele>
        <time>2019-10-19T10:16:16Z</time>
      </trkpt>
      <trkpt lat="38.2824710" lon="-0.6780120">
        <ele>106.2</ele>
        <time>2019-10-19T10:16:17Z</time>
      </trkpt>
      <trkpt lat="38.2824660" lon="-0.6780660">
        <ele>106.2</ele>
        <time>2019-10-19T10:16:18Z</time>
      </trkpt>
      <trkpt lat="38.2824580" lon="-0.6781740">
        <ele>106.2</ele>
        <time>2019-10-19T10:16:19Z</time>
      </trkpt>
      <trkpt lat="38.2824510" lon="-0.6782810">
        <ele>106.2</ele>
        <time>2019-10-19T10:16:20Z</time>
      </trkpt>
      <trkpt lat="38.2824470" lon="-0.6783880">
        <ele>106.2</ele>
        <time>2019-10-19T10:16:21Z</time>
      </trkpt>
      <trkpt lat="38.2824430" lon="-0.6784950">
        <ele>106.2</ele>
        <time>2019-10-19T10:16:22Z</time>
      </trkpt>
      <trkpt lat="38.2824360" lon="-0.6787090">
        <ele>106.2</ele>
        <time>2019-10-19T10:16:23Z</time>
      </trkpt>
      <trkpt lat="38.2824340" lon="-0.6787620">
        <ele>106.2</ele>
        <time>2019-10-19T10:16:24Z</time>
      </trkpt>
      <trkpt lat="38.2824320" lon="-0.6788150">
        <ele>106.2</ele>
        <time>2019-10-19T10:16:25Z</time>
      </trkpt>
      <trkpt lat="38.2824310" lon="-0.6789200">
        <ele>106.2</ele>
        <time>2019-10-19T10:16:26Z</time>
      </trkpt>
      <trkpt lat="38.2824330" lon="-0.6791320">
        <ele>106.2</ele>
        <time>2019-10-19T10:16:27Z</time>
      </trkpt>
      <trkpt lat="38.2824340" lon="-0.6791830">
        <ele>106.2</ele>
        <time>2019-10-19T10:16:28Z</time>
      </trkpt>
      <trkpt lat="38.2824350" lon="-0.6792350">
        <ele>106.2</ele>
        <time>2019-10-19T10:16:29Z</time>
      </trkpt>
      <trkpt lat="38.2824360" lon="-0.6793410">
        <ele>106.2</ele>
        <time>2019-10-19T10:16:30Z</time>
      </trkpt>
      <trkpt lat="38.2824390" lon="-0.6794480">
        <ele>106.1</ele>
        <time>2019-10-19T10:16:31Z</time>
      </trkpt>
      <trkpt lat="38.2824440" lon="-0.6795560">
        <ele>106.0</ele>
        <time>2019-10-19T10:16:32Z</time>
      </trkpt>
      <trkpt lat="38.2824480" lon="-0.6796630">
        <ele>105.8</ele>
        <time>2019-10-19T10:16:33Z</time>
      </trkpt>
      <trkpt lat="38.2824520" lon="-0.6797710">
        <ele>105.7</ele>
        <time>2019-10-19T10:16:34Z</time>
      </trkpt>
      <trkpt lat="38.2824580" lon="-0.6798790">
        <ele>105.5</ele>
        <time>2019-10-19T10:16:35Z</time>
      </trkpt>
      <trkpt lat="38.2824640" lon="-0.6799830">
        <ele>105.4</ele>
        <time>2019-10-19T10:16:36Z</time>
      </trkpt>
      <trkpt lat="38.2824710" lon="-0.6800890">
        <ele>105.3</ele>
        <time>2019-10-19T10:16:37Z</time>
      </trkpt>
      <trkpt lat="38.2824790" lon="-0.6801960">
        <ele>105.2</ele>
        <time>2019-10-19T10:16:38Z</time>
      </trkpt>
      <trkpt lat="38.2824870" lon="-0.6803040">
        <ele>105.1</ele>
        <time>2019-10-19T10:16:39Z</time>
      </trkpt>
      <trkpt lat="38.2824960" lon="-0.6804130">
        <ele>105.0</ele>
        <time>2019-10-19T10:16:40Z</time>
      </trkpt>
      <trkpt lat="38.2825040" lon="-0.6805220">
        <ele>104.9</ele>
        <time>2019-10-19T10:16:41Z</time>
      </trkpt>
      <trkpt lat="38.2825120" lon="-0.6806300">
        <ele>104.7</ele>
        <time>2019-10-19T10:16:42Z</time>
      </trkpt>
      <trkpt lat="38.2825280" lon="-0.6808460">
        <ele>104.4</ele>
        <time>2019-10-19T10:16:43Z</time>
      </trkpt>
      <trkpt lat="38.2825320" lon="-0.6808990">
        <ele>104.3</ele>
        <time>2019-10-19T10:16:44Z</time>
      </trkpt>
      <trkpt lat="38.2825360" lon="-0.6809520">
        <ele>104.3</ele>
        <time>2019-10-19T10:16:45Z</time>
      </trkpt>
      <trkpt lat="38.2825440" lon="-0.6810600">
        <ele>104.2</ele>
        <time>2019-10-19T10:16:46Z</time>
      </trkpt>
      <trkpt lat="38.2825620" lon="-0.6812730">
        <ele>104.0</ele>
        <time>2019-10-19T10:16:47Z</time>
      </trkpt>
      <trkpt lat="38.2825670" lon="-0.6813250">
        <ele>103.9</ele>
        <time>2019-10-19T10:16:48Z</time>
      </trkpt>
      <trkpt lat="38.2825720" lon="-0.6813780">
        <ele>103.8</ele>
        <time>2019-10-19T10:16:49Z</time>
      </trkpt>
      <trkpt lat="38.2825870" lon="-0.6815360">
        <ele>103.5</ele>
        <time>2019-10-19T10:16:50Z</time>
      </trkpt>
      <trkpt lat="38.2825910" lon="-0.6815880">
        <ele>103.4</ele>
        <time>2019-10-19T10:16:51Z</time>
      </trkpt>
      <trkpt lat="38.2826010" lon="-0.6816920">
        <ele>103.3</ele>
        <time>2019-10-19T10:16:52Z</time>
      </trkpt>
      <trkpt lat="38.2826210" lon="-0.6817930">
        <ele>103.2</ele>
        <time>2019-10-19T10:16:53Z</time>
      </trkpt>
      <trkpt lat="38.2826530" lon="-0.6818880">
        <ele>103.2</ele>
        <time>2019-10-19T10:16:54Z</time>
      </trkpt>
      <trkpt lat="38.2827000" lon="-0.6819740">
        <ele>103.2</ele>
        <time>2019-10-19T10:16:55Z</time>
      </trkpt>
      <trkpt lat="38.2827510" lon="-0.6820520">
        <ele>103.2</ele>
        <time>2019-10-19T10:16:56Z</time>
      </trkpt>
      <trkpt lat="38.2827940" lon="-0.6821370">
        <ele>103.2</ele>
        <time>2019-10-19T10:16:57Z</time>
      </trkpt>
      <trkpt lat="38.2828230" lon="-0.6822280">
        <ele>103.2</ele>
        <time>2019-10-19T10:16:58Z</time>
      </trkpt>
      <trkpt lat="38.2828360" lon="-0.6823260">
        <ele>103.2</ele>
        <time>2019-10-19T10:16:59Z</time>
      </trkpt>
      <trkpt lat="38.2828310" lon="-0.6824270">
        <ele>103.3</ele>
        <time>2019-10-19T10:17:00Z</time>
      </trkpt>
      <trkpt lat="38.2828120" lon="-0.6825270">
        <ele>103.3</ele>
        <time>2019-10-19T10:17:01Z</time>
      </trkpt>
      <trkpt lat="38.2827340" lon="-0.6827130">
        <ele>103.3</ele>
        <time>2019-10-19T10:17:02Z</time>
      </trkpt>
      <trkpt lat="38.2827130" lon="-0.6827600">
        <ele>103.3</ele>
        <time>2019-10-19T10:17:03Z</time>
      </trkpt>
      <trkpt lat="38.2826920" lon="-0.6828070">
        <ele>103.3</ele>
        <time>2019-10-19T10:17:04Z</time>
      </trkpt>
      <trkpt lat="38.2826590" lon="-0.6829080">
        <ele>103.3</ele>
        <time>2019-10-19T10:17:05Z</time>
      </trkpt>
      <trkpt lat="38.2826360" lon="-0.6830170">
        <ele>103.3</ele>
        <time>2019-10-19T10:17:06Z</time>
      </trkpt>
      <trkpt lat="38.2826250" lon="-0.6831290">
        <ele>103.0</ele>
        <time>2019-10-19T10:17:07Z</time>
      </trkpt>
      <trkpt lat="38.2826200" lon="-0.6832410">
        <ele>102.7</ele>
        <time>2019-10-19T10:17:08Z</time>
      </trkpt>
      <trkpt lat="38.2826190" lon="-0.6833540">
        <ele>102.5</ele>
        <time>2019-10-19T10:17:09Z</time>
      </trkpt>
      <trkpt lat="38.2826160" lon="-0.6834650">
        <ele>102.5</ele>
        <time>2019-10-19T10:17:10Z</time>
      </trkpt>
      <trkpt lat="38.2826110" lon="-0.6835720">
        <ele>102.6</ele>
        <time>2019-10-19T10:17:11Z</time>
      </trkpt>
      <trkpt lat="38.2826040" lon="-0.6836800">
        <ele>102.7</ele>
        <time>2019-10-19T10:17:12Z</time>
      </trkpt>
      <trkpt lat="38.2825970" lon="-0.6837860">
        <ele>102.9</ele>
        <time>2019-10-19T10:17:13Z</time>
      </trkpt>
      <trkpt lat="38.2825890" lon="-0.6838910">
        <ele>103.1</ele>
        <time>2019-10-19T10:17:14Z</time>
      </trkpt>
      <trkpt lat="38.2825810" lon="-0.6839970">
        <ele>103.2</ele>
        <time>2019-10-19T10:17:15Z</time>
      </trkpt>
      <trkpt lat="38.2825720" lon="-0.6841010">
        <ele>103.3</ele>
        <time>2019-10-19T10:17:16Z</time>
      </trkpt>
      <trkpt lat="38.2825640" lon="-0.6842050">
        <ele>103.4</ele>
        <time>2019-10-19T10:17:17Z</time>
      </trkpt>
      <trkpt lat="38.2825540" lon="-0.6843100">
        <ele>103.4</ele>
        <time>2019-10-19T10:17:18Z</time>
      </trkpt>
      <trkpt lat="38.2825440" lon="-0.6844140">
        <ele>103.4</ele>
        <time>2019-10-19T10:17:19Z</time>
      </trkpt>
      <trkpt lat="38.2825330" lon="-0.6845190">
        <ele>103.4</ele>
        <time>2019-10-19T10:17:20Z</time>
      </trkpt>
      <trkpt lat="38.2825220" lon="-0.6846220">
        <ele>103.4</ele>
        <time>2019-10-19T10:17:21Z</time>
      </trkpt>
      <trkpt lat="38.2824940" lon="-0.6848270">
        <ele>103.5</ele>
        <time>2019-10-19T10:17:22Z</time>
      </trkpt>
      <trkpt lat="38.2824870" lon="-0.6848770">
        <ele>103.5</ele>
        <time>2019-10-19T10:17:23Z</time>
      </trkpt>
      <trkpt lat="38.2824800" lon="-0.6849270">
        <ele>103.5</ele>
        <time>2019-10-19T10:17:24Z</time>
      </trkpt>
      <trkpt lat="38.2824640" lon="-0.6850250">
        <ele>103.6</ele>
        <time>2019-10-19T10:17:25Z</time>
      </trkpt>
      <trkpt lat="38.2824480" lon="-0.6851220">
        <ele>103.8</ele>
        <time>2019-10-19T10:17:26Z</time>
      </trkpt>
      <trkpt lat="38.2824310" lon="-0.6852200">
        <ele>103.9</ele>
        <time>2019-10-19T10:17:27Z</time>
      </trkpt>
      <trkpt lat="38.2824140" lon="-0.6853170">
        <ele>104.1</ele>
        <time>2019-10-19T10:17:28Z</time>
      </trkpt>
      <trkpt lat="38.2823980" lon="-0.6854150">
        <ele>104.2</ele>
        <time>2019-10-19T10:17:29Z</time>
      </trkpt>
      <trkpt lat="38.2823800" lon="-0.6855120">
        <ele>104.2</ele>
        <time>2019-10-19T10:17:30Z</time>
      </trkpt>
      <trkpt lat="38.2823620" lon="-0.6856080">
        <ele>104.3</ele>
        <time>2019-10-19T10:17:31Z</time>
      </trkpt>
      <trkpt lat="38.2823420" lon="-0.6857040">
        <ele>104.3</ele>
        <time>2019-10-19T10:17:32Z</time>
      </trkpt>
      <trkpt lat="38.2823220" lon="-0.6857980">
        <ele>104.4</ele>
        <time>2019-10-19T10:17:33Z</time>
      </trkpt>
      <trkpt lat="38.2823020" lon="-0.6858930">
        <ele>104.4</ele>
        <time>2019-10-19T10:17:34Z</time>
      </trkpt>
      <trkpt lat="38.2822800" lon="-0.6859890">
        <ele>104.5</ele>
        <time>2019-10-19T10:17:35Z</time>
      </trkpt>
      <trkpt lat="38.2822570" lon="-0.6860870">
        <ele>104.5</ele>
        <time>2019-10-19T10:17:36Z</time>
      </trkpt>
      <trkpt lat="38.2822340" lon="-0.6861820">
        <ele>104.5</ele>
        <time>2019-10-19T10:17:37Z</time>
      </trkpt>
      <trkpt lat="38.2822120" lon="-0.6862770">
        <ele>104.5</ele>
        <time>2019-10-19T10:17:38Z</time>
      </trkpt>
      <trkpt lat="38.2821870" lon="-0.6863730">
        <ele>104.5</ele>
        <time>2019-10-19T10:17:39Z</time>
      </trkpt>
      <trkpt lat="38.2821620" lon="-0.6864700">
        <ele>104.5</ele>
        <time>2019-10-19T10:17:40Z</time>
      </trkpt>
      <trkpt lat="38.2821370" lon="-0.6865670">
        <ele>104.6</ele>
        <time>2019-10-19T10:17:41Z</time>
      </trkpt>
      <trkpt lat="38.2821110" lon="-0.6866630">
        <ele>104.6</ele>
        <time>2019-10-19T10:17:42Z</time>
      </trkpt>
      <trkpt lat="38.2820840" lon="-0.6867590">
        <ele>104.6</ele>
        <time>2019-10-19T10:17:43Z</time>
      </trkpt>
      <trkpt lat="38.2820580" lon="-0.6868530">
        <ele>104.6</ele>
        <time>2019-10-19T10:17:44Z</time>
      </trkpt>
      <trkpt lat="38.2820320" lon="-0.6869440">
        <ele>104.6</ele>
        <time>2019-10-19T10:17:45Z</time>
      </trkpt>
      <trkpt lat="38.2820050" lon="-0.6870340">
        <ele>104.7</ele>
        <time>2019-10-19T10:17:46Z</time>
      </trkpt>
      <trkpt lat="38.2819750" lon="-0.6871240">
        <ele>104.8</ele>
        <time>2019-10-19T10:17:47Z</time>
      </trkpt>
      <trkpt lat="38.2819470" lon="-0.6872150">
        <ele>104.9</ele>
        <time>2019-10-19T10:17:48Z</time>
      </trkpt>
      <trkpt lat="38.2819170" lon="-0.6873030">
        <ele>105.0</ele>
        <time>2019-10-19T10:17:49Z</time>
      </trkpt>
      <trkpt lat="38.2818570" lon="-0.6874820">
        <ele>105.2</ele>
        <time>2019-10-19T10:17:50Z</time>
      </trkpt>
      <trkpt lat="38.2818410" lon="-0.6875290">
        <ele>105.1</ele>
        <time>2019-10-19T10:17:51Z</time>
      </trkpt>
      <trkpt lat="38.2818240" lon="-0.6875750">
        <ele>105.1</ele>
        <time>2019-10-19T10:17:52Z</time>
      </trkpt>
      <trkpt lat="38.2817920" lon="-0.6876650">
        <ele>104.9</ele>
        <time>2019-10-19T10:17:53Z</time>
      </trkpt>
      <trkpt lat="38.2817600" lon="-0.6877540">
        <ele>104.8</ele>
        <time>2019-10-19T10:17:54Z</time>
      </trkpt>
      <trkpt lat="38.2817280" lon="-0.6878450">
        <ele>104.5</ele>
        <time>2019-10-19T10:17:55Z</time>
      </trkpt>
      <trkpt lat="38.2816980" lon="-0.6879350">
        <ele>104.0</ele>
        <time>2019-10-19T10:17:56Z</time>
      </trkpt>
      <trkpt lat="38.2816660" lon="-0.6880300">
        <ele>103.6</ele>
        <time>2019-10-19T10:17:57Z</time>
      </trkpt>
      <trkpt lat="38.2816010" lon="-0.6882170">
        <ele>102.9</ele>
        <time>2019-10-19T10:17:58Z</time>
      </trkpt>
      <trkpt lat="38.2815690" lon="-0.6883100">
        <ele>102.6</ele>
        <time>2019-10-19T10:17:59Z</time>
      </trkpt>
      <trkpt lat="38.2815370" lon="-0.6884040">
        <ele>102.6</ele>
        <time>2019-10-19T10:18:00Z</time>
      </trkpt>
      <trkpt lat="38.2815210" lon="-0.6884510">
        <ele>102.6</ele>
        <time>2019-10-19T10:18:01Z</time>
      </trkpt>
      <trkpt lat="38.2815050" lon="-0.6884970">
        <ele>102.6</ele>
        <time>2019-10-19T10:18:02Z</time>
      </trkpt>
      <trkpt lat="38.2814730" lon="-0.6885890">
        <ele>102.8</ele>
        <time>2019-10-19T10:18:03Z</time>
      </trkpt>
      <trkpt lat="38.2814390" lon="-0.6886810">
        <ele>102.9</ele>
        <time>2019-10-19T10:18:04Z</time>
      </trkpt>
      <trkpt lat="38.2814030" lon="-0.6887710">
        <ele>103.1</ele>
        <time>2019-10-19T10:18:05Z</time>
      </trkpt>
      <trkpt lat="38.2813720" lon="-0.6888600">
        <ele>103.2</ele>
        <time>2019-10-19T10:18:06Z</time>
      </trkpt>
      <trkpt lat="38.2813470" lon="-0.6889500">
        <ele>103.1</ele>
        <time>2019-10-19T10:18:07Z</time>
      </trkpt>
      <trkpt lat="38.2813500" lon="-0.6891260">
        <ele>103.3</ele>
        <time>2019-10-19T10:18:08Z</time>
      </trkpt>
      <trkpt lat="38.2813650" lon="-0.6891670">
        <ele>103.3</ele>
        <time>2019-10-19T10:18:09Z</time>
      </trkpt>
      <trkpt lat="38.2813790" lon="-0.6892090">
        <ele>103.5</ele>
        <time>2019-10-19T10:18:10Z</time>
      </trkpt>
      <trkpt lat="38.2814130" lon="-0.6892880">
        <ele>103.7</ele>
        <time>2019-10-19T10:18:11Z</time>
      </trkpt>
      <trkpt lat="38.2814430" lon="-0.6893720">
        <ele>103.9</ele>
        <time>2019-10-19T10:18:12Z</time>
      </trkpt>
      <trkpt lat="38.2814620" lon="-0.6894630">
        <ele>104.1</ele>
        <time>2019-10-19T10:18:13Z</time>
      </trkpt>
      <trkpt lat="38.2814520" lon="-0.6896500">
        <ele>104.4</ele>
        <time>2019-10-19T10:18:14Z</time>
      </trkpt>
      <trkpt lat="38.2814390" lon="-0.6896940">
        <ele>104.4</ele>
        <time>2019-10-19T10:18:15Z</time>
      </trkpt>
      <trkpt lat="38.2814250" lon="-0.6897380">
        <ele>104.4</ele>
        <time>2019-10-19T10:18:16Z</time>
      </trkpt>
      <trkpt lat="38.2813840" lon="-0.6898170">
        <ele>104.5</ele>
        <time>2019-10-19T10:18:17Z</time>
      </trkpt>
      <trkpt lat="38.2813300" lon="-0.6898840">
        <ele>104.5</ele>
        <time>2019-10-19T10:18:18Z</time>
      </trkpt>
      <trkpt lat="38.2811960" lon="-0.6899900">
        <ele>104.1</ele>
        <time>2019-10-19T10:18:19Z</time>
      </trkpt>
      <trkpt lat="38.2811600" lon="-0.6900140">
        <ele>104.1</ele>
        <time>2019-10-19T10:18:20Z</time>
      </trkpt>
      <trkpt lat="38.2811240" lon="-0.6900380">
        <ele>104.0</ele>
        <time>2019-10-19T10:18:21Z</time>
      </trkpt>
      <trkpt lat="38.2810590" lon="-0.6901010">
        <ele>103.9</ele>
        <time>2019-10-19T10:18:22Z</time>
      </trkpt>
      <trkpt lat="38.2810030" lon="-0.6901790">
        <ele>103.9</ele>
        <time>2019-10-19T10:18:23Z</time>
      </trkpt>
      <trkpt lat="38.2809580" lon="-0.6902680">
        <ele>103.8</ele>
        <time>2019-10-19T10:18:24Z</time>
      </trkpt>
      <trkpt lat="38.2809210" lon="-0.6903670">
        <ele>103.7</ele>
        <time>2019-10-19T10:18:25Z</time>
      </trkpt>
      <trkpt lat="38.2808530" lon="-0.6905700">
        <ele>103.5</ele>
        <time>2019-10-19T10:18:26Z</time>
      </trkpt>
      <trkpt lat="38.2808370" lon="-0.6906210">
        <ele>103.4</ele>
        <time>2019-10-19T10:18:27Z</time>
      </trkpt>
      <trkpt lat="38.2808200" lon="-0.6906710">
        <ele>103.4</ele>
        <time>2019-10-19T10:18:28Z</time>
      </trkpt>
      <trkpt lat="38.2807870" lon="-0.6907700">
        <ele>103.2</ele>
        <time>2019-10-19T10:18:29Z</time>
      </trkpt>
      <trkpt lat="38.2807190" lon="-0.6909670">
        <ele>102.8</ele>
        <time>2019-10-19T10:18:30Z</time>
      </trkpt>
      <trkpt lat="38.2807020" lon="-0.6910160">
        <ele>102.8</ele>
        <time>2019-10-19T10:18:31Z</time>
      </trkpt>
      <trkpt lat="38.2806850" lon="-0.6910650">
        <ele>102.8</ele>
        <time>2019-10-19T10:18:32Z</time>
      </trkpt>
      <trkpt lat="38.2806220" lon="-0.6912600">
        <ele>103.3</ele>
        <time>2019-10-19T10:18:33Z</time>
      </trkpt>
      <trkpt lat="38.2806060" lon="-0.6913090">
        <ele>103.4</ele>
        <time>2019-10-19T10:18:34Z</time>
      </trkpt>
      <trkpt lat="38.2805890" lon="-0.6913580">
        <ele>103.6</ele>
        <time>2019-10-19T10:18:35Z</time>
      </trkpt>
      <trkpt lat="38.2805230" lon="-0.6915540">
        <ele>104.5</ele>
        <time>2019-10-19T10:18:36Z</time>
      </trkpt>
      <trkpt lat="38.2805060" lon="-0.6916030">
        <ele>104.8</ele>
        <time>2019-10-19T10:18:37Z</time>
      </trkpt>
      <trkpt lat="38.2804890" lon="-0.6916510">
        <ele>105.0</ele>
        <time>2019-10-19T10:18:38Z</time>
      </trkpt>
      <trkpt lat="38.2804550" lon="-0.6917470">
        <ele>105.4</ele>
        <time>2019-10-19T10:18:39Z</time>
      </trkpt>
      <trkpt lat="38.2804220" lon="-0.6918420">
        <ele>105.5</ele>
        <time>2019-10-19T10:18:40Z</time>
      </trkpt>
      <trkpt lat="38.2803580" lon="-0.6920270">
        <ele>105.6</ele>
        <time>2019-10-19T10:18:41Z</time>
      </trkpt>
      <trkpt lat="38.2803430" lon="-0.6920740">
        <ele>105.5</ele>
        <time>2019-10-19T10:18:42Z</time>
      </trkpt>
      <trkpt lat="38.2803270" lon="-0.6921210">
        <ele>105.4</ele>
        <time>2019-10-19T10:18:43Z</time>
      </trkpt>
      <trkpt lat="38.2802800" lon="-0.6922640">
        <ele>105.1</ele>
        <time>2019-10-19T10:18:44Z</time>
      </trkpt>
      <trkpt lat="38.2802650" lon="-0.6923120">
        <ele>105.1</ele>
        <time>2019-10-19T10:18:45Z</time>
      </trkpt>
      <trkpt lat="38.2802380" lon="-0.6924110">
        <ele>104.9</ele>
        <time>2019-10-19T10:18:46Z</time>
      </trkpt>
      <trkpt lat="38.2802120" lon="-0.6925110">
        <ele>104.8</ele>
        <time>2019-10-19T10:18:47Z</time>
      </trkpt>
      <trkpt lat="38.2801870" lon="-0.6926100">
        <ele>104.7</ele>
        <time>2019-10-19T10:18:48Z</time>
      </trkpt>
      <trkpt lat="38.2801660" lon="-0.6927110">
        <ele>104.7</ele>
        <time>2019-10-19T10:18:49Z</time>
      </trkpt>
      <trkpt lat="38.2801450" lon="-0.6928130">
        <ele>104.6</ele>
        <time>2019-10-19T10:18:50Z</time>
      </trkpt>
      <trkpt lat="38.2801270" lon="-0.6929160">
        <ele>104.5</ele>
        <time>2019-10-19T10:18:51Z</time>
      </trkpt>
      <trkpt lat="38.2801000" lon="-0.6931200">
        <ele>104.0</ele>
        <time>2019-10-19T10:18:52Z</time>
      </trkpt>
      <trkpt lat="38.2800960" lon="-0.6931710">
        <ele>103.8</ele>
        <time>2019-10-19T10:18:53Z</time>
      </trkpt>
      <trkpt lat="38.2800910" lon="-0.6932220">
        <ele>103.6</ele>
        <time>2019-10-19T10:18:54Z</time>
      </trkpt>
      <trkpt lat="38.2800830" lon="-0.6933240">
        <ele>103.2</ele>
        <time>2019-10-19T10:18:55Z</time>
      </trkpt>
      <trkpt lat="38.2800750" lon="-0.6934280">
        <ele>102.8</ele>
        <time>2019-10-19T10:18:56Z</time>
      </trkpt>
      <trkpt lat="38.2800700" lon="-0.6935300">
        <ele>102.3</ele>
        <time>2019-10-19T10:18:57Z</time>
      </trkpt>
      <trkpt lat="38.2800630" lon="-0.6936320">
        <ele>101.6</ele>
        <time>2019-10-19T10:18:58Z</time>
      </trkpt>
      <trkpt lat="38.2800560" lon="-0.6937340">
        <ele>101.1</ele>
        <time>2019-10-19T10:18:59Z</time>
      </trkpt>
      <trkpt lat="38.2800490" lon="-0.6938350">
        <ele>100.5</ele>
        <time>2019-10-19T10:19:00Z</time>
      </trkpt>
      <trkpt lat="38.2800280" lon="-0.6940390">
        <ele>99.5</ele>
        <time>2019-10-19T10:19:01Z</time>
      </trkpt>
      <trkpt lat="38.2800240" lon="-0.6940900">
        <ele>99.4</ele>
        <time>2019-10-19T10:19:02Z</time>
      </trkpt>
      <trkpt lat="38.2800200" lon="-0.6941400">
        <ele>99.2</ele>
        <time>2019-10-19T10:19:03Z</time>
      </trkpt>
      <trkpt lat="38.2800120" lon="-0.6942430">
        <ele>99.2</ele>
        <time>2019-10-19T10:19:04Z</time>
      </trkpt>
      <trkpt lat="38.2800040" lon="-0.6943470">
        <ele>99.2</ele>
        <time>2019-10-19T10:19:05Z</time>
      </trkpt>
      <trkpt lat="38.2799880" lon="-0.6945530">
        <ele>99.8</ele>
        <time>2019-10-19T10:19:06Z</time>
      </trkpt>
      <trkpt lat="38.2799840" lon="-0.6946060">
        <ele>99.9</ele>
        <time>2019-10-19T10:19:07Z</time>
      </trkpt>
      <trkpt lat="38.2799800" lon="-0.6946580">
        <ele>100.2</ele>
        <time>2019-10-19T10:19:08Z</time>
      </trkpt>
      <trkpt lat="38.2799720" lon="-0.6947660">
        <ele>100.6</ele>
        <time>2019-10-19T10:19:09Z</time>
      </trkpt>
      <trkpt lat="38.2799640" lon="-0.6948710">
        <ele>100.7</ele>
        <time>2019-10-19T10:19:10Z</time>
      </trkpt>
      <trkpt lat="38.2799630" lon="-0.6949600">
        <ele>100.7</ele>
        <time>2019-10-19T10:19:11Z</time>
      </trkpt>
      <trkpt lat="38.2799580" lon="-0.6950620">
        <ele>100.6</ele>
        <time>2019-10-19T10:19:12Z</time>
      </trkpt>
      <trkpt lat="38.2799490" lon="-0.6951710">
        <ele>100.5</ele>
        <time>2019-10-19T10:19:13Z</time>
      </trkpt>
      <trkpt lat="38.2799420" lon="-0.6952810">
        <ele>100.3</ele>
        <time>2019-10-19T10:19:14Z</time>
      </trkpt>
      <trkpt lat="38.2799330" lon="-0.6953910">
        <ele>100.2</ele>
        <time>2019-10-19T10:19:15Z</time>
      </trkpt>
      <trkpt lat="38.2799250" lon="-0.6955010">
        <ele>100.0</ele>
        <time>2019-10-19T10:19:16Z</time>
      </trkpt>
      <trkpt lat="38.2799180" lon="-0.6956110">
        <ele>99.9</ele>
        <time>2019-10-19T10:19:17Z</time>
      </trkpt>
      <trkpt lat="38.2799040" lon="-0.6958180">
        <ele>99.7</ele>
        <time>2019-10-19T10:19:18Z</time>
      </trkpt>
      <trkpt lat="38.2798990" lon="-0.6959110">
        <ele>99.9</ele>
        <time>2019-10-19T10:19:19Z</time>
      </trkpt>
      <trkpt lat="38.2799050" lon="-0.6959560">
        <ele>100.0</ele>
        <time>2019-10-19T10:19:20Z</time>
      </trkpt>
      <trkpt lat="38.2799110" lon="-0.6960020">
        <ele>100.1</ele>
        <time>2019-10-19T10:19:21Z</time>
      </trkpt>
      <trkpt lat="38.2799420" lon="-0.6960870">
        <ele>100.2</ele>
        <time>2019-10-19T10:19:22Z</time>
      </trkpt>
      <trkpt lat="38.2800350" lon="-0.6962360">
        <ele>100.7</ele>
        <time>2019-10-19T10:19:23Z</time>
      </trkpt>
      <trkpt lat="38.2800700" lon="-0.6963240">
        <ele>100.9</ele>
        <time>2019-10-19T10:19:24Z</time>
      </trkpt>
      <trkpt lat="38.2800790" lon="-0.6963730">
        <ele>101.0</ele>
        <time>2019-10-19T10:19:25Z</time>
      </trkpt>
      <trkpt lat="38.2800880" lon="-0.6964230">
        <ele>101.1</ele>
        <time>2019-10-19T10:19:26Z</time>
      </trkpt>
      <trkpt lat="38.2800870" lon="-0.6965270">
        <ele>101.2</ele>
        <time>2019-10-19T10:19:27Z</time>
      </trkpt>
      <trkpt lat="38.2800220" lon="-0.6967130">
        <ele>101.2</ele>
        <time>2019-10-19T10:19:28Z</time>
      </trkpt>
      <trkpt lat="38.2799900" lon="-0.6967430">
        <ele>101.2</ele>
        <time>2019-10-19T10:19:29Z</time>
      </trkpt>
      <trkpt lat="38.2799580" lon="-0.6967730">
        <ele>101.1</ele>
        <time>2019-10-19T10:19:30Z</time>
      </trkpt>
      <trkpt lat="38.2798550" lon="-0.6968450">
        <ele>100.9</ele>
        <time>2019-10-19T10:19:31Z</time>
      </trkpt>
      <trkpt lat="38.2798160" lon="-0.6968570">
        <ele>100.8</ele>
        <time>2019-10-19T10:19:32Z</time>
      </trkpt>
      <trkpt lat="38.2796460" lon="-0.6968300">
        <ele>99.9</ele>
        <time>2019-10-19T10:19:33Z</time>
      </trkpt>
      <trkpt lat="38.2795700" lon="-0.6967760">
        <ele>99.7</ele>
        <time>2019-10-19T10:19:34Z</time>
      </trkpt>
      <trkpt lat="38.2795390" lon="-0.6967370">
        <ele>99.6</ele>
        <time>2019-10-19T10:19:35Z</time>
      </trkpt>
      <trkpt lat="38.2795070" lon="-0.6966980">
        <ele>99.6</ele>
        <time>2019-10-19T10:19:36Z</time>
      </trkpt>
      <trkpt lat="38.2794600" lon="-0.6966020">
        <ele>99.6</ele>
        <time>2019-10-19T10:19:37Z</time>
      </trkpt>
      <trkpt lat="38.2794370" lon="-0.6964920">
        <ele>99.5</ele>
        <time>2019-10-19T10:19:38Z</time>
      </trkpt>
      <trkpt lat="38.2794640" lon="-0.6962760">
        <ele>99.5</ele>
        <time>2019-10-19T10:19:39Z</time>
      </trkpt>
      <trkpt lat="38.2795100" lon="-0.6961820">
        <ele>99.5</ele>
        <time>2019-10-19T10:19:40Z</time>
      </trkpt>
      <trkpt lat="38.2795390" lon="-0.6961410">
        <ele>99.4</ele>
        <time>2019-10-19T10:19:41Z</time>
      </trkpt>
      <trkpt lat="38.2795680" lon="-0.6960990">
        <ele>99.4</ele>
        <time>2019-10-19T10:19:42Z</time>
      </trkpt>
      <trkpt lat="38.2796790" lon="-0.6959260">
        <ele>99.4</ele>
        <time>2019-10-19T10:19:43Z</time>
      </trkpt>
      <trkpt lat="38.2796900" lon="-0.6958460">
        <ele>99.4</ele>
        <time>2019-10-19T10:19:44Z</time>
      </trkpt>
      <trkpt lat="38.2797000" lon="-0.6957650">
        <ele>99.5</ele>
        <time>2019-10-19T10:19:45Z</time>
      </trkpt>
      <trkpt lat="38.2797210" lon="-0.6956030">
        <ele>99.6</ele>
        <time>2019-10-19T10:19:46Z</time>
      </trkpt>
      <trkpt lat="38.2797230" lon="-0.6955480">
        <ele>99.7</ele>
        <time>2019-10-19T10:19:47Z</time>
      </trkpt>
      <trkpt lat="38.2797250" lon="-0.6954930">
        <ele>99.8</ele>
        <time>2019-10-19T10:19:48Z</time>
      </trkpt>
      <trkpt lat="38.2797310" lon="-0.6953820">
        <ele>99.9</ele>
        <time>2019-10-19T10:19:49Z</time>
      </trkpt>
      <trkpt lat="38.2797460" lon="-0.6951570">
        <ele>100.1</ele>
        <time>2019-10-19T10:19:50Z</time>
      </trkpt>
      <trkpt lat="38.2797500" lon="-0.6951000">
        <ele>100.2</ele>
        <time>2019-10-19T10:19:51Z</time>
      </trkpt>
      <trkpt lat="38.2797530" lon="-0.6950430">
        <ele>100.2</ele>
        <time>2019-10-19T10:19:52Z</time>
      </trkpt>
      <trkpt lat="38.2797590" lon="-0.6949290">
        <ele>100.4</ele>
        <time>2019-10-19T10:19:53Z</time>
      </trkpt>
      <trkpt lat="38.2797670" lon="-0.6948170">
        <ele>100.5</ele>
        <time>2019-10-19T10:19:54Z</time>
      </trkpt>
      <trkpt lat="38.2797740" lon="-0.6947030">
        <ele>100.6</ele>
        <time>2019-10-19T10:19:55Z</time>
      </trkpt>
      <trkpt lat="38.2797910" lon="-0.6944760">
        <ele>101.0</ele>
        <time>2019-10-19T10:19:56Z</time>
      </trkpt>
      <trkpt lat="38.2797940" lon="-0.6944200">
        <ele>101.0</ele>
        <time>2019-10-19T10:19:57Z</time>
      </trkpt>
      <trkpt lat="38.2797970" lon="-0.6943630">
        <ele>101.1</ele>
        <time>2019-10-19T10:19:58Z</time>
      </trkpt>
      <trkpt lat="38.2798040" lon="-0.6942510">
        <ele>101.2</ele>
        <time>2019-10-19T10:19:59Z</time>
      </trkpt>
      <trkpt lat="38.2798210" lon="-0.6940260">
        <ele>101.3</ele>
        <time>2019-10-19T10:20:00Z</time>
      </trkpt>
      <trkpt lat="38.2798250" lon="-0.6939700">
        <ele>101.3</ele>
        <time>2019-10-19T10:20:01Z</time>
      </trkpt>
      <trkpt lat="38.2798290" lon="-0.6939140">
        <ele>101.3</ele>
        <time>2019-10-19T10:20:02Z</time>
      </trkpt>
      <trkpt lat="38.2798370" lon="-0.6938020">
        <ele>101.4</ele>
        <time>2019-10-19T10:20:03Z</time>
      </trkpt>
      <trkpt lat="38.2798450" lon="-0.6936910">
        <ele>101.4</ele>
        <time>2019-10-19T10:20:04Z</time>
      </trkpt>
      <trkpt lat="38.2798520" lon="-0.6935800">
        <ele>101.5</ele>
        <time>2019-10-19T10:20:05Z</time>
      </trkpt>
      <trkpt lat="38.2798590" lon="-0.6934690">
        <ele>101.6</ele>
        <time>2019-10-19T10:20:06Z</time>
      </trkpt>
      <trkpt lat="38.2798680" lon="-0.6933580">
        <ele>101.7</ele>
        <time>2019-10-19T10:20:07Z</time>
      </trkpt>
      <trkpt lat="38.2798770" lon="-0.6932470">
        <ele>101.9</ele>
        <time>2019-10-19T10:20:08Z</time>
      </trkpt>
      <trkpt lat="38.2798860" lon="-0.6931360">
        <ele>102.0</ele>
        <time>2019-10-19T10:20:09Z</time>
      </trkpt>
      <trkpt lat="38.2798980" lon="-0.6930270">
        <ele>102.2</ele>
        <time>2019-10-19T10:20:10Z</time>
      </trkpt>
      <trkpt lat="38.2799130" lon="-0.6929200">
        <ele>102.4</ele>
        <time>2019-10-19T10:20:11Z</time>
      </trkpt>
      <trkpt lat="38.2799290" lon="-0.6928120">
        <ele>102.6</ele>
        <time>2019-10-19T10:20:12Z</time>
      </trkpt>
      <trkpt lat="38.2799470" lon="-0.6927040">
        <ele>102.8</ele>
        <time>2019-10-19T10:20:13Z</time>
      </trkpt>
      <trkpt lat="38.2799670" lon="-0.6925980">
        <ele>102.9</ele>
        <time>2019-10-19T10:20:14Z</time>
      </trkpt>
      <trkpt lat="38.2799910" lon="-0.6924930">
        <ele>103.0</ele>
        <time>2019-10-19T10:20:15Z</time>
      </trkpt>
      <trkpt lat="38.2800470" lon="-0.6922820">
        <ele>103.2</ele>
        <time>2019-10-19T10:20:16Z</time>
      </trkpt>
      <trkpt lat="38.2800630" lon="-0.6922310">
        <ele>103.2</ele>
        <time>2019-10-19T10:20:17Z</time>
      </trkpt>
      <trkpt lat="38.2800780" lon="-0.6921790">
        <ele>103.3</ele>
        <time>2019-10-19T10:20:18Z</time>
      </trkpt>
      <trkpt lat="38.2801100" lon="-0.6920760">
        <ele>103.3</ele>
        <time>2019-10-19T10:20:19Z</time>
      </trkpt>
      <trkpt lat="38.2801790" lon="-0.6918730">
        <ele>103.4</ele>
        <time>2019-10-19T10:20:20Z</time>
      </trkpt>
      <trkpt lat="38.2801970" lon="-0.6918240">
        <ele>103.4</ele>
        <time>2019-10-19T10:20:21Z</time>
      </trkpt>
      <trkpt lat="38.2802140" lon="-0.6917740">
        <ele>103.4</ele>
        <time>2019-10-19T10:20:22Z</time>
      </trkpt>
      <trkpt lat="38.2802480" lon="-0.6916710">
        <ele>103.4</ele>
        <time>2019-10-19T10:20:23Z</time>
      </trkpt>
      <trkpt lat="38.2802810" lon="-0.6915670">
        <ele>103.4</ele>
        <time>2019-10-19T10:20:24Z</time>
      </trkpt>
      <trkpt lat="38.2803140" lon="-0.6914600">
        <ele>103.2</ele>
        <time>2019-10-19T10:20:25Z</time>
      </trkpt>
      <trkpt lat="38.2803500" lon="-0.6913550">
        <ele>103.1</ele>
        <time>2019-10-19T10:20:26Z</time>
      </trkpt>
      <trkpt lat="38.2804240" lon="-0.6911460">
        <ele>102.9</ele>
        <time>2019-10-19T10:20:27Z</time>
      </trkpt>
      <trkpt lat="38.2804610" lon="-0.6910430">
        <ele>102.9</ele>
        <time>2019-10-19T10:20:28Z</time>
      </trkpt>
      <trkpt lat="38.2804790" lon="-0.6909920">
        <ele>102.9</ele>
        <time>2019-10-19T10:20:29Z</time>
      </trkpt>
      <trkpt lat="38.2804970" lon="-0.6909400">
        <ele>102.9</ele>
        <time>2019-10-19T10:20:30Z</time>
      </trkpt>
      <trkpt lat="38.2805660" lon="-0.6907360">
        <ele>103.0</ele>
        <time>2019-10-19T10:20:31Z</time>
      </trkpt>
      <trkpt lat="38.2805830" lon="-0.6906860">
        <ele>103.0</ele>
        <time>2019-10-19T10:20:32Z</time>
      </trkpt>
      <trkpt lat="38.2806000" lon="-0.6906350">
        <ele>103.0</ele>
        <time>2019-10-19T10:20:33Z</time>
      </trkpt>
      <trkpt lat="38.2806690" lon="-0.6904350">
        <ele>103.2</ele>
        <time>2019-10-19T10:20:34Z</time>
      </trkpt>
      <trkpt lat="38.2807050" lon="-0.6903370">
        <ele>103.2</ele>
        <time>2019-10-19T10:20:35Z</time>
      </trkpt>
      <trkpt lat="38.2807230" lon="-0.6902880">
        <ele>103.3</ele>
        <time>2019-10-19T10:20:36Z</time>
      </trkpt>
      <trkpt lat="38.2807410" lon="-0.6902390">
        <ele>103.3</ele>
        <time>2019-10-19T10:20:37Z</time>
      </trkpt>
      <trkpt lat="38.2807730" lon="-0.6901410">
        <ele>103.3</ele>
        <time>2019-10-19T10:20:38Z</time>
      </trkpt>
      <trkpt lat="38.2807890" lon="-0.6900390">
        <ele>103.4</ele>
        <time>2019-10-19T10:20:39Z</time>
      </trkpt>
      <trkpt lat="38.2807880" lon="-0.6899400">
        <ele>103.3</ele>
        <time>2019-10-19T10:20:40Z</time>
      </trkpt>
      <trkpt lat="38.2807720" lon="-0.6898430">
        <ele>103.2</ele>
        <time>2019-10-19T10:20:41Z</time>
      </trkpt>
      <trkpt lat="38.2807370" lon="-0.6896380">
        <ele>103.0</ele>
        <time>2019-10-19T10:20:42Z</time>
      </trkpt>
      <trkpt lat="38.2807500" lon="-0.6895610">
        <ele>103.0</ele>
        <time>2019-10-19T10:20:43Z</time>
      </trkpt>
      <trkpt lat="38.2807630" lon="-0.6894830">
        <ele>103.0</ele>
        <time>2019-10-19T10:20:44Z</time>
      </trkpt>
      <trkpt lat="38.2807880" lon="-0.6893280">
        <ele>103.0</ele>
        <time>2019-10-19T10:20:45Z</time>
      </trkpt>
      <trkpt lat="38.2808130" lon="-0.6892850">
        <ele>103.0</ele>
        <time>2019-10-19T10:20:46Z</time>
      </trkpt>
      <trkpt lat="38.2808380" lon="-0.6892420">
        <ele>103.0</ele>
        <time>2019-10-19T10:20:47Z</time>
      </trkpt>
      <trkpt lat="38.2808990" lon="-0.6891690">
        <ele>103.0</ele>
        <time>2019-10-19T10:20:48Z</time>
      </trkpt>
      <trkpt lat="38.2810290" lon="-0.6890330">
        <ele>103.0</ele>
        <time>2019-10-19T10:20:49Z</time>
      </trkpt>
      <trkpt lat="38.2810550" lon="-0.6889900">
        <ele>103.0</ele>
        <time>2019-10-19T10:20:50Z</time>
      </trkpt>
      <trkpt lat="38.2810800" lon="-0.6889460">
        <ele>103.0</ele>
        <time>2019-10-19T10:20:51Z</time>
      </trkpt>
      <trkpt lat="38.2811520" lon="-0.6888080">
        <ele>103.0</ele>
        <time>2019-10-19T10:20:52Z</time>
      </trkpt>
      <trkpt lat="38.2811720" lon="-0.6887580">
        <ele>103.0</ele>
        <time>2019-10-19T10:20:53Z</time>
      </trkpt>
      <trkpt lat="38.2812090" lon="-0.6886560">
        <ele>103.1</ele>
        <time>2019-10-19T10:20:54Z</time>
      </trkpt>
      <trkpt lat="38.2812430" lon="-0.6885520">
        <ele>103.1</ele>
        <time>2019-10-19T10:20:55Z</time>
      </trkpt>
      <trkpt lat="38.2813160" lon="-0.6883460">
        <ele>103.2</ele>
        <time>2019-10-19T10:20:56Z</time>
      </trkpt>
      <trkpt lat="38.2813350" lon="-0.6882950">
        <ele>103.2</ele>
        <time>2019-10-19T10:20:57Z</time>
      </trkpt>
      <trkpt lat="38.2813530" lon="-0.6882440">
        <ele>103.2</ele>
        <time>2019-10-19T10:20:58Z</time>
      </trkpt>
      <trkpt lat="38.2814080" lon="-0.6880890">
        <ele>103.2</ele>
        <time>2019-10-19T10:20:59Z</time>
      </trkpt>
      <trkpt lat="38.2814260" lon="-0.6880360">
        <ele>103.2</ele>
        <time>2019-10-19T10:21:00Z</time>
      </trkpt>
      <trkpt lat="38.2814600" lon="-0.6879340">
        <ele>103.2</ele>
        <time>2019-10-19T10:21:01Z</time>
      </trkpt>
      <trkpt lat="38.2814950" lon="-0.6878320">
        <ele>103.1</ele>
        <time>2019-10-19T10:21:02Z</time>
      </trkpt>
      <trkpt lat="38.2815300" lon="-0.6877290">
        <ele>103.1</ele>
        <time>2019-10-19T10:21:03Z</time>
      </trkpt>
      <trkpt lat="38.2815670" lon="-0.6876270">
        <ele>103.1</ele>
        <time>2019-10-19T10:21:04Z</time>
      </trkpt>
      <trkpt lat="38.2816040" lon="-0.6875250">
        <ele>103.0</ele>
        <time>2019-10-19T10:21:05Z</time>
      </trkpt>
      <trkpt lat="38.2816390" lon="-0.6874240">
        <ele>103.0</ele>
        <time>2019-10-19T10:21:06Z</time>
      </trkpt>
      <trkpt lat="38.2816730" lon="-0.6873230">
        <ele>103.0</ele>
        <time>2019-10-19T10:21:07Z</time>
      </trkpt>
      <trkpt lat="38.2817070" lon="-0.6872190">
        <ele>103.0</ele>
        <time>2019-10-19T10:21:08Z</time>
      </trkpt>
      <trkpt lat="38.2817750" lon="-0.6870080">
        <ele>102.9</ele>
        <time>2019-10-19T10:21:09Z</time>
      </trkpt>
      <trkpt lat="38.2817920" lon="-0.6869550">
        <ele>102.9</ele>
        <time>2019-10-19T10:21:10Z</time>
      </trkpt>
      <trkpt lat="38.2818080" lon="-0.6869020">
        <ele>103.0</ele>
        <time>2019-10-19T10:21:11Z</time>
      </trkpt>
      <trkpt lat="38.2818410" lon="-0.6867960">
        <ele>103.0</ele>
        <time>2019-10-19T10:21:12Z</time>
      </trkpt>
      <trkpt lat="38.2818720" lon="-0.6866890">
        <ele>103.0</ele>
        <time>2019-10-19T10:21:13Z</time>
      </trkpt>
      <trkpt lat="38.2819020" lon="-0.6865810">
        <ele>103.0</ele>
        <time>2019-10-19T10:21:14Z</time>
      </trkpt>
      <trkpt lat="38.2819310" lon="-0.6864710">
        <ele>103.0</ele>
        <time>2019-10-19T10:21:15Z</time>
      </trkpt>
      <trkpt lat="38.2819590" lon="-0.6863630">
        <ele>103.1</ele>
        <time>2019-10-19T10:21:16Z</time>
      </trkpt>
      <trkpt lat="38.2819880" lon="-0.6862520">
        <ele>103.1</ele>
        <time>2019-10-19T10:21:17Z</time>
      </trkpt>
      <trkpt lat="38.2820160" lon="-0.6861430">
        <ele>103.2</ele>
        <time>2019-10-19T10:21:18Z</time>
      </trkpt>
      <trkpt lat="38.2820670" lon="-0.6859210">
        <ele>103.3</ele>
        <time>2019-10-19T10:21:19Z</time>
      </trkpt>
      <trkpt lat="38.2820780" lon="-0.6858660">
        <ele>103.3</ele>
        <time>2019-10-19T10:21:20Z</time>
      </trkpt>
      <trkpt lat="38.2820890" lon="-0.6858110">
        <ele>103.3</ele>
        <time>2019-10-19T10:21:21Z</time>
      </trkpt>
      <trkpt lat="38.2821350" lon="-0.6855920">
        <ele>103.3</ele>
        <time>2019-10-19T10:21:22Z</time>
      </trkpt>
      <trkpt lat="38.2821470" lon="-0.6855360">
        <ele>103.3</ele>
        <time>2019-10-19T10:21:23Z</time>
      </trkpt>
      <trkpt lat="38.2821590" lon="-0.6854800">
        <ele>103.3</ele>
        <time>2019-10-19T10:21:24Z</time>
      </trkpt>
      <trkpt lat="38.2821780" lon="-0.6853710">
        <ele>103.3</ele>
        <time>2019-10-19T10:21:25Z</time>
      </trkpt>
      <trkpt lat="38.2821970" lon="-0.6852620">
        <ele>103.2</ele>
        <time>2019-10-19T10:21:26Z</time>
      </trkpt>
      <trkpt lat="38.2822330" lon="-0.6850400">
        <ele>103.1</ele>
        <time>2019-10-19T10:21:27Z</time>
      </trkpt>
      <trkpt lat="38.2822500" lon="-0.6849290">
        <ele>103.1</ele>
        <time>2019-10-19T10:21:28Z</time>
      </trkpt>
      <trkpt lat="38.2822590" lon="-0.6848730">
        <ele>103.0</ele>
        <time>2019-10-19T10:21:29Z</time>
      </trkpt>
      <trkpt lat="38.2822670" lon="-0.6848170">
        <ele>103.0</ele>
        <time>2019-10-19T10:21:30Z</time>
      </trkpt>
      <trkpt lat="38.2822970" lon="-0.6845960">
        <ele>102.9</ele>
        <time>2019-10-19T10:21:31Z</time>
      </trkpt>
      <trkpt lat="38.2823060" lon="-0.6845140">
        <ele>102.9</ele>
        <time>2019-10-19T10:21:32Z</time>
      </trkpt>
      <trkpt lat="38.2823150" lon="-0.6844310">
        <ele>102.8</ele>
        <time>2019-10-19T10:21:33Z</time>
      </trkpt>
      <trkpt lat="38.2823330" lon="-0.6842650">
        <ele>102.8</ele>
        <time>2019-10-19T10:21:34Z</time>
      </trkpt>
      <trkpt lat="38.2823390" lon="-0.6842100">
        <ele>102.8</ele>
        <time>2019-10-19T10:21:35Z</time>
      </trkpt>
      <trkpt lat="38.2823450" lon="-0.6841540">
        <ele>102.8</ele>
        <time>2019-10-19T10:21:36Z</time>
      </trkpt>
      <trkpt lat="38.2823560" lon="-0.6840420">
        <ele>102.8</ele>
        <time>2019-10-19T10:21:37Z</time>
      </trkpt>
      <trkpt lat="38.2823660" lon="-0.6839290">
        <ele>102.7</ele>
        <time>2019-10-19T10:21:38Z</time>
      </trkpt>
      <trkpt lat="38.2823740" lon="-0.6838160">
        <ele>102.7</ele>
        <time>2019-10-19T10:21:39Z</time>
      </trkpt>
      <trkpt lat="38.2823830" lon="-0.6837050">
        <ele>102.7</ele>
        <time>2019-10-19T10:21:40Z</time>
      </trkpt>
      <trkpt lat="38.2823910" lon="-0.6835940">
        <ele>102.7</ele>
        <time>2019-10-19T10:21:41Z</time>
      </trkpt>
      <trkpt lat="38.2823990" lon="-0.6834860">
        <ele>102.7</ele>
        <time>2019-10-19T10:21:42Z</time>
      </trkpt>
      <trkpt lat="38.2824090" lon="-0.6833780">
        <ele>102.7</ele>
        <time>2019-10-19T10:21:43Z</time>
      </trkpt>
      <trkpt lat="38.2824220" lon="-0.6832730">
        <ele>102.7</ele>
        <time>2019-10-19T10:21:44Z</time>
      </trkpt>
      <trkpt lat="38.2824290" lon="-0.6831700">
        <ele>102.7</ele>
        <time>2019-10-19T10:21:45Z</time>
      </trkpt>
      <trkpt lat="38.2824320" lon="-0.6830650">
        <ele>102.7</ele>
        <time>2019-10-19T10:21:46Z</time>
      </trkpt>
      <trkpt lat="38.2824250" lon="-0.6829610">
        <ele>102.6</ele>
        <time>2019-10-19T10:21:47Z</time>
      </trkpt>
      <trkpt lat="38.2823990" lon="-0.6828640">
        <ele>102.6</ele>
        <time>2019-10-19T10:21:48Z</time>
      </trkpt>
      <trkpt lat="38.2823520" lon="-0.6827810">
        <ele>102.5</ele>
        <time>2019-10-19T10:21:49Z</time>
      </trkpt>
      <trkpt lat="38.2822280" lon="-0.6826360">
        <ele>102.3</ele>
        <time>2019-10-19T10:21:50Z</time>
      </trkpt>
      <trkpt lat="38.2822050" lon="-0.6825890">
        <ele>102.4</ele>
        <time>2019-10-19T10:21:51Z</time>
      </trkpt>
      <trkpt lat="38.2821810" lon="-0.6825420">
        <ele>102.4</ele>
        <time>2019-10-19T10:21:52Z</time>
      </trkpt>
      <trkpt lat="38.2821470" lon="-0.6823300">
        <ele>102.5</ele>
        <time>2019-10-19T10:21:53Z</time>
      </trkpt>
      <trkpt lat="38.2821600" lon="-0.6822830">
        <ele>102.5</ele>
        <time>2019-10-19T10:21:54Z</time>
      </trkpt>
      <trkpt lat="38.2821720" lon="-0.6822350">
        <ele>102.5</ele>
        <time>2019-10-19T10:21:55Z</time>
      </trkpt>
      <trkpt lat="38.2822210" lon="-0.6821020">
        <ele>102.7</ele>
        <time>2019-10-19T10:21:56Z</time>
      </trkpt>
      <trkpt lat="38.2822450" lon="-0.6820640">
        <ele>102.8</ele>
        <time>2019-10-19T10:21:57Z</time>
      </trkpt>
      <trkpt lat="38.2823070" lon="-0.6820110">
        <ele>102.8</ele>
        <time>2019-10-19T10:21:58Z</time>
      </trkpt>
      <trkpt lat="38.2823750" lon="-0.6819720">
        <ele>102.9</ele>
        <time>2019-10-19T10:21:59Z</time>
      </trkpt>
      <trkpt lat="38.2825200" lon="-0.6819460">
        <ele>103.1</ele>
        <time>2019-10-19T10:22:00Z</time>
      </trkpt>
      <trkpt lat="38.2825550" lon="-0.6819530">
        <ele>103.1</ele>
        <time>2019-10-19T10:22:01Z</time>
      </trkpt>
      <trkpt lat="38.2825900" lon="-0.6819610">
        <ele>103.1</ele>
        <time>2019-10-19T10:22:02Z</time>
      </trkpt>
      <trkpt lat="38.2827190" lon="-0.6820410">
        <ele>103.2</ele>
        <time>2019-10-19T10:22:03Z</time>
      </trkpt>
      <trkpt lat="38.2827430" lon="-0.6820740">
        <ele>103.2</ele>
        <time>2019-10-19T10:22:04Z</time>
      </trkpt>
      <trkpt lat="38.2827660" lon="-0.6821070">
        <ele>103.2</ele>
        <time>2019-10-19T10:22:05Z</time>
      </trkpt>
      <trkpt lat="38.2828290" lon="-0.6822690">
        <ele>103.2</ele>
        <time>2019-10-19T10:22:06Z</time>
      </trkpt>
      <trkpt lat="38.2828360" lon="-0.6823130">
        <ele>103.2</ele>
        <time>2019-10-19T10:22:07Z</time>
      </trkpt>
      <trkpt lat="38.2828420" lon="-0.6823580">
        <ele>103.2</ele>
        <time>2019-10-19T10:22:08Z</time>
      </trkpt>
      <trkpt lat="38.2828510" lon="-0.6824350">
        <ele>103.2</ele>
        <time>2019-10-19T10:22:09Z</time>
      </trkpt>
      <trkpt lat="38.2828700" lon="-0.6824910">
        <ele>103.2</ele>
        <time>2019-10-19T10:22:10Z</time>
      </trkpt>
      <trkpt lat="38.2829490" lon="-0.6825260">
        <ele>103.2</ele>
        <time>2019-10-19T10:22:11Z</time>
      </trkpt>
      <trkpt lat="38.2829680" lon="-0.6825240">
        <ele>103.2</ele>
        <time>2019-10-19T10:22:12Z</time>
      </trkpt>
      <trkpt lat="38.2829870" lon="-0.6825210">
        <ele>103.2</ele>
        <time>2019-10-19T10:22:13Z</time>
      </trkpt>
      <trkpt lat="38.2830190" lon="-0.6825220">
        <ele>103.2</ele>
        <time>2019-10-19T10:22:14Z</time>
      </trkpt>
      <trkpt lat="38.2830440" lon="-0.6825350">
        <ele>103.3</ele>
        <time>2019-10-19T10:22:15Z</time>
      </trkpt>
      <trkpt lat="38.2829840" lon="-0.6825100">
        <ele>103.3</ele>
        <time>2019-10-19T10:43:23Z</time>
      </trkpt>
      <trkpt lat="38.2829620" lon="-0.6825330">
        <ele>103.3</ele>
        <time>2019-10-19T10:43:24Z</time>
      </trkpt>
      <trkpt lat="38.2829620" lon="-0.6825330">
        <ele>103.3</ele>
        <time>2019-10-19T10:43:25Z</time>
      </trkpt>
      <trkpt lat="38.2829440" lon="-0.6825700">
        <ele>103.3</ele>
        <time>2019-10-19T10:43:26Z</time>
      </trkpt>
      <trkpt lat="38.2829220" lon="-0.6826020">
        <ele>103.3</ele>
        <time>2019-10-19T10:43:27Z</time>
      </trkpt>
      <trkpt lat="38.2828750" lon="-0.6826610">
        <ele>103.3</ele>
        <time>2019-10-19T10:43:28Z</time>
      </trkpt>
      <trkpt lat="38.2828500" lon="-0.6826670">
        <ele>103.3</ele>
        <time>2019-10-19T10:43:29Z</time>
      </trkpt>
      <trkpt lat="38.2828240" lon="-0.6826730">
        <ele>103.3</ele>
        <time>2019-10-19T10:43:30Z</time>
      </trkpt>
      <trkpt lat="38.2828240" lon="-0.6826730">
        <ele>103.3</ele>
        <time>2019-10-19T10:43:31Z</time>
      </trkpt>
      <trkpt lat="38.2828010" lon="-0.6826740">
        <ele>103.3</ele>
        <time>2019-10-19T10:43:32Z</time>
      </trkpt>
      <trkpt lat="38.2827510" lon="-0.6827160">
        <ele>103.4</ele>
        <time>2019-10-19T10:43:33Z</time>
      </trkpt>
      <trkpt lat="38.2827350" lon="-0.6827310">
        <ele>103.4</ele>
        <time>2019-10-19T10:43:34Z</time>
      </trkpt>
      <trkpt lat="38.2827190" lon="-0.6827460">
        <ele>103.4</ele>
        <time>2019-10-19T10:43:35Z</time>
      </trkpt>
      <trkpt lat="38.2826800" lon="-0.6827730">
        <ele>103.3</ele>
        <time>2019-10-19T10:43:36Z</time>
      </trkpt>
      <trkpt lat="38.2826330" lon="-0.6827950">
        <ele>103.1</ele>
        <time>2019-10-19T10:43:37Z</time>
      </trkpt>
      <trkpt lat="38.2825820" lon="-0.6828100">
        <ele>103.0</ele>
        <time>2019-10-19T10:43:38Z</time>
      </trkpt>
      <trkpt lat="38.2825240" lon="-0.6828140">
        <ele>102.9</ele>
        <time>2019-10-19T10:43:39Z</time>
      </trkpt>
      <trkpt lat="38.2823990" lon="-0.6827960">
        <ele>102.7</ele>
        <time>2019-10-19T10:43:40Z</time>
      </trkpt>
      <trkpt lat="38.2823680" lon="-0.6827810">
        <ele>102.6</ele>
        <time>2019-10-19T10:43:41Z</time>
      </trkpt>
      <trkpt lat="38.2823360" lon="-0.6827670">
        <ele>102.5</ele>
        <time>2019-10-19T10:43:42Z</time>
      </trkpt>
      <trkpt lat="38.2822710" lon="-0.6827290">
        <ele>102.4</ele>
        <time>2019-10-19T10:43:43Z</time>
      </trkpt>
      <trkpt lat="38.2821680" lon="-0.6826020">
        <ele>102.4</ele>
        <time>2019-10-19T10:43:44Z</time>
      </trkpt>
      <trkpt lat="38.2821560" lon="-0.6825580">
        <ele>102.4</ele>
        <time>2019-10-19T10:43:45Z</time>
      </trkpt>
      <trkpt lat="38.2821440" lon="-0.6825140">
        <ele>102.4</ele>
        <time>2019-10-19T10:43:46Z</time>
      </trkpt>
      <trkpt lat="38.2821190" lon="-0.6823810">
        <ele>102.5</ele>
        <time>2019-10-19T10:43:47Z</time>
      </trkpt>
      <trkpt lat="38.2821190" lon="-0.6823340">
        <ele>102.5</ele>
        <time>2019-10-19T10:43:48Z</time>
      </trkpt>
      <trkpt lat="38.2821350" lon="-0.6822450">
        <ele>102.5</ele>
        <time>2019-10-19T10:43:49Z</time>
      </trkpt>
      <trkpt lat="38.2821970" lon="-0.6820830">
        <ele>102.7</ele>
        <time>2019-10-19T10:43:50Z</time>
      </trkpt>
      <trkpt lat="38.2822380" lon="-0.6820110">
        <ele>102.8</ele>
        <time>2019-10-19T10:43:51Z</time>
      </trkpt>
      <trkpt lat="38.2822590" lon="-0.6819760">
        <ele>102.8</ele>
        <time>2019-10-19T10:43:52Z</time>
      </trkpt>
      <trkpt lat="38.2822800" lon="-0.6819400">
        <ele>102.9</ele>
        <time>2019-10-19T10:43:53Z</time>
      </trkpt>
      <trkpt lat="38.2823190" lon="-0.6818660">
        <ele>103.0</ele>
        <time>2019-10-19T10:43:54Z</time>
      </trkpt>
      <trkpt lat="38.2823520" lon="-0.6817880">
        <ele>103.0</ele>
        <time>2019-10-19T10:43:55Z</time>
      </trkpt>
      <trkpt lat="38.2823910" lon="-0.6816160">
        <ele>103.1</ele>
        <time>2019-10-19T10:43:56Z</time>
      </trkpt>
      <trkpt lat="38.2823920" lon="-0.6815710">
        <ele>103.1</ele>
        <time>2019-10-19T10:43:57Z</time>
      </trkpt>
      <trkpt lat="38.2823930" lon="-0.6815260">
        <ele>103.1</ele>
        <time>2019-10-19T10:43:58Z</time>
      </trkpt>
      <trkpt lat="38.2823910" lon="-0.6814360">
        <ele>103.2</ele>
        <time>2019-10-19T10:43:59Z</time>
      </trkpt>
      <trkpt lat="38.2823840" lon="-0.6813470">
        <ele>103.2</ele>
        <time>2019-10-19T10:44:00Z</time>
      </trkpt>
      <trkpt lat="38.2823700" lon="-0.6811700">
        <ele>103.4</ele>
        <time>2019-10-19T10:44:01Z</time>
      </trkpt>
      <trkpt lat="38.2823670" lon="-0.6811260">
        <ele>103.4</ele>
        <time>2019-10-19T10:44:02Z</time>
      </trkpt>
      <trkpt lat="38.2823630" lon="-0.6810820">
        <ele>103.5</ele>
        <time>2019-10-19T10:44:03Z</time>
      </trkpt>
      <trkpt lat="38.2823550" lon="-0.6809940">
        <ele>103.6</ele>
        <time>2019-10-19T10:44:04Z</time>
      </trkpt>
      <trkpt lat="38.2823510" lon="-0.6809180">
        <ele>103.7</ele>
        <time>2019-10-19T10:44:05Z</time>
      </trkpt>
      <trkpt lat="38.2823450" lon="-0.6808350">
        <ele>103.8</ele>
        <time>2019-10-19T10:44:06Z</time>
      </trkpt>
      <trkpt lat="38.2823360" lon="-0.6807450">
        <ele>104.0</ele>
        <time>2019-10-19T10:44:07Z</time>
      </trkpt>
      <trkpt lat="38.2823270" lon="-0.6806570">
        <ele>104.0</ele>
        <time>2019-10-19T10:44:08Z</time>
      </trkpt>
      <trkpt lat="38.2823190" lon="-0.6805710">
        <ele>104.1</ele>
        <time>2019-10-19T10:44:09Z</time>
      </trkpt>
      <trkpt lat="38.2823110" lon="-0.6804830">
        <ele>104.2</ele>
        <time>2019-10-19T10:44:10Z</time>
      </trkpt>
      <trkpt lat="38.2823020" lon="-0.6803940">
        <ele>104.3</ele>
        <time>2019-10-19T10:44:11Z</time>
      </trkpt>
      <trkpt lat="38.2822910" lon="-0.6803050">
        <ele>104.4</ele>
        <time>2019-10-19T10:44:12Z</time>
      </trkpt>
      <trkpt lat="38.2822810" lon="-0.6802170">
        <ele>104.5</ele>
        <time>2019-10-19T10:44:13Z</time>
      </trkpt>
      <trkpt lat="38.2822590" lon="-0.6800350">
        <ele>104.7</ele>
        <time>2019-10-19T10:44:14Z</time>
      </trkpt>
      <trkpt lat="38.2822530" lon="-0.6799430">
        <ele>104.9</ele>
        <time>2019-10-19T10:44:15Z</time>
      </trkpt>
      <trkpt lat="38.2822460" lon="-0.6798540">
        <ele>104.9</ele>
        <time>2019-10-19T10:44:16Z</time>
      </trkpt>
      <trkpt lat="38.2822430" lon="-0.6798090">
        <ele>105.0</ele>
        <time>2019-10-19T10:44:17Z</time>
      </trkpt>
      <trkpt lat="38.2822400" lon="-0.6797640">
        <ele>105.0</ele>
        <time>2019-10-19T10:44:18Z</time>
      </trkpt>
      <trkpt lat="38.2822310" lon="-0.6795860">
        <ele>105.0</ele>
        <time>2019-10-19T10:44:19Z</time>
      </trkpt>
      <trkpt lat="38.2822280" lon="-0.6794950">
        <ele>105.1</ele>
        <time>2019-10-19T10:44:20Z</time>
      </trkpt>
      <trkpt lat="38.2822260" lon="-0.6794490">
        <ele>105.1</ele>
        <time>2019-10-19T10:44:21Z</time>
      </trkpt>
      <trkpt lat="38.2822230" lon="-0.6794040">
        <ele>105.1</ele>
        <time>2019-10-19T10:44:22Z</time>
      </trkpt>
      <trkpt lat="38.2822200" lon="-0.6793120">
        <ele>105.1</ele>
        <time>2019-10-19T10:44:23Z</time>
      </trkpt>
      <trkpt lat="38.2822170" lon="-0.6791290">
        <ele>105.1</ele>
        <time>2019-10-19T10:44:24Z</time>
      </trkpt>
      <trkpt lat="38.2822160" lon="-0.6790830">
        <ele>105.1</ele>
        <time>2019-10-19T10:44:25Z</time>
      </trkpt>
      <trkpt lat="38.2822150" lon="-0.6790370">
        <ele>105.1</ele>
        <time>2019-10-19T10:44:26Z</time>
      </trkpt>
      <trkpt lat="38.2822150" lon="-0.6789450">
        <ele>105.1</ele>
        <time>2019-10-19T10:44:27Z</time>
      </trkpt>
      <trkpt lat="38.2822170" lon="-0.6787590">
        <ele>105.2</ele>
        <time>2019-10-19T10:44:28Z</time>
      </trkpt>
      <trkpt lat="38.2822180" lon="-0.6787120">
        <ele>105.2</ele>
        <time>2019-10-19T10:44:29Z</time>
      </trkpt>
      <trkpt lat="38.2822190" lon="-0.6786650">
        <ele>105.2</ele>
        <time>2019-10-19T10:44:30Z</time>
      </trkpt>
      <trkpt lat="38.2822210" lon="-0.6785700">
        <ele>105.3</ele>
        <time>2019-10-19T10:44:31Z</time>
      </trkpt>
      <trkpt lat="38.2822240" lon="-0.6784750">
        <ele>105.5</ele>
        <time>2019-10-19T10:44:32Z</time>
      </trkpt>
      <trkpt lat="38.2822310" lon="-0.6782870">
        <ele>105.7</ele>
        <time>2019-10-19T10:44:33Z</time>
      </trkpt>
      <trkpt lat="38.2822340" lon="-0.6782400">
        <ele>105.8</ele>
        <time>2019-10-19T10:44:34Z</time>
      </trkpt>
      <trkpt lat="38.2822370" lon="-0.6781920">
        <ele>105.8</ele>
        <time>2019-10-19T10:44:35Z</time>
      </trkpt>
      <trkpt lat="38.2822430" lon="-0.6780990">
        <ele>105.9</ele>
        <time>2019-10-19T10:44:36Z</time>
      </trkpt>
      <trkpt lat="38.2822490" lon="-0.6780060">
        <ele>106.0</ele>
        <time>2019-10-19T10:44:37Z</time>
      </trkpt>
      <trkpt lat="38.2822540" lon="-0.6779110">
        <ele>106.0</ele>
        <time>2019-10-19T10:44:38Z</time>
      </trkpt>
      <trkpt lat="38.2822610" lon="-0.6778190">
        <ele>106.0</ele>
        <time>2019-10-19T10:44:39Z</time>
      </trkpt>
      <trkpt lat="38.2822680" lon="-0.6777270">
        <ele>106.0</ele>
        <time>2019-10-19T10:44:40Z</time>
      </trkpt>
      <trkpt lat="38.2822750" lon="-0.6776360">
        <ele>106.0</ele>
        <time>2019-10-19T10:44:41Z</time>
      </trkpt>
      <trkpt lat="38.2822840" lon="-0.6775440">
        <ele>105.9</ele>
        <time>2019-10-19T10:44:42Z</time>
      </trkpt>
      <trkpt lat="38.2822920" lon="-0.6774540">
        <ele>105.9</ele>
        <time>2019-10-19T10:44:43Z</time>
      </trkpt>
      <trkpt lat="38.2822990" lon="-0.6773640">
        <ele>105.8</ele>
        <time>2019-10-19T10:44:44Z</time>
      </trkpt>
      <trkpt lat="38.2823160" lon="-0.6771810">
        <ele>105.6</ele>
        <time>2019-10-19T10:44:45Z</time>
      </trkpt>
      <trkpt lat="38.2823240" lon="-0.6770880">
        <ele>105.5</ele>
        <time>2019-10-19T10:44:46Z</time>
      </trkpt>
      <trkpt lat="38.2823290" lon="-0.6770420">
        <ele>105.5</ele>
        <time>2019-10-19T10:44:47Z</time>
      </trkpt>
      <trkpt lat="38.2823330" lon="-0.6769960">
        <ele>105.5</ele>
        <time>2019-10-19T10:44:48Z</time>
      </trkpt>
      <trkpt lat="38.2823470" lon="-0.6768140">
        <ele>105.6</ele>
        <time>2019-10-19T10:44:49Z</time>
      </trkpt>
      <trkpt lat="38.2823550" lon="-0.6767220">
        <ele>105.7</ele>
        <time>2019-10-19T10:44:50Z</time>
      </trkpt>
      <trkpt lat="38.2823600" lon="-0.6766770">
        <ele>105.8</ele>
        <time>2019-10-19T10:44:51Z</time>
      </trkpt>
      <trkpt lat="38.2823640" lon="-0.6766310">
        <ele>105.8</ele>
        <time>2019-10-19T10:44:52Z</time>
      </trkpt>
      <trkpt lat="38.2823720" lon="-0.6765400">
        <ele>105.9</ele>
        <time>2019-10-19T10:44:53Z</time>
      </trkpt>
      <trkpt lat="38.2823820" lon="-0.6764480">
        <ele>106.0</ele>
        <time>2019-10-19T10:44:54Z</time>
      </trkpt>
      <trkpt lat="38.2823920" lon="-0.6763580">
        <ele>106.0</ele>
        <time>2019-10-19T10:44:55Z</time>
      </trkpt>
      <trkpt lat="38.2824020" lon="-0.6762690">
        <ele>106.0</ele>
        <time>2019-10-19T10:44:56Z</time>
      </trkpt>
      <trkpt lat="38.2824150" lon="-0.6761800">
        <ele>106.0</ele>
        <time>2019-10-19T10:44:57Z</time>
      </trkpt>
      <trkpt lat="38.2824290" lon="-0.6760910">
        <ele>106.0</ele>
        <time>2019-10-19T10:44:58Z</time>
      </trkpt>
      <trkpt lat="38.2824440" lon="-0.6760020">
        <ele>106.0</ele>
        <time>2019-10-19T10:44:59Z</time>
      </trkpt>
      <trkpt lat="38.2824610" lon="-0.6759130">
        <ele>106.0</ele>
        <time>2019-10-19T10:45:00Z</time>
      </trkpt>
      <trkpt lat="38.2824780" lon="-0.6758250">
        <ele>106.0</ele>
        <time>2019-10-19T10:45:01Z</time>
      </trkpt>
      <trkpt lat="38.2825140" lon="-0.6756480">
        <ele>106.0</ele>
        <time>2019-10-19T10:45:02Z</time>
      </trkpt>
      <trkpt lat="38.2825300" lon="-0.6755830">
        <ele>106.0</ele>
        <time>2019-10-19T10:45:03Z</time>
      </trkpt>
      <trkpt lat="38.2825460" lon="-0.6755170">
        <ele>106.1</ele>
        <time>2019-10-19T10:45:04Z</time>
      </trkpt>
      <trkpt lat="38.2825780" lon="-0.6753860">
        <ele>106.1</ele>
        <time>2019-10-19T10:45:05Z</time>
      </trkpt>
      <trkpt lat="38.2825890" lon="-0.6753470">
        <ele>106.1</ele>
        <time>2019-10-19T10:45:06Z</time>
      </trkpt>
      <trkpt lat="38.2826000" lon="-0.6753080">
        <ele>106.1</ele>
        <time>2019-10-19T10:45:07Z</time>
      </trkpt>
      <trkpt lat="38.2826490" lon="-0.6751390">
        <ele>106.3</ele>
        <time>2019-10-19T10:45:08Z</time>
      </trkpt>
      <trkpt lat="38.2826760" lon="-0.6750530">
        <ele>106.4</ele>
        <time>2019-10-19T10:45:09Z</time>
      </trkpt>
      <trkpt lat="38.2826900" lon="-0.6750110">
        <ele>106.5</ele>
        <time>2019-10-19T10:45:10Z</time>
      </trkpt>
      <trkpt lat="38.2827040" lon="-0.6749680">
        <ele>106.5</ele>
        <time>2019-10-19T10:45:11Z</time>
      </trkpt>
      <trkpt lat="38.2827320" lon="-0.6748850">
        <ele>106.7</ele>
        <time>2019-10-19T10:45:12Z</time>
      </trkpt>
      <trkpt lat="38.2827930" lon="-0.6747200">
        <ele>106.9</ele>
        <time>2019-10-19T10:45:13Z</time>
      </trkpt>
      <trkpt lat="38.2828090" lon="-0.6746800">
        <ele>106.9</ele>
        <time>2019-10-19T10:45:14Z</time>
      </trkpt>
      <trkpt lat="38.2828240" lon="-0.6746390">
        <ele>106.9</ele>
        <time>2019-10-19T10:45:15Z</time>
      </trkpt>
      <trkpt lat="38.2828560" lon="-0.6745580">
        <ele>107.0</ele>
        <time>2019-10-19T10:45:16Z</time>
      </trkpt>
      <trkpt lat="38.2828890" lon="-0.6744790">
        <ele>107.0</ele>
        <time>2019-10-19T10:45:17Z</time>
      </trkpt>
      <trkpt lat="38.2829240" lon="-0.6744000">
        <ele>107.0</ele>
        <time>2019-10-19T10:45:18Z</time>
      </trkpt>
      <trkpt lat="38.2829600" lon="-0.6743200">
        <ele>107.0</ele>
        <time>2019-10-19T10:45:19Z</time>
      </trkpt>
      <trkpt lat="38.2830340" lon="-0.6741610">
        <ele>107.0</ele>
        <time>2019-10-19T10:45:20Z</time>
      </trkpt>
      <trkpt lat="38.2830540" lon="-0.6741210">
        <ele>107.0</ele>
        <time>2019-10-19T10:45:21Z</time>
      </trkpt>
      <trkpt lat="38.2830740" lon="-0.6740810">
        <ele>107.0</ele>
        <time>2019-10-19T10:45:22Z</time>
      </trkpt>
      <trkpt lat="38.2831340" lon="-0.6739620">
        <ele>107.0</ele>
        <time>2019-10-19T10:45:23Z</time>
      </trkpt>
      <trkpt lat="38.2831540" lon="-0.6739220">
        <ele>107.0</ele>
        <time>2019-10-19T10:45:24Z</time>
      </trkpt>
      <trkpt lat="38.2831930" lon="-0.6738420">
        <ele>107.0</ele>
        <time>2019-10-19T10:45:25Z</time>
      </trkpt>
      <trkpt lat="38.2832510" lon="-0.6736680">
        <ele>107.1</ele>
        <time>2019-10-19T10:45:26Z</time>
      </trkpt>
      <trkpt lat="38.2832560" lon="-0.6736200">
        <ele>107.1</ele>
        <time>2019-10-19T10:45:27Z</time>
      </trkpt>
      <trkpt lat="38.2832610" lon="-0.6735720">
        <ele>107.1</ele>
        <time>2019-10-19T10:45:28Z</time>
      </trkpt>
      <trkpt lat="38.2832560" lon="-0.6734790">
        <ele>107.2</ele>
        <time>2019-10-19T10:45:29Z</time>
      </trkpt>
      <trkpt lat="38.2832460" lon="-0.6733890">
        <ele>107.2</ele>
        <time>2019-10-19T10:45:30Z</time>
      </trkpt>
      <trkpt lat="38.2832370" lon="-0.6733000">
        <ele>107.2</ele>
        <time>2019-10-19T10:45:31Z</time>
      </trkpt>
      <trkpt lat="38.2832540" lon="-0.6731250">
        <ele>107.2</ele>
        <time>2019-10-19T10:45:32Z</time>
      </trkpt>
      <trkpt lat="38.2832830" lon="-0.6730450">
        <ele>107.2</ele>
        <time>2019-10-19T10:45:33Z</time>
      </trkpt>
      <trkpt lat="38.2833030" lon="-0.6730090">
        <ele>107.3</ele>
        <time>2019-10-19T10:45:34Z</time>
      </trkpt>
      <trkpt lat="38.2833230" lon="-0.6729720">
        <ele>107.3</ele>
        <time>2019-10-19T10:45:35Z</time>
      </trkpt>
      <trkpt lat="38.2834330" lon="-0.6728660">
        <ele>107.4</ele>
        <time>2019-10-19T10:45:36Z</time>
      </trkpt>
      <trkpt lat="38.2834990" lon="-0.6728310">
        <ele>107.4</ele>
        <time>2019-10-19T10:45:37Z</time>
      </trkpt>
      <trkpt lat="38.2835340" lon="-0.6728160">
        <ele>107.5</ele>
        <time>2019-10-19T10:45:38Z</time>
      </trkpt>
      <trkpt lat="38.2835680" lon="-0.6728010">
        <ele>107.5</ele>
        <time>2019-10-19T10:45:39Z</time>
      </trkpt>
      <trkpt lat="38.2836700" lon="-0.6727510">
        <ele>107.5</ele>
        <time>2019-10-19T10:45:40Z</time>
      </trkpt>
      <trkpt lat="38.2837030" lon="-0.6727310">
        <ele>107.5</ele>
        <time>2019-10-19T10:45:41Z</time>
      </trkpt>
      <trkpt lat="38.2837670" lon="-0.6726800">
        <ele>107.5</ele>
        <time>2019-10-19T10:45:42Z</time>
      </trkpt>
      <trkpt lat="38.2838230" lon="-0.6726150">
        <ele>107.4</ele>
        <time>2019-10-19T10:45:43Z</time>
      </trkpt>
      <trkpt lat="38.2838710" lon="-0.6725400">
        <ele>107.3</ele>
        <time>2019-10-19T10:45:44Z</time>
      </trkpt>
      <trkpt lat="38.2839150" lon="-0.6724590">
        <ele>107.1</ele>
        <time>2019-10-19T10:45:45Z</time>
      </trkpt>
      <trkpt lat="38.2839560" lon="-0.6723760">
        <ele>106.9</ele>
        <time>2019-10-19T10:45:46Z</time>
      </trkpt>
      <trkpt lat="38.2839960" lon="-0.6722930">
        <ele>106.7</ele>
        <time>2019-10-19T10:45:47Z</time>
      </trkpt>
      <trkpt lat="38.2840790" lon="-0.6721300">
        <ele>106.0</ele>
        <time>2019-10-19T10:45:48Z</time>
      </trkpt>
      <trkpt lat="38.2841210" lon="-0.6720480">
        <ele>105.6</ele>
        <time>2019-10-19T10:45:49Z</time>
      </trkpt>
      <trkpt lat="38.2841520" lon="-0.6719880">
        <ele>105.3</ele>
        <time>2019-10-19T10:45:50Z</time>
      </trkpt>
      <trkpt lat="38.2841830" lon="-0.6719270">
        <ele>105.1</ele>
        <time>2019-10-19T10:45:51Z</time>
      </trkpt>
      <trkpt lat="38.2842440" lon="-0.6718050">
        <ele>104.8</ele>
        <time>2019-10-19T10:45:52Z</time>
      </trkpt>
      <trkpt lat="38.2842860" lon="-0.6717220">
        <ele>104.7</ele>
        <time>2019-10-19T10:45:53Z</time>
      </trkpt>
      <trkpt lat="38.2843070" lon="-0.6716810">
        <ele>104.7</ele>
        <time>2019-10-19T10:45:54Z</time>
      </trkpt>
      <trkpt lat="38.2843270" lon="-0.6716390">
        <ele>104.6</ele>
        <time>2019-10-19T10:45:55Z</time>
      </trkpt>
      <trkpt lat="38.2843690" lon="-0.6715570">
        <ele>104.5</ele>
        <time>2019-10-19T10:45:56Z</time>
      </trkpt>
      <trkpt lat="38.2844540" lon="-0.6713930">
        <ele>104.2</ele>
        <time>2019-10-19T10:45:57Z</time>
      </trkpt>
      <trkpt lat="38.2844750" lon="-0.6713530">
        <ele>104.1</ele>
        <time>2019-10-19T10:45:58Z</time>
      </trkpt>
      <trkpt lat="38.2844950" lon="-0.6713120">
        <ele>104.0</ele>
        <time>2019-10-19T10:45:59Z</time>
      </trkpt>
      <trkpt lat="38.2845370" lon="-0.6712320">
        <ele>103.8</ele>
        <time>2019-10-19T10:46:00Z</time>
      </trkpt>
      <trkpt lat="38.2845790" lon="-0.6711520">
        <ele>103.5</ele>
        <time>2019-10-19T10:46:01Z</time>
      </trkpt>
      <trkpt lat="38.2846200" lon="-0.6710720">
        <ele>103.3</ele>
        <time>2019-10-19T10:46:02Z</time>
      </trkpt>
      <trkpt lat="38.2846620" lon="-0.6709920">
        <ele>103.1</ele>
        <time>2019-10-19T10:46:03Z</time>
      </trkpt>
      <trkpt lat="38.2847040" lon="-0.6709120">
        <ele>103.0</ele>
        <time>2019-10-19T10:46:04Z</time>
      </trkpt>
      <trkpt lat="38.2847870" lon="-0.6707480">
        <ele>104.0</ele>
        <time>2019-10-19T10:46:05Z</time>
      </trkpt>
      <trkpt lat="38.2848080" lon="-0.6707080">
        <ele>104.4</ele>
        <time>2019-10-19T10:46:06Z</time>
      </trkpt>
      <trkpt lat="38.2848290" lon="-0.6706670">
        <ele>104.7</ele>
        <time>2019-10-19T10:46:07Z</time>
      </trkpt>
      <trkpt lat="38.2849130" lon="-0.6705040">
        <ele>106.0</ele>
        <time>2019-10-19T10:46:08Z</time>
      </trkpt>
      <trkpt lat="38.2849340" lon="-0.6704640">
        <ele>106.3</ele>
        <time>2019-10-19T10:46:09Z</time>
      </trkpt>
      <trkpt lat="38.2849540" lon="-0.6704230">
        <ele>106.6</ele>
        <time>2019-10-19T10:46:10Z</time>
      </trkpt>
      <trkpt lat="38.2850150" lon="-0.6703030">
        <ele>107.1</ele>
        <time>2019-10-19T10:46:11Z</time>
      </trkpt>
      <trkpt lat="38.2850360" lon="-0.6702630">
        <ele>107.2</ele>
        <time>2019-10-19T10:46:12Z</time>
      </trkpt>
      <trkpt lat="38.2851170" lon="-0.6701030">
        <ele>106.9</ele>
        <time>2019-10-19T10:46:13Z</time>
      </trkpt>
      <trkpt lat="38.2851370" lon="-0.6700640">
        <ele>106.7</ele>
        <time>2019-10-19T10:46:14Z</time>
      </trkpt>
      <trkpt lat="38.2851570" lon="-0.6700240">
        <ele>106.5</ele>
        <time>2019-10-19T10:46:15Z</time>
      </trkpt>
      <trkpt lat="38.2851980" lon="-0.6699460">
        <ele>106.1</ele>
        <time>2019-10-19T10:46:16Z</time>
      </trkpt>
      <trkpt lat="38.2852390" lon="-0.6698680">
        <ele>105.7</ele>
        <time>2019-10-19T10:46:17Z</time>
      </trkpt>
      <trkpt lat="38.2853180" lon="-0.6697120">
        <ele>104.8</ele>
        <time>2019-10-19T10:46:18Z</time>
      </trkpt>
      <trkpt lat="38.2853570" lon="-0.6696340">
        <ele>104.3</ele>
        <time>2019-10-19T10:46:19Z</time>
      </trkpt>
      <trkpt lat="38.2853770" lon="-0.6695960">
        <ele>104.0</ele>
        <time>2019-10-19T10:46:20Z</time>
      </trkpt>
      <trkpt lat="38.2853960" lon="-0.6695580">
        <ele>103.8</ele>
        <time>2019-10-19T10:46:21Z</time>
      </trkpt>
      <trkpt lat="38.2854350" lon="-0.6694820">
        <ele>103.1</ele>
        <time>2019-10-19T10:46:22Z</time>
      </trkpt>
      <trkpt lat="38.2855130" lon="-0.6693310">
        <ele>101.9</ele>
        <time>2019-10-19T10:46:23Z</time>
      </trkpt>
      <trkpt lat="38.2855320" lon="-0.6692940">
        <ele>101.6</ele>
        <time>2019-10-19T10:46:24Z</time>
      </trkpt>
      <trkpt lat="38.2855510" lon="-0.6692560">
        <ele>101.4</ele>
        <time>2019-10-19T10:46:25Z</time>
      </trkpt>
      <trkpt lat="38.2855880" lon="-0.6691800">
        <ele>101.2</ele>
        <time>2019-10-19T10:46:26Z</time>
      </trkpt>
      <trkpt lat="38.2856230" lon="-0.6691040">
        <ele>101.3</ele>
        <time>2019-10-19T10:46:27Z</time>
      </trkpt>
      <trkpt lat="38.2856900" lon="-0.6689500">
        <ele>102.3</ele>
        <time>2019-10-19T10:46:28Z</time>
      </trkpt>
      <trkpt lat="38.2857200" lon="-0.6688730">
        <ele>103.0</ele>
        <time>2019-10-19T10:46:29Z</time>
      </trkpt>
      <trkpt lat="38.2857500" lon="-0.6687960">
        <ele>103.6</ele>
        <time>2019-10-19T10:46:30Z</time>
      </trkpt>
      <trkpt lat="38.2857650" lon="-0.6687570">
        <ele>103.9</ele>
        <time>2019-10-19T10:46:31Z</time>
      </trkpt>
      <trkpt lat="38.2857790" lon="-0.6687170">
        <ele>104.2</ele>
        <time>2019-10-19T10:46:32Z</time>
      </trkpt>
      <trkpt lat="38.2858080" lon="-0.6686390">
        <ele>104.8</ele>
        <time>2019-10-19T10:46:33Z</time>
      </trkpt>
      <trkpt lat="38.2858600" lon="-0.6684820">
        <ele>106.1</ele>
        <time>2019-10-19T10:46:34Z</time>
      </trkpt>
      <trkpt lat="38.2858720" lon="-0.6684430">
        <ele>106.4</ele>
        <time>2019-10-19T10:46:35Z</time>
      </trkpt>
      <trkpt lat="38.2858830" lon="-0.6684040">
        <ele>106.7</ele>
        <time>2019-10-19T10:46:36Z</time>
      </trkpt>
      <trkpt lat="38.2859050" lon="-0.6683270">
        <ele>107.3</ele>
        <time>2019-10-19T10:46:37Z</time>
      </trkpt>
      <trkpt lat="38.2859260" lon="-0.6682520">
        <ele>107.7</ele>
        <time>2019-10-19T10:46:38Z</time>
      </trkpt>
      <trkpt lat="38.2859420" lon="-0.6681780">
        <ele>108.1</ele>
        <time>2019-10-19T10:46:39Z</time>
      </trkpt>
      <trkpt lat="38.2859400" lon="-0.6681080">
        <ele>108.3</ele>
        <time>2019-10-19T10:46:40Z</time>
      </trkpt>
      <trkpt lat="38.2858710" lon="-0.6680060">
        <ele>108.4</ele>
        <time>2019-10-19T10:46:41Z</time>
      </trkpt>
      <trkpt lat="38.2858440" lon="-0.6680070">
        <ele>108.4</ele>
        <time>2019-10-19T10:46:42Z</time>
      </trkpt>
      <trkpt lat="38.2858180" lon="-0.6680070">
        <ele>108.3</ele>
        <time>2019-10-19T10:46:43Z</time>
      </trkpt>
      <trkpt lat="38.2857360" lon="-0.6680140">
        <ele>108.2</ele>
        <time>2019-10-19T10:46:44Z</time>
      </trkpt>
      <trkpt lat="38.2857070" lon="-0.6680200">
        <ele>108.2</ele>
        <time>2019-10-19T10:46:45Z</time>
      </trkpt>
      <trkpt lat="38.2856470" lon="-0.6680250">
        <ele>108.1</ele>
        <time>2019-10-19T10:46:46Z</time>
      </trkpt>
      <trkpt lat="38.2855850" lon="-0.6680270">
        <ele>108.0</ele>
        <time>2019-10-19T10:46:47Z</time>
      </trkpt>
      <trkpt lat="38.2855230" lon="-0.6680340">
        <ele>107.9</ele>
        <time>2019-10-19T10:46:48Z</time>
      </trkpt>
      <trkpt lat="38.2853960" lon="-0.6680550">
        <ele>107.8</ele>
        <time>2019-10-19T10:46:49Z</time>
      </trkpt>
      <trkpt lat="38.2853320" lon="-0.6680680">
        <ele>107.7</ele>
        <time>2019-10-19T10:46:50Z</time>
      </trkpt>
      <trkpt lat="38.2852990" lon="-0.6680750">
        <ele>107.6</ele>
        <time>2019-10-19T10:46:51Z</time>
      </trkpt>
      <trkpt lat="38.2852650" lon="-0.6680820">
        <ele>107.6</ele>
        <time>2019-10-19T10:46:52Z</time>
      </trkpt>
      <trkpt lat="38.2851650" lon="-0.6681010">
        <ele>107.5</ele>
        <time>2019-10-19T10:46:53Z</time>
      </trkpt>
      <trkpt lat="38.2851320" lon="-0.6681060">
        <ele>107.4</ele>
        <time>2019-10-19T10:46:54Z</time>
      </trkpt>
      <trkpt lat="38.2849990" lon="-0.6681350">
        <ele>107.1</ele>
        <time>2019-10-19T10:46:55Z</time>
      </trkpt>
      <trkpt lat="38.2849660" lon="-0.6681450">
        <ele>107.1</ele>
        <time>2019-10-19T10:46:56Z</time>
      </trkpt>
      <trkpt lat="38.2849330" lon="-0.6681550">
        <ele>107.0</ele>
        <time>2019-10-19T10:46:57Z</time>
      </trkpt>
      <trkpt lat="38.2848680" lon="-0.6681870">
        <ele>106.8</ele>
        <time>2019-10-19T10:46:58Z</time>
      </trkpt>
      <trkpt lat="38.2848030" lon="-0.6682250">
        <ele>106.7</ele>
        <time>2019-10-19T10:46:59Z</time>
      </trkpt>
      <trkpt lat="38.2847370" lon="-0.6682650">
        <ele>106.5</ele>
        <time>2019-10-19T10:47:00Z</time>
      </trkpt>
      <trkpt lat="38.2846720" lon="-0.6683100">
        <ele>106.2</ele>
        <time>2019-10-19T10:47:01Z</time>
      </trkpt>
      <trkpt lat="38.2845390" lon="-0.6684030">
        <ele>105.8</ele>
        <time>2019-10-19T10:47:02Z</time>
      </trkpt>
      <trkpt lat="38.2844680" lon="-0.6684410">
        <ele>105.6</ele>
        <time>2019-10-19T10:47:03Z</time>
      </trkpt>
      <trkpt lat="38.2843930" lon="-0.6684630">
        <ele>105.3</ele>
        <time>2019-10-19T10:47:04Z</time>
      </trkpt>
      <trkpt lat="38.2843540" lon="-0.6684660">
        <ele>105.1</ele>
        <time>2019-10-19T10:47:05Z</time>
      </trkpt>
      <trkpt lat="38.2843150" lon="-0.6684680">
        <ele>104.9</ele>
        <time>2019-10-19T10:47:06Z</time>
      </trkpt>
      <trkpt lat="38.2841980" lon="-0.6684670">
        <ele>104.2</ele>
        <time>2019-10-19T10:47:07Z</time>
      </trkpt>
      <trkpt lat="38.2841580" lon="-0.6684620">
        <ele>103.9</ele>
        <time>2019-10-19T10:47:08Z</time>
      </trkpt>
      <trkpt lat="38.2840380" lon="-0.6684450">
        <ele>103.3</ele>
        <time>2019-10-19T10:47:09Z</time>
      </trkpt>
      <trkpt lat="38.2839980" lon="-0.6684380">
        <ele>103.2</ele>
        <time>2019-10-19T10:47:10Z</time>
      </trkpt>
      <trkpt lat="38.2838310" lon="-0.6684190">
        <ele>102.8</ele>
        <time>2019-10-19T10:47:11Z</time>
      </trkpt>
      <trkpt lat="38.2837450" lon="-0.6684230">
        <ele>102.7</ele>
        <time>2019-10-19T10:47:12Z</time>
      </trkpt>
      <trkpt lat="38.2836580" lon="-0.6684390">
        <ele>102.7</ele>
        <time>2019-10-19T10:47:13Z</time>
      </trkpt>
      <trkpt lat="38.2836140" lon="-0.6684520">
        <ele>102.7</ele>
        <time>2019-10-19T10:47:14Z</time>
      </trkpt>
      <trkpt lat="38.2835700" lon="-0.6684650">
        <ele>102.6</ele>
        <time>2019-10-19T10:47:15Z</time>
      </trkpt>
      <trkpt lat="38.2834810" lon="-0.6684950">
        <ele>102.4</ele>
        <time>2019-10-19T10:47:16Z</time>
      </trkpt>
      <trkpt lat="38.2833030" lon="-0.6685570">
        <ele>101.6</ele>
        <time>2019-10-19T10:47:17Z</time>
      </trkpt>
      <trkpt lat="38.2832580" lon="-0.6685720">
        <ele>101.3</ele>
        <time>2019-10-19T10:47:18Z</time>
      </trkpt>
      <trkpt lat="38.2832130" lon="-0.6685870">
        <ele>101.0</ele>
        <time>2019-10-19T10:47:19Z</time>
      </trkpt>
      <trkpt lat="38.2831230" lon="-0.6686140">
        <ele>100.4</ele>
        <time>2019-10-19T10:47:20Z</time>
      </trkpt>
      <trkpt lat="38.2830320" lon="-0.6686350">
        <ele>100.0</ele>
        <time>2019-10-19T10:47:21Z</time>
      </trkpt>
      <trkpt lat="38.2828820" lon="-0.6686700">
        <ele>99.6</ele>
        <time>2019-10-19T10:47:22Z</time>
      </trkpt>
      <trkpt lat="38.2827310" lon="-0.6687040">
        <ele>99.3</ele>
        <time>2019-10-19T10:47:23Z</time>
      </trkpt>
      <trkpt lat="38.2826290" lon="-0.6687220">
        <ele>99.0</ele>
        <time>2019-10-19T10:47:24Z</time>
      </trkpt>
      <trkpt lat="38.2825840" lon="-0.6687300">
        <ele>99.0</ele>
        <time>2019-10-19T10:47:25Z</time>
      </trkpt>
      <trkpt lat="38.2825380" lon="-0.6687370">
        <ele>98.8</ele>
        <time>2019-10-19T10:47:26Z</time>
      </trkpt>
      <trkpt lat="38.2824060" lon="-0.6687590">
        <ele>98.5</ele>
        <time>2019-10-19T10:47:27Z</time>
      </trkpt>
      <trkpt lat="38.2823650" lon="-0.6687670">
        <ele>98.4</ele>
        <time>2019-10-19T10:47:28Z</time>
      </trkpt>
      <trkpt lat="38.2822440" lon="-0.6687930">
        <ele>98.1</ele>
        <time>2019-10-19T10:47:29Z</time>
      </trkpt>
      <trkpt lat="38.2822050" lon="-0.6688030">
        <ele>98.0</ele>
        <time>2019-10-19T10:47:30Z</time>
      </trkpt>
      <trkpt lat="38.2820600" lon="-0.6688740">
        <ele>97.8</ele>
        <time>2019-10-19T10:47:31Z</time>
      </trkpt>
      <trkpt lat="38.2819970" lon="-0.6689210">
        <ele>97.8</ele>
        <time>2019-10-19T10:47:32Z</time>
      </trkpt>
      <trkpt lat="38.2819420" lon="-0.6689730">
        <ele>97.8</ele>
        <time>2019-10-19T10:47:33Z</time>
      </trkpt>
      <trkpt lat="38.2819060" lon="-0.6690140">
        <ele>97.8</ele>
        <time>2019-10-19T10:47:34Z</time>
      </trkpt>
      <trkpt lat="38.2818700" lon="-0.6690550">
        <ele>97.8</ele>
        <time>2019-10-19T10:47:35Z</time>
      </trkpt>
      <trkpt lat="38.2817980" lon="-0.6691360">
        <ele>97.8</ele>
        <time>2019-10-19T10:47:36Z</time>
      </trkpt>
      <trkpt lat="38.2817780" lon="-0.6691640">
        <ele>97.8</ele>
        <time>2019-10-19T10:47:37Z</time>
      </trkpt>
      <trkpt lat="38.2817570" lon="-0.6691920">
        <ele>97.8</ele>
        <time>2019-10-19T10:47:38Z</time>
      </trkpt>
      <trkpt lat="38.2816870" lon="-0.6692940">
        <ele>98.1</ele>
        <time>2019-10-19T10:47:39Z</time>
      </trkpt>
      <trkpt lat="38.2816580" lon="-0.6693390">
        <ele>98.2</ele>
        <time>2019-10-19T10:47:40Z</time>
      </trkpt>
      <trkpt lat="38.2816010" lon="-0.6694290">
        <ele>98.4</ele>
        <time>2019-10-19T10:47:41Z</time>
      </trkpt>
      <trkpt lat="38.2815680" lon="-0.6694760">
        <ele>98.6</ele>
        <time>2019-10-19T10:47:42Z</time>
      </trkpt>
      <trkpt lat="38.2815350" lon="-0.6695230">
        <ele>98.8</ele>
        <time>2019-10-19T10:47:43Z</time>
      </trkpt>
      <trkpt lat="38.2814690" lon="-0.6696160">
        <ele>99.1</ele>
        <time>2019-10-19T10:47:44Z</time>
      </trkpt>
      <trkpt lat="38.2814310" lon="-0.6696590">
        <ele>99.4</ele>
        <time>2019-10-19T10:47:45Z</time>
      </trkpt>
      <trkpt lat="38.2813930" lon="-0.6697010">
        <ele>99.8</ele>
        <time>2019-10-19T10:47:46Z</time>
      </trkpt>
      <trkpt lat="38.2813170" lon="-0.6697850">
        <ele>100.4</ele>
        <time>2019-10-19T10:47:47Z</time>
      </trkpt>
      <trkpt lat="38.2812910" lon="-0.6698110">
        <ele>100.5</ele>
        <time>2019-10-19T10:47:48Z</time>
      </trkpt>
      <trkpt lat="38.2812650" lon="-0.6698360">
        <ele>100.6</ele>
        <time>2019-10-19T10:47:49Z</time>
      </trkpt>
      <trkpt lat="38.2811560" lon="-0.6699320">
        <ele>100.7</ele>
        <time>2019-10-19T10:47:50Z</time>
      </trkpt>
      <trkpt lat="38.2811000" lon="-0.6699810">
        <ele>100.5</ele>
        <time>2019-10-19T10:47:51Z</time>
      </trkpt>
      <trkpt lat="38.2810720" lon="-0.6700040">
        <ele>100.4</ele>
        <time>2019-10-19T10:47:52Z</time>
      </trkpt>
      <trkpt lat="38.2810430" lon="-0.6700270">
        <ele>100.3</ele>
        <time>2019-10-19T10:47:53Z</time>
      </trkpt>
      <trkpt lat="38.2809420" lon="-0.6701060">
        <ele>99.7</ele>
        <time>2019-10-19T10:47:54Z</time>
      </trkpt>
      <trkpt lat="38.2808970" lon="-0.6701390">
        <ele>99.5</ele>
        <time>2019-10-19T10:47:55Z</time>
      </trkpt>
      <trkpt lat="38.2808080" lon="-0.6702050">
        <ele>99.3</ele>
        <time>2019-10-19T10:47:56Z</time>
      </trkpt>
      <trkpt lat="38.2807780" lon="-0.6702260">
        <ele>99.3</ele>
        <time>2019-10-19T10:47:57Z</time>
      </trkpt>
      <trkpt lat="38.2807470" lon="-0.6702470">
        <ele>99.3</ele>
        <time>2019-10-19T10:47:58Z</time>
      </trkpt>
      <trkpt lat="38.2806850" lon="-0.6702890">
        <ele>99.4</ele>
        <time>2019-10-19T10:47:59Z</time>
      </trkpt>
      <trkpt lat="38.2806230" lon="-0.6703320">
        <ele>99.5</ele>
        <time>2019-10-19T10:48:00Z</time>
      </trkpt>
      <trkpt lat="38.2805610" lon="-0.6703740">
        <ele>99.7</ele>
        <time>2019-10-19T10:48:01Z</time>
      </trkpt>
      <trkpt lat="38.2805000" lon="-0.6704180">
        <ele>99.8</ele>
        <time>2019-10-19T10:48:02Z</time>
      </trkpt>
      <trkpt lat="38.2804370" lon="-0.6704620">
        <ele>99.8</ele>
        <time>2019-10-19T10:48:03Z</time>
      </trkpt>
      <trkpt lat="38.2803740" lon="-0.6705100">
        <ele>99.6</ele>
        <time>2019-10-19T10:48:04Z</time>
      </trkpt>
      <trkpt lat="38.2802470" lon="-0.6706110">
        <ele>99.4</ele>
        <time>2019-10-19T10:48:05Z</time>
      </trkpt>
      <trkpt lat="38.2801810" lon="-0.6706640">
        <ele>99.3</ele>
        <time>2019-10-19T10:48:06Z</time>
      </trkpt>
      <trkpt lat="38.2801160" lon="-0.6707180">
        <ele>99.1</ele>
        <time>2019-10-19T10:48:07Z</time>
      </trkpt>
      <trkpt lat="38.2800840" lon="-0.6707460">
        <ele>99.0</ele>
        <time>2019-10-19T10:48:08Z</time>
      </trkpt>
      <trkpt lat="38.2800520" lon="-0.6707730">
        <ele>98.9</ele>
        <time>2019-10-19T10:48:09Z</time>
      </trkpt>
      <trkpt lat="38.2799330" lon="-0.6708990">
        <ele>98.5</ele>
        <time>2019-10-19T10:48:10Z</time>
      </trkpt>
      <trkpt lat="38.2799060" lon="-0.6709340">
        <ele>98.4</ele>
        <time>2019-10-19T10:48:11Z</time>
      </trkpt>
      <trkpt lat="38.2798780" lon="-0.6709680">
        <ele>98.3</ele>
        <time>2019-10-19T10:48:12Z</time>
      </trkpt>
      <trkpt lat="38.2798180" lon="-0.6710290">
        <ele>98.1</ele>
        <time>2019-10-19T10:48:13Z</time>
      </trkpt>
      <trkpt lat="38.2796850" lon="-0.6711120">
        <ele>97.7</ele>
        <time>2019-10-19T10:48:14Z</time>
      </trkpt>
      <trkpt lat="38.2796530" lon="-0.6711570">
        <ele>97.6</ele>
        <time>2019-10-19T10:48:15Z</time>
      </trkpt>
      <trkpt lat="38.2796200" lon="-0.6712020">
        <ele>97.6</ele>
        <time>2019-10-19T10:48:16Z</time>
      </trkpt>
      <trkpt lat="38.2795550" lon="-0.6712910">
        <ele>97.8</ele>
        <time>2019-10-19T10:48:17Z</time>
      </trkpt>
      <trkpt lat="38.2795460" lon="-0.6713330">
        <ele>97.8</ele>
        <time>2019-10-19T10:48:18Z</time>
      </trkpt>
      <trkpt lat="38.2795360" lon="-0.6713750">
        <ele>97.8</ele>
        <time>2019-10-19T10:48:19Z</time>
      </trkpt>
      <trkpt lat="38.2795160" lon="-0.6715440">
        <ele>97.9</ele>
        <time>2019-10-19T10:48:20Z</time>
      </trkpt>
      <trkpt lat="38.2795050" lon="-0.6716090">
        <ele>97.9</ele>
        <time>2019-10-19T10:48:21Z</time>
      </trkpt>
      <trkpt lat="38.2794940" lon="-0.6716730">
        <ele>98.0</ele>
        <time>2019-10-19T10:48:22Z</time>
      </trkpt>
      <trkpt lat="38.2794720" lon="-0.6718010">
        <ele>98.1</ele>
        <time>2019-10-19T10:48:23Z</time>
      </trkpt>
      <trkpt lat="38.2794650" lon="-0.6718450">
        <ele>98.1</ele>
        <time>2019-10-19T10:48:24Z</time>
      </trkpt>
      <trkpt lat="38.2794580" lon="-0.6718890">
        <ele>98.2</ele>
        <time>2019-10-19T10:48:25Z</time>
      </trkpt>
      <trkpt lat="38.2794420" lon="-0.6719770">
        <ele>98.2</ele>
        <time>2019-10-19T10:48:26Z</time>
      </trkpt>
      <trkpt lat="38.2794120" lon="-0.6721400">
        <ele>98.3</ele>
        <time>2019-10-19T10:48:27Z</time>
      </trkpt>
      <trkpt lat="38.2794020" lon="-0.6722180">
        <ele>98.3</ele>
        <time>2019-10-19T10:48:28Z</time>
      </trkpt>
      <trkpt lat="38.2793970" lon="-0.6722600">
        <ele>98.3</ele>
        <time>2019-10-19T10:48:29Z</time>
      </trkpt>
      <trkpt lat="38.2793910" lon="-0.6723020">
        <ele>98.3</ele>
        <time>2019-10-19T10:48:30Z</time>
      </trkpt>
      <trkpt lat="38.2793630" lon="-0.6724770">
        <ele>98.2</ele>
        <time>2019-10-19T10:48:31Z</time>
      </trkpt>
      <trkpt lat="38.2793470" lon="-0.6725700">
        <ele>98.3</ele>
        <time>2019-10-19T10:48:32Z</time>
      </trkpt>
      <trkpt lat="38.2793300" lon="-0.6726460">
        <ele>98.4</ele>
        <time>2019-10-19T10:48:33Z</time>
      </trkpt>
      <trkpt lat="38.2793130" lon="-0.6727210">
        <ele>98.5</ele>
        <time>2019-10-19T10:48:34Z</time>
      </trkpt>
      <trkpt lat="38.2792790" lon="-0.6728710">
        <ele>98.6</ele>
        <time>2019-10-19T10:48:35Z</time>
      </trkpt>
      <trkpt lat="38.2792650" lon="-0.6729420">
        <ele>98.5</ele>
        <time>2019-10-19T10:48:36Z</time>
      </trkpt>
      <trkpt lat="38.2792500" lon="-0.6730130">
        <ele>98.4</ele>
        <time>2019-10-19T10:48:37Z</time>
      </trkpt>
      <trkpt lat="38.2792210" lon="-0.6731540">
        <ele>98.4</ele>
        <time>2019-10-19T10:48:38Z</time>
      </trkpt>
      <trkpt lat="38.2792090" lon="-0.6732260">
        <ele>98.5</ele>
        <time>2019-10-19T10:48:39Z</time>
      </trkpt>
      <trkpt lat="38.2791970" lon="-0.6732980">
        <ele>98.6</ele>
        <time>2019-10-19T10:48:40Z</time>
      </trkpt>
      <trkpt lat="38.2791730" lon="-0.6734420">
        <ele>98.8</ele>
        <time>2019-10-19T10:48:41Z</time>
      </trkpt>
      <trkpt lat="38.2791650" lon="-0.6734890">
        <ele>98.9</ele>
        <time>2019-10-19T10:48:42Z</time>
      </trkpt>
      <trkpt lat="38.2791570" lon="-0.6735360">
        <ele>98.9</ele>
        <time>2019-10-19T10:48:43Z</time>
      </trkpt>
      <trkpt lat="38.2791260" lon="-0.6737200">
        <ele>99.0</ele>
        <time>2019-10-19T10:48:44Z</time>
      </trkpt>
      <trkpt lat="38.2791120" lon="-0.6738130">
        <ele>99.0</ele>
        <time>2019-10-19T10:48:45Z</time>
      </trkpt>
      <trkpt lat="38.2791040" lon="-0.6738600">
        <ele>99.0</ele>
        <time>2019-10-19T10:48:46Z</time>
      </trkpt>
      <trkpt lat="38.2790950" lon="-0.6739070">
        <ele>99.0</ele>
        <time>2019-10-19T10:48:47Z</time>
      </trkpt>
      <trkpt lat="38.2790710" lon="-0.6740460">
        <ele>99.1</ele>
        <time>2019-10-19T10:48:48Z</time>
      </trkpt>
      <trkpt lat="38.2790640" lon="-0.6740910">
        <ele>99.1</ele>
        <time>2019-10-19T10:48:49Z</time>
      </trkpt>
      <trkpt lat="38.2790320" lon="-0.6742740">
        <ele>98.9</ele>
        <time>2019-10-19T10:48:50Z</time>
      </trkpt>
      <trkpt lat="38.2790240" lon="-0.6743220">
        <ele>98.9</ele>
        <time>2019-10-19T10:48:51Z</time>
      </trkpt>
      <trkpt lat="38.2790160" lon="-0.6743690">
        <ele>98.9</ele>
        <time>2019-10-19T10:48:52Z</time>
      </trkpt>
      <trkpt lat="38.2789880" lon="-0.6745360">
        <ele>99.0</ele>
        <time>2019-10-19T10:48:53Z</time>
      </trkpt>
      <trkpt lat="38.2789760" lon="-0.6746090">
        <ele>99.0</ele>
        <time>2019-10-19T10:48:54Z</time>
      </trkpt>
      <trkpt lat="38.2789510" lon="-0.6747540">
        <ele>99.0</ele>
        <time>2019-10-19T10:48:55Z</time>
      </trkpt>
      <trkpt lat="38.2789380" lon="-0.6748270">
        <ele>99.1</ele>
        <time>2019-10-19T10:48:56Z</time>
      </trkpt>
      <trkpt lat="38.2789250" lon="-0.6749000">
        <ele>99.1</ele>
        <time>2019-10-19T10:48:57Z</time>
      </trkpt>
      <trkpt lat="38.2788990" lon="-0.6750460">
        <ele>99.0</ele>
        <time>2019-10-19T10:48:58Z</time>
      </trkpt>
      <trkpt lat="38.2788830" lon="-0.6751420">
        <ele>99.0</ele>
        <time>2019-10-19T10:48:59Z</time>
      </trkpt>
      <trkpt lat="38.2788660" lon="-0.6752380">
        <ele>98.9</ele>
        <time>2019-10-19T10:49:00Z</time>
      </trkpt>
      <trkpt lat="38.2788490" lon="-0.6753330">
        <ele>98.9</ele>
        <time>2019-10-19T10:49:01Z</time>
      </trkpt>
      <trkpt lat="38.2788350" lon="-0.6754250">
        <ele>98.9</ele>
        <time>2019-10-19T10:49:02Z</time>
      </trkpt>
      <trkpt lat="38.2788200" lon="-0.6755210">
        <ele>98.8</ele>
        <time>2019-10-19T10:49:03Z</time>
      </trkpt>
      <trkpt lat="38.2788040" lon="-0.6756180">
        <ele>98.8</ele>
        <time>2019-10-19T10:49:04Z</time>
      </trkpt>
      <trkpt lat="38.2787910" lon="-0.6756910">
        <ele>98.8</ele>
        <time>2019-10-19T10:49:05Z</time>
      </trkpt>
      <trkpt lat="38.2787780" lon="-0.6757640">
        <ele>98.8</ele>
        <time>2019-10-19T10:49:06Z</time>
      </trkpt>
      <trkpt lat="38.2787520" lon="-0.6759090">
        <ele>98.7</ele>
        <time>2019-10-19T10:49:07Z</time>
      </trkpt>
      <trkpt lat="38.2787390" lon="-0.6760050">
        <ele>98.7</ele>
        <time>2019-10-19T10:49:08Z</time>
      </trkpt>
      <trkpt lat="38.2787320" lon="-0.6760520">
        <ele>98.7</ele>
        <time>2019-10-19T10:49:09Z</time>
      </trkpt>
      <trkpt lat="38.2787240" lon="-0.6760990">
        <ele>98.7</ele>
        <time>2019-10-19T10:49:10Z</time>
      </trkpt>
      <trkpt lat="38.2786920" lon="-0.6762900">
        <ele>98.5</ele>
        <time>2019-10-19T10:49:11Z</time>
      </trkpt>
      <trkpt lat="38.2786740" lon="-0.6763840">
        <ele>98.4</ele>
        <time>2019-10-19T10:49:12Z</time>
      </trkpt>
      <trkpt lat="38.2786650" lon="-0.6764330">
        <ele>98.3</ele>
        <time>2019-10-19T10:49:13Z</time>
      </trkpt>
      <trkpt lat="38.2786550" lon="-0.6764810">
        <ele>98.3</ele>
        <time>2019-10-19T10:49:14Z</time>
      </trkpt>
      <trkpt lat="38.2786220" lon="-0.6766690">
        <ele>98.0</ele>
        <time>2019-10-19T10:49:15Z</time>
      </trkpt>
      <trkpt lat="38.2786060" lon="-0.6767650">
        <ele>97.8</ele>
        <time>2019-10-19T10:49:16Z</time>
      </trkpt>
      <trkpt lat="38.2785910" lon="-0.6768600">
        <ele>97.8</ele>
        <time>2019-10-19T10:49:17Z</time>
      </trkpt>
      <trkpt lat="38.2785840" lon="-0.6769090">
        <ele>97.7</ele>
        <time>2019-10-19T10:49:18Z</time>
      </trkpt>
      <trkpt lat="38.2785760" lon="-0.6769570">
        <ele>97.7</ele>
        <time>2019-10-19T10:49:19Z</time>
      </trkpt>
      <trkpt lat="38.2785590" lon="-0.6770540">
        <ele>97.7</ele>
        <time>2019-10-19T10:49:20Z</time>
      </trkpt>
      <trkpt lat="38.2785420" lon="-0.6771510">
        <ele>97.6</ele>
        <time>2019-10-19T10:49:21Z</time>
      </trkpt>
      <trkpt lat="38.2785070" lon="-0.6773450">
        <ele>97.6</ele>
        <time>2019-10-19T10:49:22Z</time>
      </trkpt>
      <trkpt lat="38.2785000" lon="-0.6773930">
        <ele>97.6</ele>
        <time>2019-10-19T10:49:23Z</time>
      </trkpt>
      <trkpt lat="38.2784920" lon="-0.6774410">
        <ele>97.6</ele>
        <time>2019-10-19T10:49:24Z</time>
      </trkpt>
      <trkpt lat="38.2784780" lon="-0.6775360">
        <ele>97.6</ele>
        <time>2019-10-19T10:49:25Z</time>
      </trkpt>
      <trkpt lat="38.2784640" lon="-0.6776290">
        <ele>97.6</ele>
        <time>2019-10-19T10:49:26Z</time>
      </trkpt>
      <trkpt lat="38.2784490" lon="-0.6777250">
        <ele>97.6</ele>
        <time>2019-10-19T10:49:27Z</time>
      </trkpt>
      <trkpt lat="38.2784320" lon="-0.6778200">
        <ele>97.5</ele>
        <time>2019-10-19T10:49:28Z</time>
      </trkpt>
      <trkpt lat="38.2784170" lon="-0.6779160">
        <ele>97.5</ele>
        <time>2019-10-19T10:49:29Z</time>
      </trkpt>
      <trkpt lat="38.2783870" lon="-0.6781010">
        <ele>97.5</ele>
        <time>2019-10-19T10:49:30Z</time>
      </trkpt>
      <trkpt lat="38.2783690" lon="-0.6782010">
        <ele>97.5</ele>
        <time>2019-10-19T10:49:31Z</time>
      </trkpt>
      <trkpt lat="38.2783610" lon="-0.6782480">
        <ele>97.5</ele>
        <time>2019-10-19T10:49:32Z</time>
      </trkpt>
      <trkpt lat="38.2783530" lon="-0.6782950">
        <ele>97.5</ele>
        <time>2019-10-19T10:49:33Z</time>
      </trkpt>
      <trkpt lat="38.2783380" lon="-0.6783890">
        <ele>97.5</ele>
        <time>2019-10-19T10:49:34Z</time>
      </trkpt>
      <trkpt lat="38.2783080" lon="-0.6785780">
        <ele>97.5</ele>
        <time>2019-10-19T10:49:35Z</time>
      </trkpt>
      <trkpt lat="38.2782970" lon="-0.6786480">
        <ele>97.3</ele>
        <time>2019-10-19T10:49:36Z</time>
      </trkpt>
      <trkpt lat="38.2782850" lon="-0.6787170">
        <ele>97.0</ele>
        <time>2019-10-19T10:49:37Z</time>
      </trkpt>
      <trkpt lat="38.2782610" lon="-0.6788560">
        <ele>96.5</ele>
        <time>2019-10-19T10:49:38Z</time>
      </trkpt>
      <trkpt lat="38.2782510" lon="-0.6789070">
        <ele>96.4</ele>
        <time>2019-10-19T10:49:39Z</time>
      </trkpt>
      <trkpt lat="38.2782410" lon="-0.6789570">
        <ele>96.3</ele>
        <time>2019-10-19T10:49:40Z</time>
      </trkpt>
      <trkpt lat="38.2782270" lon="-0.6790500">
        <ele>96.0</ele>
        <time>2019-10-19T10:49:41Z</time>
      </trkpt>
      <trkpt lat="38.2781970" lon="-0.6792420">
        <ele>95.3</ele>
        <time>2019-10-19T10:49:42Z</time>
      </trkpt>
      <trkpt lat="38.2781810" lon="-0.6793360">
        <ele>94.9</ele>
        <time>2019-10-19T10:49:43Z</time>
      </trkpt>
      <trkpt lat="38.2781730" lon="-0.6793840">
        <ele>94.7</ele>
        <time>2019-10-19T10:49:44Z</time>
      </trkpt>
      <trkpt lat="38.2781640" lon="-0.6794320">
        <ele>94.5</ele>
        <time>2019-10-19T10:49:45Z</time>
      </trkpt>
      <trkpt lat="38.2781370" lon="-0.6795780">
        <ele>94.0</ele>
        <time>2019-10-19T10:49:46Z</time>
      </trkpt>
      <trkpt lat="38.2781260" lon="-0.6796280">
        <ele>93.9</ele>
        <time>2019-10-19T10:49:47Z</time>
      </trkpt>
      <trkpt lat="38.2780830" lon="-0.6798330">
        <ele>93.7</ele>
        <time>2019-10-19T10:49:48Z</time>
      </trkpt>
      <trkpt lat="38.2780750" lon="-0.6798810">
        <ele>93.7</ele>
        <time>2019-10-19T10:49:49Z</time>
      </trkpt>
      <trkpt lat="38.2780670" lon="-0.6799290">
        <ele>93.7</ele>
        <time>2019-10-19T10:49:50Z</time>
      </trkpt>
      <trkpt lat="38.2780520" lon="-0.6800250">
        <ele>93.9</ele>
        <time>2019-10-19T10:49:51Z</time>
      </trkpt>
      <trkpt lat="38.2780350" lon="-0.6801210">
        <ele>94.1</ele>
        <time>2019-10-19T10:49:52Z</time>
      </trkpt>
      <trkpt lat="38.2780060" lon="-0.6803050">
        <ele>94.5</ele>
        <time>2019-10-19T10:49:53Z</time>
      </trkpt>
      <trkpt lat="38.2779910" lon="-0.6803960">
        <ele>94.6</ele>
        <time>2019-10-19T10:49:54Z</time>
      </trkpt>
      <trkpt lat="38.2779740" lon="-0.6804860">
        <ele>94.6</ele>
        <time>2019-10-19T10:49:55Z</time>
      </trkpt>
      <trkpt lat="38.2779670" lon="-0.6805310">
        <ele>94.7</ele>
        <time>2019-10-19T10:49:56Z</time>
      </trkpt>
      <trkpt lat="38.2779590" lon="-0.6805760">
        <ele>94.7</ele>
        <time>2019-10-19T10:49:57Z</time>
      </trkpt>
      <trkpt lat="38.2779450" lon="-0.6806650">
        <ele>94.7</ele>
        <time>2019-10-19T10:49:58Z</time>
      </trkpt>
      <trkpt lat="38.2779300" lon="-0.6807540">
        <ele>94.7</ele>
        <time>2019-10-19T10:49:59Z</time>
      </trkpt>
      <trkpt lat="38.2779120" lon="-0.6809350">
        <ele>94.5</ele>
        <time>2019-10-19T10:50:00Z</time>
      </trkpt>
      <trkpt lat="38.2779290" lon="-0.6809960">
        <ele>94.3</ele>
        <time>2019-10-19T10:50:01Z</time>
      </trkpt>
      <trkpt lat="38.2779460" lon="-0.6810580">
        <ele>94.1</ele>
        <time>2019-10-19T10:50:02Z</time>
      </trkpt>
      <trkpt lat="38.2779790" lon="-0.6811810">
        <ele>93.9</ele>
        <time>2019-10-19T10:50:03Z</time>
      </trkpt>
      <trkpt lat="38.2780080" lon="-0.6812610">
        <ele>93.7</ele>
        <time>2019-10-19T10:50:04Z</time>
      </trkpt>
      <trkpt lat="38.2780250" lon="-0.6813450">
        <ele>93.6</ele>
        <time>2019-10-19T10:50:05Z</time>
      </trkpt>
      <trkpt lat="38.2780270" lon="-0.6814310">
        <ele>93.6</ele>
        <time>2019-10-19T10:50:06Z</time>
      </trkpt>
      <trkpt lat="38.2780190" lon="-0.6814710">
        <ele>93.6</ele>
        <time>2019-10-19T10:50:07Z</time>
      </trkpt>
      <trkpt lat="38.2780100" lon="-0.6815100">
        <ele>93.6</ele>
        <time>2019-10-19T10:50:08Z</time>
      </trkpt>
      <trkpt lat="38.2779740" lon="-0.6816210">
        <ele>93.6</ele>
        <time>2019-10-19T10:50:09Z</time>
      </trkpt>
      <trkpt lat="38.2779550" lon="-0.6816520">
        <ele>93.6</ele>
        <time>2019-10-19T10:50:10Z</time>
      </trkpt>
      <trkpt lat="38.2778450" lon="-0.6817360">
        <ele>93.7</ele>
        <time>2019-10-19T10:50:11Z</time>
      </trkpt>
      <trkpt lat="38.2777950" lon="-0.6817390">
        <ele>93.8</ele>
        <time>2019-10-19T10:50:12Z</time>
      </trkpt>
      <trkpt lat="38.2777450" lon="-0.6817410">
        <ele>93.8</ele>
        <time>2019-10-19T10:50:13Z</time>
      </trkpt>
      <trkpt lat="38.2776450" lon="-0.6817450">
        <ele>93.7</ele>
        <time>2019-10-19T10:50:14Z</time>
      </trkpt>
      <trkpt lat="38.2775860" lon="-0.6817060">
        <ele>93.7</ele>
        <time>2019-10-19T10:50:15Z</time>
      </trkpt>
      <trkpt lat="38.2775320" lon="-0.6816520">
        <ele>93.6</ele>
        <time>2019-10-19T10:50:16Z</time>
      </trkpt>
      <trkpt lat="38.2775150" lon="-0.6816130">
        <ele>93.6</ele>
        <time>2019-10-19T10:50:17Z</time>
      </trkpt>
      <trkpt lat="38.2774970" lon="-0.6815750">
        <ele>93.6</ele>
        <time>2019-10-19T10:50:18Z</time>
      </trkpt>
      <trkpt lat="38.2774420" lon="-0.6814600">
        <ele>93.6</ele>
        <time>2019-10-19T10:50:19Z</time>
      </trkpt>
      <trkpt lat="38.2774220" lon="-0.6814210">
        <ele>93.5</ele>
        <time>2019-10-19T10:50:20Z</time>
      </trkpt>
      <trkpt lat="38.2773530" lon="-0.6813180">
        <ele>93.6</ele>
        <time>2019-10-19T10:50:21Z</time>
      </trkpt>
      <trkpt lat="38.2773230" lon="-0.6812920">
        <ele>93.6</ele>
        <time>2019-10-19T10:50:22Z</time>
      </trkpt>
      <trkpt lat="38.2771850" lon="-0.6812270">
        <ele>93.5</ele>
        <time>2019-10-19T10:50:23Z</time>
      </trkpt>
      <trkpt lat="38.2771500" lon="-0.6812130">
        <ele>93.5</ele>
        <time>2019-10-19T10:50:24Z</time>
      </trkpt>
      <trkpt lat="38.2771140" lon="-0.6811990">
        <ele>93.5</ele>
        <time>2019-10-19T10:50:25Z</time>
      </trkpt>
      <trkpt lat="38.2770420" lon="-0.6811720">
        <ele>93.4</ele>
        <time>2019-10-19T10:50:26Z</time>
      </trkpt>
      <trkpt lat="38.2769700" lon="-0.6811440">
        <ele>93.4</ele>
        <time>2019-10-19T10:50:27Z</time>
      </trkpt>
      <trkpt lat="38.2768270" lon="-0.6810890">
        <ele>93.0</ele>
        <time>2019-10-19T10:50:28Z</time>
      </trkpt>
      <trkpt lat="38.2767910" lon="-0.6810750">
        <ele>92.8</ele>
        <time>2019-10-19T10:50:29Z</time>
      </trkpt>
      <trkpt lat="38.2767540" lon="-0.6810610">
        <ele>92.6</ele>
        <time>2019-10-19T10:50:30Z</time>
      </trkpt>
      <trkpt lat="38.2766090" lon="-0.6810020">
        <ele>92.1</ele>
        <time>2019-10-19T10:50:31Z</time>
      </trkpt>
      <trkpt lat="38.2765720" lon="-0.6809870">
        <ele>92.0</ele>
        <time>2019-10-19T10:50:32Z</time>
      </trkpt>
      <trkpt lat="38.2765350" lon="-0.6809730">
        <ele>91.9</ele>
        <time>2019-10-19T10:50:33Z</time>
      </trkpt>
      <trkpt lat="38.2763890" lon="-0.6809100">
        <ele>91.6</ele>
        <time>2019-10-19T10:50:34Z</time>
      </trkpt>
      <trkpt lat="38.2763520" lon="-0.6808950">
        <ele>91.6</ele>
        <time>2019-10-19T10:50:35Z</time>
      </trkpt>
      <trkpt lat="38.2763140" lon="-0.6808800">
        <ele>91.5</ele>
        <time>2019-10-19T10:50:36Z</time>
      </trkpt>
      <trkpt lat="38.2761620" lon="-0.6808220">
        <ele>91.3</ele>
        <time>2019-10-19T10:50:37Z</time>
      </trkpt>
      <trkpt lat="38.2760890" lon="-0.6807920">
        <ele>91.2</ele>
        <time>2019-10-19T10:50:38Z</time>
      </trkpt>
      <trkpt lat="38.2760520" lon="-0.6807760">
        <ele>91.1</ele>
        <time>2019-10-19T10:50:39Z</time>
      </trkpt>
      <trkpt lat="38.2760150" lon="-0.6807600">
        <ele>91.0</ele>
        <time>2019-10-19T10:50:40Z</time>
      </trkpt>
      <trkpt lat="38.2759040" lon="-0.6807120">
        <ele>90.8</ele>
        <time>2019-10-19T10:50:41Z</time>
      </trkpt>
      <trkpt lat="38.2758660" lon="-0.6806960">
        <ele>90.7</ele>
        <time>2019-10-19T10:50:42Z</time>
      </trkpt>
      <trkpt lat="38.2757910" lon="-0.6806640">
        <ele>90.6</ele>
        <time>2019-10-19T10:50:43Z</time>
      </trkpt>
      <trkpt lat="38.2757170" lon="-0.6806320">
        <ele>90.5</ele>
        <time>2019-10-19T10:50:44Z</time>
      </trkpt>
      <trkpt lat="38.2756430" lon="-0.6806030">
        <ele>90.4</ele>
        <time>2019-10-19T10:50:45Z</time>
      </trkpt>
      <trkpt lat="38.2754970" lon="-0.6805480">
        <ele>90.2</ele>
        <time>2019-10-19T10:50:46Z</time>
      </trkpt>
      <trkpt lat="38.2754610" lon="-0.6805340">
        <ele>90.1</ele>
        <time>2019-10-19T10:50:47Z</time>
      </trkpt>
      <trkpt lat="38.2754250" lon="-0.6805210">
        <ele>90.1</ele>
        <time>2019-10-19T10:50:48Z</time>
      </trkpt>
      <trkpt lat="38.2753540" lon="-0.6804920">
        <ele>90.0</ele>
        <time>2019-10-19T10:50:49Z</time>
      </trkpt>
      <trkpt lat="38.2752860" lon="-0.6804620">
        <ele>90.0</ele>
        <time>2019-10-19T10:50:50Z</time>
      </trkpt>
      <trkpt lat="38.2752170" lon="-0.6804330">
        <ele>90.0</ele>
        <time>2019-10-19T10:50:51Z</time>
      </trkpt>
      <trkpt lat="38.2750820" lon="-0.6803750">
        <ele>90.0</ele>
        <time>2019-10-19T10:50:52Z</time>
      </trkpt>
      <trkpt lat="38.2750480" lon="-0.6803620">
        <ele>90.0</ele>
        <time>2019-10-19T10:50:53Z</time>
      </trkpt>
      <trkpt lat="38.2750130" lon="-0.6803500">
        <ele>90.0</ele>
        <time>2019-10-19T10:50:54Z</time>
      </trkpt>
      <trkpt lat="38.2749100" lon="-0.6803360">
        <ele>90.1</ele>
        <time>2019-10-19T10:50:55Z</time>
      </trkpt>
      <trkpt lat="38.2748770" lon="-0.6803460">
        <ele>90.2</ele>
        <time>2019-10-19T10:50:56Z</time>
      </trkpt>
      <trkpt lat="38.2747900" lon="-0.6803980">
        <ele>90.3</ele>
        <time>2019-10-19T10:50:57Z</time>
      </trkpt>
      <trkpt lat="38.2747700" lon="-0.6804310">
        <ele>90.3</ele>
        <time>2019-10-19T10:50:58Z</time>
      </trkpt>
      <trkpt lat="38.2747200" lon="-0.6805400">
        <ele>89.9</ele>
        <time>2019-10-19T10:50:59Z</time>
      </trkpt>
      <trkpt lat="38.2747110" lon="-0.6805830">
        <ele>89.9</ele>
        <time>2019-10-19T10:51:00Z</time>
      </trkpt>
      <trkpt lat="38.2746860" lon="-0.6807120">
        <ele>89.8</ele>
        <time>2019-10-19T10:51:01Z</time>
      </trkpt>
      <trkpt lat="38.2746780" lon="-0.6807560">
        <ele>89.7</ele>
        <time>2019-10-19T10:51:02Z</time>
      </trkpt>
      <trkpt lat="38.2746540" lon="-0.6808900">
        <ele>89.6</ele>
        <time>2019-10-19T10:51:03Z</time>
      </trkpt>
      <trkpt lat="38.2746450" lon="-0.6809360">
        <ele>89.6</ele>
        <time>2019-10-19T10:51:04Z</time>
      </trkpt>
      <trkpt lat="38.2746210" lon="-0.6810740">
        <ele>89.5</ele>
        <time>2019-10-19T10:51:05Z</time>
      </trkpt>
      <trkpt lat="38.2746140" lon="-0.6811200">
        <ele>89.5</ele>
        <time>2019-10-19T10:51:06Z</time>
      </trkpt>
      <trkpt lat="38.2745910" lon="-0.6812580">
        <ele>89.3</ele>
        <time>2019-10-19T10:51:07Z</time>
      </trkpt>
      <trkpt lat="38.2745820" lon="-0.6813030">
        <ele>89.3</ele>
        <time>2019-10-19T10:51:08Z</time>
      </trkpt>
      <trkpt lat="38.2745660" lon="-0.6814010">
        <ele>89.2</ele>
        <time>2019-10-19T10:51:09Z</time>
      </trkpt>
      <trkpt lat="38.2745490" lon="-0.6814980">
        <ele>89.1</ele>
        <time>2019-10-19T10:51:10Z</time>
      </trkpt>
      <trkpt lat="38.2745310" lon="-0.6815940">
        <ele>89.0</ele>
        <time>2019-10-19T10:51:11Z</time>
      </trkpt>
      <trkpt lat="38.2744930" lon="-0.6817900">
        <ele>88.8</ele>
        <time>2019-10-19T10:51:12Z</time>
      </trkpt>
      <trkpt lat="38.2744830" lon="-0.6818390">
        <ele>88.8</ele>
        <time>2019-10-19T10:51:13Z</time>
      </trkpt>
      <trkpt lat="38.2744730" lon="-0.6818880">
        <ele>88.7</ele>
        <time>2019-10-19T10:51:14Z</time>
      </trkpt>
      <trkpt lat="38.2744530" lon="-0.6819880">
        <ele>88.7</ele>
        <time>2019-10-19T10:51:15Z</time>
      </trkpt>
      <trkpt lat="38.2744130" lon="-0.6821910">
        <ele>88.5</ele>
        <time>2019-10-19T10:51:16Z</time>
      </trkpt>
      <trkpt lat="38.2743950" lon="-0.6822930">
        <ele>88.4</ele>
        <time>2019-10-19T10:51:17Z</time>
      </trkpt>
      <trkpt lat="38.2743770" lon="-0.6823930">
        <ele>88.3</ele>
        <time>2019-10-19T10:51:18Z</time>
      </trkpt>
      <trkpt lat="38.2743600" lon="-0.6824950">
        <ele>88.3</ele>
        <time>2019-10-19T10:51:19Z</time>
      </trkpt>
      <trkpt lat="38.2743530" lon="-0.6825460">
        <ele>88.2</ele>
        <time>2019-10-19T10:51:20Z</time>
      </trkpt>
      <trkpt lat="38.2743460" lon="-0.6825970">
        <ele>88.2</ele>
        <time>2019-10-19T10:51:21Z</time>
      </trkpt>
      <trkpt lat="38.2743200" lon="-0.6828070">
        <ele>87.8</ele>
        <time>2019-10-19T10:51:22Z</time>
      </trkpt>
      <trkpt lat="38.2743130" lon="-0.6828590">
        <ele>87.8</ele>
        <time>2019-10-19T10:51:23Z</time>
      </trkpt>
      <trkpt lat="38.2743060" lon="-0.6829110">
        <ele>87.7</ele>
        <time>2019-10-19T10:51:24Z</time>
      </trkpt>
      <trkpt lat="38.2742900" lon="-0.6830150">
        <ele>87.6</ele>
        <time>2019-10-19T10:51:25Z</time>
      </trkpt>
      <trkpt lat="38.2742730" lon="-0.6831190">
        <ele>87.5</ele>
        <time>2019-10-19T10:51:26Z</time>
      </trkpt>
      <trkpt lat="38.2742310" lon="-0.6833260">
        <ele>89.0</ele>
        <time>2019-10-19T10:51:27Z</time>
      </trkpt>
      <trkpt lat="38.2742130" lon="-0.6834320">
        <ele>89.5</ele>
        <time>2019-10-19T10:51:28Z</time>
      </trkpt>
      <trkpt lat="38.2742040" lon="-0.6834860">
        <ele>89.8</ele>
        <time>2019-10-19T10:51:29Z</time>
      </trkpt>
      <trkpt lat="38.2741950" lon="-0.6835390">
        <ele>90.0</ele>
        <time>2019-10-19T10:51:30Z</time>
      </trkpt>
      <trkpt lat="38.2741570" lon="-0.6837510">
        <ele>91.0</ele>
        <time>2019-10-19T10:51:31Z</time>
      </trkpt>
      <trkpt lat="38.2741400" lon="-0.6838590">
        <ele>91.5</ele>
        <time>2019-10-19T10:51:32Z</time>
      </trkpt>
      <trkpt lat="38.2741320" lon="-0.6839130">
        <ele>91.7</ele>
        <time>2019-10-19T10:51:33Z</time>
      </trkpt>
      <trkpt lat="38.2741230" lon="-0.6839670">
        <ele>91.9</ele>
        <time>2019-10-19T10:51:34Z</time>
      </trkpt>
      <trkpt lat="38.2741060" lon="-0.6840760">
        <ele>92.3</ele>
        <time>2019-10-19T10:51:35Z</time>
      </trkpt>
      <trkpt lat="38.2740680" lon="-0.6842910">
        <ele>93.0</ele>
        <time>2019-10-19T10:51:36Z</time>
      </trkpt>
      <trkpt lat="38.2740600" lon="-0.6843450">
        <ele>93.1</ele>
        <time>2019-10-19T10:51:37Z</time>
      </trkpt>
      <trkpt lat="38.2740510" lon="-0.6843990">
        <ele>93.3</ele>
        <time>2019-10-19T10:51:38Z</time>
      </trkpt>
      <trkpt lat="38.2740250" lon="-0.6845620">
        <ele>93.9</ele>
        <time>2019-10-19T10:51:39Z</time>
      </trkpt>
      <trkpt lat="38.2740160" lon="-0.6846160">
        <ele>94.1</ele>
        <time>2019-10-19T10:51:40Z</time>
      </trkpt>
      <trkpt lat="38.2739880" lon="-0.6847770">
        <ele>94.8</ele>
        <time>2019-10-19T10:51:41Z</time>
      </trkpt>
      <trkpt lat="38.2739790" lon="-0.6848290">
        <ele>95.1</ele>
        <time>2019-10-19T10:51:42Z</time>
      </trkpt>
      <trkpt lat="38.2739500" lon="-0.6849870">
        <ele>95.8</ele>
        <time>2019-10-19T10:51:43Z</time>
      </trkpt>
      <trkpt lat="38.2739390" lon="-0.6850400">
        <ele>96.0</ele>
        <time>2019-10-19T10:51:44Z</time>
      </trkpt>
      <trkpt lat="38.2739010" lon="-0.6852500">
        <ele>94.9</ele>
        <time>2019-10-19T10:51:45Z</time>
      </trkpt>
      <trkpt lat="38.2738840" lon="-0.6853550">
        <ele>94.4</ele>
        <time>2019-10-19T10:51:46Z</time>
      </trkpt>
      <trkpt lat="38.2738760" lon="-0.6854060">
        <ele>94.1</ele>
        <time>2019-10-19T10:51:47Z</time>
      </trkpt>
      <trkpt lat="38.2738670" lon="-0.6854570">
        <ele>93.9</ele>
        <time>2019-10-19T10:51:48Z</time>
      </trkpt>
      <trkpt lat="38.2738420" lon="-0.6856090">
        <ele>93.4</ele>
        <time>2019-10-19T10:51:49Z</time>
      </trkpt>
      <trkpt lat="38.2738340" lon="-0.6856590">
        <ele>93.3</ele>
        <time>2019-10-19T10:51:50Z</time>
      </trkpt>
      <trkpt lat="38.2738030" lon="-0.6858630">
        <ele>93.1</ele>
        <time>2019-10-19T10:51:51Z</time>
      </trkpt>
      <trkpt lat="38.2737940" lon="-0.6859130">
        <ele>93.0</ele>
        <time>2019-10-19T10:51:52Z</time>
      </trkpt>
      <trkpt lat="38.2737850" lon="-0.6859620">
        <ele>93.0</ele>
        <time>2019-10-19T10:51:53Z</time>
      </trkpt>
      <trkpt lat="38.2737490" lon="-0.6861620">
        <ele>93.0</ele>
        <time>2019-10-19T10:51:54Z</time>
      </trkpt>
      <trkpt lat="38.2737400" lon="-0.6862130">
        <ele>92.9</ele>
        <time>2019-10-19T10:51:55Z</time>
      </trkpt>
      <trkpt lat="38.2737310" lon="-0.6862630">
        <ele>92.9</ele>
        <time>2019-10-19T10:51:56Z</time>
      </trkpt>
      <trkpt lat="38.2737050" lon="-0.6864130">
        <ele>92.6</ele>
        <time>2019-10-19T10:51:57Z</time>
      </trkpt>
      <trkpt lat="38.2736970" lon="-0.6864630">
        <ele>92.4</ele>
        <time>2019-10-19T10:51:58Z</time>
      </trkpt>
      <trkpt lat="38.2736790" lon="-0.6865620">
        <ele>92.2</ele>
        <time>2019-10-19T10:51:59Z</time>
      </trkpt>
      <trkpt lat="38.2736390" lon="-0.6867560">
        <ele>92.0</ele>
        <time>2019-10-19T10:52:00Z</time>
      </trkpt>
      <trkpt lat="38.2736270" lon="-0.6868040">
        <ele>92.0</ele>
        <time>2019-10-19T10:52:01Z</time>
      </trkpt>
      <trkpt lat="38.2736150" lon="-0.6868510">
        <ele>92.0</ele>
        <time>2019-10-19T10:52:02Z</time>
      </trkpt>
      <trkpt lat="38.2735930" lon="-0.6869460">
        <ele>92.0</ele>
        <time>2019-10-19T10:52:03Z</time>
      </trkpt>
      <trkpt lat="38.2735560" lon="-0.6871330">
        <ele>92.0</ele>
        <time>2019-10-19T10:52:04Z</time>
      </trkpt>
      <trkpt lat="38.2735490" lon="-0.6871790">
        <ele>92.0</ele>
        <time>2019-10-19T10:52:05Z</time>
      </trkpt>
      <trkpt lat="38.2735410" lon="-0.6872240">
        <ele>92.0</ele>
        <time>2019-10-19T10:52:06Z</time>
      </trkpt>
      <trkpt lat="38.2735270" lon="-0.6873110">
        <ele>92.0</ele>
        <time>2019-10-19T10:52:07Z</time>
      </trkpt>
      <trkpt lat="38.2735140" lon="-0.6873960">
        <ele>92.0</ele>
        <time>2019-10-19T10:52:08Z</time>
      </trkpt>
      <trkpt lat="38.2734990" lon="-0.6874790">
        <ele>92.0</ele>
        <time>2019-10-19T10:52:09Z</time>
      </trkpt>
      <trkpt lat="38.2734700" lon="-0.6876350">
        <ele>91.9</ele>
        <time>2019-10-19T10:52:10Z</time>
      </trkpt>
      <trkpt lat="38.2734640" lon="-0.6876720">
        <ele>91.8</ele>
        <time>2019-10-19T10:52:11Z</time>
      </trkpt>
      <trkpt lat="38.2734570" lon="-0.6877080">
        <ele>91.8</ele>
        <time>2019-10-19T10:52:12Z</time>
      </trkpt>
      <trkpt lat="38.2734370" lon="-0.6878160">
        <ele>91.4</ele>
        <time>2019-10-19T10:52:13Z</time>
      </trkpt>
      <trkpt lat="38.2734300" lon="-0.6878500">
        <ele>91.3</ele>
        <time>2019-10-19T10:52:14Z</time>
      </trkpt>
      <trkpt lat="38.2734180" lon="-0.6879150">
        <ele>90.9</ele>
        <time>2019-10-19T10:52:15Z</time>
      </trkpt>
      <trkpt lat="38.2734090" lon="-0.6879740">
        <ele>90.5</ele>
        <time>2019-10-19T10:52:16Z</time>
      </trkpt>
      <trkpt lat="38.2734030" lon="-0.6880240">
        <ele>90.2</ele>
        <time>2019-10-19T10:52:17Z</time>
      </trkpt>
      <trkpt lat="38.2733840" lon="-0.6881360">
        <ele>89.9</ele>
        <time>2019-10-19T10:52:18Z</time>
      </trkpt>
      <trkpt lat="38.2733710" lon="-0.6881980">
        <ele>89.9</ele>
        <time>2019-10-19T10:52:19Z</time>
      </trkpt>
      <trkpt lat="38.2733500" lon="-0.6882380">
        <ele>89.8</ele>
        <time>2019-10-19T10:52:20Z</time>
      </trkpt>
      <trkpt lat="38.2733290" lon="-0.6882780">
        <ele>89.7</ele>
        <time>2019-10-19T10:52:21Z</time>
      </trkpt>
      <trkpt lat="38.2732860" lon="-0.6883580">
        <ele>89.6</ele>
        <time>2019-10-19T10:52:22Z</time>
      </trkpt>
      <trkpt lat="38.2732480" lon="-0.6883720">
        <ele>89.7</ele>
        <time>2019-10-19T10:52:23Z</time>
      </trkpt>
      <trkpt lat="38.2732160" lon="-0.6883620">
        <ele>89.8</ele>
        <time>2019-10-19T10:52:24Z</time>
      </trkpt>
      <trkpt lat="38.2731960" lon="-0.6883460">
        <ele>89.8</ele>
        <time>2019-10-19T10:52:25Z</time>
      </trkpt>
      <trkpt lat="38.2731790" lon="-0.6882680">
        <ele>90.3</ele>
        <time>2019-10-19T10:52:26Z</time>
      </trkpt>
      <trkpt lat="38.2731620" lon="-0.6881890">
        <ele>90.4</ele>
        <time>2019-10-19T10:53:43Z</time>
      </trkpt>
      <trkpt lat="38.2731450" lon="-0.6881110">
        <ele>90.6</ele>
        <time>2019-10-19T10:53:44Z</time>
      </trkpt>
      <trkpt lat="38.2731510" lon="-0.6880340">
        <ele>90.6</ele>
        <time>2019-10-19T10:53:45Z</time>
      </trkpt>
      <trkpt lat="38.2731520" lon="-0.6879550">
        <ele>90.5</ele>
        <time>2019-10-19T10:53:46Z</time>
      </trkpt>
      <trkpt lat="38.2731530" lon="-0.6878710">
        <ele>90.5</ele>
        <time>2019-10-19T10:53:47Z</time>
      </trkpt>
      <trkpt lat="38.2731610" lon="-0.6877840">
        <ele>90.5</ele>
        <time>2019-10-19T10:53:48Z</time>
      </trkpt>
      <trkpt lat="38.2731730" lon="-0.6876940">
        <ele>90.4</ele>
        <time>2019-10-19T10:53:49Z</time>
      </trkpt>
      <trkpt lat="38.2731840" lon="-0.6876240">
        <ele>90.4</ele>
        <time>2019-10-19T10:53:50Z</time>
      </trkpt>
      <trkpt lat="38.2731950" lon="-0.6875540">
        <ele>90.4</ele>
        <time>2019-10-19T10:53:51Z</time>
      </trkpt>
      <trkpt lat="38.2732170" lon="-0.6874130">
        <ele>90.4</ele>
        <time>2019-10-19T10:53:52Z</time>
      </trkpt>
      <trkpt lat="38.2732310" lon="-0.6873180">
        <ele>90.5</ele>
        <time>2019-10-19T10:53:53Z</time>
      </trkpt>
      <trkpt lat="38.2732470" lon="-0.6872230">
        <ele>90.6</ele>
        <time>2019-10-19T10:53:54Z</time>
      </trkpt>
      <trkpt lat="38.2732580" lon="-0.6871300">
        <ele>90.7</ele>
        <time>2019-10-19T10:53:55Z</time>
      </trkpt>
      <trkpt lat="38.2732700" lon="-0.6870370">
        <ele>90.8</ele>
        <time>2019-10-19T10:53:56Z</time>
      </trkpt>
      <trkpt lat="38.2732850" lon="-0.6869420">
        <ele>91.1</ele>
        <time>2019-10-19T10:53:57Z</time>
      </trkpt>
      <trkpt lat="38.2733010" lon="-0.6868480">
        <ele>91.6</ele>
        <time>2019-10-19T10:53:58Z</time>
      </trkpt>
      <trkpt lat="38.2733150" lon="-0.6867550">
        <ele>92.3</ele>
        <time>2019-10-19T10:53:59Z</time>
      </trkpt>
      <trkpt lat="38.2733340" lon="-0.6866600">
        <ele>92.9</ele>
        <time>2019-10-19T10:54:00Z</time>
      </trkpt>
      <trkpt lat="38.2733490" lon="-0.6865670">
        <ele>93.6</ele>
        <time>2019-10-19T10:54:01Z</time>
      </trkpt>
      <trkpt lat="38.2733640" lon="-0.6864720">
        <ele>94.2</ele>
        <time>2019-10-19T10:54:02Z</time>
      </trkpt>
      <trkpt lat="38.2733800" lon="-0.6863780">
        <ele>94.8</ele>
        <time>2019-10-19T10:54:03Z</time>
      </trkpt>
      <trkpt lat="38.2733950" lon="-0.6862830">
        <ele>95.4</ele>
        <time>2019-10-19T10:54:04Z</time>
      </trkpt>
      <trkpt lat="38.2734080" lon="-0.6861950">
        <ele>95.8</ele>
        <time>2019-10-19T10:54:05Z</time>
      </trkpt>
      <trkpt lat="38.2734180" lon="-0.6861100">
        <ele>96.3</ele>
        <time>2019-10-19T10:54:06Z</time>
      </trkpt>
      <trkpt lat="38.2734130" lon="-0.6860500">
        <ele>96.9</ele>
        <time>2019-10-19T10:54:07Z</time>
      </trkpt>
      <trkpt lat="38.2733980" lon="-0.6860360">
        <ele>96.8</ele>
        <time>2019-10-19T10:54:08Z</time>
      </trkpt>
      <trkpt lat="38.2733820" lon="-0.6860390">
        <ele>96.8</ele>
        <time>2019-10-19T10:54:09Z</time>
      </trkpt>
      <trkpt lat="38.2733820" lon="-0.6860390">
        <ele>96.8</ele>
        <time>2019-10-19T10:54:10Z</time>
      </trkpt>
      <trkpt lat="38.2733810" lon="-0.6860570">
        <ele>96.7</ele>
        <time>2019-10-19T10:54:11Z</time>
      </trkpt>
      <trkpt lat="38.2741520" lon="-0.6839310">
        <ele>141.2</ele>
        <time>2019-10-19T14:20:40Z</time>
      </trkpt>
      <trkpt lat="38.2741580" lon="-0.6839690">
        <ele>141.2</ele>
        <time>2019-10-19T14:20:41Z</time>
      </trkpt>
      <trkpt lat="38.2741580" lon="-0.6839690">
        <ele>141.2</ele>
        <time>2019-10-19T14:20:42Z</time>
      </trkpt>
      <trkpt lat="38.2741580" lon="-0.6839690">
        <ele>141.0</ele>
        <time>2019-10-19T14:20:43Z</time>
      </trkpt>
      <trkpt lat="38.2741580" lon="-0.6839690">
        <ele>141.0</ele>
        <time>2019-10-19T14:20:44Z</time>
      </trkpt>
      <trkpt lat="38.2741580" lon="-0.6839690">
        <ele>140.8</ele>
        <time>2019-10-19T14:20:45Z</time>
      </trkpt>
      <trkpt lat="38.2741580" lon="-0.6839690">
        <ele>140.8</ele>
        <time>2019-10-19T14:20:46Z</time>
      </trkpt>
      <trkpt lat="38.2741580" lon="-0.6839690">
        <ele>140.8</ele>
        <time>2019-10-19T14:20:47Z</time>
      </trkpt>
      <trkpt lat="38.2741580" lon="-0.6839690">
        <ele>140.8</ele>
        <time>2019-10-19T14:20:48Z</time>
      </trkpt>
      <trkpt lat="38.2741580" lon="-0.6839690">
        <ele>140.6</ele>
        <time>2019-10-19T14:20:49Z</time>
      </trkpt>
      <trkpt lat="38.2741580" lon="-0.6839690">
        <ele>140.8</ele>
        <time>2019-10-19T14:20:50Z</time>
      </trkpt>
      <trkpt lat="38.2741580" lon="-0.6839690">
        <ele>140.6</ele>
        <time>2019-10-19T14:20:51Z</time>
      </trkpt>
      <trkpt lat="38.2741580" lon="-0.6839690">
        <ele>140.6</ele>
        <time>2019-10-19T14:20:52Z</time>
      </trkpt>
      <trkpt lat="38.2741580" lon="-0.6839690">
        <ele>140.6</ele>
        <time>2019-10-19T14:20:53Z</time>
      </trkpt>
      <trkpt lat="38.2741580" lon="-0.6839690">
        <ele>140.6</ele>
        <time>2019-10-19T14:20:54Z</time>
      </trkpt>
      <trkpt lat="38.2741580" lon="-0.6839690">
        <ele>140.6</ele>
        <time>2019-10-19T14:20:55Z</time>
      </trkpt>
      <trkpt lat="38.2741580" lon="-0.6839690">
        <ele>140.6</ele>
        <time>2019-10-19T14:20:56Z</time>
      </trkpt>
      <trkpt lat="38.2741580" lon="-0.6839690">
        <ele>140.6</ele>
        <time>2019-10-19T14:20:57Z</time>
      </trkpt>
      <trkpt lat="38.2741580" lon="-0.6839690">
        <ele>140.6</ele>
        <time>2019-10-19T14:20:58Z</time>
      </trkpt>
      <trkpt lat="38.2741580" lon="-0.6839690">
        <ele>140.4</ele>
        <time>2019-10-19T14:20:59Z</time>
      </trkpt>
      <trkpt lat="38.2741580" lon="-0.6839690">
        <ele>140.4</ele>
        <time>2019-10-19T14:21:00Z</time>
      </trkpt>
      <trkpt lat="38.2741580" lon="-0.6839690">
        <ele>140.4</ele>
        <time>2019-10-19T14:21:01Z</time>
      </trkpt>
      <trkpt lat="38.2741580" lon="-0.6839690">
        <ele>140.4</ele>
        <time>2019-10-19T14:21:02Z</time>
      </trkpt>
      <trkpt lat="38.2741580" lon="-0.6839690">
        <ele>140.4</ele>
        <time>2019-10-19T14:21:03Z</time>
      </trkpt>
      <trkpt lat="38.2741580" lon="-0.6839690">
        <ele>140.4</ele>
        <time>2019-10-19T14:21:04Z</time>
      </trkpt>
      <trkpt lat="38.2741580" lon="-0.6839690">
        <ele>140.2</ele>
        <time>2019-10-19T14:21:05Z</time>
      </trkpt>
      <trkpt lat="38.2741580" lon="-0.6839690">
        <ele>140.2</ele>
        <time>2019-10-19T14:21:06Z</time>
      </trkpt>
      <trkpt lat="38.2741580" lon="-0.6839690">
        <ele>140.0</ele>
        <time>2019-10-19T14:21:07Z</time>
      </trkpt>
      <trkpt lat="38.2741580" lon="-0.6839690">
        <ele>140.0</ele>
        <time>2019-10-19T14:21:08Z</time>
      </trkpt>
      <trkpt lat="38.2741580" lon="-0.6839690">
        <ele>140.0</ele>
        <time>2019-10-19T14:21:09Z</time>
      </trkpt>
      <trkpt lat="38.2741580" lon="-0.6839690">
        <ele>140.0</ele>
        <time>2019-10-19T14:21:10Z</time>
      </trkpt>
      <trkpt lat="38.2741580" lon="-0.6839690">
        <ele>140.0</ele>
        <time>2019-10-19T14:21:11Z</time>
      </trkpt>
      <trkpt lat="38.2741580" lon="-0.6839690">
        <ele>139.6</ele>
        <time>2019-10-19T14:21:12Z</time>
      </trkpt>
      <trkpt lat="38.2741580" lon="-0.6839690">
        <ele>139.6</ele>
        <time>2019-10-19T14:21:13Z</time>
      </trkpt>
      <trkpt lat="38.2741580" lon="-0.6839690">
        <ele>139.6</ele>
        <time>2019-10-19T14:21:14Z</time>
      </trkpt>
      <trkpt lat="38.2741580" lon="-0.6839690">
        <ele>139.6</ele>
        <time>2019-10-19T14:21:15Z</time>
      </trkpt>
      <trkpt lat="38.2741580" lon="-0.6839690">
        <ele>139.6</ele>
        <time>2019-10-19T14:21:16Z</time>
      </trkpt>
      <trkpt lat="38.2741580" lon="-0.6839690">
        <ele>139.6</ele>
        <time>2019-10-19T14:21:17Z</time>
      </trkpt>
      <trkpt lat="38.2741600" lon="-0.6840100">
        <ele>139.8</ele>
        <time>2019-10-19T14:21:18Z</time>
      </trkpt>
      <trkpt lat="38.2739410" lon="-0.6852130">
        <ele>139.8</ele>
        <time>2019-10-19T14:21:19Z</time>
      </trkpt>
      <trkpt lat="38.2737210" lon="-0.6864160">
        <ele>139.8</ele>
        <time>2019-10-19T14:21:20Z</time>
      </trkpt>
      <trkpt lat="38.2737120" lon="-0.6864860">
        <ele>139.8</ele>
        <time>2019-10-19T14:21:21Z</time>
      </trkpt>
      <trkpt lat="38.2736990" lon="-0.6865630">
        <ele>139.6</ele>
        <time>2019-10-19T14:21:22Z</time>
      </trkpt>
      <trkpt lat="38.2736850" lon="-0.6866420">
        <ele>139.6</ele>
        <time>2019-10-19T14:21:23Z</time>
      </trkpt>
      <trkpt lat="38.2736720" lon="-0.6867150">
        <ele>139.6</ele>
        <time>2019-10-19T14:21:24Z</time>
      </trkpt>
      <trkpt lat="38.2736610" lon="-0.6867860">
        <ele>139.6</ele>
        <time>2019-10-19T14:21:25Z</time>
      </trkpt>
      <trkpt lat="38.2736500" lon="-0.6868570">
        <ele>139.4</ele>
        <time>2019-10-19T14:21:26Z</time>
      </trkpt>
      <trkpt lat="38.2736370" lon="-0.6869250">
        <ele>139.6</ele>
        <time>2019-10-19T14:21:27Z</time>
      </trkpt>
      <trkpt lat="38.2736230" lon="-0.6870030">
        <ele>139.6</ele>
        <time>2019-10-19T14:21:28Z</time>
      </trkpt>
      <trkpt lat="38.2736070" lon="-0.6870830">
        <ele>139.4</ele>
        <time>2019-10-19T14:21:29Z</time>
      </trkpt>
      <trkpt lat="38.2735950" lon="-0.6871590">
        <ele>139.4</ele>
        <time>2019-10-19T14:21:30Z</time>
      </trkpt>
      <trkpt lat="38.2735820" lon="-0.6872350">
        <ele>139.4</ele>
        <time>2019-10-19T14:21:31Z</time>
      </trkpt>
      <trkpt lat="38.2735680" lon="-0.6873140">
        <ele>139.6</ele>
        <time>2019-10-19T14:21:32Z</time>
      </trkpt>
      <trkpt lat="38.2735590" lon="-0.6873850">
        <ele>139.6</ele>
        <time>2019-10-19T14:21:33Z</time>
      </trkpt>
      <trkpt lat="38.2735480" lon="-0.6874530">
        <ele>139.6</ele>
        <time>2019-10-19T14:21:34Z</time>
      </trkpt>
      <trkpt lat="38.2735350" lon="-0.6875310">
        <ele>139.8</ele>
        <time>2019-10-19T14:21:35Z</time>
      </trkpt>
      <trkpt lat="38.2735220" lon="-0.6876000">
        <ele>139.8</ele>
        <time>2019-10-19T14:21:36Z</time>
      </trkpt>
      <trkpt lat="38.2735110" lon="-0.6876640">
        <ele>140.0</ele>
        <time>2019-10-19T14:21:37Z</time>
      </trkpt>
      <trkpt lat="38.2735020" lon="-0.6877210">
        <ele>140.0</ele>
        <time>2019-10-19T14:21:38Z</time>
      </trkpt>
      <trkpt lat="38.2734900" lon="-0.6877840">
        <ele>140.0</ele>
        <time>2019-10-19T14:21:39Z</time>
      </trkpt>
      <trkpt lat="38.2734820" lon="-0.6878460">
        <ele>140.2</ele>
        <time>2019-10-19T14:21:40Z</time>
      </trkpt>
      <trkpt lat="38.2734720" lon="-0.6879130">
        <ele>140.2</ele>
        <time>2019-10-19T14:21:41Z</time>
      </trkpt>
      <trkpt lat="38.2734610" lon="-0.6879810">
        <ele>140.2</ele>
        <time>2019-10-19T14:21:42Z</time>
      </trkpt>
      <trkpt lat="38.2734500" lon="-0.6880520">
        <ele>140.2</ele>
        <time>2019-10-19T14:21:43Z</time>
      </trkpt>
      <trkpt lat="38.2734400" lon="-0.6881250">
        <ele>140.0</ele>
        <time>2019-10-19T14:21:44Z</time>
      </trkpt>
      <trkpt lat="38.2734260" lon="-0.6881940">
        <ele>140.4</ele>
        <time>2019-10-19T14:21:45Z</time>
      </trkpt>
      <trkpt lat="38.2734120" lon="-0.6882620">
        <ele>140.0</ele>
        <time>2019-10-19T14:21:46Z</time>
      </trkpt>
      <trkpt lat="38.2733980" lon="-0.6883330">
        <ele>140.2</ele>
        <time>2019-10-19T14:21:47Z</time>
      </trkpt>
      <trkpt lat="38.2733860" lon="-0.6884040">
        <ele>140.0</ele>
        <time>2019-10-19T14:21:48Z</time>
      </trkpt>
      <trkpt lat="38.2733790" lon="-0.6884780">
        <ele>140.4</ele>
        <time>2019-10-19T14:21:49Z</time>
      </trkpt>
      <trkpt lat="38.2733710" lon="-0.6885570">
        <ele>140.4</ele>
        <time>2019-10-19T14:21:50Z</time>
      </trkpt>
      <trkpt lat="38.2733650" lon="-0.6886340">
        <ele>140.2</ele>
        <time>2019-10-19T14:21:51Z</time>
      </trkpt>
      <trkpt lat="38.2733580" lon="-0.6887110">
        <ele>140.2</ele>
        <time>2019-10-19T14:21:52Z</time>
      </trkpt>
      <trkpt lat="38.2733490" lon="-0.6887890">
        <ele>140.0</ele>
        <time>2019-10-19T14:21:53Z</time>
      </trkpt>
      <trkpt lat="38.2733410" lon="-0.6888670">
        <ele>140.2</ele>
        <time>2019-10-19T14:21:54Z</time>
      </trkpt>
      <trkpt lat="38.2733320" lon="-0.6889420">
        <ele>140.4</ele>
        <time>2019-10-19T14:21:55Z</time>
      </trkpt>
      <trkpt lat="38.2733230" lon="-0.6890160">
        <ele>140.6</ele>
        <time>2019-10-19T14:21:56Z</time>
      </trkpt>
      <trkpt lat="38.2733140" lon="-0.6890930">
        <ele>140.6</ele>
        <time>2019-10-19T14:21:57Z</time>
      </trkpt>
      <trkpt lat="38.2733050" lon="-0.6891700">
        <ele>140.8</ele>
        <time>2019-10-19T14:21:58Z</time>
      </trkpt>
      <trkpt lat="38.2732960" lon="-0.6892420">
        <ele>141.0</ele>
        <time>2019-10-19T14:21:59Z</time>
      </trkpt>
      <trkpt lat="38.2732870" lon="-0.6893180">
        <ele>140.8</ele>
        <time>2019-10-19T14:22:00Z</time>
      </trkpt>
      <trkpt lat="38.2732770" lon="-0.6893880">
        <ele>141.0</ele>
        <time>2019-10-19T14:22:01Z</time>
      </trkpt>
      <trkpt lat="38.2732680" lon="-0.6894600">
        <ele>141.2</ele>
        <time>2019-10-19T14:22:02Z</time>
      </trkpt>
      <trkpt lat="38.2732570" lon="-0.6895330">
        <ele>141.0</ele>
        <time>2019-10-19T14:22:03Z</time>
      </trkpt>
      <trkpt lat="38.2732480" lon="-0.6896080">
        <ele>141.2</ele>
        <time>2019-10-19T14:22:04Z</time>
      </trkpt>
      <trkpt lat="38.2732380" lon="-0.6896810">
        <ele>141.2</ele>
        <time>2019-10-19T14:22:05Z</time>
      </trkpt>
      <trkpt lat="38.2732290" lon="-0.6897560">
        <ele>141.2</ele>
        <time>2019-10-19T14:22:06Z</time>
      </trkpt>
      <trkpt lat="38.2732210" lon="-0.6898300">
        <ele>141.2</ele>
        <time>2019-10-19T14:22:07Z</time>
      </trkpt>
      <trkpt lat="38.2732130" lon="-0.6899040">
        <ele>141.2</ele>
        <time>2019-10-19T14:22:08Z</time>
      </trkpt>
      <trkpt lat="38.2732010" lon="-0.6899810">
        <ele>141.4</ele>
        <time>2019-10-19T14:22:09Z</time>
      </trkpt>
      <trkpt lat="38.2732000" lon="-0.6900570">
        <ele>141.6</ele>
        <time>2019-10-19T14:22:10Z</time>
      </trkpt>
      <trkpt lat="38.2732080" lon="-0.6901290">
        <ele>141.8</ele>
        <time>2019-10-19T14:22:11Z</time>
      </trkpt>
      <trkpt lat="38.2732190" lon="-0.6902010">
        <ele>142.0</ele>
        <time>2019-10-19T14:22:12Z</time>
      </trkpt>
      <trkpt lat="38.2732280" lon="-0.6902700">
        <ele>141.8</ele>
        <time>2019-10-19T14:22:13Z</time>
      </trkpt>
      <trkpt lat="38.2732290" lon="-0.6903430">
        <ele>142.0</ele>
        <time>2019-10-19T14:22:14Z</time>
      </trkpt>
      <trkpt lat="38.2732170" lon="-0.6904150">
        <ele>142.0</ele>
        <time>2019-10-19T14:22:15Z</time>
      </trkpt>
      <trkpt lat="38.2731920" lon="-0.6904800">
        <ele>142.0</ele>
        <time>2019-10-19T14:22:16Z</time>
      </trkpt>
      <trkpt lat="38.2731580" lon="-0.6905420">
        <ele>141.8</ele>
        <time>2019-10-19T14:22:17Z</time>
      </trkpt>
      <trkpt lat="38.2731220" lon="-0.6906020">
        <ele>142.0</ele>
        <time>2019-10-19T14:22:18Z</time>
      </trkpt>
      <trkpt lat="38.2730900" lon="-0.6906660">
        <ele>141.6</ele>
        <time>2019-10-19T14:22:19Z</time>
      </trkpt>
      <trkpt lat="38.2730670" lon="-0.6907370">
        <ele>141.6</ele>
        <time>2019-10-19T14:22:20Z</time>
      </trkpt>
      <trkpt lat="38.2730500" lon="-0.6908100">
        <ele>141.6</ele>
        <time>2019-10-19T14:22:21Z</time>
      </trkpt>
      <trkpt lat="38.2730350" lon="-0.6908850">
        <ele>141.6</ele>
        <time>2019-10-19T14:22:22Z</time>
      </trkpt>
      <trkpt lat="38.2730250" lon="-0.6909550">
        <ele>141.8</ele>
        <time>2019-10-19T14:22:23Z</time>
      </trkpt>
      <trkpt lat="38.2730080" lon="-0.6910300">
        <ele>141.6</ele>
        <time>2019-10-19T14:22:24Z</time>
      </trkpt>
      <trkpt lat="38.2729920" lon="-0.6911050">
        <ele>141.8</ele>
        <time>2019-10-19T14:22:25Z</time>
      </trkpt>
      <trkpt lat="38.2729780" lon="-0.6911800">
        <ele>141.8</ele>
        <time>2019-10-19T14:22:26Z</time>
      </trkpt>
      <trkpt lat="38.2729670" lon="-0.6912560">
        <ele>142.0</ele>
        <time>2019-10-19T14:22:27Z</time>
      </trkpt>
      <trkpt lat="38.2729590" lon="-0.6913310">
        <ele>142.0</ele>
        <time>2019-10-19T14:22:28Z</time>
      </trkpt>
      <trkpt lat="38.2729480" lon="-0.6914090">
        <ele>142.0</ele>
        <time>2019-10-19T14:22:29Z</time>
      </trkpt>
      <trkpt lat="38.2729360" lon="-0.6914850">
        <ele>142.0</ele>
        <time>2019-10-19T14:22:30Z</time>
      </trkpt>
      <trkpt lat="38.2729260" lon="-0.6915630">
        <ele>142.2</ele>
        <time>2019-10-19T14:22:31Z</time>
      </trkpt>
      <trkpt lat="38.2729160" lon="-0.6916400">
        <ele>141.8</ele>
        <time>2019-10-19T14:22:32Z</time>
      </trkpt>
      <trkpt lat="38.2729010" lon="-0.6917200">
        <ele>142.0</ele>
        <time>2019-10-19T14:22:33Z</time>
      </trkpt>
      <trkpt lat="38.2728890" lon="-0.6917990">
        <ele>142.0</ele>
        <time>2019-10-19T14:22:34Z</time>
      </trkpt>
      <trkpt lat="38.2728770" lon="-0.6918760">
        <ele>142.0</ele>
        <time>2019-10-19T14:22:35Z</time>
      </trkpt>
      <trkpt lat="38.2728670" lon="-0.6919550">
        <ele>141.8</ele>
        <time>2019-10-19T14:22:36Z</time>
      </trkpt>
      <trkpt lat="38.2728600" lon="-0.6920330">
        <ele>141.8</ele>
        <time>2019-10-19T14:22:37Z</time>
      </trkpt>
      <trkpt lat="38.2728500" lon="-0.6921140">
        <ele>142.0</ele>
        <time>2019-10-19T14:22:38Z</time>
      </trkpt>
      <trkpt lat="38.2728370" lon="-0.6921940">
        <ele>142.0</ele>
        <time>2019-10-19T14:22:39Z</time>
      </trkpt>
      <trkpt lat="38.2728250" lon="-0.6922740">
        <ele>141.8</ele>
        <time>2019-10-19T14:22:40Z</time>
      </trkpt>
      <trkpt lat="38.2728100" lon="-0.6923550">
        <ele>141.8</ele>
        <time>2019-10-19T14:22:41Z</time>
      </trkpt>
      <trkpt lat="38.2727950" lon="-0.6924330">
        <ele>141.8</ele>
        <time>2019-10-19T14:22:42Z</time>
      </trkpt>
      <trkpt lat="38.2727820" lon="-0.6925130">
        <ele>141.8</ele>
        <time>2019-10-19T14:22:43Z</time>
      </trkpt>
      <trkpt lat="38.2727700" lon="-0.6925940">
        <ele>141.6</ele>
        <time>2019-10-19T14:22:44Z</time>
      </trkpt>
      <trkpt lat="38.2727590" lon="-0.6926730">
        <ele>141.6</ele>
        <time>2019-10-19T14:22:45Z</time>
      </trkpt>
      <trkpt lat="38.2727440" lon="-0.6927540">
        <ele>142.0</ele>
        <time>2019-10-19T14:22:46Z</time>
      </trkpt>
      <trkpt lat="38.2727290" lon="-0.6928350">
        <ele>141.8</ele>
        <time>2019-10-19T14:22:47Z</time>
      </trkpt>
      <trkpt lat="38.2727150" lon="-0.6929130">
        <ele>141.8</ele>
        <time>2019-10-19T14:22:48Z</time>
      </trkpt>
      <trkpt lat="38.2727000" lon="-0.6929950">
        <ele>141.8</ele>
        <time>2019-10-19T14:22:49Z</time>
      </trkpt>
      <trkpt lat="38.2726840" lon="-0.6930790">
        <ele>142.0</ele>
        <time>2019-10-19T14:22:50Z</time>
      </trkpt>
      <trkpt lat="38.2726700" lon="-0.6931590">
        <ele>142.2</ele>
        <time>2019-10-19T14:22:51Z</time>
      </trkpt>
      <trkpt lat="38.2726560" lon="-0.6932390">
        <ele>142.0</ele>
        <time>2019-10-19T14:22:52Z</time>
      </trkpt>
      <trkpt lat="38.2726420" lon="-0.6933200">
        <ele>142.0</ele>
        <time>2019-10-19T14:22:53Z</time>
      </trkpt>
      <trkpt lat="38.2726260" lon="-0.6934030">
        <ele>142.0</ele>
        <time>2019-10-19T14:22:54Z</time>
      </trkpt>
      <trkpt lat="38.2726140" lon="-0.6934820">
        <ele>142.0</ele>
        <time>2019-10-19T14:22:55Z</time>
      </trkpt>
      <trkpt lat="38.2726000" lon="-0.6935620">
        <ele>142.0</ele>
        <time>2019-10-19T14:22:56Z</time>
      </trkpt>
      <trkpt lat="38.2725860" lon="-0.6936440">
        <ele>142.0</ele>
        <time>2019-10-19T14:22:57Z</time>
      </trkpt>
      <trkpt lat="38.2725710" lon="-0.6937250">
        <ele>141.8</ele>
        <time>2019-10-19T14:22:58Z</time>
      </trkpt>
      <trkpt lat="38.2725570" lon="-0.6938040">
        <ele>142.0</ele>
        <time>2019-10-19T14:22:59Z</time>
      </trkpt>
      <trkpt lat="38.2725410" lon="-0.6938830">
        <ele>142.2</ele>
        <time>2019-10-19T14:23:00Z</time>
      </trkpt>
      <trkpt lat="38.2725270" lon="-0.6939610">
        <ele>142.2</ele>
        <time>2019-10-19T14:23:01Z</time>
      </trkpt>
      <trkpt lat="38.2725140" lon="-0.6940400">
        <ele>142.4</ele>
        <time>2019-10-19T14:23:02Z</time>
      </trkpt>
      <trkpt lat="38.2725050" lon="-0.6941180">
        <ele>142.4</ele>
        <time>2019-10-19T14:23:03Z</time>
      </trkpt>
      <trkpt lat="38.2725040" lon="-0.6941970">
        <ele>142.4</ele>
        <time>2019-10-19T14:23:04Z</time>
      </trkpt>
      <trkpt lat="38.2725180" lon="-0.6942690">
        <ele>142.4</ele>
        <time>2019-10-19T14:23:05Z</time>
      </trkpt>
      <trkpt lat="38.2725380" lon="-0.6943390">
        <ele>142.6</ele>
        <time>2019-10-19T14:23:06Z</time>
      </trkpt>
      <trkpt lat="38.2725570" lon="-0.6944100">
        <ele>142.8</ele>
        <time>2019-10-19T14:23:07Z</time>
      </trkpt>
      <trkpt lat="38.2725800" lon="-0.6944810">
        <ele>142.8</ele>
        <time>2019-10-19T14:23:08Z</time>
      </trkpt>
      <trkpt lat="38.2726160" lon="-0.6945420">
        <ele>142.8</ele>
        <time>2019-10-19T14:23:09Z</time>
      </trkpt>
      <trkpt lat="38.2726630" lon="-0.6945860">
        <ele>143.0</ele>
        <time>2019-10-19T14:23:10Z</time>
      </trkpt>
      <trkpt lat="38.2727180" lon="-0.6946090">
        <ele>143.2</ele>
        <time>2019-10-19T14:23:11Z</time>
      </trkpt>
      <trkpt lat="38.2727770" lon="-0.6946250">
        <ele>143.2</ele>
        <time>2019-10-19T14:23:12Z</time>
      </trkpt>
      <trkpt lat="38.2728360" lon="-0.6946440">
        <ele>143.2</ele>
        <time>2019-10-19T14:23:13Z</time>
      </trkpt>
      <trkpt lat="38.2728930" lon="-0.6946570">
        <ele>143.2</ele>
        <time>2019-10-19T14:23:14Z</time>
      </trkpt>
      <trkpt lat="38.2729520" lon="-0.6946720">
        <ele>143.4</ele>
        <time>2019-10-19T14:23:15Z</time>
      </trkpt>
      <trkpt lat="38.2730120" lon="-0.6946840">
        <ele>143.4</ele>
        <time>2019-10-19T14:23:16Z</time>
      </trkpt>
      <trkpt lat="38.2730710" lon="-0.6946990">
        <ele>143.4</ele>
        <time>2019-10-19T14:23:17Z</time>
      </trkpt>
      <trkpt lat="38.2731300" lon="-0.6947160">
        <ele>143.4</ele>
        <time>2019-10-19T14:23:18Z</time>
      </trkpt>
      <trkpt lat="38.2731880" lon="-0.6947350">
        <ele>143.6</ele>
        <time>2019-10-19T14:23:19Z</time>
      </trkpt>
      <trkpt lat="38.2732490" lon="-0.6947470">
        <ele>143.8</ele>
        <time>2019-10-19T14:23:20Z</time>
      </trkpt>
      <trkpt lat="38.2733090" lon="-0.6947640">
        <ele>143.8</ele>
        <time>2019-10-19T14:23:21Z</time>
      </trkpt>
      <trkpt lat="38.2733710" lon="-0.6947830">
        <ele>144.0</ele>
        <time>2019-10-19T14:23:22Z</time>
      </trkpt>
      <trkpt lat="38.2734330" lon="-0.6948020">
        <ele>143.8</ele>
        <time>2019-10-19T14:23:23Z</time>
      </trkpt>
      <trkpt lat="38.2734950" lon="-0.6948210">
        <ele>143.8</ele>
        <time>2019-10-19T14:23:24Z</time>
      </trkpt>
      <trkpt lat="38.2735560" lon="-0.6948340">
        <ele>143.8</ele>
        <time>2019-10-19T14:23:25Z</time>
      </trkpt>
      <trkpt lat="38.2736180" lon="-0.6948520">
        <ele>143.8</ele>
        <time>2019-10-19T14:23:26Z</time>
      </trkpt>
      <trkpt lat="38.2736800" lon="-0.6948740">
        <ele>143.8</ele>
        <time>2019-10-19T14:23:27Z</time>
      </trkpt>
      <trkpt lat="38.2737420" lon="-0.6948950">
        <ele>143.8</ele>
        <time>2019-10-19T14:23:28Z</time>
      </trkpt>
      <trkpt lat="38.2738060" lon="-0.6949120">
        <ele>143.8</ele>
        <time>2019-10-19T14:23:29Z</time>
      </trkpt>
      <trkpt lat="38.2738680" lon="-0.6949190">
        <ele>143.8</ele>
        <time>2019-10-19T14:23:30Z</time>
      </trkpt>
      <trkpt lat="38.2739310" lon="-0.6949260">
        <ele>143.8</ele>
        <time>2019-10-19T14:23:31Z</time>
      </trkpt>
      <trkpt lat="38.2739950" lon="-0.6949310">
        <ele>143.8</ele>
        <time>2019-10-19T14:23:32Z</time>
      </trkpt>
      <trkpt lat="38.2740590" lon="-0.6949310">
        <ele>143.8</ele>
        <time>2019-10-19T14:23:33Z</time>
      </trkpt>
      <trkpt lat="38.2741190" lon="-0.6949370">
        <ele>144.0</ele>
        <time>2019-10-19T14:23:34Z</time>
      </trkpt>
      <trkpt lat="38.2741810" lon="-0.6949450">
        <ele>144.2</ele>
        <time>2019-10-19T14:23:35Z</time>
      </trkpt>
      <trkpt lat="38.2742440" lon="-0.6949650">
        <ele>144.4</ele>
        <time>2019-10-19T14:23:36Z</time>
      </trkpt>
      <trkpt lat="38.2743020" lon="-0.6949960">
        <ele>144.6</ele>
        <time>2019-10-19T14:23:37Z</time>
      </trkpt>
      <trkpt lat="38.2743590" lon="-0.6950330">
        <ele>144.6</ele>
        <time>2019-10-19T14:23:38Z</time>
      </trkpt>
      <trkpt lat="38.2744140" lon="-0.6950750">
        <ele>144.4</ele>
        <time>2019-10-19T14:23:39Z</time>
      </trkpt>
      <trkpt lat="38.2744690" lon="-0.6951180">
        <ele>144.4</ele>
        <time>2019-10-19T14:23:40Z</time>
      </trkpt>
      <trkpt lat="38.2745200" lon="-0.6951550">
        <ele>144.6</ele>
        <time>2019-10-19T14:23:41Z</time>
      </trkpt>
      <trkpt lat="38.2745730" lon="-0.6952030">
        <ele>143.8</ele>
        <time>2019-10-19T14:23:42Z</time>
      </trkpt>
      <trkpt lat="38.2746260" lon="-0.6952460">
        <ele>144.8</ele>
        <time>2019-10-19T14:23:43Z</time>
      </trkpt>
      <trkpt lat="38.2746800" lon="-0.6952910">
        <ele>143.2</ele>
        <time>2019-10-19T14:23:44Z</time>
      </trkpt>
      <trkpt lat="38.2747320" lon="-0.6953370">
        <ele>145.4</ele>
        <time>2019-10-19T14:23:45Z</time>
      </trkpt>
      <trkpt lat="38.2747840" lon="-0.6953830">
        <ele>145.2</ele>
        <time>2019-10-19T14:23:46Z</time>
      </trkpt>
      <trkpt lat="38.2748360" lon="-0.6954260">
        <ele>145.2</ele>
        <time>2019-10-19T14:23:47Z</time>
      </trkpt>
      <trkpt lat="38.2748890" lon="-0.6954660">
        <ele>145.4</ele>
        <time>2019-10-19T14:23:48Z</time>
      </trkpt>
      <trkpt lat="38.2749400" lon="-0.6955070">
        <ele>145.4</ele>
        <time>2019-10-19T14:23:49Z</time>
      </trkpt>
      <trkpt lat="38.2749930" lon="-0.6955520">
        <ele>145.4</ele>
        <time>2019-10-19T14:23:50Z</time>
      </trkpt>
      <trkpt lat="38.2750470" lon="-0.6955880">
        <ele>145.4</ele>
        <time>2019-10-19T14:23:51Z</time>
      </trkpt>
      <trkpt lat="38.2751010" lon="-0.6956240">
        <ele>145.4</ele>
        <time>2019-10-19T14:23:52Z</time>
      </trkpt>
      <trkpt lat="38.2751550" lon="-0.6956650">
        <ele>145.4</ele>
        <time>2019-10-19T14:23:53Z</time>
      </trkpt>
      <trkpt lat="38.2752080" lon="-0.6957020">
        <ele>145.6</ele>
        <time>2019-10-19T14:23:54Z</time>
      </trkpt>
      <trkpt lat="38.2752600" lon="-0.6957490">
        <ele>145.6</ele>
        <time>2019-10-19T14:23:55Z</time>
      </trkpt>
      <trkpt lat="38.2753110" lon="-0.6957940">
        <ele>145.6</ele>
        <time>2019-10-19T14:23:56Z</time>
      </trkpt>
      <trkpt lat="38.2753640" lon="-0.6958390">
        <ele>145.8</ele>
        <time>2019-10-19T14:23:57Z</time>
      </trkpt>
      <trkpt lat="38.2754160" lon="-0.6958770">
        <ele>145.6</ele>
        <time>2019-10-19T14:23:58Z</time>
      </trkpt>
      <trkpt lat="38.2754690" lon="-0.6959180">
        <ele>145.8</ele>
        <time>2019-10-19T14:23:59Z</time>
      </trkpt>
      <trkpt lat="38.2755220" lon="-0.6959590">
        <ele>146.0</ele>
        <time>2019-10-19T14:24:00Z</time>
      </trkpt>
      <trkpt lat="38.2755740" lon="-0.6960020">
        <ele>146.0</ele>
        <time>2019-10-19T14:24:01Z</time>
      </trkpt>
      <trkpt lat="38.2756270" lon="-0.6960410">
        <ele>146.2</ele>
        <time>2019-10-19T14:24:02Z</time>
      </trkpt>
      <trkpt lat="38.2756810" lon="-0.6960760">
        <ele>146.2</ele>
        <time>2019-10-19T14:24:03Z</time>
      </trkpt>
      <trkpt lat="38.2757380" lon="-0.6961060">
        <ele>146.4</ele>
        <time>2019-10-19T14:24:04Z</time>
      </trkpt>
      <trkpt lat="38.2757960" lon="-0.6961320">
        <ele>146.4</ele>
        <time>2019-10-19T14:24:05Z</time>
      </trkpt>
      <trkpt lat="38.2758550" lon="-0.6961500">
        <ele>146.4</ele>
        <time>2019-10-19T14:24:06Z</time>
      </trkpt>
      <trkpt lat="38.2759160" lon="-0.6961620">
        <ele>146.4</ele>
        <time>2019-10-19T14:24:07Z</time>
      </trkpt>
      <trkpt lat="38.2759770" lon="-0.6961680">
        <ele>146.4</ele>
        <time>2019-10-19T14:24:08Z</time>
      </trkpt>
      <trkpt lat="38.2760390" lon="-0.6961690">
        <ele>146.4</ele>
        <time>2019-10-19T14:24:09Z</time>
      </trkpt>
      <trkpt lat="38.2761000" lon="-0.6961640">
        <ele>146.4</ele>
        <time>2019-10-19T14:24:10Z</time>
      </trkpt>
      <trkpt lat="38.2761610" lon="-0.6961570">
        <ele>146.4</ele>
        <time>2019-10-19T14:24:11Z</time>
      </trkpt>
      <trkpt lat="38.2762230" lon="-0.6961470">
        <ele>146.4</ele>
        <time>2019-10-19T14:24:12Z</time>
      </trkpt>
      <trkpt lat="38.2762830" lon="-0.6961340">
        <ele>146.4</ele>
        <time>2019-10-19T14:24:13Z</time>
      </trkpt>
      <trkpt lat="38.2763420" lon="-0.6961180">
        <ele>146.6</ele>
        <time>2019-10-19T14:24:14Z</time>
      </trkpt>
      <trkpt lat="38.2764010" lon="-0.6961020">
        <ele>146.6</ele>
        <time>2019-10-19T14:24:15Z</time>
      </trkpt>
      <trkpt lat="38.2764580" lon="-0.6960820">
        <ele>146.8</ele>
        <time>2019-10-19T14:24:16Z</time>
      </trkpt>
      <trkpt lat="38.2765170" lon="-0.6960640">
        <ele>146.8</ele>
        <time>2019-10-19T14:24:17Z</time>
      </trkpt>
      <trkpt lat="38.2765760" lon="-0.6960450">
        <ele>146.6</ele>
        <time>2019-10-19T14:24:18Z</time>
      </trkpt>
      <trkpt lat="38.2766360" lon="-0.6960280">
        <ele>146.6</ele>
        <time>2019-10-19T14:24:19Z</time>
      </trkpt>
      <trkpt lat="38.2766950" lon="-0.6960110">
        <ele>146.8</ele>
        <time>2019-10-19T14:24:20Z</time>
      </trkpt>
      <trkpt lat="38.2767520" lon="-0.6959960">
        <ele>146.8</ele>
        <time>2019-10-19T14:24:21Z</time>
      </trkpt>
      <trkpt lat="38.2768100" lon="-0.6959840">
        <ele>147.0</ele>
        <time>2019-10-19T14:24:22Z</time>
      </trkpt>
      <trkpt lat="38.2768690" lon="-0.6959730">
        <ele>147.0</ele>
        <time>2019-10-19T14:24:23Z</time>
      </trkpt>
      <trkpt lat="38.2769280" lon="-0.6959650">
        <ele>147.0</ele>
        <time>2019-10-19T14:24:24Z</time>
      </trkpt>
      <trkpt lat="38.2769890" lon="-0.6959600">
        <ele>147.0</ele>
        <time>2019-10-19T14:24:25Z</time>
      </trkpt>
      <trkpt lat="38.2770500" lon="-0.6959550">
        <ele>147.0</ele>
        <time>2019-10-19T14:24:26Z</time>
      </trkpt>
      <trkpt lat="38.2771130" lon="-0.6959560">
        <ele>147.0</ele>
        <time>2019-10-19T14:24:27Z</time>
      </trkpt>
      <trkpt lat="38.2771760" lon="-0.6959610">
        <ele>147.0</ele>
        <time>2019-10-19T14:24:28Z</time>
      </trkpt>
      <trkpt lat="38.2772380" lon="-0.6959650">
        <ele>147.2</ele>
        <time>2019-10-19T14:24:29Z</time>
      </trkpt>
      <trkpt lat="38.2772980" lon="-0.6959630">
        <ele>147.4</ele>
        <time>2019-10-19T14:24:30Z</time>
      </trkpt>
      <trkpt lat="38.2773590" lon="-0.6959640">
        <ele>147.2</ele>
        <time>2019-10-19T14:24:31Z</time>
      </trkpt>
      <trkpt lat="38.2774200" lon="-0.6959650">
        <ele>147.2</ele>
        <time>2019-10-19T14:24:32Z</time>
      </trkpt>
      <trkpt lat="38.2774820" lon="-0.6959690">
        <ele>147.4</ele>
        <time>2019-10-19T14:24:33Z</time>
      </trkpt>
      <trkpt lat="38.2775420" lon="-0.6959730">
        <ele>147.6</ele>
        <time>2019-10-19T14:24:34Z</time>
      </trkpt>
      <trkpt lat="38.2776010" lon="-0.6959890">
        <ele>147.6</ele>
        <time>2019-10-19T14:24:35Z</time>
      </trkpt>
      <trkpt lat="38.2776600" lon="-0.6960050">
        <ele>148.0</ele>
        <time>2019-10-19T14:24:36Z</time>
      </trkpt>
      <trkpt lat="38.2777190" lon="-0.6960260">
        <ele>148.0</ele>
        <time>2019-10-19T14:24:37Z</time>
      </trkpt>
      <trkpt lat="38.2777760" lon="-0.6960490">
        <ele>148.4</ele>
        <time>2019-10-19T14:24:38Z</time>
      </trkpt>
      <trkpt lat="38.2778330" lon="-0.6960750">
        <ele>148.4</ele>
        <time>2019-10-19T14:24:39Z</time>
      </trkpt>
      <trkpt lat="38.2778900" lon="-0.6961010">
        <ele>148.6</ele>
        <time>2019-10-19T14:24:40Z</time>
      </trkpt>
      <trkpt lat="38.2779470" lon="-0.6961320">
        <ele>148.6</ele>
        <time>2019-10-19T14:24:41Z</time>
      </trkpt>
      <trkpt lat="38.2780040" lon="-0.6961600">
        <ele>148.8</ele>
        <time>2019-10-19T14:24:42Z</time>
      </trkpt>
      <trkpt lat="38.2780620" lon="-0.6961900">
        <ele>148.8</ele>
        <time>2019-10-19T14:24:43Z</time>
      </trkpt>
      <trkpt lat="38.2781150" lon="-0.6962260">
        <ele>149.0</ele>
        <time>2019-10-19T14:24:44Z</time>
      </trkpt>
      <trkpt lat="38.2781710" lon="-0.6962620">
        <ele>149.2</ele>
        <time>2019-10-19T14:24:45Z</time>
      </trkpt>
      <trkpt lat="38.2782270" lon="-0.6962960">
        <ele>149.2</ele>
        <time>2019-10-19T14:24:46Z</time>
      </trkpt>
      <trkpt lat="38.2782860" lon="-0.6963280">
        <ele>149.2</ele>
        <time>2019-10-19T14:24:47Z</time>
      </trkpt>
      <trkpt lat="38.2783450" lon="-0.6963620">
        <ele>149.2</ele>
        <time>2019-10-19T14:24:48Z</time>
      </trkpt>
      <trkpt lat="38.2784050" lon="-0.6963900">
        <ele>149.2</ele>
        <time>2019-10-19T14:24:49Z</time>
      </trkpt>
      <trkpt lat="38.2784650" lon="-0.6964130">
        <ele>149.2</ele>
        <time>2019-10-19T14:24:50Z</time>
      </trkpt>
      <trkpt lat="38.2785260" lon="-0.6964360">
        <ele>149.4</ele>
        <time>2019-10-19T14:24:51Z</time>
      </trkpt>
      <trkpt lat="38.2785840" lon="-0.6964580">
        <ele>149.6</ele>
        <time>2019-10-19T14:24:52Z</time>
      </trkpt>
      <trkpt lat="38.2786440" lon="-0.6964850">
        <ele>149.6</ele>
        <time>2019-10-19T14:24:53Z</time>
      </trkpt>
      <trkpt lat="38.2787040" lon="-0.6965070">
        <ele>149.6</ele>
        <time>2019-10-19T14:24:54Z</time>
      </trkpt>
      <trkpt lat="38.2787640" lon="-0.6965300">
        <ele>149.8</ele>
        <time>2019-10-19T14:24:55Z</time>
      </trkpt>
      <trkpt lat="38.2788220" lon="-0.6965520">
        <ele>149.8</ele>
        <time>2019-10-19T14:24:56Z</time>
      </trkpt>
      <trkpt lat="38.2788810" lon="-0.6965720">
        <ele>150.0</ele>
        <time>2019-10-19T14:24:57Z</time>
      </trkpt>
      <trkpt lat="38.2789390" lon="-0.6965900">
        <ele>150.2</ele>
        <time>2019-10-19T14:24:58Z</time>
      </trkpt>
      <trkpt lat="38.2789970" lon="-0.6966080">
        <ele>150.2</ele>
        <time>2019-10-19T14:24:59Z</time>
      </trkpt>
      <trkpt lat="38.2790550" lon="-0.6966260">
        <ele>150.2</ele>
        <time>2019-10-19T14:25:00Z</time>
      </trkpt>
      <trkpt lat="38.2791120" lon="-0.6966400">
        <ele>150.6</ele>
        <time>2019-10-19T14:25:01Z</time>
      </trkpt>
      <trkpt lat="38.2791680" lon="-0.6966510">
        <ele>150.8</ele>
        <time>2019-10-19T14:25:02Z</time>
      </trkpt>
      <trkpt lat="38.2792240" lon="-0.6966570">
        <ele>151.0</ele>
        <time>2019-10-19T14:25:03Z</time>
      </trkpt>
      <trkpt lat="38.2792770" lon="-0.6966450">
        <ele>151.2</ele>
        <time>2019-10-19T14:25:04Z</time>
      </trkpt>
      <trkpt lat="38.2793210" lon="-0.6966140">
        <ele>151.4</ele>
        <time>2019-10-19T14:25:05Z</time>
      </trkpt>
      <trkpt lat="38.2793530" lon="-0.6965750">
        <ele>151.4</ele>
        <time>2019-10-19T14:25:06Z</time>
      </trkpt>
      <trkpt lat="38.2793720" lon="-0.6965340">
        <ele>151.8</ele>
        <time>2019-10-19T14:25:07Z</time>
      </trkpt>
      <trkpt lat="38.2793830" lon="-0.6964950">
        <ele>151.8</ele>
        <time>2019-10-19T14:25:08Z</time>
      </trkpt>
      <trkpt lat="38.2793940" lon="-0.6964520">
        <ele>152.0</ele>
        <time>2019-10-19T14:25:09Z</time>
      </trkpt>
      <trkpt lat="38.2794030" lon="-0.6964040">
        <ele>151.8</ele>
        <time>2019-10-19T14:25:10Z</time>
      </trkpt>
      <trkpt lat="38.2794110" lon="-0.6963520">
        <ele>151.8</ele>
        <time>2019-10-19T14:25:11Z</time>
      </trkpt>
      <trkpt lat="38.2794240" lon="-0.6962930">
        <ele>151.8</ele>
        <time>2019-10-19T14:25:12Z</time>
      </trkpt>
      <trkpt lat="38.2794460" lon="-0.6962350">
        <ele>151.8</ele>
        <time>2019-10-19T14:25:13Z</time>
      </trkpt>
      <trkpt lat="38.2794760" lon="-0.6961800">
        <ele>152.0</ele>
        <time>2019-10-19T14:25:14Z</time>
      </trkpt>
      <trkpt lat="38.2795120" lon="-0.6961280">
        <ele>152.0</ele>
        <time>2019-10-19T14:25:15Z</time>
      </trkpt>
      <trkpt lat="38.2795520" lon="-0.6960810">
        <ele>152.0</ele>
        <time>2019-10-19T14:25:16Z</time>
      </trkpt>
      <trkpt lat="38.2795970" lon="-0.6960450">
        <ele>152.0</ele>
        <time>2019-10-19T14:25:17Z</time>
      </trkpt>
      <trkpt lat="38.2796440" lon="-0.6960130">
        <ele>152.4</ele>
        <time>2019-10-19T14:25:18Z</time>
      </trkpt>
      <trkpt lat="38.2796940" lon="-0.6959920">
        <ele>152.4</ele>
        <time>2019-10-19T14:25:19Z</time>
      </trkpt>
      <trkpt lat="38.2797460" lon="-0.6959800">
        <ele>152.4</ele>
        <time>2019-10-19T14:25:20Z</time>
      </trkpt>
      <trkpt lat="38.2797990" lon="-0.6959810">
        <ele>152.6</ele>
        <time>2019-10-19T14:25:21Z</time>
      </trkpt>
      <trkpt lat="38.2798520" lon="-0.6959930">
        <ele>152.4</ele>
        <time>2019-10-19T14:25:22Z</time>
      </trkpt>
      <trkpt lat="38.2799040" lon="-0.6960200">
        <ele>152.8</ele>
        <time>2019-10-19T14:25:23Z</time>
      </trkpt>
      <trkpt lat="38.2799550" lon="-0.6960530">
        <ele>152.8</ele>
        <time>2019-10-19T14:25:24Z</time>
      </trkpt>
      <trkpt lat="38.2800040" lon="-0.6960940">
        <ele>152.8</ele>
        <time>2019-10-19T14:25:25Z</time>
      </trkpt>
      <trkpt lat="38.2800470" lon="-0.6961470">
        <ele>153.0</ele>
        <time>2019-10-19T14:25:26Z</time>
      </trkpt>
      <trkpt lat="38.2800820" lon="-0.6962090">
        <ele>153.0</ele>
        <time>2019-10-19T14:25:27Z</time>
      </trkpt>
      <trkpt lat="38.2801110" lon="-0.6962770">
        <ele>153.0</ele>
        <time>2019-10-19T14:25:28Z</time>
      </trkpt>
      <trkpt lat="38.2801360" lon="-0.6963490">
        <ele>153.0</ele>
        <time>2019-10-19T14:25:29Z</time>
      </trkpt>
      <trkpt lat="38.2801610" lon="-0.6964250">
        <ele>153.0</ele>
        <time>2019-10-19T14:25:30Z</time>
      </trkpt>
      <trkpt lat="38.2801930" lon="-0.6964960">
        <ele>153.0</ele>
        <time>2019-10-19T14:25:31Z</time>
      </trkpt>
      <trkpt lat="38.2802400" lon="-0.6965560">
        <ele>153.2</ele>
        <time>2019-10-19T14:25:32Z</time>
      </trkpt>
      <trkpt lat="38.2802960" lon="-0.6966000">
        <ele>153.2</ele>
        <time>2019-10-19T14:25:33Z</time>
      </trkpt>
      <trkpt lat="38.2803570" lon="-0.6966220">
        <ele>153.2</ele>
        <time>2019-10-19T14:25:34Z</time>
      </trkpt>
      <trkpt lat="38.2804190" lon="-0.6966310">
        <ele>153.2</ele>
        <time>2019-10-19T14:25:35Z</time>
      </trkpt>
      <trkpt lat="38.2804810" lon="-0.6966350">
        <ele>153.4</ele>
        <time>2019-10-19T14:25:36Z</time>
      </trkpt>
      <trkpt lat="38.2805420" lon="-0.6966380">
        <ele>153.4</ele>
        <time>2019-10-19T14:25:37Z</time>
      </trkpt>
      <trkpt lat="38.2806040" lon="-0.6966420">
        <ele>153.6</ele>
        <time>2019-10-19T14:25:38Z</time>
      </trkpt>
      <trkpt lat="38.2806640" lon="-0.6966450">
        <ele>153.8</ele>
        <time>2019-10-19T14:25:39Z</time>
      </trkpt>
      <trkpt lat="38.2807230" lon="-0.6966470">
        <ele>154.0</ele>
        <time>2019-10-19T14:25:40Z</time>
      </trkpt>
      <trkpt lat="38.2807810" lon="-0.6966470">
        <ele>154.4</ele>
        <time>2019-10-19T14:25:41Z</time>
      </trkpt>
      <trkpt lat="38.2808380" lon="-0.6966480">
        <ele>154.6</ele>
        <time>2019-10-19T14:25:42Z</time>
      </trkpt>
      <trkpt lat="38.2808920" lon="-0.6966470">
        <ele>154.8</ele>
        <time>2019-10-19T14:25:43Z</time>
      </trkpt>
      <trkpt lat="38.2809470" lon="-0.6966450">
        <ele>155.2</ele>
        <time>2019-10-19T14:25:44Z</time>
      </trkpt>
      <trkpt lat="38.2810010" lon="-0.6966440">
        <ele>155.2</ele>
        <time>2019-10-19T14:25:45Z</time>
      </trkpt>
      <trkpt lat="38.2810540" lon="-0.6966440">
        <ele>155.6</ele>
        <time>2019-10-19T14:25:46Z</time>
      </trkpt>
      <trkpt lat="38.2811070" lon="-0.6966430">
        <ele>155.6</ele>
        <time>2019-10-19T14:25:47Z</time>
      </trkpt>
      <trkpt lat="38.2811600" lon="-0.6966410">
        <ele>155.8</ele>
        <time>2019-10-19T14:25:48Z</time>
      </trkpt>
      <trkpt lat="38.2812140" lon="-0.6966380">
        <ele>156.0</ele>
        <time>2019-10-19T14:25:49Z</time>
      </trkpt>
      <trkpt lat="38.2812670" lon="-0.6966320">
        <ele>156.4</ele>
        <time>2019-10-19T14:25:50Z</time>
      </trkpt>
      <trkpt lat="38.2813210" lon="-0.6966320">
        <ele>156.4</ele>
        <time>2019-10-19T14:25:51Z</time>
      </trkpt>
      <trkpt lat="38.2813730" lon="-0.6966400">
        <ele>156.4</ele>
        <time>2019-10-19T14:25:52Z</time>
      </trkpt>
      <trkpt lat="38.2814280" lon="-0.6966520">
        <ele>156.4</ele>
        <time>2019-10-19T14:25:53Z</time>
      </trkpt>
      <trkpt lat="38.2814830" lon="-0.6966650">
        <ele>156.4</ele>
        <time>2019-10-19T14:25:54Z</time>
      </trkpt>
      <trkpt lat="38.2815400" lon="-0.6966780">
        <ele>156.6</ele>
        <time>2019-10-19T14:25:55Z</time>
      </trkpt>
      <trkpt lat="38.2815970" lon="-0.6966910">
        <ele>156.6</ele>
        <time>2019-10-19T14:25:56Z</time>
      </trkpt>
      <trkpt lat="38.2816540" lon="-0.6967050">
        <ele>156.6</ele>
        <time>2019-10-19T14:25:57Z</time>
      </trkpt>
      <trkpt lat="38.2817100" lon="-0.6967200">
        <ele>156.8</ele>
        <time>2019-10-19T14:25:58Z</time>
      </trkpt>
      <trkpt lat="38.2817670" lon="-0.6967380">
        <ele>156.8</ele>
        <time>2019-10-19T14:25:59Z</time>
      </trkpt>
      <trkpt lat="38.2818240" lon="-0.6967590">
        <ele>156.8</ele>
        <time>2019-10-19T14:26:00Z</time>
      </trkpt>
      <trkpt lat="38.2818810" lon="-0.6967800">
        <ele>156.6</ele>
        <time>2019-10-19T14:26:01Z</time>
      </trkpt>
      <trkpt lat="38.2819370" lon="-0.6968030">
        <ele>156.8</ele>
        <time>2019-10-19T14:26:02Z</time>
      </trkpt>
      <trkpt lat="38.2819930" lon="-0.6968280">
        <ele>157.0</ele>
        <time>2019-10-19T14:26:03Z</time>
      </trkpt>
      <trkpt lat="38.2820490" lon="-0.6968550">
        <ele>157.0</ele>
        <time>2019-10-19T14:26:04Z</time>
      </trkpt>
      <trkpt lat="38.2821050" lon="-0.6968820">
        <ele>157.0</ele>
        <time>2019-10-19T14:26:05Z</time>
      </trkpt>
      <trkpt lat="38.2821620" lon="-0.6969090">
        <ele>157.2</ele>
        <time>2019-10-19T14:26:06Z</time>
      </trkpt>
      <trkpt lat="38.2822190" lon="-0.6969390">
        <ele>157.0</ele>
        <time>2019-10-19T14:26:07Z</time>
      </trkpt>
      <trkpt lat="38.2822760" lon="-0.6969670">
        <ele>157.0</ele>
        <time>2019-10-19T14:26:08Z</time>
      </trkpt>
      <trkpt lat="38.2823330" lon="-0.6969970">
        <ele>157.0</ele>
        <time>2019-10-19T14:26:09Z</time>
      </trkpt>
      <trkpt lat="38.2823890" lon="-0.6970280">
        <ele>157.0</ele>
        <time>2019-10-19T14:26:10Z</time>
      </trkpt>
      <trkpt lat="38.2824450" lon="-0.6970590">
        <ele>157.0</ele>
        <time>2019-10-19T14:26:11Z</time>
      </trkpt>
      <trkpt lat="38.2824990" lon="-0.6970900">
        <ele>157.2</ele>
        <time>2019-10-19T14:26:12Z</time>
      </trkpt>
      <trkpt lat="38.2825540" lon="-0.6971210">
        <ele>157.2</ele>
        <time>2019-10-19T14:26:13Z</time>
      </trkpt>
      <trkpt lat="38.2826090" lon="-0.6971520">
        <ele>157.4</ele>
        <time>2019-10-19T14:26:14Z</time>
      </trkpt>
      <trkpt lat="38.2826620" lon="-0.6971850">
        <ele>157.6</ele>
        <time>2019-10-19T14:26:15Z</time>
      </trkpt>
      <trkpt lat="38.2827160" lon="-0.6972160">
        <ele>157.8</ele>
        <time>2019-10-19T14:26:16Z</time>
      </trkpt>
      <trkpt lat="38.2827690" lon="-0.6972470">
        <ele>158.0</ele>
        <time>2019-10-19T14:26:17Z</time>
      </trkpt>
      <trkpt lat="38.2828210" lon="-0.6972810">
        <ele>158.2</ele>
        <time>2019-10-19T14:26:18Z</time>
      </trkpt>
      <trkpt lat="38.2828720" lon="-0.6973150">
        <ele>158.2</ele>
        <time>2019-10-19T14:26:19Z</time>
      </trkpt>
      <trkpt lat="38.2829230" lon="-0.6973480">
        <ele>158.4</ele>
        <time>2019-10-19T14:26:20Z</time>
      </trkpt>
      <trkpt lat="38.2829710" lon="-0.6973820">
        <ele>158.6</ele>
        <time>2019-10-19T14:26:21Z</time>
      </trkpt>
      <trkpt lat="38.2830200" lon="-0.6974180">
        <ele>158.4</ele>
        <time>2019-10-19T14:26:22Z</time>
      </trkpt>
      <trkpt lat="38.2830700" lon="-0.6974530">
        <ele>158.6</ele>
        <time>2019-10-19T14:26:23Z</time>
      </trkpt>
      <trkpt lat="38.2831180" lon="-0.6974910">
        <ele>158.8</ele>
        <time>2019-10-19T14:26:24Z</time>
      </trkpt>
      <trkpt lat="38.2831670" lon="-0.6975300">
        <ele>158.8</ele>
        <time>2019-10-19T14:26:25Z</time>
      </trkpt>
      <trkpt lat="38.2832160" lon="-0.6975700">
        <ele>158.8</ele>
        <time>2019-10-19T14:26:26Z</time>
      </trkpt>
      <trkpt lat="38.2832660" lon="-0.6976110">
        <ele>158.8</ele>
        <time>2019-10-19T14:26:27Z</time>
      </trkpt>
      <trkpt lat="38.2833160" lon="-0.6976550">
        <ele>158.8</ele>
        <time>2019-10-19T14:26:28Z</time>
      </trkpt>
      <trkpt lat="38.2833650" lon="-0.6977020">
        <ele>158.8</ele>
        <time>2019-10-19T14:26:29Z</time>
      </trkpt>
      <trkpt lat="38.2834160" lon="-0.6977500">
        <ele>158.6</ele>
        <time>2019-10-19T14:26:30Z</time>
      </trkpt>
      <trkpt lat="38.2834660" lon="-0.6977990">
        <ele>158.6</ele>
        <time>2019-10-19T14:26:31Z</time>
      </trkpt>
      <trkpt lat="38.2835170" lon="-0.6978490">
        <ele>158.4</ele>
        <time>2019-10-19T14:26:32Z</time>
      </trkpt>
      <trkpt lat="38.2835690" lon="-0.6978990">
        <ele>158.4</ele>
        <time>2019-10-19T14:26:33Z</time>
      </trkpt>
      <trkpt lat="38.2836200" lon="-0.6979510">
        <ele>158.4</ele>
        <time>2019-10-19T14:26:34Z</time>
      </trkpt>
      <trkpt lat="38.2836710" lon="-0.6980030">
        <ele>158.4</ele>
        <time>2019-10-19T14:26:35Z</time>
      </trkpt>
      <trkpt lat="38.2837230" lon="-0.6980560">
        <ele>158.2</ele>
        <time>2019-10-19T14:26:36Z</time>
      </trkpt>
      <trkpt lat="38.2837750" lon="-0.6981070">
        <ele>158.4</ele>
        <time>2019-10-19T14:26:37Z</time>
      </trkpt>
      <trkpt lat="38.2838270" lon="-0.6981570">
        <ele>158.4</ele>
        <time>2019-10-19T14:26:38Z</time>
      </trkpt>
      <trkpt lat="38.2838800" lon="-0.6982050">
        <ele>158.4</ele>
        <time>2019-10-19T14:26:39Z</time>
      </trkpt>
      <trkpt lat="38.2839340" lon="-0.6982470">
        <ele>158.4</ele>
        <time>2019-10-19T14:26:40Z</time>
      </trkpt>
      <trkpt lat="38.2839910" lon="-0.6982850">
        <ele>158.6</ele>
        <time>2019-10-19T14:26:41Z</time>
      </trkpt>
      <trkpt lat="38.2840490" lon="-0.6983200">
        <ele>158.8</ele>
        <time>2019-10-19T14:26:42Z</time>
      </trkpt>
      <trkpt lat="38.2841070" lon="-0.6983500">
        <ele>158.8</ele>
        <time>2019-10-19T14:26:43Z</time>
      </trkpt>
      <trkpt lat="38.2841670" lon="-0.6983750">
        <ele>158.8</ele>
        <time>2019-10-19T14:26:44Z</time>
      </trkpt>
      <trkpt lat="38.2842260" lon="-0.6984000">
        <ele>158.8</ele>
        <time>2019-10-19T14:26:45Z</time>
      </trkpt>
      <trkpt lat="38.2842860" lon="-0.6984210">
        <ele>159.0</ele>
        <time>2019-10-19T14:26:46Z</time>
      </trkpt>
      <trkpt lat="38.2843480" lon="-0.6984420">
        <ele>158.8</ele>
        <time>2019-10-19T14:26:47Z</time>
      </trkpt>
      <trkpt lat="38.2844110" lon="-0.6984650">
        <ele>158.8</ele>
        <time>2019-10-19T14:26:48Z</time>
      </trkpt>
      <trkpt lat="38.2844800" lon="-0.6984880">
        <ele>158.4</ele>
        <time>2019-10-19T14:26:49Z</time>
      </trkpt>
      <trkpt lat="38.2845510" lon="-0.6985120">
        <ele>157.8</ele>
        <time>2019-10-19T14:26:50Z</time>
      </trkpt>
      <trkpt lat="38.2846250" lon="-0.6985390">
        <ele>157.4</ele>
        <time>2019-10-19T14:26:51Z</time>
      </trkpt>
      <trkpt lat="38.2847030" lon="-0.6985700">
        <ele>156.4</ele>
        <time>2019-10-19T14:26:52Z</time>
      </trkpt>
      <trkpt lat="38.2847850" lon="-0.6986030">
        <ele>155.6</ele>
        <time>2019-10-19T14:26:53Z</time>
      </trkpt>
      <trkpt lat="38.2848690" lon="-0.6986430">
        <ele>155.0</ele>
        <time>2019-10-19T14:26:54Z</time>
      </trkpt>
      <trkpt lat="38.2849560" lon="-0.6986820">
        <ele>154.4</ele>
        <time>2019-10-19T14:26:55Z</time>
      </trkpt>
      <trkpt lat="38.2850490" lon="-0.6987140">
        <ele>153.6</ele>
        <time>2019-10-19T14:26:56Z</time>
      </trkpt>
      <trkpt lat="38.2851440" lon="-0.6987430">
        <ele>152.8</ele>
        <time>2019-10-19T14:26:57Z</time>
      </trkpt>
      <trkpt lat="38.2852380" lon="-0.6987740">
        <ele>152.6</ele>
        <time>2019-10-19T14:26:58Z</time>
      </trkpt>
      <trkpt lat="38.2853290" lon="-0.6988130">
        <ele>153.0</ele>
        <time>2019-10-19T14:26:59Z</time>
      </trkpt>
      <trkpt lat="38.2854160" lon="-0.6988570">
        <ele>152.6</ele>
        <time>2019-10-19T14:27:00Z</time>
      </trkpt>
      <trkpt lat="38.2855000" lon="-0.6989050">
        <ele>152.4</ele>
        <time>2019-10-19T14:27:01Z</time>
      </trkpt>
      <trkpt lat="38.2855790" lon="-0.6989600">
        <ele>152.2</ele>
        <time>2019-10-19T14:27:02Z</time>
      </trkpt>
      <trkpt lat="38.2856530" lon="-0.6990180">
        <ele>152.4</ele>
        <time>2019-10-19T14:27:03Z</time>
      </trkpt>
      <trkpt lat="38.2857270" lon="-0.6990760">
        <ele>152.8</ele>
        <time>2019-10-19T14:27:04Z</time>
      </trkpt>
      <trkpt lat="38.2857990" lon="-0.6991370">
        <ele>152.8</ele>
        <time>2019-10-19T14:27:05Z</time>
      </trkpt>
      <trkpt lat="38.2858650" lon="-0.6991990">
        <ele>153.0</ele>
        <time>2019-10-19T14:27:06Z</time>
      </trkpt>
      <trkpt lat="38.2859250" lon="-0.6992660">
        <ele>153.0</ele>
        <time>2019-10-19T14:27:07Z</time>
      </trkpt>
      <trkpt lat="38.2859820" lon="-0.6993290">
        <ele>153.4</ele>
        <time>2019-10-19T14:27:08Z</time>
      </trkpt>
      <trkpt lat="38.2860380" lon="-0.6993850">
        <ele>154.2</ele>
        <time>2019-10-19T14:27:09Z</time>
      </trkpt>
      <trkpt lat="38.2860930" lon="-0.6994360">
        <ele>154.8</ele>
        <time>2019-10-19T14:27:10Z</time>
      </trkpt>
      <trkpt lat="38.2861440" lon="-0.6994830">
        <ele>155.2</ele>
        <time>2019-10-19T14:27:11Z</time>
      </trkpt>
      <trkpt lat="38.2861930" lon="-0.6995270">
        <ele>155.8</ele>
        <time>2019-10-19T14:27:12Z</time>
      </trkpt>
      <trkpt lat="38.2862390" lon="-0.6995670">
        <ele>156.2</ele>
        <time>2019-10-19T14:27:13Z</time>
      </trkpt>
      <trkpt lat="38.2862840" lon="-0.6996040">
        <ele>156.4</ele>
        <time>2019-10-19T14:27:14Z</time>
      </trkpt>
      <trkpt lat="38.2863280" lon="-0.6996450">
        <ele>157.0</ele>
        <time>2019-10-19T14:27:15Z</time>
      </trkpt>
      <trkpt lat="38.2863690" lon="-0.6996850">
        <ele>157.4</ele>
        <time>2019-10-19T14:27:16Z</time>
      </trkpt>
      <trkpt lat="38.2864100" lon="-0.6997220">
        <ele>157.8</ele>
        <time>2019-10-19T14:27:17Z</time>
      </trkpt>
      <trkpt lat="38.2864520" lon="-0.6997540">
        <ele>158.4</ele>
        <time>2019-10-19T14:27:18Z</time>
      </trkpt>
      <trkpt lat="38.2864950" lon="-0.6997800">
        <ele>158.8</ele>
        <time>2019-10-19T14:27:19Z</time>
      </trkpt>
      <trkpt lat="38.2865380" lon="-0.6997990">
        <ele>159.2</ele>
        <time>2019-10-19T14:27:20Z</time>
      </trkpt>
      <trkpt lat="38.2865850" lon="-0.6998120">
        <ele>159.4</ele>
        <time>2019-10-19T14:27:21Z</time>
      </trkpt>
      <trkpt lat="38.2866360" lon="-0.6998210">
        <ele>159.8</ele>
        <time>2019-10-19T14:27:22Z</time>
      </trkpt>
      <trkpt lat="38.2866860" lon="-0.6998280">
        <ele>159.8</ele>
        <time>2019-10-19T14:27:23Z</time>
      </trkpt>
      <trkpt lat="38.2867360" lon="-0.6998330">
        <ele>160.0</ele>
        <time>2019-10-19T14:27:24Z</time>
      </trkpt>
      <trkpt lat="38.2867850" lon="-0.6998370">
        <ele>160.4</ele>
        <time>2019-10-19T14:27:25Z</time>
      </trkpt>
      <trkpt lat="38.2868350" lon="-0.6998410">
        <ele>161.0</ele>
        <time>2019-10-19T14:27:26Z</time>
      </trkpt>
      <trkpt lat="38.2868830" lon="-0.6998470">
        <ele>161.4</ele>
        <time>2019-10-19T14:27:27Z</time>
      </trkpt>
      <trkpt lat="38.2869290" lon="-0.6998580">
        <ele>161.8</ele>
        <time>2019-10-19T14:27:28Z</time>
      </trkpt>
      <trkpt lat="38.2869740" lon="-0.6998720">
        <ele>162.2</ele>
        <time>2019-10-19T14:27:29Z</time>
      </trkpt>
      <trkpt lat="38.2870170" lon="-0.6998940">
        <ele>162.6</ele>
        <time>2019-10-19T14:27:30Z</time>
      </trkpt>
      <trkpt lat="38.2870590" lon="-0.6999240">
        <ele>163.2</ele>
        <time>2019-10-19T14:27:31Z</time>
      </trkpt>
      <trkpt lat="38.2871020" lon="-0.6999550">
        <ele>163.2</ele>
        <time>2019-10-19T14:27:32Z</time>
      </trkpt>
      <trkpt lat="38.2871460" lon="-0.6999870">
        <ele>163.6</ele>
        <time>2019-10-19T14:27:33Z</time>
      </trkpt>
      <trkpt lat="38.2871920" lon="-0.7000160">
        <ele>163.8</ele>
        <time>2019-10-19T14:27:34Z</time>
      </trkpt>
      <trkpt lat="38.2872400" lon="-0.7000460">
        <ele>164.2</ele>
        <time>2019-10-19T14:27:35Z</time>
      </trkpt>
      <trkpt lat="38.2872890" lon="-0.7000780">
        <ele>164.6</ele>
        <time>2019-10-19T14:27:36Z</time>
      </trkpt>
      <trkpt lat="38.2873360" lon="-0.7001120">
        <ele>164.8</ele>
        <time>2019-10-19T14:27:37Z</time>
      </trkpt>
      <trkpt lat="38.2873770" lon="-0.7001530">
        <ele>165.2</ele>
        <time>2019-10-19T14:27:38Z</time>
      </trkpt>
      <trkpt lat="38.2874150" lon="-0.7001980">
        <ele>165.8</ele>
        <time>2019-10-19T14:27:39Z</time>
      </trkpt>
      <trkpt lat="38.2874530" lon="-0.7002410">
        <ele>166.2</ele>
        <time>2019-10-19T14:27:40Z</time>
      </trkpt>
      <trkpt lat="38.2874940" lon="-0.7002790">
        <ele>166.6</ele>
        <time>2019-10-19T14:27:41Z</time>
      </trkpt>
      <trkpt lat="38.2875360" lon="-0.7003110">
        <ele>167.0</ele>
        <time>2019-10-19T14:27:42Z</time>
      </trkpt>
      <trkpt lat="38.2875800" lon="-0.7003420">
        <ele>167.2</ele>
        <time>2019-10-19T14:27:43Z</time>
      </trkpt>
      <trkpt lat="38.2876260" lon="-0.7003720">
        <ele>167.6</ele>
        <time>2019-10-19T14:27:44Z</time>
      </trkpt>
      <trkpt lat="38.2876720" lon="-0.7003980">
        <ele>167.8</ele>
        <time>2019-10-19T14:27:45Z</time>
      </trkpt>
      <trkpt lat="38.2877220" lon="-0.7004210">
        <ele>167.6</ele>
        <time>2019-10-19T14:27:46Z</time>
      </trkpt>
      <trkpt lat="38.2877770" lon="-0.7004420">
        <ele>167.6</ele>
        <time>2019-10-19T14:27:47Z</time>
      </trkpt>
      <trkpt lat="38.2878350" lon="-0.7004630">
        <ele>167.6</ele>
        <time>2019-10-19T14:27:48Z</time>
      </trkpt>
      <trkpt lat="38.2878960" lon="-0.7004830">
        <ele>167.4</ele>
        <time>2019-10-19T14:27:49Z</time>
      </trkpt>
      <trkpt lat="38.2879570" lon="-0.7005050">
        <ele>167.4</ele>
        <time>2019-10-19T14:27:50Z</time>
      </trkpt>
      <trkpt lat="38.2880190" lon="-0.7005280">
        <ele>167.2</ele>
        <time>2019-10-19T14:27:51Z</time>
      </trkpt>
      <trkpt lat="38.2880810" lon="-0.7005530">
        <ele>167.4</ele>
        <time>2019-10-19T14:27:52Z</time>
      </trkpt>
      <trkpt lat="38.2881450" lon="-0.7005790">
        <ele>167.4</ele>
        <time>2019-10-19T14:27:53Z</time>
      </trkpt>
      <trkpt lat="38.2882090" lon="-0.7006050">
        <ele>167.6</ele>
        <time>2019-10-19T14:27:54Z</time>
      </trkpt>
      <trkpt lat="38.2882740" lon="-0.7006310">
        <ele>167.4</ele>
        <time>2019-10-19T14:27:55Z</time>
      </trkpt>
      <trkpt lat="38.2883380" lon="-0.7006530">
        <ele>167.6</ele>
        <time>2019-10-19T14:27:56Z</time>
      </trkpt>
      <trkpt lat="38.2884030" lon="-0.7006660">
        <ele>167.8</ele>
        <time>2019-10-19T14:27:57Z</time>
      </trkpt>
      <trkpt lat="38.2884660" lon="-0.7006700">
        <ele>168.0</ele>
        <time>2019-10-19T14:27:58Z</time>
      </trkpt>
      <trkpt lat="38.2885290" lon="-0.7006710">
        <ele>168.2</ele>
        <time>2019-10-19T14:27:59Z</time>
      </trkpt>
      <trkpt lat="38.2885900" lon="-0.7006690">
        <ele>168.4</ele>
        <time>2019-10-19T14:28:00Z</time>
      </trkpt>
      <trkpt lat="38.2886490" lon="-0.7006650">
        <ele>168.6</ele>
        <time>2019-10-19T14:28:01Z</time>
      </trkpt>
      <trkpt lat="38.2887050" lon="-0.7006650">
        <ele>169.2</ele>
        <time>2019-10-19T14:28:02Z</time>
      </trkpt>
      <trkpt lat="38.2887620" lon="-0.7006670">
        <ele>169.4</ele>
        <time>2019-10-19T14:28:03Z</time>
      </trkpt>
      <trkpt lat="38.2888180" lon="-0.7006640">
        <ele>169.8</ele>
        <time>2019-10-19T14:28:04Z</time>
      </trkpt>
      <trkpt lat="38.2888710" lon="-0.7006570">
        <ele>170.2</ele>
        <time>2019-10-19T14:28:05Z</time>
      </trkpt>
      <trkpt lat="38.2889240" lon="-0.7006500">
        <ele>170.4</ele>
        <time>2019-10-19T14:28:06Z</time>
      </trkpt>
      <trkpt lat="38.2889730" lon="-0.7006400">
        <ele>171.0</ele>
        <time>2019-10-19T14:28:07Z</time>
      </trkpt>
      <trkpt lat="38.2890210" lon="-0.7006290">
        <ele>171.6</ele>
        <time>2019-10-19T14:28:08Z</time>
      </trkpt>
      <trkpt lat="38.2890680" lon="-0.7006160">
        <ele>172.2</ele>
        <time>2019-10-19T14:28:09Z</time>
      </trkpt>
      <trkpt lat="38.2891150" lon="-0.7005990">
        <ele>172.2</ele>
        <time>2019-10-19T14:28:10Z</time>
      </trkpt>
      <trkpt lat="38.2891630" lon="-0.7005820">
        <ele>172.4</ele>
        <time>2019-10-19T14:28:11Z</time>
      </trkpt>
      <trkpt lat="38.2892120" lon="-0.7005650">
        <ele>173.0</ele>
        <time>2019-10-19T14:28:12Z</time>
      </trkpt>
      <trkpt lat="38.2892610" lon="-0.7005480">
        <ele>173.0</ele>
        <time>2019-10-19T14:28:13Z</time>
      </trkpt>
      <trkpt lat="38.2893100" lon="-0.7005320">
        <ele>173.2</ele>
        <time>2019-10-19T14:28:14Z</time>
      </trkpt>
      <trkpt lat="38.2893570" lon="-0.7005180">
        <ele>173.6</ele>
        <time>2019-10-19T14:28:15Z</time>
      </trkpt>
      <trkpt lat="38.2894040" lon="-0.7005030">
        <ele>174.0</ele>
        <time>2019-10-19T14:28:16Z</time>
      </trkpt>
      <trkpt lat="38.2894500" lon="-0.7004900">
        <ele>174.4</ele>
        <time>2019-10-19T14:28:17Z</time>
      </trkpt>
      <trkpt lat="38.2894960" lon="-0.7004820">
        <ele>174.8</ele>
        <time>2019-10-19T14:28:18Z</time>
      </trkpt>
      <trkpt lat="38.2895390" lon="-0.7004760">
        <ele>175.2</ele>
        <time>2019-10-19T14:28:19Z</time>
      </trkpt>
      <trkpt lat="38.2895800" lon="-0.7004710">
        <ele>175.8</ele>
        <time>2019-10-19T14:28:20Z</time>
      </trkpt>
      <trkpt lat="38.2896190" lon="-0.7004680">
        <ele>176.2</ele>
        <time>2019-10-19T14:28:21Z</time>
      </trkpt>
      <trkpt lat="38.2896600" lon="-0.7004640">
        <ele>176.2</ele>
        <time>2019-10-19T14:28:22Z</time>
      </trkpt>
      <trkpt lat="38.2897020" lon="-0.7004600">
        <ele>176.8</ele>
        <time>2019-10-19T14:28:23Z</time>
      </trkpt>
      <trkpt lat="38.2897430" lon="-0.7004590">
        <ele>177.0</ele>
        <time>2019-10-19T14:28:24Z</time>
      </trkpt>
      <trkpt lat="38.2897840" lon="-0.7004610">
        <ele>177.2</ele>
        <time>2019-10-19T14:28:25Z</time>
      </trkpt>
      <trkpt lat="38.2898270" lon="-0.7004660">
        <ele>177.6</ele>
        <time>2019-10-19T14:28:26Z</time>
      </trkpt>
      <trkpt lat="38.2898700" lon="-0.7004740">
        <ele>177.8</ele>
        <time>2019-10-19T14:28:27Z</time>
      </trkpt>
      <trkpt lat="38.2899120" lon="-0.7004830">
        <ele>178.2</ele>
        <time>2019-10-19T14:28:28Z</time>
      </trkpt>
      <trkpt lat="38.2899540" lon="-0.7004950">
        <ele>178.4</ele>
        <time>2019-10-19T14:28:29Z</time>
      </trkpt>
      <trkpt lat="38.2899970" lon="-0.7005100">
        <ele>178.4</ele>
        <time>2019-10-19T14:28:30Z</time>
      </trkpt>
      <trkpt lat="38.2900430" lon="-0.7005270">
        <ele>178.8</ele>
        <time>2019-10-19T14:28:31Z</time>
      </trkpt>
      <trkpt lat="38.2900890" lon="-0.7005460">
        <ele>179.0</ele>
        <time>2019-10-19T14:28:32Z</time>
      </trkpt>
      <trkpt lat="38.2901360" lon="-0.7005660">
        <ele>179.0</ele>
        <time>2019-10-19T14:28:33Z</time>
      </trkpt>
      <trkpt lat="38.2901840" lon="-0.7005810">
        <ele>179.0</ele>
        <time>2019-10-19T14:28:34Z</time>
      </trkpt>
      <trkpt lat="38.2902340" lon="-0.7005940">
        <ele>179.0</ele>
        <time>2019-10-19T14:28:35Z</time>
      </trkpt>
      <trkpt lat="38.2902850" lon="-0.7006080">
        <ele>179.0</ele>
        <time>2019-10-19T14:28:36Z</time>
      </trkpt>
      <trkpt lat="38.2903380" lon="-0.7006230">
        <ele>179.0</ele>
        <time>2019-10-19T14:28:37Z</time>
      </trkpt>
      <trkpt lat="38.2903920" lon="-0.7006350">
        <ele>178.8</ele>
        <time>2019-10-19T14:28:38Z</time>
      </trkpt>
      <trkpt lat="38.2904460" lon="-0.7006480">
        <ele>179.0</ele>
        <time>2019-10-19T14:28:39Z</time>
      </trkpt>
      <trkpt lat="38.2905030" lon="-0.7006580">
        <ele>179.2</ele>
        <time>2019-10-19T14:28:40Z</time>
      </trkpt>
      <trkpt lat="38.2905600" lon="-0.7006670">
        <ele>179.2</ele>
        <time>2019-10-19T14:28:41Z</time>
      </trkpt>
      <trkpt lat="38.2906170" lon="-0.7006750">
        <ele>179.2</ele>
        <time>2019-10-19T14:28:42Z</time>
      </trkpt>
      <trkpt lat="38.2906730" lon="-0.7006830">
        <ele>179.4</ele>
        <time>2019-10-19T14:28:43Z</time>
      </trkpt>
      <trkpt lat="38.2907280" lon="-0.7006930">
        <ele>179.6</ele>
        <time>2019-10-19T14:28:44Z</time>
      </trkpt>
      <trkpt lat="38.2907820" lon="-0.7007010">
        <ele>180.0</ele>
        <time>2019-10-19T14:28:45Z</time>
      </trkpt>
      <trkpt lat="38.2908360" lon="-0.7007090">
        <ele>180.0</ele>
        <time>2019-10-19T14:28:46Z</time>
      </trkpt>
      <trkpt lat="38.2908890" lon="-0.7007200">
        <ele>180.4</ele>
        <time>2019-10-19T14:28:47Z</time>
      </trkpt>
      <trkpt lat="38.2909410" lon="-0.7007320">
        <ele>180.8</ele>
        <time>2019-10-19T14:28:48Z</time>
      </trkpt>
      <trkpt lat="38.2909930" lon="-0.7007380">
        <ele>181.0</ele>
        <time>2019-10-19T14:28:49Z</time>
      </trkpt>
      <trkpt lat="38.2910450" lon="-0.7007360">
        <ele>181.2</ele>
        <time>2019-10-19T14:28:50Z</time>
      </trkpt>
      <trkpt lat="38.2910980" lon="-0.7007290">
        <ele>181.8</ele>
        <time>2019-10-19T14:28:51Z</time>
      </trkpt>
      <trkpt lat="38.2911480" lon="-0.7007110">
        <ele>181.8</ele>
        <time>2019-10-19T14:28:52Z</time>
      </trkpt>
      <trkpt lat="38.2911960" lon="-0.7006860">
        <ele>182.0</ele>
        <time>2019-10-19T14:28:53Z</time>
      </trkpt>
      <trkpt lat="38.2912430" lon="-0.7006570">
        <ele>182.4</ele>
        <time>2019-10-19T14:28:54Z</time>
      </trkpt>
      <trkpt lat="38.2912880" lon="-0.7006230">
        <ele>182.6</ele>
        <time>2019-10-19T14:28:55Z</time>
      </trkpt>
      <trkpt lat="38.2913310" lon="-0.7005860">
        <ele>182.8</ele>
        <time>2019-10-19T14:28:56Z</time>
      </trkpt>
      <trkpt lat="38.2913720" lon="-0.7005440">
        <ele>183.0</ele>
        <time>2019-10-19T14:28:57Z</time>
      </trkpt>
      <trkpt lat="38.2914100" lon="-0.7004960">
        <ele>183.4</ele>
        <time>2019-10-19T14:28:58Z</time>
      </trkpt>
      <trkpt lat="38.2914450" lon="-0.7004430">
        <ele>183.8</ele>
        <time>2019-10-19T14:28:59Z</time>
      </trkpt>
      <trkpt lat="38.2914750" lon="-0.7003920">
        <ele>184.4</ele>
        <time>2019-10-19T14:29:00Z</time>
      </trkpt>
      <trkpt lat="38.2915060" lon="-0.7003440">
        <ele>184.6</ele>
        <time>2019-10-19T14:29:01Z</time>
      </trkpt>
      <trkpt lat="38.2915370" lon="-0.7002980">
        <ele>184.8</ele>
        <time>2019-10-19T14:29:02Z</time>
      </trkpt>
      <trkpt lat="38.2915710" lon="-0.7002560">
        <ele>185.2</ele>
        <time>2019-10-19T14:29:03Z</time>
      </trkpt>
      <trkpt lat="38.2916080" lon="-0.7002170">
        <ele>185.0</ele>
        <time>2019-10-19T14:29:04Z</time>
      </trkpt>
      <trkpt lat="38.2916480" lon="-0.7001840">
        <ele>185.4</ele>
        <time>2019-10-19T14:29:05Z</time>
      </trkpt>
      <trkpt lat="38.2916900" lon="-0.7001580">
        <ele>186.0</ele>
        <time>2019-10-19T14:29:06Z</time>
      </trkpt>
      <trkpt lat="38.2917360" lon="-0.7001400">
        <ele>186.0</ele>
        <time>2019-10-19T14:29:07Z</time>
      </trkpt>
      <trkpt lat="38.2917820" lon="-0.7001310">
        <ele>186.0</ele>
        <time>2019-10-19T14:29:08Z</time>
      </trkpt>
      <trkpt lat="38.2918280" lon="-0.7001320">
        <ele>186.0</ele>
        <time>2019-10-19T14:29:09Z</time>
      </trkpt>
      <trkpt lat="38.2918740" lon="-0.7001370">
        <ele>186.2</ele>
        <time>2019-10-19T14:29:10Z</time>
      </trkpt>
      <trkpt lat="38.2919190" lon="-0.7001430">
        <ele>186.4</ele>
        <time>2019-10-19T14:29:11Z</time>
      </trkpt>
      <trkpt lat="38.2919610" lon="-0.7001530">
        <ele>186.6</ele>
        <time>2019-10-19T14:29:12Z</time>
      </trkpt>
      <trkpt lat="38.2920050" lon="-0.7001650">
        <ele>186.6</ele>
        <time>2019-10-19T14:29:13Z</time>
      </trkpt>
      <trkpt lat="38.2920500" lon="-0.7001790">
        <ele>186.6</ele>
        <time>2019-10-19T14:29:14Z</time>
      </trkpt>
      <trkpt lat="38.2920970" lon="-0.7001950">
        <ele>186.8</ele>
        <time>2019-10-19T14:29:15Z</time>
      </trkpt>
      <trkpt lat="38.2921440" lon="-0.7002120">
        <ele>186.8</ele>
        <time>2019-10-19T14:29:16Z</time>
      </trkpt>
      <trkpt lat="38.2921930" lon="-0.7002310">
        <ele>186.8</ele>
        <time>2019-10-19T14:29:17Z</time>
      </trkpt>
      <trkpt lat="38.2922450" lon="-0.7002460">
        <ele>187.0</ele>
        <time>2019-10-19T14:29:18Z</time>
      </trkpt>
      <trkpt lat="38.2922970" lon="-0.7002600">
        <ele>187.0</ele>
        <time>2019-10-19T14:29:19Z</time>
      </trkpt>
      <trkpt lat="38.2923520" lon="-0.7002740">
        <ele>187.2</ele>
        <time>2019-10-19T14:29:20Z</time>
      </trkpt>
      <trkpt lat="38.2924090" lon="-0.7002900">
        <ele>187.2</ele>
        <time>2019-10-19T14:29:21Z</time>
      </trkpt>
      <trkpt lat="38.2924680" lon="-0.7003090">
        <ele>186.6</ele>
        <time>2019-10-19T14:29:22Z</time>
      </trkpt>
      <trkpt lat="38.2925290" lon="-0.7003300">
        <ele>186.6</ele>
        <time>2019-10-19T14:29:23Z</time>
      </trkpt>
      <trkpt lat="38.2925940" lon="-0.7003520">
        <ele>186.4</ele>
        <time>2019-10-19T14:29:24Z</time>
      </trkpt>
      <trkpt lat="38.2926610" lon="-0.7003730">
        <ele>186.2</ele>
        <time>2019-10-19T14:29:25Z</time>
      </trkpt>
      <trkpt lat="38.2927290" lon="-0.7003900">
        <ele>186.0</ele>
        <time>2019-10-19T14:29:26Z</time>
      </trkpt>
      <trkpt lat="38.2927990" lon="-0.7004060">
        <ele>185.8</ele>
        <time>2019-10-19T14:29:27Z</time>
      </trkpt>
      <trkpt lat="38.2928710" lon="-0.7004210">
        <ele>185.8</ele>
        <time>2019-10-19T14:29:28Z</time>
      </trkpt>
      <trkpt lat="38.2929440" lon="-0.7004330">
        <ele>185.8</ele>
        <time>2019-10-19T14:29:29Z</time>
      </trkpt>
      <trkpt lat="38.2930190" lon="-0.7004440">
        <ele>185.6</ele>
        <time>2019-10-19T14:29:30Z</time>
      </trkpt>
      <trkpt lat="38.2930960" lon="-0.7004550">
        <ele>185.2</ele>
        <time>2019-10-19T14:29:31Z</time>
      </trkpt>
      <trkpt lat="38.2931740" lon="-0.7004670">
        <ele>185.0</ele>
        <time>2019-10-19T14:29:32Z</time>
      </trkpt>
      <trkpt lat="38.2932540" lon="-0.7004770">
        <ele>184.8</ele>
        <time>2019-10-19T14:29:33Z</time>
      </trkpt>
      <trkpt lat="38.2933340" lon="-0.7004850">
        <ele>184.6</ele>
        <time>2019-10-19T14:29:34Z</time>
      </trkpt>
      <trkpt lat="38.2934180" lon="-0.7004890">
        <ele>184.4</ele>
        <time>2019-10-19T14:29:35Z</time>
      </trkpt>
      <trkpt lat="38.2935020" lon="-0.7004890">
        <ele>184.2</ele>
        <time>2019-10-19T14:29:36Z</time>
      </trkpt>
      <trkpt lat="38.2935890" lon="-0.7004880">
        <ele>184.0</ele>
        <time>2019-10-19T14:29:37Z</time>
      </trkpt>
      <trkpt lat="38.2936770" lon="-0.7004910">
        <ele>183.8</ele>
        <time>2019-10-19T14:29:38Z</time>
      </trkpt>
      <trkpt lat="38.2937650" lon="-0.7004950">
        <ele>183.8</ele>
        <time>2019-10-19T14:29:39Z</time>
      </trkpt>
      <trkpt lat="38.2938520" lon="-0.7005000">
        <ele>183.8</ele>
        <time>2019-10-19T14:29:40Z</time>
      </trkpt>
      <trkpt lat="38.2939400" lon="-0.7005020">
        <ele>184.0</ele>
        <time>2019-10-19T14:29:41Z</time>
      </trkpt>
      <trkpt lat="38.2940260" lon="-0.7005020">
        <ele>184.0</ele>
        <time>2019-10-19T14:29:42Z</time>
      </trkpt>
      <trkpt lat="38.2941090" lon="-0.7004990">
        <ele>184.4</ele>
        <time>2019-10-19T14:29:43Z</time>
      </trkpt>
      <trkpt lat="38.2941870" lon="-0.7004900">
        <ele>184.6</ele>
        <time>2019-10-19T14:29:44Z</time>
      </trkpt>
      <trkpt lat="38.2942590" lon="-0.7004740">
        <ele>185.0</ele>
        <time>2019-10-19T14:29:45Z</time>
      </trkpt>
      <trkpt lat="38.2943280" lon="-0.7004570">
        <ele>185.8</ele>
        <time>2019-10-19T14:29:46Z</time>
      </trkpt>
      <trkpt lat="38.2943950" lon="-0.7004390">
        <ele>186.2</ele>
        <time>2019-10-19T14:29:47Z</time>
      </trkpt>
      <trkpt lat="38.2944630" lon="-0.7004210">
        <ele>186.4</ele>
        <time>2019-10-19T14:29:48Z</time>
      </trkpt>
      <trkpt lat="38.2945310" lon="-0.7004070">
        <ele>186.6</ele>
        <time>2019-10-19T14:29:49Z</time>
      </trkpt>
      <trkpt lat="38.2946000" lon="-0.7003970">
        <ele>186.8</ele>
        <time>2019-10-19T14:29:50Z</time>
      </trkpt>
      <trkpt lat="38.2946690" lon="-0.7003870">
        <ele>187.0</ele>
        <time>2019-10-19T14:29:51Z</time>
      </trkpt>
      <trkpt lat="38.2947380" lon="-0.7003720">
        <ele>187.2</ele>
        <time>2019-10-19T14:29:52Z</time>
      </trkpt>
      <trkpt lat="38.2948020" lon="-0.7003420">
        <ele>187.4</ele>
        <time>2019-10-19T14:29:53Z</time>
      </trkpt>
      <trkpt lat="38.2948650" lon="-0.7003010">
        <ele>187.6</ele>
        <time>2019-10-19T14:29:54Z</time>
      </trkpt>
      <trkpt lat="38.2949260" lon="-0.7002570">
        <ele>187.8</ele>
        <time>2019-10-19T14:29:55Z</time>
      </trkpt>
      <trkpt lat="38.2949900" lon="-0.7002160">
        <ele>188.0</ele>
        <time>2019-10-19T14:29:56Z</time>
      </trkpt>
      <trkpt lat="38.2950540" lon="-0.7001780">
        <ele>188.2</ele>
        <time>2019-10-19T14:29:57Z</time>
      </trkpt>
      <trkpt lat="38.2951190" lon="-0.7001450">
        <ele>188.8</ele>
        <time>2019-10-19T14:29:58Z</time>
      </trkpt>
      <trkpt lat="38.2951840" lon="-0.7001140">
        <ele>188.8</ele>
        <time>2019-10-19T14:29:59Z</time>
      </trkpt>
      <trkpt lat="38.2952510" lon="-0.7000890">
        <ele>189.2</ele>
        <time>2019-10-19T14:30:00Z</time>
      </trkpt>
      <trkpt lat="38.2953200" lon="-0.7000720">
        <ele>189.4</ele>
        <time>2019-10-19T14:30:01Z</time>
      </trkpt>
      <trkpt lat="38.2953880" lon="-0.7000610">
        <ele>189.8</ele>
        <time>2019-10-19T14:30:02Z</time>
      </trkpt>
      <trkpt lat="38.2954570" lon="-0.7000560">
        <ele>190.2</ele>
        <time>2019-10-19T14:30:03Z</time>
      </trkpt>
      <trkpt lat="38.2955220" lon="-0.7000500">
        <ele>190.6</ele>
        <time>2019-10-19T14:30:04Z</time>
      </trkpt>
      <trkpt lat="38.2955890" lon="-0.7000430">
        <ele>190.8</ele>
        <time>2019-10-19T14:30:05Z</time>
      </trkpt>
      <trkpt lat="38.2956590" lon="-0.7000370">
        <ele>190.8</ele>
        <time>2019-10-19T14:30:06Z</time>
      </trkpt>
      <trkpt lat="38.2957290" lon="-0.7000380">
        <ele>191.0</ele>
        <time>2019-10-19T14:30:07Z</time>
      </trkpt>
      <trkpt lat="38.2957980" lon="-0.7000420">
        <ele>191.4</ele>
        <time>2019-10-19T14:30:08Z</time>
      </trkpt>
      <trkpt lat="38.2958690" lon="-0.7000430">
        <ele>191.6</ele>
        <time>2019-10-19T14:30:09Z</time>
      </trkpt>
      <trkpt lat="38.2959370" lon="-0.7000420">
        <ele>192.2</ele>
        <time>2019-10-19T14:30:10Z</time>
      </trkpt>
      <trkpt lat="38.2960050" lon="-0.7000420">
        <ele>192.6</ele>
        <time>2019-10-19T14:30:11Z</time>
      </trkpt>
      <trkpt lat="38.2960740" lon="-0.7000460">
        <ele>192.8</ele>
        <time>2019-10-19T14:30:12Z</time>
      </trkpt>
      <trkpt lat="38.2961410" lon="-0.7000510">
        <ele>193.2</ele>
        <time>2019-10-19T14:30:13Z</time>
      </trkpt>
      <trkpt lat="38.2962090" lon="-0.7000570">
        <ele>193.2</ele>
        <time>2019-10-19T14:30:14Z</time>
      </trkpt>
      <trkpt lat="38.2962760" lon="-0.7000660">
        <ele>193.4</ele>
        <time>2019-10-19T14:30:15Z</time>
      </trkpt>
      <trkpt lat="38.2963440" lon="-0.7000740">
        <ele>193.8</ele>
        <time>2019-10-19T14:30:16Z</time>
      </trkpt>
      <trkpt lat="38.2964100" lon="-0.7000760">
        <ele>193.8</ele>
        <time>2019-10-19T14:30:17Z</time>
      </trkpt>
      <trkpt lat="38.2964770" lon="-0.7000730">
        <ele>194.0</ele>
        <time>2019-10-19T14:30:18Z</time>
      </trkpt>
      <trkpt lat="38.2965440" lon="-0.7000660">
        <ele>194.2</ele>
        <time>2019-10-19T14:30:19Z</time>
      </trkpt>
      <trkpt lat="38.2966120" lon="-0.7000540">
        <ele>194.4</ele>
        <time>2019-10-19T14:30:20Z</time>
      </trkpt>
      <trkpt lat="38.2966800" lon="-0.7000410">
        <ele>194.6</ele>
        <time>2019-10-19T14:30:21Z</time>
      </trkpt>
      <trkpt lat="38.2967480" lon="-0.7000270">
        <ele>194.6</ele>
        <time>2019-10-19T14:30:22Z</time>
      </trkpt>
      <trkpt lat="38.2968140" lon="-0.7000120">
        <ele>195.0</ele>
        <time>2019-10-19T14:30:23Z</time>
      </trkpt>
      <trkpt lat="38.2968790" lon="-0.6999950">
        <ele>195.2</ele>
        <time>2019-10-19T14:30:24Z</time>
      </trkpt>
      <trkpt lat="38.2969440" lon="-0.6999770">
        <ele>195.4</ele>
        <time>2019-10-19T14:30:25Z</time>
      </trkpt>
      <trkpt lat="38.2970080" lon="-0.6999580">
        <ele>195.6</ele>
        <time>2019-10-19T14:30:26Z</time>
      </trkpt>
      <trkpt lat="38.2970720" lon="-0.6999350">
        <ele>195.4</ele>
        <time>2019-10-19T14:30:27Z</time>
      </trkpt>
      <trkpt lat="38.2971360" lon="-0.6999080">
        <ele>195.8</ele>
        <time>2019-10-19T14:30:28Z</time>
      </trkpt>
      <trkpt lat="38.2972000" lon="-0.6998830">
        <ele>196.0</ele>
        <time>2019-10-19T14:30:29Z</time>
      </trkpt>
      <trkpt lat="38.2972620" lon="-0.6998590">
        <ele>196.2</ele>
        <time>2019-10-19T14:30:30Z</time>
      </trkpt>
      <trkpt lat="38.2973230" lon="-0.6998300">
        <ele>196.2</ele>
        <time>2019-10-19T14:30:31Z</time>
      </trkpt>
      <trkpt lat="38.2973810" lon="-0.6997960">
        <ele>196.6</ele>
        <time>2019-10-19T14:30:32Z</time>
      </trkpt>
      <trkpt lat="38.2974390" lon="-0.6997680">
        <ele>196.6</ele>
        <time>2019-10-19T14:30:33Z</time>
      </trkpt>
      <trkpt lat="38.2974970" lon="-0.6997410">
        <ele>197.0</ele>
        <time>2019-10-19T14:30:34Z</time>
      </trkpt>
      <trkpt lat="38.2975530" lon="-0.6997170">
        <ele>197.4</ele>
        <time>2019-10-19T14:30:35Z</time>
      </trkpt>
      <trkpt lat="38.2976080" lon="-0.6996950">
        <ele>197.8</ele>
        <time>2019-10-19T14:30:36Z</time>
      </trkpt>
      <trkpt lat="38.2976630" lon="-0.6996800">
        <ele>198.4</ele>
        <time>2019-10-19T14:30:37Z</time>
      </trkpt>
      <trkpt lat="38.2977180" lon="-0.6996700">
        <ele>198.6</ele>
        <time>2019-10-19T14:30:38Z</time>
      </trkpt>
      <trkpt lat="38.2977750" lon="-0.6996650">
        <ele>199.0</ele>
        <time>2019-10-19T14:30:39Z</time>
      </trkpt>
      <trkpt lat="38.2978350" lon="-0.6996670">
        <ele>199.4</ele>
        <time>2019-10-19T14:30:40Z</time>
      </trkpt>
      <trkpt lat="38.2978910" lon="-0.6996750">
        <ele>199.4</ele>
        <time>2019-10-19T14:30:41Z</time>
      </trkpt>
      <trkpt lat="38.2979490" lon="-0.6996900">
        <ele>199.6</ele>
        <time>2019-10-19T14:30:42Z</time>
      </trkpt>
      <trkpt lat="38.2980080" lon="-0.6997110">
        <ele>199.8</ele>
        <time>2019-10-19T14:30:43Z</time>
      </trkpt>
      <trkpt lat="38.2980690" lon="-0.6997340">
        <ele>200.0</ele>
        <time>2019-10-19T14:30:44Z</time>
      </trkpt>
      <trkpt lat="38.2981300" lon="-0.6997510">
        <ele>200.2</ele>
        <time>2019-10-19T14:30:45Z</time>
      </trkpt>
      <trkpt lat="38.2981900" lon="-0.6997520">
        <ele>200.4</ele>
        <time>2019-10-19T14:30:46Z</time>
      </trkpt>
      <trkpt lat="38.2982500" lon="-0.6997370">
        <ele>200.6</ele>
        <time>2019-10-19T14:30:47Z</time>
      </trkpt>
      <trkpt lat="38.2983080" lon="-0.6997110">
        <ele>201.0</ele>
        <time>2019-10-19T14:30:48Z</time>
      </trkpt>
      <trkpt lat="38.2983640" lon="-0.6996820">
        <ele>201.2</ele>
        <time>2019-10-19T14:30:49Z</time>
      </trkpt>
      <trkpt lat="38.2984200" lon="-0.6996530">
        <ele>201.6</ele>
        <time>2019-10-19T14:30:50Z</time>
      </trkpt>
      <trkpt lat="38.2984750" lon="-0.6996220">
        <ele>201.8</ele>
        <time>2019-10-19T14:30:51Z</time>
      </trkpt>
      <trkpt lat="38.2985300" lon="-0.6995910">
        <ele>202.2</ele>
        <time>2019-10-19T14:30:52Z</time>
      </trkpt>
      <trkpt lat="38.2985840" lon="-0.6995600">
        <ele>202.4</ele>
        <time>2019-10-19T14:30:53Z</time>
      </trkpt>
      <trkpt lat="38.2986380" lon="-0.6995300">
        <ele>202.8</ele>
        <time>2019-10-19T14:30:54Z</time>
      </trkpt>
      <trkpt lat="38.2986910" lon="-0.6995010">
        <ele>203.2</ele>
        <time>2019-10-19T14:30:55Z</time>
      </trkpt>
      <trkpt lat="38.2987430" lon="-0.6994710">
        <ele>203.4</ele>
        <time>2019-10-19T14:30:56Z</time>
      </trkpt>
      <trkpt lat="38.2987950" lon="-0.6994410">
        <ele>203.8</ele>
        <time>2019-10-19T14:30:57Z</time>
      </trkpt>
      <trkpt lat="38.2988440" lon="-0.6994100">
        <ele>204.0</ele>
        <time>2019-10-19T14:30:58Z</time>
      </trkpt>
      <trkpt lat="38.2988910" lon="-0.6993760">
        <ele>204.4</ele>
        <time>2019-10-19T14:30:59Z</time>
      </trkpt>
      <trkpt lat="38.2989370" lon="-0.6993400">
        <ele>205.0</ele>
        <time>2019-10-19T14:31:00Z</time>
      </trkpt>
      <trkpt lat="38.2989830" lon="-0.6993010">
        <ele>205.2</ele>
        <time>2019-10-19T14:31:01Z</time>
      </trkpt>
      <trkpt lat="38.2990290" lon="-0.6992650">
        <ele>205.4</ele>
        <time>2019-10-19T14:31:02Z</time>
      </trkpt>
      <trkpt lat="38.2990730" lon="-0.6992260">
        <ele>205.6</ele>
        <time>2019-10-19T14:31:03Z</time>
      </trkpt>
      <trkpt lat="38.2991180" lon="-0.6991860">
        <ele>205.8</ele>
        <time>2019-10-19T14:31:04Z</time>
      </trkpt>
      <trkpt lat="38.2991630" lon="-0.6991480">
        <ele>206.0</ele>
        <time>2019-10-19T14:31:05Z</time>
      </trkpt>
      <trkpt lat="38.2992100" lon="-0.6991120">
        <ele>206.6</ele>
        <time>2019-10-19T14:31:06Z</time>
      </trkpt>
      <trkpt lat="38.2992580" lon="-0.6990790">
        <ele>206.8</ele>
        <time>2019-10-19T14:31:07Z</time>
      </trkpt>
      <trkpt lat="38.2993060" lon="-0.6990450">
        <ele>207.0</ele>
        <time>2019-10-19T14:31:08Z</time>
      </trkpt>
      <trkpt lat="38.2993560" lon="-0.6990100">
        <ele>207.2</ele>
        <time>2019-10-19T14:31:09Z</time>
      </trkpt>
      <trkpt lat="38.2994030" lon="-0.6989710">
        <ele>207.0</ele>
        <time>2019-10-19T14:31:10Z</time>
      </trkpt>
      <trkpt lat="38.2994490" lon="-0.6989290">
        <ele>207.4</ele>
        <time>2019-10-19T14:31:11Z</time>
      </trkpt>
      <trkpt lat="38.2994930" lon="-0.6988840">
        <ele>207.6</ele>
        <time>2019-10-19T14:31:12Z</time>
      </trkpt>
      <trkpt lat="38.2995360" lon="-0.6988390">
        <ele>207.8</ele>
        <time>2019-10-19T14:31:13Z</time>
      </trkpt>
      <trkpt lat="38.2995770" lon="-0.6987920">
        <ele>207.8</ele>
        <time>2019-10-19T14:31:14Z</time>
      </trkpt>
      <trkpt lat="38.2996160" lon="-0.6987410">
        <ele>207.8</ele>
        <time>2019-10-19T14:31:15Z</time>
      </trkpt>
      <trkpt lat="38.2996560" lon="-0.6986860">
        <ele>208.2</ele>
        <time>2019-10-19T14:31:16Z</time>
      </trkpt>
      <trkpt lat="38.2996960" lon="-0.6986280">
        <ele>208.2</ele>
        <time>2019-10-19T14:31:17Z</time>
      </trkpt>
      <trkpt lat="38.2997300" lon="-0.6985680">
        <ele>208.2</ele>
        <time>2019-10-19T14:31:18Z</time>
      </trkpt>
      <trkpt lat="38.2997610" lon="-0.6985090">
        <ele>208.6</ele>
        <time>2019-10-19T14:31:19Z</time>
      </trkpt>
      <trkpt lat="38.2997870" lon="-0.6984530">
        <ele>209.0</ele>
        <time>2019-10-19T14:31:20Z</time>
      </trkpt>
      <trkpt lat="38.2998130" lon="-0.6984020">
        <ele>209.8</ele>
        <time>2019-10-19T14:31:21Z</time>
      </trkpt>
      <trkpt lat="38.2998360" lon="-0.6983550">
        <ele>210.2</ele>
        <time>2019-10-19T14:31:22Z</time>
      </trkpt>
      <trkpt lat="38.2998590" lon="-0.6983120">
        <ele>210.6</ele>
        <time>2019-10-19T14:31:23Z</time>
      </trkpt>
      <trkpt lat="38.2998840" lon="-0.6982740">
        <ele>210.8</ele>
        <time>2019-10-19T14:31:24Z</time>
      </trkpt>
      <trkpt lat="38.2999080" lon="-0.6982350">
        <ele>211.0</ele>
        <time>2019-10-19T14:31:25Z</time>
      </trkpt>
      <trkpt lat="38.2999330" lon="-0.6981930">
        <ele>211.2</ele>
        <time>2019-10-19T14:31:26Z</time>
      </trkpt>
      <trkpt lat="38.2999590" lon="-0.6981510">
        <ele>211.6</ele>
        <time>2019-10-19T14:31:27Z</time>
      </trkpt>
      <trkpt lat="38.2999870" lon="-0.6981080">
        <ele>211.8</ele>
        <time>2019-10-19T14:31:28Z</time>
      </trkpt>
      <trkpt lat="38.3000160" lon="-0.6980660">
        <ele>211.8</ele>
        <time>2019-10-19T14:31:29Z</time>
      </trkpt>
      <trkpt lat="38.3000460" lon="-0.6980210">
        <ele>212.0</ele>
        <time>2019-10-19T14:31:30Z</time>
      </trkpt>
      <trkpt lat="38.3000730" lon="-0.6979710">
        <ele>212.2</ele>
        <time>2019-10-19T14:31:31Z</time>
      </trkpt>
      <trkpt lat="38.3000980" lon="-0.6979200">
        <ele>212.4</ele>
        <time>2019-10-19T14:31:32Z</time>
      </trkpt>
      <trkpt lat="38.3001240" lon="-0.6978690">
        <ele>212.6</ele>
        <time>2019-10-19T14:31:33Z</time>
      </trkpt>
      <trkpt lat="38.3001490" lon="-0.6978180">
        <ele>212.8</ele>
        <time>2019-10-19T14:31:34Z</time>
      </trkpt>
      <trkpt lat="38.3001720" lon="-0.6977670">
        <ele>213.0</ele>
        <time>2019-10-19T14:31:35Z</time>
      </trkpt>
      <trkpt lat="38.3001970" lon="-0.6977150">
        <ele>213.2</ele>
        <time>2019-10-19T14:31:36Z</time>
      </trkpt>
      <trkpt lat="38.3002220" lon="-0.6976630">
        <ele>213.6</ele>
        <time>2019-10-19T14:31:37Z</time>
      </trkpt>
      <trkpt lat="38.3002420" lon="-0.6976130">
        <ele>213.8</ele>
        <time>2019-10-19T14:31:38Z</time>
      </trkpt>
      <trkpt lat="38.3002640" lon="-0.6975620">
        <ele>214.2</ele>
        <time>2019-10-19T14:31:39Z</time>
      </trkpt>
      <trkpt lat="38.3002840" lon="-0.6975150">
        <ele>214.8</ele>
        <time>2019-10-19T14:31:40Z</time>
      </trkpt>
      <trkpt lat="38.3003020" lon="-0.6974730">
        <ele>215.0</ele>
        <time>2019-10-19T14:31:41Z</time>
      </trkpt>
      <trkpt lat="38.3003180" lon="-0.6974330">
        <ele>215.6</ele>
        <time>2019-10-19T14:31:42Z</time>
      </trkpt>
      <trkpt lat="38.3003340" lon="-0.6973950">
        <ele>216.0</ele>
        <time>2019-10-19T14:31:43Z</time>
      </trkpt>
      <trkpt lat="38.3003550" lon="-0.6973570">
        <ele>216.2</ele>
        <time>2019-10-19T14:31:44Z</time>
      </trkpt>
      <trkpt lat="38.3003800" lon="-0.6973190">
        <ele>216.2</ele>
        <time>2019-10-19T14:31:45Z</time>
      </trkpt>
      <trkpt lat="38.3004020" lon="-0.6972820">
        <ele>216.6</ele>
        <time>2019-10-19T14:31:46Z</time>
      </trkpt>
      <trkpt lat="38.3004200" lon="-0.6972410">
        <ele>216.8</ele>
        <time>2019-10-19T14:31:47Z</time>
      </trkpt>
      <trkpt lat="38.3004350" lon="-0.6971950">
        <ele>217.0</ele>
        <time>2019-10-19T14:31:48Z</time>
      </trkpt>
      <trkpt lat="38.3004510" lon="-0.6971460">
        <ele>217.4</ele>
        <time>2019-10-19T14:31:49Z</time>
      </trkpt>
      <trkpt lat="38.3004680" lon="-0.6970930">
        <ele>217.8</ele>
        <time>2019-10-19T14:31:50Z</time>
      </trkpt>
      <trkpt lat="38.3004840" lon="-0.6970400">
        <ele>218.0</ele>
        <time>2019-10-19T14:31:51Z</time>
      </trkpt>
      <trkpt lat="38.3005020" lon="-0.6969860">
        <ele>218.0</ele>
        <time>2019-10-19T14:31:52Z</time>
      </trkpt>
      <trkpt lat="38.3005210" lon="-0.6969310">
        <ele>218.4</ele>
        <time>2019-10-19T14:31:53Z</time>
      </trkpt>
      <trkpt lat="38.3005420" lon="-0.6968760">
        <ele>218.6</ele>
        <time>2019-10-19T14:31:54Z</time>
      </trkpt>
      <trkpt lat="38.3005680" lon="-0.6968270">
        <ele>219.0</ele>
        <time>2019-10-19T14:31:55Z</time>
      </trkpt>
      <trkpt lat="38.3005950" lon="-0.6967780">
        <ele>219.2</ele>
        <time>2019-10-19T14:31:56Z</time>
      </trkpt>
      <trkpt lat="38.3006160" lon="-0.6967280">
        <ele>219.2</ele>
        <time>2019-10-19T14:31:57Z</time>
      </trkpt>
      <trkpt lat="38.3006390" lon="-0.6966780">
        <ele>219.4</ele>
        <time>2019-10-19T14:31:58Z</time>
      </trkpt>
      <trkpt lat="38.3006650" lon="-0.6966300">
        <ele>219.8</ele>
        <time>2019-10-19T14:31:59Z</time>
      </trkpt>
      <trkpt lat="38.3006910" lon="-0.6965820">
        <ele>220.2</ele>
        <time>2019-10-19T14:32:00Z</time>
      </trkpt>
      <trkpt lat="38.3007130" lon="-0.6965310">
        <ele>220.8</ele>
        <time>2019-10-19T14:32:01Z</time>
      </trkpt>
      <trkpt lat="38.3007350" lon="-0.6964780">
        <ele>220.8</ele>
        <time>2019-10-19T14:32:02Z</time>
      </trkpt>
      <trkpt lat="38.3007570" lon="-0.6964250">
        <ele>221.0</ele>
        <time>2019-10-19T14:32:03Z</time>
      </trkpt>
      <trkpt lat="38.3007770" lon="-0.6963720">
        <ele>221.4</ele>
        <time>2019-10-19T14:32:04Z</time>
      </trkpt>
      <trkpt lat="38.3007970" lon="-0.6963230">
        <ele>221.8</ele>
        <time>2019-10-19T14:32:05Z</time>
      </trkpt>
      <trkpt lat="38.3008180" lon="-0.6962740">
        <ele>222.0</ele>
        <time>2019-10-19T14:32:06Z</time>
      </trkpt>
      <trkpt lat="38.3008380" lon="-0.6962260">
        <ele>222.2</ele>
        <time>2019-10-19T14:32:07Z</time>
      </trkpt>
      <trkpt lat="38.3008590" lon="-0.6961790">
        <ele>222.4</ele>
        <time>2019-10-19T14:32:08Z</time>
      </trkpt>
      <trkpt lat="38.3008790" lon="-0.6961330">
        <ele>222.8</ele>
        <time>2019-10-19T14:32:09Z</time>
      </trkpt>
      <trkpt lat="38.3008980" lon="-0.6960870">
        <ele>223.0</ele>
        <time>2019-10-19T14:32:10Z</time>
      </trkpt>
      <trkpt lat="38.3009160" lon="-0.6960420">
        <ele>223.0</ele>
        <time>2019-10-19T14:32:11Z</time>
      </trkpt>
      <trkpt lat="38.3009370" lon="-0.6959940">
        <ele>223.4</ele>
        <time>2019-10-19T14:32:12Z</time>
      </trkpt>
      <trkpt lat="38.3009590" lon="-0.6959430">
        <ele>223.4</ele>
        <time>2019-10-19T14:32:13Z</time>
      </trkpt>
      <trkpt lat="38.3009810" lon="-0.6958960">
        <ele>223.6</ele>
        <time>2019-10-19T14:32:14Z</time>
      </trkpt>
      <trkpt lat="38.3010040" lon="-0.6958490">
        <ele>223.8</ele>
        <time>2019-10-19T14:32:15Z</time>
      </trkpt>
      <trkpt lat="38.3010270" lon="-0.6958010">
        <ele>224.2</ele>
        <time>2019-10-19T14:32:16Z</time>
      </trkpt>
      <trkpt lat="38.3010470" lon="-0.6957560">
        <ele>224.6</ele>
        <time>2019-10-19T14:32:17Z</time>
      </trkpt>
      <trkpt lat="38.3010660" lon="-0.6957130">
        <ele>225.2</ele>
        <time>2019-10-19T14:32:18Z</time>
      </trkpt>
      <trkpt lat="38.3010850" lon="-0.6956740">
        <ele>225.8</ele>
        <time>2019-10-19T14:32:19Z</time>
      </trkpt>
      <trkpt lat="38.3011020" lon="-0.6956380">
        <ele>226.2</ele>
        <time>2019-10-19T14:32:20Z</time>
      </trkpt>
      <trkpt lat="38.3011190" lon="-0.6956040">
        <ele>226.8</ele>
        <time>2019-10-19T14:32:21Z</time>
      </trkpt>
      <trkpt lat="38.3011340" lon="-0.6955670">
        <ele>227.2</ele>
        <time>2019-10-19T14:32:22Z</time>
      </trkpt>
      <trkpt lat="38.3011470" lon="-0.6955340">
        <ele>227.4</ele>
        <time>2019-10-19T14:32:23Z</time>
      </trkpt>
      <trkpt lat="38.3011610" lon="-0.6955020">
        <ele>227.6</ele>
        <time>2019-10-19T14:32:24Z</time>
      </trkpt>
      <trkpt lat="38.3011760" lon="-0.6954730">
        <ele>228.0</ele>
        <time>2019-10-19T14:32:25Z</time>
      </trkpt>
      <trkpt lat="38.3011880" lon="-0.6954400">
        <ele>228.2</ele>
        <time>2019-10-19T14:32:26Z</time>
      </trkpt>
      <trkpt lat="38.3012000" lon="-0.6954050">
        <ele>228.4</ele>
        <time>2019-10-19T14:32:27Z</time>
      </trkpt>
      <trkpt lat="38.3012120" lon="-0.6953670">
        <ele>228.6</ele>
        <time>2019-10-19T14:32:28Z</time>
      </trkpt>
      <trkpt lat="38.3012260" lon="-0.6953300">
        <ele>229.0</ele>
        <time>2019-10-19T14:32:29Z</time>
      </trkpt>
      <trkpt lat="38.3012400" lon="-0.6952910">
        <ele>229.2</ele>
        <time>2019-10-19T14:32:30Z</time>
      </trkpt>
      <trkpt lat="38.3012520" lon="-0.6952510">
        <ele>229.4</ele>
        <time>2019-10-19T14:32:31Z</time>
      </trkpt>
      <trkpt lat="38.3012620" lon="-0.6952090">
        <ele>229.8</ele>
        <time>2019-10-19T14:32:32Z</time>
      </trkpt>
      <trkpt lat="38.3012680" lon="-0.6951690">
        <ele>230.0</ele>
        <time>2019-10-19T14:32:33Z</time>
      </trkpt>
      <trkpt lat="38.3012730" lon="-0.6951280">
        <ele>230.4</ele>
        <time>2019-10-19T14:32:34Z</time>
      </trkpt>
      <trkpt lat="38.3012790" lon="-0.6950870">
        <ele>230.6</ele>
        <time>2019-10-19T14:32:35Z</time>
      </trkpt>
      <trkpt lat="38.3012870" lon="-0.6950390">
        <ele>230.4</ele>
        <time>2019-10-19T14:32:36Z</time>
      </trkpt>
      <trkpt lat="38.3012970" lon="-0.6949790">
        <ele>230.0</ele>
        <time>2019-10-19T14:32:37Z</time>
      </trkpt>
      <trkpt lat="38.3013040" lon="-0.6949100">
        <ele>229.2</ele>
        <time>2019-10-19T14:32:38Z</time>
      </trkpt>
      <trkpt lat="38.3013130" lon="-0.6948340">
        <ele>228.8</ele>
        <time>2019-10-19T14:32:39Z</time>
      </trkpt>
      <trkpt lat="38.3013230" lon="-0.6947590">
        <ele>228.6</ele>
        <time>2019-10-19T14:32:40Z</time>
      </trkpt>
      <trkpt lat="38.3013310" lon="-0.6946840">
        <ele>228.6</ele>
        <time>2019-10-19T14:32:41Z</time>
      </trkpt>
      <trkpt lat="38.3013380" lon="-0.6946070">
        <ele>228.8</ele>
        <time>2019-10-19T14:32:42Z</time>
      </trkpt>
      <trkpt lat="38.3013450" lon="-0.6945300">
        <ele>229.0</ele>
        <time>2019-10-19T14:32:43Z</time>
      </trkpt>
      <trkpt lat="38.3013540" lon="-0.6944520">
        <ele>228.8</ele>
        <time>2019-10-19T14:32:44Z</time>
      </trkpt>
      <trkpt lat="38.3013660" lon="-0.6943700">
        <ele>228.6</ele>
        <time>2019-10-19T14:32:45Z</time>
      </trkpt>
      <trkpt lat="38.3013810" lon="-0.6942850">
        <ele>228.4</ele>
        <time>2019-10-19T14:32:46Z</time>
      </trkpt>
      <trkpt lat="38.3013950" lon="-0.6942020">
        <ele>228.0</ele>
        <time>2019-10-19T14:32:47Z</time>
      </trkpt>
      <trkpt lat="38.3014100" lon="-0.6941210">
        <ele>228.2</ele>
        <time>2019-10-19T14:32:48Z</time>
      </trkpt>
      <trkpt lat="38.3014240" lon="-0.6940440">
        <ele>228.4</ele>
        <time>2019-10-19T14:32:49Z</time>
      </trkpt>
      <trkpt lat="38.3014380" lon="-0.6939670">
        <ele>228.4</ele>
        <time>2019-10-19T14:32:50Z</time>
      </trkpt>
      <trkpt lat="38.3014430" lon="-0.6938910">
        <ele>228.8</ele>
        <time>2019-10-19T14:32:51Z</time>
      </trkpt>
      <trkpt lat="38.3014320" lon="-0.6938160">
        <ele>228.4</ele>
        <time>2019-10-19T14:32:52Z</time>
      </trkpt>
      <trkpt lat="38.3014160" lon="-0.6937510">
        <ele>228.4</ele>
        <time>2019-10-19T14:32:53Z</time>
      </trkpt>
      <trkpt lat="38.3013970" lon="-0.6936890">
        <ele>227.0</ele>
        <time>2019-10-19T14:32:54Z</time>
      </trkpt>
      <trkpt lat="38.3013720" lon="-0.6936260">
        <ele>226.2</ele>
        <time>2019-10-19T14:32:55Z</time>
      </trkpt>
      <trkpt lat="38.3013460" lon="-0.6935700">
        <ele>225.0</ele>
        <time>2019-10-19T14:32:56Z</time>
      </trkpt>
      <trkpt lat="38.3013220" lon="-0.6935220">
        <ele>224.2</ele>
        <time>2019-10-19T14:32:57Z</time>
      </trkpt>
      <trkpt lat="38.3012940" lon="-0.6934830">
        <ele>222.8</ele>
        <time>2019-10-19T14:32:58Z</time>
      </trkpt>
      <trkpt lat="38.3012710" lon="-0.6934430">
        <ele>221.6</ele>
        <time>2019-10-19T14:32:59Z</time>
      </trkpt>
      <trkpt lat="38.3012440" lon="-0.6933860">
        <ele>221.2</ele>
        <time>2019-10-19T14:33:00Z</time>
      </trkpt>
      <trkpt lat="38.3012240" lon="-0.6933310">
        <ele>220.0</ele>
        <time>2019-10-19T14:33:01Z</time>
      </trkpt>
      <trkpt lat="38.3012230" lon="-0.6932720">
        <ele>219.6</ele>
        <time>2019-10-19T14:33:02Z</time>
      </trkpt>
      <trkpt lat="38.3012150" lon="-0.6932030">
        <ele>219.2</ele>
        <time>2019-10-19T14:33:03Z</time>
      </trkpt>
      <trkpt lat="38.3012040" lon="-0.6931300">
        <ele>218.8</ele>
        <time>2019-10-19T14:33:04Z</time>
      </trkpt>
      <trkpt lat="38.3012050" lon="-0.6930590">
        <ele>218.6</ele>
        <time>2019-10-19T14:33:05Z</time>
      </trkpt>
      <trkpt lat="38.3011950" lon="-0.6930010">
        <ele>218.6</ele>
        <time>2019-10-19T14:33:06Z</time>
      </trkpt>
      <trkpt lat="38.3011660" lon="-0.6929570">
        <ele>218.0</ele>
        <time>2019-10-19T14:33:07Z</time>
      </trkpt>
      <trkpt lat="38.3011360" lon="-0.6929120">
        <ele>217.6</ele>
        <time>2019-10-19T14:33:08Z</time>
      </trkpt>
      <trkpt lat="38.3011040" lon="-0.6928500">
        <ele>216.6</ele>
        <time>2019-10-19T14:33:09Z</time>
      </trkpt>
      <trkpt lat="38.3010710" lon="-0.6927800">
        <ele>215.8</ele>
        <time>2019-10-19T14:33:10Z</time>
      </trkpt>
      <trkpt lat="38.3010460" lon="-0.6927070">
        <ele>215.0</ele>
        <time>2019-10-19T14:33:11Z</time>
      </trkpt>
      <trkpt lat="38.3010420" lon="-0.6926380">
        <ele>215.4</ele>
        <time>2019-10-19T14:33:12Z</time>
      </trkpt>
      <trkpt lat="38.3010560" lon="-0.6925730">
        <ele>215.4</ele>
        <time>2019-10-19T14:33:13Z</time>
      </trkpt>
      <trkpt lat="38.3010660" lon="-0.6925050">
        <ele>215.0</ele>
        <time>2019-10-19T14:33:14Z</time>
      </trkpt>
      <trkpt lat="38.3010670" lon="-0.6924310">
        <ele>214.4</ele>
        <time>2019-10-19T14:33:15Z</time>
      </trkpt>
      <trkpt lat="38.3010650" lon="-0.6923530">
        <ele>214.2</ele>
        <time>2019-10-19T14:33:16Z</time>
      </trkpt>
      <trkpt lat="38.3010580" lon="-0.6922720">
        <ele>214.4</ele>
        <time>2019-10-19T14:33:17Z</time>
      </trkpt>
      <trkpt lat="38.3010320" lon="-0.6921900">
        <ele>212.8</ele>
        <time>2019-10-19T14:33:18Z</time>
      </trkpt>
      <trkpt lat="38.3009880" lon="-0.6921090">
        <ele>211.6</ele>
        <time>2019-10-19T14:33:19Z</time>
      </trkpt>
      <trkpt lat="38.3009450" lon="-0.6920320">
        <ele>211.4</ele>
        <time>2019-10-19T14:33:20Z</time>
      </trkpt>
      <trkpt lat="38.3009090" lon="-0.6919560">
        <ele>211.0</ele>
        <time>2019-10-19T14:33:21Z</time>
      </trkpt>
      <trkpt lat="38.3008770" lon="-0.6918780">
        <ele>210.8</ele>
        <time>2019-10-19T14:33:22Z</time>
      </trkpt>
      <trkpt lat="38.3008450" lon="-0.6917970">
        <ele>210.8</ele>
        <time>2019-10-19T14:33:23Z</time>
      </trkpt>
      <trkpt lat="38.3008210" lon="-0.6917070">
        <ele>210.0</ele>
        <time>2019-10-19T14:33:24Z</time>
      </trkpt>
      <trkpt lat="38.3008070" lon="-0.6916110">
        <ele>209.2</ele>
        <time>2019-10-19T14:33:25Z</time>
      </trkpt>
      <trkpt lat="38.3007950" lon="-0.6915140">
        <ele>208.8</ele>
        <time>2019-10-19T14:33:26Z</time>
      </trkpt>
      <trkpt lat="38.3007830" lon="-0.6914230">
        <ele>208.8</ele>
        <time>2019-10-19T14:33:27Z</time>
      </trkpt>
      <trkpt lat="38.3007570" lon="-0.6913350">
        <ele>208.8</ele>
        <time>2019-10-19T14:33:28Z</time>
      </trkpt>
      <trkpt lat="38.3007260" lon="-0.6912500">
        <ele>208.0</ele>
        <time>2019-10-19T14:33:29Z</time>
      </trkpt>
      <trkpt lat="38.3006970" lon="-0.6911570">
        <ele>206.8</ele>
        <time>2019-10-19T14:33:30Z</time>
      </trkpt>
      <trkpt lat="38.3006760" lon="-0.6910570">
        <ele>206.4</ele>
        <time>2019-10-19T14:33:31Z</time>
      </trkpt>
      <trkpt lat="38.3006650" lon="-0.6909550">
        <ele>205.2</ele>
        <time>2019-10-19T14:33:32Z</time>
      </trkpt>
      <trkpt lat="38.3006520" lon="-0.6908520">
        <ele>205.0</ele>
        <time>2019-10-19T14:33:33Z</time>
      </trkpt>
      <trkpt lat="38.3006340" lon="-0.6907450">
        <ele>203.4</ele>
        <time>2019-10-19T14:33:34Z</time>
      </trkpt>
      <trkpt lat="38.3006200" lon="-0.6906390">
        <ele>203.6</ele>
        <time>2019-10-19T14:33:35Z</time>
      </trkpt>
      <trkpt lat="38.3006190" lon="-0.6905480">
        <ele>203.8</ele>
        <time>2019-10-19T14:33:36Z</time>
      </trkpt>
      <trkpt lat="38.3006310" lon="-0.6904820">
        <ele>203.8</ele>
        <time>2019-10-19T14:33:37Z</time>
      </trkpt>
      <trkpt lat="38.3006550" lon="-0.6904380">
        <ele>204.2</ele>
        <time>2019-10-19T14:33:38Z</time>
      </trkpt>
      <trkpt lat="38.3006890" lon="-0.6904090">
        <ele>204.6</ele>
        <time>2019-10-19T14:33:39Z</time>
      </trkpt>
      <trkpt lat="38.3007300" lon="-0.6903920">
        <ele>204.4</ele>
        <time>2019-10-19T14:33:40Z</time>
      </trkpt>
      <trkpt lat="38.3007770" lon="-0.6903840">
        <ele>204.4</ele>
        <time>2019-10-19T14:33:41Z</time>
      </trkpt>
      <trkpt lat="38.3008270" lon="-0.6903810">
        <ele>204.4</ele>
        <time>2019-10-19T14:33:42Z</time>
      </trkpt>
      <trkpt lat="38.3008810" lon="-0.6903810">
        <ele>204.6</ele>
        <time>2019-10-19T14:33:43Z</time>
      </trkpt>
      <trkpt lat="38.3009370" lon="-0.6903820">
        <ele>204.8</ele>
        <time>2019-10-19T14:33:44Z</time>
      </trkpt>
      <trkpt lat="38.3009950" lon="-0.6903880">
        <ele>204.8</ele>
        <time>2019-10-19T14:33:45Z</time>
      </trkpt>
      <trkpt lat="38.3010550" lon="-0.6903980">
        <ele>204.6</ele>
        <time>2019-10-19T14:33:46Z</time>
      </trkpt>
      <trkpt lat="38.3011200" lon="-0.6904040">
        <ele>204.2</ele>
        <time>2019-10-19T14:33:47Z</time>
      </trkpt>
      <trkpt lat="38.3011900" lon="-0.6904060">
        <ele>204.0</ele>
        <time>2019-10-19T14:33:48Z</time>
      </trkpt>
      <trkpt lat="38.3012620" lon="-0.6904020">
        <ele>203.8</ele>
        <time>2019-10-19T14:33:49Z</time>
      </trkpt>
      <trkpt lat="38.3013360" lon="-0.6903910">
        <ele>203.8</ele>
        <time>2019-10-19T14:33:50Z</time>
      </trkpt>
      <trkpt lat="38.3014110" lon="-0.6903800">
        <ele>203.6</ele>
        <time>2019-10-19T14:33:51Z</time>
      </trkpt>
      <trkpt lat="38.3014860" lon="-0.6903680">
        <ele>203.6</ele>
        <time>2019-10-19T14:33:52Z</time>
      </trkpt>
      <trkpt lat="38.3015640" lon="-0.6903610">
        <ele>203.8</ele>
        <time>2019-10-19T14:33:53Z</time>
      </trkpt>
      <trkpt lat="38.3016420" lon="-0.6903620">
        <ele>204.2</ele>
        <time>2019-10-19T14:33:54Z</time>
      </trkpt>
      <trkpt lat="38.3017190" lon="-0.6903720">
        <ele>204.4</ele>
        <time>2019-10-19T14:33:55Z</time>
      </trkpt>
      <trkpt lat="38.3017970" lon="-0.6903840">
        <ele>205.0</ele>
        <time>2019-10-19T14:33:56Z</time>
      </trkpt>
      <trkpt lat="38.3018760" lon="-0.6903950">
        <ele>205.4</ele>
        <time>2019-10-19T14:33:57Z</time>
      </trkpt>
      <trkpt lat="38.3019560" lon="-0.6904050">
        <ele>205.6</ele>
        <time>2019-10-19T14:33:58Z</time>
      </trkpt>
      <trkpt lat="38.3020360" lon="-0.6904120">
        <ele>206.0</ele>
        <time>2019-10-19T14:33:59Z</time>
      </trkpt>
      <trkpt lat="38.3021160" lon="-0.6904160">
        <ele>206.0</ele>
        <time>2019-10-19T14:34:00Z</time>
      </trkpt>
      <trkpt lat="38.3021940" lon="-0.6904230">
        <ele>206.6</ele>
        <time>2019-10-19T14:34:01Z</time>
      </trkpt>
      <trkpt lat="38.3022660" lon="-0.6904230">
        <ele>207.2</ele>
        <time>2019-10-19T14:34:02Z</time>
      </trkpt>
      <trkpt lat="38.3023370" lon="-0.6904160">
        <ele>207.6</ele>
        <time>2019-10-19T14:34:03Z</time>
      </trkpt>
      <trkpt lat="38.3024040" lon="-0.6904060">
        <ele>207.8</ele>
        <time>2019-10-19T14:34:04Z</time>
      </trkpt>
      <trkpt lat="38.3024700" lon="-0.6903980">
        <ele>208.2</ele>
        <time>2019-10-19T14:34:05Z</time>
      </trkpt>
      <trkpt lat="38.3025390" lon="-0.6903910">
        <ele>208.2</ele>
        <time>2019-10-19T14:34:06Z</time>
      </trkpt>
      <trkpt lat="38.3026130" lon="-0.6903860">
        <ele>207.8</ele>
        <time>2019-10-19T14:34:07Z</time>
      </trkpt>
      <trkpt lat="38.3026890" lon="-0.6903790">
        <ele>207.6</ele>
        <time>2019-10-19T14:34:08Z</time>
      </trkpt>
      <trkpt lat="38.3027660" lon="-0.6903730">
        <ele>207.6</ele>
        <time>2019-10-19T14:34:09Z</time>
      </trkpt>
      <trkpt lat="38.3028430" lon="-0.6903710">
        <ele>207.8</ele>
        <time>2019-10-19T14:34:10Z</time>
      </trkpt>
      <trkpt lat="38.3029190" lon="-0.6903700">
        <ele>208.0</ele>
        <time>2019-10-19T14:34:11Z</time>
      </trkpt>
      <trkpt lat="38.3029930" lon="-0.6903680">
        <ele>208.2</ele>
        <time>2019-10-19T14:34:12Z</time>
      </trkpt>
      <trkpt lat="38.3030620" lon="-0.6903710">
        <ele>208.8</ele>
        <time>2019-10-19T14:34:13Z</time>
      </trkpt>
      <trkpt lat="38.3031230" lon="-0.6903750">
        <ele>209.4</ele>
        <time>2019-10-19T14:34:14Z</time>
      </trkpt>
      <trkpt lat="38.3031760" lon="-0.6903760">
        <ele>210.6</ele>
        <time>2019-10-19T14:34:15Z</time>
      </trkpt>
      <trkpt lat="38.3032240" lon="-0.6903760">
        <ele>211.0</ele>
        <time>2019-10-19T14:34:16Z</time>
      </trkpt>
      <trkpt lat="38.3032720" lon="-0.6903750">
        <ele>211.4</ele>
        <time>2019-10-19T14:34:17Z</time>
      </trkpt>
      <trkpt lat="38.3033130" lon="-0.6903720">
        <ele>211.6</ele>
        <time>2019-10-19T14:34:18Z</time>
      </trkpt>
      <trkpt lat="38.3033530" lon="-0.6903680">
        <ele>212.0</ele>
        <time>2019-10-19T14:34:19Z</time>
      </trkpt>
      <trkpt lat="38.3033930" lon="-0.6903630">
        <ele>212.6</ele>
        <time>2019-10-19T14:34:20Z</time>
      </trkpt>
      <trkpt lat="38.3034340" lon="-0.6903560">
        <ele>213.0</ele>
        <time>2019-10-19T14:34:21Z</time>
      </trkpt>
      <trkpt lat="38.3034750" lon="-0.6903510">
        <ele>213.6</ele>
        <time>2019-10-19T14:34:22Z</time>
      </trkpt>
      <trkpt lat="38.3035130" lon="-0.6903420">
        <ele>214.0</ele>
        <time>2019-10-19T14:34:23Z</time>
      </trkpt>
      <trkpt lat="38.3035510" lon="-0.6903320">
        <ele>214.2</ele>
        <time>2019-10-19T14:34:24Z</time>
      </trkpt>
      <trkpt lat="38.3035890" lon="-0.6903230">
        <ele>214.6</ele>
        <time>2019-10-19T14:34:25Z</time>
      </trkpt>
      <trkpt lat="38.3036290" lon="-0.6903160">
        <ele>215.0</ele>
        <time>2019-10-19T14:34:26Z</time>
      </trkpt>
      <trkpt lat="38.3036730" lon="-0.6903120">
        <ele>215.2</ele>
        <time>2019-10-19T14:34:27Z</time>
      </trkpt>
      <trkpt lat="38.3037180" lon="-0.6903080">
        <ele>215.8</ele>
        <time>2019-10-19T14:34:28Z</time>
      </trkpt>
      <trkpt lat="38.3037600" lon="-0.6903070">
        <ele>215.8</ele>
        <time>2019-10-19T14:34:29Z</time>
      </trkpt>
      <trkpt lat="38.3038050" lon="-0.6903080">
        <ele>215.6</ele>
        <time>2019-10-19T14:34:30Z</time>
      </trkpt>
      <trkpt lat="38.3038520" lon="-0.6903070">
        <ele>216.0</ele>
        <time>2019-10-19T14:34:31Z</time>
      </trkpt>
      <trkpt lat="38.3039020" lon="-0.6903050">
        <ele>216.0</ele>
        <time>2019-10-19T14:34:32Z</time>
      </trkpt>
      <trkpt lat="38.3039500" lon="-0.6903000">
        <ele>216.4</ele>
        <time>2019-10-19T14:34:33Z</time>
      </trkpt>
      <trkpt lat="38.3039980" lon="-0.6902990">
        <ele>216.8</ele>
        <time>2019-10-19T14:34:34Z</time>
      </trkpt>
      <trkpt lat="38.3040480" lon="-0.6903020">
        <ele>217.0</ele>
        <time>2019-10-19T14:34:35Z</time>
      </trkpt>
      <trkpt lat="38.3040940" lon="-0.6903080">
        <ele>217.2</ele>
        <time>2019-10-19T14:34:36Z</time>
      </trkpt>
      <trkpt lat="38.3041400" lon="-0.6903170">
        <ele>217.8</ele>
        <time>2019-10-19T14:34:37Z</time>
      </trkpt>
      <trkpt lat="38.3041820" lon="-0.6903260">
        <ele>218.0</ele>
        <time>2019-10-19T14:34:38Z</time>
      </trkpt>
      <trkpt lat="38.3042250" lon="-0.6903330">
        <ele>218.2</ele>
        <time>2019-10-19T14:34:39Z</time>
      </trkpt>
      <trkpt lat="38.3042680" lon="-0.6903410">
        <ele>218.4</ele>
        <time>2019-10-19T14:34:40Z</time>
      </trkpt>
      <trkpt lat="38.3043110" lon="-0.6903470">
        <ele>218.6</ele>
        <time>2019-10-19T14:34:41Z</time>
      </trkpt>
      <trkpt lat="38.3043560" lon="-0.6903590">
        <ele>218.8</ele>
        <time>2019-10-19T14:34:42Z</time>
      </trkpt>
      <trkpt lat="38.3044020" lon="-0.6903710">
        <ele>219.0</ele>
        <time>2019-10-19T14:34:43Z</time>
      </trkpt>
      <trkpt lat="38.3044490" lon="-0.6903810">
        <ele>219.2</ele>
        <time>2019-10-19T14:34:44Z</time>
      </trkpt>
      <trkpt lat="38.3044980" lon="-0.6903880">
        <ele>219.4</ele>
        <time>2019-10-19T14:34:45Z</time>
      </trkpt>
      <trkpt lat="38.3045480" lon="-0.6903950">
        <ele>219.2</ele>
        <time>2019-10-19T14:34:46Z</time>
      </trkpt>
      <trkpt lat="38.3046000" lon="-0.6904010">
        <ele>219.4</ele>
        <time>2019-10-19T14:34:47Z</time>
      </trkpt>
      <trkpt lat="38.3046510" lon="-0.6904080">
        <ele>219.6</ele>
        <time>2019-10-19T14:34:48Z</time>
      </trkpt>
      <trkpt lat="38.3047030" lon="-0.6904120">
        <ele>219.8</ele>
        <time>2019-10-19T14:34:49Z</time>
      </trkpt>
      <trkpt lat="38.3047540" lon="-0.6904150">
        <ele>219.8</ele>
        <time>2019-10-19T14:34:50Z</time>
      </trkpt>
      <trkpt lat="38.3048080" lon="-0.6904150">
        <ele>219.8</ele>
        <time>2019-10-19T14:34:51Z</time>
      </trkpt>
      <trkpt lat="38.3048620" lon="-0.6904160">
        <ele>220.0</ele>
        <time>2019-10-19T14:34:52Z</time>
      </trkpt>
      <trkpt lat="38.3049160" lon="-0.6904180">
        <ele>220.2</ele>
        <time>2019-10-19T14:34:53Z</time>
      </trkpt>
      <trkpt lat="38.3049720" lon="-0.6904200">
        <ele>220.2</ele>
        <time>2019-10-19T14:34:54Z</time>
      </trkpt>
      <trkpt lat="38.3050290" lon="-0.6904210">
        <ele>220.0</ele>
        <time>2019-10-19T14:34:55Z</time>
      </trkpt>
      <trkpt lat="38.3050890" lon="-0.6904230">
        <ele>219.8</ele>
        <time>2019-10-19T14:34:56Z</time>
      </trkpt>
      <trkpt lat="38.3051500" lon="-0.6904210">
        <ele>219.6</ele>
        <time>2019-10-19T14:34:57Z</time>
      </trkpt>
      <trkpt lat="38.3052120" lon="-0.6904110">
        <ele>219.8</ele>
        <time>2019-10-19T14:34:58Z</time>
      </trkpt>
      <trkpt lat="38.3052720" lon="-0.6903950">
        <ele>220.0</ele>
        <time>2019-10-19T14:34:59Z</time>
      </trkpt>
      <trkpt lat="38.3053290" lon="-0.6903780">
        <ele>220.0</ele>
        <time>2019-10-19T14:35:00Z</time>
      </trkpt>
      <trkpt lat="38.3053850" lon="-0.6903660">
        <ele>220.4</ele>
        <time>2019-10-19T14:35:01Z</time>
      </trkpt>
      <trkpt lat="38.3054380" lon="-0.6903550">
        <ele>220.6</ele>
        <time>2019-10-19T14:35:02Z</time>
      </trkpt>
      <trkpt lat="38.3054870" lon="-0.6903400">
        <ele>221.0</ele>
        <time>2019-10-19T14:35:03Z</time>
      </trkpt>
      <trkpt lat="38.3055290" lon="-0.6903260">
        <ele>221.6</ele>
        <time>2019-10-19T14:35:04Z</time>
      </trkpt>
      <trkpt lat="38.3055660" lon="-0.6903150">
        <ele>221.8</ele>
        <time>2019-10-19T14:35:05Z</time>
      </trkpt>
      <trkpt lat="38.3055990" lon="-0.6903060">
        <ele>222.2</ele>
        <time>2019-10-19T14:35:06Z</time>
      </trkpt>
      <trkpt lat="38.3056330" lon="-0.6902970">
        <ele>222.6</ele>
        <time>2019-10-19T14:35:07Z</time>
      </trkpt>
      <trkpt lat="38.3056660" lon="-0.6902840">
        <ele>222.8</ele>
        <time>2019-10-19T14:35:08Z</time>
      </trkpt>
      <trkpt lat="38.3056990" lon="-0.6902640">
        <ele>223.2</ele>
        <time>2019-10-19T14:35:09Z</time>
      </trkpt>
      <trkpt lat="38.3057330" lon="-0.6902420">
        <ele>223.2</ele>
        <time>2019-10-19T14:35:10Z</time>
      </trkpt>
      <trkpt lat="38.3057670" lon="-0.6902230">
        <ele>223.8</ele>
        <time>2019-10-19T14:35:11Z</time>
      </trkpt>
      <trkpt lat="38.3058040" lon="-0.6902170">
        <ele>224.0</ele>
        <time>2019-10-19T14:35:12Z</time>
      </trkpt>
      <trkpt lat="38.3058430" lon="-0.6902240">
        <ele>224.2</ele>
        <time>2019-10-19T14:35:13Z</time>
      </trkpt>
      <trkpt lat="38.3058820" lon="-0.6902330">
        <ele>224.4</ele>
        <time>2019-10-19T14:35:14Z</time>
      </trkpt>
      <trkpt lat="38.3059210" lon="-0.6902450">
        <ele>224.6</ele>
        <time>2019-10-19T14:35:15Z</time>
      </trkpt>
      <trkpt lat="38.3059580" lon="-0.6902580">
        <ele>225.0</ele>
        <time>2019-10-19T14:35:16Z</time>
      </trkpt>
      <trkpt lat="38.3059970" lon="-0.6902680">
        <ele>225.2</ele>
        <time>2019-10-19T14:35:17Z</time>
      </trkpt>
      <trkpt lat="38.3060380" lon="-0.6902750">
        <ele>225.6</ele>
        <time>2019-10-19T14:35:18Z</time>
      </trkpt>
      <trkpt lat="38.3060800" lon="-0.6902810">
        <ele>225.8</ele>
        <time>2019-10-19T14:35:19Z</time>
      </trkpt>
      <trkpt lat="38.3061200" lon="-0.6902860">
        <ele>226.2</ele>
        <time>2019-10-19T14:35:20Z</time>
      </trkpt>
      <trkpt lat="38.3061600" lon="-0.6902930">
        <ele>226.6</ele>
        <time>2019-10-19T14:35:21Z</time>
      </trkpt>
      <trkpt lat="38.3061970" lon="-0.6903010">
        <ele>227.2</ele>
        <time>2019-10-19T14:35:22Z</time>
      </trkpt>
      <trkpt lat="38.3062340" lon="-0.6903160">
        <ele>227.4</ele>
        <time>2019-10-19T14:35:23Z</time>
      </trkpt>
      <trkpt lat="38.3062710" lon="-0.6903370">
        <ele>227.8</ele>
        <time>2019-10-19T14:35:24Z</time>
      </trkpt>
      <trkpt lat="38.3063070" lon="-0.6903620">
        <ele>228.0</ele>
        <time>2019-10-19T14:35:25Z</time>
      </trkpt>
      <trkpt lat="38.3063410" lon="-0.6903910">
        <ele>228.0</ele>
        <time>2019-10-19T14:35:26Z</time>
      </trkpt>
      <trkpt lat="38.3063770" lon="-0.6904230">
        <ele>228.4</ele>
        <time>2019-10-19T14:35:27Z</time>
      </trkpt>
      <trkpt lat="38.3064140" lon="-0.6904570">
        <ele>228.4</ele>
        <time>2019-10-19T14:35:28Z</time>
      </trkpt>
      <trkpt lat="38.3064510" lon="-0.6904940">
        <ele>228.4</ele>
        <time>2019-10-19T14:35:29Z</time>
      </trkpt>
      <trkpt lat="38.3064870" lon="-0.6905350">
        <ele>228.4</ele>
        <time>2019-10-19T14:35:30Z</time>
      </trkpt>
      <trkpt lat="38.3065240" lon="-0.6905750">
        <ele>228.8</ele>
        <time>2019-10-19T14:35:31Z</time>
      </trkpt>
      <trkpt lat="38.3065660" lon="-0.6906080">
        <ele>228.8</ele>
        <time>2019-10-19T14:35:32Z</time>
      </trkpt>
      <trkpt lat="38.3066120" lon="-0.6906250">
        <ele>229.0</ele>
        <time>2019-10-19T14:35:33Z</time>
      </trkpt>
      <trkpt lat="38.3066600" lon="-0.6906280">
        <ele>229.2</ele>
        <time>2019-10-19T14:35:34Z</time>
      </trkpt>
      <trkpt lat="38.3067070" lon="-0.6906180">
        <ele>229.6</ele>
        <time>2019-10-19T14:35:35Z</time>
      </trkpt>
      <trkpt lat="38.3067470" lon="-0.6905970">
        <ele>230.0</ele>
        <time>2019-10-19T14:35:36Z</time>
      </trkpt>
      <trkpt lat="38.3067830" lon="-0.6905750">
        <ele>230.8</ele>
        <time>2019-10-19T14:35:37Z</time>
      </trkpt>
      <trkpt lat="38.3068200" lon="-0.6905660">
        <ele>231.2</ele>
        <time>2019-10-19T14:35:38Z</time>
      </trkpt>
      <trkpt lat="38.3068570" lon="-0.6905720">
        <ele>231.4</ele>
        <time>2019-10-19T14:35:39Z</time>
      </trkpt>
      <trkpt lat="38.3068950" lon="-0.6905940">
        <ele>231.4</ele>
        <time>2019-10-19T14:35:40Z</time>
      </trkpt>
      <trkpt lat="38.3069380" lon="-0.6906170">
        <ele>231.2</ele>
        <time>2019-10-19T14:35:41Z</time>
      </trkpt>
      <trkpt lat="38.3069910" lon="-0.6906300">
        <ele>230.8</ele>
        <time>2019-10-19T14:35:42Z</time>
      </trkpt>
      <trkpt lat="38.3070500" lon="-0.6906250">
        <ele>230.2</ele>
        <time>2019-10-19T14:35:43Z</time>
      </trkpt>
      <trkpt lat="38.3071100" lon="-0.6906020">
        <ele>229.8</ele>
        <time>2019-10-19T14:35:44Z</time>
      </trkpt>
      <trkpt lat="38.3071680" lon="-0.6905940">
        <ele>229.4</ele>
        <time>2019-10-19T14:35:45Z</time>
      </trkpt>
      <trkpt lat="38.3072210" lon="-0.6906140">
        <ele>229.4</ele>
        <time>2019-10-19T14:35:46Z</time>
      </trkpt>
      <trkpt lat="38.3072650" lon="-0.6906540">
        <ele>229.0</ele>
        <time>2019-10-19T14:35:47Z</time>
      </trkpt>
      <trkpt lat="38.3072950" lon="-0.6907050">
        <ele>229.2</ele>
        <time>2019-10-19T14:35:48Z</time>
      </trkpt>
      <trkpt lat="38.3073190" lon="-0.6907600">
        <ele>229.8</ele>
        <time>2019-10-19T14:35:49Z</time>
      </trkpt>
      <trkpt lat="38.3073420" lon="-0.6908130">
        <ele>230.4</ele>
        <time>2019-10-19T14:35:50Z</time>
      </trkpt>
      <trkpt lat="38.3073690" lon="-0.6908550">
        <ele>230.8</ele>
        <time>2019-10-19T14:35:51Z</time>
      </trkpt>
      <trkpt lat="38.3073980" lon="-0.6908950">
        <ele>231.2</ele>
        <time>2019-10-19T14:35:52Z</time>
      </trkpt>
      <trkpt lat="38.3074330" lon="-0.6909340">
        <ele>231.2</ele>
        <time>2019-10-19T14:35:53Z</time>
      </trkpt>
      <trkpt lat="38.3074730" lon="-0.6909560">
        <ele>231.0</ele>
        <time>2019-10-19T14:35:54Z</time>
      </trkpt>
      <trkpt lat="38.3075130" lon="-0.6909700">
        <ele>231.4</ele>
        <time>2019-10-19T14:35:55Z</time>
      </trkpt>
      <trkpt lat="38.3075540" lon="-0.6909820">
        <ele>231.8</ele>
        <time>2019-10-19T14:35:56Z</time>
      </trkpt>
      <trkpt lat="38.3075930" lon="-0.6910020">
        <ele>232.2</ele>
        <time>2019-10-19T14:35:57Z</time>
      </trkpt>
      <trkpt lat="38.3076300" lon="-0.6910270">
        <ele>232.4</ele>
        <time>2019-10-19T14:35:58Z</time>
      </trkpt>
      <trkpt lat="38.3076640" lon="-0.6910590">
        <ele>232.6</ele>
        <time>2019-10-19T14:35:59Z</time>
      </trkpt>
      <trkpt lat="38.3076980" lon="-0.6910950">
        <ele>232.8</ele>
        <time>2019-10-19T14:36:00Z</time>
      </trkpt>
      <trkpt lat="38.3077300" lon="-0.6911370">
        <ele>233.4</ele>
        <time>2019-10-19T14:36:01Z</time>
      </trkpt>
      <trkpt lat="38.3077630" lon="-0.6911780">
        <ele>233.6</ele>
        <time>2019-10-19T14:36:02Z</time>
      </trkpt>
      <trkpt lat="38.3077950" lon="-0.6912210">
        <ele>234.0</ele>
        <time>2019-10-19T14:36:03Z</time>
      </trkpt>
      <trkpt lat="38.3078270" lon="-0.6912690">
        <ele>234.2</ele>
        <time>2019-10-19T14:36:04Z</time>
      </trkpt>
      <trkpt lat="38.3078580" lon="-0.6913180">
        <ele>234.4</ele>
        <time>2019-10-19T14:36:05Z</time>
      </trkpt>
      <trkpt lat="38.3078910" lon="-0.6913630">
        <ele>234.6</ele>
        <time>2019-10-19T14:36:06Z</time>
      </trkpt>
      <trkpt lat="38.3079250" lon="-0.6914060">
        <ele>234.8</ele>
        <time>2019-10-19T14:36:07Z</time>
      </trkpt>
      <trkpt lat="38.3079590" lon="-0.6914430">
        <ele>235.6</ele>
        <time>2019-10-19T14:36:08Z</time>
      </trkpt>
      <trkpt lat="38.3079950" lon="-0.6914790">
        <ele>235.8</ele>
        <time>2019-10-19T14:36:09Z</time>
      </trkpt>
      <trkpt lat="38.3080330" lon="-0.6915120">
        <ele>235.8</ele>
        <time>2019-10-19T14:36:10Z</time>
      </trkpt>
      <trkpt lat="38.3080750" lon="-0.6915400">
        <ele>236.2</ele>
        <time>2019-10-19T14:36:11Z</time>
      </trkpt>
      <trkpt lat="38.3081230" lon="-0.6915580">
        <ele>236.0</ele>
        <time>2019-10-19T14:36:12Z</time>
      </trkpt>
      <trkpt lat="38.3081760" lon="-0.6915590">
        <ele>235.6</ele>
        <time>2019-10-19T14:36:13Z</time>
      </trkpt>
      <trkpt lat="38.3082300" lon="-0.6915490">
        <ele>235.8</ele>
        <time>2019-10-19T14:36:14Z</time>
      </trkpt>
      <trkpt lat="38.3082840" lon="-0.6915350">
        <ele>235.8</ele>
        <time>2019-10-19T14:36:15Z</time>
      </trkpt>
      <trkpt lat="38.3083330" lon="-0.6915280">
        <ele>236.4</ele>
        <time>2019-10-19T14:36:16Z</time>
      </trkpt>
      <trkpt lat="38.3083750" lon="-0.6915270">
        <ele>237.0</ele>
        <time>2019-10-19T14:36:17Z</time>
      </trkpt>
      <trkpt lat="38.3084100" lon="-0.6915330">
        <ele>237.6</ele>
        <time>2019-10-19T14:36:18Z</time>
      </trkpt>
      <trkpt lat="38.3084400" lon="-0.6915460">
        <ele>238.2</ele>
        <time>2019-10-19T14:36:19Z</time>
      </trkpt>
      <trkpt lat="38.3084700" lon="-0.6915610">
        <ele>238.4</ele>
        <time>2019-10-19T14:36:20Z</time>
      </trkpt>
      <trkpt lat="38.3085010" lon="-0.6915810">
        <ele>238.8</ele>
        <time>2019-10-19T14:36:21Z</time>
      </trkpt>
      <trkpt lat="38.3085310" lon="-0.6916010">
        <ele>239.2</ele>
        <time>2019-10-19T14:36:22Z</time>
      </trkpt>
      <trkpt lat="38.3085610" lon="-0.6916180">
        <ele>239.8</ele>
        <time>2019-10-19T14:36:23Z</time>
      </trkpt>
      <trkpt lat="38.3085910" lon="-0.6916340">
        <ele>240.4</ele>
        <time>2019-10-19T14:36:24Z</time>
      </trkpt>
      <trkpt lat="38.3086220" lon="-0.6916450">
        <ele>240.8</ele>
        <time>2019-10-19T14:36:25Z</time>
      </trkpt>
      <trkpt lat="38.3086550" lon="-0.6916510">
        <ele>241.0</ele>
        <time>2019-10-19T14:36:26Z</time>
      </trkpt>
      <trkpt lat="38.3086900" lon="-0.6916580">
        <ele>241.4</ele>
        <time>2019-10-19T14:36:27Z</time>
      </trkpt>
      <trkpt lat="38.3087250" lon="-0.6916640">
        <ele>241.6</ele>
        <time>2019-10-19T14:36:28Z</time>
      </trkpt>
      <trkpt lat="38.3087620" lon="-0.6916690">
        <ele>241.8</ele>
        <time>2019-10-19T14:36:29Z</time>
      </trkpt>
      <trkpt lat="38.3088020" lon="-0.6916710">
        <ele>241.8</ele>
        <time>2019-10-19T14:36:30Z</time>
      </trkpt>
      <trkpt lat="38.3088470" lon="-0.6916690">
        <ele>241.8</ele>
        <time>2019-10-19T14:36:31Z</time>
      </trkpt>
      <trkpt lat="38.3088940" lon="-0.6916620">
        <ele>241.6</ele>
        <time>2019-10-19T14:36:32Z</time>
      </trkpt>
      <trkpt lat="38.3089410" lon="-0.6916490">
        <ele>242.0</ele>
        <time>2019-10-19T14:36:33Z</time>
      </trkpt>
      <trkpt lat="38.3089890" lon="-0.6916360">
        <ele>242.2</ele>
        <time>2019-10-19T14:36:34Z</time>
      </trkpt>
      <trkpt lat="38.3090360" lon="-0.6916230">
        <ele>242.2</ele>
        <time>2019-10-19T14:36:35Z</time>
      </trkpt>
      <trkpt lat="38.3090820" lon="-0.6916090">
        <ele>242.6</ele>
        <time>2019-10-19T14:36:36Z</time>
      </trkpt>
      <trkpt lat="38.3091280" lon="-0.6915950">
        <ele>242.8</ele>
        <time>2019-10-19T14:36:37Z</time>
      </trkpt>
      <trkpt lat="38.3091730" lon="-0.6915810">
        <ele>243.0</ele>
        <time>2019-10-19T14:36:38Z</time>
      </trkpt>
      <trkpt lat="38.3092170" lon="-0.6915690">
        <ele>243.2</ele>
        <time>2019-10-19T14:36:39Z</time>
      </trkpt>
      <trkpt lat="38.3092620" lon="-0.6915610">
        <ele>243.8</ele>
        <time>2019-10-19T14:36:40Z</time>
      </trkpt>
      <trkpt lat="38.3093070" lon="-0.6915570">
        <ele>243.8</ele>
        <time>2019-10-19T14:36:41Z</time>
      </trkpt>
      <trkpt lat="38.3093520" lon="-0.6915570">
        <ele>244.0</ele>
        <time>2019-10-19T14:36:42Z</time>
      </trkpt>
      <trkpt lat="38.3093940" lon="-0.6915620">
        <ele>244.4</ele>
        <time>2019-10-19T14:36:43Z</time>
      </trkpt>
      <trkpt lat="38.3094330" lon="-0.6915730">
        <ele>244.8</ele>
        <time>2019-10-19T14:36:44Z</time>
      </trkpt>
      <trkpt lat="38.3094700" lon="-0.6915860">
        <ele>245.2</ele>
        <time>2019-10-19T14:36:45Z</time>
      </trkpt>
      <trkpt lat="38.3095080" lon="-0.6915970">
        <ele>245.4</ele>
        <time>2019-10-19T14:36:46Z</time>
      </trkpt>
      <trkpt lat="38.3095460" lon="-0.6916060">
        <ele>245.8</ele>
        <time>2019-10-19T14:36:47Z</time>
      </trkpt>
      <trkpt lat="38.3095830" lon="-0.6916170">
        <ele>246.2</ele>
        <time>2019-10-19T14:36:48Z</time>
      </trkpt>
      <trkpt lat="38.3096200" lon="-0.6916320">
        <ele>246.4</ele>
        <time>2019-10-19T14:36:49Z</time>
      </trkpt>
      <trkpt lat="38.3096580" lon="-0.6916530">
        <ele>246.4</ele>
        <time>2019-10-19T14:36:50Z</time>
      </trkpt>
      <trkpt lat="38.3096980" lon="-0.6916830">
        <ele>246.4</ele>
        <time>2019-10-19T14:36:51Z</time>
      </trkpt>
      <trkpt lat="38.3097350" lon="-0.6917200">
        <ele>246.2</ele>
        <time>2019-10-19T14:36:52Z</time>
      </trkpt>
      <trkpt lat="38.3097720" lon="-0.6917650">
        <ele>246.0</ele>
        <time>2019-10-19T14:36:53Z</time>
      </trkpt>
      <trkpt lat="38.3098080" lon="-0.6918180">
        <ele>245.8</ele>
        <time>2019-10-19T14:36:54Z</time>
      </trkpt>
      <trkpt lat="38.3098460" lon="-0.6918700">
        <ele>245.6</ele>
        <time>2019-10-19T14:36:55Z</time>
      </trkpt>
      <trkpt lat="38.3098870" lon="-0.6919100">
        <ele>246.0</ele>
        <time>2019-10-19T14:36:56Z</time>
      </trkpt>
      <trkpt lat="38.3099290" lon="-0.6919510">
        <ele>245.8</ele>
        <time>2019-10-19T14:36:57Z</time>
      </trkpt>
      <trkpt lat="38.3099690" lon="-0.6919930">
        <ele>246.0</ele>
        <time>2019-10-19T14:36:58Z</time>
      </trkpt>
      <trkpt lat="38.3100100" lon="-0.6920340">
        <ele>246.2</ele>
        <time>2019-10-19T14:36:59Z</time>
      </trkpt>
      <trkpt lat="38.3100530" lon="-0.6920690">
        <ele>246.4</ele>
        <time>2019-10-19T14:37:00Z</time>
      </trkpt>
      <trkpt lat="38.3100990" lon="-0.6921010">
        <ele>246.6</ele>
        <time>2019-10-19T14:37:01Z</time>
      </trkpt>
      <trkpt lat="38.3101460" lon="-0.6921290">
        <ele>246.8</ele>
        <time>2019-10-19T14:37:02Z</time>
      </trkpt>
      <trkpt lat="38.3101950" lon="-0.6921560">
        <ele>247.2</ele>
        <time>2019-10-19T14:37:03Z</time>
      </trkpt>
      <trkpt lat="38.3102420" lon="-0.6921840">
        <ele>247.2</ele>
        <time>2019-10-19T14:37:04Z</time>
      </trkpt>
      <trkpt lat="38.3102870" lon="-0.6922180">
        <ele>247.4</ele>
        <time>2019-10-19T14:37:05Z</time>
      </trkpt>
      <trkpt lat="38.3103280" lon="-0.6922570">
        <ele>247.6</ele>
        <time>2019-10-19T14:37:06Z</time>
      </trkpt>
      <trkpt lat="38.3103630" lon="-0.6923000">
        <ele>247.8</ele>
        <time>2019-10-19T14:37:07Z</time>
      </trkpt>
      <trkpt lat="38.3103890" lon="-0.6923520">
        <ele>248.2</ele>
        <time>2019-10-19T14:37:08Z</time>
      </trkpt>
      <trkpt lat="38.3104000" lon="-0.6924060">
        <ele>248.4</ele>
        <time>2019-10-19T14:37:09Z</time>
      </trkpt>
      <trkpt lat="38.3104020" lon="-0.6924610">
        <ele>248.8</ele>
        <time>2019-10-19T14:37:10Z</time>
      </trkpt>
      <trkpt lat="38.3104040" lon="-0.6925160">
        <ele>249.2</ele>
        <time>2019-10-19T14:37:11Z</time>
      </trkpt>
      <trkpt lat="38.3104060" lon="-0.6925710">
        <ele>249.6</ele>
        <time>2019-10-19T14:37:12Z</time>
      </trkpt>
      <trkpt lat="38.3104100" lon="-0.6926220">
        <ele>249.8</ele>
        <time>2019-10-19T14:37:13Z</time>
      </trkpt>
      <trkpt lat="38.3104210" lon="-0.6926710">
        <ele>250.0</ele>
        <time>2019-10-19T14:37:14Z</time>
      </trkpt>
      <trkpt lat="38.3104390" lon="-0.6927140">
        <ele>250.6</ele>
        <time>2019-10-19T14:37:15Z</time>
      </trkpt>
      <trkpt lat="38.3104650" lon="-0.6927500">
        <ele>250.8</ele>
        <time>2019-10-19T14:37:16Z</time>
      </trkpt>
      <trkpt lat="38.3105000" lon="-0.6927790">
        <ele>250.6</ele>
        <time>2019-10-19T14:37:17Z</time>
      </trkpt>
      <trkpt lat="38.3105410" lon="-0.6928000">
        <ele>251.0</ele>
        <time>2019-10-19T14:37:18Z</time>
      </trkpt>
      <trkpt lat="38.3105840" lon="-0.6928180">
        <ele>251.0</ele>
        <time>2019-10-19T14:37:19Z</time>
      </trkpt>
      <trkpt lat="38.3106250" lon="-0.6928290">
        <ele>250.8</ele>
        <time>2019-10-19T14:37:20Z</time>
      </trkpt>
      <trkpt lat="38.3106640" lon="-0.6928260">
        <ele>251.2</ele>
        <time>2019-10-19T14:37:21Z</time>
      </trkpt>
      <trkpt lat="38.3107010" lon="-0.6928150">
        <ele>251.4</ele>
        <time>2019-10-19T14:37:22Z</time>
      </trkpt>
      <trkpt lat="38.3107420" lon="-0.6928070">
        <ele>251.4</ele>
        <time>2019-10-19T14:37:23Z</time>
      </trkpt>
      <trkpt lat="38.3107870" lon="-0.6928080">
        <ele>251.6</ele>
        <time>2019-10-19T14:37:24Z</time>
      </trkpt>
      <trkpt lat="38.3108300" lon="-0.6928140">
        <ele>251.8</ele>
        <time>2019-10-19T14:37:25Z</time>
      </trkpt>
      <trkpt lat="38.3108770" lon="-0.6928260">
        <ele>252.0</ele>
        <time>2019-10-19T14:37:26Z</time>
      </trkpt>
      <trkpt lat="38.3109230" lon="-0.6928400">
        <ele>252.2</ele>
        <time>2019-10-19T14:37:27Z</time>
      </trkpt>
      <trkpt lat="38.3109680" lon="-0.6928610">
        <ele>252.2</ele>
        <time>2019-10-19T14:37:28Z</time>
      </trkpt>
      <trkpt lat="38.3110100" lon="-0.6928800">
        <ele>252.6</ele>
        <time>2019-10-19T14:37:29Z</time>
      </trkpt>
      <trkpt lat="38.3110510" lon="-0.6928920">
        <ele>253.2</ele>
        <time>2019-10-19T14:37:30Z</time>
      </trkpt>
      <trkpt lat="38.3110880" lon="-0.6929080">
        <ele>253.4</ele>
        <time>2019-10-19T14:37:31Z</time>
      </trkpt>
      <trkpt lat="38.3111210" lon="-0.6929300">
        <ele>254.0</ele>
        <time>2019-10-19T14:37:32Z</time>
      </trkpt>
      <trkpt lat="38.3111550" lon="-0.6929530">
        <ele>254.0</ele>
        <time>2019-10-19T14:37:33Z</time>
      </trkpt>
      <trkpt lat="38.3111860" lon="-0.6929770">
        <ele>254.4</ele>
        <time>2019-10-19T14:37:34Z</time>
      </trkpt>
      <trkpt lat="38.3112180" lon="-0.6930000">
        <ele>254.8</ele>
        <time>2019-10-19T14:37:35Z</time>
      </trkpt>
      <trkpt lat="38.3112530" lon="-0.6930190">
        <ele>255.2</ele>
        <time>2019-10-19T14:37:36Z</time>
      </trkpt>
      <trkpt lat="38.3112890" lon="-0.6930360">
        <ele>255.2</ele>
        <time>2019-10-19T14:37:37Z</time>
      </trkpt>
      <trkpt lat="38.3113170" lon="-0.6930550">
        <ele>255.4</ele>
        <time>2019-10-19T14:37:38Z</time>
      </trkpt>
      <trkpt lat="38.3113370" lon="-0.6930780">
        <ele>255.8</ele>
        <time>2019-10-19T14:37:39Z</time>
      </trkpt>
      <trkpt lat="38.3113570" lon="-0.6931060">
        <ele>256.0</ele>
        <time>2019-10-19T14:37:40Z</time>
      </trkpt>
      <trkpt lat="38.3113810" lon="-0.6931370">
        <ele>256.0</ele>
        <time>2019-10-19T14:37:41Z</time>
      </trkpt>
      <trkpt lat="38.3114030" lon="-0.6931750">
        <ele>256.2</ele>
        <time>2019-10-19T14:37:42Z</time>
      </trkpt>
      <trkpt lat="38.3114260" lon="-0.6932170">
        <ele>256.4</ele>
        <time>2019-10-19T14:37:43Z</time>
      </trkpt>
      <trkpt lat="38.3114460" lon="-0.6932620">
        <ele>256.6</ele>
        <time>2019-10-19T14:37:44Z</time>
      </trkpt>
      <trkpt lat="38.3114660" lon="-0.6933090">
        <ele>256.8</ele>
        <time>2019-10-19T14:37:45Z</time>
      </trkpt>
      <trkpt lat="38.3114910" lon="-0.6933500">
        <ele>257.4</ele>
        <time>2019-10-19T14:37:46Z</time>
      </trkpt>
      <trkpt lat="38.3115170" lon="-0.6933860">
        <ele>257.4</ele>
        <time>2019-10-19T14:37:47Z</time>
      </trkpt>
      <trkpt lat="38.3115450" lon="-0.6934180">
        <ele>257.8</ele>
        <time>2019-10-19T14:37:48Z</time>
      </trkpt>
      <trkpt lat="38.3115780" lon="-0.6934380">
        <ele>257.8</ele>
        <time>2019-10-19T14:37:49Z</time>
      </trkpt>
      <trkpt lat="38.3116180" lon="-0.6934500">
        <ele>258.0</ele>
        <time>2019-10-19T14:37:50Z</time>
      </trkpt>
      <trkpt lat="38.3116540" lon="-0.6934710">
        <ele>258.2</ele>
        <time>2019-10-19T14:37:51Z</time>
      </trkpt>
      <trkpt lat="38.3116820" lon="-0.6934900">
        <ele>258.4</ele>
        <time>2019-10-19T14:37:52Z</time>
      </trkpt>
      <trkpt lat="38.3117100" lon="-0.6935150">
        <ele>258.6</ele>
        <time>2019-10-19T14:37:53Z</time>
      </trkpt>
      <trkpt lat="38.3117360" lon="-0.6935370">
        <ele>258.4</ele>
        <time>2019-10-19T14:37:54Z</time>
      </trkpt>
      <trkpt lat="38.3117620" lon="-0.6935590">
        <ele>258.8</ele>
        <time>2019-10-19T14:37:55Z</time>
      </trkpt>
      <trkpt lat="38.3117880" lon="-0.6935820">
        <ele>258.8</ele>
        <time>2019-10-19T14:37:56Z</time>
      </trkpt>
      <trkpt lat="38.3118160" lon="-0.6936060">
        <ele>259.2</ele>
        <time>2019-10-19T14:37:57Z</time>
      </trkpt>
      <trkpt lat="38.3118420" lon="-0.6936320">
        <ele>259.2</ele>
        <time>2019-10-19T14:37:58Z</time>
      </trkpt>
      <trkpt lat="38.3118680" lon="-0.6936610">
        <ele>259.2</ele>
        <time>2019-10-19T14:37:59Z</time>
      </trkpt>
      <trkpt lat="38.3118980" lon="-0.6936920">
        <ele>259.6</ele>
        <time>2019-10-19T14:38:00Z</time>
      </trkpt>
      <trkpt lat="38.3119280" lon="-0.6937230">
        <ele>259.6</ele>
        <time>2019-10-19T14:38:01Z</time>
      </trkpt>
      <trkpt lat="38.3119610" lon="-0.6937510">
        <ele>259.8</ele>
        <time>2019-10-19T14:38:02Z</time>
      </trkpt>
      <trkpt lat="38.3119910" lon="-0.6937800">
        <ele>259.8</ele>
        <time>2019-10-19T14:38:03Z</time>
      </trkpt>
      <trkpt lat="38.3120130" lon="-0.6938060">
        <ele>260.2</ele>
        <time>2019-10-19T14:38:04Z</time>
      </trkpt>
      <trkpt lat="38.3120290" lon="-0.6938380">
        <ele>260.2</ele>
        <time>2019-10-19T14:38:05Z</time>
      </trkpt>
      <trkpt lat="38.3120510" lon="-0.6938620">
        <ele>260.4</ele>
        <time>2019-10-19T14:38:06Z</time>
      </trkpt>
      <trkpt lat="38.3120800" lon="-0.6938780">
        <ele>260.4</ele>
        <time>2019-10-19T14:38:07Z</time>
      </trkpt>
      <trkpt lat="38.3121120" lon="-0.6938880">
        <ele>260.4</ele>
        <time>2019-10-19T14:38:08Z</time>
      </trkpt>
      <trkpt lat="38.3121460" lon="-0.6938930">
        <ele>261.0</ele>
        <time>2019-10-19T14:38:09Z</time>
      </trkpt>
      <trkpt lat="38.3121820" lon="-0.6938930">
        <ele>261.6</ele>
        <time>2019-10-19T14:38:10Z</time>
      </trkpt>
      <trkpt lat="38.3122180" lon="-0.6938870">
        <ele>261.2</ele>
        <time>2019-10-19T14:38:11Z</time>
      </trkpt>
      <trkpt lat="38.3122500" lon="-0.6938710">
        <ele>261.4</ele>
        <time>2019-10-19T14:38:12Z</time>
      </trkpt>
      <trkpt lat="38.3122800" lon="-0.6938500">
        <ele>261.6</ele>
        <time>2019-10-19T14:38:13Z</time>
      </trkpt>
      <trkpt lat="38.3123070" lon="-0.6938240">
        <ele>262.0</ele>
        <time>2019-10-19T14:38:14Z</time>
      </trkpt>
      <trkpt lat="38.3123280" lon="-0.6937880">
        <ele>262.2</ele>
        <time>2019-10-19T14:38:15Z</time>
      </trkpt>
      <trkpt lat="38.3123430" lon="-0.6937480">
        <ele>262.2</ele>
        <time>2019-10-19T14:38:16Z</time>
      </trkpt>
      <trkpt lat="38.3123480" lon="-0.6937070">
        <ele>262.8</ele>
        <time>2019-10-19T14:38:17Z</time>
      </trkpt>
      <trkpt lat="38.3123430" lon="-0.6936670">
        <ele>263.2</ele>
        <time>2019-10-19T14:38:18Z</time>
      </trkpt>
      <trkpt lat="38.3123330" lon="-0.6936290">
        <ele>263.4</ele>
        <time>2019-10-19T14:38:19Z</time>
      </trkpt>
      <trkpt lat="38.3123340" lon="-0.6935980">
        <ele>263.4</ele>
        <time>2019-10-19T14:38:20Z</time>
      </trkpt>
      <trkpt lat="38.3123470" lon="-0.6935690">
        <ele>263.6</ele>
        <time>2019-10-19T14:38:21Z</time>
      </trkpt>
      <trkpt lat="38.3123640" lon="-0.6935420">
        <ele>263.4</ele>
        <time>2019-10-19T14:38:22Z</time>
      </trkpt>
      <trkpt lat="38.3123860" lon="-0.6935150">
        <ele>263.8</ele>
        <time>2019-10-19T14:38:23Z</time>
      </trkpt>
      <trkpt lat="38.3124150" lon="-0.6934920">
        <ele>263.8</ele>
        <time>2019-10-19T14:38:24Z</time>
      </trkpt>
      <trkpt lat="38.3124470" lon="-0.6934730">
        <ele>263.8</ele>
        <time>2019-10-19T14:38:25Z</time>
      </trkpt>
      <trkpt lat="38.3124820" lon="-0.6934640">
        <ele>264.0</ele>
        <time>2019-10-19T14:38:26Z</time>
      </trkpt>
      <trkpt lat="38.3125210" lon="-0.6934650">
        <ele>264.2</ele>
        <time>2019-10-19T14:38:27Z</time>
      </trkpt>
      <trkpt lat="38.3125600" lon="-0.6934770">
        <ele>264.6</ele>
        <time>2019-10-19T14:38:28Z</time>
      </trkpt>
      <trkpt lat="38.3125950" lon="-0.6934950">
        <ele>265.0</ele>
        <time>2019-10-19T14:38:29Z</time>
      </trkpt>
      <trkpt lat="38.3126270" lon="-0.6935150">
        <ele>265.4</ele>
        <time>2019-10-19T14:38:30Z</time>
      </trkpt>
      <trkpt lat="38.3126610" lon="-0.6935330">
        <ele>265.6</ele>
        <time>2019-10-19T14:38:31Z</time>
      </trkpt>
      <trkpt lat="38.3126940" lon="-0.6935540">
        <ele>265.8</ele>
        <time>2019-10-19T14:38:32Z</time>
      </trkpt>
      <trkpt lat="38.3127250" lon="-0.6935780">
        <ele>266.2</ele>
        <time>2019-10-19T14:38:33Z</time>
      </trkpt>
      <trkpt lat="38.3127540" lon="-0.6936050">
        <ele>266.4</ele>
        <time>2019-10-19T14:38:34Z</time>
      </trkpt>
      <trkpt lat="38.3127850" lon="-0.6936320">
        <ele>266.8</ele>
        <time>2019-10-19T14:38:35Z</time>
      </trkpt>
      <trkpt lat="38.3128170" lon="-0.6936520">
        <ele>267.2</ele>
        <time>2019-10-19T14:38:36Z</time>
      </trkpt>
      <trkpt lat="38.3128530" lon="-0.6936680">
        <ele>267.4</ele>
        <time>2019-10-19T14:38:37Z</time>
      </trkpt>
      <trkpt lat="38.3128900" lon="-0.6936820">
        <ele>267.6</ele>
        <time>2019-10-19T14:38:38Z</time>
      </trkpt>
      <trkpt lat="38.3129280" lon="-0.6936910">
        <ele>267.8</ele>
        <time>2019-10-19T14:38:39Z</time>
      </trkpt>
      <trkpt lat="38.3129660" lon="-0.6936870">
        <ele>268.0</ele>
        <time>2019-10-19T14:38:40Z</time>
      </trkpt>
      <trkpt lat="38.3130030" lon="-0.6936650">
        <ele>268.0</ele>
        <time>2019-10-19T14:38:41Z</time>
      </trkpt>
      <trkpt lat="38.3130320" lon="-0.6936310">
        <ele>268.0</ele>
        <time>2019-10-19T14:38:42Z</time>
      </trkpt>
      <trkpt lat="38.3130570" lon="-0.6935890">
        <ele>268.2</ele>
        <time>2019-10-19T14:38:43Z</time>
      </trkpt>
      <trkpt lat="38.3130820" lon="-0.6935410">
        <ele>268.4</ele>
        <time>2019-10-19T14:38:44Z</time>
      </trkpt>
      <trkpt lat="38.3131070" lon="-0.6934890">
        <ele>268.6</ele>
        <time>2019-10-19T14:38:45Z</time>
      </trkpt>
      <trkpt lat="38.3131350" lon="-0.6934370">
        <ele>268.6</ele>
        <time>2019-10-19T14:38:46Z</time>
      </trkpt>
      <trkpt lat="38.3131690" lon="-0.6933890">
        <ele>268.6</ele>
        <time>2019-10-19T14:38:47Z</time>
      </trkpt>
      <trkpt lat="38.3132090" lon="-0.6933510">
        <ele>268.6</ele>
        <time>2019-10-19T14:38:48Z</time>
      </trkpt>
      <trkpt lat="38.3132520" lon="-0.6933240">
        <ele>269.0</ele>
        <time>2019-10-19T14:38:49Z</time>
      </trkpt>
      <trkpt lat="38.3132950" lon="-0.6933040">
        <ele>269.2</ele>
        <time>2019-10-19T14:38:50Z</time>
      </trkpt>
      <trkpt lat="38.3133350" lon="-0.6932920">
        <ele>269.8</ele>
        <time>2019-10-19T14:38:51Z</time>
      </trkpt>
      <trkpt lat="38.3133700" lon="-0.6932860">
        <ele>270.2</ele>
        <time>2019-10-19T14:38:52Z</time>
      </trkpt>
      <trkpt lat="38.3134030" lon="-0.6932810">
        <ele>270.8</ele>
        <time>2019-10-19T14:38:53Z</time>
      </trkpt>
      <trkpt lat="38.3134340" lon="-0.6932800">
        <ele>271.0</ele>
        <time>2019-10-19T14:38:54Z</time>
      </trkpt>
      <trkpt lat="38.3134640" lon="-0.6932810">
        <ele>271.6</ele>
        <time>2019-10-19T14:38:55Z</time>
      </trkpt>
      <trkpt lat="38.3134940" lon="-0.6932820">
        <ele>272.0</ele>
        <time>2019-10-19T14:38:56Z</time>
      </trkpt>
      <trkpt lat="38.3135230" lon="-0.6932860">
        <ele>272.2</ele>
        <time>2019-10-19T14:38:57Z</time>
      </trkpt>
      <trkpt lat="38.3135540" lon="-0.6932940">
        <ele>272.4</ele>
        <time>2019-10-19T14:38:58Z</time>
      </trkpt>
      <trkpt lat="38.3135870" lon="-0.6933070">
        <ele>272.6</ele>
        <time>2019-10-19T14:38:59Z</time>
      </trkpt>
      <trkpt lat="38.3136220" lon="-0.6933210">
        <ele>272.6</ele>
        <time>2019-10-19T14:39:00Z</time>
      </trkpt>
      <trkpt lat="38.3136600" lon="-0.6933380">
        <ele>272.8</ele>
        <time>2019-10-19T14:39:01Z</time>
      </trkpt>
      <trkpt lat="38.3137010" lon="-0.6933550">
        <ele>272.8</ele>
        <time>2019-10-19T14:39:02Z</time>
      </trkpt>
      <trkpt lat="38.3137440" lon="-0.6933750">
        <ele>273.0</ele>
        <time>2019-10-19T14:39:03Z</time>
      </trkpt>
      <trkpt lat="38.3137880" lon="-0.6933990">
        <ele>273.0</ele>
        <time>2019-10-19T14:39:04Z</time>
      </trkpt>
      <trkpt lat="38.3138330" lon="-0.6934220">
        <ele>273.2</ele>
        <time>2019-10-19T14:39:05Z</time>
      </trkpt>
      <trkpt lat="38.3138780" lon="-0.6934450">
        <ele>273.2</ele>
        <time>2019-10-19T14:39:06Z</time>
      </trkpt>
      <trkpt lat="38.3139240" lon="-0.6934680">
        <ele>273.4</ele>
        <time>2019-10-19T14:39:07Z</time>
      </trkpt>
      <trkpt lat="38.3139700" lon="-0.6934870">
        <ele>273.8</ele>
        <time>2019-10-19T14:39:08Z</time>
      </trkpt>
      <trkpt lat="38.3140150" lon="-0.6935020">
        <ele>274.2</ele>
        <time>2019-10-19T14:39:09Z</time>
      </trkpt>
      <trkpt lat="38.3140610" lon="-0.6935170">
        <ele>274.6</ele>
        <time>2019-10-19T14:39:10Z</time>
      </trkpt>
      <trkpt lat="38.3141060" lon="-0.6935250">
        <ele>275.0</ele>
        <time>2019-10-19T14:39:11Z</time>
      </trkpt>
      <trkpt lat="38.3141510" lon="-0.6935310">
        <ele>275.2</ele>
        <time>2019-10-19T14:39:12Z</time>
      </trkpt>
      <trkpt lat="38.3141950" lon="-0.6935360">
        <ele>275.6</ele>
        <time>2019-10-19T14:39:13Z</time>
      </trkpt>
      <trkpt lat="38.3142390" lon="-0.6935410">
        <ele>275.8</ele>
        <time>2019-10-19T14:39:14Z</time>
      </trkpt>
      <trkpt lat="38.3142820" lon="-0.6935450">
        <ele>276.2</ele>
        <time>2019-10-19T14:39:15Z</time>
      </trkpt>
      <trkpt lat="38.3143250" lon="-0.6935480">
        <ele>276.6</ele>
        <time>2019-10-19T14:39:16Z</time>
      </trkpt>
      <trkpt lat="38.3143690" lon="-0.6935510">
        <ele>277.0</ele>
        <time>2019-10-19T14:39:17Z</time>
      </trkpt>
      <trkpt lat="38.3144130" lon="-0.6935550">
        <ele>277.2</ele>
        <time>2019-10-19T14:39:18Z</time>
      </trkpt>
      <trkpt lat="38.3144570" lon="-0.6935560">
        <ele>277.4</ele>
        <time>2019-10-19T14:39:19Z</time>
      </trkpt>
      <trkpt lat="38.3145010" lon="-0.6935530">
        <ele>277.6</ele>
        <time>2019-10-19T14:39:20Z</time>
      </trkpt>
      <trkpt lat="38.3145450" lon="-0.6935500">
        <ele>277.8</ele>
        <time>2019-10-19T14:39:21Z</time>
      </trkpt>
      <trkpt lat="38.3145910" lon="-0.6935480">
        <ele>277.8</ele>
        <time>2019-10-19T14:39:22Z</time>
      </trkpt>
      <trkpt lat="38.3146370" lon="-0.6935450">
        <ele>278.0</ele>
        <time>2019-10-19T14:39:23Z</time>
      </trkpt>
      <trkpt lat="38.3146830" lon="-0.6935420">
        <ele>278.4</ele>
        <time>2019-10-19T14:39:24Z</time>
      </trkpt>
      <trkpt lat="38.3147300" lon="-0.6935400">
        <ele>278.6</ele>
        <time>2019-10-19T14:39:25Z</time>
      </trkpt>
      <trkpt lat="38.3147770" lon="-0.6935380">
        <ele>278.8</ele>
        <time>2019-10-19T14:39:26Z</time>
      </trkpt>
      <trkpt lat="38.3148240" lon="-0.6935350">
        <ele>279.0</ele>
        <time>2019-10-19T14:39:27Z</time>
      </trkpt>
      <trkpt lat="38.3148700" lon="-0.6935330">
        <ele>279.2</ele>
        <time>2019-10-19T14:39:28Z</time>
      </trkpt>
      <trkpt lat="38.3149160" lon="-0.6935300">
        <ele>279.4</ele>
        <time>2019-10-19T14:39:29Z</time>
      </trkpt>
      <trkpt lat="38.3149610" lon="-0.6935270">
        <ele>279.6</ele>
        <time>2019-10-19T14:39:30Z</time>
      </trkpt>
      <trkpt lat="38.3150060" lon="-0.6935220">
        <ele>280.0</ele>
        <time>2019-10-19T14:39:31Z</time>
      </trkpt>
      <trkpt lat="38.3150500" lon="-0.6935150">
        <ele>280.0</ele>
        <time>2019-10-19T14:39:32Z</time>
      </trkpt>
      <trkpt lat="38.3150930" lon="-0.6935080">
        <ele>280.2</ele>
        <time>2019-10-19T14:39:33Z</time>
      </trkpt>
      <trkpt lat="38.3151360" lon="-0.6935010">
        <ele>280.6</ele>
        <time>2019-10-19T14:39:34Z</time>
      </trkpt>
      <trkpt lat="38.3151790" lon="-0.6934900">
        <ele>280.8</ele>
        <time>2019-10-19T14:39:35Z</time>
      </trkpt>
      <trkpt lat="38.3152200" lon="-0.6934790">
        <ele>281.0</ele>
        <time>2019-10-19T14:39:36Z</time>
      </trkpt>
      <trkpt lat="38.3152570" lon="-0.6934670">
        <ele>281.4</ele>
        <time>2019-10-19T14:39:37Z</time>
      </trkpt>
      <trkpt lat="38.3152870" lon="-0.6934540">
        <ele>281.8</ele>
        <time>2019-10-19T14:39:38Z</time>
      </trkpt>
      <trkpt lat="38.3153140" lon="-0.6934420">
        <ele>282.2</ele>
        <time>2019-10-19T14:39:39Z</time>
      </trkpt>
      <trkpt lat="38.3153420" lon="-0.6934300">
        <ele>282.6</ele>
        <time>2019-10-19T14:39:40Z</time>
      </trkpt>
      <trkpt lat="38.3153740" lon="-0.6934180">
        <ele>282.8</ele>
        <time>2019-10-19T14:39:41Z</time>
      </trkpt>
      <trkpt lat="38.3154090" lon="-0.6934130">
        <ele>283.2</ele>
        <time>2019-10-19T14:39:42Z</time>
      </trkpt>
      <trkpt lat="38.3154430" lon="-0.6934110">
        <ele>283.8</ele>
        <time>2019-10-19T14:39:43Z</time>
      </trkpt>
      <trkpt lat="38.3154760" lon="-0.6934130">
        <ele>283.8</ele>
        <time>2019-10-19T14:39:44Z</time>
      </trkpt>
      <trkpt lat="38.3155100" lon="-0.6934170">
        <ele>284.2</ele>
        <time>2019-10-19T14:39:45Z</time>
      </trkpt>
      <trkpt lat="38.3155450" lon="-0.6934210">
        <ele>284.4</ele>
        <time>2019-10-19T14:39:46Z</time>
      </trkpt>
      <trkpt lat="38.3155800" lon="-0.6934280">
        <ele>284.6</ele>
        <time>2019-10-19T14:39:47Z</time>
      </trkpt>
      <trkpt lat="38.3156150" lon="-0.6934360">
        <ele>284.8</ele>
        <time>2019-10-19T14:39:48Z</time>
      </trkpt>
      <trkpt lat="38.3156500" lon="-0.6934460">
        <ele>285.2</ele>
        <time>2019-10-19T14:39:49Z</time>
      </trkpt>
      <trkpt lat="38.3156860" lon="-0.6934580">
        <ele>285.4</ele>
        <time>2019-10-19T14:39:50Z</time>
      </trkpt>
      <trkpt lat="38.3157210" lon="-0.6934710">
        <ele>285.6</ele>
        <time>2019-10-19T14:39:51Z</time>
      </trkpt>
      <trkpt lat="38.3157570" lon="-0.6934850">
        <ele>286.0</ele>
        <time>2019-10-19T14:39:52Z</time>
      </trkpt>
      <trkpt lat="38.3157950" lon="-0.6935010">
        <ele>286.0</ele>
        <time>2019-10-19T14:39:53Z</time>
      </trkpt>
      <trkpt lat="38.3158310" lon="-0.6935150">
        <ele>286.2</ele>
        <time>2019-10-19T14:39:54Z</time>
      </trkpt>
      <trkpt lat="38.3158680" lon="-0.6935280">
        <ele>286.0</ele>
        <time>2019-10-19T14:39:55Z</time>
      </trkpt>
      <trkpt lat="38.3159060" lon="-0.6935410">
        <ele>286.4</ele>
        <time>2019-10-19T14:39:56Z</time>
      </trkpt>
      <trkpt lat="38.3159450" lon="-0.6935560">
        <ele>286.4</ele>
        <time>2019-10-19T14:39:57Z</time>
      </trkpt>
      <trkpt lat="38.3159870" lon="-0.6935710">
        <ele>286.8</ele>
        <time>2019-10-19T14:39:58Z</time>
      </trkpt>
      <trkpt lat="38.3160290" lon="-0.6935860">
        <ele>287.2</ele>
        <time>2019-10-19T14:39:59Z</time>
      </trkpt>
      <trkpt lat="38.3160740" lon="-0.6936030">
        <ele>287.2</ele>
        <time>2019-10-19T14:40:00Z</time>
      </trkpt>
      <trkpt lat="38.3161180" lon="-0.6936220">
        <ele>287.2</ele>
        <time>2019-10-19T14:40:01Z</time>
      </trkpt>
      <trkpt lat="38.3161640" lon="-0.6936390">
        <ele>287.4</ele>
        <time>2019-10-19T14:40:02Z</time>
      </trkpt>
      <trkpt lat="38.3162090" lon="-0.6936560">
        <ele>287.8</ele>
        <time>2019-10-19T14:40:03Z</time>
      </trkpt>
      <trkpt lat="38.3162540" lon="-0.6936750">
        <ele>288.0</ele>
        <time>2019-10-19T14:40:04Z</time>
      </trkpt>
      <trkpt lat="38.3162970" lon="-0.6936940">
        <ele>288.2</ele>
        <time>2019-10-19T14:40:05Z</time>
      </trkpt>
      <trkpt lat="38.3163380" lon="-0.6937110">
        <ele>288.4</ele>
        <time>2019-10-19T14:40:06Z</time>
      </trkpt>
      <trkpt lat="38.3163770" lon="-0.6937270">
        <ele>288.8</ele>
        <time>2019-10-19T14:40:07Z</time>
      </trkpt>
      <trkpt lat="38.3164140" lon="-0.6937450">
        <ele>289.0</ele>
        <time>2019-10-19T14:40:08Z</time>
      </trkpt>
      <trkpt lat="38.3164490" lon="-0.6937620">
        <ele>289.2</ele>
        <time>2019-10-19T14:40:09Z</time>
      </trkpt>
      <trkpt lat="38.3164840" lon="-0.6937810">
        <ele>289.6</ele>
        <time>2019-10-19T14:40:10Z</time>
      </trkpt>
      <trkpt lat="38.3165180" lon="-0.6938010">
        <ele>290.0</ele>
        <time>2019-10-19T14:40:11Z</time>
      </trkpt>
      <trkpt lat="38.3165530" lon="-0.6938210">
        <ele>290.2</ele>
        <time>2019-10-19T14:40:12Z</time>
      </trkpt>
      <trkpt lat="38.3165900" lon="-0.6938410">
        <ele>290.2</ele>
        <time>2019-10-19T14:40:13Z</time>
      </trkpt>
      <trkpt lat="38.3166270" lon="-0.6938610">
        <ele>290.4</ele>
        <time>2019-10-19T14:40:14Z</time>
      </trkpt>
      <trkpt lat="38.3166670" lon="-0.6938810">
        <ele>290.8</ele>
        <time>2019-10-19T14:40:15Z</time>
      </trkpt>
      <trkpt lat="38.3167080" lon="-0.6939020">
        <ele>290.8</ele>
        <time>2019-10-19T14:40:16Z</time>
      </trkpt>
      <trkpt lat="38.3167490" lon="-0.6939230">
        <ele>291.0</ele>
        <time>2019-10-19T14:40:17Z</time>
      </trkpt>
      <trkpt lat="38.3167920" lon="-0.6939430">
        <ele>291.0</ele>
        <time>2019-10-19T14:40:18Z</time>
      </trkpt>
      <trkpt lat="38.3168340" lon="-0.6939610">
        <ele>291.2</ele>
        <time>2019-10-19T14:40:19Z</time>
      </trkpt>
      <trkpt lat="38.3168770" lon="-0.6939780">
        <ele>291.2</ele>
        <time>2019-10-19T14:40:20Z</time>
      </trkpt>
      <trkpt lat="38.3169220" lon="-0.6939920">
        <ele>291.2</ele>
        <time>2019-10-19T14:40:21Z</time>
      </trkpt>
      <trkpt lat="38.3169670" lon="-0.6940020">
        <ele>291.2</ele>
        <time>2019-10-19T14:40:22Z</time>
      </trkpt>
      <trkpt lat="38.3170140" lon="-0.6940040">
        <ele>291.0</ele>
        <time>2019-10-19T14:40:23Z</time>
      </trkpt>
      <trkpt lat="38.3170640" lon="-0.6939990">
        <ele>291.0</ele>
        <time>2019-10-19T14:40:24Z</time>
      </trkpt>
      <trkpt lat="38.3171160" lon="-0.6939920">
        <ele>291.0</ele>
        <time>2019-10-19T14:40:25Z</time>
      </trkpt>
      <trkpt lat="38.3171670" lon="-0.6939770">
        <ele>290.8</ele>
        <time>2019-10-19T14:40:26Z</time>
      </trkpt>
      <trkpt lat="38.3172230" lon="-0.6939610">
        <ele>290.6</ele>
        <time>2019-10-19T14:40:27Z</time>
      </trkpt>
      <trkpt lat="38.3172810" lon="-0.6939420">
        <ele>290.4</ele>
        <time>2019-10-19T14:40:28Z</time>
      </trkpt>
      <trkpt lat="38.3173410" lon="-0.6939180">
        <ele>290.2</ele>
        <time>2019-10-19T14:40:29Z</time>
      </trkpt>
      <trkpt lat="38.3174030" lon="-0.6938860">
        <ele>289.8</ele>
        <time>2019-10-19T14:40:30Z</time>
      </trkpt>
      <trkpt lat="38.3174720" lon="-0.6938490">
        <ele>289.0</ele>
        <time>2019-10-19T14:40:31Z</time>
      </trkpt>
      <trkpt lat="38.3175450" lon="-0.6938050">
        <ele>288.0</ele>
        <time>2019-10-19T14:40:32Z</time>
      </trkpt>
      <trkpt lat="38.3176210" lon="-0.6937590">
        <ele>287.2</ele>
        <time>2019-10-19T14:40:33Z</time>
      </trkpt>
      <trkpt lat="38.3176990" lon="-0.6937130">
        <ele>286.6</ele>
        <time>2019-10-19T14:40:34Z</time>
      </trkpt>
      <trkpt lat="38.3177800" lon="-0.6936670">
        <ele>286.0</ele>
        <time>2019-10-19T14:40:35Z</time>
      </trkpt>
      <trkpt lat="38.3178620" lon="-0.6936200">
        <ele>285.6</ele>
        <time>2019-10-19T14:40:36Z</time>
      </trkpt>
      <trkpt lat="38.3179470" lon="-0.6935810">
        <ele>285.2</ele>
        <time>2019-10-19T14:40:37Z</time>
      </trkpt>
      <trkpt lat="38.3180340" lon="-0.6935610">
        <ele>284.8</ele>
        <time>2019-10-19T14:40:38Z</time>
      </trkpt>
      <trkpt lat="38.3181230" lon="-0.6935550">
        <ele>284.8</ele>
        <time>2019-10-19T14:40:39Z</time>
      </trkpt>
      <trkpt lat="38.3182110" lon="-0.6935510">
        <ele>284.8</ele>
        <time>2019-10-19T14:40:40Z</time>
      </trkpt>
      <trkpt lat="38.3182990" lon="-0.6935450">
        <ele>284.4</ele>
        <time>2019-10-19T14:40:41Z</time>
      </trkpt>
      <trkpt lat="38.3183860" lon="-0.6935380">
        <ele>284.4</ele>
        <time>2019-10-19T14:40:42Z</time>
      </trkpt>
      <trkpt lat="38.3184710" lon="-0.6935320">
        <ele>284.6</ele>
        <time>2019-10-19T14:40:43Z</time>
      </trkpt>
      <trkpt lat="38.3185550" lon="-0.6935280">
        <ele>284.6</ele>
        <time>2019-10-19T14:40:44Z</time>
      </trkpt>
      <trkpt lat="38.3186390" lon="-0.6935260">
        <ele>284.6</ele>
        <time>2019-10-19T14:40:45Z</time>
      </trkpt>
      <trkpt lat="38.3187210" lon="-0.6935290">
        <ele>284.6</ele>
        <time>2019-10-19T14:40:46Z</time>
      </trkpt>
      <trkpt lat="38.3188040" lon="-0.6935330">
        <ele>284.4</ele>
        <time>2019-10-19T14:40:47Z</time>
      </trkpt>
      <trkpt lat="38.3188860" lon="-0.6935380">
        <ele>284.6</ele>
        <time>2019-10-19T14:40:48Z</time>
      </trkpt>
      <trkpt lat="38.3189670" lon="-0.6935400">
        <ele>284.6</ele>
        <time>2019-10-19T14:40:49Z</time>
      </trkpt>
      <trkpt lat="38.3190480" lon="-0.6935400">
        <ele>284.4</ele>
        <time>2019-10-19T14:40:50Z</time>
      </trkpt>
      <trkpt lat="38.3191270" lon="-0.6935250">
        <ele>284.4</ele>
        <time>2019-10-19T14:40:51Z</time>
      </trkpt>
      <trkpt lat="38.3191990" lon="-0.6934830">
        <ele>284.4</ele>
        <time>2019-10-19T14:40:52Z</time>
      </trkpt>
      <trkpt lat="38.3192550" lon="-0.6934110">
        <ele>284.0</ele>
        <time>2019-10-19T14:40:53Z</time>
      </trkpt>
      <trkpt lat="38.3192920" lon="-0.6933180">
        <ele>283.6</ele>
        <time>2019-10-19T14:40:54Z</time>
      </trkpt>
      <trkpt lat="38.3193130" lon="-0.6932130">
        <ele>283.0</ele>
        <time>2019-10-19T14:40:55Z</time>
      </trkpt>
      <trkpt lat="38.3193320" lon="-0.6931000">
        <ele>282.0</ele>
        <time>2019-10-19T14:40:56Z</time>
      </trkpt>
      <trkpt lat="38.3193470" lon="-0.6929820">
        <ele>281.2</ele>
        <time>2019-10-19T14:40:57Z</time>
      </trkpt>
      <trkpt lat="38.3193610" lon="-0.6928610">
        <ele>280.6</ele>
        <time>2019-10-19T14:40:58Z</time>
      </trkpt>
      <trkpt lat="38.3193740" lon="-0.6927380">
        <ele>280.2</ele>
        <time>2019-10-19T14:40:59Z</time>
      </trkpt>
      <trkpt lat="38.3193860" lon="-0.6926150">
        <ele>279.6</ele>
        <time>2019-10-19T14:41:00Z</time>
      </trkpt>
      <trkpt lat="38.3193980" lon="-0.6924920">
        <ele>279.4</ele>
        <time>2019-10-19T14:41:01Z</time>
      </trkpt>
      <trkpt lat="38.3194150" lon="-0.6923690">
        <ele>279.0</ele>
        <time>2019-10-19T14:41:02Z</time>
      </trkpt>
      <trkpt lat="38.3194410" lon="-0.6922500">
        <ele>278.8</ele>
        <time>2019-10-19T14:41:03Z</time>
      </trkpt>
      <trkpt lat="38.3194770" lon="-0.6921370">
        <ele>278.6</ele>
        <time>2019-10-19T14:41:04Z</time>
      </trkpt>
      <trkpt lat="38.3195180" lon="-0.6920280">
        <ele>278.4</ele>
        <time>2019-10-19T14:41:05Z</time>
      </trkpt>
      <trkpt lat="38.3195610" lon="-0.6919210">
        <ele>278.4</ele>
        <time>2019-10-19T14:41:06Z</time>
      </trkpt>
      <trkpt lat="38.3196010" lon="-0.6918100">
        <ele>278.2</ele>
        <time>2019-10-19T14:41:07Z</time>
      </trkpt>
      <trkpt lat="38.3196300" lon="-0.6916950">
        <ele>277.6</ele>
        <time>2019-10-19T14:41:08Z</time>
      </trkpt>
      <trkpt lat="38.3196550" lon="-0.6915800">
        <ele>277.2</ele>
        <time>2019-10-19T14:41:09Z</time>
      </trkpt>
      <trkpt lat="38.3196790" lon="-0.6914630">
        <ele>276.6</ele>
        <time>2019-10-19T14:41:10Z</time>
      </trkpt>
      <trkpt lat="38.3197010" lon="-0.6913440">
        <ele>276.2</ele>
        <time>2019-10-19T14:41:11Z</time>
      </trkpt>
      <trkpt lat="38.3197230" lon="-0.6912230">
        <ele>276.0</ele>
        <time>2019-10-19T14:41:12Z</time>
      </trkpt>
      <trkpt lat="38.3197440" lon="-0.6911010">
        <ele>275.6</ele>
        <time>2019-10-19T14:41:13Z</time>
      </trkpt>
      <trkpt lat="38.3197640" lon="-0.6909780">
        <ele>275.4</ele>
        <time>2019-10-19T14:41:14Z</time>
      </trkpt>
      <trkpt lat="38.3197840" lon="-0.6908570">
        <ele>275.2</ele>
        <time>2019-10-19T14:41:15Z</time>
      </trkpt>
      <trkpt lat="38.3198020" lon="-0.6907360">
        <ele>275.0</ele>
        <time>2019-10-19T14:41:16Z</time>
      </trkpt>
      <trkpt lat="38.3198190" lon="-0.6906170">
        <ele>275.0</ele>
        <time>2019-10-19T14:41:17Z</time>
      </trkpt>
      <trkpt lat="38.3198340" lon="-0.6904980">
        <ele>274.8</ele>
        <time>2019-10-19T14:41:18Z</time>
      </trkpt>
      <trkpt lat="38.3198490" lon="-0.6903800">
        <ele>274.4</ele>
        <time>2019-10-19T14:41:19Z</time>
      </trkpt>
      <trkpt lat="38.3198640" lon="-0.6902610">
        <ele>274.2</ele>
        <time>2019-10-19T14:41:20Z</time>
      </trkpt>
      <trkpt lat="38.3198780" lon="-0.6901420">
        <ele>274.2</ele>
        <time>2019-10-19T14:41:21Z</time>
      </trkpt>
      <trkpt lat="38.3198900" lon="-0.6900220">
        <ele>273.8</ele>
        <time>2019-10-19T14:41:22Z</time>
      </trkpt>
      <trkpt lat="38.3199000" lon="-0.6898990">
        <ele>273.4</ele>
        <time>2019-10-19T14:41:23Z</time>
      </trkpt>
      <trkpt lat="38.3199080" lon="-0.6897760">
        <ele>273.2</ele>
        <time>2019-10-19T14:41:24Z</time>
      </trkpt>
      <trkpt lat="38.3199160" lon="-0.6896550">
        <ele>273.0</ele>
        <time>2019-10-19T14:41:25Z</time>
      </trkpt>
      <trkpt lat="38.3199240" lon="-0.6895340">
        <ele>272.8</ele>
        <time>2019-10-19T14:41:26Z</time>
      </trkpt>
      <trkpt lat="38.3199300" lon="-0.6894150">
        <ele>272.6</ele>
        <time>2019-10-19T14:41:27Z</time>
      </trkpt>
      <trkpt lat="38.3199350" lon="-0.6892980">
        <ele>272.6</ele>
        <time>2019-10-19T14:41:28Z</time>
      </trkpt>
      <trkpt lat="38.3199400" lon="-0.6891830">
        <ele>272.6</ele>
        <time>2019-10-19T14:41:29Z</time>
      </trkpt>
      <trkpt lat="38.3199450" lon="-0.6890720">
        <ele>272.8</ele>
        <time>2019-10-19T14:41:30Z</time>
      </trkpt>
      <trkpt lat="38.3199510" lon="-0.6889620">
        <ele>272.8</ele>
        <time>2019-10-19T14:41:31Z</time>
      </trkpt>
      <trkpt lat="38.3199570" lon="-0.6888560">
        <ele>272.8</ele>
        <time>2019-10-19T14:41:32Z</time>
      </trkpt>
      <trkpt lat="38.3199640" lon="-0.6887500">
        <ele>272.8</ele>
        <time>2019-10-19T14:41:33Z</time>
      </trkpt>
      <trkpt lat="38.3199720" lon="-0.6886440">
        <ele>272.6</ele>
        <time>2019-10-19T14:41:34Z</time>
      </trkpt>
      <trkpt lat="38.3199780" lon="-0.6885390">
        <ele>272.6</ele>
        <time>2019-10-19T14:41:35Z</time>
      </trkpt>
      <trkpt lat="38.3199810" lon="-0.6884340">
        <ele>272.6</ele>
        <time>2019-10-19T14:41:36Z</time>
      </trkpt>
      <trkpt lat="38.3199750" lon="-0.6883280">
        <ele>272.6</ele>
        <time>2019-10-19T14:41:37Z</time>
      </trkpt>
      <trkpt lat="38.3199680" lon="-0.6882240">
        <ele>272.2</ele>
        <time>2019-10-19T14:41:38Z</time>
      </trkpt>
      <trkpt lat="38.3199620" lon="-0.6881230">
        <ele>272.4</ele>
        <time>2019-10-19T14:41:39Z</time>
      </trkpt>
      <trkpt lat="38.3199560" lon="-0.6880220">
        <ele>272.4</ele>
        <time>2019-10-19T14:41:40Z</time>
      </trkpt>
      <trkpt lat="38.3199520" lon="-0.6879220">
        <ele>272.2</ele>
        <time>2019-10-19T14:41:41Z</time>
      </trkpt>
      <trkpt lat="38.3199580" lon="-0.6878240">
        <ele>272.2</ele>
        <time>2019-10-19T14:41:42Z</time>
      </trkpt>
      <trkpt lat="38.3199760" lon="-0.6877290">
        <ele>272.2</ele>
        <time>2019-10-19T14:41:43Z</time>
      </trkpt>
      <trkpt lat="38.3200020" lon="-0.6876380">
        <ele>272.4</ele>
        <time>2019-10-19T14:41:44Z</time>
      </trkpt>
      <trkpt lat="38.3200380" lon="-0.6875540">
        <ele>272.4</ele>
        <time>2019-10-19T14:41:45Z</time>
      </trkpt>
      <trkpt lat="38.3200740" lon="-0.6874740">
        <ele>272.4</ele>
        <time>2019-10-19T14:41:46Z</time>
      </trkpt>
      <trkpt lat="38.3200990" lon="-0.6873930">
        <ele>272.8</ele>
        <time>2019-10-19T14:41:47Z</time>
      </trkpt>
      <trkpt lat="38.3201210" lon="-0.6873170">
        <ele>273.4</ele>
        <time>2019-10-19T14:41:48Z</time>
      </trkpt>
      <trkpt lat="38.3201430" lon="-0.6872500">
        <ele>273.8</ele>
        <time>2019-10-19T14:41:49Z</time>
      </trkpt>
      <trkpt lat="38.3201680" lon="-0.6871900">
        <ele>274.2</ele>
        <time>2019-10-19T14:41:50Z</time>
      </trkpt>
      <trkpt lat="38.3201910" lon="-0.6871360">
        <ele>274.8</ele>
        <time>2019-10-19T14:41:51Z</time>
      </trkpt>
      <trkpt lat="38.3202160" lon="-0.6870880">
        <ele>275.0</ele>
        <time>2019-10-19T14:41:52Z</time>
      </trkpt>
      <trkpt lat="38.3202430" lon="-0.6870400">
        <ele>275.8</ele>
        <time>2019-10-19T14:41:53Z</time>
      </trkpt>
      <trkpt lat="38.3202740" lon="-0.6869890">
        <ele>276.0</ele>
        <time>2019-10-19T14:41:54Z</time>
      </trkpt>
      <trkpt lat="38.3203060" lon="-0.6869370">
        <ele>275.8</ele>
        <time>2019-10-19T14:41:55Z</time>
      </trkpt>
      <trkpt lat="38.3203400" lon="-0.6868840">
        <ele>275.8</ele>
        <time>2019-10-19T14:41:56Z</time>
      </trkpt>
      <trkpt lat="38.3203760" lon="-0.6868280">
        <ele>275.8</ele>
        <time>2019-10-19T14:41:57Z</time>
      </trkpt>
      <trkpt lat="38.3204100" lon="-0.6867710">
        <ele>275.8</ele>
        <time>2019-10-19T14:41:58Z</time>
      </trkpt>
      <trkpt lat="38.3204430" lon="-0.6867120">
        <ele>275.6</ele>
        <time>2019-10-19T14:41:59Z</time>
      </trkpt>
      <trkpt lat="38.3204760" lon="-0.6866580">
        <ele>275.8</ele>
        <time>2019-10-19T14:42:00Z</time>
      </trkpt>
      <trkpt lat="38.3205050" lon="-0.6866100">
        <ele>276.2</ele>
        <time>2019-10-19T14:42:01Z</time>
      </trkpt>
      <trkpt lat="38.3205280" lon="-0.6865700">
        <ele>277.0</ele>
        <time>2019-10-19T14:42:02Z</time>
      </trkpt>
      <trkpt lat="38.3205400" lon="-0.6865350">
        <ele>277.4</ele>
        <time>2019-10-19T14:42:03Z</time>
      </trkpt>
      <trkpt lat="38.3205500" lon="-0.6864970">
        <ele>277.8</ele>
        <time>2019-10-19T14:42:04Z</time>
      </trkpt>
      <trkpt lat="38.3205620" lon="-0.6864610">
        <ele>278.0</ele>
        <time>2019-10-19T14:42:05Z</time>
      </trkpt>
      <trkpt lat="38.3205740" lon="-0.6864290">
        <ele>278.4</ele>
        <time>2019-10-19T14:42:06Z</time>
      </trkpt>
      <trkpt lat="38.3205870" lon="-0.6863990">
        <ele>279.0</ele>
        <time>2019-10-19T14:42:07Z</time>
      </trkpt>
      <trkpt lat="38.3206030" lon="-0.6863710">
        <ele>279.4</ele>
        <time>2019-10-19T14:42:08Z</time>
      </trkpt>
      <trkpt lat="38.3206180" lon="-0.6863430">
        <ele>279.8</ele>
        <time>2019-10-19T14:42:09Z</time>
      </trkpt>
      <trkpt lat="38.3206310" lon="-0.6863130">
        <ele>280.2</ele>
        <time>2019-10-19T14:42:10Z</time>
      </trkpt>
      <trkpt lat="38.3206440" lon="-0.6862820">
        <ele>280.4</ele>
        <time>2019-10-19T14:42:11Z</time>
      </trkpt>
      <trkpt lat="38.3206580" lon="-0.6862500">
        <ele>281.0</ele>
        <time>2019-10-19T14:42:12Z</time>
      </trkpt>
      <trkpt lat="38.3206730" lon="-0.6862230">
        <ele>281.4</ele>
        <time>2019-10-19T14:42:13Z</time>
      </trkpt>
      <trkpt lat="38.3206860" lon="-0.6861960">
        <ele>281.4</ele>
        <time>2019-10-19T14:42:14Z</time>
      </trkpt>
      <trkpt lat="38.3206990" lon="-0.6861700">
        <ele>281.6</ele>
        <time>2019-10-19T14:42:15Z</time>
      </trkpt>
      <trkpt lat="38.3207120" lon="-0.6861450">
        <ele>282.2</ele>
        <time>2019-10-19T14:42:16Z</time>
      </trkpt>
      <trkpt lat="38.3207220" lon="-0.6861180">
        <ele>282.6</ele>
        <time>2019-10-19T14:42:17Z</time>
      </trkpt>
      <trkpt lat="38.3207330" lon="-0.6860920">
        <ele>283.0</ele>
        <time>2019-10-19T14:42:18Z</time>
      </trkpt>
      <trkpt lat="38.3207420" lon="-0.6860670">
        <ele>283.6</ele>
        <time>2019-10-19T14:42:19Z</time>
      </trkpt>
      <trkpt lat="38.3207510" lon="-0.6860430">
        <ele>283.8</ele>
        <time>2019-10-19T14:42:20Z</time>
      </trkpt>
      <trkpt lat="38.3207650" lon="-0.6860190">
        <ele>284.2</ele>
        <time>2019-10-19T14:42:21Z</time>
      </trkpt>
      <trkpt lat="38.3207810" lon="-0.6859960">
        <ele>284.2</ele>
        <time>2019-10-19T14:42:22Z</time>
      </trkpt>
      <trkpt lat="38.3207970" lon="-0.6859700">
        <ele>284.8</ele>
        <time>2019-10-19T14:42:23Z</time>
      </trkpt>
      <trkpt lat="38.3208140" lon="-0.6859490">
        <ele>285.0</ele>
        <time>2019-10-19T14:42:24Z</time>
      </trkpt>
      <trkpt lat="38.3208330" lon="-0.6859300">
        <ele>285.4</ele>
        <time>2019-10-19T14:42:25Z</time>
      </trkpt>
      <trkpt lat="38.3208560" lon="-0.6859100">
        <ele>285.8</ele>
        <time>2019-10-19T14:42:26Z</time>
      </trkpt>
      <trkpt lat="38.3208820" lon="-0.6858920">
        <ele>286.2</ele>
        <time>2019-10-19T14:42:27Z</time>
      </trkpt>
      <trkpt lat="38.3209080" lon="-0.6858760">
        <ele>286.2</ele>
        <time>2019-10-19T14:42:28Z</time>
      </trkpt>
      <trkpt lat="38.3209340" lon="-0.6858640">
        <ele>286.6</ele>
        <time>2019-10-19T14:42:29Z</time>
      </trkpt>
      <trkpt lat="38.3209590" lon="-0.6858520">
        <ele>287.0</ele>
        <time>2019-10-19T14:42:30Z</time>
      </trkpt>
      <trkpt lat="38.3209820" lon="-0.6858400">
        <ele>287.4</ele>
        <time>2019-10-19T14:42:31Z</time>
      </trkpt>
      <trkpt lat="38.3210080" lon="-0.6858280">
        <ele>287.8</ele>
        <time>2019-10-19T14:42:32Z</time>
      </trkpt>
      <trkpt lat="38.3210360" lon="-0.6858160">
        <ele>287.8</ele>
        <time>2019-10-19T14:42:33Z</time>
      </trkpt>
      <trkpt lat="38.3210660" lon="-0.6858040">
        <ele>287.8</ele>
        <time>2019-10-19T14:42:34Z</time>
      </trkpt>
      <trkpt lat="38.3210970" lon="-0.6857940">
        <ele>288.0</ele>
        <time>2019-10-19T14:42:35Z</time>
      </trkpt>
      <trkpt lat="38.3211310" lon="-0.6857900">
        <ele>288.4</ele>
        <time>2019-10-19T14:42:36Z</time>
      </trkpt>
      <trkpt lat="38.3211620" lon="-0.6857930">
        <ele>288.6</ele>
        <time>2019-10-19T14:42:37Z</time>
      </trkpt>
      <trkpt lat="38.3211870" lon="-0.6857980">
        <ele>289.2</ele>
        <time>2019-10-19T14:42:38Z</time>
      </trkpt>
      <trkpt lat="38.3212170" lon="-0.6857980">
        <ele>289.2</ele>
        <time>2019-10-19T14:42:39Z</time>
      </trkpt>
      <trkpt lat="38.3212520" lon="-0.6857950">
        <ele>289.2</ele>
        <time>2019-10-19T14:42:40Z</time>
      </trkpt>
      <trkpt lat="38.3212890" lon="-0.6857900">
        <ele>289.2</ele>
        <time>2019-10-19T14:42:41Z</time>
      </trkpt>
      <trkpt lat="38.3213280" lon="-0.6857920">
        <ele>289.4</ele>
        <time>2019-10-19T14:42:42Z</time>
      </trkpt>
      <trkpt lat="38.3213660" lon="-0.6858020">
        <ele>289.8</ele>
        <time>2019-10-19T14:42:43Z</time>
      </trkpt>
      <trkpt lat="38.3214060" lon="-0.6858160">
        <ele>289.6</ele>
        <time>2019-10-19T14:42:44Z</time>
      </trkpt>
      <trkpt lat="38.3214570" lon="-0.6858370">
        <ele>288.4</ele>
        <time>2019-10-19T14:42:45Z</time>
      </trkpt>
      <trkpt lat="38.3215160" lon="-0.6858610">
        <ele>287.8</ele>
        <time>2019-10-19T14:42:46Z</time>
      </trkpt>
      <trkpt lat="38.3215800" lon="-0.6858920">
        <ele>286.6</ele>
        <time>2019-10-19T14:42:47Z</time>
      </trkpt>
      <trkpt lat="38.3216460" lon="-0.6859280">
        <ele>286.0</ele>
        <time>2019-10-19T14:42:48Z</time>
      </trkpt>
      <trkpt lat="38.3217120" lon="-0.6859670">
        <ele>286.0</ele>
        <time>2019-10-19T14:42:49Z</time>
      </trkpt>
      <trkpt lat="38.3217750" lon="-0.6860050">
        <ele>286.2</ele>
        <time>2019-10-19T14:42:50Z</time>
      </trkpt>
      <trkpt lat="38.3218410" lon="-0.6860420">
        <ele>286.0</ele>
        <time>2019-10-19T14:42:51Z</time>
      </trkpt>
      <trkpt lat="38.3219100" lon="-0.6860770">
        <ele>285.8</ele>
        <time>2019-10-19T14:42:52Z</time>
      </trkpt>
      <trkpt lat="38.3219780" lon="-0.6861140">
        <ele>285.6</ele>
        <time>2019-10-19T14:42:53Z</time>
      </trkpt>
      <trkpt lat="38.3220430" lon="-0.6861510">
        <ele>285.6</ele>
        <time>2019-10-19T14:42:54Z</time>
      </trkpt>
      <trkpt lat="38.3220960" lon="-0.6861770">
        <ele>286.6</ele>
        <time>2019-10-19T14:42:55Z</time>
      </trkpt>
      <trkpt lat="38.3221310" lon="-0.6861920">
        <ele>287.8</ele>
        <time>2019-10-19T14:42:56Z</time>
      </trkpt>
      <trkpt lat="38.3221550" lon="-0.6861980">
        <ele>289.0</ele>
        <time>2019-10-19T14:42:57Z</time>
      </trkpt>
      <trkpt lat="38.3221760" lon="-0.6862030">
        <ele>289.8</ele>
        <time>2019-10-19T14:42:58Z</time>
      </trkpt>
      <trkpt lat="38.3221950" lon="-0.6862080">
        <ele>290.6</ele>
        <time>2019-10-19T14:42:59Z</time>
      </trkpt>
      <trkpt lat="38.3222120" lon="-0.6862140">
        <ele>291.0</ele>
        <time>2019-10-19T14:43:00Z</time>
      </trkpt>
      <trkpt lat="38.3222260" lon="-0.6862220">
        <ele>291.6</ele>
        <time>2019-10-19T14:43:01Z</time>
      </trkpt>
      <trkpt lat="38.3222380" lon="-0.6862270">
        <ele>292.2</ele>
        <time>2019-10-19T14:43:02Z</time>
      </trkpt>
      <trkpt lat="38.3222560" lon="-0.6862320">
        <ele>292.4</ele>
        <time>2019-10-19T14:43:03Z</time>
      </trkpt>
      <trkpt lat="38.3222790" lon="-0.6862390">
        <ele>292.6</ele>
        <time>2019-10-19T14:43:04Z</time>
      </trkpt>
      <trkpt lat="38.3223040" lon="-0.6862410">
        <ele>292.8</ele>
        <time>2019-10-19T14:43:05Z</time>
      </trkpt>
      <trkpt lat="38.3223290" lon="-0.6862460">
        <ele>293.0</ele>
        <time>2019-10-19T14:43:06Z</time>
      </trkpt>
      <trkpt lat="38.3223540" lon="-0.6862520">
        <ele>293.4</ele>
        <time>2019-10-19T14:43:07Z</time>
      </trkpt>
      <trkpt lat="38.3223750" lon="-0.6862610">
        <ele>293.6</ele>
        <time>2019-10-19T14:43:08Z</time>
      </trkpt>
      <trkpt lat="38.3224000" lon="-0.6862720">
        <ele>293.6</ele>
        <time>2019-10-19T14:43:09Z</time>
      </trkpt>
      <trkpt lat="38.3224250" lon="-0.6862830">
        <ele>293.8</ele>
        <time>2019-10-19T14:43:10Z</time>
      </trkpt>
      <trkpt lat="38.3224530" lon="-0.6863010">
        <ele>293.6</ele>
        <time>2019-10-19T14:43:11Z</time>
      </trkpt>
      <trkpt lat="38.3224860" lon="-0.6863220">
        <ele>293.2</ele>
        <time>2019-10-19T14:43:12Z</time>
      </trkpt>
      <trkpt lat="38.3225290" lon="-0.6863340">
        <ele>292.8</ele>
        <time>2019-10-19T14:43:13Z</time>
      </trkpt>
      <trkpt lat="38.3225770" lon="-0.6863440">
        <ele>292.4</ele>
        <time>2019-10-19T14:43:14Z</time>
      </trkpt>
      <trkpt lat="38.3226270" lon="-0.6863640">
        <ele>291.8</ele>
        <time>2019-10-19T14:43:15Z</time>
      </trkpt>
      <trkpt lat="38.3226720" lon="-0.6863860">
        <ele>291.0</ele>
        <time>2019-10-19T14:43:16Z</time>
      </trkpt>
      <trkpt lat="38.3227160" lon="-0.6864160">
        <ele>290.0</ele>
        <time>2019-10-19T14:43:17Z</time>
      </trkpt>
      <trkpt lat="38.3227590" lon="-0.6864510">
        <ele>288.6</ele>
        <time>2019-10-19T14:43:18Z</time>
      </trkpt>
      <trkpt lat="38.3227900" lon="-0.6864920">
        <ele>288.2</ele>
        <time>2019-10-19T14:43:19Z</time>
      </trkpt>
      <trkpt lat="38.3228220" lon="-0.6865300">
        <ele>287.8</ele>
        <time>2019-10-19T14:43:20Z</time>
      </trkpt>
      <trkpt lat="38.3228460" lon="-0.6865810">
        <ele>287.0</ele>
        <time>2019-10-19T14:43:21Z</time>
      </trkpt>
      <trkpt lat="38.3228650" lon="-0.6866430">
        <ele>286.4</ele>
        <time>2019-10-19T14:43:22Z</time>
      </trkpt>
      <trkpt lat="38.3228770" lon="-0.6867090">
        <ele>286.4</ele>
        <time>2019-10-19T14:43:23Z</time>
      </trkpt>
      <trkpt lat="38.3228910" lon="-0.6867760">
        <ele>285.8</ele>
        <time>2019-10-19T14:43:24Z</time>
      </trkpt>
      <trkpt lat="38.3229080" lon="-0.6868450">
        <ele>285.6</ele>
        <time>2019-10-19T14:43:25Z</time>
      </trkpt>
      <trkpt lat="38.3229260" lon="-0.6869170">
        <ele>285.6</ele>
        <time>2019-10-19T14:43:26Z</time>
      </trkpt>
      <trkpt lat="38.3229380" lon="-0.6869940">
        <ele>285.4</ele>
        <time>2019-10-19T14:43:27Z</time>
      </trkpt>
      <trkpt lat="38.3229480" lon="-0.6870740">
        <ele>285.4</ele>
        <time>2019-10-19T14:43:28Z</time>
      </trkpt>
      <trkpt lat="38.3229560" lon="-0.6871580">
        <ele>285.2</ele>
        <time>2019-10-19T14:43:29Z</time>
      </trkpt>
      <trkpt lat="38.3229650" lon="-0.6872470">
        <ele>284.8</ele>
        <time>2019-10-19T14:43:30Z</time>
      </trkpt>
      <trkpt lat="38.3229720" lon="-0.6873380">
        <ele>284.4</ele>
        <time>2019-10-19T14:43:31Z</time>
      </trkpt>
      <trkpt lat="38.3229710" lon="-0.6874320">
        <ele>284.2</ele>
        <time>2019-10-19T14:43:32Z</time>
      </trkpt>
      <trkpt lat="38.3229660" lon="-0.6875260">
        <ele>284.2</ele>
        <time>2019-10-19T14:43:33Z</time>
      </trkpt>
      <trkpt lat="38.3229560" lon="-0.6876220">
        <ele>284.2</ele>
        <time>2019-10-19T14:43:34Z</time>
      </trkpt>
      <trkpt lat="38.3229470" lon="-0.6877180">
        <ele>283.8</ele>
        <time>2019-10-19T14:43:35Z</time>
      </trkpt>
      <trkpt lat="38.3229410" lon="-0.6878140">
        <ele>284.0</ele>
        <time>2019-10-19T14:43:36Z</time>
      </trkpt>
      <trkpt lat="38.3229420" lon="-0.6879050">
        <ele>284.2</ele>
        <time>2019-10-19T14:43:37Z</time>
      </trkpt>
      <trkpt lat="38.3229420" lon="-0.6880010">
        <ele>284.0</ele>
        <time>2019-10-19T14:43:38Z</time>
      </trkpt>
      <trkpt lat="38.3229370" lon="-0.6881000">
        <ele>283.4</ele>
        <time>2019-10-19T14:43:39Z</time>
      </trkpt>
      <trkpt lat="38.3229290" lon="-0.6882030">
        <ele>283.0</ele>
        <time>2019-10-19T14:43:40Z</time>
      </trkpt>
      <trkpt lat="38.3229120" lon="-0.6883030">
        <ele>282.4</ele>
        <time>2019-10-19T14:43:41Z</time>
      </trkpt>
      <trkpt lat="38.3229080" lon="-0.6883870">
        <ele>282.2</ele>
        <time>2019-10-19T14:43:42Z</time>
      </trkpt>
      <trkpt lat="38.3229190" lon="-0.6884580">
        <ele>282.4</ele>
        <time>2019-10-19T14:43:43Z</time>
      </trkpt>
      <trkpt lat="38.3229490" lon="-0.6885190">
        <ele>282.2</ele>
        <time>2019-10-19T14:43:44Z</time>
      </trkpt>
      <trkpt lat="38.3229960" lon="-0.6885670">
        <ele>282.2</ele>
        <time>2019-10-19T14:43:45Z</time>
      </trkpt>
      <trkpt lat="38.3230520" lon="-0.6885990">
        <ele>282.0</ele>
        <time>2019-10-19T14:43:46Z</time>
      </trkpt>
      <trkpt lat="38.3231150" lon="-0.6886080">
        <ele>281.8</ele>
        <time>2019-10-19T14:43:47Z</time>
      </trkpt>
      <trkpt lat="38.3231740" lon="-0.6885990">
        <ele>282.0</ele>
        <time>2019-10-19T14:43:48Z</time>
      </trkpt>
      <trkpt lat="38.3232290" lon="-0.6885730">
        <ele>282.4</ele>
        <time>2019-10-19T14:43:49Z</time>
      </trkpt>
      <trkpt lat="38.3232750" lon="-0.6885280">
        <ele>282.6</ele>
        <time>2019-10-19T14:43:50Z</time>
      </trkpt>
      <trkpt lat="38.3233120" lon="-0.6884670">
        <ele>282.2</ele>
        <time>2019-10-19T14:43:51Z</time>
      </trkpt>
      <trkpt lat="38.3233470" lon="-0.6884000">
        <ele>281.8</ele>
        <time>2019-10-19T14:43:52Z</time>
      </trkpt>
      <trkpt lat="38.3233820" lon="-0.6883300">
        <ele>281.8</ele>
        <time>2019-10-19T14:43:53Z</time>
      </trkpt>
      <trkpt lat="38.3234170" lon="-0.6882570">
        <ele>282.0</ele>
        <time>2019-10-19T14:43:54Z</time>
      </trkpt>
      <trkpt lat="38.3234500" lon="-0.6881830">
        <ele>281.6</ele>
        <time>2019-10-19T14:43:55Z</time>
      </trkpt>
      <trkpt lat="38.3234820" lon="-0.6881060">
        <ele>281.4</ele>
        <time>2019-10-19T14:43:56Z</time>
      </trkpt>
      <trkpt lat="38.3235190" lon="-0.6880350">
        <ele>281.4</ele>
        <time>2019-10-19T14:43:57Z</time>
      </trkpt>
      <trkpt lat="38.3235600" lon="-0.6879710">
        <ele>281.2</ele>
        <time>2019-10-19T14:43:58Z</time>
      </trkpt>
      <trkpt lat="38.3236100" lon="-0.6879170">
        <ele>281.4</ele>
        <time>2019-10-19T14:43:59Z</time>
      </trkpt>
      <trkpt lat="38.3236620" lon="-0.6878630">
        <ele>281.6</ele>
        <time>2019-10-19T14:44:00Z</time>
      </trkpt>
      <trkpt lat="38.3237120" lon="-0.6878010">
        <ele>281.6</ele>
        <time>2019-10-19T14:44:01Z</time>
      </trkpt>
      <trkpt lat="38.3237630" lon="-0.6877420">
        <ele>281.2</ele>
        <time>2019-10-19T14:44:02Z</time>
      </trkpt>
      <trkpt lat="38.3238030" lon="-0.6876840">
        <ele>280.8</ele>
        <time>2019-10-19T14:44:03Z</time>
      </trkpt>
      <trkpt lat="38.3238480" lon="-0.6876170">
        <ele>279.6</ele>
        <time>2019-10-19T14:44:04Z</time>
      </trkpt>
      <trkpt lat="38.3239010" lon="-0.6875470">
        <ele>278.4</ele>
        <time>2019-10-19T14:44:05Z</time>
      </trkpt>
      <trkpt lat="38.3239640" lon="-0.6874820">
        <ele>278.0</ele>
        <time>2019-10-19T14:44:06Z</time>
      </trkpt>
      <trkpt lat="38.3240360" lon="-0.6874340">
        <ele>278.0</ele>
        <time>2019-10-19T14:44:07Z</time>
      </trkpt>
      <trkpt lat="38.3241140" lon="-0.6874060">
        <ele>277.6</ele>
        <time>2019-10-19T14:44:08Z</time>
      </trkpt>
      <trkpt lat="38.3241730" lon="-0.6873780">
        <ele>278.0</ele>
        <time>2019-10-19T14:44:09Z</time>
      </trkpt>
      <trkpt lat="38.3242130" lon="-0.6873310">
        <ele>277.8</ele>
        <time>2019-10-19T14:44:10Z</time>
      </trkpt>
      <trkpt lat="38.3242380" lon="-0.6872680">
        <ele>277.8</ele>
        <time>2019-10-19T14:44:11Z</time>
      </trkpt>
      <trkpt lat="38.3242510" lon="-0.6871970">
        <ele>278.0</ele>
        <time>2019-10-19T14:44:12Z</time>
      </trkpt>
      <trkpt lat="38.3242500" lon="-0.6871280">
        <ele>278.2</ele>
        <time>2019-10-19T14:44:13Z</time>
      </trkpt>
      <trkpt lat="38.3242510" lon="-0.6870650">
        <ele>278.2</ele>
        <time>2019-10-19T14:44:14Z</time>
      </trkpt>
      <trkpt lat="38.3242570" lon="-0.6870100">
        <ele>278.4</ele>
        <time>2019-10-19T14:44:15Z</time>
      </trkpt>
      <trkpt lat="38.3242680" lon="-0.6869720">
        <ele>278.4</ele>
        <time>2019-10-19T14:44:16Z</time>
      </trkpt>
      <trkpt lat="38.3242770" lon="-0.6869540">
        <ele>278.0</ele>
        <time>2019-10-19T14:44:17Z</time>
      </trkpt>
      <trkpt lat="38.3242880" lon="-0.6869420">
        <ele>278.2</ele>
        <time>2019-10-19T14:44:18Z</time>
      </trkpt>
      <trkpt lat="38.3243010" lon="-0.6869360">
        <ele>279.0</ele>
        <time>2019-10-19T14:44:19Z</time>
      </trkpt>
      <trkpt lat="38.3243130" lon="-0.6869330">
        <ele>279.6</ele>
        <time>2019-10-19T14:44:20Z</time>
      </trkpt>
      <trkpt lat="38.3243250" lon="-0.6869320">
        <ele>280.0</ele>
        <time>2019-10-19T14:44:21Z</time>
      </trkpt>
      <trkpt lat="38.3243380" lon="-0.6869300">
        <ele>280.6</ele>
        <time>2019-10-19T14:44:22Z</time>
      </trkpt>
      <trkpt lat="38.3243540" lon="-0.6869200">
        <ele>281.0</ele>
        <time>2019-10-19T14:44:23Z</time>
      </trkpt>
      <trkpt lat="38.3243720" lon="-0.6869100">
        <ele>281.6</ele>
        <time>2019-10-19T14:44:24Z</time>
      </trkpt>
      <trkpt lat="38.3243890" lon="-0.6869040">
        <ele>282.2</ele>
        <time>2019-10-19T14:44:25Z</time>
      </trkpt>
      <trkpt lat="38.3244070" lon="-0.6869030">
        <ele>282.6</ele>
        <time>2019-10-19T14:44:26Z</time>
      </trkpt>
      <trkpt lat="38.3244250" lon="-0.6869070">
        <ele>283.2</ele>
        <time>2019-10-19T14:44:27Z</time>
      </trkpt>
      <trkpt lat="38.3244420" lon="-0.6869140">
        <ele>283.6</ele>
        <time>2019-10-19T14:44:28Z</time>
      </trkpt>
      <trkpt lat="38.3244560" lon="-0.6869230">
        <ele>284.2</ele>
        <time>2019-10-19T14:44:29Z</time>
      </trkpt>
      <trkpt lat="38.3244700" lon="-0.6869370">
        <ele>284.8</ele>
        <time>2019-10-19T14:44:30Z</time>
      </trkpt>
      <trkpt lat="38.3244810" lon="-0.6869520">
        <ele>285.2</ele>
        <time>2019-10-19T14:44:31Z</time>
      </trkpt>
      <trkpt lat="38.3244930" lon="-0.6869670">
        <ele>285.4</ele>
        <time>2019-10-19T14:44:32Z</time>
      </trkpt>
      <trkpt lat="38.3245040" lon="-0.6869860">
        <ele>286.0</ele>
        <time>2019-10-19T14:44:33Z</time>
      </trkpt>
      <trkpt lat="38.3245140" lon="-0.6870080">
        <ele>286.2</ele>
        <time>2019-10-19T14:44:34Z</time>
      </trkpt>
      <trkpt lat="38.3245240" lon="-0.6870300">
        <ele>286.4</ele>
        <time>2019-10-19T14:44:35Z</time>
      </trkpt>
      <trkpt lat="38.3245350" lon="-0.6870550">
        <ele>286.8</ele>
        <time>2019-10-19T14:44:36Z</time>
      </trkpt>
      <trkpt lat="38.3245510" lon="-0.6870780">
        <ele>287.0</ele>
        <time>2019-10-19T14:44:37Z</time>
      </trkpt>
      <trkpt lat="38.3245650" lon="-0.6870910">
        <ele>287.4</ele>
        <time>2019-10-19T14:44:38Z</time>
      </trkpt>
      <trkpt lat="38.3245780" lon="-0.6870940">
        <ele>288.2</ele>
        <time>2019-10-19T14:44:39Z</time>
      </trkpt>
      <trkpt lat="38.3245940" lon="-0.6870950">
        <ele>288.6</ele>
        <time>2019-10-19T14:44:40Z</time>
      </trkpt>
      <trkpt lat="38.3246130" lon="-0.6870970">
        <ele>288.8</ele>
        <time>2019-10-19T14:44:41Z</time>
      </trkpt>
      <trkpt lat="38.3246330" lon="-0.6871000">
        <ele>289.0</ele>
        <time>2019-10-19T14:44:42Z</time>
      </trkpt>
      <trkpt lat="38.3246510" lon="-0.6871030">
        <ele>289.8</ele>
        <time>2019-10-19T14:44:43Z</time>
      </trkpt>
      <trkpt lat="38.3246650" lon="-0.6871050">
        <ele>290.4</ele>
        <time>2019-10-19T14:44:44Z</time>
      </trkpt>
      <trkpt lat="38.3246780" lon="-0.6871090">
        <ele>290.8</ele>
        <time>2019-10-19T14:44:45Z</time>
      </trkpt>
      <trkpt lat="38.3246900" lon="-0.6871140">
        <ele>291.2</ele>
        <time>2019-10-19T14:44:46Z</time>
      </trkpt>
      <trkpt lat="38.3247040" lon="-0.6871190">
        <ele>291.6</ele>
        <time>2019-10-19T14:44:47Z</time>
      </trkpt>
      <trkpt lat="38.3247190" lon="-0.6871230">
        <ele>292.2</ele>
        <time>2019-10-19T14:44:48Z</time>
      </trkpt>
      <trkpt lat="38.3247350" lon="-0.6871280">
        <ele>292.4</ele>
        <time>2019-10-19T14:44:49Z</time>
      </trkpt>
      <trkpt lat="38.3247500" lon="-0.6871310">
        <ele>293.0</ele>
        <time>2019-10-19T14:44:50Z</time>
      </trkpt>
      <trkpt lat="38.3247640" lon="-0.6871330">
        <ele>293.4</ele>
        <time>2019-10-19T14:44:51Z</time>
      </trkpt>
      <trkpt lat="38.3247780" lon="-0.6871380">
        <ele>293.8</ele>
        <time>2019-10-19T14:44:52Z</time>
      </trkpt>
      <trkpt lat="38.3247930" lon="-0.6871420">
        <ele>294.2</ele>
        <time>2019-10-19T14:44:53Z</time>
      </trkpt>
      <trkpt lat="38.3248110" lon="-0.6871460">
        <ele>294.4</ele>
        <time>2019-10-19T14:44:54Z</time>
      </trkpt>
      <trkpt lat="38.3248290" lon="-0.6871550">
        <ele>294.8</ele>
        <time>2019-10-19T14:44:55Z</time>
      </trkpt>
      <trkpt lat="38.3248480" lon="-0.6871670">
        <ele>295.0</ele>
        <time>2019-10-19T14:44:56Z</time>
      </trkpt>
      <trkpt lat="38.3248670" lon="-0.6871730">
        <ele>295.2</ele>
        <time>2019-10-19T14:44:57Z</time>
      </trkpt>
      <trkpt lat="38.3248860" lon="-0.6871800">
        <ele>295.6</ele>
        <time>2019-10-19T14:44:58Z</time>
      </trkpt>
      <trkpt lat="38.3249030" lon="-0.6871890">
        <ele>295.8</ele>
        <time>2019-10-19T14:44:59Z</time>
      </trkpt>
      <trkpt lat="38.3249220" lon="-0.6871950">
        <ele>296.0</ele>
        <time>2019-10-19T14:45:00Z</time>
      </trkpt>
      <trkpt lat="38.3249410" lon="-0.6872000">
        <ele>296.4</ele>
        <time>2019-10-19T14:45:01Z</time>
      </trkpt>
      <trkpt lat="38.3249630" lon="-0.6872040">
        <ele>296.6</ele>
        <time>2019-10-19T14:45:02Z</time>
      </trkpt>
      <trkpt lat="38.3249860" lon="-0.6872050">
        <ele>296.6</ele>
        <time>2019-10-19T14:45:03Z</time>
      </trkpt>
      <trkpt lat="38.3250060" lon="-0.6872050">
        <ele>297.0</ele>
        <time>2019-10-19T14:45:04Z</time>
      </trkpt>
      <trkpt lat="38.3250240" lon="-0.6872040">
        <ele>297.0</ele>
        <time>2019-10-19T14:45:05Z</time>
      </trkpt>
      <trkpt lat="38.3250430" lon="-0.6872040">
        <ele>297.4</ele>
        <time>2019-10-19T14:45:06Z</time>
      </trkpt>
      <trkpt lat="38.3250660" lon="-0.6872040">
        <ele>297.8</ele>
        <time>2019-10-19T14:45:07Z</time>
      </trkpt>
      <trkpt lat="38.3250920" lon="-0.6872040">
        <ele>297.8</ele>
        <time>2019-10-19T14:45:08Z</time>
      </trkpt>
      <trkpt lat="38.3251210" lon="-0.6872020">
        <ele>298.0</ele>
        <time>2019-10-19T14:45:09Z</time>
      </trkpt>
      <trkpt lat="38.3251540" lon="-0.6872010">
        <ele>298.2</ele>
        <time>2019-10-19T14:45:10Z</time>
      </trkpt>
      <trkpt lat="38.3251910" lon="-0.6872090">
        <ele>298.4</ele>
        <time>2019-10-19T14:45:11Z</time>
      </trkpt>
      <trkpt lat="38.3252300" lon="-0.6872180">
        <ele>298.4</ele>
        <time>2019-10-19T14:45:12Z</time>
      </trkpt>
      <trkpt lat="38.3252710" lon="-0.6872220">
        <ele>298.4</ele>
        <time>2019-10-19T14:45:13Z</time>
      </trkpt>
      <trkpt lat="38.3253160" lon="-0.6872230">
        <ele>298.4</ele>
        <time>2019-10-19T14:45:14Z</time>
      </trkpt>
      <trkpt lat="38.3253630" lon="-0.6872170">
        <ele>298.2</ele>
        <time>2019-10-19T14:45:15Z</time>
      </trkpt>
      <trkpt lat="38.3254120" lon="-0.6872040">
        <ele>298.0</ele>
        <time>2019-10-19T14:45:16Z</time>
      </trkpt>
      <trkpt lat="38.3254650" lon="-0.6871920">
        <ele>297.8</ele>
        <time>2019-10-19T14:45:17Z</time>
      </trkpt>
      <trkpt lat="38.3255250" lon="-0.6871840">
        <ele>297.4</ele>
        <time>2019-10-19T14:45:18Z</time>
      </trkpt>
      <trkpt lat="38.3255860" lon="-0.6871860">
        <ele>296.6</ele>
        <time>2019-10-19T14:45:19Z</time>
      </trkpt>
      <trkpt lat="38.3256470" lon="-0.6872160">
        <ele>295.4</ele>
        <time>2019-10-19T14:45:20Z</time>
      </trkpt>
      <trkpt lat="38.3257000" lon="-0.6872640">
        <ele>295.2</ele>
        <time>2019-10-19T14:45:21Z</time>
      </trkpt>
      <trkpt lat="38.3257460" lon="-0.6873110">
        <ele>295.4</ele>
        <time>2019-10-19T14:45:22Z</time>
      </trkpt>
      <trkpt lat="38.3257860" lon="-0.6873580">
        <ele>295.4</ele>
        <time>2019-10-19T14:45:23Z</time>
      </trkpt>
      <trkpt lat="38.3258230" lon="-0.6874050">
        <ele>296.2</ele>
        <time>2019-10-19T14:45:24Z</time>
      </trkpt>
      <trkpt lat="38.3258560" lon="-0.6874540">
        <ele>296.6</ele>
        <time>2019-10-19T14:45:25Z</time>
      </trkpt>
      <trkpt lat="38.3258850" lon="-0.6875040">
        <ele>297.0</ele>
        <time>2019-10-19T14:45:26Z</time>
      </trkpt>
      <trkpt lat="38.3259130" lon="-0.6875550">
        <ele>297.2</ele>
        <time>2019-10-19T14:45:27Z</time>
      </trkpt>
      <trkpt lat="38.3259390" lon="-0.6876070">
        <ele>297.2</ele>
        <time>2019-10-19T14:45:28Z</time>
      </trkpt>
      <trkpt lat="38.3259580" lon="-0.6876600">
        <ele>297.6</ele>
        <time>2019-10-19T14:45:29Z</time>
      </trkpt>
      <trkpt lat="38.3259810" lon="-0.6877080">
        <ele>297.8</ele>
        <time>2019-10-19T14:45:30Z</time>
      </trkpt>
      <trkpt lat="38.3260150" lon="-0.6877460">
        <ele>297.8</ele>
        <time>2019-10-19T14:45:31Z</time>
      </trkpt>
      <trkpt lat="38.3260590" lon="-0.6877650">
        <ele>297.6</ele>
        <time>2019-10-19T14:45:32Z</time>
      </trkpt>
      <trkpt lat="38.3261110" lon="-0.6877720">
        <ele>297.4</ele>
        <time>2019-10-19T14:45:33Z</time>
      </trkpt>
      <trkpt lat="38.3261650" lon="-0.6877710">
        <ele>297.6</ele>
        <time>2019-10-19T14:45:34Z</time>
      </trkpt>
      <trkpt lat="38.3262180" lon="-0.6877560">
        <ele>297.8</ele>
        <time>2019-10-19T14:45:35Z</time>
      </trkpt>
      <trkpt lat="38.3262740" lon="-0.6877340">
        <ele>297.8</ele>
        <time>2019-10-19T14:45:36Z</time>
      </trkpt>
      <trkpt lat="38.3263290" lon="-0.6877100">
        <ele>297.8</ele>
        <time>2019-10-19T14:45:37Z</time>
      </trkpt>
      <trkpt lat="38.3263820" lon="-0.6876810">
        <ele>297.8</ele>
        <time>2019-10-19T14:45:38Z</time>
      </trkpt>
      <trkpt lat="38.3264350" lon="-0.6876490">
        <ele>297.6</ele>
        <time>2019-10-19T14:45:39Z</time>
      </trkpt>
      <trkpt lat="38.3264920" lon="-0.6876150">
        <ele>297.6</ele>
        <time>2019-10-19T14:45:40Z</time>
      </trkpt>
      <trkpt lat="38.3265530" lon="-0.6875800">
        <ele>297.2</ele>
        <time>2019-10-19T14:45:41Z</time>
      </trkpt>
      <trkpt lat="38.3266160" lon="-0.6875460">
        <ele>297.2</ele>
        <time>2019-10-19T14:45:42Z</time>
      </trkpt>
      <trkpt lat="38.3266780" lon="-0.6875120">
        <ele>296.8</ele>
        <time>2019-10-19T14:45:43Z</time>
      </trkpt>
      <trkpt lat="38.3267380" lon="-0.6874690">
        <ele>296.4</ele>
        <time>2019-10-19T14:45:44Z</time>
      </trkpt>
      <trkpt lat="38.3268040" lon="-0.6874210">
        <ele>295.6</ele>
        <time>2019-10-19T14:45:45Z</time>
      </trkpt>
      <trkpt lat="38.3268760" lon="-0.6873720">
        <ele>295.2</ele>
        <time>2019-10-19T14:45:46Z</time>
      </trkpt>
      <trkpt lat="38.3269490" lon="-0.6873220">
        <ele>294.4</ele>
        <time>2019-10-19T14:45:47Z</time>
      </trkpt>
      <trkpt lat="38.3270180" lon="-0.6872720">
        <ele>294.4</ele>
        <time>2019-10-19T14:45:48Z</time>
      </trkpt>
      <trkpt lat="38.3270850" lon="-0.6872220">
        <ele>294.6</ele>
        <time>2019-10-19T14:45:49Z</time>
      </trkpt>
      <trkpt lat="38.3271500" lon="-0.6871750">
        <ele>294.8</ele>
        <time>2019-10-19T14:45:50Z</time>
      </trkpt>
      <trkpt lat="38.3272140" lon="-0.6871280">
        <ele>295.2</ele>
        <time>2019-10-19T14:45:51Z</time>
      </trkpt>
      <trkpt lat="38.3272770" lon="-0.6870730">
        <ele>294.8</ele>
        <time>2019-10-19T14:45:52Z</time>
      </trkpt>
      <trkpt lat="38.3273370" lon="-0.6870100">
        <ele>294.4</ele>
        <time>2019-10-19T14:45:53Z</time>
      </trkpt>
      <trkpt lat="38.3273860" lon="-0.6869390">
        <ele>294.4</ele>
        <time>2019-10-19T14:45:54Z</time>
      </trkpt>
      <trkpt lat="38.3274280" lon="-0.6868640">
        <ele>294.4</ele>
        <time>2019-10-19T14:45:55Z</time>
      </trkpt>
      <trkpt lat="38.3274670" lon="-0.6867880">
        <ele>294.4</ele>
        <time>2019-10-19T14:45:56Z</time>
      </trkpt>
      <trkpt lat="38.3275030" lon="-0.6867100">
        <ele>294.2</ele>
        <time>2019-10-19T14:45:57Z</time>
      </trkpt>
      <trkpt lat="38.3275380" lon="-0.6866320">
        <ele>294.0</ele>
        <time>2019-10-19T14:45:58Z</time>
      </trkpt>
      <trkpt lat="38.3275700" lon="-0.6865600">
        <ele>294.0</ele>
        <time>2019-10-19T14:45:59Z</time>
      </trkpt>
      <trkpt lat="38.3275950" lon="-0.6865060">
        <ele>294.2</ele>
        <time>2019-10-19T14:46:00Z</time>
      </trkpt>
      <trkpt lat="38.3276190" lon="-0.6864700">
        <ele>294.4</ele>
        <time>2019-10-19T14:46:01Z</time>
      </trkpt>
      <trkpt lat="38.3276480" lon="-0.6864430">
        <ele>294.2</ele>
        <time>2019-10-19T14:46:02Z</time>
      </trkpt>
      <trkpt lat="38.3276820" lon="-0.6864360">
        <ele>294.2</ele>
        <time>2019-10-19T14:46:03Z</time>
      </trkpt>
      <trkpt lat="38.3277170" lon="-0.6864500">
        <ele>294.4</ele>
        <time>2019-10-19T14:46:04Z</time>
      </trkpt>
      <trkpt lat="38.3277510" lon="-0.6864740">
        <ele>294.6</ele>
        <time>2019-10-19T14:46:05Z</time>
      </trkpt>
      <trkpt lat="38.3277840" lon="-0.6865040">
        <ele>294.8</ele>
        <time>2019-10-19T14:46:06Z</time>
      </trkpt>
      <trkpt lat="38.3278170" lon="-0.6865400">
        <ele>294.8</ele>
        <time>2019-10-19T14:46:07Z</time>
      </trkpt>
      <trkpt lat="38.3278520" lon="-0.6865740">
        <ele>295.2</ele>
        <time>2019-10-19T14:46:08Z</time>
      </trkpt>
      <trkpt lat="38.3278900" lon="-0.6866050">
        <ele>295.4</ele>
        <time>2019-10-19T14:46:09Z</time>
      </trkpt>
      <trkpt lat="38.3279300" lon="-0.6866340">
        <ele>295.6</ele>
        <time>2019-10-19T14:46:10Z</time>
      </trkpt>
      <trkpt lat="38.3279700" lon="-0.6866620">
        <ele>296.0</ele>
        <time>2019-10-19T14:46:11Z</time>
      </trkpt>
      <trkpt lat="38.3280110" lon="-0.6866920">
        <ele>296.2</ele>
        <time>2019-10-19T14:46:12Z</time>
      </trkpt>
      <trkpt lat="38.3280500" lon="-0.6867230">
        <ele>296.6</ele>
        <time>2019-10-19T14:46:13Z</time>
      </trkpt>
      <trkpt lat="38.3280890" lon="-0.6867540">
        <ele>297.0</ele>
        <time>2019-10-19T14:46:14Z</time>
      </trkpt>
      <trkpt lat="38.3281280" lon="-0.6867870">
        <ele>297.2</ele>
        <time>2019-10-19T14:46:15Z</time>
      </trkpt>
      <trkpt lat="38.3281680" lon="-0.6868200">
        <ele>297.6</ele>
        <time>2019-10-19T14:46:16Z</time>
      </trkpt>
      <trkpt lat="38.3282060" lon="-0.6868520">
        <ele>297.8</ele>
        <time>2019-10-19T14:46:17Z</time>
      </trkpt>
      <trkpt lat="38.3282440" lon="-0.6868850">
        <ele>298.0</ele>
        <time>2019-10-19T14:46:18Z</time>
      </trkpt>
      <trkpt lat="38.3282840" lon="-0.6869180">
        <ele>298.2</ele>
        <time>2019-10-19T14:46:19Z</time>
      </trkpt>
      <trkpt lat="38.3283270" lon="-0.6869470">
        <ele>298.6</ele>
        <time>2019-10-19T14:46:20Z</time>
      </trkpt>
      <trkpt lat="38.3283700" lon="-0.6869770">
        <ele>298.8</ele>
        <time>2019-10-19T14:46:21Z</time>
      </trkpt>
      <trkpt lat="38.3284140" lon="-0.6870090">
        <ele>299.0</ele>
        <time>2019-10-19T14:46:22Z</time>
      </trkpt>
      <trkpt lat="38.3284580" lon="-0.6870420">
        <ele>299.0</ele>
        <time>2019-10-19T14:46:23Z</time>
      </trkpt>
      <trkpt lat="38.3285030" lon="-0.6870770">
        <ele>299.0</ele>
        <time>2019-10-19T14:46:24Z</time>
      </trkpt>
      <trkpt lat="38.3285520" lon="-0.6871110">
        <ele>299.0</ele>
        <time>2019-10-19T14:46:25Z</time>
      </trkpt>
      <trkpt lat="38.3286030" lon="-0.6871450">
        <ele>299.0</ele>
        <time>2019-10-19T14:46:26Z</time>
      </trkpt>
      <trkpt lat="38.3286540" lon="-0.6871830">
        <ele>299.0</ele>
        <time>2019-10-19T14:46:27Z</time>
      </trkpt>
      <trkpt lat="38.3287040" lon="-0.6872230">
        <ele>299.2</ele>
        <time>2019-10-19T14:46:28Z</time>
      </trkpt>
      <trkpt lat="38.3287560" lon="-0.6872630">
        <ele>299.4</ele>
        <time>2019-10-19T14:46:29Z</time>
      </trkpt>
      <trkpt lat="38.3288090" lon="-0.6873020">
        <ele>299.4</ele>
        <time>2019-10-19T14:46:30Z</time>
      </trkpt>
      <trkpt lat="38.3288610" lon="-0.6873410">
        <ele>299.8</ele>
        <time>2019-10-19T14:46:31Z</time>
      </trkpt>
      <trkpt lat="38.3289130" lon="-0.6873780">
        <ele>299.8</ele>
        <time>2019-10-19T14:46:32Z</time>
      </trkpt>
      <trkpt lat="38.3289650" lon="-0.6874150">
        <ele>300.0</ele>
        <time>2019-10-19T14:46:33Z</time>
      </trkpt>
      <trkpt lat="38.3290170" lon="-0.6874500">
        <ele>300.4</ele>
        <time>2019-10-19T14:46:34Z</time>
      </trkpt>
      <trkpt lat="38.3290670" lon="-0.6874860">
        <ele>300.6</ele>
        <time>2019-10-19T14:46:35Z</time>
      </trkpt>
      <trkpt lat="38.3291150" lon="-0.6875230">
        <ele>301.2</ele>
        <time>2019-10-19T14:46:36Z</time>
      </trkpt>
      <trkpt lat="38.3291630" lon="-0.6875570">
        <ele>301.4</ele>
        <time>2019-10-19T14:46:37Z</time>
      </trkpt>
      <trkpt lat="38.3292100" lon="-0.6875900">
        <ele>301.6</ele>
        <time>2019-10-19T14:46:38Z</time>
      </trkpt>
      <trkpt lat="38.3292550" lon="-0.6876230">
        <ele>302.0</ele>
        <time>2019-10-19T14:46:39Z</time>
      </trkpt>
      <trkpt lat="38.3293010" lon="-0.6876570">
        <ele>302.6</ele>
        <time>2019-10-19T14:46:40Z</time>
      </trkpt>
      <trkpt lat="38.3293480" lon="-0.6876920">
        <ele>303.0</ele>
        <time>2019-10-19T14:46:41Z</time>
      </trkpt>
      <trkpt lat="38.3293910" lon="-0.6877260">
        <ele>303.2</ele>
        <time>2019-10-19T14:46:42Z</time>
      </trkpt>
      <trkpt lat="38.3294330" lon="-0.6877580">
        <ele>303.6</ele>
        <time>2019-10-19T14:46:43Z</time>
      </trkpt>
      <trkpt lat="38.3294720" lon="-0.6877870">
        <ele>303.8</ele>
        <time>2019-10-19T14:46:44Z</time>
      </trkpt>
      <trkpt lat="38.3295100" lon="-0.6878150">
        <ele>304.0</ele>
        <time>2019-10-19T14:46:45Z</time>
      </trkpt>
      <trkpt lat="38.3295480" lon="-0.6878430">
        <ele>304.2</ele>
        <time>2019-10-19T14:46:46Z</time>
      </trkpt>
      <trkpt lat="38.3295870" lon="-0.6878720">
        <ele>304.4</ele>
        <time>2019-10-19T14:46:47Z</time>
      </trkpt>
      <trkpt lat="38.3296270" lon="-0.6879010">
        <ele>304.6</ele>
        <time>2019-10-19T14:46:48Z</time>
      </trkpt>
      <trkpt lat="38.3296660" lon="-0.6879310">
        <ele>304.6</ele>
        <time>2019-10-19T14:46:49Z</time>
      </trkpt>
      <trkpt lat="38.3297060" lon="-0.6879660">
        <ele>304.8</ele>
        <time>2019-10-19T14:46:50Z</time>
      </trkpt>
      <trkpt lat="38.3297470" lon="-0.6880020">
        <ele>305.0</ele>
        <time>2019-10-19T14:46:51Z</time>
      </trkpt>
      <trkpt lat="38.3297880" lon="-0.6880410">
        <ele>305.0</ele>
        <time>2019-10-19T14:46:52Z</time>
      </trkpt>
      <trkpt lat="38.3298300" lon="-0.6880840">
        <ele>305.0</ele>
        <time>2019-10-19T14:46:53Z</time>
      </trkpt>
      <trkpt lat="38.3298720" lon="-0.6881290">
        <ele>305.0</ele>
        <time>2019-10-19T14:46:54Z</time>
      </trkpt>
      <trkpt lat="38.3299140" lon="-0.6881770">
        <ele>305.0</ele>
        <time>2019-10-19T14:46:55Z</time>
      </trkpt>
      <trkpt lat="38.3299540" lon="-0.6882280">
        <ele>305.2</ele>
        <time>2019-10-19T14:46:56Z</time>
      </trkpt>
      <trkpt lat="38.3299940" lon="-0.6882800">
        <ele>305.4</ele>
        <time>2019-10-19T14:46:57Z</time>
      </trkpt>
      <trkpt lat="38.3300330" lon="-0.6883330">
        <ele>305.6</ele>
        <time>2019-10-19T14:46:58Z</time>
      </trkpt>
      <trkpt lat="38.3300720" lon="-0.6883850">
        <ele>305.6</ele>
        <time>2019-10-19T14:46:59Z</time>
      </trkpt>
      <trkpt lat="38.3301100" lon="-0.6884380">
        <ele>305.8</ele>
        <time>2019-10-19T14:47:00Z</time>
      </trkpt>
      <trkpt lat="38.3301470" lon="-0.6884900">
        <ele>306.2</ele>
        <time>2019-10-19T14:47:01Z</time>
      </trkpt>
      <trkpt lat="38.3301850" lon="-0.6885420">
        <ele>306.4</ele>
        <time>2019-10-19T14:47:02Z</time>
      </trkpt>
      <trkpt lat="38.3302210" lon="-0.6885930">
        <ele>306.6</ele>
        <time>2019-10-19T14:47:03Z</time>
      </trkpt>
      <trkpt lat="38.3302570" lon="-0.6886450">
        <ele>306.8</ele>
        <time>2019-10-19T14:47:04Z</time>
      </trkpt>
      <trkpt lat="38.3302910" lon="-0.6886980">
        <ele>306.8</ele>
        <time>2019-10-19T14:47:05Z</time>
      </trkpt>
      <trkpt lat="38.3303260" lon="-0.6887510">
        <ele>307.0</ele>
        <time>2019-10-19T14:47:06Z</time>
      </trkpt>
      <trkpt lat="38.3303600" lon="-0.6888050">
        <ele>307.2</ele>
        <time>2019-10-19T14:47:07Z</time>
      </trkpt>
      <trkpt lat="38.3303940" lon="-0.6888620">
        <ele>307.4</ele>
        <time>2019-10-19T14:47:08Z</time>
      </trkpt>
      <trkpt lat="38.3304260" lon="-0.6889190">
        <ele>307.6</ele>
        <time>2019-10-19T14:47:09Z</time>
      </trkpt>
      <trkpt lat="38.3304570" lon="-0.6889790">
        <ele>307.8</ele>
        <time>2019-10-19T14:47:10Z</time>
      </trkpt>
      <trkpt lat="38.3304860" lon="-0.6890410">
        <ele>307.8</ele>
        <time>2019-10-19T14:47:11Z</time>
      </trkpt>
      <trkpt lat="38.3305130" lon="-0.6891060">
        <ele>307.8</ele>
        <time>2019-10-19T14:47:12Z</time>
      </trkpt>
      <trkpt lat="38.3305380" lon="-0.6891720">
        <ele>308.2</ele>
        <time>2019-10-19T14:47:13Z</time>
      </trkpt>
      <trkpt lat="38.3305600" lon="-0.6892400">
        <ele>308.4</ele>
        <time>2019-10-19T14:47:14Z</time>
      </trkpt>
      <trkpt lat="38.3305820" lon="-0.6893080">
        <ele>308.2</ele>
        <time>2019-10-19T14:47:15Z</time>
      </trkpt>
      <trkpt lat="38.3306030" lon="-0.6893760">
        <ele>308.4</ele>
        <time>2019-10-19T14:47:16Z</time>
      </trkpt>
      <trkpt lat="38.3306240" lon="-0.6894440">
        <ele>308.6</ele>
        <time>2019-10-19T14:47:17Z</time>
      </trkpt>
      <trkpt lat="38.3306440" lon="-0.6895130">
        <ele>308.8</ele>
        <time>2019-10-19T14:47:18Z</time>
      </trkpt>
      <trkpt lat="38.3306650" lon="-0.6895800">
        <ele>309.0</ele>
        <time>2019-10-19T14:47:19Z</time>
      </trkpt>
      <trkpt lat="38.3306890" lon="-0.6896440">
        <ele>309.2</ele>
        <time>2019-10-19T14:47:20Z</time>
      </trkpt>
      <trkpt lat="38.3307150" lon="-0.6897050">
        <ele>309.4</ele>
        <time>2019-10-19T14:47:21Z</time>
      </trkpt>
      <trkpt lat="38.3307460" lon="-0.6897600">
        <ele>309.4</ele>
        <time>2019-10-19T14:47:22Z</time>
      </trkpt>
      <trkpt lat="38.3307800" lon="-0.6898110">
        <ele>309.6</ele>
        <time>2019-10-19T14:47:23Z</time>
      </trkpt>
      <trkpt lat="38.3308120" lon="-0.6898570">
        <ele>310.2</ele>
        <time>2019-10-19T14:47:24Z</time>
      </trkpt>
      <trkpt lat="38.3308410" lon="-0.6899010">
        <ele>310.6</ele>
        <time>2019-10-19T14:47:25Z</time>
      </trkpt>
      <trkpt lat="38.3308660" lon="-0.6899470">
        <ele>310.8</ele>
        <time>2019-10-19T14:47:26Z</time>
      </trkpt>
      <trkpt lat="38.3308860" lon="-0.6899980">
        <ele>311.0</ele>
        <time>2019-10-19T14:47:27Z</time>
      </trkpt>
      <trkpt lat="38.3308990" lon="-0.6900550">
        <ele>311.2</ele>
        <time>2019-10-19T14:47:28Z</time>
      </trkpt>
      <trkpt lat="38.3309090" lon="-0.6901130">
        <ele>311.4</ele>
        <time>2019-10-19T14:47:29Z</time>
      </trkpt>
      <trkpt lat="38.3309150" lon="-0.6901730">
        <ele>311.6</ele>
        <time>2019-10-19T14:47:30Z</time>
      </trkpt>
      <trkpt lat="38.3309210" lon="-0.6902330">
        <ele>311.8</ele>
        <time>2019-10-19T14:47:31Z</time>
      </trkpt>
      <trkpt lat="38.3309270" lon="-0.6902930">
        <ele>312.0</ele>
        <time>2019-10-19T14:47:32Z</time>
      </trkpt>
      <trkpt lat="38.3309320" lon="-0.6903510">
        <ele>312.4</ele>
        <time>2019-10-19T14:47:33Z</time>
      </trkpt>
      <trkpt lat="38.3309370" lon="-0.6904070">
        <ele>312.4</ele>
        <time>2019-10-19T14:47:34Z</time>
      </trkpt>
      <trkpt lat="38.3309420" lon="-0.6904630">
        <ele>312.6</ele>
        <time>2019-10-19T14:47:35Z</time>
      </trkpt>
      <trkpt lat="38.3309480" lon="-0.6905190">
        <ele>312.8</ele>
        <time>2019-10-19T14:47:36Z</time>
      </trkpt>
      <trkpt lat="38.3309520" lon="-0.6905740">
        <ele>313.0</ele>
        <time>2019-10-19T14:47:37Z</time>
      </trkpt>
      <trkpt lat="38.3309550" lon="-0.6906310">
        <ele>313.2</ele>
        <time>2019-10-19T14:47:38Z</time>
      </trkpt>
      <trkpt lat="38.3309580" lon="-0.6906870">
        <ele>313.2</ele>
        <time>2019-10-19T14:47:39Z</time>
      </trkpt>
      <trkpt lat="38.3309620" lon="-0.6907440">
        <ele>313.4</ele>
        <time>2019-10-19T14:47:40Z</time>
      </trkpt>
      <trkpt lat="38.3309650" lon="-0.6908010">
        <ele>313.6</ele>
        <time>2019-10-19T14:47:41Z</time>
      </trkpt>
      <trkpt lat="38.3309680" lon="-0.6908580">
        <ele>314.0</ele>
        <time>2019-10-19T14:47:42Z</time>
      </trkpt>
      <trkpt lat="38.3309700" lon="-0.6909140">
        <ele>314.2</ele>
        <time>2019-10-19T14:47:43Z</time>
      </trkpt>
      <trkpt lat="38.3309720" lon="-0.6909710">
        <ele>314.4</ele>
        <time>2019-10-19T14:47:44Z</time>
      </trkpt>
      <trkpt lat="38.3309740" lon="-0.6910280">
        <ele>314.6</ele>
        <time>2019-10-19T14:47:45Z</time>
      </trkpt>
      <trkpt lat="38.3309770" lon="-0.6910840">
        <ele>315.0</ele>
        <time>2019-10-19T14:47:46Z</time>
      </trkpt>
      <trkpt lat="38.3309830" lon="-0.6911390">
        <ele>315.2</ele>
        <time>2019-10-19T14:47:47Z</time>
      </trkpt>
      <trkpt lat="38.3309890" lon="-0.6911950">
        <ele>315.6</ele>
        <time>2019-10-19T14:47:48Z</time>
      </trkpt>
      <trkpt lat="38.3309930" lon="-0.6912530">
        <ele>315.6</ele>
        <time>2019-10-19T14:47:49Z</time>
      </trkpt>
      <trkpt lat="38.3309980" lon="-0.6913110">
        <ele>316.0</ele>
        <time>2019-10-19T14:47:50Z</time>
      </trkpt>
      <trkpt lat="38.3310020" lon="-0.6913680">
        <ele>316.4</ele>
        <time>2019-10-19T14:47:51Z</time>
      </trkpt>
      <trkpt lat="38.3310050" lon="-0.6914260">
        <ele>316.4</ele>
        <time>2019-10-19T14:47:52Z</time>
      </trkpt>
      <trkpt lat="38.3310090" lon="-0.6914830">
        <ele>316.8</ele>
        <time>2019-10-19T14:47:53Z</time>
      </trkpt>
      <trkpt lat="38.3310130" lon="-0.6915410">
        <ele>317.0</ele>
        <time>2019-10-19T14:47:54Z</time>
      </trkpt>
      <trkpt lat="38.3310170" lon="-0.6916000">
        <ele>317.2</ele>
        <time>2019-10-19T14:47:55Z</time>
      </trkpt>
      <trkpt lat="38.3310210" lon="-0.6916570">
        <ele>317.4</ele>
        <time>2019-10-19T14:47:56Z</time>
      </trkpt>
      <trkpt lat="38.3310230" lon="-0.6917150">
        <ele>317.4</ele>
        <time>2019-10-19T14:47:57Z</time>
      </trkpt>
      <trkpt lat="38.3310280" lon="-0.6917730">
        <ele>317.6</ele>
        <time>2019-10-19T14:47:58Z</time>
      </trkpt>
      <trkpt lat="38.3310310" lon="-0.6918290">
        <ele>318.0</ele>
        <time>2019-10-19T14:47:59Z</time>
      </trkpt>
      <trkpt lat="38.3310350" lon="-0.6918860">
        <ele>318.2</ele>
        <time>2019-10-19T14:48:00Z</time>
      </trkpt>
      <trkpt lat="38.3310380" lon="-0.6919440">
        <ele>318.4</ele>
        <time>2019-10-19T14:48:01Z</time>
      </trkpt>
      <trkpt lat="38.3310410" lon="-0.6920010">
        <ele>318.6</ele>
        <time>2019-10-19T14:48:02Z</time>
      </trkpt>
      <trkpt lat="38.3310440" lon="-0.6920590">
        <ele>319.0</ele>
        <time>2019-10-19T14:48:03Z</time>
      </trkpt>
      <trkpt lat="38.3310470" lon="-0.6921180">
        <ele>319.2</ele>
        <time>2019-10-19T14:48:04Z</time>
      </trkpt>
      <trkpt lat="38.3310500" lon="-0.6921770">
        <ele>319.4</ele>
        <time>2019-10-19T14:48:05Z</time>
      </trkpt>
      <trkpt lat="38.3310540" lon="-0.6922360">
        <ele>319.8</ele>
        <time>2019-10-19T14:48:06Z</time>
      </trkpt>
      <trkpt lat="38.3310600" lon="-0.6922930">
        <ele>319.8</ele>
        <time>2019-10-19T14:48:07Z</time>
      </trkpt>
      <trkpt lat="38.3310650" lon="-0.6923490">
        <ele>320.0</ele>
        <time>2019-10-19T14:48:08Z</time>
      </trkpt>
      <trkpt lat="38.3310680" lon="-0.6924050">
        <ele>320.4</ele>
        <time>2019-10-19T14:48:09Z</time>
      </trkpt>
      <trkpt lat="38.3310710" lon="-0.6924620">
        <ele>320.4</ele>
        <time>2019-10-19T14:48:10Z</time>
      </trkpt>
      <trkpt lat="38.3310710" lon="-0.6925190">
        <ele>320.6</ele>
        <time>2019-10-19T14:48:11Z</time>
      </trkpt>
      <trkpt lat="38.3310700" lon="-0.6925770">
        <ele>320.8</ele>
        <time>2019-10-19T14:48:12Z</time>
      </trkpt>
      <trkpt lat="38.3310680" lon="-0.6926350">
        <ele>320.8</ele>
        <time>2019-10-19T14:48:13Z</time>
      </trkpt>
      <trkpt lat="38.3310650" lon="-0.6926910">
        <ele>321.2</ele>
        <time>2019-10-19T14:48:14Z</time>
      </trkpt>
      <trkpt lat="38.3310630" lon="-0.6927480">
        <ele>321.6</ele>
        <time>2019-10-19T14:48:15Z</time>
      </trkpt>
      <trkpt lat="38.3310630" lon="-0.6928040">
        <ele>321.6</ele>
        <time>2019-10-19T14:48:16Z</time>
      </trkpt>
      <trkpt lat="38.3310620" lon="-0.6928590">
        <ele>321.8</ele>
        <time>2019-10-19T14:48:17Z</time>
      </trkpt>
      <trkpt lat="38.3310590" lon="-0.6929140">
        <ele>322.0</ele>
        <time>2019-10-19T14:48:18Z</time>
      </trkpt>
      <trkpt lat="38.3310560" lon="-0.6929690">
        <ele>322.4</ele>
        <time>2019-10-19T14:48:19Z</time>
      </trkpt>
      <trkpt lat="38.3310530" lon="-0.6930240">
        <ele>322.6</ele>
        <time>2019-10-19T14:48:20Z</time>
      </trkpt>
      <trkpt lat="38.3310490" lon="-0.6930790">
        <ele>322.8</ele>
        <time>2019-10-19T14:48:21Z</time>
      </trkpt>
      <trkpt lat="38.3310450" lon="-0.6931350">
        <ele>323.0</ele>
        <time>2019-10-19T14:48:22Z</time>
      </trkpt>
      <trkpt lat="38.3310410" lon="-0.6931900">
        <ele>323.2</ele>
        <time>2019-10-19T14:48:23Z</time>
      </trkpt>
      <trkpt lat="38.3310370" lon="-0.6932450">
        <ele>323.2</ele>
        <time>2019-10-19T14:48:24Z</time>
      </trkpt>
      <trkpt lat="38.3310330" lon="-0.6933010">
        <ele>323.4</ele>
        <time>2019-10-19T14:48:25Z</time>
      </trkpt>
      <trkpt lat="38.3310300" lon="-0.6933570">
        <ele>323.6</ele>
        <time>2019-10-19T14:48:26Z</time>
      </trkpt>
      <trkpt lat="38.3310260" lon="-0.6934130">
        <ele>323.6</ele>
        <time>2019-10-19T14:48:27Z</time>
      </trkpt>
      <trkpt lat="38.3310230" lon="-0.6934690">
        <ele>324.0</ele>
        <time>2019-10-19T14:48:28Z</time>
      </trkpt>
      <trkpt lat="38.3310180" lon="-0.6935240">
        <ele>324.0</ele>
        <time>2019-10-19T14:48:29Z</time>
      </trkpt>
      <trkpt lat="38.3310140" lon="-0.6935820">
        <ele>324.2</ele>
        <time>2019-10-19T14:48:30Z</time>
      </trkpt>
      <trkpt lat="38.3310100" lon="-0.6936400">
        <ele>324.4</ele>
        <time>2019-10-19T14:48:31Z</time>
      </trkpt>
      <trkpt lat="38.3310070" lon="-0.6936980">
        <ele>324.4</ele>
        <time>2019-10-19T14:48:32Z</time>
      </trkpt>
      <trkpt lat="38.3310040" lon="-0.6937590">
        <ele>324.6</ele>
        <time>2019-10-19T14:48:33Z</time>
      </trkpt>
      <trkpt lat="38.3310010" lon="-0.6938200">
        <ele>324.8</ele>
        <time>2019-10-19T14:48:34Z</time>
      </trkpt>
      <trkpt lat="38.3309990" lon="-0.6938810">
        <ele>324.8</ele>
        <time>2019-10-19T14:48:35Z</time>
      </trkpt>
      <trkpt lat="38.3309980" lon="-0.6939420">
        <ele>324.8</ele>
        <time>2019-10-19T14:48:36Z</time>
      </trkpt>
      <trkpt lat="38.3309970" lon="-0.6940040">
        <ele>325.0</ele>
        <time>2019-10-19T14:48:37Z</time>
      </trkpt>
      <trkpt lat="38.3309960" lon="-0.6940650">
        <ele>325.0</ele>
        <time>2019-10-19T14:48:38Z</time>
      </trkpt>
      <trkpt lat="38.3309960" lon="-0.6941280">
        <ele>325.0</ele>
        <time>2019-10-19T14:48:39Z</time>
      </trkpt>
      <trkpt lat="38.3309960" lon="-0.6941930">
        <ele>325.0</ele>
        <time>2019-10-19T14:48:40Z</time>
      </trkpt>
      <trkpt lat="38.3309960" lon="-0.6942590">
        <ele>324.8</ele>
        <time>2019-10-19T14:48:41Z</time>
      </trkpt>
      <trkpt lat="38.3309970" lon="-0.6943270">
        <ele>324.8</ele>
        <time>2019-10-19T14:48:42Z</time>
      </trkpt>
      <trkpt lat="38.3309980" lon="-0.6943970">
        <ele>324.6</ele>
        <time>2019-10-19T14:48:43Z</time>
      </trkpt>
      <trkpt lat="38.3310010" lon="-0.6944710">
        <ele>324.4</ele>
        <time>2019-10-19T14:48:44Z</time>
      </trkpt>
      <trkpt lat="38.3310030" lon="-0.6945480">
        <ele>324.4</ele>
        <time>2019-10-19T14:48:45Z</time>
      </trkpt>
      <trkpt lat="38.3310020" lon="-0.6946260">
        <ele>324.2</ele>
        <time>2019-10-19T14:48:46Z</time>
      </trkpt>
      <trkpt lat="38.3310020" lon="-0.6947060">
        <ele>324.0</ele>
        <time>2019-10-19T14:48:47Z</time>
      </trkpt>
      <trkpt lat="38.3310020" lon="-0.6947900">
        <ele>323.8</ele>
        <time>2019-10-19T14:48:48Z</time>
      </trkpt>
      <trkpt lat="38.3310030" lon="-0.6948780">
        <ele>323.6</ele>
        <time>2019-10-19T14:48:49Z</time>
      </trkpt>
      <trkpt lat="38.3310050" lon="-0.6949690">
        <ele>323.4</ele>
        <time>2019-10-19T14:48:50Z</time>
      </trkpt>
      <trkpt lat="38.3310090" lon="-0.6950630">
        <ele>323.0</ele>
        <time>2019-10-19T14:48:51Z</time>
      </trkpt>
      <trkpt lat="38.3310130" lon="-0.6951590">
        <ele>323.0</ele>
        <time>2019-10-19T14:48:52Z</time>
      </trkpt>
      <trkpt lat="38.3310150" lon="-0.6952560">
        <ele>322.8</ele>
        <time>2019-10-19T14:48:53Z</time>
      </trkpt>
      <trkpt lat="38.3310160" lon="-0.6953570">
        <ele>322.4</ele>
        <time>2019-10-19T14:48:54Z</time>
      </trkpt>
      <trkpt lat="38.3310180" lon="-0.6954600">
        <ele>322.0</ele>
        <time>2019-10-19T14:48:55Z</time>
      </trkpt>
      <trkpt lat="38.3310200" lon="-0.6955640">
        <ele>321.8</ele>
        <time>2019-10-19T14:48:56Z</time>
      </trkpt>
      <trkpt lat="38.3310220" lon="-0.6956680">
        <ele>321.6</ele>
        <time>2019-10-19T14:48:57Z</time>
      </trkpt>
      <trkpt lat="38.3310220" lon="-0.6957730">
        <ele>321.0</ele>
        <time>2019-10-19T14:48:58Z</time>
      </trkpt>
      <trkpt lat="38.3310220" lon="-0.6958790">
        <ele>320.8</ele>
        <time>2019-10-19T14:48:59Z</time>
      </trkpt>
      <trkpt lat="38.3310210" lon="-0.6959840">
        <ele>320.4</ele>
        <time>2019-10-19T14:49:00Z</time>
      </trkpt>
      <trkpt lat="38.3310130" lon="-0.6960880">
        <ele>320.0</ele>
        <time>2019-10-19T14:49:01Z</time>
      </trkpt>
      <trkpt lat="38.3309960" lon="-0.6961920">
        <ele>319.6</ele>
        <time>2019-10-19T14:49:02Z</time>
      </trkpt>
      <trkpt lat="38.3309710" lon="-0.6962940">
        <ele>319.6</ele>
        <time>2019-10-19T14:49:03Z</time>
      </trkpt>
      <trkpt lat="38.3309370" lon="-0.6963940">
        <ele>319.4</ele>
        <time>2019-10-19T14:49:04Z</time>
      </trkpt>
      <trkpt lat="38.3308940" lon="-0.6964890">
        <ele>319.0</ele>
        <time>2019-10-19T14:49:05Z</time>
      </trkpt>
      <trkpt lat="38.3308460" lon="-0.6965790">
        <ele>318.8</ele>
        <time>2019-10-19T14:49:06Z</time>
      </trkpt>
      <trkpt lat="38.3307960" lon="-0.6966700">
        <ele>318.6</ele>
        <time>2019-10-19T14:49:07Z</time>
      </trkpt>
      <trkpt lat="38.3307510" lon="-0.6967650">
        <ele>318.4</ele>
        <time>2019-10-19T14:49:08Z</time>
      </trkpt>
      <trkpt lat="38.3307150" lon="-0.6968660">
        <ele>318.4</ele>
        <time>2019-10-19T14:49:09Z</time>
      </trkpt>
      <trkpt lat="38.3306900" lon="-0.6969740">
        <ele>318.0</ele>
        <time>2019-10-19T14:49:10Z</time>
      </trkpt>
      <trkpt lat="38.3306780" lon="-0.6970860">
        <ele>317.6</ele>
        <time>2019-10-19T14:49:11Z</time>
      </trkpt>
      <trkpt lat="38.3306760" lon="-0.6971980">
        <ele>317.4</ele>
        <time>2019-10-19T14:49:12Z</time>
      </trkpt>
      <trkpt lat="38.3306770" lon="-0.6973120">
        <ele>317.0</ele>
        <time>2019-10-19T14:49:13Z</time>
      </trkpt>
      <trkpt lat="38.3306790" lon="-0.6974250">
        <ele>316.8</ele>
        <time>2019-10-19T14:49:14Z</time>
      </trkpt>
      <trkpt lat="38.3306830" lon="-0.6975380">
        <ele>316.8</ele>
        <time>2019-10-19T14:49:15Z</time>
      </trkpt>
      <trkpt lat="38.3306850" lon="-0.6976500">
        <ele>316.8</ele>
        <time>2019-10-19T14:49:16Z</time>
      </trkpt>
      <trkpt lat="38.3306860" lon="-0.6977610">
        <ele>316.6</ele>
        <time>2019-10-19T14:49:17Z</time>
      </trkpt>
      <trkpt lat="38.3306860" lon="-0.6978720">
        <ele>316.8</ele>
        <time>2019-10-19T14:49:18Z</time>
      </trkpt>
      <trkpt lat="38.3306870" lon="-0.6979840">
        <ele>316.6</ele>
        <time>2019-10-19T14:49:19Z</time>
      </trkpt>
      <trkpt lat="38.3306890" lon="-0.6980950">
        <ele>316.4</ele>
        <time>2019-10-19T14:49:20Z</time>
      </trkpt>
      <trkpt lat="38.3306910" lon="-0.6982060">
        <ele>316.2</ele>
        <time>2019-10-19T14:49:21Z</time>
      </trkpt>
      <trkpt lat="38.3306940" lon="-0.6983170">
        <ele>316.2</ele>
        <time>2019-10-19T14:49:22Z</time>
      </trkpt>
      <trkpt lat="38.3306970" lon="-0.6984280">
        <ele>315.8</ele>
        <time>2019-10-19T14:49:23Z</time>
      </trkpt>
      <trkpt lat="38.3307000" lon="-0.6985370">
        <ele>316.0</ele>
        <time>2019-10-19T14:49:24Z</time>
      </trkpt>
      <trkpt lat="38.3307040" lon="-0.6986470">
        <ele>315.8</ele>
        <time>2019-10-19T14:49:25Z</time>
      </trkpt>
      <trkpt lat="38.3307060" lon="-0.6987560">
        <ele>315.6</ele>
        <time>2019-10-19T14:49:26Z</time>
      </trkpt>
      <trkpt lat="38.3307080" lon="-0.6988650">
        <ele>315.6</ele>
        <time>2019-10-19T14:49:27Z</time>
      </trkpt>
      <trkpt lat="38.3307100" lon="-0.6989740">
        <ele>315.6</ele>
        <time>2019-10-19T14:49:28Z</time>
      </trkpt>
      <trkpt lat="38.3307110" lon="-0.6990820">
        <ele>315.6</ele>
        <time>2019-10-19T14:49:29Z</time>
      </trkpt>
      <trkpt lat="38.3307120" lon="-0.6991900">
        <ele>315.4</ele>
        <time>2019-10-19T14:49:30Z</time>
      </trkpt>
      <trkpt lat="38.3307140" lon="-0.6992990">
        <ele>315.2</ele>
        <time>2019-10-19T14:49:31Z</time>
      </trkpt>
      <trkpt lat="38.3307160" lon="-0.6994080">
        <ele>315.0</ele>
        <time>2019-10-19T14:49:32Z</time>
      </trkpt>
      <trkpt lat="38.3307180" lon="-0.6995190">
        <ele>315.0</ele>
        <time>2019-10-19T14:49:33Z</time>
      </trkpt>
      <trkpt lat="38.3307200" lon="-0.6996280">
        <ele>315.0</ele>
        <time>2019-10-19T14:49:34Z</time>
      </trkpt>
      <trkpt lat="38.3307220" lon="-0.6997360">
        <ele>315.0</ele>
        <time>2019-10-19T14:49:35Z</time>
      </trkpt>
      <trkpt lat="38.3307240" lon="-0.6998450">
        <ele>314.8</ele>
        <time>2019-10-19T14:49:36Z</time>
      </trkpt>
      <trkpt lat="38.3307260" lon="-0.6999540">
        <ele>314.6</ele>
        <time>2019-10-19T14:49:37Z</time>
      </trkpt>
      <trkpt lat="38.3307270" lon="-0.7000630">
        <ele>314.4</ele>
        <time>2019-10-19T14:49:38Z</time>
      </trkpt>
      <trkpt lat="38.3307300" lon="-0.7001730">
        <ele>314.4</ele>
        <time>2019-10-19T14:49:39Z</time>
      </trkpt>
      <trkpt lat="38.3307330" lon="-0.7002820">
        <ele>314.4</ele>
        <time>2019-10-19T14:49:40Z</time>
      </trkpt>
      <trkpt lat="38.3307380" lon="-0.7003930">
        <ele>314.4</ele>
        <time>2019-10-19T14:49:41Z</time>
      </trkpt>
      <trkpt lat="38.3307420" lon="-0.7005030">
        <ele>314.2</ele>
        <time>2019-10-19T14:49:42Z</time>
      </trkpt>
      <trkpt lat="38.3307470" lon="-0.7006110">
        <ele>314.4</ele>
        <time>2019-10-19T14:49:43Z</time>
      </trkpt>
      <trkpt lat="38.3307470" lon="-0.7007200">
        <ele>314.2</ele>
        <time>2019-10-19T14:49:44Z</time>
      </trkpt>
      <trkpt lat="38.3307430" lon="-0.7008240">
        <ele>314.2</ele>
        <time>2019-10-19T14:49:45Z</time>
      </trkpt>
      <trkpt lat="38.3307220" lon="-0.7009130">
        <ele>314.2</ele>
        <time>2019-10-19T14:49:46Z</time>
      </trkpt>
      <trkpt lat="38.3306800" lon="-0.7009790">
        <ele>314.4</ele>
        <time>2019-10-19T14:49:47Z</time>
      </trkpt>
      <trkpt lat="38.3306280" lon="-0.7010240">
        <ele>314.8</ele>
        <time>2019-10-19T14:49:48Z</time>
      </trkpt>
      <trkpt lat="38.3305730" lon="-0.7010460">
        <ele>315.4</ele>
        <time>2019-10-19T14:49:49Z</time>
      </trkpt>
      <trkpt lat="38.3305240" lon="-0.7010500">
        <ele>315.6</ele>
        <time>2019-10-19T14:49:50Z</time>
      </trkpt>
      <trkpt lat="38.3304760" lon="-0.7010480">
        <ele>316.2</ele>
        <time>2019-10-19T14:49:51Z</time>
      </trkpt>
      <trkpt lat="38.3304270" lon="-0.7010470">
        <ele>317.0</ele>
        <time>2019-10-19T14:49:52Z</time>
      </trkpt>
      <trkpt lat="38.3303810" lon="-0.7010540">
        <ele>317.6</ele>
        <time>2019-10-19T14:49:53Z</time>
      </trkpt>
      <trkpt lat="38.3303360" lon="-0.7010710">
        <ele>318.0</ele>
        <time>2019-10-19T14:49:54Z</time>
      </trkpt>
      <trkpt lat="38.3302940" lon="-0.7010960">
        <ele>318.6</ele>
        <time>2019-10-19T14:49:55Z</time>
      </trkpt>
      <trkpt lat="38.3302590" lon="-0.7011320">
        <ele>319.2</ele>
        <time>2019-10-19T14:49:56Z</time>
      </trkpt>
      <trkpt lat="38.3302300" lon="-0.7011750">
        <ele>319.4</ele>
        <time>2019-10-19T14:49:57Z</time>
      </trkpt>
      <trkpt lat="38.3302090" lon="-0.7012240">
        <ele>320.0</ele>
        <time>2019-10-19T14:49:58Z</time>
      </trkpt>
      <trkpt lat="38.3301970" lon="-0.7012770">
        <ele>320.4</ele>
        <time>2019-10-19T14:49:59Z</time>
      </trkpt>
      <trkpt lat="38.3301910" lon="-0.7013320">
        <ele>320.6</ele>
        <time>2019-10-19T14:50:00Z</time>
      </trkpt>
      <trkpt lat="38.3301890" lon="-0.7013890">
        <ele>321.0</ele>
        <time>2019-10-19T14:50:01Z</time>
      </trkpt>
      <trkpt lat="38.3301880" lon="-0.7014490">
        <ele>321.2</ele>
        <time>2019-10-19T14:50:02Z</time>
      </trkpt>
      <trkpt lat="38.3301890" lon="-0.7015110">
        <ele>321.4</ele>
        <time>2019-10-19T14:50:03Z</time>
      </trkpt>
      <trkpt lat="38.3301900" lon="-0.7015740">
        <ele>321.6</ele>
        <time>2019-10-19T14:50:04Z</time>
      </trkpt>
      <trkpt lat="38.3301900" lon="-0.7016370">
        <ele>321.6</ele>
        <time>2019-10-19T14:50:05Z</time>
      </trkpt>
      <trkpt lat="38.3301920" lon="-0.7017010">
        <ele>321.6</ele>
        <time>2019-10-19T14:50:06Z</time>
      </trkpt>
      <trkpt lat="38.3301950" lon="-0.7017670">
        <ele>321.6</ele>
        <time>2019-10-19T14:50:07Z</time>
      </trkpt>
      <trkpt lat="38.3301970" lon="-0.7018350">
        <ele>321.6</ele>
        <time>2019-10-19T14:50:08Z</time>
      </trkpt>
      <trkpt lat="38.3302000" lon="-0.7019070">
        <ele>321.6</ele>
        <time>2019-10-19T14:50:09Z</time>
      </trkpt>
      <trkpt lat="38.3302060" lon="-0.7019830">
        <ele>321.2</ele>
        <time>2019-10-19T14:50:10Z</time>
      </trkpt>
      <trkpt lat="38.3302150" lon="-0.7020600">
        <ele>321.0</ele>
        <time>2019-10-19T14:50:11Z</time>
      </trkpt>
      <trkpt lat="38.3302280" lon="-0.7021390">
        <ele>320.6</ele>
        <time>2019-10-19T14:50:12Z</time>
      </trkpt>
      <trkpt lat="38.3302440" lon="-0.7022220">
        <ele>320.2</ele>
        <time>2019-10-19T14:50:13Z</time>
      </trkpt>
      <trkpt lat="38.3302640" lon="-0.7023090">
        <ele>319.6</ele>
        <time>2019-10-19T14:50:14Z</time>
      </trkpt>
      <trkpt lat="38.3302880" lon="-0.7024030">
        <ele>319.0</ele>
        <time>2019-10-19T14:50:15Z</time>
      </trkpt>
      <trkpt lat="38.3303160" lon="-0.7024990">
        <ele>318.2</ele>
        <time>2019-10-19T14:50:16Z</time>
      </trkpt>
      <trkpt lat="38.3303540" lon="-0.7025990">
        <ele>317.6</ele>
        <time>2019-10-19T14:50:17Z</time>
      </trkpt>
      <trkpt lat="38.3304000" lon="-0.7027020">
        <ele>316.8</ele>
        <time>2019-10-19T14:50:18Z</time>
      </trkpt>
      <trkpt lat="38.3304520" lon="-0.7028060">
        <ele>315.8</ele>
        <time>2019-10-19T14:50:19Z</time>
      </trkpt>
      <trkpt lat="38.3305090" lon="-0.7029120">
        <ele>315.0</ele>
        <time>2019-10-19T14:50:20Z</time>
      </trkpt>
      <trkpt lat="38.3305710" lon="-0.7030210">
        <ele>314.2</ele>
        <time>2019-10-19T14:50:21Z</time>
      </trkpt>
      <trkpt lat="38.3306350" lon="-0.7031320">
        <ele>313.2</ele>
        <time>2019-10-19T14:50:22Z</time>
      </trkpt>
      <trkpt lat="38.3307000" lon="-0.7032480">
        <ele>312.4</ele>
        <time>2019-10-19T14:50:23Z</time>
      </trkpt>
      <trkpt lat="38.3307690" lon="-0.7033670">
        <ele>311.4</ele>
        <time>2019-10-19T14:50:24Z</time>
      </trkpt>
      <trkpt lat="38.3308370" lon="-0.7034880">
        <ele>310.6</ele>
        <time>2019-10-19T14:50:25Z</time>
      </trkpt>
      <trkpt lat="38.3309070" lon="-0.7036130">
        <ele>309.8</ele>
        <time>2019-10-19T14:50:26Z</time>
      </trkpt>
      <trkpt lat="38.3309780" lon="-0.7037390">
        <ele>308.8</ele>
        <time>2019-10-19T14:50:27Z</time>
      </trkpt>
      <trkpt lat="38.3310500" lon="-0.7038650">
        <ele>307.8</ele>
        <time>2019-10-19T14:50:28Z</time>
      </trkpt>
      <trkpt lat="38.3311230" lon="-0.7039930">
        <ele>307.0</ele>
        <time>2019-10-19T14:50:29Z</time>
      </trkpt>
      <trkpt lat="38.3311950" lon="-0.7041240">
        <ele>306.2</ele>
        <time>2019-10-19T14:50:30Z</time>
      </trkpt>
      <trkpt lat="38.3312670" lon="-0.7042560">
        <ele>305.6</ele>
        <time>2019-10-19T14:50:31Z</time>
      </trkpt>
      <trkpt lat="38.3313390" lon="-0.7043890">
        <ele>304.8</ele>
        <time>2019-10-19T14:50:32Z</time>
      </trkpt>
      <trkpt lat="38.3314130" lon="-0.7045200">
        <ele>304.2</ele>
        <time>2019-10-19T14:50:33Z</time>
      </trkpt>
      <trkpt lat="38.3314890" lon="-0.7046470">
        <ele>303.8</ele>
        <time>2019-10-19T14:50:34Z</time>
      </trkpt>
      <trkpt lat="38.3315660" lon="-0.7047700">
        <ele>303.6</ele>
        <time>2019-10-19T14:50:35Z</time>
      </trkpt>
      <trkpt lat="38.3316370" lon="-0.7048940">
        <ele>303.6</ele>
        <time>2019-10-19T14:50:36Z</time>
      </trkpt>
      <trkpt lat="38.3317050" lon="-0.7050150">
        <ele>303.2</ele>
        <time>2019-10-19T14:50:37Z</time>
      </trkpt>
      <trkpt lat="38.3317720" lon="-0.7051330">
        <ele>303.4</ele>
        <time>2019-10-19T14:50:38Z</time>
      </trkpt>
      <trkpt lat="38.3318370" lon="-0.7052480">
        <ele>303.2</ele>
        <time>2019-10-19T14:50:39Z</time>
      </trkpt>
      <trkpt lat="38.3319020" lon="-0.7053630">
        <ele>303.2</ele>
        <time>2019-10-19T14:50:40Z</time>
      </trkpt>
      <trkpt lat="38.3319650" lon="-0.7054770">
        <ele>302.6</ele>
        <time>2019-10-19T14:50:41Z</time>
      </trkpt>
      <trkpt lat="38.3320290" lon="-0.7055900">
        <ele>302.6</ele>
        <time>2019-10-19T14:50:42Z</time>
      </trkpt>
      <trkpt lat="38.3320930" lon="-0.7057030">
        <ele>302.2</ele>
        <time>2019-10-19T14:50:43Z</time>
      </trkpt>
      <trkpt lat="38.3321580" lon="-0.7058150">
        <ele>301.6</ele>
        <time>2019-10-19T14:50:44Z</time>
      </trkpt>
      <trkpt lat="38.3322270" lon="-0.7059250">
        <ele>301.2</ele>
        <time>2019-10-19T14:50:45Z</time>
      </trkpt>
      <trkpt lat="38.3323010" lon="-0.7060330">
        <ele>300.6</ele>
        <time>2019-10-19T14:50:46Z</time>
      </trkpt>
      <trkpt lat="38.3323800" lon="-0.7061360">
        <ele>300.0</ele>
        <time>2019-10-19T14:50:47Z</time>
      </trkpt>
      <trkpt lat="38.3324670" lon="-0.7062330">
        <ele>299.2</ele>
        <time>2019-10-19T14:50:48Z</time>
      </trkpt>
      <trkpt lat="38.3325610" lon="-0.7063230">
        <ele>298.2</ele>
        <time>2019-10-19T14:50:49Z</time>
      </trkpt>
      <trkpt lat="38.3326630" lon="-0.7064040">
        <ele>297.2</ele>
        <time>2019-10-19T14:50:50Z</time>
      </trkpt>
      <trkpt lat="38.3327700" lon="-0.7064730">
        <ele>296.4</ele>
        <time>2019-10-19T14:50:51Z</time>
      </trkpt>
      <trkpt lat="38.3328840" lon="-0.7065300">
        <ele>295.6</ele>
        <time>2019-10-19T14:50:52Z</time>
      </trkpt>
      <trkpt lat="38.3330020" lon="-0.7065720">
        <ele>294.8</ele>
        <time>2019-10-19T14:50:53Z</time>
      </trkpt>
      <trkpt lat="38.3331230" lon="-0.7065980">
        <ele>293.6</ele>
        <time>2019-10-19T14:50:54Z</time>
      </trkpt>
      <trkpt lat="38.3332460" lon="-0.7066120">
        <ele>292.4</ele>
        <time>2019-10-19T14:50:55Z</time>
      </trkpt>
      <trkpt lat="38.3333690" lon="-0.7066130">
        <ele>291.4</ele>
        <time>2019-10-19T14:50:56Z</time>
      </trkpt>
      <trkpt lat="38.3334930" lon="-0.7066010">
        <ele>290.2</ele>
        <time>2019-10-19T14:50:57Z</time>
      </trkpt>
      <trkpt lat="38.3336140" lon="-0.7065800">
        <ele>289.6</ele>
        <time>2019-10-19T14:50:58Z</time>
      </trkpt>
      <trkpt lat="38.3337350" lon="-0.7065520">
        <ele>288.6</ele>
        <time>2019-10-19T14:50:59Z</time>
      </trkpt>
      <trkpt lat="38.3338550" lon="-0.7065230">
        <ele>287.6</ele>
        <time>2019-10-19T14:51:00Z</time>
      </trkpt>
      <trkpt lat="38.3339760" lon="-0.7064950">
        <ele>286.6</ele>
        <time>2019-10-19T14:51:01Z</time>
      </trkpt>
      <trkpt lat="38.3340970" lon="-0.7064670">
        <ele>286.0</ele>
        <time>2019-10-19T14:51:02Z</time>
      </trkpt>
      <trkpt lat="38.3342180" lon="-0.7064350">
        <ele>285.0</ele>
        <time>2019-10-19T14:51:03Z</time>
      </trkpt>
      <trkpt lat="38.3343410" lon="-0.7064040">
        <ele>284.2</ele>
        <time>2019-10-19T14:51:04Z</time>
      </trkpt>
      <trkpt lat="38.3344650" lon="-0.7063740">
        <ele>283.8</ele>
        <time>2019-10-19T14:51:05Z</time>
      </trkpt>
      <trkpt lat="38.3345890" lon="-0.7063420">
        <ele>283.0</ele>
        <time>2019-10-19T14:51:06Z</time>
      </trkpt>
      <trkpt lat="38.3347120" lon="-0.7063080">
        <ele>282.8</ele>
        <time>2019-10-19T14:51:07Z</time>
      </trkpt>
      <trkpt lat="38.3348330" lon="-0.7062670">
        <ele>282.4</ele>
        <time>2019-10-19T14:51:08Z</time>
      </trkpt>
      <trkpt lat="38.3349480" lon="-0.7062180">
        <ele>281.4</ele>
        <time>2019-10-19T14:51:09Z</time>
      </trkpt>
      <trkpt lat="38.3350490" lon="-0.7061520">
        <ele>280.8</ele>
        <time>2019-10-19T14:51:10Z</time>
      </trkpt>
      <trkpt lat="38.3351350" lon="-0.7060650">
        <ele>280.6</ele>
        <time>2019-10-19T14:51:11Z</time>
      </trkpt>
      <trkpt lat="38.3352000" lon="-0.7059610">
        <ele>280.8</ele>
        <time>2019-10-19T14:51:12Z</time>
      </trkpt>
      <trkpt lat="38.3352460" lon="-0.7058460">
        <ele>280.2</ele>
        <time>2019-10-19T14:51:13Z</time>
      </trkpt>
      <trkpt lat="38.3352850" lon="-0.7057340">
        <ele>280.2</ele>
        <time>2019-10-19T14:51:14Z</time>
      </trkpt>
      <trkpt lat="38.3353340" lon="-0.7056430">
        <ele>280.8</ele>
        <time>2019-10-19T14:51:15Z</time>
      </trkpt>
      <trkpt lat="38.3353950" lon="-0.7055820">
        <ele>281.0</ele>
        <time>2019-10-19T14:51:16Z</time>
      </trkpt>
      <trkpt lat="38.3354640" lon="-0.7055590">
        <ele>281.4</ele>
        <time>2019-10-19T14:51:17Z</time>
      </trkpt>
      <trkpt lat="38.3355290" lon="-0.7055700">
        <ele>281.6</ele>
        <time>2019-10-19T14:51:18Z</time>
      </trkpt>
      <trkpt lat="38.3355870" lon="-0.7055870">
        <ele>281.8</ele>
        <time>2019-10-19T14:51:19Z</time>
      </trkpt>
      <trkpt lat="38.3356350" lon="-0.7055820">
        <ele>282.0</ele>
        <time>2019-10-19T14:51:20Z</time>
      </trkpt>
      <trkpt lat="38.3356690" lon="-0.7055500">
        <ele>282.0</ele>
        <time>2019-10-19T14:51:21Z</time>
      </trkpt>
      <trkpt lat="38.3356860" lon="-0.7055050">
        <ele>281.8</ele>
        <time>2019-10-19T14:51:22Z</time>
      </trkpt>
      <trkpt lat="38.3356940" lon="-0.7054580">
        <ele>281.8</ele>
        <time>2019-10-19T14:51:23Z</time>
      </trkpt>
      <trkpt lat="38.3357010" lon="-0.7054110">
        <ele>282.0</ele>
        <time>2019-10-19T14:51:24Z</time>
      </trkpt>
      <trkpt lat="38.3357050" lon="-0.7053640">
        <ele>282.2</ele>
        <time>2019-10-19T14:51:25Z</time>
      </trkpt>
      <trkpt lat="38.3357120" lon="-0.7053170">
        <ele>282.2</ele>
        <time>2019-10-19T14:51:26Z</time>
      </trkpt>
      <trkpt lat="38.3357230" lon="-0.7052720">
        <ele>282.6</ele>
        <time>2019-10-19T14:51:27Z</time>
      </trkpt>
      <trkpt lat="38.3357340" lon="-0.7052290">
        <ele>282.8</ele>
        <time>2019-10-19T14:51:28Z</time>
      </trkpt>
      <trkpt lat="38.3357440" lon="-0.7051840">
        <ele>283.2</ele>
        <time>2019-10-19T14:51:29Z</time>
      </trkpt>
      <trkpt lat="38.3357540" lon="-0.7051400">
        <ele>283.4</ele>
        <time>2019-10-19T14:51:30Z</time>
      </trkpt>
      <trkpt lat="38.3357650" lon="-0.7050970">
        <ele>283.6</ele>
        <time>2019-10-19T14:51:31Z</time>
      </trkpt>
      <trkpt lat="38.3357720" lon="-0.7050550">
        <ele>284.0</ele>
        <time>2019-10-19T14:51:32Z</time>
      </trkpt>
      <trkpt lat="38.3357690" lon="-0.7050110">
        <ele>284.2</ele>
        <time>2019-10-19T14:51:33Z</time>
      </trkpt>
      <trkpt lat="38.3357790" lon="-0.7049670">
        <ele>284.6</ele>
        <time>2019-10-19T14:51:34Z</time>
      </trkpt>
      <trkpt lat="38.3357900" lon="-0.7049260">
        <ele>285.0</ele>
        <time>2019-10-19T14:51:35Z</time>
      </trkpt>
      <trkpt lat="38.3357990" lon="-0.7048850">
        <ele>285.2</ele>
        <time>2019-10-19T14:51:36Z</time>
      </trkpt>
      <trkpt lat="38.3358070" lon="-0.7048420">
        <ele>285.4</ele>
        <time>2019-10-19T14:51:37Z</time>
      </trkpt>
      <trkpt lat="38.3358140" lon="-0.7047990">
        <ele>286.0</ele>
        <time>2019-10-19T14:51:38Z</time>
      </trkpt>
      <trkpt lat="38.3358180" lon="-0.7047580">
        <ele>286.6</ele>
        <time>2019-10-19T14:51:39Z</time>
      </trkpt>
      <trkpt lat="38.3358210" lon="-0.7047190">
        <ele>286.8</ele>
        <time>2019-10-19T14:51:40Z</time>
      </trkpt>
      <trkpt lat="38.3358280" lon="-0.7046770">
        <ele>287.4</ele>
        <time>2019-10-19T14:51:41Z</time>
      </trkpt>
      <trkpt lat="38.3358320" lon="-0.7046350">
        <ele>287.6</ele>
        <time>2019-10-19T14:51:42Z</time>
      </trkpt>
      <trkpt lat="38.3358400" lon="-0.7045940">
        <ele>287.8</ele>
        <time>2019-10-19T14:51:43Z</time>
      </trkpt>
      <trkpt lat="38.3358510" lon="-0.7045540">
        <ele>288.4</ele>
        <time>2019-10-19T14:51:44Z</time>
      </trkpt>
      <trkpt lat="38.3358620" lon="-0.7045150">
        <ele>288.6</ele>
        <time>2019-10-19T14:51:45Z</time>
      </trkpt>
      <trkpt lat="38.3358710" lon="-0.7044730">
        <ele>289.0</ele>
        <time>2019-10-19T14:51:46Z</time>
      </trkpt>
      <trkpt lat="38.3358780" lon="-0.7044350">
        <ele>289.4</ele>
        <time>2019-10-19T14:51:47Z</time>
      </trkpt>
      <trkpt lat="38.3358840" lon="-0.7043980">
        <ele>289.8</ele>
        <time>2019-10-19T14:51:48Z</time>
      </trkpt>
      <trkpt lat="38.3358890" lon="-0.7043620">
        <ele>290.2</ele>
        <time>2019-10-19T14:51:49Z</time>
      </trkpt>
      <trkpt lat="38.3358910" lon="-0.7043260">
        <ele>290.2</ele>
        <time>2019-10-19T14:51:50Z</time>
      </trkpt>
      <trkpt lat="38.3358930" lon="-0.7042910">
        <ele>290.6</ele>
        <time>2019-10-19T14:51:51Z</time>
      </trkpt>
      <trkpt lat="38.3358930" lon="-0.7042540">
        <ele>290.8</ele>
        <time>2019-10-19T14:51:52Z</time>
      </trkpt>
      <trkpt lat="38.3358890" lon="-0.7042180">
        <ele>291.2</ele>
        <time>2019-10-19T14:51:53Z</time>
      </trkpt>
      <trkpt lat="38.3358870" lon="-0.7041810">
        <ele>291.4</ele>
        <time>2019-10-19T14:51:54Z</time>
      </trkpt>
      <trkpt lat="38.3358870" lon="-0.7041430">
        <ele>291.6</ele>
        <time>2019-10-19T14:51:55Z</time>
      </trkpt>
      <trkpt lat="38.3358850" lon="-0.7041040">
        <ele>291.8</ele>
        <time>2019-10-19T14:51:56Z</time>
      </trkpt>
      <trkpt lat="38.3358810" lon="-0.7040670">
        <ele>291.8</ele>
        <time>2019-10-19T14:51:57Z</time>
      </trkpt>
      <trkpt lat="38.3358740" lon="-0.7040300">
        <ele>292.2</ele>
        <time>2019-10-19T14:51:58Z</time>
      </trkpt>
      <trkpt lat="38.3358680" lon="-0.7039940">
        <ele>292.6</ele>
        <time>2019-10-19T14:51:59Z</time>
      </trkpt>
      <trkpt lat="38.3358610" lon="-0.7039580">
        <ele>293.0</ele>
        <time>2019-10-19T14:52:00Z</time>
      </trkpt>
      <trkpt lat="38.3358540" lon="-0.7039220">
        <ele>293.0</ele>
        <time>2019-10-19T14:52:01Z</time>
      </trkpt>
      <trkpt lat="38.3358440" lon="-0.7038870">
        <ele>293.2</ele>
        <time>2019-10-19T14:52:02Z</time>
      </trkpt>
      <trkpt lat="38.3358310" lon="-0.7038530">
        <ele>293.4</ele>
        <time>2019-10-19T14:52:03Z</time>
      </trkpt>
      <trkpt lat="38.3358170" lon="-0.7038180">
        <ele>293.6</ele>
        <time>2019-10-19T14:52:04Z</time>
      </trkpt>
      <trkpt lat="38.3358030" lon="-0.7037830">
        <ele>294.0</ele>
        <time>2019-10-19T14:52:05Z</time>
      </trkpt>
      <trkpt lat="38.3357880" lon="-0.7037470">
        <ele>294.0</ele>
        <time>2019-10-19T14:52:06Z</time>
      </trkpt>
      <trkpt lat="38.3357720" lon="-0.7037120">
        <ele>294.2</ele>
        <time>2019-10-19T14:52:07Z</time>
      </trkpt>
      <trkpt lat="38.3357560" lon="-0.7036790">
        <ele>294.2</ele>
        <time>2019-10-19T14:52:08Z</time>
      </trkpt>
      <trkpt lat="38.3357400" lon="-0.7036460">
        <ele>294.4</ele>
        <time>2019-10-19T14:52:09Z</time>
      </trkpt>
      <trkpt lat="38.3357230" lon="-0.7036120">
        <ele>294.8</ele>
        <time>2019-10-19T14:52:10Z</time>
      </trkpt>
      <trkpt lat="38.3357050" lon="-0.7035780">
        <ele>295.0</ele>
        <time>2019-10-19T14:52:11Z</time>
      </trkpt>
      <trkpt lat="38.3356880" lon="-0.7035430">
        <ele>295.2</ele>
        <time>2019-10-19T14:52:12Z</time>
      </trkpt>
      <trkpt lat="38.3356700" lon="-0.7035090">
        <ele>295.2</ele>
        <time>2019-10-19T14:52:13Z</time>
      </trkpt>
      <trkpt lat="38.3356520" lon="-0.7034760">
        <ele>295.2</ele>
        <time>2019-10-19T14:52:14Z</time>
      </trkpt>
      <trkpt lat="38.3356330" lon="-0.7034430">
        <ele>295.2</ele>
        <time>2019-10-19T14:52:15Z</time>
      </trkpt>
      <trkpt lat="38.3356130" lon="-0.7034090">
        <ele>295.6</ele>
        <time>2019-10-19T14:52:16Z</time>
      </trkpt>
      <trkpt lat="38.3355940" lon="-0.7033750">
        <ele>295.6</ele>
        <time>2019-10-19T14:52:17Z</time>
      </trkpt>
      <trkpt lat="38.3355760" lon="-0.7033400">
        <ele>295.6</ele>
        <time>2019-10-19T14:52:18Z</time>
      </trkpt>
      <trkpt lat="38.3355560" lon="-0.7033060">
        <ele>295.8</ele>
        <time>2019-10-19T14:52:19Z</time>
      </trkpt>
      <trkpt lat="38.3355370" lon="-0.7032710">
        <ele>296.0</ele>
        <time>2019-10-19T14:52:20Z</time>
      </trkpt>
      <trkpt lat="38.3355160" lon="-0.7032350">
        <ele>296.2</ele>
        <time>2019-10-19T14:52:21Z</time>
      </trkpt>
      <trkpt lat="38.3354960" lon="-0.7032000">
        <ele>296.2</ele>
        <time>2019-10-19T14:52:22Z</time>
      </trkpt>
      <trkpt lat="38.3354750" lon="-0.7031650">
        <ele>296.6</ele>
        <time>2019-10-19T14:52:23Z</time>
      </trkpt>
      <trkpt lat="38.3354560" lon="-0.7031290">
        <ele>296.6</ele>
        <time>2019-10-19T14:52:24Z</time>
      </trkpt>
      <trkpt lat="38.3354370" lon="-0.7030940">
        <ele>297.0</ele>
        <time>2019-10-19T14:52:25Z</time>
      </trkpt>
      <trkpt lat="38.3354170" lon="-0.7030580">
        <ele>297.0</ele>
        <time>2019-10-19T14:52:26Z</time>
      </trkpt>
      <trkpt lat="38.3353970" lon="-0.7030220">
        <ele>297.0</ele>
        <time>2019-10-19T14:52:27Z</time>
      </trkpt>
      <trkpt lat="38.3353760" lon="-0.7029840">
        <ele>297.2</ele>
        <time>2019-10-19T14:52:28Z</time>
      </trkpt>
      <trkpt lat="38.3353540" lon="-0.7029460">
        <ele>297.4</ele>
        <time>2019-10-19T14:52:29Z</time>
      </trkpt>
      <trkpt lat="38.3353300" lon="-0.7029090">
        <ele>297.6</ele>
        <time>2019-10-19T14:52:30Z</time>
      </trkpt>
      <trkpt lat="38.3353080" lon="-0.7028700">
        <ele>297.8</ele>
        <time>2019-10-19T14:52:31Z</time>
      </trkpt>
      <trkpt lat="38.3352850" lon="-0.7028300">
        <ele>297.8</ele>
        <time>2019-10-19T14:52:32Z</time>
      </trkpt>
      <trkpt lat="38.3352630" lon="-0.7027910">
        <ele>298.2</ele>
        <time>2019-10-19T14:52:33Z</time>
      </trkpt>
      <trkpt lat="38.3352400" lon="-0.7027530">
        <ele>298.4</ele>
        <time>2019-10-19T14:52:34Z</time>
      </trkpt>
      <trkpt lat="38.3352170" lon="-0.7027160">
        <ele>298.4</ele>
        <time>2019-10-19T14:52:35Z</time>
      </trkpt>
      <trkpt lat="38.3351930" lon="-0.7026780">
        <ele>298.6</ele>
        <time>2019-10-19T14:52:36Z</time>
      </trkpt>
      <trkpt lat="38.3351690" lon="-0.7026390">
        <ele>298.6</ele>
        <time>2019-10-19T14:52:37Z</time>
      </trkpt>
      <trkpt lat="38.3351460" lon="-0.7026000">
        <ele>298.8</ele>
        <time>2019-10-19T14:52:38Z</time>
      </trkpt>
      <trkpt lat="38.3351230" lon="-0.7025610">
        <ele>299.0</ele>
        <time>2019-10-19T14:52:39Z</time>
      </trkpt>
      <trkpt lat="38.3351020" lon="-0.7025210">
        <ele>299.2</ele>
        <time>2019-10-19T14:52:40Z</time>
      </trkpt>
      <trkpt lat="38.3350810" lon="-0.7024780">
        <ele>299.6</ele>
        <time>2019-10-19T14:52:41Z</time>
      </trkpt>
      <trkpt lat="38.3350620" lon="-0.7024350">
        <ele>299.6</ele>
        <time>2019-10-19T14:52:42Z</time>
      </trkpt>
      <trkpt lat="38.3350440" lon="-0.7023910">
        <ele>299.8</ele>
        <time>2019-10-19T14:52:43Z</time>
      </trkpt>
      <trkpt lat="38.3350280" lon="-0.7023480">
        <ele>299.8</ele>
        <time>2019-10-19T14:52:44Z</time>
      </trkpt>
      <trkpt lat="38.3350130" lon="-0.7023030">
        <ele>299.8</ele>
        <time>2019-10-19T14:52:45Z</time>
      </trkpt>
      <trkpt lat="38.3349980" lon="-0.7022560">
        <ele>299.8</ele>
        <time>2019-10-19T14:52:46Z</time>
      </trkpt>
      <trkpt lat="38.3349820" lon="-0.7022100">
        <ele>300.0</ele>
        <time>2019-10-19T14:52:47Z</time>
      </trkpt>
      <trkpt lat="38.3349680" lon="-0.7021650">
        <ele>300.0</ele>
        <time>2019-10-19T14:52:48Z</time>
      </trkpt>
      <trkpt lat="38.3349540" lon="-0.7021190">
        <ele>300.2</ele>
        <time>2019-10-19T14:52:49Z</time>
      </trkpt>
      <trkpt lat="38.3349430" lon="-0.7020710">
        <ele>300.4</ele>
        <time>2019-10-19T14:52:50Z</time>
      </trkpt>
      <trkpt lat="38.3349330" lon="-0.7020210">
        <ele>300.6</ele>
        <time>2019-10-19T14:52:51Z</time>
      </trkpt>
      <trkpt lat="38.3349250" lon="-0.7019710">
        <ele>300.8</ele>
        <time>2019-10-19T14:52:52Z</time>
      </trkpt>
      <trkpt lat="38.3349180" lon="-0.7019210">
        <ele>301.0</ele>
        <time>2019-10-19T14:52:53Z</time>
      </trkpt>
      <trkpt lat="38.3349110" lon="-0.7018710">
        <ele>301.2</ele>
        <time>2019-10-19T14:52:54Z</time>
      </trkpt>
      <trkpt lat="38.3349060" lon="-0.7018190">
        <ele>301.2</ele>
        <time>2019-10-19T14:52:55Z</time>
      </trkpt>
      <trkpt lat="38.3349030" lon="-0.7017680">
        <ele>301.2</ele>
        <time>2019-10-19T14:52:56Z</time>
      </trkpt>
      <trkpt lat="38.3349020" lon="-0.7017170">
        <ele>301.4</ele>
        <time>2019-10-19T14:52:57Z</time>
      </trkpt>
      <trkpt lat="38.3349000" lon="-0.7016660">
        <ele>301.6</ele>
        <time>2019-10-19T14:52:58Z</time>
      </trkpt>
      <trkpt lat="38.3348990" lon="-0.7016140">
        <ele>301.6</ele>
        <time>2019-10-19T14:52:59Z</time>
      </trkpt>
      <trkpt lat="38.3348980" lon="-0.7015630">
        <ele>301.6</ele>
        <time>2019-10-19T14:53:00Z</time>
      </trkpt>
      <trkpt lat="38.3348970" lon="-0.7015120">
        <ele>301.8</ele>
        <time>2019-10-19T14:53:01Z</time>
      </trkpt>
      <trkpt lat="38.3348960" lon="-0.7014600">
        <ele>302.2</ele>
        <time>2019-10-19T14:53:02Z</time>
      </trkpt>
      <trkpt lat="38.3348950" lon="-0.7014080">
        <ele>302.2</ele>
        <time>2019-10-19T14:53:03Z</time>
      </trkpt>
      <trkpt lat="38.3348930" lon="-0.7013570">
        <ele>302.6</ele>
        <time>2019-10-19T14:53:04Z</time>
      </trkpt>
      <trkpt lat="38.3348910" lon="-0.7013060">
        <ele>302.6</ele>
        <time>2019-10-19T14:53:05Z</time>
      </trkpt>
      <trkpt lat="38.3348860" lon="-0.7012540">
        <ele>302.8</ele>
        <time>2019-10-19T14:53:06Z</time>
      </trkpt>
      <trkpt lat="38.3348830" lon="-0.7012020">
        <ele>303.0</ele>
        <time>2019-10-19T14:53:07Z</time>
      </trkpt>
      <trkpt lat="38.3348800" lon="-0.7011500">
        <ele>303.2</ele>
        <time>2019-10-19T14:53:08Z</time>
      </trkpt>
      <trkpt lat="38.3348780" lon="-0.7010970">
        <ele>303.2</ele>
        <time>2019-10-19T14:53:09Z</time>
      </trkpt>
      <trkpt lat="38.3348760" lon="-0.7010460">
        <ele>303.4</ele>
        <time>2019-10-19T14:53:10Z</time>
      </trkpt>
      <trkpt lat="38.3348730" lon="-0.7009960">
        <ele>303.6</ele>
        <time>2019-10-19T14:53:11Z</time>
      </trkpt>
      <trkpt lat="38.3348700" lon="-0.7009470">
        <ele>304.0</ele>
        <time>2019-10-19T14:53:12Z</time>
      </trkpt>
      <trkpt lat="38.3348670" lon="-0.7008970">
        <ele>304.0</ele>
        <time>2019-10-19T14:53:13Z</time>
      </trkpt>
      <trkpt lat="38.3348640" lon="-0.7008460">
        <ele>304.2</ele>
        <time>2019-10-19T14:53:14Z</time>
      </trkpt>
      <trkpt lat="38.3348620" lon="-0.7007940">
        <ele>304.4</ele>
        <time>2019-10-19T14:53:15Z</time>
      </trkpt>
      <trkpt lat="38.3348600" lon="-0.7007420">
        <ele>304.4</ele>
        <time>2019-10-19T14:53:16Z</time>
      </trkpt>
      <trkpt lat="38.3348570" lon="-0.7006890">
        <ele>304.6</ele>
        <time>2019-10-19T14:53:17Z</time>
      </trkpt>
      <trkpt lat="38.3348550" lon="-0.7006360">
        <ele>304.8</ele>
        <time>2019-10-19T14:53:18Z</time>
      </trkpt>
      <trkpt lat="38.3348530" lon="-0.7005810">
        <ele>305.0</ele>
        <time>2019-10-19T14:53:19Z</time>
      </trkpt>
      <trkpt lat="38.3348520" lon="-0.7005270">
        <ele>305.0</ele>
        <time>2019-10-19T14:53:20Z</time>
      </trkpt>
      <trkpt lat="38.3348490" lon="-0.7004720">
        <ele>305.2</ele>
        <time>2019-10-19T14:53:21Z</time>
      </trkpt>
      <trkpt lat="38.3348480" lon="-0.7004170">
        <ele>305.6</ele>
        <time>2019-10-19T14:53:22Z</time>
      </trkpt>
      <trkpt lat="38.3348460" lon="-0.7003620">
        <ele>305.6</ele>
        <time>2019-10-19T14:53:23Z</time>
      </trkpt>
      <trkpt lat="38.3348450" lon="-0.7003070">
        <ele>305.8</ele>
        <time>2019-10-19T14:53:24Z</time>
      </trkpt>
      <trkpt lat="38.3348450" lon="-0.7002510">
        <ele>305.8</ele>
        <time>2019-10-19T14:53:25Z</time>
      </trkpt>
      <trkpt lat="38.3348440" lon="-0.7001960">
        <ele>306.0</ele>
        <time>2019-10-19T14:53:26Z</time>
      </trkpt>
      <trkpt lat="38.3348420" lon="-0.7001400">
        <ele>306.2</ele>
        <time>2019-10-19T14:53:27Z</time>
      </trkpt>
      <trkpt lat="38.3348400" lon="-0.7000850">
        <ele>306.2</ele>
        <time>2019-10-19T14:53:28Z</time>
      </trkpt>
      <trkpt lat="38.3348400" lon="-0.7000290">
        <ele>306.4</ele>
        <time>2019-10-19T14:53:29Z</time>
      </trkpt>
      <trkpt lat="38.3348380" lon="-0.6999730">
        <ele>306.6</ele>
        <time>2019-10-19T14:53:30Z</time>
      </trkpt>
      <trkpt lat="38.3348380" lon="-0.6999170">
        <ele>306.6</ele>
        <time>2019-10-19T14:53:31Z</time>
      </trkpt>
      <trkpt lat="38.3348370" lon="-0.6998610">
        <ele>306.8</ele>
        <time>2019-10-19T14:53:32Z</time>
      </trkpt>
      <trkpt lat="38.3348360" lon="-0.6998050">
        <ele>307.2</ele>
        <time>2019-10-19T14:53:33Z</time>
      </trkpt>
      <trkpt lat="38.3348340" lon="-0.6997480">
        <ele>307.2</ele>
        <time>2019-10-19T14:53:34Z</time>
      </trkpt>
      <trkpt lat="38.3348330" lon="-0.6996900">
        <ele>307.4</ele>
        <time>2019-10-19T14:53:35Z</time>
      </trkpt>
      <trkpt lat="38.3348310" lon="-0.6996340">
        <ele>307.8</ele>
        <time>2019-10-19T14:53:36Z</time>
      </trkpt>
      <trkpt lat="38.3348260" lon="-0.6995770">
        <ele>308.0</ele>
        <time>2019-10-19T14:53:37Z</time>
      </trkpt>
      <trkpt lat="38.3348210" lon="-0.6995190">
        <ele>308.2</ele>
        <time>2019-10-19T14:53:38Z</time>
      </trkpt>
      <trkpt lat="38.3348190" lon="-0.6994600">
        <ele>308.2</ele>
        <time>2019-10-19T14:53:39Z</time>
      </trkpt>
      <trkpt lat="38.3348160" lon="-0.6994010">
        <ele>308.4</ele>
        <time>2019-10-19T14:53:40Z</time>
      </trkpt>
      <trkpt lat="38.3348140" lon="-0.6993420">
        <ele>308.6</ele>
        <time>2019-10-19T14:53:41Z</time>
      </trkpt>
      <trkpt lat="38.3348100" lon="-0.6992820">
        <ele>309.0</ele>
        <time>2019-10-19T14:53:42Z</time>
      </trkpt>
      <trkpt lat="38.3348070" lon="-0.6992230">
        <ele>309.0</ele>
        <time>2019-10-19T14:53:43Z</time>
      </trkpt>
      <trkpt lat="38.3348040" lon="-0.6991630">
        <ele>309.2</ele>
        <time>2019-10-19T14:53:44Z</time>
      </trkpt>
      <trkpt lat="38.3348020" lon="-0.6991050">
        <ele>309.4</ele>
        <time>2019-10-19T14:53:45Z</time>
      </trkpt>
      <trkpt lat="38.3348000" lon="-0.6990480">
        <ele>309.6</ele>
        <time>2019-10-19T14:53:46Z</time>
      </trkpt>
      <trkpt lat="38.3347990" lon="-0.6989930">
        <ele>309.8</ele>
        <time>2019-10-19T14:53:47Z</time>
      </trkpt>
      <trkpt lat="38.3347980" lon="-0.6989380">
        <ele>309.8</ele>
        <time>2019-10-19T14:53:48Z</time>
      </trkpt>
      <trkpt lat="38.3347960" lon="-0.6988820">
        <ele>310.0</ele>
        <time>2019-10-19T14:53:49Z</time>
      </trkpt>
      <trkpt lat="38.3347940" lon="-0.6988270">
        <ele>310.2</ele>
        <time>2019-10-19T14:53:50Z</time>
      </trkpt>
      <trkpt lat="38.3347920" lon="-0.6987730">
        <ele>310.4</ele>
        <time>2019-10-19T14:53:51Z</time>
      </trkpt>
      <trkpt lat="38.3347910" lon="-0.6987180">
        <ele>310.6</ele>
        <time>2019-10-19T14:53:52Z</time>
      </trkpt>
      <trkpt lat="38.3347900" lon="-0.6986630">
        <ele>310.8</ele>
        <time>2019-10-19T14:53:53Z</time>
      </trkpt>
      <trkpt lat="38.3347870" lon="-0.6986080">
        <ele>311.0</ele>
        <time>2019-10-19T14:53:54Z</time>
      </trkpt>
      <trkpt lat="38.3347840" lon="-0.6985520">
        <ele>311.2</ele>
        <time>2019-10-19T14:53:55Z</time>
      </trkpt>
      <trkpt lat="38.3347790" lon="-0.6984960">
        <ele>311.4</ele>
        <time>2019-10-19T14:53:56Z</time>
      </trkpt>
      <trkpt lat="38.3347750" lon="-0.6984400">
        <ele>311.6</ele>
        <time>2019-10-19T14:53:57Z</time>
      </trkpt>
      <trkpt lat="38.3347680" lon="-0.6983840">
        <ele>311.4</ele>
        <time>2019-10-19T14:53:58Z</time>
      </trkpt>
      <trkpt lat="38.3347610" lon="-0.6983270">
        <ele>311.6</ele>
        <time>2019-10-19T14:53:59Z</time>
      </trkpt>
      <trkpt lat="38.3347530" lon="-0.6982710">
        <ele>311.6</ele>
        <time>2019-10-19T14:54:00Z</time>
      </trkpt>
      <trkpt lat="38.3347420" lon="-0.6982150">
        <ele>311.8</ele>
        <time>2019-10-19T14:54:01Z</time>
      </trkpt>
      <trkpt lat="38.3347310" lon="-0.6981590">
        <ele>312.0</ele>
        <time>2019-10-19T14:54:02Z</time>
      </trkpt>
      <trkpt lat="38.3347170" lon="-0.6981040">
        <ele>312.2</ele>
        <time>2019-10-19T14:54:03Z</time>
      </trkpt>
      <trkpt lat="38.3347020" lon="-0.6980490">
        <ele>312.4</ele>
        <time>2019-10-19T14:54:04Z</time>
      </trkpt>
      <trkpt lat="38.3346840" lon="-0.6979950">
        <ele>312.6</ele>
        <time>2019-10-19T14:54:05Z</time>
      </trkpt>
      <trkpt lat="38.3346640" lon="-0.6979420">
        <ele>312.6</ele>
        <time>2019-10-19T14:54:06Z</time>
      </trkpt>
      <trkpt lat="38.3346440" lon="-0.6978900">
        <ele>312.8</ele>
        <time>2019-10-19T14:54:07Z</time>
      </trkpt>
      <trkpt lat="38.3346240" lon="-0.6978370">
        <ele>313.0</ele>
        <time>2019-10-19T14:54:08Z</time>
      </trkpt>
      <trkpt lat="38.3346020" lon="-0.6977840">
        <ele>313.2</ele>
        <time>2019-10-19T14:54:09Z</time>
      </trkpt>
      <trkpt lat="38.3345800" lon="-0.6977320">
        <ele>313.4</ele>
        <time>2019-10-19T14:54:10Z</time>
      </trkpt>
      <trkpt lat="38.3345570" lon="-0.6976800">
        <ele>313.6</ele>
        <time>2019-10-19T14:54:11Z</time>
      </trkpt>
      <trkpt lat="38.3345350" lon="-0.6976290">
        <ele>313.8</ele>
        <time>2019-10-19T14:54:12Z</time>
      </trkpt>
      <trkpt lat="38.3345140" lon="-0.6975790">
        <ele>314.0</ele>
        <time>2019-10-19T14:54:13Z</time>
      </trkpt>
      <trkpt lat="38.3344920" lon="-0.6975280">
        <ele>314.2</ele>
        <time>2019-10-19T14:54:14Z</time>
      </trkpt>
      <trkpt lat="38.3344690" lon="-0.6974780">
        <ele>314.4</ele>
        <time>2019-10-19T14:54:15Z</time>
      </trkpt>
      <trkpt lat="38.3344470" lon="-0.6974280">
        <ele>314.6</ele>
        <time>2019-10-19T14:54:16Z</time>
      </trkpt>
      <trkpt lat="38.3344250" lon="-0.6973780">
        <ele>314.6</ele>
        <time>2019-10-19T14:54:17Z</time>
      </trkpt>
      <trkpt lat="38.3344040" lon="-0.6973280">
        <ele>314.8</ele>
        <time>2019-10-19T14:54:18Z</time>
      </trkpt>
      <trkpt lat="38.3343830" lon="-0.6972800">
        <ele>315.0</ele>
        <time>2019-10-19T14:54:19Z</time>
      </trkpt>
      <trkpt lat="38.3343610" lon="-0.6972300">
        <ele>315.4</ele>
        <time>2019-10-19T14:54:20Z</time>
      </trkpt>
      <trkpt lat="38.3343380" lon="-0.6971810">
        <ele>315.4</ele>
        <time>2019-10-19T14:54:21Z</time>
      </trkpt>
      <trkpt lat="38.3343140" lon="-0.6971320">
        <ele>315.4</ele>
        <time>2019-10-19T14:54:22Z</time>
      </trkpt>
      <trkpt lat="38.3342900" lon="-0.6970850">
        <ele>315.8</ele>
        <time>2019-10-19T14:54:23Z</time>
      </trkpt>
      <trkpt lat="38.3342650" lon="-0.6970360">
        <ele>315.6</ele>
        <time>2019-10-19T14:54:24Z</time>
      </trkpt>
      <trkpt lat="38.3342410" lon="-0.6969860">
        <ele>316.0</ele>
        <time>2019-10-19T14:54:25Z</time>
      </trkpt>
      <trkpt lat="38.3342170" lon="-0.6969370">
        <ele>316.2</ele>
        <time>2019-10-19T14:54:26Z</time>
      </trkpt>
      <trkpt lat="38.3341920" lon="-0.6968870">
        <ele>316.2</ele>
        <time>2019-10-19T14:54:27Z</time>
      </trkpt>
      <trkpt lat="38.3341660" lon="-0.6968370">
        <ele>316.4</ele>
        <time>2019-10-19T14:54:28Z</time>
      </trkpt>
      <trkpt lat="38.3341400" lon="-0.6967860">
        <ele>316.6</ele>
        <time>2019-10-19T14:54:29Z</time>
      </trkpt>
      <trkpt lat="38.3341150" lon="-0.6967350">
        <ele>316.6</ele>
        <time>2019-10-19T14:54:30Z</time>
      </trkpt>
      <trkpt lat="38.3340880" lon="-0.6966850">
        <ele>316.8</ele>
        <time>2019-10-19T14:54:31Z</time>
      </trkpt>
      <trkpt lat="38.3340600" lon="-0.6966380">
        <ele>317.0</ele>
        <time>2019-10-19T14:54:32Z</time>
      </trkpt>
      <trkpt lat="38.3340290" lon="-0.6965930">
        <ele>317.2</ele>
        <time>2019-10-19T14:54:33Z</time>
      </trkpt>
      <trkpt lat="38.3339970" lon="-0.6965500">
        <ele>317.4</ele>
        <time>2019-10-19T14:54:34Z</time>
      </trkpt>
      <trkpt lat="38.3339630" lon="-0.6965080">
        <ele>317.4</ele>
        <time>2019-10-19T14:54:35Z</time>
      </trkpt>
      <trkpt lat="38.3339280" lon="-0.6964680">
        <ele>317.2</ele>
        <time>2019-10-19T14:54:36Z</time>
      </trkpt>
      <trkpt lat="38.3338930" lon="-0.6964300">
        <ele>317.4</ele>
        <time>2019-10-19T14:54:37Z</time>
      </trkpt>
      <trkpt lat="38.3338560" lon="-0.6963920">
        <ele>317.2</ele>
        <time>2019-10-19T14:54:38Z</time>
      </trkpt>
      <trkpt lat="38.3338180" lon="-0.6963550">
        <ele>317.2</ele>
        <time>2019-10-19T14:54:39Z</time>
      </trkpt>
      <trkpt lat="38.3337780" lon="-0.6963190">
        <ele>317.2</ele>
        <time>2019-10-19T14:54:40Z</time>
      </trkpt>
      <trkpt lat="38.3337380" lon="-0.6962840">
        <ele>317.4</ele>
        <time>2019-10-19T14:54:41Z</time>
      </trkpt>
      <trkpt lat="38.3336980" lon="-0.6962480">
        <ele>317.6</ele>
        <time>2019-10-19T14:54:42Z</time>
      </trkpt>
      <trkpt lat="38.3336570" lon="-0.6962110">
        <ele>317.6</ele>
        <time>2019-10-19T14:54:43Z</time>
      </trkpt>
      <trkpt lat="38.3336160" lon="-0.6961730">
        <ele>317.8</ele>
        <time>2019-10-19T14:54:44Z</time>
      </trkpt>
      <trkpt lat="38.3335740" lon="-0.6961330">
        <ele>317.8</ele>
        <time>2019-10-19T14:54:45Z</time>
      </trkpt>
      <trkpt lat="38.3335330" lon="-0.6960940">
        <ele>317.8</ele>
        <time>2019-10-19T14:54:46Z</time>
      </trkpt>
      <trkpt lat="38.3334910" lon="-0.6960550">
        <ele>317.8</ele>
        <time>2019-10-19T14:54:47Z</time>
      </trkpt>
      <trkpt lat="38.3334490" lon="-0.6960170">
        <ele>317.8</ele>
        <time>2019-10-19T14:54:48Z</time>
      </trkpt>
      <trkpt lat="38.3334080" lon="-0.6959780">
        <ele>317.8</ele>
        <time>2019-10-19T14:54:49Z</time>
      </trkpt>
      <trkpt lat="38.3333660" lon="-0.6959390">
        <ele>317.8</ele>
        <time>2019-10-19T14:54:50Z</time>
      </trkpt>
      <trkpt lat="38.3333240" lon="-0.6959030">
        <ele>318.0</ele>
        <time>2019-10-19T14:54:51Z</time>
      </trkpt>
      <trkpt lat="38.3332820" lon="-0.6958650">
        <ele>318.2</ele>
        <time>2019-10-19T14:54:52Z</time>
      </trkpt>
      <trkpt lat="38.3332400" lon="-0.6958270">
        <ele>318.0</ele>
        <time>2019-10-19T14:54:53Z</time>
      </trkpt>
      <trkpt lat="38.3331970" lon="-0.6957900">
        <ele>318.4</ele>
        <time>2019-10-19T14:54:54Z</time>
      </trkpt>
      <trkpt lat="38.3331550" lon="-0.6957540">
        <ele>318.4</ele>
        <time>2019-10-19T14:54:55Z</time>
      </trkpt>
      <trkpt lat="38.3331120" lon="-0.6957160">
        <ele>318.6</ele>
        <time>2019-10-19T14:54:56Z</time>
      </trkpt>
      <trkpt lat="38.3330690" lon="-0.6956770">
        <ele>318.6</ele>
        <time>2019-10-19T14:54:57Z</time>
      </trkpt>
      <trkpt lat="38.3330280" lon="-0.6956360">
        <ele>318.6</ele>
        <time>2019-10-19T14:54:58Z</time>
      </trkpt>
      <trkpt lat="38.3329860" lon="-0.6955940">
        <ele>318.6</ele>
        <time>2019-10-19T14:54:59Z</time>
      </trkpt>
      <trkpt lat="38.3329450" lon="-0.6955520">
        <ele>318.8</ele>
        <time>2019-10-19T14:55:00Z</time>
      </trkpt>
      <trkpt lat="38.3329030" lon="-0.6955130">
        <ele>319.0</ele>
        <time>2019-10-19T14:55:01Z</time>
      </trkpt>
      <trkpt lat="38.3328600" lon="-0.6954770">
        <ele>319.0</ele>
        <time>2019-10-19T14:55:02Z</time>
      </trkpt>
      <trkpt lat="38.3328160" lon="-0.6954400">
        <ele>319.0</ele>
        <time>2019-10-19T14:55:03Z</time>
      </trkpt>
      <trkpt lat="38.3327720" lon="-0.6954040">
        <ele>319.2</ele>
        <time>2019-10-19T14:55:04Z</time>
      </trkpt>
      <trkpt lat="38.3327290" lon="-0.6953670">
        <ele>319.2</ele>
        <time>2019-10-19T14:55:05Z</time>
      </trkpt>
      <trkpt lat="38.3326860" lon="-0.6953300">
        <ele>319.2</ele>
        <time>2019-10-19T14:55:06Z</time>
      </trkpt>
      <trkpt lat="38.3326430" lon="-0.6952920">
        <ele>319.2</ele>
        <time>2019-10-19T14:55:07Z</time>
      </trkpt>
      <trkpt lat="38.3326000" lon="-0.6952530">
        <ele>319.4</ele>
        <time>2019-10-19T14:55:08Z</time>
      </trkpt>
      <trkpt lat="38.3325570" lon="-0.6952140">
        <ele>319.4</ele>
        <time>2019-10-19T14:55:09Z</time>
      </trkpt>
      <trkpt lat="38.3325120" lon="-0.6951780">
        <ele>319.4</ele>
        <time>2019-10-19T14:55:10Z</time>
      </trkpt>
      <trkpt lat="38.3324680" lon="-0.6951410">
        <ele>319.6</ele>
        <time>2019-10-19T14:55:11Z</time>
      </trkpt>
      <trkpt lat="38.3324240" lon="-0.6951030">
        <ele>319.6</ele>
        <time>2019-10-19T14:55:12Z</time>
      </trkpt>
      <trkpt lat="38.3323820" lon="-0.6950630">
        <ele>319.6</ele>
        <time>2019-10-19T14:55:13Z</time>
      </trkpt>
      <trkpt lat="38.3323410" lon="-0.6950220">
        <ele>319.6</ele>
        <time>2019-10-19T14:55:14Z</time>
      </trkpt>
      <trkpt lat="38.3323000" lon="-0.6949810">
        <ele>319.6</ele>
        <time>2019-10-19T14:55:15Z</time>
      </trkpt>
      <trkpt lat="38.3322580" lon="-0.6949410">
        <ele>319.8</ele>
        <time>2019-10-19T14:55:16Z</time>
      </trkpt>
      <trkpt lat="38.3322170" lon="-0.6949000">
        <ele>319.8</ele>
        <time>2019-10-19T14:55:17Z</time>
      </trkpt>
      <trkpt lat="38.3321760" lon="-0.6948570">
        <ele>319.8</ele>
        <time>2019-10-19T14:55:18Z</time>
      </trkpt>
      <trkpt lat="38.3321370" lon="-0.6948110">
        <ele>320.0</ele>
        <time>2019-10-19T14:55:19Z</time>
      </trkpt>
      <trkpt lat="38.3321010" lon="-0.6947610">
        <ele>320.0</ele>
        <time>2019-10-19T14:55:20Z</time>
      </trkpt>
      <trkpt lat="38.3320660" lon="-0.6947100">
        <ele>320.0</ele>
        <time>2019-10-19T14:55:21Z</time>
      </trkpt>
      <trkpt lat="38.3320330" lon="-0.6946580">
        <ele>320.0</ele>
        <time>2019-10-19T14:55:22Z</time>
      </trkpt>
      <trkpt lat="38.3320020" lon="-0.6946030">
        <ele>320.2</ele>
        <time>2019-10-19T14:55:23Z</time>
      </trkpt>
      <trkpt lat="38.3319740" lon="-0.6945460">
        <ele>320.2</ele>
        <time>2019-10-19T14:55:24Z</time>
      </trkpt>
      <trkpt lat="38.3319470" lon="-0.6944890">
        <ele>320.4</ele>
        <time>2019-10-19T14:55:25Z</time>
      </trkpt>
      <trkpt lat="38.3319220" lon="-0.6944300">
        <ele>320.4</ele>
        <time>2019-10-19T14:55:26Z</time>
      </trkpt>
      <trkpt lat="38.3319000" lon="-0.6943700">
        <ele>320.8</ele>
        <time>2019-10-19T14:55:27Z</time>
      </trkpt>
      <trkpt lat="38.3318830" lon="-0.6943070">
        <ele>320.8</ele>
        <time>2019-10-19T14:55:28Z</time>
      </trkpt>
      <trkpt lat="38.3318680" lon="-0.6942440">
        <ele>320.8</ele>
        <time>2019-10-19T14:55:29Z</time>
      </trkpt>
      <trkpt lat="38.3318530" lon="-0.6941810">
        <ele>320.6</ele>
        <time>2019-10-19T14:55:30Z</time>
      </trkpt>
      <trkpt lat="38.3318430" lon="-0.6941180">
        <ele>320.6</ele>
        <time>2019-10-19T14:55:31Z</time>
      </trkpt>
      <trkpt lat="38.3318360" lon="-0.6940530">
        <ele>321.0</ele>
        <time>2019-10-19T14:55:32Z</time>
      </trkpt>
      <trkpt lat="38.3318320" lon="-0.6939880">
        <ele>320.8</ele>
        <time>2019-10-19T14:55:33Z</time>
      </trkpt>
      <trkpt lat="38.3318300" lon="-0.6939220">
        <ele>320.8</ele>
        <time>2019-10-19T14:55:34Z</time>
      </trkpt>
      <trkpt lat="38.3318310" lon="-0.6938550">
        <ele>320.8</ele>
        <time>2019-10-19T14:55:35Z</time>
      </trkpt>
      <trkpt lat="38.3318400" lon="-0.6937890">
        <ele>320.8</ele>
        <time>2019-10-19T14:55:36Z</time>
      </trkpt>
      <trkpt lat="38.3318610" lon="-0.6937310">
        <ele>320.8</ele>
        <time>2019-10-19T14:55:37Z</time>
      </trkpt>
      <trkpt lat="38.3318930" lon="-0.6936840">
        <ele>321.2</ele>
        <time>2019-10-19T14:55:38Z</time>
      </trkpt>
      <trkpt lat="38.3319260" lon="-0.6936520">
        <ele>322.0</ele>
        <time>2019-10-19T14:55:39Z</time>
      </trkpt>
      <trkpt lat="38.3319590" lon="-0.6936310">
        <ele>322.4</ele>
        <time>2019-10-19T14:55:40Z</time>
      </trkpt>
      <trkpt lat="38.3319920" lon="-0.6936230">
        <ele>322.8</ele>
        <time>2019-10-19T14:55:41Z</time>
      </trkpt>
      <trkpt lat="38.3320250" lon="-0.6936210">
        <ele>323.0</ele>
        <time>2019-10-19T14:55:42Z</time>
      </trkpt>
      <trkpt lat="38.3320570" lon="-0.6936210">
        <ele>323.4</ele>
        <time>2019-10-19T14:55:43Z</time>
      </trkpt>
      <trkpt lat="38.3320900" lon="-0.6936240">
        <ele>324.0</ele>
        <time>2019-10-19T14:55:44Z</time>
      </trkpt>
      <trkpt lat="38.3321220" lon="-0.6936280">
        <ele>324.2</ele>
        <time>2019-10-19T14:55:45Z</time>
      </trkpt>
      <trkpt lat="38.3321530" lon="-0.6936320">
        <ele>324.4</ele>
        <time>2019-10-19T14:55:46Z</time>
      </trkpt>
      <trkpt lat="38.3321840" lon="-0.6936370">
        <ele>324.8</ele>
        <time>2019-10-19T14:55:47Z</time>
      </trkpt>
      <trkpt lat="38.3322130" lon="-0.6936430">
        <ele>325.0</ele>
        <time>2019-10-19T14:55:48Z</time>
      </trkpt>
      <trkpt lat="38.3322430" lon="-0.6936490">
        <ele>325.4</ele>
        <time>2019-10-19T14:55:49Z</time>
      </trkpt>
      <trkpt lat="38.3322720" lon="-0.6936540">
        <ele>325.8</ele>
        <time>2019-10-19T14:55:50Z</time>
      </trkpt>
      <trkpt lat="38.3323030" lon="-0.6936580">
        <ele>325.8</ele>
        <time>2019-10-19T14:55:51Z</time>
      </trkpt>
      <trkpt lat="38.3323330" lon="-0.6936650">
        <ele>326.2</ele>
        <time>2019-10-19T14:55:52Z</time>
      </trkpt>
      <trkpt lat="38.3323640" lon="-0.6936710">
        <ele>326.4</ele>
        <time>2019-10-19T14:55:53Z</time>
      </trkpt>
      <trkpt lat="38.3323940" lon="-0.6936770">
        <ele>327.0</ele>
        <time>2019-10-19T14:55:54Z</time>
      </trkpt>
      <trkpt lat="38.3324250" lon="-0.6936840">
        <ele>327.2</ele>
        <time>2019-10-19T14:55:55Z</time>
      </trkpt>
      <trkpt lat="38.3324560" lon="-0.6936910">
        <ele>327.6</ele>
        <time>2019-10-19T14:55:56Z</time>
      </trkpt>
      <trkpt lat="38.3324860" lon="-0.6936980">
        <ele>328.2</ele>
        <time>2019-10-19T14:55:57Z</time>
      </trkpt>
      <trkpt lat="38.3325170" lon="-0.6937040">
        <ele>328.4</ele>
        <time>2019-10-19T14:55:58Z</time>
      </trkpt>
      <trkpt lat="38.3325470" lon="-0.6937110">
        <ele>328.8</ele>
        <time>2019-10-19T14:55:59Z</time>
      </trkpt>
      <trkpt lat="38.3325780" lon="-0.6937160">
        <ele>329.2</ele>
        <time>2019-10-19T14:56:00Z</time>
      </trkpt>
      <trkpt lat="38.3326090" lon="-0.6937210">
        <ele>329.4</ele>
        <time>2019-10-19T14:56:01Z</time>
      </trkpt>
      <trkpt lat="38.3326400" lon="-0.6937270">
        <ele>329.6</ele>
        <time>2019-10-19T14:56:02Z</time>
      </trkpt>
      <trkpt lat="38.3326710" lon="-0.6937330">
        <ele>330.0</ele>
        <time>2019-10-19T14:56:03Z</time>
      </trkpt>
      <trkpt lat="38.3327010" lon="-0.6937380">
        <ele>330.2</ele>
        <time>2019-10-19T14:56:04Z</time>
      </trkpt>
      <trkpt lat="38.3327310" lon="-0.6937440">
        <ele>330.6</ele>
        <time>2019-10-19T14:56:05Z</time>
      </trkpt>
      <trkpt lat="38.3327620" lon="-0.6937500">
        <ele>330.8</ele>
        <time>2019-10-19T14:56:06Z</time>
      </trkpt>
      <trkpt lat="38.3327920" lon="-0.6937570">
        <ele>331.2</ele>
        <time>2019-10-19T14:56:07Z</time>
      </trkpt>
      <trkpt lat="38.3328220" lon="-0.6937620">
        <ele>331.8</ele>
        <time>2019-10-19T14:56:08Z</time>
      </trkpt>
      <trkpt lat="38.3328510" lon="-0.6937650">
        <ele>332.0</ele>
        <time>2019-10-19T14:56:09Z</time>
      </trkpt>
      <trkpt lat="38.3328810" lon="-0.6937680">
        <ele>332.4</ele>
        <time>2019-10-19T14:56:10Z</time>
      </trkpt>
      <trkpt lat="38.3329110" lon="-0.6937720">
        <ele>332.6</ele>
        <time>2019-10-19T14:56:11Z</time>
      </trkpt>
      <trkpt lat="38.3329400" lon="-0.6937770">
        <ele>332.8</ele>
        <time>2019-10-19T14:56:12Z</time>
      </trkpt>
      <trkpt lat="38.3329700" lon="-0.6937810">
        <ele>333.0</ele>
        <time>2019-10-19T14:56:13Z</time>
      </trkpt>
      <trkpt lat="38.3330010" lon="-0.6937850">
        <ele>333.4</ele>
        <time>2019-10-19T14:56:14Z</time>
      </trkpt>
      <trkpt lat="38.3330330" lon="-0.6937890">
        <ele>333.6</ele>
        <time>2019-10-19T14:56:15Z</time>
      </trkpt>
      <trkpt lat="38.3330640" lon="-0.6937920">
        <ele>333.8</ele>
        <time>2019-10-19T14:56:16Z</time>
      </trkpt>
      <trkpt lat="38.3330960" lon="-0.6937970">
        <ele>334.2</ele>
        <time>2019-10-19T14:56:17Z</time>
      </trkpt>
      <trkpt lat="38.3331270" lon="-0.6938010">
        <ele>334.4</ele>
        <time>2019-10-19T14:56:18Z</time>
      </trkpt>
      <trkpt lat="38.3331580" lon="-0.6938040">
        <ele>334.6</ele>
        <time>2019-10-19T14:56:19Z</time>
      </trkpt>
      <trkpt lat="38.3331900" lon="-0.6938070">
        <ele>334.8</ele>
        <time>2019-10-19T14:56:20Z</time>
      </trkpt>
      <trkpt lat="38.3332220" lon="-0.6938090">
        <ele>335.0</ele>
        <time>2019-10-19T14:56:21Z</time>
      </trkpt>
      <trkpt lat="38.3332550" lon="-0.6938140">
        <ele>335.0</ele>
        <time>2019-10-19T14:56:22Z</time>
      </trkpt>
      <trkpt lat="38.3332890" lon="-0.6938190">
        <ele>335.2</ele>
        <time>2019-10-19T14:56:23Z</time>
      </trkpt>
      <trkpt lat="38.3333230" lon="-0.6938220">
        <ele>335.4</ele>
        <time>2019-10-19T14:56:24Z</time>
      </trkpt>
      <trkpt lat="38.3333570" lon="-0.6938240">
        <ele>335.6</ele>
        <time>2019-10-19T14:56:25Z</time>
      </trkpt>
      <trkpt lat="38.3333900" lon="-0.6938280">
        <ele>336.0</ele>
        <time>2019-10-19T14:56:26Z</time>
      </trkpt>
      <trkpt lat="38.3334240" lon="-0.6938310">
        <ele>336.2</ele>
        <time>2019-10-19T14:56:27Z</time>
      </trkpt>
      <trkpt lat="38.3334570" lon="-0.6938350">
        <ele>336.4</ele>
        <time>2019-10-19T14:56:28Z</time>
      </trkpt>
      <trkpt lat="38.3334920" lon="-0.6938380">
        <ele>336.6</ele>
        <time>2019-10-19T14:56:29Z</time>
      </trkpt>
      <trkpt lat="38.3335260" lon="-0.6938410">
        <ele>336.8</ele>
        <time>2019-10-19T14:56:30Z</time>
      </trkpt>
      <trkpt lat="38.3335610" lon="-0.6938440">
        <ele>337.0</ele>
        <time>2019-10-19T14:56:31Z</time>
      </trkpt>
      <trkpt lat="38.3335960" lon="-0.6938460">
        <ele>337.2</ele>
        <time>2019-10-19T14:56:32Z</time>
      </trkpt>
      <trkpt lat="38.3336310" lon="-0.6938480">
        <ele>337.2</ele>
        <time>2019-10-19T14:56:33Z</time>
      </trkpt>
      <trkpt lat="38.3336660" lon="-0.6938510">
        <ele>337.4</ele>
        <time>2019-10-19T14:56:34Z</time>
      </trkpt>
      <trkpt lat="38.3337010" lon="-0.6938520">
        <ele>337.6</ele>
        <time>2019-10-19T14:56:35Z</time>
      </trkpt>
      <trkpt lat="38.3337350" lon="-0.6938520">
        <ele>337.8</ele>
        <time>2019-10-19T14:56:36Z</time>
      </trkpt>
      <trkpt lat="38.3337680" lon="-0.6938510">
        <ele>338.0</ele>
        <time>2019-10-19T14:56:37Z</time>
      </trkpt>
      <trkpt lat="38.3338020" lon="-0.6938510">
        <ele>338.0</ele>
        <time>2019-10-19T14:56:38Z</time>
      </trkpt>
      <trkpt lat="38.3338360" lon="-0.6938520">
        <ele>338.2</ele>
        <time>2019-10-19T14:56:39Z</time>
      </trkpt>
      <trkpt lat="38.3338710" lon="-0.6938520">
        <ele>338.4</ele>
        <time>2019-10-19T14:56:40Z</time>
      </trkpt>
      <trkpt lat="38.3339050" lon="-0.6938520">
        <ele>338.6</ele>
        <time>2019-10-19T14:56:41Z</time>
      </trkpt>
      <trkpt lat="38.3339400" lon="-0.6938510">
        <ele>338.8</ele>
        <time>2019-10-19T14:56:42Z</time>
      </trkpt>
      <trkpt lat="38.3339730" lon="-0.6938520">
        <ele>339.2</ele>
        <time>2019-10-19T14:56:43Z</time>
      </trkpt>
      <trkpt lat="38.3340070" lon="-0.6938530">
        <ele>339.2</ele>
        <time>2019-10-19T14:56:44Z</time>
      </trkpt>
      <trkpt lat="38.3340400" lon="-0.6938550">
        <ele>339.4</ele>
        <time>2019-10-19T14:56:45Z</time>
      </trkpt>
      <trkpt lat="38.3340730" lon="-0.6938550">
        <ele>339.4</ele>
        <time>2019-10-19T14:56:46Z</time>
      </trkpt>
      <trkpt lat="38.3341070" lon="-0.6938540">
        <ele>339.6</ele>
        <time>2019-10-19T14:56:47Z</time>
      </trkpt>
      <trkpt lat="38.3341400" lon="-0.6938540">
        <ele>339.6</ele>
        <time>2019-10-19T14:56:48Z</time>
      </trkpt>
      <trkpt lat="38.3341730" lon="-0.6938530">
        <ele>340.0</ele>
        <time>2019-10-19T14:56:49Z</time>
      </trkpt>
      <trkpt lat="38.3342060" lon="-0.6938520">
        <ele>340.0</ele>
        <time>2019-10-19T14:56:50Z</time>
      </trkpt>
      <trkpt lat="38.3342400" lon="-0.6938490">
        <ele>340.4</ele>
        <time>2019-10-19T14:56:51Z</time>
      </trkpt>
      <trkpt lat="38.3342740" lon="-0.6938460">
        <ele>340.4</ele>
        <time>2019-10-19T14:56:52Z</time>
      </trkpt>
      <trkpt lat="38.3343080" lon="-0.6938430">
        <ele>340.4</ele>
        <time>2019-10-19T14:56:53Z</time>
      </trkpt>
      <trkpt lat="38.3343430" lon="-0.6938430">
        <ele>340.6</ele>
        <time>2019-10-19T14:56:54Z</time>
      </trkpt>
      <trkpt lat="38.3343770" lon="-0.6938440">
        <ele>340.8</ele>
        <time>2019-10-19T14:56:55Z</time>
      </trkpt>
      <trkpt lat="38.3344110" lon="-0.6938440">
        <ele>341.0</ele>
        <time>2019-10-19T14:56:56Z</time>
      </trkpt>
      <trkpt lat="38.3344460" lon="-0.6938440">
        <ele>341.0</ele>
        <time>2019-10-19T14:56:57Z</time>
      </trkpt>
      <trkpt lat="38.3344800" lon="-0.6938460">
        <ele>341.0</ele>
        <time>2019-10-19T14:56:58Z</time>
      </trkpt>
      <trkpt lat="38.3345140" lon="-0.6938500">
        <ele>341.2</ele>
        <time>2019-10-19T14:56:59Z</time>
      </trkpt>
      <trkpt lat="38.3345480" lon="-0.6938540">
        <ele>341.4</ele>
        <time>2019-10-19T14:57:00Z</time>
      </trkpt>
      <trkpt lat="38.3345830" lon="-0.6938580">
        <ele>341.6</ele>
        <time>2019-10-19T14:57:01Z</time>
      </trkpt>
      <trkpt lat="38.3346180" lon="-0.6938580">
        <ele>341.6</ele>
        <time>2019-10-19T14:57:02Z</time>
      </trkpt>
      <trkpt lat="38.3346520" lon="-0.6938560">
        <ele>342.0</ele>
        <time>2019-10-19T14:57:03Z</time>
      </trkpt>
      <trkpt lat="38.3346860" lon="-0.6938520">
        <ele>342.0</ele>
        <time>2019-10-19T14:57:04Z</time>
      </trkpt>
      <trkpt lat="38.3347200" lon="-0.6938500">
        <ele>342.2</ele>
        <time>2019-10-19T14:57:05Z</time>
      </trkpt>
      <trkpt lat="38.3347520" lon="-0.6938450">
        <ele>342.4</ele>
        <time>2019-10-19T14:57:06Z</time>
      </trkpt>
      <trkpt lat="38.3347820" lon="-0.6938310">
        <ele>342.6</ele>
        <time>2019-10-19T14:57:07Z</time>
      </trkpt>
      <trkpt lat="38.3348060" lon="-0.6938060">
        <ele>342.6</ele>
        <time>2019-10-19T14:57:08Z</time>
      </trkpt>
      <trkpt lat="38.3348290" lon="-0.6937760">
        <ele>342.8</ele>
        <time>2019-10-19T14:57:09Z</time>
      </trkpt>
      <trkpt lat="38.3348490" lon="-0.6937460">
        <ele>343.0</ele>
        <time>2019-10-19T14:57:10Z</time>
      </trkpt>
      <trkpt lat="38.3348690" lon="-0.6937220">
        <ele>343.4</ele>
        <time>2019-10-19T14:57:11Z</time>
      </trkpt>
      <trkpt lat="38.3348890" lon="-0.6937030">
        <ele>343.4</ele>
        <time>2019-10-19T14:57:12Z</time>
      </trkpt>
      <trkpt lat="38.3349160" lon="-0.6936930">
        <ele>343.6</ele>
        <time>2019-10-19T14:57:13Z</time>
      </trkpt>
      <trkpt lat="38.3349440" lon="-0.6936950">
        <ele>343.6</ele>
        <time>2019-10-19T14:57:14Z</time>
      </trkpt>
      <trkpt lat="38.3349750" lon="-0.6937000">
        <ele>343.6</ele>
        <time>2019-10-19T14:57:15Z</time>
      </trkpt>
      <trkpt lat="38.3350070" lon="-0.6936990">
        <ele>343.8</ele>
        <time>2019-10-19T14:57:16Z</time>
      </trkpt>
      <trkpt lat="38.3350420" lon="-0.6936980">
        <ele>344.0</ele>
        <time>2019-10-19T14:57:17Z</time>
      </trkpt>
      <trkpt lat="38.3350800" lon="-0.6936980">
        <ele>344.2</ele>
        <time>2019-10-19T14:57:18Z</time>
      </trkpt>
      <trkpt lat="38.3351170" lon="-0.6937010">
        <ele>344.0</ele>
        <time>2019-10-19T14:57:19Z</time>
      </trkpt>
      <trkpt lat="38.3351550" lon="-0.6937040">
        <ele>344.2</ele>
        <time>2019-10-19T14:57:20Z</time>
      </trkpt>
      <trkpt lat="38.3351940" lon="-0.6937030">
        <ele>344.2</ele>
        <time>2019-10-19T14:57:21Z</time>
      </trkpt>
      <trkpt lat="38.3352340" lon="-0.6937000">
        <ele>344.2</ele>
        <time>2019-10-19T14:57:22Z</time>
      </trkpt>
      <trkpt lat="38.3352750" lon="-0.6936920">
        <ele>344.2</ele>
        <time>2019-10-19T14:57:23Z</time>
      </trkpt>
      <trkpt lat="38.3353150" lon="-0.6936800">
        <ele>344.6</ele>
        <time>2019-10-19T14:57:24Z</time>
      </trkpt>
      <trkpt lat="38.3353570" lon="-0.6936710">
        <ele>344.6</ele>
        <time>2019-10-19T14:57:25Z</time>
      </trkpt>
      <trkpt lat="38.3354020" lon="-0.6936650">
        <ele>344.6</ele>
        <time>2019-10-19T14:57:26Z</time>
      </trkpt>
      <trkpt lat="38.3354480" lon="-0.6936620">
        <ele>344.6</ele>
        <time>2019-10-19T14:57:27Z</time>
      </trkpt>
      <trkpt lat="38.3354960" lon="-0.6936570">
        <ele>344.6</ele>
        <time>2019-10-19T14:57:28Z</time>
      </trkpt>
      <trkpt lat="38.3355450" lon="-0.6936500">
        <ele>344.8</ele>
        <time>2019-10-19T14:57:29Z</time>
      </trkpt>
      <trkpt lat="38.3355950" lon="-0.6936420">
        <ele>344.6</ele>
        <time>2019-10-19T14:57:30Z</time>
      </trkpt>
      <trkpt lat="38.3356480" lon="-0.6936470">
        <ele>344.6</ele>
        <time>2019-10-19T14:57:31Z</time>
      </trkpt>
      <trkpt lat="38.3357020" lon="-0.6936640">
        <ele>344.6</ele>
        <time>2019-10-19T14:57:32Z</time>
      </trkpt>
      <trkpt lat="38.3357540" lon="-0.6936830">
        <ele>345.0</ele>
        <time>2019-10-19T14:57:33Z</time>
      </trkpt>
      <trkpt lat="38.3358030" lon="-0.6937080">
        <ele>344.6</ele>
        <time>2019-10-19T14:57:34Z</time>
      </trkpt>
      <trkpt lat="38.3358520" lon="-0.6937330">
        <ele>344.6</ele>
        <time>2019-10-19T14:57:35Z</time>
      </trkpt>
      <trkpt lat="38.3359020" lon="-0.6937490">
        <ele>345.0</ele>
        <time>2019-10-19T14:57:36Z</time>
      </trkpt>
      <trkpt lat="38.3359490" lon="-0.6937510">
        <ele>345.0</ele>
        <time>2019-10-19T14:57:37Z</time>
      </trkpt>
      <trkpt lat="38.3359910" lon="-0.6937410">
        <ele>345.0</ele>
        <time>2019-10-19T14:57:38Z</time>
      </trkpt>
      <trkpt lat="38.3360190" lon="-0.6937230">
        <ele>345.0</ele>
        <time>2019-10-19T14:57:39Z</time>
      </trkpt>
      <trkpt lat="38.3360410" lon="-0.6937030">
        <ele>345.6</ele>
        <time>2019-10-19T14:57:40Z</time>
      </trkpt>
      <trkpt lat="38.3360600" lon="-0.6936800">
        <ele>345.8</ele>
        <time>2019-10-19T14:57:41Z</time>
      </trkpt>
      <trkpt lat="38.3360750" lon="-0.6936570">
        <ele>346.0</ele>
        <time>2019-10-19T14:57:42Z</time>
      </trkpt>
      <trkpt lat="38.3360870" lon="-0.6936350">
        <ele>346.4</ele>
        <time>2019-10-19T14:57:43Z</time>
      </trkpt>
      <trkpt lat="38.3360990" lon="-0.6936130">
        <ele>346.8</ele>
        <time>2019-10-19T14:57:44Z</time>
      </trkpt>
      <trkpt lat="38.3361100" lon="-0.6935930">
        <ele>347.4</ele>
        <time>2019-10-19T14:57:45Z</time>
      </trkpt>
      <trkpt lat="38.3361220" lon="-0.6935800">
        <ele>347.8</ele>
        <time>2019-10-19T14:57:46Z</time>
      </trkpt>
      <trkpt lat="38.3361360" lon="-0.6935690">
        <ele>348.2</ele>
        <time>2019-10-19T14:57:47Z</time>
      </trkpt>
      <trkpt lat="38.3361510" lon="-0.6935600">
        <ele>348.2</ele>
        <time>2019-10-19T14:57:48Z</time>
      </trkpt>
      <trkpt lat="38.3361680" lon="-0.6935550">
        <ele>348.4</ele>
        <time>2019-10-19T14:57:49Z</time>
      </trkpt>
      <trkpt lat="38.3361870" lon="-0.6935540">
        <ele>348.8</ele>
        <time>2019-10-19T14:57:50Z</time>
      </trkpt>
      <trkpt lat="38.3362050" lon="-0.6935570">
        <ele>349.0</ele>
        <time>2019-10-19T14:57:51Z</time>
      </trkpt>
      <trkpt lat="38.3362260" lon="-0.6935590">
        <ele>349.4</ele>
        <time>2019-10-19T14:57:52Z</time>
      </trkpt>
      <trkpt lat="38.3362460" lon="-0.6935610">
        <ele>349.6</ele>
        <time>2019-10-19T14:57:53Z</time>
      </trkpt>
      <trkpt lat="38.3362660" lon="-0.6935590">
        <ele>349.8</ele>
        <time>2019-10-19T14:57:54Z</time>
      </trkpt>
      <trkpt lat="38.3362840" lon="-0.6935600">
        <ele>350.0</ele>
        <time>2019-10-19T14:57:55Z</time>
      </trkpt>
      <trkpt lat="38.3363020" lon="-0.6935610">
        <ele>350.4</ele>
        <time>2019-10-19T14:57:56Z</time>
      </trkpt>
      <trkpt lat="38.3363190" lon="-0.6935660">
        <ele>350.8</ele>
        <time>2019-10-19T14:57:57Z</time>
      </trkpt>
      <trkpt lat="38.3363360" lon="-0.6935720">
        <ele>351.2</ele>
        <time>2019-10-19T14:57:58Z</time>
      </trkpt>
      <trkpt lat="38.3363530" lon="-0.6935740">
        <ele>351.4</ele>
        <time>2019-10-19T14:57:59Z</time>
      </trkpt>
      <trkpt lat="38.3363670" lon="-0.6935770">
        <ele>351.6</ele>
        <time>2019-10-19T14:58:00Z</time>
      </trkpt>
      <trkpt lat="38.3363820" lon="-0.6935780">
        <ele>352.0</ele>
        <time>2019-10-19T14:58:01Z</time>
      </trkpt>
      <trkpt lat="38.3363980" lon="-0.6935750">
        <ele>352.0</ele>
        <time>2019-10-19T14:58:02Z</time>
      </trkpt>
      <trkpt lat="38.3364140" lon="-0.6935660">
        <ele>352.4</ele>
        <time>2019-10-19T14:58:03Z</time>
      </trkpt>
      <trkpt lat="38.3364270" lon="-0.6935540">
        <ele>352.8</ele>
        <time>2019-10-19T14:58:04Z</time>
      </trkpt>
      <trkpt lat="38.3364350" lon="-0.6935390">
        <ele>353.2</ele>
        <time>2019-10-19T14:58:05Z</time>
      </trkpt>
      <trkpt lat="38.3364450" lon="-0.6935230">
        <ele>353.4</ele>
        <time>2019-10-19T14:58:06Z</time>
      </trkpt>
      <trkpt lat="38.3364570" lon="-0.6935090">
        <ele>353.8</ele>
        <time>2019-10-19T14:58:07Z</time>
      </trkpt>
      <trkpt lat="38.3364680" lon="-0.6934960">
        <ele>353.8</ele>
        <time>2019-10-19T14:58:08Z</time>
      </trkpt>
      <trkpt lat="38.3364740" lon="-0.6934770">
        <ele>354.2</ele>
        <time>2019-10-19T14:58:09Z</time>
      </trkpt>
      <trkpt lat="38.3364770" lon="-0.6934560">
        <ele>354.4</ele>
        <time>2019-10-19T14:58:10Z</time>
      </trkpt>
      <trkpt lat="38.3364770" lon="-0.6934340">
        <ele>354.4</ele>
        <time>2019-10-19T14:58:11Z</time>
      </trkpt>
      <trkpt lat="38.3364760" lon="-0.6934160">
        <ele>354.6</ele>
        <time>2019-10-19T14:58:12Z</time>
      </trkpt>
      <trkpt lat="38.3364730" lon="-0.6934000">
        <ele>354.8</ele>
        <time>2019-10-19T14:58:13Z</time>
      </trkpt>
      <trkpt lat="38.3364620" lon="-0.6933890">
        <ele>355.0</ele>
        <time>2019-10-19T14:58:14Z</time>
      </trkpt>
      <trkpt lat="38.3364480" lon="-0.6933790">
        <ele>355.2</ele>
        <time>2019-10-19T14:58:15Z</time>
      </trkpt>
      <trkpt lat="38.3364330" lon="-0.6933710">
        <ele>355.4</ele>
        <time>2019-10-19T14:58:16Z</time>
      </trkpt>
      <trkpt lat="38.3364190" lon="-0.6933650">
        <ele>355.6</ele>
        <time>2019-10-19T14:58:17Z</time>
      </trkpt>
      <trkpt lat="38.3364060" lon="-0.6933590">
        <ele>356.2</ele>
        <time>2019-10-19T14:58:18Z</time>
      </trkpt>
      <trkpt lat="38.3363940" lon="-0.6933510">
        <ele>356.2</ele>
        <time>2019-10-19T14:58:19Z</time>
      </trkpt>
      <trkpt lat="38.3363840" lon="-0.6933410">
        <ele>356.8</ele>
        <time>2019-10-19T14:58:20Z</time>
      </trkpt>
      <trkpt lat="38.3363720" lon="-0.6933290">
        <ele>356.8</ele>
        <time>2019-10-19T14:58:21Z</time>
      </trkpt>
      <trkpt lat="38.3363600" lon="-0.6933190">
        <ele>357.0</ele>
        <time>2019-10-19T14:58:22Z</time>
      </trkpt>
      <trkpt lat="38.3363480" lon="-0.6933070">
        <ele>357.2</ele>
        <time>2019-10-19T14:58:23Z</time>
      </trkpt>
      <trkpt lat="38.3363370" lon="-0.6932950">
        <ele>357.6</ele>
        <time>2019-10-19T14:58:24Z</time>
      </trkpt>
      <trkpt lat="38.3363250" lon="-0.6932840">
        <ele>358.0</ele>
        <time>2019-10-19T14:58:25Z</time>
      </trkpt>
      <trkpt lat="38.3363130" lon="-0.6932740">
        <ele>358.2</ele>
        <time>2019-10-19T14:58:26Z</time>
      </trkpt>
      <trkpt lat="38.3363020" lon="-0.6932630">
        <ele>358.4</ele>
        <time>2019-10-19T14:58:27Z</time>
      </trkpt>
      <trkpt lat="38.3362920" lon="-0.6932510">
        <ele>358.8</ele>
        <time>2019-10-19T14:58:28Z</time>
      </trkpt>
      <trkpt lat="38.3362830" lon="-0.6932380">
        <ele>358.8</ele>
        <time>2019-10-19T14:58:29Z</time>
      </trkpt>
      <trkpt lat="38.3362770" lon="-0.6932220">
        <ele>359.4</ele>
        <time>2019-10-19T14:58:30Z</time>
      </trkpt>
      <trkpt lat="38.3362710" lon="-0.6932040">
        <ele>359.4</ele>
        <time>2019-10-19T14:58:31Z</time>
      </trkpt>
      <trkpt lat="38.3362700" lon="-0.6931870">
        <ele>360.0</ele>
        <time>2019-10-19T14:58:32Z</time>
      </trkpt>
      <trkpt lat="38.3362700" lon="-0.6931700">
        <ele>360.4</ele>
        <time>2019-10-19T14:58:33Z</time>
      </trkpt>
      <trkpt lat="38.3362670" lon="-0.6931540">
        <ele>360.6</ele>
        <time>2019-10-19T14:58:34Z</time>
      </trkpt>
      <trkpt lat="38.3362640" lon="-0.6931400">
        <ele>360.8</ele>
        <time>2019-10-19T14:58:35Z</time>
      </trkpt>
      <trkpt lat="38.3362650" lon="-0.6931270">
        <ele>361.2</ele>
        <time>2019-10-19T14:58:36Z</time>
      </trkpt>
      <trkpt lat="38.3362690" lon="-0.6931120">
        <ele>361.2</ele>
        <time>2019-10-19T14:58:37Z</time>
      </trkpt>
      <trkpt lat="38.3362800" lon="-0.6931000">
        <ele>361.4</ele>
        <time>2019-10-19T14:58:38Z</time>
      </trkpt>
      <trkpt lat="38.3362970" lon="-0.6930910">
        <ele>361.6</ele>
        <time>2019-10-19T14:58:39Z</time>
      </trkpt>
      <trkpt lat="38.3363150" lon="-0.6930850">
        <ele>361.6</ele>
        <time>2019-10-19T14:58:40Z</time>
      </trkpt>
      <trkpt lat="38.3363320" lon="-0.6930810">
        <ele>361.8</ele>
        <time>2019-10-19T14:58:41Z</time>
      </trkpt>
      <trkpt lat="38.3363480" lon="-0.6930810">
        <ele>362.0</ele>
        <time>2019-10-19T14:58:42Z</time>
      </trkpt>
      <trkpt lat="38.3363640" lon="-0.6930850">
        <ele>362.2</ele>
        <time>2019-10-19T14:58:43Z</time>
      </trkpt>
      <trkpt lat="38.3363800" lon="-0.6930910">
        <ele>362.6</ele>
        <time>2019-10-19T14:58:44Z</time>
      </trkpt>
      <trkpt lat="38.3363950" lon="-0.6930970">
        <ele>362.6</ele>
        <time>2019-10-19T14:58:45Z</time>
      </trkpt>
      <trkpt lat="38.3364120" lon="-0.6931050">
        <ele>363.0</ele>
        <time>2019-10-19T14:58:46Z</time>
      </trkpt>
      <trkpt lat="38.3364290" lon="-0.6931110">
        <ele>363.0</ele>
        <time>2019-10-19T14:58:47Z</time>
      </trkpt>
      <trkpt lat="38.3364490" lon="-0.6931130">
        <ele>363.0</ele>
        <time>2019-10-19T14:58:48Z</time>
      </trkpt>
      <trkpt lat="38.3364700" lon="-0.6931120">
        <ele>363.2</ele>
        <time>2019-10-19T14:58:49Z</time>
      </trkpt>
      <trkpt lat="38.3364920" lon="-0.6931110">
        <ele>363.2</ele>
        <time>2019-10-19T14:58:50Z</time>
      </trkpt>
      <trkpt lat="38.3365160" lon="-0.6931080">
        <ele>363.4</ele>
        <time>2019-10-19T14:58:51Z</time>
      </trkpt>
      <trkpt lat="38.3365380" lon="-0.6931050">
        <ele>363.6</ele>
        <time>2019-10-19T14:58:52Z</time>
      </trkpt>
      <trkpt lat="38.3365590" lon="-0.6930980">
        <ele>363.8</ele>
        <time>2019-10-19T14:58:53Z</time>
      </trkpt>
      <trkpt lat="38.3365800" lon="-0.6930890">
        <ele>364.0</ele>
        <time>2019-10-19T14:58:54Z</time>
      </trkpt>
      <trkpt lat="38.3365990" lon="-0.6930740">
        <ele>364.2</ele>
        <time>2019-10-19T14:58:55Z</time>
      </trkpt>
      <trkpt lat="38.3366130" lon="-0.6930570">
        <ele>364.2</ele>
        <time>2019-10-19T14:58:56Z</time>
      </trkpt>
      <trkpt lat="38.3366240" lon="-0.6930400">
        <ele>364.4</ele>
        <time>2019-10-19T14:58:57Z</time>
      </trkpt>
      <trkpt lat="38.3366350" lon="-0.6930230">
        <ele>364.6</ele>
        <time>2019-10-19T14:58:58Z</time>
      </trkpt>
      <trkpt lat="38.3366450" lon="-0.6930040">
        <ele>364.8</ele>
        <time>2019-10-19T14:58:59Z</time>
      </trkpt>
      <trkpt lat="38.3366530" lon="-0.6929830">
        <ele>365.0</ele>
        <time>2019-10-19T14:59:00Z</time>
      </trkpt>
      <trkpt lat="38.3366580" lon="-0.6929630">
        <ele>365.0</ele>
        <time>2019-10-19T14:59:01Z</time>
      </trkpt>
      <trkpt lat="38.3366620" lon="-0.6929400">
        <ele>365.2</ele>
        <time>2019-10-19T14:59:02Z</time>
      </trkpt>
      <trkpt lat="38.3366640" lon="-0.6929100">
        <ele>365.0</ele>
        <time>2019-10-19T14:59:03Z</time>
      </trkpt>
      <trkpt lat="38.3366660" lon="-0.6928770">
        <ele>365.2</ele>
        <time>2019-10-19T14:59:04Z</time>
      </trkpt>
      <trkpt lat="38.3366700" lon="-0.6928430">
        <ele>365.4</ele>
        <time>2019-10-19T14:59:05Z</time>
      </trkpt>
      <trkpt lat="38.3366740" lon="-0.6928080">
        <ele>365.4</ele>
        <time>2019-10-19T14:59:06Z</time>
      </trkpt>
      <trkpt lat="38.3366750" lon="-0.6927750">
        <ele>365.4</ele>
        <time>2019-10-19T14:59:07Z</time>
      </trkpt>
      <trkpt lat="38.3366770" lon="-0.6927430">
        <ele>365.4</ele>
        <time>2019-10-19T14:59:08Z</time>
      </trkpt>
      <trkpt lat="38.3366750" lon="-0.6927140">
        <ele>365.6</ele>
        <time>2019-10-19T14:59:09Z</time>
      </trkpt>
      <trkpt lat="38.3366760" lon="-0.6926850">
        <ele>365.8</ele>
        <time>2019-10-19T14:59:10Z</time>
      </trkpt>
      <trkpt lat="38.3366820" lon="-0.6926590">
        <ele>366.2</ele>
        <time>2019-10-19T14:59:11Z</time>
      </trkpt>
      <trkpt lat="38.3366970" lon="-0.6926390">
        <ele>366.2</ele>
        <time>2019-10-19T14:59:12Z</time>
      </trkpt>
      <trkpt lat="38.3367230" lon="-0.6926230">
        <ele>366.0</ele>
        <time>2019-10-19T14:59:13Z</time>
      </trkpt>
      <trkpt lat="38.3367560" lon="-0.6926170">
        <ele>365.6</ele>
        <time>2019-10-19T14:59:14Z</time>
      </trkpt>
      <trkpt lat="38.3367940" lon="-0.6926210">
        <ele>365.6</ele>
        <time>2019-10-19T14:59:15Z</time>
      </trkpt>
      <trkpt lat="38.3368370" lon="-0.6926320">
        <ele>365.2</ele>
        <time>2019-10-19T14:59:16Z</time>
      </trkpt>
      <trkpt lat="38.3368860" lon="-0.6926500">
        <ele>365.0</ele>
        <time>2019-10-19T14:59:17Z</time>
      </trkpt>
      <trkpt lat="38.3369400" lon="-0.6926740">
        <ele>364.2</ele>
        <time>2019-10-19T14:59:18Z</time>
      </trkpt>
      <trkpt lat="38.3370000" lon="-0.6927040">
        <ele>363.8</ele>
        <time>2019-10-19T14:59:19Z</time>
      </trkpt>
      <trkpt lat="38.3370670" lon="-0.6927400">
        <ele>363.0</ele>
        <time>2019-10-19T14:59:20Z</time>
      </trkpt>
      <trkpt lat="38.3371370" lon="-0.6927880">
        <ele>362.0</ele>
        <time>2019-10-19T14:59:21Z</time>
      </trkpt>
      <trkpt lat="38.3372080" lon="-0.6928440">
        <ele>361.0</ele>
        <time>2019-10-19T14:59:22Z</time>
      </trkpt>
      <trkpt lat="38.3372710" lon="-0.6929040">
        <ele>359.4</ele>
        <time>2019-10-19T14:59:23Z</time>
      </trkpt>
      <trkpt lat="38.3373260" lon="-0.6929690">
        <ele>358.0</ele>
        <time>2019-10-19T14:59:24Z</time>
      </trkpt>
      <trkpt lat="38.3373690" lon="-0.6930390">
        <ele>357.0</ele>
        <time>2019-10-19T14:59:25Z</time>
      </trkpt>
      <trkpt lat="38.3374060" lon="-0.6931150">
        <ele>355.6</ele>
        <time>2019-10-19T14:59:26Z</time>
      </trkpt>
      <trkpt lat="38.3374370" lon="-0.6932000">
        <ele>353.4</ele>
        <time>2019-10-19T14:59:27Z</time>
      </trkpt>
      <trkpt lat="38.3374620" lon="-0.6932870">
        <ele>351.4</ele>
        <time>2019-10-19T14:59:28Z</time>
      </trkpt>
      <trkpt lat="38.3374810" lon="-0.6933740">
        <ele>349.8</ele>
        <time>2019-10-19T14:59:29Z</time>
      </trkpt>
      <trkpt lat="38.3374930" lon="-0.6934580">
        <ele>348.6</ele>
        <time>2019-10-19T14:59:30Z</time>
      </trkpt>
      <trkpt lat="38.3374970" lon="-0.6935370">
        <ele>347.4</ele>
        <time>2019-10-19T14:59:31Z</time>
      </trkpt>
      <trkpt lat="38.3374890" lon="-0.6936210">
        <ele>346.0</ele>
        <time>2019-10-19T14:59:32Z</time>
      </trkpt>
      <trkpt lat="38.3374710" lon="-0.6937100">
        <ele>345.2</ele>
        <time>2019-10-19T14:59:33Z</time>
      </trkpt>
      <trkpt lat="38.3374470" lon="-0.6938090">
        <ele>344.0</ele>
        <time>2019-10-19T14:59:34Z</time>
      </trkpt>
      <trkpt lat="38.3374130" lon="-0.6939130">
        <ele>343.4</ele>
        <time>2019-10-19T14:59:35Z</time>
      </trkpt>
      <trkpt lat="38.3373710" lon="-0.6940230">
        <ele>341.0</ele>
        <time>2019-10-19T14:59:36Z</time>
      </trkpt>
      <trkpt lat="38.3373180" lon="-0.6941370">
        <ele>339.8</ele>
        <time>2019-10-19T14:59:37Z</time>
      </trkpt>
      <trkpt lat="38.3372590" lon="-0.6942550">
        <ele>337.8</ele>
        <time>2019-10-19T14:59:38Z</time>
      </trkpt>
      <trkpt lat="38.3371990" lon="-0.6943730">
        <ele>336.6</ele>
        <time>2019-10-19T14:59:39Z</time>
      </trkpt>
      <trkpt lat="38.3371400" lon="-0.6944790">
        <ele>336.4</ele>
        <time>2019-10-19T14:59:40Z</time>
      </trkpt>
      <trkpt lat="38.3370900" lon="-0.6945710">
        <ele>336.8</ele>
        <time>2019-10-19T14:59:41Z</time>
      </trkpt>
      <trkpt lat="38.3370580" lon="-0.6946590">
        <ele>337.8</ele>
        <time>2019-10-19T14:59:42Z</time>
      </trkpt>
      <trkpt lat="38.3370430" lon="-0.6947440">
        <ele>338.6</ele>
        <time>2019-10-19T14:59:43Z</time>
      </trkpt>
      <trkpt lat="38.3370430" lon="-0.6948280">
        <ele>338.4</ele>
        <time>2019-10-19T14:59:44Z</time>
      </trkpt>
      <trkpt lat="38.3370580" lon="-0.6949110">
        <ele>338.2</ele>
        <time>2019-10-19T14:59:45Z</time>
      </trkpt>
      <trkpt lat="38.3370840" lon="-0.6949920">
        <ele>337.8</ele>
        <time>2019-10-19T14:59:46Z</time>
      </trkpt>
      <trkpt lat="38.3371130" lon="-0.6950750">
        <ele>337.4</ele>
        <time>2019-10-19T14:59:47Z</time>
      </trkpt>
      <trkpt lat="38.3371500" lon="-0.6951620">
        <ele>336.8</ele>
        <time>2019-10-19T14:59:48Z</time>
      </trkpt>
      <trkpt lat="38.3371930" lon="-0.6952520">
        <ele>336.2</ele>
        <time>2019-10-19T14:59:49Z</time>
      </trkpt>
      <trkpt lat="38.3372390" lon="-0.6953480">
        <ele>335.0</ele>
        <time>2019-10-19T14:59:50Z</time>
      </trkpt>
      <trkpt lat="38.3372800" lon="-0.6954520">
        <ele>334.0</ele>
        <time>2019-10-19T14:59:51Z</time>
      </trkpt>
      <trkpt lat="38.3373150" lon="-0.6955670">
        <ele>333.2</ele>
        <time>2019-10-19T14:59:52Z</time>
      </trkpt>
      <trkpt lat="38.3373440" lon="-0.6956850">
        <ele>332.6</ele>
        <time>2019-10-19T14:59:53Z</time>
      </trkpt>
      <trkpt lat="38.3373700" lon="-0.6958060">
        <ele>332.6</ele>
        <time>2019-10-19T14:59:54Z</time>
      </trkpt>
      <trkpt lat="38.3374000" lon="-0.6959260">
        <ele>331.8</ele>
        <time>2019-10-19T14:59:55Z</time>
      </trkpt>
      <trkpt lat="38.3374290" lon="-0.6960460">
        <ele>331.8</ele>
        <time>2019-10-19T14:59:56Z</time>
      </trkpt>
      <trkpt lat="38.3374600" lon="-0.6961660">
        <ele>331.6</ele>
        <time>2019-10-19T14:59:57Z</time>
      </trkpt>
      <trkpt lat="38.3374980" lon="-0.6962820">
        <ele>331.2</ele>
        <time>2019-10-19T14:59:58Z</time>
      </trkpt>
      <trkpt lat="38.3375360" lon="-0.6963970">
        <ele>331.2</ele>
        <time>2019-10-19T14:59:59Z</time>
      </trkpt>
      <trkpt lat="38.3375710" lon="-0.6965120">
        <ele>330.8</ele>
        <time>2019-10-19T15:00:00Z</time>
      </trkpt>
      <trkpt lat="38.3375990" lon="-0.6966280">
        <ele>330.8</ele>
        <time>2019-10-19T15:00:01Z</time>
      </trkpt>
      <trkpt lat="38.3376220" lon="-0.6967450">
        <ele>330.6</ele>
        <time>2019-10-19T15:00:02Z</time>
      </trkpt>
      <trkpt lat="38.3376390" lon="-0.6968650">
        <ele>330.4</ele>
        <time>2019-10-19T15:00:03Z</time>
      </trkpt>
      <trkpt lat="38.3376600" lon="-0.6969820">
        <ele>330.0</ele>
        <time>2019-10-19T15:00:04Z</time>
      </trkpt>
      <trkpt lat="38.3376870" lon="-0.6970960">
        <ele>330.0</ele>
        <time>2019-10-19T15:00:05Z</time>
      </trkpt>
      <trkpt lat="38.3377200" lon="-0.6972080">
        <ele>329.2</ele>
        <time>2019-10-19T15:00:06Z</time>
      </trkpt>
      <trkpt lat="38.3377510" lon="-0.6973180">
        <ele>328.2</ele>
        <time>2019-10-19T15:00:07Z</time>
      </trkpt>
      <trkpt lat="38.3377710" lon="-0.6974320">
        <ele>328.4</ele>
        <time>2019-10-19T15:00:08Z</time>
      </trkpt>
      <trkpt lat="38.3377740" lon="-0.6975510">
        <ele>327.8</ele>
        <time>2019-10-19T15:00:09Z</time>
      </trkpt>
      <trkpt lat="38.3377620" lon="-0.6976700">
        <ele>327.2</ele>
        <time>2019-10-19T15:00:10Z</time>
      </trkpt>
      <trkpt lat="38.3377430" lon="-0.6977890">
        <ele>327.0</ele>
        <time>2019-10-19T15:00:11Z</time>
      </trkpt>
      <trkpt lat="38.3377210" lon="-0.6979070">
        <ele>325.6</ele>
        <time>2019-10-19T15:00:12Z</time>
      </trkpt>
      <trkpt lat="38.3377040" lon="-0.6980240">
        <ele>325.8</ele>
        <time>2019-10-19T15:00:13Z</time>
      </trkpt>
      <trkpt lat="38.3376880" lon="-0.6981400">
        <ele>325.2</ele>
        <time>2019-10-19T15:00:14Z</time>
      </trkpt>
      <trkpt lat="38.3376780" lon="-0.6982550">
        <ele>325.2</ele>
        <time>2019-10-19T15:00:15Z</time>
      </trkpt>
      <trkpt lat="38.3376760" lon="-0.6983710">
        <ele>325.0</ele>
        <time>2019-10-19T15:00:16Z</time>
      </trkpt>
      <trkpt lat="38.3376800" lon="-0.6984880">
        <ele>324.4</ele>
        <time>2019-10-19T15:00:17Z</time>
      </trkpt>
      <trkpt lat="38.3376900" lon="-0.6986050">
        <ele>323.6</ele>
        <time>2019-10-19T15:00:18Z</time>
      </trkpt>
      <trkpt lat="38.3377160" lon="-0.6987110">
        <ele>323.4</ele>
        <time>2019-10-19T15:00:19Z</time>
      </trkpt>
      <trkpt lat="38.3377580" lon="-0.6988010">
        <ele>322.2</ele>
        <time>2019-10-19T15:00:20Z</time>
      </trkpt>
      <trkpt lat="38.3378160" lon="-0.6988700">
        <ele>322.8</ele>
        <time>2019-10-19T15:00:21Z</time>
      </trkpt>
      <trkpt lat="38.3378850" lon="-0.6989150">
        <ele>322.6</ele>
        <time>2019-10-19T15:00:22Z</time>
      </trkpt>
      <trkpt lat="38.3379610" lon="-0.6989410">
        <ele>322.8</ele>
        <time>2019-10-19T15:00:23Z</time>
      </trkpt>
      <trkpt lat="38.3380430" lon="-0.6989580">
        <ele>322.0</ele>
        <time>2019-10-19T15:00:24Z</time>
      </trkpt>
      <trkpt lat="38.3381280" lon="-0.6989820">
        <ele>321.8</ele>
        <time>2019-10-19T15:00:25Z</time>
      </trkpt>
      <trkpt lat="38.3382130" lon="-0.6990180">
        <ele>321.0</ele>
        <time>2019-10-19T15:00:26Z</time>
      </trkpt>
      <trkpt lat="38.3382970" lon="-0.6990620">
        <ele>320.4</ele>
        <time>2019-10-19T15:00:27Z</time>
      </trkpt>
      <trkpt lat="38.3383830" lon="-0.6991050">
        <ele>320.2</ele>
        <time>2019-10-19T15:00:28Z</time>
      </trkpt>
      <trkpt lat="38.3384730" lon="-0.6991390">
        <ele>320.0</ele>
        <time>2019-10-19T15:00:29Z</time>
      </trkpt>
      <trkpt lat="38.3385630" lon="-0.6991680">
        <ele>319.8</ele>
        <time>2019-10-19T15:00:30Z</time>
      </trkpt>
      <trkpt lat="38.3386520" lon="-0.6992040">
        <ele>319.6</ele>
        <time>2019-10-19T15:00:31Z</time>
      </trkpt>
      <trkpt lat="38.3387390" lon="-0.6992460">
        <ele>319.6</ele>
        <time>2019-10-19T15:00:32Z</time>
      </trkpt>
      <trkpt lat="38.3388240" lon="-0.6992920">
        <ele>319.2</ele>
        <time>2019-10-19T15:00:33Z</time>
      </trkpt>
      <trkpt lat="38.3389030" lon="-0.6993510">
        <ele>318.8</ele>
        <time>2019-10-19T15:00:34Z</time>
      </trkpt>
      <trkpt lat="38.3389760" lon="-0.6994180">
        <ele>318.6</ele>
        <time>2019-10-19T15:00:35Z</time>
      </trkpt>
      <trkpt lat="38.3390490" lon="-0.6994880">
        <ele>318.6</ele>
        <time>2019-10-19T15:00:36Z</time>
      </trkpt>
      <trkpt lat="38.3391200" lon="-0.6995600">
        <ele>318.0</ele>
        <time>2019-10-19T15:00:37Z</time>
      </trkpt>
      <trkpt lat="38.3391890" lon="-0.6996350">
        <ele>318.2</ele>
        <time>2019-10-19T15:00:38Z</time>
      </trkpt>
      <trkpt lat="38.3392560" lon="-0.6997120">
        <ele>318.0</ele>
        <time>2019-10-19T15:00:39Z</time>
      </trkpt>
      <trkpt lat="38.3393220" lon="-0.6997920">
        <ele>317.8</ele>
        <time>2019-10-19T15:00:40Z</time>
      </trkpt>
      <trkpt lat="38.3393860" lon="-0.6998780">
        <ele>317.6</ele>
        <time>2019-10-19T15:00:41Z</time>
      </trkpt>
      <trkpt lat="38.3394480" lon="-0.6999680">
        <ele>316.6</ele>
        <time>2019-10-19T15:00:42Z</time>
      </trkpt>
      <trkpt lat="38.3395120" lon="-0.7000580">
        <ele>316.4</ele>
        <time>2019-10-19T15:00:43Z</time>
      </trkpt>
      <trkpt lat="38.3395810" lon="-0.7001440">
        <ele>316.2</ele>
        <time>2019-10-19T15:00:44Z</time>
      </trkpt>
      <trkpt lat="38.3396460" lon="-0.7002310">
        <ele>316.2</ele>
        <time>2019-10-19T15:00:45Z</time>
      </trkpt>
      <trkpt lat="38.3397140" lon="-0.7003120">
        <ele>316.0</ele>
        <time>2019-10-19T15:00:46Z</time>
      </trkpt>
      <trkpt lat="38.3397890" lon="-0.7003880">
        <ele>315.4</ele>
        <time>2019-10-19T15:00:47Z</time>
      </trkpt>
      <trkpt lat="38.3398700" lon="-0.7004590">
        <ele>314.8</ele>
        <time>2019-10-19T15:00:48Z</time>
      </trkpt>
      <trkpt lat="38.3399550" lon="-0.7005290">
        <ele>314.6</ele>
        <time>2019-10-19T15:00:49Z</time>
      </trkpt>
      <trkpt lat="38.3400410" lon="-0.7006010">
        <ele>313.4</ele>
        <time>2019-10-19T15:00:50Z</time>
      </trkpt>
      <trkpt lat="38.3401280" lon="-0.7006700">
        <ele>313.4</ele>
        <time>2019-10-19T15:00:51Z</time>
      </trkpt>
      <trkpt lat="38.3402150" lon="-0.7007340">
        <ele>313.2</ele>
        <time>2019-10-19T15:00:52Z</time>
      </trkpt>
      <trkpt lat="38.3403010" lon="-0.7007950">
        <ele>313.0</ele>
        <time>2019-10-19T15:00:53Z</time>
      </trkpt>
      <trkpt lat="38.3403890" lon="-0.7008530">
        <ele>313.0</ele>
        <time>2019-10-19T15:00:54Z</time>
      </trkpt>
      <trkpt lat="38.3404790" lon="-0.7009090">
        <ele>312.4</ele>
        <time>2019-10-19T15:00:55Z</time>
      </trkpt>
      <trkpt lat="38.3405720" lon="-0.7009600">
        <ele>311.0</ele>
        <time>2019-10-19T15:00:56Z</time>
      </trkpt>
      <trkpt lat="38.3406680" lon="-0.7009970">
        <ele>311.4</ele>
        <time>2019-10-19T15:00:57Z</time>
      </trkpt>
      <trkpt lat="38.3407660" lon="-0.7010310">
        <ele>311.0</ele>
        <time>2019-10-19T15:00:58Z</time>
      </trkpt>
      <trkpt lat="38.3408610" lon="-0.7010630">
        <ele>310.8</ele>
        <time>2019-10-19T15:00:59Z</time>
      </trkpt>
      <trkpt lat="38.3409550" lon="-0.7010860">
        <ele>310.0</ele>
        <time>2019-10-19T15:01:00Z</time>
      </trkpt>
      <trkpt lat="38.3410500" lon="-0.7011010">
        <ele>309.6</ele>
        <time>2019-10-19T15:01:01Z</time>
      </trkpt>
      <trkpt lat="38.3411450" lon="-0.7011220">
        <ele>309.4</ele>
        <time>2019-10-19T15:01:02Z</time>
      </trkpt>
      <trkpt lat="38.3412410" lon="-0.7011530">
        <ele>307.8</ele>
        <time>2019-10-19T15:01:03Z</time>
      </trkpt>
      <trkpt lat="38.3413370" lon="-0.7011970">
        <ele>307.6</ele>
        <time>2019-10-19T15:01:04Z</time>
      </trkpt>
      <trkpt lat="38.3414270" lon="-0.7012590">
        <ele>306.6</ele>
        <time>2019-10-19T15:01:05Z</time>
      </trkpt>
      <trkpt lat="38.3415120" lon="-0.7013340">
        <ele>305.6</ele>
        <time>2019-10-19T15:01:06Z</time>
      </trkpt>
      <trkpt lat="38.3415920" lon="-0.7014150">
        <ele>305.0</ele>
        <time>2019-10-19T15:01:07Z</time>
      </trkpt>
      <trkpt lat="38.3416720" lon="-0.7014900">
        <ele>305.0</ele>
        <time>2019-10-19T15:01:08Z</time>
      </trkpt>
      <trkpt lat="38.3417480" lon="-0.7015570">
        <ele>304.0</ele>
        <time>2019-10-19T15:01:09Z</time>
      </trkpt>
      <trkpt lat="38.3418170" lon="-0.7016080">
        <ele>303.8</ele>
        <time>2019-10-19T15:01:10Z</time>
      </trkpt>
      <trkpt lat="38.3418820" lon="-0.7016440">
        <ele>303.4</ele>
        <time>2019-10-19T15:01:11Z</time>
      </trkpt>
      <trkpt lat="38.3419490" lon="-0.7016640">
        <ele>303.2</ele>
        <time>2019-10-19T15:01:12Z</time>
      </trkpt>
      <trkpt lat="38.3420190" lon="-0.7016690">
        <ele>302.6</ele>
        <time>2019-10-19T15:01:13Z</time>
      </trkpt>
      <trkpt lat="38.3420890" lon="-0.7016610">
        <ele>302.8</ele>
        <time>2019-10-19T15:01:14Z</time>
      </trkpt>
      <trkpt lat="38.3421600" lon="-0.7016440">
        <ele>302.8</ele>
        <time>2019-10-19T15:01:15Z</time>
      </trkpt>
      <trkpt lat="38.3422300" lon="-0.7016180">
        <ele>302.6</ele>
        <time>2019-10-19T15:01:16Z</time>
      </trkpt>
      <trkpt lat="38.3423020" lon="-0.7015930">
        <ele>302.4</ele>
        <time>2019-10-19T15:01:17Z</time>
      </trkpt>
      <trkpt lat="38.3423750" lon="-0.7015660">
        <ele>302.2</ele>
        <time>2019-10-19T15:01:18Z</time>
      </trkpt>
      <trkpt lat="38.3424470" lon="-0.7015370">
        <ele>302.0</ele>
        <time>2019-10-19T15:01:19Z</time>
      </trkpt>
      <trkpt lat="38.3425180" lon="-0.7015080">
        <ele>301.6</ele>
        <time>2019-10-19T15:01:20Z</time>
      </trkpt>
      <trkpt lat="38.3425900" lon="-0.7014840">
        <ele>301.8</ele>
        <time>2019-10-19T15:01:21Z</time>
      </trkpt>
      <trkpt lat="38.3426620" lon="-0.7014570">
        <ele>301.6</ele>
        <time>2019-10-19T15:01:22Z</time>
      </trkpt>
      <trkpt lat="38.3427310" lon="-0.7014150">
        <ele>301.0</ele>
        <time>2019-10-19T15:01:23Z</time>
      </trkpt>
      <trkpt lat="38.3427960" lon="-0.7013700">
        <ele>300.8</ele>
        <time>2019-10-19T15:01:24Z</time>
      </trkpt>
      <trkpt lat="38.3428620" lon="-0.7013280">
        <ele>300.6</ele>
        <time>2019-10-19T15:01:25Z</time>
      </trkpt>
      <trkpt lat="38.3429280" lon="-0.7012860">
        <ele>300.2</ele>
        <time>2019-10-19T15:01:26Z</time>
      </trkpt>
      <trkpt lat="38.3429960" lon="-0.7012380">
        <ele>300.0</ele>
        <time>2019-10-19T15:01:27Z</time>
      </trkpt>
      <trkpt lat="38.3430660" lon="-0.7011910">
        <ele>299.6</ele>
        <time>2019-10-19T15:01:28Z</time>
      </trkpt>
      <trkpt lat="38.3431320" lon="-0.7011470">
        <ele>299.0</ele>
        <time>2019-10-19T15:01:29Z</time>
      </trkpt>
      <trkpt lat="38.3432010" lon="-0.7011020">
        <ele>298.6</ele>
        <time>2019-10-19T15:01:30Z</time>
      </trkpt>
      <trkpt lat="38.3432740" lon="-0.7010610">
        <ele>298.2</ele>
        <time>2019-10-19T15:01:31Z</time>
      </trkpt>
      <trkpt lat="38.3433490" lon="-0.7010200">
        <ele>298.2</ele>
        <time>2019-10-19T15:01:32Z</time>
      </trkpt>
      <trkpt lat="38.3434180" lon="-0.7009840">
        <ele>297.8</ele>
        <time>2019-10-19T15:01:33Z</time>
      </trkpt>
      <trkpt lat="38.3434700" lon="-0.7009570">
        <ele>297.2</ele>
        <time>2019-10-19T15:01:34Z</time>
      </trkpt>
      <trkpt lat="38.3435060" lon="-0.7009360">
        <ele>297.0</ele>
        <time>2019-10-19T15:01:35Z</time>
      </trkpt>
      <trkpt lat="38.3435390" lon="-0.7009180">
        <ele>296.8</ele>
        <time>2019-10-19T15:01:36Z</time>
      </trkpt>
      <trkpt lat="38.3435680" lon="-0.7009000">
        <ele>296.4</ele>
        <time>2019-10-19T15:01:37Z</time>
      </trkpt>
      <trkpt lat="38.3435880" lon="-0.7008790">
        <ele>296.4</ele>
        <time>2019-10-19T15:01:38Z</time>
      </trkpt>
      <trkpt lat="38.3435980" lon="-0.7008530">
        <ele>296.0</ele>
        <time>2019-10-19T15:01:39Z</time>
      </trkpt>
      <trkpt lat="38.3436010" lon="-0.7008200">
        <ele>296.2</ele>
        <time>2019-10-19T15:01:40Z</time>
      </trkpt>
      <trkpt lat="38.3435920" lon="-0.7007790">
        <ele>296.0</ele>
        <time>2019-10-19T15:01:41Z</time>
      </trkpt>
      <trkpt lat="38.3435760" lon="-0.7007400">
        <ele>296.0</ele>
        <time>2019-10-19T15:01:42Z</time>
      </trkpt>
      <trkpt lat="38.3435540" lon="-0.7006990">
        <ele>295.8</ele>
        <time>2019-10-19T15:01:43Z</time>
      </trkpt>
      <trkpt lat="38.3435260" lon="-0.7006600">
        <ele>296.0</ele>
        <time>2019-10-19T15:01:44Z</time>
      </trkpt>
      <trkpt lat="38.3434950" lon="-0.7006220">
        <ele>296.0</ele>
        <time>2019-10-19T15:01:45Z</time>
      </trkpt>
      <trkpt lat="38.3434600" lon="-0.7005870">
        <ele>296.2</ele>
        <time>2019-10-19T15:01:46Z</time>
      </trkpt>
      <trkpt lat="38.3434270" lon="-0.7005500">
        <ele>296.0</ele>
        <time>2019-10-19T15:01:47Z</time>
      </trkpt>
      <trkpt lat="38.3433920" lon="-0.7005120">
        <ele>296.2</ele>
        <time>2019-10-19T15:01:48Z</time>
      </trkpt>
      <trkpt lat="38.3433590" lon="-0.7004750">
        <ele>296.0</ele>
        <time>2019-10-19T15:01:49Z</time>
      </trkpt>
      <trkpt lat="38.3433240" lon="-0.7004390">
        <ele>296.0</ele>
        <time>2019-10-19T15:01:50Z</time>
      </trkpt>
      <trkpt lat="38.3432890" lon="-0.7004020">
        <ele>296.4</ele>
        <time>2019-10-19T15:01:51Z</time>
      </trkpt>
      <trkpt lat="38.3432540" lon="-0.7003660">
        <ele>296.6</ele>
        <time>2019-10-19T15:01:52Z</time>
      </trkpt>
      <trkpt lat="38.3432180" lon="-0.7003320">
        <ele>296.4</ele>
        <time>2019-10-19T15:01:53Z</time>
      </trkpt>
      <trkpt lat="38.3431820" lon="-0.7003000">
        <ele>296.6</ele>
        <time>2019-10-19T15:01:54Z</time>
      </trkpt>
      <trkpt lat="38.3431460" lon="-0.7002670">
        <ele>296.8</ele>
        <time>2019-10-19T15:01:55Z</time>
      </trkpt>
      <trkpt lat="38.3431120" lon="-0.7002320">
        <ele>297.2</ele>
        <time>2019-10-19T15:01:56Z</time>
      </trkpt>
      <trkpt lat="38.3430770" lon="-0.7001980">
        <ele>297.2</ele>
        <time>2019-10-19T15:01:57Z</time>
      </trkpt>
      <trkpt lat="38.3430430" lon="-0.7001620">
        <ele>297.4</ele>
        <time>2019-10-19T15:01:58Z</time>
      </trkpt>
      <trkpt lat="38.3430090" lon="-0.7001250">
        <ele>297.8</ele>
        <time>2019-10-19T15:01:59Z</time>
      </trkpt>
      <trkpt lat="38.3429750" lon="-0.7000890">
        <ele>297.8</ele>
        <time>2019-10-19T15:02:00Z</time>
      </trkpt>
      <trkpt lat="38.3429410" lon="-0.7000530">
        <ele>298.0</ele>
        <time>2019-10-19T15:02:01Z</time>
      </trkpt>
      <trkpt lat="38.3429060" lon="-0.7000180">
        <ele>298.0</ele>
        <time>2019-10-19T15:02:02Z</time>
      </trkpt>
      <trkpt lat="38.3428700" lon="-0.6999820">
        <ele>298.0</ele>
        <time>2019-10-19T15:02:03Z</time>
      </trkpt>
      <trkpt lat="38.3428360" lon="-0.6999460">
        <ele>298.0</ele>
        <time>2019-10-19T15:02:04Z</time>
      </trkpt>
      <trkpt lat="38.3428020" lon="-0.6999120">
        <ele>298.4</ele>
        <time>2019-10-19T15:02:05Z</time>
      </trkpt>
      <trkpt lat="38.3427680" lon="-0.6998750">
        <ele>298.6</ele>
        <time>2019-10-19T15:02:06Z</time>
      </trkpt>
      <trkpt lat="38.3427330" lon="-0.6998410">
        <ele>298.6</ele>
        <time>2019-10-19T15:02:07Z</time>
      </trkpt>
      <trkpt lat="38.3427000" lon="-0.6998050">
        <ele>299.0</ele>
        <time>2019-10-19T15:02:08Z</time>
      </trkpt>
      <trkpt lat="38.3426650" lon="-0.6997690">
        <ele>299.0</ele>
        <time>2019-10-19T15:02:09Z</time>
      </trkpt>
      <trkpt lat="38.3426300" lon="-0.6997310">
        <ele>299.0</ele>
        <time>2019-10-19T15:02:10Z</time>
      </trkpt>
      <trkpt lat="38.3425970" lon="-0.6996910">
        <ele>299.2</ele>
        <time>2019-10-19T15:02:11Z</time>
      </trkpt>
      <trkpt lat="38.3425660" lon="-0.6996510">
        <ele>299.4</ele>
        <time>2019-10-19T15:02:12Z</time>
      </trkpt>
      <trkpt lat="38.3425310" lon="-0.6996190">
        <ele>299.8</ele>
        <time>2019-10-19T15:02:13Z</time>
      </trkpt>
      <trkpt lat="38.3424930" lon="-0.6995910">
        <ele>300.2</ele>
        <time>2019-10-19T15:02:14Z</time>
      </trkpt>
      <trkpt lat="38.3424550" lon="-0.6995650">
        <ele>300.2</ele>
        <time>2019-10-19T15:02:15Z</time>
      </trkpt>
      <trkpt lat="38.3424180" lon="-0.6995320">
        <ele>300.2</ele>
        <time>2019-10-19T15:02:16Z</time>
      </trkpt>
      <trkpt lat="38.3423800" lon="-0.6995000">
        <ele>300.4</ele>
        <time>2019-10-19T15:02:17Z</time>
      </trkpt>
      <trkpt lat="38.3423430" lon="-0.6994690">
        <ele>300.4</ele>
        <time>2019-10-19T15:02:18Z</time>
      </trkpt>
      <trkpt lat="38.3423050" lon="-0.6994380">
        <ele>300.6</ele>
        <time>2019-10-19T15:02:19Z</time>
      </trkpt>
      <trkpt lat="38.3422670" lon="-0.6994070">
        <ele>300.6</ele>
        <time>2019-10-19T15:02:20Z</time>
      </trkpt>
      <trkpt lat="38.3422310" lon="-0.6993790">
        <ele>300.8</ele>
        <time>2019-10-19T15:02:21Z</time>
      </trkpt>
      <trkpt lat="38.3421950" lon="-0.6993520">
        <ele>301.0</ele>
        <time>2019-10-19T15:02:22Z</time>
      </trkpt>
      <trkpt lat="38.3421600" lon="-0.6993220">
        <ele>301.4</ele>
        <time>2019-10-19T15:02:23Z</time>
      </trkpt>
      <trkpt lat="38.3421250" lon="-0.6992910">
        <ele>301.6</ele>
        <time>2019-10-19T15:02:24Z</time>
      </trkpt>
      <trkpt lat="38.3420920" lon="-0.6992600">
        <ele>301.8</ele>
        <time>2019-10-19T15:02:25Z</time>
      </trkpt>
      <trkpt lat="38.3420610" lon="-0.6992270">
        <ele>302.0</ele>
        <time>2019-10-19T15:02:26Z</time>
      </trkpt>
      <trkpt lat="38.3420310" lon="-0.6991930">
        <ele>302.2</ele>
        <time>2019-10-19T15:02:27Z</time>
      </trkpt>
      <trkpt lat="38.3420010" lon="-0.6991560">
        <ele>302.2</ele>
        <time>2019-10-19T15:02:28Z</time>
      </trkpt>
      <trkpt lat="38.3419720" lon="-0.6991200">
        <ele>302.6</ele>
        <time>2019-10-19T15:02:29Z</time>
      </trkpt>
      <trkpt lat="38.3419450" lon="-0.6990820">
        <ele>302.6</ele>
        <time>2019-10-19T15:02:30Z</time>
      </trkpt>
      <trkpt lat="38.3419180" lon="-0.6990440">
        <ele>302.8</ele>
        <time>2019-10-19T15:02:31Z</time>
      </trkpt>
      <trkpt lat="38.3418910" lon="-0.6990070">
        <ele>303.0</ele>
        <time>2019-10-19T15:02:32Z</time>
      </trkpt>
      <trkpt lat="38.3418610" lon="-0.6989700">
        <ele>303.2</ele>
        <time>2019-10-19T15:02:33Z</time>
      </trkpt>
      <trkpt lat="38.3418290" lon="-0.6989330">
        <ele>303.2</ele>
        <time>2019-10-19T15:02:34Z</time>
      </trkpt>
      <trkpt lat="38.3417990" lon="-0.6988970">
        <ele>303.4</ele>
        <time>2019-10-19T15:02:35Z</time>
      </trkpt>
      <trkpt lat="38.3417680" lon="-0.6988620">
        <ele>303.6</ele>
        <time>2019-10-19T15:02:36Z</time>
      </trkpt>
      <trkpt lat="38.3417370" lon="-0.6988270">
        <ele>303.8</ele>
        <time>2019-10-19T15:02:37Z</time>
      </trkpt>
      <trkpt lat="38.3417070" lon="-0.6987920">
        <ele>303.8</ele>
        <time>2019-10-19T15:02:38Z</time>
      </trkpt>
      <trkpt lat="38.3416770" lon="-0.6987590">
        <ele>304.0</ele>
        <time>2019-10-19T15:02:39Z</time>
      </trkpt>
      <trkpt lat="38.3416490" lon="-0.6987230">
        <ele>304.2</ele>
        <time>2019-10-19T15:02:40Z</time>
      </trkpt>
      <trkpt lat="38.3416240" lon="-0.6986860">
        <ele>304.4</ele>
        <time>2019-10-19T15:02:41Z</time>
      </trkpt>
      <trkpt lat="38.3415990" lon="-0.6986470">
        <ele>304.4</ele>
        <time>2019-10-19T15:02:42Z</time>
      </trkpt>
      <trkpt lat="38.3415720" lon="-0.6986090">
        <ele>304.8</ele>
        <time>2019-10-19T15:02:43Z</time>
      </trkpt>
      <trkpt lat="38.3415460" lon="-0.6985720">
        <ele>305.0</ele>
        <time>2019-10-19T15:02:44Z</time>
      </trkpt>
      <trkpt lat="38.3415200" lon="-0.6985340">
        <ele>305.0</ele>
        <time>2019-10-19T15:02:45Z</time>
      </trkpt>
      <trkpt lat="38.3414920" lon="-0.6984970">
        <ele>305.0</ele>
        <time>2019-10-19T15:02:46Z</time>
      </trkpt>
      <trkpt lat="38.3414650" lon="-0.6984640">
        <ele>305.0</ele>
        <time>2019-10-19T15:02:47Z</time>
      </trkpt>
      <trkpt lat="38.3414370" lon="-0.6984290">
        <ele>305.4</ele>
        <time>2019-10-19T15:02:48Z</time>
      </trkpt>
      <trkpt lat="38.3414080" lon="-0.6983930">
        <ele>305.4</ele>
        <time>2019-10-19T15:02:49Z</time>
      </trkpt>
      <trkpt lat="38.3413820" lon="-0.6983570">
        <ele>305.6</ele>
        <time>2019-10-19T15:02:50Z</time>
      </trkpt>
      <trkpt lat="38.3413590" lon="-0.6983210">
        <ele>306.0</ele>
        <time>2019-10-19T15:02:51Z</time>
      </trkpt>
      <trkpt lat="38.3413330" lon="-0.6982890">
        <ele>306.0</ele>
        <time>2019-10-19T15:02:52Z</time>
      </trkpt>
      <trkpt lat="38.3413060" lon="-0.6982580">
        <ele>306.2</ele>
        <time>2019-10-19T15:02:53Z</time>
      </trkpt>
      <trkpt lat="38.3412790" lon="-0.6982250">
        <ele>306.6</ele>
        <time>2019-10-19T15:02:54Z</time>
      </trkpt>
      <trkpt lat="38.3412540" lon="-0.6981930">
        <ele>306.8</ele>
        <time>2019-10-19T15:02:55Z</time>
      </trkpt>
      <trkpt lat="38.3412280" lon="-0.6981600">
        <ele>307.0</ele>
        <time>2019-10-19T15:02:56Z</time>
      </trkpt>
      <trkpt lat="38.3412040" lon="-0.6981270">
        <ele>307.2</ele>
        <time>2019-10-19T15:02:57Z</time>
      </trkpt>
      <trkpt lat="38.3411770" lon="-0.6980960">
        <ele>307.4</ele>
        <time>2019-10-19T15:02:58Z</time>
      </trkpt>
      <trkpt lat="38.3411510" lon="-0.6980630">
        <ele>307.4</ele>
        <time>2019-10-19T15:02:59Z</time>
      </trkpt>
      <trkpt lat="38.3411230" lon="-0.6980310">
        <ele>307.6</ele>
        <time>2019-10-19T15:03:00Z</time>
      </trkpt>
      <trkpt lat="38.3410940" lon="-0.6979970">
        <ele>307.8</ele>
        <time>2019-10-19T15:03:01Z</time>
      </trkpt>
      <trkpt lat="38.3410650" lon="-0.6979630">
        <ele>307.8</ele>
        <time>2019-10-19T15:03:02Z</time>
      </trkpt>
      <trkpt lat="38.3410360" lon="-0.6979290">
        <ele>307.8</ele>
        <time>2019-10-19T15:03:03Z</time>
      </trkpt>
      <trkpt lat="38.3410090" lon="-0.6978970">
        <ele>308.2</ele>
        <time>2019-10-19T15:03:04Z</time>
      </trkpt>
      <trkpt lat="38.3409820" lon="-0.6978640">
        <ele>308.4</ele>
        <time>2019-10-19T15:03:05Z</time>
      </trkpt>
      <trkpt lat="38.3409540" lon="-0.6978310">
        <ele>308.4</ele>
        <time>2019-10-19T15:03:06Z</time>
      </trkpt>
      <trkpt lat="38.3409260" lon="-0.6977970">
        <ele>308.6</ele>
        <time>2019-10-19T15:03:07Z</time>
      </trkpt>
      <trkpt lat="38.3408970" lon="-0.6977620">
        <ele>308.8</ele>
        <time>2019-10-19T15:03:08Z</time>
      </trkpt>
      <trkpt lat="38.3408710" lon="-0.6977280">
        <ele>308.8</ele>
        <time>2019-10-19T15:03:09Z</time>
      </trkpt>
      <trkpt lat="38.3408450" lon="-0.6976930">
        <ele>309.0</ele>
        <time>2019-10-19T15:03:10Z</time>
      </trkpt>
      <trkpt lat="38.3408160" lon="-0.6976610">
        <ele>309.2</ele>
        <time>2019-10-19T15:03:11Z</time>
      </trkpt>
      <trkpt lat="38.3407860" lon="-0.6976320">
        <ele>309.4</ele>
        <time>2019-10-19T15:03:12Z</time>
      </trkpt>
      <trkpt lat="38.3407560" lon="-0.6976010">
        <ele>309.6</ele>
        <time>2019-10-19T15:03:13Z</time>
      </trkpt>
      <trkpt lat="38.3407280" lon="-0.6975680">
        <ele>309.6</ele>
        <time>2019-10-19T15:03:14Z</time>
      </trkpt>
      <trkpt lat="38.3407010" lon="-0.6975360">
        <ele>310.2</ele>
        <time>2019-10-19T15:03:15Z</time>
      </trkpt>
      <trkpt lat="38.3406730" lon="-0.6975090">
        <ele>310.2</ele>
        <time>2019-10-19T15:03:16Z</time>
      </trkpt>
      <trkpt lat="38.3406450" lon="-0.6974840">
        <ele>310.4</ele>
        <time>2019-10-19T15:03:17Z</time>
      </trkpt>
      <trkpt lat="38.3406160" lon="-0.6974550">
        <ele>310.8</ele>
        <time>2019-10-19T15:03:18Z</time>
      </trkpt>
      <trkpt lat="38.3405880" lon="-0.6974240">
        <ele>311.0</ele>
        <time>2019-10-19T15:03:19Z</time>
      </trkpt>
      <trkpt lat="38.3405600" lon="-0.6973950">
        <ele>311.2</ele>
        <time>2019-10-19T15:03:20Z</time>
      </trkpt>
      <trkpt lat="38.3405330" lon="-0.6973660">
        <ele>311.4</ele>
        <time>2019-10-19T15:03:21Z</time>
      </trkpt>
      <trkpt lat="38.3405070" lon="-0.6973370">
        <ele>311.6</ele>
        <time>2019-10-19T15:03:22Z</time>
      </trkpt>
      <trkpt lat="38.3404800" lon="-0.6973080">
        <ele>312.0</ele>
        <time>2019-10-19T15:03:23Z</time>
      </trkpt>
      <trkpt lat="38.3404530" lon="-0.6972780">
        <ele>312.0</ele>
        <time>2019-10-19T15:03:24Z</time>
      </trkpt>
      <trkpt lat="38.3404280" lon="-0.6972470">
        <ele>312.4</ele>
        <time>2019-10-19T15:03:25Z</time>
      </trkpt>
      <trkpt lat="38.3404020" lon="-0.6972150">
        <ele>312.4</ele>
        <time>2019-10-19T15:03:26Z</time>
      </trkpt>
      <trkpt lat="38.3403750" lon="-0.6971810">
        <ele>312.4</ele>
        <time>2019-10-19T15:03:27Z</time>
      </trkpt>
      <trkpt lat="38.3403470" lon="-0.6971460">
        <ele>312.6</ele>
        <time>2019-10-19T15:03:28Z</time>
      </trkpt>
      <trkpt lat="38.3403210" lon="-0.6971120">
        <ele>312.6</ele>
        <time>2019-10-19T15:03:29Z</time>
      </trkpt>
      <trkpt lat="38.3402950" lon="-0.6970760">
        <ele>312.8</ele>
        <time>2019-10-19T15:03:30Z</time>
      </trkpt>
      <trkpt lat="38.3402710" lon="-0.6970410">
        <ele>313.2</ele>
        <time>2019-10-19T15:03:31Z</time>
      </trkpt>
      <trkpt lat="38.3402480" lon="-0.6970070">
        <ele>313.2</ele>
        <time>2019-10-19T15:03:32Z</time>
      </trkpt>
      <trkpt lat="38.3402250" lon="-0.6969740">
        <ele>313.4</ele>
        <time>2019-10-19T15:03:33Z</time>
      </trkpt>
      <trkpt lat="38.3402000" lon="-0.6969400">
        <ele>313.6</ele>
        <time>2019-10-19T15:03:34Z</time>
      </trkpt>
      <trkpt lat="38.3401790" lon="-0.6969030">
        <ele>313.8</ele>
        <time>2019-10-19T15:03:35Z</time>
      </trkpt>
      <trkpt lat="38.3401590" lon="-0.6968670">
        <ele>314.0</ele>
        <time>2019-10-19T15:03:36Z</time>
      </trkpt>
      <trkpt lat="38.3401370" lon="-0.6968350">
        <ele>314.4</ele>
        <time>2019-10-19T15:03:37Z</time>
      </trkpt>
      <trkpt lat="38.3401160" lon="-0.6968070">
        <ele>314.4</ele>
        <time>2019-10-19T15:03:38Z</time>
      </trkpt>
      <trkpt lat="38.3400950" lon="-0.6967790">
        <ele>314.8</ele>
        <time>2019-10-19T15:03:39Z</time>
      </trkpt>
      <trkpt lat="38.3400750" lon="-0.6967520">
        <ele>315.0</ele>
        <time>2019-10-19T15:03:40Z</time>
      </trkpt>
      <trkpt lat="38.3400560" lon="-0.6967240">
        <ele>315.4</ele>
        <time>2019-10-19T15:03:41Z</time>
      </trkpt>
      <trkpt lat="38.3400350" lon="-0.6966940">
        <ele>315.4</ele>
        <time>2019-10-19T15:03:42Z</time>
      </trkpt>
      <trkpt lat="38.3400130" lon="-0.6966650">
        <ele>315.6</ele>
        <time>2019-10-19T15:03:43Z</time>
      </trkpt>
      <trkpt lat="38.3399890" lon="-0.6966370">
        <ele>315.6</ele>
        <time>2019-10-19T15:03:44Z</time>
      </trkpt>
      <trkpt lat="38.3399640" lon="-0.6966090">
        <ele>315.6</ele>
        <time>2019-10-19T15:03:45Z</time>
      </trkpt>
      <trkpt lat="38.3399390" lon="-0.6965820">
        <ele>315.6</ele>
        <time>2019-10-19T15:03:46Z</time>
      </trkpt>
      <trkpt lat="38.3399110" lon="-0.6965600">
        <ele>315.8</ele>
        <time>2019-10-19T15:03:47Z</time>
      </trkpt>
      <trkpt lat="38.3398810" lon="-0.6965390">
        <ele>315.8</ele>
        <time>2019-10-19T15:03:48Z</time>
      </trkpt>
      <trkpt lat="38.3398520" lon="-0.6965160">
        <ele>316.0</ele>
        <time>2019-10-19T15:03:49Z</time>
      </trkpt>
      <trkpt lat="38.3398250" lon="-0.6964890">
        <ele>316.2</ele>
        <time>2019-10-19T15:03:50Z</time>
      </trkpt>
      <trkpt lat="38.3397960" lon="-0.6964600">
        <ele>316.2</ele>
        <time>2019-10-19T15:03:51Z</time>
      </trkpt>
      <trkpt lat="38.3397670" lon="-0.6964340">
        <ele>316.6</ele>
        <time>2019-10-19T15:03:52Z</time>
      </trkpt>
      <trkpt lat="38.3397400" lon="-0.6964110">
        <ele>316.6</ele>
        <time>2019-10-19T15:03:53Z</time>
      </trkpt>
      <trkpt lat="38.3397120" lon="-0.6963850">
        <ele>317.0</ele>
        <time>2019-10-19T15:03:54Z</time>
      </trkpt>
      <trkpt lat="38.3396850" lon="-0.6963590">
        <ele>317.2</ele>
        <time>2019-10-19T15:03:55Z</time>
      </trkpt>
      <trkpt lat="38.3396590" lon="-0.6963340">
        <ele>317.2</ele>
        <time>2019-10-19T15:03:56Z</time>
      </trkpt>
      <trkpt lat="38.3396320" lon="-0.6963110">
        <ele>317.2</ele>
        <time>2019-10-19T15:03:57Z</time>
      </trkpt>
      <trkpt lat="38.3396040" lon="-0.6962880">
        <ele>317.4</ele>
        <time>2019-10-19T15:03:58Z</time>
      </trkpt>
      <trkpt lat="38.3395770" lon="-0.6962640">
        <ele>317.8</ele>
        <time>2019-10-19T15:03:59Z</time>
      </trkpt>
      <trkpt lat="38.3395520" lon="-0.6962370">
        <ele>318.0</ele>
        <time>2019-10-19T15:04:00Z</time>
      </trkpt>
      <trkpt lat="38.3395280" lon="-0.6962120">
        <ele>318.0</ele>
        <time>2019-10-19T15:04:01Z</time>
      </trkpt>
      <trkpt lat="38.3395030" lon="-0.6961890">
        <ele>318.0</ele>
        <time>2019-10-19T15:04:02Z</time>
      </trkpt>
      <trkpt lat="38.3394790" lon="-0.6961630">
        <ele>318.4</ele>
        <time>2019-10-19T15:04:03Z</time>
      </trkpt>
      <trkpt lat="38.3394550" lon="-0.6961380">
        <ele>318.8</ele>
        <time>2019-10-19T15:04:04Z</time>
      </trkpt>
      <trkpt lat="38.3394300" lon="-0.6961150">
        <ele>319.0</ele>
        <time>2019-10-19T15:04:05Z</time>
      </trkpt>
      <trkpt lat="38.3394070" lon="-0.6960910">
        <ele>319.0</ele>
        <time>2019-10-19T15:04:06Z</time>
      </trkpt>
      <trkpt lat="38.3393820" lon="-0.6960670">
        <ele>319.2</ele>
        <time>2019-10-19T15:04:07Z</time>
      </trkpt>
      <trkpt lat="38.3393570" lon="-0.6960450">
        <ele>319.2</ele>
        <time>2019-10-19T15:04:08Z</time>
      </trkpt>
      <trkpt lat="38.3393320" lon="-0.6960220">
        <ele>319.8</ele>
        <time>2019-10-19T15:04:09Z</time>
      </trkpt>
      <trkpt lat="38.3393080" lon="-0.6960000">
        <ele>319.8</ele>
        <time>2019-10-19T15:04:10Z</time>
      </trkpt>
      <trkpt lat="38.3392850" lon="-0.6959760">
        <ele>320.2</ele>
        <time>2019-10-19T15:04:11Z</time>
      </trkpt>
      <trkpt lat="38.3392600" lon="-0.6959520">
        <ele>320.4</ele>
        <time>2019-10-19T15:04:12Z</time>
      </trkpt>
      <trkpt lat="38.3392350" lon="-0.6959280">
        <ele>320.8</ele>
        <time>2019-10-19T15:04:13Z</time>
      </trkpt>
      <trkpt lat="38.3392090" lon="-0.6959040">
        <ele>320.8</ele>
        <time>2019-10-19T15:04:14Z</time>
      </trkpt>
      <trkpt lat="38.3391810" lon="-0.6958800">
        <ele>321.4</ele>
        <time>2019-10-19T15:04:15Z</time>
      </trkpt>
      <trkpt lat="38.3391560" lon="-0.6958550">
        <ele>321.6</ele>
        <time>2019-10-19T15:04:16Z</time>
      </trkpt>
      <trkpt lat="38.3391290" lon="-0.6958300">
        <ele>321.6</ele>
        <time>2019-10-19T15:04:17Z</time>
      </trkpt>
      <trkpt lat="38.3391030" lon="-0.6958050">
        <ele>322.2</ele>
        <time>2019-10-19T15:04:18Z</time>
      </trkpt>
      <trkpt lat="38.3390780" lon="-0.6957790">
        <ele>322.0</ele>
        <time>2019-10-19T15:04:19Z</time>
      </trkpt>
      <trkpt lat="38.3390520" lon="-0.6957530">
        <ele>322.0</ele>
        <time>2019-10-19T15:04:20Z</time>
      </trkpt>
      <trkpt lat="38.3390250" lon="-0.6957270">
        <ele>322.2</ele>
        <time>2019-10-19T15:04:21Z</time>
      </trkpt>
      <trkpt lat="38.3389990" lon="-0.6957030">
        <ele>322.6</ele>
        <time>2019-10-19T15:04:22Z</time>
      </trkpt>
      <trkpt lat="38.3389730" lon="-0.6956790">
        <ele>322.8</ele>
        <time>2019-10-19T15:04:23Z</time>
      </trkpt>
      <trkpt lat="38.3389510" lon="-0.6956570">
        <ele>323.2</ele>
        <time>2019-10-19T15:04:24Z</time>
      </trkpt>
      <trkpt lat="38.3389290" lon="-0.6956370">
        <ele>323.6</ele>
        <time>2019-10-19T15:04:25Z</time>
      </trkpt>
      <trkpt lat="38.3389130" lon="-0.6956250">
        <ele>324.0</ele>
        <time>2019-10-19T15:04:26Z</time>
      </trkpt>
      <trkpt lat="38.3388940" lon="-0.6956110">
        <ele>324.4</ele>
        <time>2019-10-19T15:04:27Z</time>
      </trkpt>
      <trkpt lat="38.3388730" lon="-0.6955940">
        <ele>324.4</ele>
        <time>2019-10-19T15:04:28Z</time>
      </trkpt>
      <trkpt lat="38.3388530" lon="-0.6955750">
        <ele>324.6</ele>
        <time>2019-10-19T15:04:29Z</time>
      </trkpt>
      <trkpt lat="38.3388350" lon="-0.6955550">
        <ele>325.0</ele>
        <time>2019-10-19T15:04:30Z</time>
      </trkpt>
      <trkpt lat="38.3388120" lon="-0.6955350">
        <ele>325.0</ele>
        <time>2019-10-19T15:04:31Z</time>
      </trkpt>
      <trkpt lat="38.3387870" lon="-0.6955140">
        <ele>325.0</ele>
        <time>2019-10-19T15:04:32Z</time>
      </trkpt>
      <trkpt lat="38.3387640" lon="-0.6954950">
        <ele>325.2</ele>
        <time>2019-10-19T15:04:33Z</time>
      </trkpt>
      <trkpt lat="38.3387380" lon="-0.6954750">
        <ele>325.2</ele>
        <time>2019-10-19T15:04:34Z</time>
      </trkpt>
      <trkpt lat="38.3387110" lon="-0.6954540">
        <ele>325.4</ele>
        <time>2019-10-19T15:04:35Z</time>
      </trkpt>
      <trkpt lat="38.3386820" lon="-0.6954360">
        <ele>325.2</ele>
        <time>2019-10-19T15:04:36Z</time>
      </trkpt>
      <trkpt lat="38.3386500" lon="-0.6954160">
        <ele>325.4</ele>
        <time>2019-10-19T15:04:37Z</time>
      </trkpt>
      <trkpt lat="38.3386160" lon="-0.6954000">
        <ele>325.6</ele>
        <time>2019-10-19T15:04:38Z</time>
      </trkpt>
      <trkpt lat="38.3385820" lon="-0.6953950">
        <ele>325.8</ele>
        <time>2019-10-19T15:04:39Z</time>
      </trkpt>
      <trkpt lat="38.3385510" lon="-0.6953990">
        <ele>326.0</ele>
        <time>2019-10-19T15:04:40Z</time>
      </trkpt>
      <trkpt lat="38.3385240" lon="-0.6954140">
        <ele>326.4</ele>
        <time>2019-10-19T15:04:41Z</time>
      </trkpt>
      <trkpt lat="38.3385000" lon="-0.6954360">
        <ele>326.4</ele>
        <time>2019-10-19T15:04:42Z</time>
      </trkpt>
      <trkpt lat="38.3384770" lon="-0.6954620">
        <ele>326.4</ele>
        <time>2019-10-19T15:04:43Z</time>
      </trkpt>
      <trkpt lat="38.3384550" lon="-0.6954920">
        <ele>326.6</ele>
        <time>2019-10-19T15:04:44Z</time>
      </trkpt>
      <trkpt lat="38.3384350" lon="-0.6955260">
        <ele>326.6</ele>
        <time>2019-10-19T15:04:45Z</time>
      </trkpt>
      <trkpt lat="38.3384130" lon="-0.6955620">
        <ele>326.8</ele>
        <time>2019-10-19T15:04:46Z</time>
      </trkpt>
      <trkpt lat="38.3383910" lon="-0.6956010">
        <ele>326.8</ele>
        <time>2019-10-19T15:04:47Z</time>
      </trkpt>
      <trkpt lat="38.3383670" lon="-0.6956410">
        <ele>326.8</ele>
        <time>2019-10-19T15:04:48Z</time>
      </trkpt>
      <trkpt lat="38.3383410" lon="-0.6956830">
        <ele>326.8</ele>
        <time>2019-10-19T15:04:49Z</time>
      </trkpt>
      <trkpt lat="38.3383150" lon="-0.6957260">
        <ele>326.8</ele>
        <time>2019-10-19T15:04:50Z</time>
      </trkpt>
      <trkpt lat="38.3382880" lon="-0.6957700">
        <ele>326.8</ele>
        <time>2019-10-19T15:04:51Z</time>
      </trkpt>
      <trkpt lat="38.3382600" lon="-0.6958150">
        <ele>327.0</ele>
        <time>2019-10-19T15:04:52Z</time>
      </trkpt>
      <trkpt lat="38.3382340" lon="-0.6958610">
        <ele>327.0</ele>
        <time>2019-10-19T15:04:53Z</time>
      </trkpt>
      <trkpt lat="38.3382080" lon="-0.6959020">
        <ele>327.0</ele>
        <time>2019-10-19T15:04:54Z</time>
      </trkpt>
      <trkpt lat="38.3381790" lon="-0.6959360">
        <ele>327.4</ele>
        <time>2019-10-19T15:04:55Z</time>
      </trkpt>
      <trkpt lat="38.3381470" lon="-0.6959570">
        <ele>327.6</ele>
        <time>2019-10-19T15:04:56Z</time>
      </trkpt>
      <trkpt lat="38.3381150" lon="-0.6959680">
        <ele>327.6</ele>
        <time>2019-10-19T15:04:57Z</time>
      </trkpt>
      <trkpt lat="38.3380880" lon="-0.6959700">
        <ele>328.0</ele>
        <time>2019-10-19T15:04:58Z</time>
      </trkpt>
      <trkpt lat="38.3380610" lon="-0.6959660">
        <ele>328.4</ele>
        <time>2019-10-19T15:04:59Z</time>
      </trkpt>
      <trkpt lat="38.3380380" lon="-0.6959570">
        <ele>328.8</ele>
        <time>2019-10-19T15:05:00Z</time>
      </trkpt>
      <trkpt lat="38.3380180" lon="-0.6959420">
        <ele>329.0</ele>
        <time>2019-10-19T15:05:01Z</time>
      </trkpt>
      <trkpt lat="38.3379990" lon="-0.6959170">
        <ele>329.4</ele>
        <time>2019-10-19T15:05:02Z</time>
      </trkpt>
      <trkpt lat="38.3379810" lon="-0.6958880">
        <ele>329.6</ele>
        <time>2019-10-19T15:05:03Z</time>
      </trkpt>
      <trkpt lat="38.3379610" lon="-0.6958620">
        <ele>330.0</ele>
        <time>2019-10-19T15:05:04Z</time>
      </trkpt>
      <trkpt lat="38.3379410" lon="-0.6958350">
        <ele>330.0</ele>
        <time>2019-10-19T15:05:05Z</time>
      </trkpt>
      <trkpt lat="38.3379230" lon="-0.6958050">
        <ele>330.2</ele>
        <time>2019-10-19T15:05:06Z</time>
      </trkpt>
      <trkpt lat="38.3379050" lon="-0.6957730">
        <ele>330.2</ele>
        <time>2019-10-19T15:05:07Z</time>
      </trkpt>
      <trkpt lat="38.3378870" lon="-0.6957380">
        <ele>330.4</ele>
        <time>2019-10-19T15:05:08Z</time>
      </trkpt>
      <trkpt lat="38.3378700" lon="-0.6957060">
        <ele>330.2</ele>
        <time>2019-10-19T15:05:09Z</time>
      </trkpt>
      <trkpt lat="38.3378510" lon="-0.6956740">
        <ele>330.6</ele>
        <time>2019-10-19T15:05:10Z</time>
      </trkpt>
      <trkpt lat="38.3378350" lon="-0.6956440">
        <ele>330.6</ele>
        <time>2019-10-19T15:05:11Z</time>
      </trkpt>
      <trkpt lat="38.3378170" lon="-0.6956170">
        <ele>330.6</ele>
        <time>2019-10-19T15:05:12Z</time>
      </trkpt>
      <trkpt lat="38.3377980" lon="-0.6955900">
        <ele>331.0</ele>
        <time>2019-10-19T15:05:13Z</time>
      </trkpt>
      <trkpt lat="38.3377800" lon="-0.6955650">
        <ele>331.2</ele>
        <time>2019-10-19T15:05:14Z</time>
      </trkpt>
      <trkpt lat="38.3377620" lon="-0.6955410">
        <ele>331.6</ele>
        <time>2019-10-19T15:05:15Z</time>
      </trkpt>
      <trkpt lat="38.3377420" lon="-0.6955190">
        <ele>331.8</ele>
        <time>2019-10-19T15:05:16Z</time>
      </trkpt>
      <trkpt lat="38.3377190" lon="-0.6954980">
        <ele>331.8</ele>
        <time>2019-10-19T15:05:17Z</time>
      </trkpt>
      <trkpt lat="38.3376950" lon="-0.6954760">
        <ele>331.8</ele>
        <time>2019-10-19T15:05:18Z</time>
      </trkpt>
      <trkpt lat="38.3376700" lon="-0.6954550">
        <ele>331.8</ele>
        <time>2019-10-19T15:05:19Z</time>
      </trkpt>
      <trkpt lat="38.3376460" lon="-0.6954350">
        <ele>332.4</ele>
        <time>2019-10-19T15:05:20Z</time>
      </trkpt>
      <trkpt lat="38.3376220" lon="-0.6954160">
        <ele>332.6</ele>
        <time>2019-10-19T15:05:21Z</time>
      </trkpt>
      <trkpt lat="38.3376010" lon="-0.6953990">
        <ele>333.0</ele>
        <time>2019-10-19T15:05:22Z</time>
      </trkpt>
      <trkpt lat="38.3375800" lon="-0.6953840">
        <ele>333.0</ele>
        <time>2019-10-19T15:05:23Z</time>
      </trkpt>
      <trkpt lat="38.3375570" lon="-0.6953720">
        <ele>333.4</ele>
        <time>2019-10-19T15:05:24Z</time>
      </trkpt>
      <trkpt lat="38.3375350" lon="-0.6953600">
        <ele>333.8</ele>
        <time>2019-10-19T15:05:25Z</time>
      </trkpt>
      <trkpt lat="38.3375120" lon="-0.6953470">
        <ele>334.0</ele>
        <time>2019-10-19T15:05:26Z</time>
      </trkpt>
      <trkpt lat="38.3374910" lon="-0.6953310">
        <ele>334.0</ele>
        <time>2019-10-19T15:05:27Z</time>
      </trkpt>
      <trkpt lat="38.3374700" lon="-0.6953140">
        <ele>334.2</ele>
        <time>2019-10-19T15:05:28Z</time>
      </trkpt>
      <trkpt lat="38.3374490" lon="-0.6952950">
        <ele>334.6</ele>
        <time>2019-10-19T15:05:29Z</time>
      </trkpt>
      <trkpt lat="38.3374280" lon="-0.6952750">
        <ele>334.8</ele>
        <time>2019-10-19T15:05:30Z</time>
      </trkpt>
      <trkpt lat="38.3374090" lon="-0.6952520">
        <ele>335.2</ele>
        <time>2019-10-19T15:05:31Z</time>
      </trkpt>
      <trkpt lat="38.3373920" lon="-0.6952280">
        <ele>335.6</ele>
        <time>2019-10-19T15:05:32Z</time>
      </trkpt>
      <trkpt lat="38.3373780" lon="-0.6952030">
        <ele>335.8</ele>
        <time>2019-10-19T15:05:33Z</time>
      </trkpt>
      <trkpt lat="38.3373660" lon="-0.6951770">
        <ele>335.8</ele>
        <time>2019-10-19T15:05:34Z</time>
      </trkpt>
      <trkpt lat="38.3373590" lon="-0.6951480">
        <ele>336.2</ele>
        <time>2019-10-19T15:05:35Z</time>
      </trkpt>
      <trkpt lat="38.3373580" lon="-0.6951170">
        <ele>336.2</ele>
        <time>2019-10-19T15:05:36Z</time>
      </trkpt>
      <trkpt lat="38.3373610" lon="-0.6950840">
        <ele>336.2</ele>
        <time>2019-10-19T15:05:37Z</time>
      </trkpt>
      <trkpt lat="38.3373630" lon="-0.6950480">
        <ele>336.0</ele>
        <time>2019-10-19T15:05:38Z</time>
      </trkpt>
      <trkpt lat="38.3373630" lon="-0.6950080">
        <ele>336.0</ele>
        <time>2019-10-19T15:05:39Z</time>
      </trkpt>
      <trkpt lat="38.3373640" lon="-0.6949630">
        <ele>336.0</ele>
        <time>2019-10-19T15:05:40Z</time>
      </trkpt>
      <trkpt lat="38.3373630" lon="-0.6949160">
        <ele>336.0</ele>
        <time>2019-10-19T15:05:41Z</time>
      </trkpt>
      <trkpt lat="38.3373650" lon="-0.6948660">
        <ele>335.8</ele>
        <time>2019-10-19T15:05:42Z</time>
      </trkpt>
      <trkpt lat="38.3373660" lon="-0.6948130">
        <ele>335.6</ele>
        <time>2019-10-19T15:05:43Z</time>
      </trkpt>
      <trkpt lat="38.3373690" lon="-0.6947590">
        <ele>335.8</ele>
        <time>2019-10-19T15:05:44Z</time>
      </trkpt>
      <trkpt lat="38.3373770" lon="-0.6947030">
        <ele>335.8</ele>
        <time>2019-10-19T15:05:45Z</time>
      </trkpt>
      <trkpt lat="38.3373900" lon="-0.6946460">
        <ele>335.6</ele>
        <time>2019-10-19T15:05:46Z</time>
      </trkpt>
      <trkpt lat="38.3374090" lon="-0.6945900">
        <ele>335.6</ele>
        <time>2019-10-19T15:05:47Z</time>
      </trkpt>
      <trkpt lat="38.3374340" lon="-0.6945350">
        <ele>335.4</ele>
        <time>2019-10-19T15:05:48Z</time>
      </trkpt>
      <trkpt lat="38.3374690" lon="-0.6944870">
        <ele>335.6</ele>
        <time>2019-10-19T15:05:49Z</time>
      </trkpt>
      <trkpt lat="38.3375160" lon="-0.6944530">
        <ele>335.4</ele>
        <time>2019-10-19T15:05:50Z</time>
      </trkpt>
      <trkpt lat="38.3375700" lon="-0.6944340">
        <ele>335.4</ele>
        <time>2019-10-19T15:05:51Z</time>
      </trkpt>
      <trkpt lat="38.3376280" lon="-0.6944190">
        <ele>335.2</ele>
        <time>2019-10-19T15:05:52Z</time>
      </trkpt>
      <trkpt lat="38.3376910" lon="-0.6943960">
        <ele>335.2</ele>
        <time>2019-10-19T15:05:53Z</time>
      </trkpt>
      <trkpt lat="38.3377530" lon="-0.6943760">
        <ele>335.0</ele>
        <time>2019-10-19T15:05:54Z</time>
      </trkpt>
      <trkpt lat="38.3378180" lon="-0.6943520">
        <ele>334.8</ele>
        <time>2019-10-19T15:05:55Z</time>
      </trkpt>
      <trkpt lat="38.3378830" lon="-0.6943260">
        <ele>334.6</ele>
        <time>2019-10-19T15:05:56Z</time>
      </trkpt>
      <trkpt lat="38.3379490" lon="-0.6942960">
        <ele>334.4</ele>
        <time>2019-10-19T15:05:57Z</time>
      </trkpt>
      <trkpt lat="38.3380130" lon="-0.6942630">
        <ele>334.2</ele>
        <time>2019-10-19T15:05:58Z</time>
      </trkpt>
      <trkpt lat="38.3380770" lon="-0.6942250">
        <ele>334.4</ele>
        <time>2019-10-19T15:05:59Z</time>
      </trkpt>
      <trkpt lat="38.3381390" lon="-0.6941870">
        <ele>334.4</ele>
        <time>2019-10-19T15:06:00Z</time>
      </trkpt>
      <trkpt lat="38.3382010" lon="-0.6941490">
        <ele>334.4</ele>
        <time>2019-10-19T15:06:01Z</time>
      </trkpt>
      <trkpt lat="38.3382620" lon="-0.6941120">
        <ele>334.4</ele>
        <time>2019-10-19T15:06:02Z</time>
      </trkpt>
      <trkpt lat="38.3383230" lon="-0.6940770">
        <ele>334.4</ele>
        <time>2019-10-19T15:06:03Z</time>
      </trkpt>
      <trkpt lat="38.3383830" lon="-0.6940400">
        <ele>334.2</ele>
        <time>2019-10-19T15:06:04Z</time>
      </trkpt>
      <trkpt lat="38.3384440" lon="-0.6940020">
        <ele>334.2</ele>
        <time>2019-10-19T15:06:05Z</time>
      </trkpt>
      <trkpt lat="38.3385100" lon="-0.6939670">
        <ele>334.2</ele>
        <time>2019-10-19T15:06:06Z</time>
      </trkpt>
      <trkpt lat="38.3385790" lon="-0.6939360">
        <ele>333.8</ele>
        <time>2019-10-19T15:06:07Z</time>
      </trkpt>
      <trkpt lat="38.3386510" lon="-0.6939080">
        <ele>333.4</ele>
        <time>2019-10-19T15:06:08Z</time>
      </trkpt>
      <trkpt lat="38.3387240" lon="-0.6938860">
        <ele>333.2</ele>
        <time>2019-10-19T15:06:09Z</time>
      </trkpt>
      <trkpt lat="38.3387980" lon="-0.6938680">
        <ele>333.2</ele>
        <time>2019-10-19T15:06:10Z</time>
      </trkpt>
      <trkpt lat="38.3388730" lon="-0.6938510">
        <ele>333.0</ele>
        <time>2019-10-19T15:06:11Z</time>
      </trkpt>
      <trkpt lat="38.3389510" lon="-0.6938350">
        <ele>332.6</ele>
        <time>2019-10-19T15:06:12Z</time>
      </trkpt>
      <trkpt lat="38.3390310" lon="-0.6938160">
        <ele>332.0</ele>
        <time>2019-10-19T15:06:13Z</time>
      </trkpt>
      <trkpt lat="38.3391160" lon="-0.6937970">
        <ele>331.6</ele>
        <time>2019-10-19T15:06:14Z</time>
      </trkpt>
      <trkpt lat="38.3392040" lon="-0.6937840">
        <ele>331.2</ele>
        <time>2019-10-19T15:06:15Z</time>
      </trkpt>
      <trkpt lat="38.3392910" lon="-0.6937790">
        <ele>331.0</ele>
        <time>2019-10-19T15:06:16Z</time>
      </trkpt>
      <trkpt lat="38.3393780" lon="-0.6937780">
        <ele>330.8</ele>
        <time>2019-10-19T15:06:17Z</time>
      </trkpt>
      <trkpt lat="38.3394670" lon="-0.6937840">
        <ele>330.6</ele>
        <time>2019-10-19T15:06:18Z</time>
      </trkpt>
      <trkpt lat="38.3395580" lon="-0.6937910">
        <ele>330.0</ele>
        <time>2019-10-19T15:06:19Z</time>
      </trkpt>
      <trkpt lat="38.3396510" lon="-0.6938040">
        <ele>329.6</ele>
        <time>2019-10-19T15:06:20Z</time>
      </trkpt>
      <trkpt lat="38.3397470" lon="-0.6938170">
        <ele>328.8</ele>
        <time>2019-10-19T15:06:21Z</time>
      </trkpt>
      <trkpt lat="38.3398470" lon="-0.6938280">
        <ele>328.0</ele>
        <time>2019-10-19T15:06:22Z</time>
      </trkpt>
      <trkpt lat="38.3399490" lon="-0.6938370">
        <ele>327.4</ele>
        <time>2019-10-19T15:06:23Z</time>
      </trkpt>
      <trkpt lat="38.3400520" lon="-0.6938480">
        <ele>326.8</ele>
        <time>2019-10-19T15:06:24Z</time>
      </trkpt>
      <trkpt lat="38.3401590" lon="-0.6938660">
        <ele>325.8</ele>
        <time>2019-10-19T15:06:25Z</time>
      </trkpt>
      <trkpt lat="38.3402690" lon="-0.6938900">
        <ele>324.8</ele>
        <time>2019-10-19T15:06:26Z</time>
      </trkpt>
      <trkpt lat="38.3403800" lon="-0.6939230">
        <ele>324.0</ele>
        <time>2019-10-19T15:06:27Z</time>
      </trkpt>
      <trkpt lat="38.3404890" lon="-0.6939650">
        <ele>323.4</ele>
        <time>2019-10-19T15:06:28Z</time>
      </trkpt>
      <trkpt lat="38.3405990" lon="-0.6940110">
        <ele>322.4</ele>
        <time>2019-10-19T15:06:29Z</time>
      </trkpt>
      <trkpt lat="38.3407090" lon="-0.6940570">
        <ele>321.6</ele>
        <time>2019-10-19T15:06:30Z</time>
      </trkpt>
      <trkpt lat="38.3408230" lon="-0.6941050">
        <ele>321.0</ele>
        <time>2019-10-19T15:06:31Z</time>
      </trkpt>
      <trkpt lat="38.3409370" lon="-0.6941380">
        <ele>320.4</ele>
        <time>2019-10-19T15:06:32Z</time>
      </trkpt>
      <trkpt lat="38.3410510" lon="-0.6941500">
        <ele>319.8</ele>
        <time>2019-10-19T15:06:33Z</time>
      </trkpt>
      <trkpt lat="38.3411650" lon="-0.6941420">
        <ele>319.2</ele>
        <time>2019-10-19T15:06:34Z</time>
      </trkpt>
      <trkpt lat="38.3412800" lon="-0.6941390">
        <ele>318.8</ele>
        <time>2019-10-19T15:06:35Z</time>
      </trkpt>
      <trkpt lat="38.3413920" lon="-0.6941640">
        <ele>318.6</ele>
        <time>2019-10-19T15:06:36Z</time>
      </trkpt>
      <trkpt lat="38.3414990" lon="-0.6942050">
        <ele>318.2</ele>
        <time>2019-10-19T15:06:37Z</time>
      </trkpt>
      <trkpt lat="38.3416080" lon="-0.6942460">
        <ele>317.8</ele>
        <time>2019-10-19T15:06:38Z</time>
      </trkpt>
      <trkpt lat="38.3417160" lon="-0.6942690">
        <ele>317.2</ele>
        <time>2019-10-19T15:06:39Z</time>
      </trkpt>
      <trkpt lat="38.3418250" lon="-0.6942710">
        <ele>317.0</ele>
        <time>2019-10-19T15:06:40Z</time>
      </trkpt>
      <trkpt lat="38.3419320" lon="-0.6942610">
        <ele>317.0</ele>
        <time>2019-10-19T15:06:41Z</time>
      </trkpt>
      <trkpt lat="38.3420370" lon="-0.6942440">
        <ele>316.8</ele>
        <time>2019-10-19T15:06:42Z</time>
      </trkpt>
      <trkpt lat="38.3421380" lon="-0.6942120">
        <ele>316.6</ele>
        <time>2019-10-19T15:06:43Z</time>
      </trkpt>
      <trkpt lat="38.3422360" lon="-0.6941730">
        <ele>316.4</ele>
        <time>2019-10-19T15:06:44Z</time>
      </trkpt>
      <trkpt lat="38.3423340" lon="-0.6941350">
        <ele>316.2</ele>
        <time>2019-10-19T15:06:45Z</time>
      </trkpt>
      <trkpt lat="38.3424320" lon="-0.6941020">
        <ele>316.6</ele>
        <time>2019-10-19T15:06:46Z</time>
      </trkpt>
      <trkpt lat="38.3425290" lon="-0.6940760">
        <ele>316.2</ele>
        <time>2019-10-19T15:06:47Z</time>
      </trkpt>
      <trkpt lat="38.3426270" lon="-0.6940560">
        <ele>316.2</ele>
        <time>2019-10-19T15:06:48Z</time>
      </trkpt>
      <trkpt lat="38.3427230" lon="-0.6940440">
        <ele>316.0</ele>
        <time>2019-10-19T15:06:49Z</time>
      </trkpt>
      <trkpt lat="38.3428180" lon="-0.6940380">
        <ele>315.8</ele>
        <time>2019-10-19T15:06:50Z</time>
      </trkpt>
      <trkpt lat="38.3429120" lon="-0.6940320">
        <ele>315.8</ele>
        <time>2019-10-19T15:06:51Z</time>
      </trkpt>
      <trkpt lat="38.3430060" lon="-0.6940270">
        <ele>315.6</ele>
        <time>2019-10-19T15:06:52Z</time>
      </trkpt>
      <trkpt lat="38.3431000" lon="-0.6940190">
        <ele>315.6</ele>
        <time>2019-10-19T15:06:53Z</time>
      </trkpt>
      <trkpt lat="38.3431940" lon="-0.6940050">
        <ele>315.2</ele>
        <time>2019-10-19T15:06:54Z</time>
      </trkpt>
      <trkpt lat="38.3432870" lon="-0.6939830">
        <ele>315.2</ele>
        <time>2019-10-19T15:06:55Z</time>
      </trkpt>
      <trkpt lat="38.3433800" lon="-0.6939560">
        <ele>315.0</ele>
        <time>2019-10-19T15:06:56Z</time>
      </trkpt>
      <trkpt lat="38.3434730" lon="-0.6939360">
        <ele>315.0</ele>
        <time>2019-10-19T15:06:57Z</time>
      </trkpt>
      <trkpt lat="38.3435660" lon="-0.6939340">
        <ele>314.8</ele>
        <time>2019-10-19T15:06:58Z</time>
      </trkpt>
      <trkpt lat="38.3436580" lon="-0.6939520">
        <ele>314.4</ele>
        <time>2019-10-19T15:06:59Z</time>
      </trkpt>
      <trkpt lat="38.3437490" lon="-0.6939750">
        <ele>314.4</ele>
        <time>2019-10-19T15:07:00Z</time>
      </trkpt>
      <trkpt lat="38.3438420" lon="-0.6939980">
        <ele>313.6</ele>
        <time>2019-10-19T15:07:01Z</time>
      </trkpt>
      <trkpt lat="38.3439360" lon="-0.6940200">
        <ele>313.2</ele>
        <time>2019-10-19T15:07:02Z</time>
      </trkpt>
      <trkpt lat="38.3440330" lon="-0.6940390">
        <ele>312.6</ele>
        <time>2019-10-19T15:07:03Z</time>
      </trkpt>
      <trkpt lat="38.3441340" lon="-0.6940590">
        <ele>312.0</ele>
        <time>2019-10-19T15:07:04Z</time>
      </trkpt>
      <trkpt lat="38.3442370" lon="-0.6940810">
        <ele>311.4</ele>
        <time>2019-10-19T15:07:05Z</time>
      </trkpt>
      <trkpt lat="38.3443410" lon="-0.6940960">
        <ele>310.8</ele>
        <time>2019-10-19T15:07:06Z</time>
      </trkpt>
      <trkpt lat="38.3444450" lon="-0.6940950">
        <ele>310.6</ele>
        <time>2019-10-19T15:07:07Z</time>
      </trkpt>
      <trkpt lat="38.3445490" lon="-0.6940810">
        <ele>310.4</ele>
        <time>2019-10-19T15:07:08Z</time>
      </trkpt>
      <trkpt lat="38.3446520" lon="-0.6940580">
        <ele>310.4</ele>
        <time>2019-10-19T15:07:09Z</time>
      </trkpt>
      <trkpt lat="38.3447530" lon="-0.6940320">
        <ele>310.4</ele>
        <time>2019-10-19T15:07:10Z</time>
      </trkpt>
      <trkpt lat="38.3448560" lon="-0.6940100">
        <ele>310.2</ele>
        <time>2019-10-19T15:07:11Z</time>
      </trkpt>
      <trkpt lat="38.3449590" lon="-0.6939940">
        <ele>310.0</ele>
        <time>2019-10-19T15:07:12Z</time>
      </trkpt>
      <trkpt lat="38.3450600" lon="-0.6939800">
        <ele>310.0</ele>
        <time>2019-10-19T15:07:13Z</time>
      </trkpt>
      <trkpt lat="38.3451630" lon="-0.6939690">
        <ele>309.6</ele>
        <time>2019-10-19T15:07:14Z</time>
      </trkpt>
      <trkpt lat="38.3452650" lon="-0.6939550">
        <ele>309.6</ele>
        <time>2019-10-19T15:07:15Z</time>
      </trkpt>
      <trkpt lat="38.3453670" lon="-0.6939350">
        <ele>309.0</ele>
        <time>2019-10-19T15:07:16Z</time>
      </trkpt>
      <trkpt lat="38.3454670" lon="-0.6939110">
        <ele>308.8</ele>
        <time>2019-10-19T15:07:17Z</time>
      </trkpt>
      <trkpt lat="38.3455660" lon="-0.6938810">
        <ele>308.4</ele>
        <time>2019-10-19T15:07:18Z</time>
      </trkpt>
      <trkpt lat="38.3456650" lon="-0.6938490">
        <ele>308.0</ele>
        <time>2019-10-19T15:07:19Z</time>
      </trkpt>
      <trkpt lat="38.3457630" lon="-0.6938140">
        <ele>307.8</ele>
        <time>2019-10-19T15:07:20Z</time>
      </trkpt>
      <trkpt lat="38.3458610" lon="-0.6937790">
        <ele>307.4</ele>
        <time>2019-10-19T15:07:21Z</time>
      </trkpt>
      <trkpt lat="38.3459580" lon="-0.6937440">
        <ele>307.2</ele>
        <time>2019-10-19T15:07:22Z</time>
      </trkpt>
      <trkpt lat="38.3460550" lon="-0.6937100">
        <ele>307.2</ele>
        <time>2019-10-19T15:07:23Z</time>
      </trkpt>
      <trkpt lat="38.3461500" lon="-0.6936780">
        <ele>307.2</ele>
        <time>2019-10-19T15:07:24Z</time>
      </trkpt>
      <trkpt lat="38.3462450" lon="-0.6936480">
        <ele>307.2</ele>
        <time>2019-10-19T15:07:25Z</time>
      </trkpt>
      <trkpt lat="38.3463390" lon="-0.6936240">
        <ele>307.2</ele>
        <time>2019-10-19T15:07:26Z</time>
      </trkpt>
      <trkpt lat="38.3464320" lon="-0.6936090">
        <ele>307.2</ele>
        <time>2019-10-19T15:07:27Z</time>
      </trkpt>
      <trkpt lat="38.3465240" lon="-0.6936030">
        <ele>307.2</ele>
        <time>2019-10-19T15:07:28Z</time>
      </trkpt>
      <trkpt lat="38.3466140" lon="-0.6936030">
        <ele>307.4</ele>
        <time>2019-10-19T15:07:29Z</time>
      </trkpt>
      <trkpt lat="38.3467010" lon="-0.6936020">
        <ele>307.6</ele>
        <time>2019-10-19T15:07:30Z</time>
      </trkpt>
      <trkpt lat="38.3467840" lon="-0.6935980">
        <ele>307.8</ele>
        <time>2019-10-19T15:07:31Z</time>
      </trkpt>
      <trkpt lat="38.3468670" lon="-0.6935870">
        <ele>307.6</ele>
        <time>2019-10-19T15:07:32Z</time>
      </trkpt>
      <trkpt lat="38.3469490" lon="-0.6935660">
        <ele>307.4</ele>
        <time>2019-10-19T15:07:33Z</time>
      </trkpt>
      <trkpt lat="38.3470280" lon="-0.6935380">
        <ele>307.4</ele>
        <time>2019-10-19T15:07:34Z</time>
      </trkpt>
      <trkpt lat="38.3471060" lon="-0.6935040">
        <ele>307.2</ele>
        <time>2019-10-19T15:07:35Z</time>
      </trkpt>
      <trkpt lat="38.3471820" lon="-0.6934700">
        <ele>307.2</ele>
        <time>2019-10-19T15:07:36Z</time>
      </trkpt>
      <trkpt lat="38.3472600" lon="-0.6934360">
        <ele>307.0</ele>
        <time>2019-10-19T15:07:37Z</time>
      </trkpt>
      <trkpt lat="38.3473360" lon="-0.6934010">
        <ele>307.0</ele>
        <time>2019-10-19T15:07:38Z</time>
      </trkpt>
      <trkpt lat="38.3474140" lon="-0.6933690">
        <ele>306.6</ele>
        <time>2019-10-19T15:07:39Z</time>
      </trkpt>
      <trkpt lat="38.3474920" lon="-0.6933390">
        <ele>306.6</ele>
        <time>2019-10-19T15:07:40Z</time>
      </trkpt>
      <trkpt lat="38.3475710" lon="-0.6933110">
        <ele>306.4</ele>
        <time>2019-10-19T15:07:41Z</time>
      </trkpt>
      <trkpt lat="38.3476510" lon="-0.6932830">
        <ele>306.2</ele>
        <time>2019-10-19T15:07:42Z</time>
      </trkpt>
      <trkpt lat="38.3477300" lon="-0.6932550">
        <ele>306.2</ele>
        <time>2019-10-19T15:07:43Z</time>
      </trkpt>
      <trkpt lat="38.3478090" lon="-0.6932280">
        <ele>306.2</ele>
        <time>2019-10-19T15:07:44Z</time>
      </trkpt>
      <trkpt lat="38.3478870" lon="-0.6932010">
        <ele>306.0</ele>
        <time>2019-10-19T15:07:45Z</time>
      </trkpt>
      <trkpt lat="38.3479630" lon="-0.6931730">
        <ele>306.0</ele>
        <time>2019-10-19T15:07:46Z</time>
      </trkpt>
      <trkpt lat="38.3480380" lon="-0.6931410">
        <ele>306.0</ele>
        <time>2019-10-19T15:07:47Z</time>
      </trkpt>
      <trkpt lat="38.3481090" lon="-0.6930980">
        <ele>305.6</ele>
        <time>2019-10-19T15:07:48Z</time>
      </trkpt>
      <trkpt lat="38.3481750" lon="-0.6930480">
        <ele>305.6</ele>
        <time>2019-10-19T15:07:49Z</time>
      </trkpt>
      <trkpt lat="38.3482390" lon="-0.6929950">
        <ele>305.4</ele>
        <time>2019-10-19T15:07:50Z</time>
      </trkpt>
      <trkpt lat="38.3483050" lon="-0.6929410">
        <ele>305.4</ele>
        <time>2019-10-19T15:07:51Z</time>
      </trkpt>
      <trkpt lat="38.3483730" lon="-0.6928900">
        <ele>305.2</ele>
        <time>2019-10-19T15:07:52Z</time>
      </trkpt>
      <trkpt lat="38.3484440" lon="-0.6928470">
        <ele>305.4</ele>
        <time>2019-10-19T15:07:53Z</time>
      </trkpt>
      <trkpt lat="38.3485160" lon="-0.6928150">
        <ele>305.4</ele>
        <time>2019-10-19T15:07:54Z</time>
      </trkpt>
      <trkpt lat="38.3485910" lon="-0.6927840">
        <ele>305.4</ele>
        <time>2019-10-19T15:07:55Z</time>
      </trkpt>
      <trkpt lat="38.3486630" lon="-0.6927560">
        <ele>305.6</ele>
        <time>2019-10-19T15:07:56Z</time>
      </trkpt>
      <trkpt lat="38.3487340" lon="-0.6927260">
        <ele>305.6</ele>
        <time>2019-10-19T15:07:57Z</time>
      </trkpt>
      <trkpt lat="38.3488030" lon="-0.6926940">
        <ele>305.6</ele>
        <time>2019-10-19T15:07:58Z</time>
      </trkpt>
      <trkpt lat="38.3488720" lon="-0.6926670">
        <ele>305.6</ele>
        <time>2019-10-19T15:07:59Z</time>
      </trkpt>
      <trkpt lat="38.3489410" lon="-0.6926430">
        <ele>305.8</ele>
        <time>2019-10-19T15:08:00Z</time>
      </trkpt>
      <trkpt lat="38.3490090" lon="-0.6926200">
        <ele>305.6</ele>
        <time>2019-10-19T15:08:01Z</time>
      </trkpt>
      <trkpt lat="38.3490760" lon="-0.6925970">
        <ele>305.4</ele>
        <time>2019-10-19T15:08:02Z</time>
      </trkpt>
      <trkpt lat="38.3491440" lon="-0.6925770">
        <ele>305.2</ele>
        <time>2019-10-19T15:08:03Z</time>
      </trkpt>
      <trkpt lat="38.3492090" lon="-0.6925540">
        <ele>305.2</ele>
        <time>2019-10-19T15:08:04Z</time>
      </trkpt>
      <trkpt lat="38.3492710" lon="-0.6925310">
        <ele>305.4</ele>
        <time>2019-10-19T15:08:05Z</time>
      </trkpt>
      <trkpt lat="38.3493330" lon="-0.6925040">
        <ele>305.2</ele>
        <time>2019-10-19T15:08:06Z</time>
      </trkpt>
      <trkpt lat="38.3493910" lon="-0.6924700">
        <ele>305.2</ele>
        <time>2019-10-19T15:08:07Z</time>
      </trkpt>
      <trkpt lat="38.3494420" lon="-0.6924290">
        <ele>305.0</ele>
        <time>2019-10-19T15:08:08Z</time>
      </trkpt>
      <trkpt lat="38.3494820" lon="-0.6923940">
        <ele>305.0</ele>
        <time>2019-10-19T15:08:09Z</time>
      </trkpt>
      <trkpt lat="38.3495090" lon="-0.6923590">
        <ele>305.4</ele>
        <time>2019-10-19T15:08:10Z</time>
      </trkpt>
      <trkpt lat="38.3495200" lon="-0.6923160">
        <ele>305.6</ele>
        <time>2019-10-19T15:08:11Z</time>
      </trkpt>
      <trkpt lat="38.3495210" lon="-0.6922760">
        <ele>306.0</ele>
        <time>2019-10-19T15:08:12Z</time>
      </trkpt>
      <trkpt lat="38.3495200" lon="-0.6922360">
        <ele>306.0</ele>
        <time>2019-10-19T15:08:13Z</time>
      </trkpt>
      <trkpt lat="38.3495160" lon="-0.6921970">
        <ele>306.0</ele>
        <time>2019-10-19T15:08:14Z</time>
      </trkpt>
      <trkpt lat="38.3495170" lon="-0.6921550">
        <ele>306.0</ele>
        <time>2019-10-19T15:08:15Z</time>
      </trkpt>
      <trkpt lat="38.3495160" lon="-0.6921110">
        <ele>306.4</ele>
        <time>2019-10-19T15:08:16Z</time>
      </trkpt>
      <trkpt lat="38.3495150" lon="-0.6920660">
        <ele>306.4</ele>
        <time>2019-10-19T15:08:17Z</time>
      </trkpt>
      <trkpt lat="38.3495160" lon="-0.6920200">
        <ele>306.6</ele>
        <time>2019-10-19T15:08:18Z</time>
      </trkpt>
      <trkpt lat="38.3495180" lon="-0.6919730">
        <ele>306.8</ele>
        <time>2019-10-19T15:08:19Z</time>
      </trkpt>
      <trkpt lat="38.3495210" lon="-0.6919260">
        <ele>307.2</ele>
        <time>2019-10-19T15:08:20Z</time>
      </trkpt>
      <trkpt lat="38.3495220" lon="-0.6918770">
        <ele>307.4</ele>
        <time>2019-10-19T15:08:21Z</time>
      </trkpt>
      <trkpt lat="38.3495240" lon="-0.6918280">
        <ele>307.6</ele>
        <time>2019-10-19T15:08:22Z</time>
      </trkpt>
      <trkpt lat="38.3495240" lon="-0.6917770">
        <ele>308.0</ele>
        <time>2019-10-19T15:08:23Z</time>
      </trkpt>
      <trkpt lat="38.3495240" lon="-0.6917250">
        <ele>308.2</ele>
        <time>2019-10-19T15:08:24Z</time>
      </trkpt>
      <trkpt lat="38.3495230" lon="-0.6916720">
        <ele>308.4</ele>
        <time>2019-10-19T15:08:25Z</time>
      </trkpt>
      <trkpt lat="38.3495240" lon="-0.6916200">
        <ele>308.4</ele>
        <time>2019-10-19T15:08:26Z</time>
      </trkpt>
      <trkpt lat="38.3495240" lon="-0.6915690">
        <ele>308.8</ele>
        <time>2019-10-19T15:08:27Z</time>
      </trkpt>
      <trkpt lat="38.3495260" lon="-0.6915180">
        <ele>309.0</ele>
        <time>2019-10-19T15:08:28Z</time>
      </trkpt>
      <trkpt lat="38.3495270" lon="-0.6914660">
        <ele>309.4</ele>
        <time>2019-10-19T15:08:29Z</time>
      </trkpt>
      <trkpt lat="38.3495280" lon="-0.6914130">
        <ele>309.6</ele>
        <time>2019-10-19T15:08:30Z</time>
      </trkpt>
      <trkpt lat="38.3495290" lon="-0.6913610">
        <ele>309.8</ele>
        <time>2019-10-19T15:08:31Z</time>
      </trkpt>
      <trkpt lat="38.3495300" lon="-0.6913120">
        <ele>310.0</ele>
        <time>2019-10-19T15:08:32Z</time>
      </trkpt>
      <trkpt lat="38.3495320" lon="-0.6912650">
        <ele>310.2</ele>
        <time>2019-10-19T15:08:33Z</time>
      </trkpt>
      <trkpt lat="38.3495350" lon="-0.6912200">
        <ele>310.4</ele>
        <time>2019-10-19T15:08:34Z</time>
      </trkpt>
      <trkpt lat="38.3495380" lon="-0.6911750">
        <ele>310.6</ele>
        <time>2019-10-19T15:08:35Z</time>
      </trkpt>
      <trkpt lat="38.3495390" lon="-0.6911290">
        <ele>310.8</ele>
        <time>2019-10-19T15:08:36Z</time>
      </trkpt>
      <trkpt lat="38.3495410" lon="-0.6910830">
        <ele>311.0</ele>
        <time>2019-10-19T15:08:37Z</time>
      </trkpt>
      <trkpt lat="38.3495400" lon="-0.6910370">
        <ele>311.4</ele>
        <time>2019-10-19T15:08:38Z</time>
      </trkpt>
      <trkpt lat="38.3495410" lon="-0.6909900">
        <ele>311.4</ele>
        <time>2019-10-19T15:08:39Z</time>
      </trkpt>
      <trkpt lat="38.3495420" lon="-0.6909440">
        <ele>311.8</ele>
        <time>2019-10-19T15:08:40Z</time>
      </trkpt>
      <trkpt lat="38.3495430" lon="-0.6908970">
        <ele>311.8</ele>
        <time>2019-10-19T15:08:41Z</time>
      </trkpt>
      <trkpt lat="38.3495430" lon="-0.6908510">
        <ele>312.0</ele>
        <time>2019-10-19T15:08:42Z</time>
      </trkpt>
      <trkpt lat="38.3495430" lon="-0.6908030">
        <ele>312.4</ele>
        <time>2019-10-19T15:08:43Z</time>
      </trkpt>
      <trkpt lat="38.3495430" lon="-0.6907540">
        <ele>312.6</ele>
        <time>2019-10-19T15:08:44Z</time>
      </trkpt>
      <trkpt lat="38.3495440" lon="-0.6907060">
        <ele>312.8</ele>
        <time>2019-10-19T15:08:45Z</time>
      </trkpt>
      <trkpt lat="38.3495440" lon="-0.6906570">
        <ele>313.0</ele>
        <time>2019-10-19T15:08:46Z</time>
      </trkpt>
      <trkpt lat="38.3495420" lon="-0.6906080">
        <ele>313.0</ele>
        <time>2019-10-19T15:08:47Z</time>
      </trkpt>
      <trkpt lat="38.3495410" lon="-0.6905580">
        <ele>313.4</ele>
        <time>2019-10-19T15:08:48Z</time>
      </trkpt>
      <trkpt lat="38.3495420" lon="-0.6905090">
        <ele>313.4</ele>
        <time>2019-10-19T15:08:49Z</time>
      </trkpt>
      <trkpt lat="38.3495420" lon="-0.6904590">
        <ele>313.8</ele>
        <time>2019-10-19T15:08:50Z</time>
      </trkpt>
      <trkpt lat="38.3495410" lon="-0.6904090">
        <ele>314.0</ele>
        <time>2019-10-19T15:08:51Z</time>
      </trkpt>
      <trkpt lat="38.3495390" lon="-0.6903590">
        <ele>314.2</ele>
        <time>2019-10-19T15:08:52Z</time>
      </trkpt>
      <trkpt lat="38.3495370" lon="-0.6903090">
        <ele>314.2</ele>
        <time>2019-10-19T15:08:53Z</time>
      </trkpt>
      <trkpt lat="38.3495340" lon="-0.6902600">
        <ele>314.6</ele>
        <time>2019-10-19T15:08:54Z</time>
      </trkpt>
      <trkpt lat="38.3495300" lon="-0.6902130">
        <ele>314.8</ele>
        <time>2019-10-19T15:08:55Z</time>
      </trkpt>
      <trkpt lat="38.3495260" lon="-0.6901650">
        <ele>315.4</ele>
        <time>2019-10-19T15:08:56Z</time>
      </trkpt>
      <trkpt lat="38.3495190" lon="-0.6901180">
        <ele>315.6</ele>
        <time>2019-10-19T15:08:57Z</time>
      </trkpt>
      <trkpt lat="38.3495120" lon="-0.6900710">
        <ele>315.6</ele>
        <time>2019-10-19T15:08:58Z</time>
      </trkpt>
      <trkpt lat="38.3495030" lon="-0.6900280">
        <ele>315.8</ele>
        <time>2019-10-19T15:08:59Z</time>
      </trkpt>
      <trkpt lat="38.3494930" lon="-0.6899830">
        <ele>316.0</ele>
        <time>2019-10-19T15:09:00Z</time>
      </trkpt>
      <trkpt lat="38.3494850" lon="-0.6899400">
        <ele>316.2</ele>
        <time>2019-10-19T15:09:01Z</time>
      </trkpt>
      <trkpt lat="38.3494770" lon="-0.6898980">
        <ele>316.8</ele>
        <time>2019-10-19T15:09:02Z</time>
      </trkpt>
      <trkpt lat="38.3494690" lon="-0.6898550">
        <ele>316.8</ele>
        <time>2019-10-19T15:09:03Z</time>
      </trkpt>
      <trkpt lat="38.3494610" lon="-0.6898120">
        <ele>317.0</ele>
        <time>2019-10-19T15:09:04Z</time>
      </trkpt>
      <trkpt lat="38.3494520" lon="-0.6897710">
        <ele>317.4</ele>
        <time>2019-10-19T15:09:05Z</time>
      </trkpt>
      <trkpt lat="38.3494430" lon="-0.6897290">
        <ele>317.6</ele>
        <time>2019-10-19T15:09:06Z</time>
      </trkpt>
      <trkpt lat="38.3494350" lon="-0.6896870">
        <ele>317.8</ele>
        <time>2019-10-19T15:09:07Z</time>
      </trkpt>
      <trkpt lat="38.3494250" lon="-0.6896450">
        <ele>318.0</ele>
        <time>2019-10-19T15:09:08Z</time>
      </trkpt>
      <trkpt lat="38.3494170" lon="-0.6896030">
        <ele>318.2</ele>
        <time>2019-10-19T15:09:09Z</time>
      </trkpt>
      <trkpt lat="38.3494090" lon="-0.6895590">
        <ele>318.4</ele>
        <time>2019-10-19T15:09:10Z</time>
      </trkpt>
      <trkpt lat="38.3494000" lon="-0.6895150">
        <ele>318.6</ele>
        <time>2019-10-19T15:09:11Z</time>
      </trkpt>
      <trkpt lat="38.3493910" lon="-0.6894710">
        <ele>318.4</ele>
        <time>2019-10-19T15:09:12Z</time>
      </trkpt>
      <trkpt lat="38.3493800" lon="-0.6894280">
        <ele>318.6</ele>
        <time>2019-10-19T15:09:13Z</time>
      </trkpt>
      <trkpt lat="38.3493700" lon="-0.6893840">
        <ele>319.0</ele>
        <time>2019-10-19T15:09:14Z</time>
      </trkpt>
      <trkpt lat="38.3493610" lon="-0.6893400">
        <ele>319.2</ele>
        <time>2019-10-19T15:09:15Z</time>
      </trkpt>
      <trkpt lat="38.3493510" lon="-0.6892970">
        <ele>319.2</ele>
        <time>2019-10-19T15:09:16Z</time>
      </trkpt>
      <trkpt lat="38.3493430" lon="-0.6892540">
        <ele>319.6</ele>
        <time>2019-10-19T15:09:17Z</time>
      </trkpt>
      <trkpt lat="38.3493340" lon="-0.6892110">
        <ele>319.8</ele>
        <time>2019-10-19T15:09:18Z</time>
      </trkpt>
      <trkpt lat="38.3493240" lon="-0.6891700">
        <ele>320.0</ele>
        <time>2019-10-19T15:09:19Z</time>
      </trkpt>
      <trkpt lat="38.3493170" lon="-0.6891290">
        <ele>320.2</ele>
        <time>2019-10-19T15:09:20Z</time>
      </trkpt>
      <trkpt lat="38.3493100" lon="-0.6890880">
        <ele>320.4</ele>
        <time>2019-10-19T15:09:21Z</time>
      </trkpt>
      <trkpt lat="38.3493010" lon="-0.6890480">
        <ele>320.4</ele>
        <time>2019-10-19T15:09:22Z</time>
      </trkpt>
      <trkpt lat="38.3492920" lon="-0.6890090">
        <ele>320.6</ele>
        <time>2019-10-19T15:09:23Z</time>
      </trkpt>
      <trkpt lat="38.3492800" lon="-0.6889680">
        <ele>320.8</ele>
        <time>2019-10-19T15:09:24Z</time>
      </trkpt>
      <trkpt lat="38.3492720" lon="-0.6889300">
        <ele>321.0</ele>
        <time>2019-10-19T15:09:25Z</time>
      </trkpt>
      <trkpt lat="38.3492640" lon="-0.6888900">
        <ele>321.2</ele>
        <time>2019-10-19T15:09:26Z</time>
      </trkpt>
      <trkpt lat="38.3492560" lon="-0.6888500">
        <ele>321.2</ele>
        <time>2019-10-19T15:09:27Z</time>
      </trkpt>
      <trkpt lat="38.3492500" lon="-0.6888080">
        <ele>321.6</ele>
        <time>2019-10-19T15:09:28Z</time>
      </trkpt>
      <trkpt lat="38.3492420" lon="-0.6887590">
        <ele>321.8</ele>
        <time>2019-10-19T15:09:29Z</time>
      </trkpt>
      <trkpt lat="38.3492340" lon="-0.6887150">
        <ele>321.6</ele>
        <time>2019-10-19T15:09:30Z</time>
      </trkpt>
      <trkpt lat="38.3492250" lon="-0.6886700">
        <ele>321.8</ele>
        <time>2019-10-19T15:09:31Z</time>
      </trkpt>
      <trkpt lat="38.3492150" lon="-0.6886240">
        <ele>321.8</ele>
        <time>2019-10-19T15:09:32Z</time>
      </trkpt>
      <trkpt lat="38.3492060" lon="-0.6885780">
        <ele>322.0</ele>
        <time>2019-10-19T15:09:33Z</time>
      </trkpt>
      <trkpt lat="38.3491970" lon="-0.6885330">
        <ele>322.2</ele>
        <time>2019-10-19T15:09:34Z</time>
      </trkpt>
      <trkpt lat="38.3491870" lon="-0.6884880">
        <ele>322.2</ele>
        <time>2019-10-19T15:09:35Z</time>
      </trkpt>
      <trkpt lat="38.3491760" lon="-0.6884430">
        <ele>322.4</ele>
        <time>2019-10-19T15:09:36Z</time>
      </trkpt>
      <trkpt lat="38.3491640" lon="-0.6883970">
        <ele>322.2</ele>
        <time>2019-10-19T15:09:37Z</time>
      </trkpt>
      <trkpt lat="38.3491550" lon="-0.6883490">
        <ele>322.4</ele>
        <time>2019-10-19T15:09:38Z</time>
      </trkpt>
      <trkpt lat="38.3491450" lon="-0.6883030">
        <ele>322.6</ele>
        <time>2019-10-19T15:09:39Z</time>
      </trkpt>
      <trkpt lat="38.3491370" lon="-0.6882590">
        <ele>322.8</ele>
        <time>2019-10-19T15:09:40Z</time>
      </trkpt>
      <trkpt lat="38.3491260" lon="-0.6882130">
        <ele>322.8</ele>
        <time>2019-10-19T15:09:41Z</time>
      </trkpt>
      <trkpt lat="38.3491160" lon="-0.6881660">
        <ele>322.8</ele>
        <time>2019-10-19T15:09:42Z</time>
      </trkpt>
      <trkpt lat="38.3491060" lon="-0.6881180">
        <ele>323.0</ele>
        <time>2019-10-19T15:09:43Z</time>
      </trkpt>
      <trkpt lat="38.3490990" lon="-0.6880700">
        <ele>323.0</ele>
        <time>2019-10-19T15:09:44Z</time>
      </trkpt>
      <trkpt lat="38.3490910" lon="-0.6880230">
        <ele>323.0</ele>
        <time>2019-10-19T15:09:45Z</time>
      </trkpt>
      <trkpt lat="38.3490810" lon="-0.6879760">
        <ele>323.0</ele>
        <time>2019-10-19T15:09:46Z</time>
      </trkpt>
      <trkpt lat="38.3490720" lon="-0.6879290">
        <ele>323.4</ele>
        <time>2019-10-19T15:09:47Z</time>
      </trkpt>
      <trkpt lat="38.3490640" lon="-0.6878810">
        <ele>323.6</ele>
        <time>2019-10-19T15:09:48Z</time>
      </trkpt>
      <trkpt lat="38.3490560" lon="-0.6878330">
        <ele>323.6</ele>
        <time>2019-10-19T15:09:49Z</time>
      </trkpt>
      <trkpt lat="38.3490500" lon="-0.6877840">
        <ele>323.4</ele>
        <time>2019-10-19T15:09:50Z</time>
      </trkpt>
      <trkpt lat="38.3490440" lon="-0.6877360">
        <ele>323.6</ele>
        <time>2019-10-19T15:09:51Z</time>
      </trkpt>
      <trkpt lat="38.3490380" lon="-0.6876870">
        <ele>324.0</ele>
        <time>2019-10-19T15:09:52Z</time>
      </trkpt>
      <trkpt lat="38.3490320" lon="-0.6876360">
        <ele>324.2</ele>
        <time>2019-10-19T15:09:53Z</time>
      </trkpt>
      <trkpt lat="38.3490290" lon="-0.6875840">
        <ele>324.2</ele>
        <time>2019-10-19T15:09:54Z</time>
      </trkpt>
      <trkpt lat="38.3490280" lon="-0.6875320">
        <ele>324.4</ele>
        <time>2019-10-19T15:09:55Z</time>
      </trkpt>
      <trkpt lat="38.3490280" lon="-0.6874810">
        <ele>324.4</ele>
        <time>2019-10-19T15:09:56Z</time>
      </trkpt>
      <trkpt lat="38.3490270" lon="-0.6874300">
        <ele>324.6</ele>
        <time>2019-10-19T15:09:57Z</time>
      </trkpt>
      <trkpt lat="38.3490290" lon="-0.6873790">
        <ele>324.8</ele>
        <time>2019-10-19T15:09:58Z</time>
      </trkpt>
      <trkpt lat="38.3490300" lon="-0.6873280">
        <ele>324.8</ele>
        <time>2019-10-19T15:09:59Z</time>
      </trkpt>
      <trkpt lat="38.3490310" lon="-0.6872780">
        <ele>324.8</ele>
        <time>2019-10-19T15:10:00Z</time>
      </trkpt>
      <trkpt lat="38.3490290" lon="-0.6872290">
        <ele>325.0</ele>
        <time>2019-10-19T15:10:01Z</time>
      </trkpt>
      <trkpt lat="38.3490290" lon="-0.6871780">
        <ele>325.2</ele>
        <time>2019-10-19T15:10:02Z</time>
      </trkpt>
      <trkpt lat="38.3490290" lon="-0.6871270">
        <ele>325.2</ele>
        <time>2019-10-19T15:10:03Z</time>
      </trkpt>
      <trkpt lat="38.3490300" lon="-0.6870760">
        <ele>325.4</ele>
        <time>2019-10-19T15:10:04Z</time>
      </trkpt>
      <trkpt lat="38.3490320" lon="-0.6870240">
        <ele>325.8</ele>
        <time>2019-10-19T15:10:05Z</time>
      </trkpt>
      <trkpt lat="38.3490360" lon="-0.6869720">
        <ele>325.8</ele>
        <time>2019-10-19T15:10:06Z</time>
      </trkpt>
      <trkpt lat="38.3490380" lon="-0.6869200">
        <ele>325.8</ele>
        <time>2019-10-19T15:10:07Z</time>
      </trkpt>
      <trkpt lat="38.3490410" lon="-0.6868690">
        <ele>326.2</ele>
        <time>2019-10-19T15:10:08Z</time>
      </trkpt>
      <trkpt lat="38.3490430" lon="-0.6868170">
        <ele>326.4</ele>
        <time>2019-10-19T15:10:09Z</time>
      </trkpt>
      <trkpt lat="38.3490440" lon="-0.6867660">
        <ele>326.6</ele>
        <time>2019-10-19T15:10:10Z</time>
      </trkpt>
      <trkpt lat="38.3490470" lon="-0.6867130">
        <ele>326.8</ele>
        <time>2019-10-19T15:10:11Z</time>
      </trkpt>
      <trkpt lat="38.3490490" lon="-0.6866600">
        <ele>327.0</ele>
        <time>2019-10-19T15:10:12Z</time>
      </trkpt>
      <trkpt lat="38.3490510" lon="-0.6866080">
        <ele>327.0</ele>
        <time>2019-10-19T15:10:13Z</time>
      </trkpt>
      <trkpt lat="38.3490520" lon="-0.6865560">
        <ele>327.0</ele>
        <time>2019-10-19T15:10:14Z</time>
      </trkpt>
      <trkpt lat="38.3490540" lon="-0.6865030">
        <ele>327.4</ele>
        <time>2019-10-19T15:10:15Z</time>
      </trkpt>
      <trkpt lat="38.3490560" lon="-0.6864500">
        <ele>327.4</ele>
        <time>2019-10-19T15:10:16Z</time>
      </trkpt>
      <trkpt lat="38.3490590" lon="-0.6863970">
        <ele>327.6</ele>
        <time>2019-10-19T15:10:17Z</time>
      </trkpt>
      <trkpt lat="38.3490620" lon="-0.6863430">
        <ele>327.8</ele>
        <time>2019-10-19T15:10:18Z</time>
      </trkpt>
      <trkpt lat="38.3490650" lon="-0.6862910">
        <ele>328.0</ele>
        <time>2019-10-19T15:10:19Z</time>
      </trkpt>
      <trkpt lat="38.3490700" lon="-0.6862400">
        <ele>328.2</ele>
        <time>2019-10-19T15:10:20Z</time>
      </trkpt>
      <trkpt lat="38.3490770" lon="-0.6861900">
        <ele>328.4</ele>
        <time>2019-10-19T15:10:21Z</time>
      </trkpt>
      <trkpt lat="38.3490840" lon="-0.6861410">
        <ele>328.4</ele>
        <time>2019-10-19T15:10:22Z</time>
      </trkpt>
      <trkpt lat="38.3490920" lon="-0.6860900">
        <ele>328.6</ele>
        <time>2019-10-19T15:10:23Z</time>
      </trkpt>
      <trkpt lat="38.3491010" lon="-0.6860390">
        <ele>328.8</ele>
        <time>2019-10-19T15:10:24Z</time>
      </trkpt>
      <trkpt lat="38.3491100" lon="-0.6859860">
        <ele>328.8</ele>
        <time>2019-10-19T15:10:25Z</time>
      </trkpt>
      <trkpt lat="38.3491210" lon="-0.6859340">
        <ele>328.8</ele>
        <time>2019-10-19T15:10:26Z</time>
      </trkpt>
      <trkpt lat="38.3491310" lon="-0.6858840">
        <ele>329.0</ele>
        <time>2019-10-19T15:10:27Z</time>
      </trkpt>
      <trkpt lat="38.3491430" lon="-0.6858340">
        <ele>329.2</ele>
        <time>2019-10-19T15:10:28Z</time>
      </trkpt>
      <trkpt lat="38.3491550" lon="-0.6857820">
        <ele>329.2</ele>
        <time>2019-10-19T15:10:29Z</time>
      </trkpt>
      <trkpt lat="38.3491670" lon="-0.6857290">
        <ele>329.4</ele>
        <time>2019-10-19T15:10:30Z</time>
      </trkpt>
      <trkpt lat="38.3491810" lon="-0.6856770">
        <ele>329.4</ele>
        <time>2019-10-19T15:10:31Z</time>
      </trkpt>
      <trkpt lat="38.3491960" lon="-0.6856250">
        <ele>329.4</ele>
        <time>2019-10-19T15:10:32Z</time>
      </trkpt>
      <trkpt lat="38.3492090" lon="-0.6855730">
        <ele>329.6</ele>
        <time>2019-10-19T15:10:33Z</time>
      </trkpt>
      <trkpt lat="38.3492250" lon="-0.6855190">
        <ele>330.0</ele>
        <time>2019-10-19T15:10:34Z</time>
      </trkpt>
      <trkpt lat="38.3492400" lon="-0.6854660">
        <ele>330.4</ele>
        <time>2019-10-19T15:10:35Z</time>
      </trkpt>
      <trkpt lat="38.3492570" lon="-0.6854160">
        <ele>330.4</ele>
        <time>2019-10-19T15:10:36Z</time>
      </trkpt>
      <trkpt lat="38.3492740" lon="-0.6853640">
        <ele>330.6</ele>
        <time>2019-10-19T15:10:37Z</time>
      </trkpt>
      <trkpt lat="38.3492890" lon="-0.6853130">
        <ele>330.6</ele>
        <time>2019-10-19T15:10:38Z</time>
      </trkpt>
      <trkpt lat="38.3493050" lon="-0.6852610">
        <ele>331.0</ele>
        <time>2019-10-19T15:10:39Z</time>
      </trkpt>
      <trkpt lat="38.3493220" lon="-0.6852100">
        <ele>331.2</ele>
        <time>2019-10-19T15:10:40Z</time>
      </trkpt>
      <trkpt lat="38.3493410" lon="-0.6851610">
        <ele>331.4</ele>
        <time>2019-10-19T15:10:41Z</time>
      </trkpt>
      <trkpt lat="38.3493600" lon="-0.6851130">
        <ele>331.6</ele>
        <time>2019-10-19T15:10:42Z</time>
      </trkpt>
      <trkpt lat="38.3493810" lon="-0.6850640">
        <ele>331.8</ele>
        <time>2019-10-19T15:10:43Z</time>
      </trkpt>
      <trkpt lat="38.3494010" lon="-0.6850150">
        <ele>332.0</ele>
        <time>2019-10-19T15:10:44Z</time>
      </trkpt>
      <trkpt lat="38.3494220" lon="-0.6849660">
        <ele>332.2</ele>
        <time>2019-10-19T15:10:45Z</time>
      </trkpt>
      <trkpt lat="38.3494430" lon="-0.6849180">
        <ele>332.4</ele>
        <time>2019-10-19T15:10:46Z</time>
      </trkpt>
      <trkpt lat="38.3494640" lon="-0.6848700">
        <ele>332.6</ele>
        <time>2019-10-19T15:10:47Z</time>
      </trkpt>
      <trkpt lat="38.3494870" lon="-0.6848240">
        <ele>332.8</ele>
        <time>2019-10-19T15:10:48Z</time>
      </trkpt>
      <trkpt lat="38.3495140" lon="-0.6847750">
        <ele>333.0</ele>
        <time>2019-10-19T15:10:49Z</time>
      </trkpt>
      <trkpt lat="38.3495350" lon="-0.6847280">
        <ele>333.2</ele>
        <time>2019-10-19T15:10:50Z</time>
      </trkpt>
      <trkpt lat="38.3495570" lon="-0.6846810">
        <ele>333.4</ele>
        <time>2019-10-19T15:10:51Z</time>
      </trkpt>
      <trkpt lat="38.3495770" lon="-0.6846330">
        <ele>333.6</ele>
        <time>2019-10-19T15:10:52Z</time>
      </trkpt>
      <trkpt lat="38.3495980" lon="-0.6845870">
        <ele>334.0</ele>
        <time>2019-10-19T15:10:53Z</time>
      </trkpt>
      <trkpt lat="38.3496200" lon="-0.6845400">
        <ele>334.2</ele>
        <time>2019-10-19T15:10:54Z</time>
      </trkpt>
      <trkpt lat="38.3496400" lon="-0.6844940">
        <ele>334.4</ele>
        <time>2019-10-19T15:10:55Z</time>
      </trkpt>
      <trkpt lat="38.3496590" lon="-0.6844470">
        <ele>334.6</ele>
        <time>2019-10-19T15:10:56Z</time>
      </trkpt>
      <trkpt lat="38.3496770" lon="-0.6843990">
        <ele>334.8</ele>
        <time>2019-10-19T15:10:57Z</time>
      </trkpt>
      <trkpt lat="38.3496960" lon="-0.6843490">
        <ele>334.8</ele>
        <time>2019-10-19T15:10:58Z</time>
      </trkpt>
      <trkpt lat="38.3497180" lon="-0.6843010">
        <ele>335.0</ele>
        <time>2019-10-19T15:10:59Z</time>
      </trkpt>
      <trkpt lat="38.3497400" lon="-0.6842510">
        <ele>335.2</ele>
        <time>2019-10-19T15:11:00Z</time>
      </trkpt>
      <trkpt lat="38.3497590" lon="-0.6842000">
        <ele>335.2</ele>
        <time>2019-10-19T15:11:01Z</time>
      </trkpt>
      <trkpt lat="38.3497760" lon="-0.6841470">
        <ele>335.4</ele>
        <time>2019-10-19T15:11:02Z</time>
      </trkpt>
      <trkpt lat="38.3497910" lon="-0.6840920">
        <ele>335.4</ele>
        <time>2019-10-19T15:11:03Z</time>
      </trkpt>
      <trkpt lat="38.3498050" lon="-0.6840370">
        <ele>335.4</ele>
        <time>2019-10-19T15:11:04Z</time>
      </trkpt>
      <trkpt lat="38.3498190" lon="-0.6839830">
        <ele>335.6</ele>
        <time>2019-10-19T15:11:05Z</time>
      </trkpt>
      <trkpt lat="38.3498310" lon="-0.6839270">
        <ele>335.6</ele>
        <time>2019-10-19T15:11:06Z</time>
      </trkpt>
      <trkpt lat="38.3498410" lon="-0.6838680">
        <ele>335.4</ele>
        <time>2019-10-19T15:11:07Z</time>
      </trkpt>
      <trkpt lat="38.3498500" lon="-0.6838070">
        <ele>335.8</ele>
        <time>2019-10-19T15:11:08Z</time>
      </trkpt>
      <trkpt lat="38.3498590" lon="-0.6837420">
        <ele>335.4</ele>
        <time>2019-10-19T15:11:09Z</time>
      </trkpt>
      <trkpt lat="38.3498680" lon="-0.6836770">
        <ele>335.4</ele>
        <time>2019-10-19T15:11:10Z</time>
      </trkpt>
      <trkpt lat="38.3498770" lon="-0.6836090">
        <ele>335.2</ele>
        <time>2019-10-19T15:11:11Z</time>
      </trkpt>
      <trkpt lat="38.3498840" lon="-0.6835400">
        <ele>335.2</ele>
        <time>2019-10-19T15:11:12Z</time>
      </trkpt>
      <trkpt lat="38.3498900" lon="-0.6834690">
        <ele>335.2</ele>
        <time>2019-10-19T15:11:13Z</time>
      </trkpt>
      <trkpt lat="38.3498910" lon="-0.6833940">
        <ele>335.0</ele>
        <time>2019-10-19T15:11:14Z</time>
      </trkpt>
      <trkpt lat="38.3498900" lon="-0.6833140">
        <ele>334.6</ele>
        <time>2019-10-19T15:11:15Z</time>
      </trkpt>
      <trkpt lat="38.3498890" lon="-0.6832300">
        <ele>334.4</ele>
        <time>2019-10-19T15:11:16Z</time>
      </trkpt>
      <trkpt lat="38.3498860" lon="-0.6831420">
        <ele>333.8</ele>
        <time>2019-10-19T15:11:17Z</time>
      </trkpt>
      <trkpt lat="38.3498800" lon="-0.6830510">
        <ele>333.6</ele>
        <time>2019-10-19T15:11:18Z</time>
      </trkpt>
      <trkpt lat="38.3498680" lon="-0.6829590">
        <ele>333.0</ele>
        <time>2019-10-19T15:11:19Z</time>
      </trkpt>
      <trkpt lat="38.3498530" lon="-0.6828670">
        <ele>332.6</ele>
        <time>2019-10-19T15:11:20Z</time>
      </trkpt>
      <trkpt lat="38.3498360" lon="-0.6827720">
        <ele>332.4</ele>
        <time>2019-10-19T15:11:21Z</time>
      </trkpt>
      <trkpt lat="38.3498180" lon="-0.6826730">
        <ele>332.0</ele>
        <time>2019-10-19T15:11:22Z</time>
      </trkpt>
      <trkpt lat="38.3497980" lon="-0.6825710">
        <ele>331.4</ele>
        <time>2019-10-19T15:11:23Z</time>
      </trkpt>
      <trkpt lat="38.3497780" lon="-0.6824670">
        <ele>331.0</ele>
        <time>2019-10-19T15:11:24Z</time>
      </trkpt>
      <trkpt lat="38.3497580" lon="-0.6823630">
        <ele>330.6</ele>
        <time>2019-10-19T15:11:25Z</time>
      </trkpt>
      <trkpt lat="38.3497390" lon="-0.6822570">
        <ele>330.4</ele>
        <time>2019-10-19T15:11:26Z</time>
      </trkpt>
      <trkpt lat="38.3497240" lon="-0.6821520">
        <ele>330.2</ele>
        <time>2019-10-19T15:11:27Z</time>
      </trkpt>
      <trkpt lat="38.3497110" lon="-0.6820450">
        <ele>330.2</ele>
        <time>2019-10-19T15:11:28Z</time>
      </trkpt>
      <trkpt lat="38.3497030" lon="-0.6819370">
        <ele>329.8</ele>
        <time>2019-10-19T15:11:29Z</time>
      </trkpt>
      <trkpt lat="38.3496960" lon="-0.6818300">
        <ele>329.6</ele>
        <time>2019-10-19T15:11:30Z</time>
      </trkpt>
      <trkpt lat="38.3496920" lon="-0.6817250">
        <ele>329.4</ele>
        <time>2019-10-19T15:11:31Z</time>
      </trkpt>
      <trkpt lat="38.3496910" lon="-0.6816210">
        <ele>329.2</ele>
        <time>2019-10-19T15:11:32Z</time>
      </trkpt>
      <trkpt lat="38.3496930" lon="-0.6815190">
        <ele>329.0</ele>
        <time>2019-10-19T15:11:33Z</time>
      </trkpt>
      <trkpt lat="38.3496970" lon="-0.6814170">
        <ele>329.2</ele>
        <time>2019-10-19T15:11:34Z</time>
      </trkpt>
      <trkpt lat="38.3497010" lon="-0.6813160">
        <ele>328.8</ele>
        <time>2019-10-19T15:11:35Z</time>
      </trkpt>
      <trkpt lat="38.3497060" lon="-0.6812100">
        <ele>328.4</ele>
        <time>2019-10-19T15:11:36Z</time>
      </trkpt>
      <trkpt lat="38.3497090" lon="-0.6811030">
        <ele>327.6</ele>
        <time>2019-10-19T15:11:37Z</time>
      </trkpt>
      <trkpt lat="38.3497140" lon="-0.6809910">
        <ele>326.6</ele>
        <time>2019-10-19T15:11:38Z</time>
      </trkpt>
      <trkpt lat="38.3497190" lon="-0.6808770">
        <ele>325.8</ele>
        <time>2019-10-19T15:11:39Z</time>
      </trkpt>
      <trkpt lat="38.3497240" lon="-0.6807580">
        <ele>325.2</ele>
        <time>2019-10-19T15:11:40Z</time>
      </trkpt>
      <trkpt lat="38.3497270" lon="-0.6806390">
        <ele>324.2</ele>
        <time>2019-10-19T15:11:41Z</time>
      </trkpt>
      <trkpt lat="38.3497330" lon="-0.6805160">
        <ele>323.8</ele>
        <time>2019-10-19T15:11:42Z</time>
      </trkpt>
      <trkpt lat="38.3497380" lon="-0.6803910">
        <ele>323.0</ele>
        <time>2019-10-19T15:11:43Z</time>
      </trkpt>
      <trkpt lat="38.3497440" lon="-0.6802640">
        <ele>322.4</ele>
        <time>2019-10-19T15:11:44Z</time>
      </trkpt>
      <trkpt lat="38.3497470" lon="-0.6801360">
        <ele>321.6</ele>
        <time>2019-10-19T15:11:45Z</time>
      </trkpt>
      <trkpt lat="38.3497450" lon="-0.6800050">
        <ele>321.0</ele>
        <time>2019-10-19T15:11:46Z</time>
      </trkpt>
      <trkpt lat="38.3497370" lon="-0.6798720">
        <ele>320.2</ele>
        <time>2019-10-19T15:11:47Z</time>
      </trkpt>
      <trkpt lat="38.3497220" lon="-0.6797390">
        <ele>319.4</ele>
        <time>2019-10-19T15:11:48Z</time>
      </trkpt>
      <trkpt lat="38.3497000" lon="-0.6796020">
        <ele>318.4</ele>
        <time>2019-10-19T15:11:49Z</time>
      </trkpt>
      <trkpt lat="38.3496740" lon="-0.6794660">
        <ele>317.6</ele>
        <time>2019-10-19T15:11:50Z</time>
      </trkpt>
      <trkpt lat="38.3496480" lon="-0.6793300">
        <ele>316.8</ele>
        <time>2019-10-19T15:11:51Z</time>
      </trkpt>
      <trkpt lat="38.3496220" lon="-0.6791930">
        <ele>315.8</ele>
        <time>2019-10-19T15:11:52Z</time>
      </trkpt>
      <trkpt lat="38.3495940" lon="-0.6790540">
        <ele>315.2</ele>
        <time>2019-10-19T15:11:53Z</time>
      </trkpt>
      <trkpt lat="38.3495630" lon="-0.6789140">
        <ele>314.4</ele>
        <time>2019-10-19T15:11:54Z</time>
      </trkpt>
      <trkpt lat="38.3495340" lon="-0.6787720">
        <ele>313.6</ele>
        <time>2019-10-19T15:11:55Z</time>
      </trkpt>
      <trkpt lat="38.3495050" lon="-0.6786280">
        <ele>312.4</ele>
        <time>2019-10-19T15:11:56Z</time>
      </trkpt>
      <trkpt lat="38.3494760" lon="-0.6784820">
        <ele>311.4</ele>
        <time>2019-10-19T15:11:57Z</time>
      </trkpt>
      <trkpt lat="38.3494470" lon="-0.6783350">
        <ele>310.4</ele>
        <time>2019-10-19T15:11:58Z</time>
      </trkpt>
      <trkpt lat="38.3494210" lon="-0.6781870">
        <ele>309.6</ele>
        <time>2019-10-19T15:11:59Z</time>
      </trkpt>
      <trkpt lat="38.3493970" lon="-0.6780390">
        <ele>308.8</ele>
        <time>2019-10-19T15:12:00Z</time>
      </trkpt>
      <trkpt lat="38.3493750" lon="-0.6778910">
        <ele>308.0</ele>
        <time>2019-10-19T15:12:01Z</time>
      </trkpt>
      <trkpt lat="38.3493570" lon="-0.6777460">
        <ele>307.6</ele>
        <time>2019-10-19T15:12:02Z</time>
      </trkpt>
      <trkpt lat="38.3493400" lon="-0.6776040">
        <ele>307.2</ele>
        <time>2019-10-19T15:12:03Z</time>
      </trkpt>
      <trkpt lat="38.3493240" lon="-0.6774650">
        <ele>307.0</ele>
        <time>2019-10-19T15:12:04Z</time>
      </trkpt>
      <trkpt lat="38.3493080" lon="-0.6773290">
        <ele>307.0</ele>
        <time>2019-10-19T15:12:05Z</time>
      </trkpt>
      <trkpt lat="38.3492920" lon="-0.6771950">
        <ele>306.6</ele>
        <time>2019-10-19T15:12:06Z</time>
      </trkpt>
      <trkpt lat="38.3492760" lon="-0.6770630">
        <ele>306.6</ele>
        <time>2019-10-19T15:12:07Z</time>
      </trkpt>
      <trkpt lat="38.3492580" lon="-0.6769340">
        <ele>306.2</ele>
        <time>2019-10-19T15:12:08Z</time>
      </trkpt>
      <trkpt lat="38.3492420" lon="-0.6768060">
        <ele>306.2</ele>
        <time>2019-10-19T15:12:09Z</time>
      </trkpt>
      <trkpt lat="38.3492280" lon="-0.6766820">
        <ele>305.8</ele>
        <time>2019-10-19T15:12:10Z</time>
      </trkpt>
      <trkpt lat="38.3492140" lon="-0.6765570">
        <ele>305.6</ele>
        <time>2019-10-19T15:12:11Z</time>
      </trkpt>
      <trkpt lat="38.3492010" lon="-0.6764380">
        <ele>305.6</ele>
        <time>2019-10-19T15:12:12Z</time>
      </trkpt>
      <trkpt lat="38.3491890" lon="-0.6763210">
        <ele>305.6</ele>
        <time>2019-10-19T15:12:13Z</time>
      </trkpt>
      <trkpt lat="38.3491760" lon="-0.6762070">
        <ele>305.6</ele>
        <time>2019-10-19T15:12:14Z</time>
      </trkpt>
      <trkpt lat="38.3491650" lon="-0.6760940">
        <ele>305.6</ele>
        <time>2019-10-19T15:12:15Z</time>
      </trkpt>
      <trkpt lat="38.3491570" lon="-0.6759870">
        <ele>305.8</ele>
        <time>2019-10-19T15:12:16Z</time>
      </trkpt>
      <trkpt lat="38.3491520" lon="-0.6758790">
        <ele>305.6</ele>
        <time>2019-10-19T15:12:17Z</time>
      </trkpt>
      <trkpt lat="38.3491480" lon="-0.6757670">
        <ele>305.2</ele>
        <time>2019-10-19T15:12:18Z</time>
      </trkpt>
      <trkpt lat="38.3491440" lon="-0.6756510">
        <ele>304.4</ele>
        <time>2019-10-19T15:12:19Z</time>
      </trkpt>
      <trkpt lat="38.3491420" lon="-0.6755300">
        <ele>303.8</ele>
        <time>2019-10-19T15:12:20Z</time>
      </trkpt>
      <trkpt lat="38.3491400" lon="-0.6754060">
        <ele>303.4</ele>
        <time>2019-10-19T15:12:21Z</time>
      </trkpt>
      <trkpt lat="38.3491380" lon="-0.6752780">
        <ele>302.6</ele>
        <time>2019-10-19T15:12:22Z</time>
      </trkpt>
      <trkpt lat="38.3491370" lon="-0.6751490">
        <ele>302.0</ele>
        <time>2019-10-19T15:12:23Z</time>
      </trkpt>
      <trkpt lat="38.3491350" lon="-0.6750170">
        <ele>301.4</ele>
        <time>2019-10-19T15:12:24Z</time>
      </trkpt>
      <trkpt lat="38.3491310" lon="-0.6748840">
        <ele>300.6</ele>
        <time>2019-10-19T15:12:25Z</time>
      </trkpt>
      <trkpt lat="38.3491270" lon="-0.6747490">
        <ele>300.0</ele>
        <time>2019-10-19T15:12:26Z</time>
      </trkpt>
      <trkpt lat="38.3491240" lon="-0.6746110">
        <ele>299.4</ele>
        <time>2019-10-19T15:12:27Z</time>
      </trkpt>
      <trkpt lat="38.3491220" lon="-0.6744720">
        <ele>298.8</ele>
        <time>2019-10-19T15:12:28Z</time>
      </trkpt>
      <trkpt lat="38.3491210" lon="-0.6743310">
        <ele>297.8</ele>
        <time>2019-10-19T15:12:29Z</time>
      </trkpt>
      <trkpt lat="38.3491210" lon="-0.6741900">
        <ele>297.2</ele>
        <time>2019-10-19T15:12:30Z</time>
      </trkpt>
      <trkpt lat="38.3491200" lon="-0.6740490">
        <ele>296.4</ele>
        <time>2019-10-19T15:12:31Z</time>
      </trkpt>
      <trkpt lat="38.3491190" lon="-0.6739060">
        <ele>295.6</ele>
        <time>2019-10-19T15:12:32Z</time>
      </trkpt>
      <trkpt lat="38.3491160" lon="-0.6737620">
        <ele>294.8</ele>
        <time>2019-10-19T15:12:33Z</time>
      </trkpt>
      <trkpt lat="38.3491130" lon="-0.6736190">
        <ele>294.0</ele>
        <time>2019-10-19T15:12:34Z</time>
      </trkpt>
      <trkpt lat="38.3491120" lon="-0.6734770">
        <ele>293.4</ele>
        <time>2019-10-19T15:12:35Z</time>
      </trkpt>
      <trkpt lat="38.3491100" lon="-0.6733350">
        <ele>292.8</ele>
        <time>2019-10-19T15:12:36Z</time>
      </trkpt>
      <trkpt lat="38.3491100" lon="-0.6731950">
        <ele>292.2</ele>
        <time>2019-10-19T15:12:37Z</time>
      </trkpt>
      <trkpt lat="38.3491100" lon="-0.6730550">
        <ele>291.4</ele>
        <time>2019-10-19T15:12:38Z</time>
      </trkpt>
      <trkpt lat="38.3491090" lon="-0.6729150">
        <ele>290.8</ele>
        <time>2019-10-19T15:12:39Z</time>
      </trkpt>
      <trkpt lat="38.3491100" lon="-0.6727770">
        <ele>290.4</ele>
        <time>2019-10-19T15:12:40Z</time>
      </trkpt>
      <trkpt lat="38.3491140" lon="-0.6726380">
        <ele>290.0</ele>
        <time>2019-10-19T15:12:41Z</time>
      </trkpt>
      <trkpt lat="38.3491240" lon="-0.6725020">
        <ele>289.2</ele>
        <time>2019-10-19T15:12:42Z</time>
      </trkpt>
      <trkpt lat="38.3491390" lon="-0.6723680">
        <ele>288.6</ele>
        <time>2019-10-19T15:12:43Z</time>
      </trkpt>
      <trkpt lat="38.3491590" lon="-0.6722370">
        <ele>288.4</ele>
        <time>2019-10-19T15:12:44Z</time>
      </trkpt>
      <trkpt lat="38.3491790" lon="-0.6721090">
        <ele>288.4</ele>
        <time>2019-10-19T15:12:45Z</time>
      </trkpt>
      <trkpt lat="38.3492000" lon="-0.6719850">
        <ele>287.8</ele>
        <time>2019-10-19T15:12:46Z</time>
      </trkpt>
      <trkpt lat="38.3492200" lon="-0.6718630">
        <ele>287.6</ele>
        <time>2019-10-19T15:12:47Z</time>
      </trkpt>
      <trkpt lat="38.3492410" lon="-0.6717450">
        <ele>287.2</ele>
        <time>2019-10-19T15:12:48Z</time>
      </trkpt>
      <trkpt lat="38.3492610" lon="-0.6716300">
        <ele>287.2</ele>
        <time>2019-10-19T15:12:49Z</time>
      </trkpt>
      <trkpt lat="38.3492800" lon="-0.6715170">
        <ele>287.2</ele>
        <time>2019-10-19T15:12:50Z</time>
      </trkpt>
      <trkpt lat="38.3492980" lon="-0.6714060">
        <ele>287.2</ele>
        <time>2019-10-19T15:12:51Z</time>
      </trkpt>
      <trkpt lat="38.3493160" lon="-0.6712980">
        <ele>287.0</ele>
        <time>2019-10-19T15:12:52Z</time>
      </trkpt>
      <trkpt lat="38.3493340" lon="-0.6711910">
        <ele>286.8</ele>
        <time>2019-10-19T15:12:53Z</time>
      </trkpt>
      <trkpt lat="38.3493520" lon="-0.6710870">
        <ele>286.6</ele>
        <time>2019-10-19T15:12:54Z</time>
      </trkpt>
      <trkpt lat="38.3493700" lon="-0.6709820">
        <ele>286.4</ele>
        <time>2019-10-19T15:12:55Z</time>
      </trkpt>
      <trkpt lat="38.3493880" lon="-0.6708740">
        <ele>285.6</ele>
        <time>2019-10-19T15:12:56Z</time>
      </trkpt>
      <trkpt lat="38.3494060" lon="-0.6707630">
        <ele>285.0</ele>
        <time>2019-10-19T15:12:57Z</time>
      </trkpt>
      <trkpt lat="38.3494270" lon="-0.6706480">
        <ele>284.2</ele>
        <time>2019-10-19T15:12:58Z</time>
      </trkpt>
      <trkpt lat="38.3494520" lon="-0.6705310">
        <ele>283.0</ele>
        <time>2019-10-19T15:12:59Z</time>
      </trkpt>
      <trkpt lat="38.3494800" lon="-0.6704100">
        <ele>282.0</ele>
        <time>2019-10-19T15:13:00Z</time>
      </trkpt>
      <trkpt lat="38.3495060" lon="-0.6702880">
        <ele>281.2</ele>
        <time>2019-10-19T15:13:01Z</time>
      </trkpt>
      <trkpt lat="38.3495190" lon="-0.6701640">
        <ele>280.6</ele>
        <time>2019-10-19T15:13:02Z</time>
      </trkpt>
      <trkpt lat="38.3495110" lon="-0.6700490">
        <ele>280.2</ele>
        <time>2019-10-19T15:13:03Z</time>
      </trkpt>
      <trkpt lat="38.3494780" lon="-0.6699520">
        <ele>279.6</ele>
        <time>2019-10-19T15:13:04Z</time>
      </trkpt>
      <trkpt lat="38.3494270" lon="-0.6698780">
        <ele>279.0</ele>
        <time>2019-10-19T15:13:05Z</time>
      </trkpt>
      <trkpt lat="38.3493660" lon="-0.6698310">
        <ele>278.8</ele>
        <time>2019-10-19T15:13:06Z</time>
      </trkpt>
      <trkpt lat="38.3493060" lon="-0.6698190">
        <ele>278.8</ele>
        <time>2019-10-19T15:13:07Z</time>
      </trkpt>
      <trkpt lat="38.3492530" lon="-0.6698340">
        <ele>279.2</ele>
        <time>2019-10-19T15:13:08Z</time>
      </trkpt>
      <trkpt lat="38.3492060" lon="-0.6698510">
        <ele>279.6</ele>
        <time>2019-10-19T15:13:09Z</time>
      </trkpt>
      <trkpt lat="38.3491640" lon="-0.6698470">
        <ele>279.8</ele>
        <time>2019-10-19T15:13:10Z</time>
      </trkpt>
      <trkpt lat="38.3491280" lon="-0.6698230">
        <ele>280.2</ele>
        <time>2019-10-19T15:13:11Z</time>
      </trkpt>
      <trkpt lat="38.3490990" lon="-0.6697900">
        <ele>280.6</ele>
        <time>2019-10-19T15:13:12Z</time>
      </trkpt>
      <trkpt lat="38.3490720" lon="-0.6697510">
        <ele>280.8</ele>
        <time>2019-10-19T15:13:13Z</time>
      </trkpt>
      <trkpt lat="38.3490470" lon="-0.6697060">
        <ele>280.8</ele>
        <time>2019-10-19T15:13:14Z</time>
      </trkpt>
      <trkpt lat="38.3490200" lon="-0.6696590">
        <ele>280.8</ele>
        <time>2019-10-19T15:13:15Z</time>
      </trkpt>
      <trkpt lat="38.3489950" lon="-0.6696140">
        <ele>280.8</ele>
        <time>2019-10-19T15:13:16Z</time>
      </trkpt>
      <trkpt lat="38.3489640" lon="-0.6695680">
        <ele>280.8</ele>
        <time>2019-10-19T15:13:17Z</time>
      </trkpt>
      <trkpt lat="38.3489320" lon="-0.6695230">
        <ele>280.8</ele>
        <time>2019-10-19T15:13:18Z</time>
      </trkpt>
      <trkpt lat="38.3488970" lon="-0.6694780">
        <ele>280.8</ele>
        <time>2019-10-19T15:13:19Z</time>
      </trkpt>
      <trkpt lat="38.3488610" lon="-0.6694320">
        <ele>280.8</ele>
        <time>2019-10-19T15:13:20Z</time>
      </trkpt>
      <trkpt lat="38.3488240" lon="-0.6693860">
        <ele>280.8</ele>
        <time>2019-10-19T15:13:21Z</time>
      </trkpt>
      <trkpt lat="38.3487830" lon="-0.6693410">
        <ele>280.8</ele>
        <time>2019-10-19T15:13:22Z</time>
      </trkpt>
      <trkpt lat="38.3487390" lon="-0.6692960">
        <ele>280.8</ele>
        <time>2019-10-19T15:13:23Z</time>
      </trkpt>
      <trkpt lat="38.3486920" lon="-0.6692520">
        <ele>280.4</ele>
        <time>2019-10-19T15:13:24Z</time>
      </trkpt>
      <trkpt lat="38.3486430" lon="-0.6692100">
        <ele>280.2</ele>
        <time>2019-10-19T15:13:25Z</time>
      </trkpt>
      <trkpt lat="38.3485890" lon="-0.6691680">
        <ele>279.6</ele>
        <time>2019-10-19T15:13:26Z</time>
      </trkpt>
      <trkpt lat="38.3485310" lon="-0.6691280">
        <ele>279.2</ele>
        <time>2019-10-19T15:13:27Z</time>
      </trkpt>
      <trkpt lat="38.3484680" lon="-0.6690900">
        <ele>278.8</ele>
        <time>2019-10-19T15:13:28Z</time>
      </trkpt>
      <trkpt lat="38.3484000" lon="-0.6690520">
        <ele>278.0</ele>
        <time>2019-10-19T15:13:29Z</time>
      </trkpt>
      <trkpt lat="38.3483280" lon="-0.6690130">
        <ele>277.4</ele>
        <time>2019-10-19T15:13:30Z</time>
      </trkpt>
      <trkpt lat="38.3482540" lon="-0.6689700">
        <ele>276.8</ele>
        <time>2019-10-19T15:13:31Z</time>
      </trkpt>
      <trkpt lat="38.3481770" lon="-0.6689240">
        <ele>276.0</ele>
        <time>2019-10-19T15:13:32Z</time>
      </trkpt>
      <trkpt lat="38.3480970" lon="-0.6688780">
        <ele>275.6</ele>
        <time>2019-10-19T15:13:33Z</time>
      </trkpt>
      <trkpt lat="38.3480150" lon="-0.6688300">
        <ele>275.2</ele>
        <time>2019-10-19T15:13:34Z</time>
      </trkpt>
      <trkpt lat="38.3479330" lon="-0.6687810">
        <ele>274.4</ele>
        <time>2019-10-19T15:13:35Z</time>
      </trkpt>
      <trkpt lat="38.3478500" lon="-0.6687330">
        <ele>274.4</ele>
        <time>2019-10-19T15:13:36Z</time>
      </trkpt>
      <trkpt lat="38.3477710" lon="-0.6686890">
        <ele>274.2</ele>
        <time>2019-10-19T15:13:37Z</time>
      </trkpt>
      <trkpt lat="38.3476920" lon="-0.6686490">
        <ele>274.2</ele>
        <time>2019-10-19T15:13:38Z</time>
      </trkpt>
      <trkpt lat="38.3476140" lon="-0.6686080">
        <ele>274.2</ele>
        <time>2019-10-19T15:13:39Z</time>
      </trkpt>
      <trkpt lat="38.3475380" lon="-0.6685650">
        <ele>273.8</ele>
        <time>2019-10-19T15:13:40Z</time>
      </trkpt>
      <trkpt lat="38.3474610" lon="-0.6685240">
        <ele>273.8</ele>
        <time>2019-10-19T15:13:41Z</time>
      </trkpt>
      <trkpt lat="38.3473850" lon="-0.6684840">
        <ele>273.6</ele>
        <time>2019-10-19T15:13:42Z</time>
      </trkpt>
      <trkpt lat="38.3473100" lon="-0.6684400">
        <ele>273.4</ele>
        <time>2019-10-19T15:13:43Z</time>
      </trkpt>
      <trkpt lat="38.3472340" lon="-0.6683960">
        <ele>273.2</ele>
        <time>2019-10-19T15:13:44Z</time>
      </trkpt>
      <trkpt lat="38.3471600" lon="-0.6683530">
        <ele>273.2</ele>
        <time>2019-10-19T15:13:45Z</time>
      </trkpt>
      <trkpt lat="38.3470880" lon="-0.6683120">
        <ele>273.2</ele>
        <time>2019-10-19T15:13:46Z</time>
      </trkpt>
      <trkpt lat="38.3470170" lon="-0.6682730">
        <ele>273.2</ele>
        <time>2019-10-19T15:13:47Z</time>
      </trkpt>
      <trkpt lat="38.3469480" lon="-0.6682340">
        <ele>273.4</ele>
        <time>2019-10-19T15:13:48Z</time>
      </trkpt>
      <trkpt lat="38.3468800" lon="-0.6681940">
        <ele>273.6</ele>
        <time>2019-10-19T15:13:49Z</time>
      </trkpt>
      <trkpt lat="38.3468120" lon="-0.6681540">
        <ele>273.2</ele>
        <time>2019-10-19T15:13:50Z</time>
      </trkpt>
      <trkpt lat="38.3467420" lon="-0.6681130">
        <ele>272.6</ele>
        <time>2019-10-19T15:13:51Z</time>
      </trkpt>
      <trkpt lat="38.3466710" lon="-0.6680750">
        <ele>272.0</ele>
        <time>2019-10-19T15:13:52Z</time>
      </trkpt>
      <trkpt lat="38.3465930" lon="-0.6680310">
        <ele>270.6</ele>
        <time>2019-10-19T15:13:53Z</time>
      </trkpt>
      <trkpt lat="38.3465110" lon="-0.6679850">
        <ele>270.4</ele>
        <time>2019-10-19T15:13:54Z</time>
      </trkpt>
      <trkpt lat="38.3464340" lon="-0.6679400">
        <ele>270.8</ele>
        <time>2019-10-19T15:13:55Z</time>
      </trkpt>
      <trkpt lat="38.3463640" lon="-0.6679000">
        <ele>271.4</ele>
        <time>2019-10-19T15:13:56Z</time>
      </trkpt>
      <trkpt lat="38.3462970" lon="-0.6678630">
        <ele>271.6</ele>
        <time>2019-10-19T15:13:57Z</time>
      </trkpt>
      <trkpt lat="38.3462320" lon="-0.6678270">
        <ele>271.8</ele>
        <time>2019-10-19T15:13:58Z</time>
      </trkpt>
      <trkpt lat="38.3461700" lon="-0.6677940">
        <ele>271.6</ele>
        <time>2019-10-19T15:13:59Z</time>
      </trkpt>
      <trkpt lat="38.3461050" lon="-0.6677580">
        <ele>271.2</ele>
        <time>2019-10-19T15:14:00Z</time>
      </trkpt>
      <trkpt lat="38.3460370" lon="-0.6677200">
        <ele>270.4</ele>
        <time>2019-10-19T15:14:01Z</time>
      </trkpt>
      <trkpt lat="38.3459640" lon="-0.6676800">
        <ele>269.6</ele>
        <time>2019-10-19T15:14:02Z</time>
      </trkpt>
      <trkpt lat="38.3458890" lon="-0.6676400">
        <ele>269.2</ele>
        <time>2019-10-19T15:14:03Z</time>
      </trkpt>
      <trkpt lat="38.3458110" lon="-0.6675990">
        <ele>268.6</ele>
        <time>2019-10-19T15:14:04Z</time>
      </trkpt>
      <trkpt lat="38.3457310" lon="-0.6675550">
        <ele>267.8</ele>
        <time>2019-10-19T15:14:05Z</time>
      </trkpt>
      <trkpt lat="38.3456480" lon="-0.6675080">
        <ele>267.0</ele>
        <time>2019-10-19T15:14:06Z</time>
      </trkpt>
      <trkpt lat="38.3455620" lon="-0.6674620">
        <ele>266.4</ele>
        <time>2019-10-19T15:14:07Z</time>
      </trkpt>
      <trkpt lat="38.3454720" lon="-0.6674150">
        <ele>265.6</ele>
        <time>2019-10-19T15:14:08Z</time>
      </trkpt>
      <trkpt lat="38.3453810" lon="-0.6673670">
        <ele>265.0</ele>
        <time>2019-10-19T15:14:09Z</time>
      </trkpt>
      <trkpt lat="38.3452910" lon="-0.6673170">
        <ele>264.4</ele>
        <time>2019-10-19T15:14:10Z</time>
      </trkpt>
      <trkpt lat="38.3451990" lon="-0.6672690">
        <ele>264.0</ele>
        <time>2019-10-19T15:14:11Z</time>
      </trkpt>
      <trkpt lat="38.3451080" lon="-0.6672240">
        <ele>263.4</ele>
        <time>2019-10-19T15:14:12Z</time>
      </trkpt>
      <trkpt lat="38.3450170" lon="-0.6671780">
        <ele>263.2</ele>
        <time>2019-10-19T15:14:13Z</time>
      </trkpt>
      <trkpt lat="38.3449270" lon="-0.6671310">
        <ele>262.8</ele>
        <time>2019-10-19T15:14:14Z</time>
      </trkpt>
      <trkpt lat="38.3448380" lon="-0.6670860">
        <ele>262.4</ele>
        <time>2019-10-19T15:14:15Z</time>
      </trkpt>
      <trkpt lat="38.3447550" lon="-0.6670470">
        <ele>263.2</ele>
        <time>2019-10-19T15:14:16Z</time>
      </trkpt>
      <trkpt lat="38.3446770" lon="-0.6670160">
        <ele>263.6</ele>
        <time>2019-10-19T15:14:17Z</time>
      </trkpt>
      <trkpt lat="38.3446040" lon="-0.6669930">
        <ele>264.2</ele>
        <time>2019-10-19T15:14:18Z</time>
      </trkpt>
      <trkpt lat="38.3445360" lon="-0.6669740">
        <ele>264.6</ele>
        <time>2019-10-19T15:14:19Z</time>
      </trkpt>
      <trkpt lat="38.3444710" lon="-0.6669560">
        <ele>265.0</ele>
        <time>2019-10-19T15:14:20Z</time>
      </trkpt>
      <trkpt lat="38.3444080" lon="-0.6669400">
        <ele>265.4</ele>
        <time>2019-10-19T15:14:21Z</time>
      </trkpt>
      <trkpt lat="38.3443500" lon="-0.6669250">
        <ele>265.8</ele>
        <time>2019-10-19T15:14:22Z</time>
      </trkpt>
      <trkpt lat="38.3442970" lon="-0.6669140">
        <ele>266.2</ele>
        <time>2019-10-19T15:14:23Z</time>
      </trkpt>
      <trkpt lat="38.3442540" lon="-0.6669110">
        <ele>266.8</ele>
        <time>2019-10-19T15:14:24Z</time>
      </trkpt>
      <trkpt lat="38.3442140" lon="-0.6669070">
        <ele>267.4</ele>
        <time>2019-10-19T15:14:25Z</time>
      </trkpt>
      <trkpt lat="38.3441740" lon="-0.6669000">
        <ele>267.8</ele>
        <time>2019-10-19T15:14:26Z</time>
      </trkpt>
      <trkpt lat="38.3441340" lon="-0.6668900">
        <ele>268.0</ele>
        <time>2019-10-19T15:14:27Z</time>
      </trkpt>
      <trkpt lat="38.3440960" lon="-0.6668800">
        <ele>268.2</ele>
        <time>2019-10-19T15:14:28Z</time>
      </trkpt>
      <trkpt lat="38.3440540" lon="-0.6668700">
        <ele>268.2</ele>
        <time>2019-10-19T15:14:29Z</time>
      </trkpt>
      <trkpt lat="38.3440090" lon="-0.6668600">
        <ele>268.2</ele>
        <time>2019-10-19T15:14:30Z</time>
      </trkpt>
      <trkpt lat="38.3439630" lon="-0.6668510">
        <ele>268.4</ele>
        <time>2019-10-19T15:14:31Z</time>
      </trkpt>
      <trkpt lat="38.3439150" lon="-0.6668390">
        <ele>268.2</ele>
        <time>2019-10-19T15:14:32Z</time>
      </trkpt>
      <trkpt lat="38.3438660" lon="-0.6668240">
        <ele>268.2</ele>
        <time>2019-10-19T15:14:33Z</time>
      </trkpt>
      <trkpt lat="38.3438160" lon="-0.6668090">
        <ele>268.0</ele>
        <time>2019-10-19T15:14:34Z</time>
      </trkpt>
      <trkpt lat="38.3437660" lon="-0.6667920">
        <ele>268.2</ele>
        <time>2019-10-19T15:14:35Z</time>
      </trkpt>
      <trkpt lat="38.3437150" lon="-0.6667750">
        <ele>268.2</ele>
        <time>2019-10-19T15:14:36Z</time>
      </trkpt>
      <trkpt lat="38.3436630" lon="-0.6667560">
        <ele>268.2</ele>
        <time>2019-10-19T15:14:37Z</time>
      </trkpt>
      <trkpt lat="38.3436120" lon="-0.6667360">
        <ele>268.2</ele>
        <time>2019-10-19T15:14:38Z</time>
      </trkpt>
      <trkpt lat="38.3435610" lon="-0.6667130">
        <ele>268.2</ele>
        <time>2019-10-19T15:14:39Z</time>
      </trkpt>
      <trkpt lat="38.3435080" lon="-0.6666910">
        <ele>268.2</ele>
        <time>2019-10-19T15:14:40Z</time>
      </trkpt>
      <trkpt lat="38.3434540" lon="-0.6666680">
        <ele>267.8</ele>
        <time>2019-10-19T15:14:41Z</time>
      </trkpt>
      <trkpt lat="38.3433970" lon="-0.6666460">
        <ele>267.8</ele>
        <time>2019-10-19T15:14:42Z</time>
      </trkpt>
      <trkpt lat="38.3433380" lon="-0.6666220">
        <ele>267.4</ele>
        <time>2019-10-19T15:14:43Z</time>
      </trkpt>
      <trkpt lat="38.3432780" lon="-0.6665980">
        <ele>267.0</ele>
        <time>2019-10-19T15:14:44Z</time>
      </trkpt>
      <trkpt lat="38.3432170" lon="-0.6665720">
        <ele>266.8</ele>
        <time>2019-10-19T15:14:45Z</time>
      </trkpt>
      <trkpt lat="38.3431530" lon="-0.6665440">
        <ele>266.2</ele>
        <time>2019-10-19T15:14:46Z</time>
      </trkpt>
      <trkpt lat="38.3430860" lon="-0.6665160">
        <ele>266.0</ele>
        <time>2019-10-19T15:14:47Z</time>
      </trkpt>
      <trkpt lat="38.3430170" lon="-0.6664880">
        <ele>265.6</ele>
        <time>2019-10-19T15:14:48Z</time>
      </trkpt>
      <trkpt lat="38.3429450" lon="-0.6664630">
        <ele>265.2</ele>
        <time>2019-10-19T15:14:49Z</time>
      </trkpt>
      <trkpt lat="38.3428700" lon="-0.6664410">
        <ele>265.0</ele>
        <time>2019-10-19T15:14:50Z</time>
      </trkpt>
      <trkpt lat="38.3427940" lon="-0.6664210">
        <ele>264.8</ele>
        <time>2019-10-19T15:14:51Z</time>
      </trkpt>
      <trkpt lat="38.3427160" lon="-0.6664080">
        <ele>264.4</ele>
        <time>2019-10-19T15:14:52Z</time>
      </trkpt>
      <trkpt lat="38.3426360" lon="-0.6664020">
        <ele>263.8</ele>
        <time>2019-10-19T15:14:53Z</time>
      </trkpt>
      <trkpt lat="38.3425550" lon="-0.6664020">
        <ele>263.6</ele>
        <time>2019-10-19T15:14:54Z</time>
      </trkpt>
      <trkpt lat="38.3424740" lon="-0.6664120">
        <ele>263.4</ele>
        <time>2019-10-19T15:14:55Z</time>
      </trkpt>
      <trkpt lat="38.3423920" lon="-0.6664270">
        <ele>263.2</ele>
        <time>2019-10-19T15:14:56Z</time>
      </trkpt>
      <trkpt lat="38.3423090" lon="-0.6664430">
        <ele>262.6</ele>
        <time>2019-10-19T15:14:57Z</time>
      </trkpt>
      <trkpt lat="38.3422250" lon="-0.6664570">
        <ele>262.2</ele>
        <time>2019-10-19T15:14:58Z</time>
      </trkpt>
      <trkpt lat="38.3421410" lon="-0.6664730">
        <ele>262.2</ele>
        <time>2019-10-19T15:14:59Z</time>
      </trkpt>
      <trkpt lat="38.3420560" lon="-0.6664860">
        <ele>261.6</ele>
        <time>2019-10-19T15:15:00Z</time>
      </trkpt>
      <trkpt lat="38.3419690" lon="-0.6664940">
        <ele>261.2</ele>
        <time>2019-10-19T15:15:01Z</time>
      </trkpt>
      <trkpt lat="38.3418810" lon="-0.6665000">
        <ele>261.0</ele>
        <time>2019-10-19T15:15:02Z</time>
      </trkpt>
      <trkpt lat="38.3417920" lon="-0.6665060">
        <ele>260.6</ele>
        <time>2019-10-19T15:15:03Z</time>
      </trkpt>
      <trkpt lat="38.3417020" lon="-0.6665100">
        <ele>260.2</ele>
        <time>2019-10-19T15:15:04Z</time>
      </trkpt>
      <trkpt lat="38.3416110" lon="-0.6665120">
        <ele>259.8</ele>
        <time>2019-10-19T15:15:05Z</time>
      </trkpt>
      <trkpt lat="38.3415190" lon="-0.6665130">
        <ele>259.6</ele>
        <time>2019-10-19T15:15:06Z</time>
      </trkpt>
      <trkpt lat="38.3414270" lon="-0.6665110">
        <ele>259.0</ele>
        <time>2019-10-19T15:15:07Z</time>
      </trkpt>
      <trkpt lat="38.3413350" lon="-0.6665060">
        <ele>258.8</ele>
        <time>2019-10-19T15:15:08Z</time>
      </trkpt>
      <trkpt lat="38.3412410" lon="-0.6664990">
        <ele>258.2</ele>
        <time>2019-10-19T15:15:09Z</time>
      </trkpt>
      <trkpt lat="38.3411470" lon="-0.6664910">
        <ele>257.8</ele>
        <time>2019-10-19T15:15:10Z</time>
      </trkpt>
      <trkpt lat="38.3410540" lon="-0.6664790">
        <ele>257.2</ele>
        <time>2019-10-19T15:15:11Z</time>
      </trkpt>
      <trkpt lat="38.3409620" lon="-0.6664640">
        <ele>257.0</ele>
        <time>2019-10-19T15:15:12Z</time>
      </trkpt>
      <trkpt lat="38.3408700" lon="-0.6664480">
        <ele>256.6</ele>
        <time>2019-10-19T15:15:13Z</time>
      </trkpt>
      <trkpt lat="38.3407780" lon="-0.6664310">
        <ele>256.2</ele>
        <time>2019-10-19T15:15:14Z</time>
      </trkpt>
      <trkpt lat="38.3406870" lon="-0.6664110">
        <ele>255.8</ele>
        <time>2019-10-19T15:15:15Z</time>
      </trkpt>
      <trkpt lat="38.3405960" lon="-0.6663880">
        <ele>255.2</ele>
        <time>2019-10-19T15:15:16Z</time>
      </trkpt>
      <trkpt lat="38.3405070" lon="-0.6663640">
        <ele>254.6</ele>
        <time>2019-10-19T15:15:17Z</time>
      </trkpt>
      <trkpt lat="38.3404180" lon="-0.6663360">
        <ele>254.4</ele>
        <time>2019-10-19T15:15:18Z</time>
      </trkpt>
      <trkpt lat="38.3403310" lon="-0.6663060">
        <ele>254.0</ele>
        <time>2019-10-19T15:15:19Z</time>
      </trkpt>
      <trkpt lat="38.3402450" lon="-0.6662720">
        <ele>253.8</ele>
        <time>2019-10-19T15:15:20Z</time>
      </trkpt>
      <trkpt lat="38.3401600" lon="-0.6662350">
        <ele>253.6</ele>
        <time>2019-10-19T15:15:21Z</time>
      </trkpt>
      <trkpt lat="38.3400770" lon="-0.6661950">
        <ele>253.0</ele>
        <time>2019-10-19T15:15:22Z</time>
      </trkpt>
      <trkpt lat="38.3399940" lon="-0.6661510">
        <ele>252.6</ele>
        <time>2019-10-19T15:15:23Z</time>
      </trkpt>
      <trkpt lat="38.3399120" lon="-0.6661060">
        <ele>252.4</ele>
        <time>2019-10-19T15:15:24Z</time>
      </trkpt>
      <trkpt lat="38.3398300" lon="-0.6660600">
        <ele>252.2</ele>
        <time>2019-10-19T15:15:25Z</time>
      </trkpt>
      <trkpt lat="38.3397470" lon="-0.6660110">
        <ele>251.4</ele>
        <time>2019-10-19T15:15:26Z</time>
      </trkpt>
      <trkpt lat="38.3396660" lon="-0.6659610">
        <ele>251.4</ele>
        <time>2019-10-19T15:15:27Z</time>
      </trkpt>
      <trkpt lat="38.3395850" lon="-0.6659080">
        <ele>251.2</ele>
        <time>2019-10-19T15:15:28Z</time>
      </trkpt>
      <trkpt lat="38.3395070" lon="-0.6658510">
        <ele>250.8</ele>
        <time>2019-10-19T15:15:29Z</time>
      </trkpt>
      <trkpt lat="38.3394310" lon="-0.6657930">
        <ele>250.4</ele>
        <time>2019-10-19T15:15:30Z</time>
      </trkpt>
      <trkpt lat="38.3393570" lon="-0.6657330">
        <ele>250.2</ele>
        <time>2019-10-19T15:15:31Z</time>
      </trkpt>
      <trkpt lat="38.3392830" lon="-0.6656760">
        <ele>249.8</ele>
        <time>2019-10-19T15:15:32Z</time>
      </trkpt>
      <trkpt lat="38.3392070" lon="-0.6656220">
        <ele>249.8</ele>
        <time>2019-10-19T15:15:33Z</time>
      </trkpt>
      <trkpt lat="38.3391310" lon="-0.6655700">
        <ele>249.4</ele>
        <time>2019-10-19T15:15:34Z</time>
      </trkpt>
      <trkpt lat="38.3390570" lon="-0.6655160">
        <ele>249.0</ele>
        <time>2019-10-19T15:15:35Z</time>
      </trkpt>
      <trkpt lat="38.3389830" lon="-0.6654620">
        <ele>248.8</ele>
        <time>2019-10-19T15:15:36Z</time>
      </trkpt>
      <trkpt lat="38.3389100" lon="-0.6654070">
        <ele>248.6</ele>
        <time>2019-10-19T15:15:37Z</time>
      </trkpt>
      <trkpt lat="38.3388380" lon="-0.6653520">
        <ele>248.4</ele>
        <time>2019-10-19T15:15:38Z</time>
      </trkpt>
      <trkpt lat="38.3387660" lon="-0.6652970">
        <ele>248.2</ele>
        <time>2019-10-19T15:15:39Z</time>
      </trkpt>
      <trkpt lat="38.3386930" lon="-0.6652420">
        <ele>247.8</ele>
        <time>2019-10-19T15:15:40Z</time>
      </trkpt>
      <trkpt lat="38.3386230" lon="-0.6651890">
        <ele>247.8</ele>
        <time>2019-10-19T15:15:41Z</time>
      </trkpt>
      <trkpt lat="38.3385520" lon="-0.6651360">
        <ele>247.6</ele>
        <time>2019-10-19T15:15:42Z</time>
      </trkpt>
      <trkpt lat="38.3384820" lon="-0.6650850">
        <ele>247.6</ele>
        <time>2019-10-19T15:15:43Z</time>
      </trkpt>
      <trkpt lat="38.3384130" lon="-0.6650340">
        <ele>247.2</ele>
        <time>2019-10-19T15:15:44Z</time>
      </trkpt>
      <trkpt lat="38.3383440" lon="-0.6649840">
        <ele>247.2</ele>
        <time>2019-10-19T15:15:45Z</time>
      </trkpt>
      <trkpt lat="38.3382760" lon="-0.6649350">
        <ele>246.6</ele>
        <time>2019-10-19T15:15:46Z</time>
      </trkpt>
      <trkpt lat="38.3382060" lon="-0.6648890">
        <ele>246.6</ele>
        <time>2019-10-19T15:15:47Z</time>
      </trkpt>
      <trkpt lat="38.3381350" lon="-0.6648480">
        <ele>246.6</ele>
        <time>2019-10-19T15:15:48Z</time>
      </trkpt>
      <trkpt lat="38.3380650" lon="-0.6648070">
        <ele>246.6</ele>
        <time>2019-10-19T15:15:49Z</time>
      </trkpt>
      <trkpt lat="38.3379950" lon="-0.6647670">
        <ele>246.6</ele>
        <time>2019-10-19T15:15:50Z</time>
      </trkpt>
      <trkpt lat="38.3379240" lon="-0.6647310">
        <ele>246.4</ele>
        <time>2019-10-19T15:15:51Z</time>
      </trkpt>
      <trkpt lat="38.3378530" lon="-0.6646990">
        <ele>246.0</ele>
        <time>2019-10-19T15:15:52Z</time>
      </trkpt>
      <trkpt lat="38.3377810" lon="-0.6646680">
        <ele>246.0</ele>
        <time>2019-10-19T15:15:53Z</time>
      </trkpt>
      <trkpt lat="38.3377090" lon="-0.6646380">
        <ele>245.6</ele>
        <time>2019-10-19T15:15:54Z</time>
      </trkpt>
      <trkpt lat="38.3376370" lon="-0.6646070">
        <ele>245.2</ele>
        <time>2019-10-19T15:15:55Z</time>
      </trkpt>
      <trkpt lat="38.3375630" lon="-0.6645790">
        <ele>245.2</ele>
        <time>2019-10-19T15:15:56Z</time>
      </trkpt>
      <trkpt lat="38.3374860" lon="-0.6645540">
        <ele>244.6</ele>
        <time>2019-10-19T15:15:57Z</time>
      </trkpt>
      <trkpt lat="38.3374100" lon="-0.6645300">
        <ele>244.8</ele>
        <time>2019-10-19T15:15:58Z</time>
      </trkpt>
      <trkpt lat="38.3373330" lon="-0.6645080">
        <ele>244.8</ele>
        <time>2019-10-19T15:15:59Z</time>
      </trkpt>
      <trkpt lat="38.3372550" lon="-0.6644860">
        <ele>244.6</ele>
        <time>2019-10-19T15:16:00Z</time>
      </trkpt>
      <trkpt lat="38.3371780" lon="-0.6644670">
        <ele>244.4</ele>
        <time>2019-10-19T15:16:01Z</time>
      </trkpt>
      <trkpt lat="38.3371000" lon="-0.6644500">
        <ele>244.4</ele>
        <time>2019-10-19T15:16:02Z</time>
      </trkpt>
      <trkpt lat="38.3370230" lon="-0.6644340">
        <ele>244.0</ele>
        <time>2019-10-19T15:16:03Z</time>
      </trkpt>
      <trkpt lat="38.3369450" lon="-0.6644200">
        <ele>243.8</ele>
        <time>2019-10-19T15:16:04Z</time>
      </trkpt>
      <trkpt lat="38.3368670" lon="-0.6644070">
        <ele>244.0</ele>
        <time>2019-10-19T15:16:05Z</time>
      </trkpt>
      <trkpt lat="38.3367900" lon="-0.6643950">
        <ele>244.0</ele>
        <time>2019-10-19T15:16:06Z</time>
      </trkpt>
      <trkpt lat="38.3367130" lon="-0.6643840">
        <ele>244.2</ele>
        <time>2019-10-19T15:16:07Z</time>
      </trkpt>
      <trkpt lat="38.3366370" lon="-0.6643770">
        <ele>244.2</ele>
        <time>2019-10-19T15:16:08Z</time>
      </trkpt>
      <trkpt lat="38.3365620" lon="-0.6643720">
        <ele>244.2</ele>
        <time>2019-10-19T15:16:09Z</time>
      </trkpt>
      <trkpt lat="38.3364890" lon="-0.6643680">
        <ele>244.2</ele>
        <time>2019-10-19T15:16:10Z</time>
      </trkpt>
      <trkpt lat="38.3364160" lon="-0.6643630">
        <ele>244.0</ele>
        <time>2019-10-19T15:16:11Z</time>
      </trkpt>
      <trkpt lat="38.3363430" lon="-0.6643590">
        <ele>244.0</ele>
        <time>2019-10-19T15:16:12Z</time>
      </trkpt>
      <trkpt lat="38.3362700" lon="-0.6643560">
        <ele>244.0</ele>
        <time>2019-10-19T15:16:13Z</time>
      </trkpt>
      <trkpt lat="38.3361970" lon="-0.6643540">
        <ele>244.0</ele>
        <time>2019-10-19T15:16:14Z</time>
      </trkpt>
      <trkpt lat="38.3361240" lon="-0.6643480">
        <ele>243.8</ele>
        <time>2019-10-19T15:16:15Z</time>
      </trkpt>
      <trkpt lat="38.3360510" lon="-0.6643430">
        <ele>243.8</ele>
        <time>2019-10-19T15:16:16Z</time>
      </trkpt>
      <trkpt lat="38.3359780" lon="-0.6643400">
        <ele>243.6</ele>
        <time>2019-10-19T15:16:17Z</time>
      </trkpt>
      <trkpt lat="38.3359060" lon="-0.6643360">
        <ele>243.6</ele>
        <time>2019-10-19T15:16:18Z</time>
      </trkpt>
      <trkpt lat="38.3358340" lon="-0.6643320">
        <ele>243.2</ele>
        <time>2019-10-19T15:16:19Z</time>
      </trkpt>
      <trkpt lat="38.3357610" lon="-0.6643280">
        <ele>243.0</ele>
        <time>2019-10-19T15:16:20Z</time>
      </trkpt>
      <trkpt lat="38.3356880" lon="-0.6643230">
        <ele>242.8</ele>
        <time>2019-10-19T15:16:21Z</time>
      </trkpt>
      <trkpt lat="38.3356130" lon="-0.6643160">
        <ele>242.6</ele>
        <time>2019-10-19T15:16:22Z</time>
      </trkpt>
      <trkpt lat="38.3355380" lon="-0.6643080">
        <ele>242.2</ele>
        <time>2019-10-19T15:16:23Z</time>
      </trkpt>
      <trkpt lat="38.3354590" lon="-0.6642970">
        <ele>242.0</ele>
        <time>2019-10-19T15:16:24Z</time>
      </trkpt>
      <trkpt lat="38.3353770" lon="-0.6642870">
        <ele>241.2</ele>
        <time>2019-10-19T15:16:25Z</time>
      </trkpt>
      <trkpt lat="38.3352930" lon="-0.6642740">
        <ele>240.8</ele>
        <time>2019-10-19T15:16:26Z</time>
      </trkpt>
      <trkpt lat="38.3352080" lon="-0.6642580">
        <ele>240.0</ele>
        <time>2019-10-19T15:16:27Z</time>
      </trkpt>
      <trkpt lat="38.3351220" lon="-0.6642470">
        <ele>239.4</ele>
        <time>2019-10-19T15:16:28Z</time>
      </trkpt>
      <trkpt lat="38.3350350" lon="-0.6642450">
        <ele>239.0</ele>
        <time>2019-10-19T15:16:29Z</time>
      </trkpt>
      <trkpt lat="38.3349470" lon="-0.6642430">
        <ele>238.6</ele>
        <time>2019-10-19T15:16:30Z</time>
      </trkpt>
      <trkpt lat="38.3348610" lon="-0.6642390">
        <ele>238.6</ele>
        <time>2019-10-19T15:16:31Z</time>
      </trkpt>
      <trkpt lat="38.3347740" lon="-0.6642330">
        <ele>238.2</ele>
        <time>2019-10-19T15:16:32Z</time>
      </trkpt>
      <trkpt lat="38.3346880" lon="-0.6642220">
        <ele>238.4</ele>
        <time>2019-10-19T15:16:33Z</time>
      </trkpt>
      <trkpt lat="38.3346030" lon="-0.6642050">
        <ele>238.2</ele>
        <time>2019-10-19T15:16:34Z</time>
      </trkpt>
      <trkpt lat="38.3345190" lon="-0.6641890">
        <ele>238.2</ele>
        <time>2019-10-19T15:16:35Z</time>
      </trkpt>
      <trkpt lat="38.3344350" lon="-0.6641750">
        <ele>238.0</ele>
        <time>2019-10-19T15:16:36Z</time>
      </trkpt>
      <trkpt lat="38.3343510" lon="-0.6641620">
        <ele>238.0</ele>
        <time>2019-10-19T15:16:37Z</time>
      </trkpt>
      <trkpt lat="38.3342670" lon="-0.6641470">
        <ele>237.6</ele>
        <time>2019-10-19T15:16:38Z</time>
      </trkpt>
      <trkpt lat="38.3341830" lon="-0.6641310">
        <ele>237.4</ele>
        <time>2019-10-19T15:16:39Z</time>
      </trkpt>
      <trkpt lat="38.3340990" lon="-0.6641120">
        <ele>237.2</ele>
        <time>2019-10-19T15:16:40Z</time>
      </trkpt>
      <trkpt lat="38.3340160" lon="-0.6640920">
        <ele>237.0</ele>
        <time>2019-10-19T15:16:41Z</time>
      </trkpt>
      <trkpt lat="38.3339350" lon="-0.6640710">
        <ele>237.2</ele>
        <time>2019-10-19T15:16:42Z</time>
      </trkpt>
      <trkpt lat="38.3338560" lon="-0.6640500">
        <ele>237.0</ele>
        <time>2019-10-19T15:16:43Z</time>
      </trkpt>
      <trkpt lat="38.3337780" lon="-0.6640310">
        <ele>237.0</ele>
        <time>2019-10-19T15:16:44Z</time>
      </trkpt>
      <trkpt lat="38.3337010" lon="-0.6640110">
        <ele>237.0</ele>
        <time>2019-10-19T15:16:45Z</time>
      </trkpt>
      <trkpt lat="38.3336250" lon="-0.6639910">
        <ele>236.8</ele>
        <time>2019-10-19T15:16:46Z</time>
      </trkpt>
      <trkpt lat="38.3335490" lon="-0.6639710">
        <ele>236.8</ele>
        <time>2019-10-19T15:16:47Z</time>
      </trkpt>
      <trkpt lat="38.3334750" lon="-0.6639500">
        <ele>236.8</ele>
        <time>2019-10-19T15:16:48Z</time>
      </trkpt>
      <trkpt lat="38.3334020" lon="-0.6639270">
        <ele>236.8</ele>
        <time>2019-10-19T15:16:49Z</time>
      </trkpt>
      <trkpt lat="38.3333290" lon="-0.6639020">
        <ele>236.6</ele>
        <time>2019-10-19T15:16:50Z</time>
      </trkpt>
      <trkpt lat="38.3332570" lon="-0.6638780">
        <ele>236.6</ele>
        <time>2019-10-19T15:16:51Z</time>
      </trkpt>
      <trkpt lat="38.3331850" lon="-0.6638550">
        <ele>236.8</ele>
        <time>2019-10-19T15:16:52Z</time>
      </trkpt>
      <trkpt lat="38.3331130" lon="-0.6638300">
        <ele>236.6</ele>
        <time>2019-10-19T15:16:53Z</time>
      </trkpt>
      <trkpt lat="38.3330400" lon="-0.6638050">
        <ele>236.6</ele>
        <time>2019-10-19T15:16:54Z</time>
      </trkpt>
      <trkpt lat="38.3329680" lon="-0.6637800">
        <ele>236.6</ele>
        <time>2019-10-19T15:16:55Z</time>
      </trkpt>
      <trkpt lat="38.3328940" lon="-0.6637540">
        <ele>236.4</ele>
        <time>2019-10-19T15:16:56Z</time>
      </trkpt>
      <trkpt lat="38.3328210" lon="-0.6637300">
        <ele>236.2</ele>
        <time>2019-10-19T15:16:57Z</time>
      </trkpt>
      <trkpt lat="38.3327460" lon="-0.6637040">
        <ele>235.4</ele>
        <time>2019-10-19T15:16:58Z</time>
      </trkpt>
      <trkpt lat="38.3326690" lon="-0.6636710">
        <ele>234.8</ele>
        <time>2019-10-19T15:16:59Z</time>
      </trkpt>
      <trkpt lat="38.3325940" lon="-0.6636310">
        <ele>234.6</ele>
        <time>2019-10-19T15:17:00Z</time>
      </trkpt>
      <trkpt lat="38.3325210" lon="-0.6635900">
        <ele>234.8</ele>
        <time>2019-10-19T15:17:01Z</time>
      </trkpt>
      <trkpt lat="38.3324470" lon="-0.6635540">
        <ele>234.8</ele>
        <time>2019-10-19T15:17:02Z</time>
      </trkpt>
      <trkpt lat="38.3323740" lon="-0.6635200">
        <ele>234.8</ele>
        <time>2019-10-19T15:17:03Z</time>
      </trkpt>
      <trkpt lat="38.3323040" lon="-0.6634910">
        <ele>234.8</ele>
        <time>2019-10-19T15:17:04Z</time>
      </trkpt>
      <trkpt lat="38.3322380" lon="-0.6634610">
        <ele>235.2</ele>
        <time>2019-10-19T15:17:05Z</time>
      </trkpt>
      <trkpt lat="38.3321790" lon="-0.6634320">
        <ele>235.4</ele>
        <time>2019-10-19T15:17:06Z</time>
      </trkpt>
      <trkpt lat="38.3321210" lon="-0.6634030">
        <ele>235.8</ele>
        <time>2019-10-19T15:17:07Z</time>
      </trkpt>
      <trkpt lat="38.3320620" lon="-0.6633770">
        <ele>235.8</ele>
        <time>2019-10-19T15:17:08Z</time>
      </trkpt>
      <trkpt lat="38.3320030" lon="-0.6633520">
        <ele>236.0</ele>
        <time>2019-10-19T15:17:09Z</time>
      </trkpt>
      <trkpt lat="38.3319440" lon="-0.6633350">
        <ele>236.0</ele>
        <time>2019-10-19T15:17:10Z</time>
      </trkpt>
      <trkpt lat="38.3318830" lon="-0.6633150">
        <ele>236.0</ele>
        <time>2019-10-19T15:17:11Z</time>
      </trkpt>
      <trkpt lat="38.3318210" lon="-0.6632960">
        <ele>235.8</ele>
        <time>2019-10-19T15:17:12Z</time>
      </trkpt>
      <trkpt lat="38.3317580" lon="-0.6632760">
        <ele>235.8</ele>
        <time>2019-10-19T15:17:13Z</time>
      </trkpt>
      <trkpt lat="38.3316940" lon="-0.6632570">
        <ele>235.8</ele>
        <time>2019-10-19T15:17:14Z</time>
      </trkpt>
      <trkpt lat="38.3316290" lon="-0.6632380">
        <ele>235.8</ele>
        <time>2019-10-19T15:17:15Z</time>
      </trkpt>
      <trkpt lat="38.3315630" lon="-0.6632220">
        <ele>235.8</ele>
        <time>2019-10-19T15:17:16Z</time>
      </trkpt>
      <trkpt lat="38.3314960" lon="-0.6632070">
        <ele>235.8</ele>
        <time>2019-10-19T15:17:17Z</time>
      </trkpt>
      <trkpt lat="38.3314300" lon="-0.6631920">
        <ele>235.8</ele>
        <time>2019-10-19T15:17:18Z</time>
      </trkpt>
      <trkpt lat="38.3313640" lon="-0.6631790">
        <ele>235.8</ele>
        <time>2019-10-19T15:17:19Z</time>
      </trkpt>
      <trkpt lat="38.3312990" lon="-0.6631640">
        <ele>235.8</ele>
        <time>2019-10-19T15:17:20Z</time>
      </trkpt>
      <trkpt lat="38.3312330" lon="-0.6631490">
        <ele>235.4</ele>
        <time>2019-10-19T15:17:21Z</time>
      </trkpt>
      <trkpt lat="38.3311680" lon="-0.6631350">
        <ele>235.8</ele>
        <time>2019-10-19T15:17:22Z</time>
      </trkpt>
      <trkpt lat="38.3311030" lon="-0.6631200">
        <ele>235.8</ele>
        <time>2019-10-19T15:17:23Z</time>
      </trkpt>
      <trkpt lat="38.3310380" lon="-0.6631050">
        <ele>235.6</ele>
        <time>2019-10-19T15:17:24Z</time>
      </trkpt>
      <trkpt lat="38.3309720" lon="-0.6630940">
        <ele>235.6</ele>
        <time>2019-10-19T15:17:25Z</time>
      </trkpt>
      <trkpt lat="38.3309060" lon="-0.6630830">
        <ele>235.4</ele>
        <time>2019-10-19T15:17:26Z</time>
      </trkpt>
      <trkpt lat="38.3308390" lon="-0.6630730">
        <ele>235.4</ele>
        <time>2019-10-19T15:17:27Z</time>
      </trkpt>
      <trkpt lat="38.3307730" lon="-0.6630650">
        <ele>235.4</ele>
        <time>2019-10-19T15:17:28Z</time>
      </trkpt>
      <trkpt lat="38.3307060" lon="-0.6630570">
        <ele>235.6</ele>
        <time>2019-10-19T15:17:29Z</time>
      </trkpt>
      <trkpt lat="38.3306390" lon="-0.6630480">
        <ele>235.6</ele>
        <time>2019-10-19T15:17:30Z</time>
      </trkpt>
      <trkpt lat="38.3305730" lon="-0.6630400">
        <ele>235.6</ele>
        <time>2019-10-19T15:17:31Z</time>
      </trkpt>
      <trkpt lat="38.3305070" lon="-0.6630330">
        <ele>235.6</ele>
        <time>2019-10-19T15:17:32Z</time>
      </trkpt>
      <trkpt lat="38.3304420" lon="-0.6630290">
        <ele>235.6</ele>
        <time>2019-10-19T15:17:33Z</time>
      </trkpt>
      <trkpt lat="38.3303770" lon="-0.6630260">
        <ele>235.8</ele>
        <time>2019-10-19T15:17:34Z</time>
      </trkpt>
      <trkpt lat="38.3303130" lon="-0.6630250">
        <ele>235.8</ele>
        <time>2019-10-19T15:17:35Z</time>
      </trkpt>
      <trkpt lat="38.3302510" lon="-0.6630280">
        <ele>236.2</ele>
        <time>2019-10-19T15:17:36Z</time>
      </trkpt>
      <trkpt lat="38.3301920" lon="-0.6630330">
        <ele>236.6</ele>
        <time>2019-10-19T15:17:37Z</time>
      </trkpt>
      <trkpt lat="38.3301350" lon="-0.6630390">
        <ele>237.2</ele>
        <time>2019-10-19T15:17:38Z</time>
      </trkpt>
      <trkpt lat="38.3300810" lon="-0.6630420">
        <ele>237.4</ele>
        <time>2019-10-19T15:17:39Z</time>
      </trkpt>
      <trkpt lat="38.3300310" lon="-0.6630420">
        <ele>237.8</ele>
        <time>2019-10-19T15:17:40Z</time>
      </trkpt>
      <trkpt lat="38.3299820" lon="-0.6630420">
        <ele>237.8</ele>
        <time>2019-10-19T15:17:41Z</time>
      </trkpt>
      <trkpt lat="38.3299340" lon="-0.6630360">
        <ele>238.2</ele>
        <time>2019-10-19T15:17:42Z</time>
      </trkpt>
      <trkpt lat="38.3298840" lon="-0.6630320">
        <ele>238.4</ele>
        <time>2019-10-19T15:17:43Z</time>
      </trkpt>
      <trkpt lat="38.3298330" lon="-0.6630290">
        <ele>238.2</ele>
        <time>2019-10-19T15:17:44Z</time>
      </trkpt>
      <trkpt lat="38.3297790" lon="-0.6630340">
        <ele>237.8</ele>
        <time>2019-10-19T15:17:45Z</time>
      </trkpt>
      <trkpt lat="38.3297210" lon="-0.6630410">
        <ele>237.4</ele>
        <time>2019-10-19T15:17:46Z</time>
      </trkpt>
      <trkpt lat="38.3296590" lon="-0.6630420">
        <ele>237.2</ele>
        <time>2019-10-19T15:17:47Z</time>
      </trkpt>
      <trkpt lat="38.3295950" lon="-0.6630410">
        <ele>236.8</ele>
        <time>2019-10-19T15:17:48Z</time>
      </trkpt>
      <trkpt lat="38.3295280" lon="-0.6630400">
        <ele>236.4</ele>
        <time>2019-10-19T15:17:49Z</time>
      </trkpt>
      <trkpt lat="38.3294580" lon="-0.6630420">
        <ele>236.0</ele>
        <time>2019-10-19T15:17:50Z</time>
      </trkpt>
      <trkpt lat="38.3293860" lon="-0.6630440">
        <ele>235.8</ele>
        <time>2019-10-19T15:17:51Z</time>
      </trkpt>
      <trkpt lat="38.3293120" lon="-0.6630470">
        <ele>235.6</ele>
        <time>2019-10-19T15:17:52Z</time>
      </trkpt>
      <trkpt lat="38.3292360" lon="-0.6630490">
        <ele>235.2</ele>
        <time>2019-10-19T15:17:53Z</time>
      </trkpt>
      <trkpt lat="38.3291590" lon="-0.6630520">
        <ele>234.8</ele>
        <time>2019-10-19T15:17:54Z</time>
      </trkpt>
      <trkpt lat="38.3290820" lon="-0.6630550">
        <ele>234.6</ele>
        <time>2019-10-19T15:17:55Z</time>
      </trkpt>
      <trkpt lat="38.3290040" lon="-0.6630600">
        <ele>234.4</ele>
        <time>2019-10-19T15:17:56Z</time>
      </trkpt>
      <trkpt lat="38.3289270" lon="-0.6630660">
        <ele>234.2</ele>
        <time>2019-10-19T15:17:57Z</time>
      </trkpt>
      <trkpt lat="38.3288510" lon="-0.6630720">
        <ele>234.2</ele>
        <time>2019-10-19T15:17:58Z</time>
      </trkpt>
      <trkpt lat="38.3287740" lon="-0.6630790">
        <ele>233.8</ele>
        <time>2019-10-19T15:17:59Z</time>
      </trkpt>
      <trkpt lat="38.3286960" lon="-0.6630870">
        <ele>233.6</ele>
        <time>2019-10-19T15:18:00Z</time>
      </trkpt>
      <trkpt lat="38.3286160" lon="-0.6630920">
        <ele>233.2</ele>
        <time>2019-10-19T15:18:01Z</time>
      </trkpt>
      <trkpt lat="38.3285340" lon="-0.6630980">
        <ele>232.4</ele>
        <time>2019-10-19T15:18:02Z</time>
      </trkpt>
      <trkpt lat="38.3284480" lon="-0.6631030">
        <ele>231.6</ele>
        <time>2019-10-19T15:18:03Z</time>
      </trkpt>
      <trkpt lat="38.3283600" lon="-0.6631100">
        <ele>230.8</ele>
        <time>2019-10-19T15:18:04Z</time>
      </trkpt>
      <trkpt lat="38.3282710" lon="-0.6631170">
        <ele>230.6</ele>
        <time>2019-10-19T15:18:05Z</time>
      </trkpt>
      <trkpt lat="38.3281830" lon="-0.6631230">
        <ele>230.8</ele>
        <time>2019-10-19T15:18:06Z</time>
      </trkpt>
      <trkpt lat="38.3280960" lon="-0.6631290">
        <ele>230.8</ele>
        <time>2019-10-19T15:18:07Z</time>
      </trkpt>
      <trkpt lat="38.3280130" lon="-0.6631360">
        <ele>230.8</ele>
        <time>2019-10-19T15:18:08Z</time>
      </trkpt>
      <trkpt lat="38.3279330" lon="-0.6631450">
        <ele>231.0</ele>
        <time>2019-10-19T15:18:09Z</time>
      </trkpt>
      <trkpt lat="38.3278560" lon="-0.6631510">
        <ele>231.2</ele>
        <time>2019-10-19T15:18:10Z</time>
      </trkpt>
      <trkpt lat="38.3277830" lon="-0.6631560">
        <ele>231.8</ele>
        <time>2019-10-19T15:18:11Z</time>
      </trkpt>
      <trkpt lat="38.3277120" lon="-0.6631600">
        <ele>232.0</ele>
        <time>2019-10-19T15:18:12Z</time>
      </trkpt>
      <trkpt lat="38.3276420" lon="-0.6631620">
        <ele>232.2</ele>
        <time>2019-10-19T15:18:13Z</time>
      </trkpt>
      <trkpt lat="38.3275730" lon="-0.6631660">
        <ele>232.4</ele>
        <time>2019-10-19T15:18:14Z</time>
      </trkpt>
      <trkpt lat="38.3275050" lon="-0.6631730">
        <ele>232.4</ele>
        <time>2019-10-19T15:18:15Z</time>
      </trkpt>
      <trkpt lat="38.3274370" lon="-0.6631780">
        <ele>232.4</ele>
        <time>2019-10-19T15:18:16Z</time>
      </trkpt>
      <trkpt lat="38.3273690" lon="-0.6631850">
        <ele>232.6</ele>
        <time>2019-10-19T15:18:17Z</time>
      </trkpt>
      <trkpt lat="38.3273030" lon="-0.6631940">
        <ele>232.6</ele>
        <time>2019-10-19T15:18:18Z</time>
      </trkpt>
      <trkpt lat="38.3272360" lon="-0.6632020">
        <ele>232.6</ele>
        <time>2019-10-19T15:18:19Z</time>
      </trkpt>
      <trkpt lat="38.3271700" lon="-0.6632110">
        <ele>232.8</ele>
        <time>2019-10-19T15:18:20Z</time>
      </trkpt>
      <trkpt lat="38.3271030" lon="-0.6632200">
        <ele>232.8</ele>
        <time>2019-10-19T15:18:21Z</time>
      </trkpt>
      <trkpt lat="38.3270360" lon="-0.6632270">
        <ele>232.8</ele>
        <time>2019-10-19T15:18:22Z</time>
      </trkpt>
      <trkpt lat="38.3269670" lon="-0.6632330">
        <ele>233.0</ele>
        <time>2019-10-19T15:18:23Z</time>
      </trkpt>
      <trkpt lat="38.3268980" lon="-0.6632380">
        <ele>232.8</ele>
        <time>2019-10-19T15:18:24Z</time>
      </trkpt>
      <trkpt lat="38.3268300" lon="-0.6632440">
        <ele>232.8</ele>
        <time>2019-10-19T15:18:25Z</time>
      </trkpt>
      <trkpt lat="38.3267630" lon="-0.6632510">
        <ele>232.8</ele>
        <time>2019-10-19T15:18:26Z</time>
      </trkpt>
      <trkpt lat="38.3266950" lon="-0.6632570">
        <ele>232.8</ele>
        <time>2019-10-19T15:18:27Z</time>
      </trkpt>
      <trkpt lat="38.3266280" lon="-0.6632620">
        <ele>232.8</ele>
        <time>2019-10-19T15:18:28Z</time>
      </trkpt>
      <trkpt lat="38.3265590" lon="-0.6632670">
        <ele>232.8</ele>
        <time>2019-10-19T15:18:29Z</time>
      </trkpt>
      <trkpt lat="38.3264890" lon="-0.6632740">
        <ele>232.6</ele>
        <time>2019-10-19T15:18:30Z</time>
      </trkpt>
      <trkpt lat="38.3264200" lon="-0.6632880">
        <ele>232.4</ele>
        <time>2019-10-19T15:18:31Z</time>
      </trkpt>
      <trkpt lat="38.3263500" lon="-0.6633070">
        <ele>232.0</ele>
        <time>2019-10-19T15:18:32Z</time>
      </trkpt>
      <trkpt lat="38.3262800" lon="-0.6633420">
        <ele>231.4</ele>
        <time>2019-10-19T15:18:33Z</time>
      </trkpt>
      <trkpt lat="38.3262100" lon="-0.6633900">
        <ele>231.0</ele>
        <time>2019-10-19T15:18:34Z</time>
      </trkpt>
      <trkpt lat="38.3261420" lon="-0.6634490">
        <ele>230.4</ele>
        <time>2019-10-19T15:18:35Z</time>
      </trkpt>
      <trkpt lat="38.3260740" lon="-0.6635130">
        <ele>230.0</ele>
        <time>2019-10-19T15:18:36Z</time>
      </trkpt>
      <trkpt lat="38.3260050" lon="-0.6635800">
        <ele>229.8</ele>
        <time>2019-10-19T15:18:37Z</time>
      </trkpt>
      <trkpt lat="38.3259340" lon="-0.6636440">
        <ele>229.6</ele>
        <time>2019-10-19T15:18:38Z</time>
      </trkpt>
      <trkpt lat="38.3258630" lon="-0.6637030">
        <ele>229.6</ele>
        <time>2019-10-19T15:18:39Z</time>
      </trkpt>
      <trkpt lat="38.3257890" lon="-0.6637540">
        <ele>229.6</ele>
        <time>2019-10-19T15:18:40Z</time>
      </trkpt>
      <trkpt lat="38.3257160" lon="-0.6638070">
        <ele>229.4</ele>
        <time>2019-10-19T15:18:41Z</time>
      </trkpt>
      <trkpt lat="38.3256500" lon="-0.6638700">
        <ele>229.6</ele>
        <time>2019-10-19T15:18:42Z</time>
      </trkpt>
      <trkpt lat="38.3255920" lon="-0.6639380">
        <ele>229.6</ele>
        <time>2019-10-19T15:18:43Z</time>
      </trkpt>
      <trkpt lat="38.3255400" lon="-0.6640050">
        <ele>230.2</ele>
        <time>2019-10-19T15:18:44Z</time>
      </trkpt>
      <trkpt lat="38.3254810" lon="-0.6640520">
        <ele>230.8</ele>
        <time>2019-10-19T15:18:45Z</time>
      </trkpt>
      <trkpt lat="38.3254180" lon="-0.6640670">
        <ele>230.8</ele>
        <time>2019-10-19T15:18:46Z</time>
      </trkpt>
      <trkpt lat="38.3253580" lon="-0.6640520">
        <ele>230.8</ele>
        <time>2019-10-19T15:18:47Z</time>
      </trkpt>
      <trkpt lat="38.3253130" lon="-0.6640080">
        <ele>231.0</ele>
        <time>2019-10-19T15:18:48Z</time>
      </trkpt>
      <trkpt lat="38.3252870" lon="-0.6639460">
        <ele>230.8</ele>
        <time>2019-10-19T15:18:49Z</time>
      </trkpt>
      <trkpt lat="38.3252800" lon="-0.6638750">
        <ele>231.0</ele>
        <time>2019-10-19T15:18:50Z</time>
      </trkpt>
      <trkpt lat="38.3252830" lon="-0.6637980">
        <ele>230.6</ele>
        <time>2019-10-19T15:18:51Z</time>
      </trkpt>
      <trkpt lat="38.3252870" lon="-0.6637180">
        <ele>230.2</ele>
        <time>2019-10-19T15:18:52Z</time>
      </trkpt>
      <trkpt lat="38.3252880" lon="-0.6636320">
        <ele>229.8</ele>
        <time>2019-10-19T15:18:53Z</time>
      </trkpt>
      <trkpt lat="38.3252840" lon="-0.6635430">
        <ele>229.4</ele>
        <time>2019-10-19T15:18:54Z</time>
      </trkpt>
      <trkpt lat="38.3252740" lon="-0.6634560">
        <ele>228.8</ele>
        <time>2019-10-19T15:18:55Z</time>
      </trkpt>
      <trkpt lat="38.3252690" lon="-0.6633790">
        <ele>228.6</ele>
        <time>2019-10-19T15:18:56Z</time>
      </trkpt>
      <trkpt lat="38.3252650" lon="-0.6632680">
        <ele>228.4</ele>
        <time>2019-10-19T15:18:57Z</time>
      </trkpt>
      <trkpt lat="38.3252800" lon="-0.6631660">
        <ele>228.6</ele>
        <time>2019-10-19T15:18:58Z</time>
      </trkpt>
      <trkpt lat="38.3252720" lon="-0.6630750">
        <ele>228.8</ele>
        <time>2019-10-19T15:18:59Z</time>
      </trkpt>
      <trkpt lat="38.3252430" lon="-0.6629900">
        <ele>229.0</ele>
        <time>2019-10-19T15:19:00Z</time>
      </trkpt>
      <trkpt lat="38.3251980" lon="-0.6629190">
        <ele>229.0</ele>
        <time>2019-10-19T15:19:01Z</time>
      </trkpt>
      <trkpt lat="38.3251660" lon="-0.6628490">
        <ele>229.4</ele>
        <time>2019-10-19T15:19:02Z</time>
      </trkpt>
      <trkpt lat="38.3251330" lon="-0.6627840">
        <ele>229.6</ele>
        <time>2019-10-19T15:19:03Z</time>
      </trkpt>
      <trkpt lat="38.3251060" lon="-0.6627240">
        <ele>229.6</ele>
        <time>2019-10-19T15:19:04Z</time>
      </trkpt>
      <trkpt lat="38.3250710" lon="-0.6626720">
        <ele>229.8</ele>
        <time>2019-10-19T15:19:05Z</time>
      </trkpt>
      <trkpt lat="38.3250300" lon="-0.6626320">
        <ele>230.0</ele>
        <time>2019-10-19T15:19:06Z</time>
      </trkpt>
      <trkpt lat="38.3249810" lon="-0.6626040">
        <ele>230.2</ele>
        <time>2019-10-19T15:19:07Z</time>
      </trkpt>
      <trkpt lat="38.3249320" lon="-0.6625750">
        <ele>230.4</ele>
        <time>2019-10-19T15:19:08Z</time>
      </trkpt>
      <trkpt lat="38.3248800" lon="-0.6625490">
        <ele>230.6</ele>
        <time>2019-10-19T15:19:09Z</time>
      </trkpt>
      <trkpt lat="38.3248270" lon="-0.6625210">
        <ele>230.6</ele>
        <time>2019-10-19T15:19:10Z</time>
      </trkpt>
      <trkpt lat="38.3247740" lon="-0.6624990">
        <ele>230.8</ele>
        <time>2019-10-19T15:19:11Z</time>
      </trkpt>
      <trkpt lat="38.3247170" lon="-0.6624900">
        <ele>230.8</ele>
        <time>2019-10-19T15:19:12Z</time>
      </trkpt>
      <trkpt lat="38.3246590" lon="-0.6624970">
        <ele>231.2</ele>
        <time>2019-10-19T15:19:13Z</time>
      </trkpt>
      <trkpt lat="38.3246040" lon="-0.6625150">
        <ele>231.4</ele>
        <time>2019-10-19T15:19:14Z</time>
      </trkpt>
      <trkpt lat="38.3245520" lon="-0.6625420">
        <ele>231.4</ele>
        <time>2019-10-19T15:19:15Z</time>
      </trkpt>
      <trkpt lat="38.3245060" lon="-0.6625780">
        <ele>231.6</ele>
        <time>2019-10-19T15:19:16Z</time>
      </trkpt>
      <trkpt lat="38.3244690" lon="-0.6626280">
        <ele>231.8</ele>
        <time>2019-10-19T15:19:17Z</time>
      </trkpt>
      <trkpt lat="38.3244350" lon="-0.6626770">
        <ele>232.4</ele>
        <time>2019-10-19T15:19:18Z</time>
      </trkpt>
      <trkpt lat="38.3244020" lon="-0.6627260">
        <ele>232.4</ele>
        <time>2019-10-19T15:19:19Z</time>
      </trkpt>
      <trkpt lat="38.3243690" lon="-0.6627720">
        <ele>232.6</ele>
        <time>2019-10-19T15:19:20Z</time>
      </trkpt>
      <trkpt lat="38.3243380" lon="-0.6628190">
        <ele>232.8</ele>
        <time>2019-10-19T15:19:21Z</time>
      </trkpt>
      <trkpt lat="38.3243060" lon="-0.6628650">
        <ele>233.0</ele>
        <time>2019-10-19T15:19:22Z</time>
      </trkpt>
      <trkpt lat="38.3242740" lon="-0.6629130">
        <ele>233.0</ele>
        <time>2019-10-19T15:19:23Z</time>
      </trkpt>
      <trkpt lat="38.3242410" lon="-0.6629590">
        <ele>233.4</ele>
        <time>2019-10-19T15:19:24Z</time>
      </trkpt>
      <trkpt lat="38.3242070" lon="-0.6630050">
        <ele>233.6</ele>
        <time>2019-10-19T15:19:25Z</time>
      </trkpt>
      <trkpt lat="38.3241720" lon="-0.6630510">
        <ele>233.6</ele>
        <time>2019-10-19T15:19:26Z</time>
      </trkpt>
      <trkpt lat="38.3241360" lon="-0.6630960">
        <ele>233.6</ele>
        <time>2019-10-19T15:19:27Z</time>
      </trkpt>
      <trkpt lat="38.3240980" lon="-0.6631380">
        <ele>233.8</ele>
        <time>2019-10-19T15:19:28Z</time>
      </trkpt>
      <trkpt lat="38.3240590" lon="-0.6631800">
        <ele>233.8</ele>
        <time>2019-10-19T15:19:29Z</time>
      </trkpt>
      <trkpt lat="38.3240180" lon="-0.6632220">
        <ele>234.0</ele>
        <time>2019-10-19T15:19:30Z</time>
      </trkpt>
      <trkpt lat="38.3239750" lon="-0.6632610">
        <ele>234.2</ele>
        <time>2019-10-19T15:19:31Z</time>
      </trkpt>
      <trkpt lat="38.3239310" lon="-0.6632980">
        <ele>234.2</ele>
        <time>2019-10-19T15:19:32Z</time>
      </trkpt>
      <trkpt lat="38.3238860" lon="-0.6633320">
        <ele>234.2</ele>
        <time>2019-10-19T15:19:33Z</time>
      </trkpt>
      <trkpt lat="38.3238390" lon="-0.6633640">
        <ele>234.4</ele>
        <time>2019-10-19T15:19:34Z</time>
      </trkpt>
      <trkpt lat="38.3237910" lon="-0.6633950">
        <ele>234.4</ele>
        <time>2019-10-19T15:19:35Z</time>
      </trkpt>
      <trkpt lat="38.3237410" lon="-0.6634240">
        <ele>234.6</ele>
        <time>2019-10-19T15:19:36Z</time>
      </trkpt>
      <trkpt lat="38.3236910" lon="-0.6634500">
        <ele>234.6</ele>
        <time>2019-10-19T15:19:37Z</time>
      </trkpt>
      <trkpt lat="38.3236410" lon="-0.6634730">
        <ele>234.8</ele>
        <time>2019-10-19T15:19:38Z</time>
      </trkpt>
      <trkpt lat="38.3235910" lon="-0.6634920">
        <ele>234.8</ele>
        <time>2019-10-19T15:19:39Z</time>
      </trkpt>
      <trkpt lat="38.3235390" lon="-0.6635080">
        <ele>234.8</ele>
        <time>2019-10-19T15:19:40Z</time>
      </trkpt>
      <trkpt lat="38.3234860" lon="-0.6635230">
        <ele>234.8</ele>
        <time>2019-10-19T15:19:41Z</time>
      </trkpt>
      <trkpt lat="38.3234350" lon="-0.6635330">
        <ele>234.8</ele>
        <time>2019-10-19T15:19:42Z</time>
      </trkpt>
      <trkpt lat="38.3233830" lon="-0.6635410">
        <ele>234.6</ele>
        <time>2019-10-19T15:19:43Z</time>
      </trkpt>
      <trkpt lat="38.3233300" lon="-0.6635470">
        <ele>234.6</ele>
        <time>2019-10-19T15:19:44Z</time>
      </trkpt>
      <trkpt lat="38.3232770" lon="-0.6635500">
        <ele>234.8</ele>
        <time>2019-10-19T15:19:45Z</time>
      </trkpt>
      <trkpt lat="38.3232240" lon="-0.6635520">
        <ele>234.8</ele>
        <time>2019-10-19T15:19:46Z</time>
      </trkpt>
      <trkpt lat="38.3231710" lon="-0.6635540">
        <ele>234.8</ele>
        <time>2019-10-19T15:19:47Z</time>
      </trkpt>
      <trkpt lat="38.3231180" lon="-0.6635580">
        <ele>234.8</ele>
        <time>2019-10-19T15:19:48Z</time>
      </trkpt>
      <trkpt lat="38.3230640" lon="-0.6635610">
        <ele>234.8</ele>
        <time>2019-10-19T15:19:49Z</time>
      </trkpt>
      <trkpt lat="38.3230090" lon="-0.6635620">
        <ele>234.8</ele>
        <time>2019-10-19T15:19:50Z</time>
      </trkpt>
      <trkpt lat="38.3229540" lon="-0.6635640">
        <ele>234.8</ele>
        <time>2019-10-19T15:19:51Z</time>
      </trkpt>
      <trkpt lat="38.3228990" lon="-0.6635670">
        <ele>235.0</ele>
        <time>2019-10-19T15:19:52Z</time>
      </trkpt>
      <trkpt lat="38.3228450" lon="-0.6635670">
        <ele>235.0</ele>
        <time>2019-10-19T15:19:53Z</time>
      </trkpt>
      <trkpt lat="38.3227900" lon="-0.6635680">
        <ele>235.0</ele>
        <time>2019-10-19T15:19:54Z</time>
      </trkpt>
      <trkpt lat="38.3227360" lon="-0.6635680">
        <ele>235.2</ele>
        <time>2019-10-19T15:19:55Z</time>
      </trkpt>
      <trkpt lat="38.3226810" lon="-0.6635680">
        <ele>235.0</ele>
        <time>2019-10-19T15:19:56Z</time>
      </trkpt>
      <trkpt lat="38.3226250" lon="-0.6635680">
        <ele>235.0</ele>
        <time>2019-10-19T15:19:57Z</time>
      </trkpt>
      <trkpt lat="38.3225700" lon="-0.6635680">
        <ele>235.2</ele>
        <time>2019-10-19T15:19:58Z</time>
      </trkpt>
      <trkpt lat="38.3225140" lon="-0.6635680">
        <ele>235.4</ele>
        <time>2019-10-19T15:19:59Z</time>
      </trkpt>
      <trkpt lat="38.3224580" lon="-0.6635700">
        <ele>235.2</ele>
        <time>2019-10-19T15:20:00Z</time>
      </trkpt>
      <trkpt lat="38.3224010" lon="-0.6635700">
        <ele>235.4</ele>
        <time>2019-10-19T15:20:01Z</time>
      </trkpt>
      <trkpt lat="38.3223440" lon="-0.6635710">
        <ele>235.8</ele>
        <time>2019-10-19T15:20:02Z</time>
      </trkpt>
      <trkpt lat="38.3222850" lon="-0.6635720">
        <ele>235.8</ele>
        <time>2019-10-19T15:20:03Z</time>
      </trkpt>
      <trkpt lat="38.3222250" lon="-0.6635730">
        <ele>235.6</ele>
        <time>2019-10-19T15:20:04Z</time>
      </trkpt>
      <trkpt lat="38.3221640" lon="-0.6635740">
        <ele>235.6</ele>
        <time>2019-10-19T15:20:05Z</time>
      </trkpt>
      <trkpt lat="38.3221030" lon="-0.6635730">
        <ele>235.6</ele>
        <time>2019-10-19T15:20:06Z</time>
      </trkpt>
      <trkpt lat="38.3220420" lon="-0.6635740">
        <ele>235.4</ele>
        <time>2019-10-19T15:20:07Z</time>
      </trkpt>
      <trkpt lat="38.3219810" lon="-0.6635770">
        <ele>235.2</ele>
        <time>2019-10-19T15:20:08Z</time>
      </trkpt>
      <trkpt lat="38.3219210" lon="-0.6635810">
        <ele>235.2</ele>
        <time>2019-10-19T15:20:09Z</time>
      </trkpt>
      <trkpt lat="38.3218590" lon="-0.6635850">
        <ele>235.0</ele>
        <time>2019-10-19T15:20:10Z</time>
      </trkpt>
      <trkpt lat="38.3217970" lon="-0.6635880">
        <ele>235.0</ele>
        <time>2019-10-19T15:20:11Z</time>
      </trkpt>
      <trkpt lat="38.3217360" lon="-0.6635920">
        <ele>235.2</ele>
        <time>2019-10-19T15:20:12Z</time>
      </trkpt>
      <trkpt lat="38.3216750" lon="-0.6635960">
        <ele>235.2</ele>
        <time>2019-10-19T15:20:13Z</time>
      </trkpt>
      <trkpt lat="38.3216130" lon="-0.6636010">
        <ele>235.2</ele>
        <time>2019-10-19T15:20:14Z</time>
      </trkpt>
      <trkpt lat="38.3215540" lon="-0.6636090">
        <ele>235.0</ele>
        <time>2019-10-19T15:20:15Z</time>
      </trkpt>
      <trkpt lat="38.3214940" lon="-0.6636170">
        <ele>235.2</ele>
        <time>2019-10-19T15:20:16Z</time>
      </trkpt>
      <trkpt lat="38.3214370" lon="-0.6636280">
        <ele>235.2</ele>
        <time>2019-10-19T15:20:17Z</time>
      </trkpt>
      <trkpt lat="38.3213800" lon="-0.6636390">
        <ele>235.4</ele>
        <time>2019-10-19T15:20:18Z</time>
      </trkpt>
      <trkpt lat="38.3213270" lon="-0.6636520">
        <ele>235.4</ele>
        <time>2019-10-19T15:20:19Z</time>
      </trkpt>
      <trkpt lat="38.3212740" lon="-0.6636660">
        <ele>235.6</ele>
        <time>2019-10-19T15:20:20Z</time>
      </trkpt>
      <trkpt lat="38.3212250" lon="-0.6636850">
        <ele>235.8</ele>
        <time>2019-10-19T15:20:21Z</time>
      </trkpt>
      <trkpt lat="38.3211770" lon="-0.6637050">
        <ele>235.8</ele>
        <time>2019-10-19T15:20:22Z</time>
      </trkpt>
      <trkpt lat="38.3211310" lon="-0.6637220">
        <ele>236.2</ele>
        <time>2019-10-19T15:20:23Z</time>
      </trkpt>
      <trkpt lat="38.3210890" lon="-0.6637360">
        <ele>236.4</ele>
        <time>2019-10-19T15:20:24Z</time>
      </trkpt>
      <trkpt lat="38.3210480" lon="-0.6637530">
        <ele>236.6</ele>
        <time>2019-10-19T15:20:25Z</time>
      </trkpt>
      <trkpt lat="38.3210020" lon="-0.6637680">
        <ele>237.0</ele>
        <time>2019-10-19T15:20:26Z</time>
      </trkpt>
      <trkpt lat="38.3209590" lon="-0.6637850">
        <ele>237.2</ele>
        <time>2019-10-19T15:20:27Z</time>
      </trkpt>
      <trkpt lat="38.3209160" lon="-0.6637970">
        <ele>237.6</ele>
        <time>2019-10-19T15:20:28Z</time>
      </trkpt>
      <trkpt lat="38.3208740" lon="-0.6638070">
        <ele>238.0</ele>
        <time>2019-10-19T15:20:29Z</time>
      </trkpt>
      <trkpt lat="38.3208330" lon="-0.6638150">
        <ele>238.2</ele>
        <time>2019-10-19T15:20:30Z</time>
      </trkpt>
      <trkpt lat="38.3207930" lon="-0.6638260">
        <ele>238.6</ele>
        <time>2019-10-19T15:20:31Z</time>
      </trkpt>
      <trkpt lat="38.3207520" lon="-0.6638370">
        <ele>238.8</ele>
        <time>2019-10-19T15:20:32Z</time>
      </trkpt>
      <trkpt lat="38.3207100" lon="-0.6638510">
        <ele>239.0</ele>
        <time>2019-10-19T15:20:33Z</time>
      </trkpt>
      <trkpt lat="38.3206690" lon="-0.6638640">
        <ele>239.6</ele>
        <time>2019-10-19T15:20:34Z</time>
      </trkpt>
      <trkpt lat="38.3206270" lon="-0.6638780">
        <ele>239.8</ele>
        <time>2019-10-19T15:20:35Z</time>
      </trkpt>
      <trkpt lat="38.3205840" lon="-0.6638920">
        <ele>240.0</ele>
        <time>2019-10-19T15:20:36Z</time>
      </trkpt>
      <trkpt lat="38.3205430" lon="-0.6639040">
        <ele>240.4</ele>
        <time>2019-10-19T15:20:37Z</time>
      </trkpt>
      <trkpt lat="38.3205030" lon="-0.6639180">
        <ele>240.4</ele>
        <time>2019-10-19T15:20:38Z</time>
      </trkpt>
      <trkpt lat="38.3204630" lon="-0.6639310">
        <ele>240.4</ele>
        <time>2019-10-19T15:20:39Z</time>
      </trkpt>
      <trkpt lat="38.3204210" lon="-0.6639430">
        <ele>240.4</ele>
        <time>2019-10-19T15:20:40Z</time>
      </trkpt>
      <trkpt lat="38.3203760" lon="-0.6639550">
        <ele>240.6</ele>
        <time>2019-10-19T15:20:41Z</time>
      </trkpt>
      <trkpt lat="38.3203330" lon="-0.6639680">
        <ele>240.6</ele>
        <time>2019-10-19T15:20:42Z</time>
      </trkpt>
      <trkpt lat="38.3202870" lon="-0.6639810">
        <ele>240.4</ele>
        <time>2019-10-19T15:20:43Z</time>
      </trkpt>
      <trkpt lat="38.3202430" lon="-0.6639930">
        <ele>240.6</ele>
        <time>2019-10-19T15:20:44Z</time>
      </trkpt>
      <trkpt lat="38.3201970" lon="-0.6640030">
        <ele>240.6</ele>
        <time>2019-10-19T15:20:45Z</time>
      </trkpt>
      <trkpt lat="38.3201510" lon="-0.6640160">
        <ele>240.8</ele>
        <time>2019-10-19T15:20:46Z</time>
      </trkpt>
      <trkpt lat="38.3201050" lon="-0.6640300">
        <ele>241.0</ele>
        <time>2019-10-19T15:20:47Z</time>
      </trkpt>
      <trkpt lat="38.3200580" lon="-0.6640430">
        <ele>241.0</ele>
        <time>2019-10-19T15:20:48Z</time>
      </trkpt>
      <trkpt lat="38.3200120" lon="-0.6640560">
        <ele>241.2</ele>
        <time>2019-10-19T15:20:49Z</time>
      </trkpt>
      <trkpt lat="38.3199630" lon="-0.6640640">
        <ele>241.4</ele>
        <time>2019-10-19T15:20:50Z</time>
      </trkpt>
      <trkpt lat="38.3199160" lon="-0.6640730">
        <ele>241.4</ele>
        <time>2019-10-19T15:20:51Z</time>
      </trkpt>
      <trkpt lat="38.3198700" lon="-0.6640860">
        <ele>241.6</ele>
        <time>2019-10-19T15:20:52Z</time>
      </trkpt>
      <trkpt lat="38.3198260" lon="-0.6641030">
        <ele>241.8</ele>
        <time>2019-10-19T15:20:53Z</time>
      </trkpt>
      <trkpt lat="38.3197810" lon="-0.6641170">
        <ele>241.8</ele>
        <time>2019-10-19T15:20:54Z</time>
      </trkpt>
      <trkpt lat="38.3197360" lon="-0.6641330">
        <ele>242.0</ele>
        <time>2019-10-19T15:20:55Z</time>
      </trkpt>
      <trkpt lat="38.3196920" lon="-0.6641500">
        <ele>242.2</ele>
        <time>2019-10-19T15:20:56Z</time>
      </trkpt>
      <trkpt lat="38.3196470" lon="-0.6641670">
        <ele>242.4</ele>
        <time>2019-10-19T15:20:57Z</time>
      </trkpt>
      <trkpt lat="38.3196030" lon="-0.6641830">
        <ele>242.6</ele>
        <time>2019-10-19T15:20:58Z</time>
      </trkpt>
      <trkpt lat="38.3195580" lon="-0.6642000">
        <ele>242.6</ele>
        <time>2019-10-19T15:20:59Z</time>
      </trkpt>
      <trkpt lat="38.3195120" lon="-0.6642180">
        <ele>242.6</ele>
        <time>2019-10-19T15:21:00Z</time>
      </trkpt>
      <trkpt lat="38.3194670" lon="-0.6642340">
        <ele>242.8</ele>
        <time>2019-10-19T15:21:01Z</time>
      </trkpt>
      <trkpt lat="38.3194220" lon="-0.6642510">
        <ele>242.8</ele>
        <time>2019-10-19T15:21:02Z</time>
      </trkpt>
      <trkpt lat="38.3193770" lon="-0.6642660">
        <ele>243.0</ele>
        <time>2019-10-19T15:21:03Z</time>
      </trkpt>
      <trkpt lat="38.3193310" lon="-0.6642810">
        <ele>243.2</ele>
        <time>2019-10-19T15:21:04Z</time>
      </trkpt>
      <trkpt lat="38.3192850" lon="-0.6642970">
        <ele>243.6</ele>
        <time>2019-10-19T15:21:05Z</time>
      </trkpt>
      <trkpt lat="38.3192380" lon="-0.6643090">
        <ele>243.6</ele>
        <time>2019-10-19T15:21:06Z</time>
      </trkpt>
      <trkpt lat="38.3191910" lon="-0.6643210">
        <ele>243.8</ele>
        <time>2019-10-19T15:21:07Z</time>
      </trkpt>
      <trkpt lat="38.3191430" lon="-0.6643320">
        <ele>243.8</ele>
        <time>2019-10-19T15:21:08Z</time>
      </trkpt>
      <trkpt lat="38.3190960" lon="-0.6643420">
        <ele>244.0</ele>
        <time>2019-10-19T15:21:09Z</time>
      </trkpt>
      <trkpt lat="38.3190480" lon="-0.6643490">
        <ele>244.2</ele>
        <time>2019-10-19T15:21:10Z</time>
      </trkpt>
      <trkpt lat="38.3190010" lon="-0.6643550">
        <ele>244.2</ele>
        <time>2019-10-19T15:21:11Z</time>
      </trkpt>
      <trkpt lat="38.3189540" lon="-0.6643580">
        <ele>244.4</ele>
        <time>2019-10-19T15:21:12Z</time>
      </trkpt>
      <trkpt lat="38.3189070" lon="-0.6643630">
        <ele>244.4</ele>
        <time>2019-10-19T15:21:13Z</time>
      </trkpt>
      <trkpt lat="38.3188610" lon="-0.6643670">
        <ele>244.6</ele>
        <time>2019-10-19T15:21:14Z</time>
      </trkpt>
      <trkpt lat="38.3188120" lon="-0.6643680">
        <ele>244.6</ele>
        <time>2019-10-19T15:21:15Z</time>
      </trkpt>
      <trkpt lat="38.3187620" lon="-0.6643680">
        <ele>244.6</ele>
        <time>2019-10-19T15:21:16Z</time>
      </trkpt>
      <trkpt lat="38.3187120" lon="-0.6643680">
        <ele>244.8</ele>
        <time>2019-10-19T15:21:17Z</time>
      </trkpt>
      <trkpt lat="38.3186610" lon="-0.6643680">
        <ele>245.0</ele>
        <time>2019-10-19T15:21:18Z</time>
      </trkpt>
      <trkpt lat="38.3186120" lon="-0.6643710">
        <ele>245.2</ele>
        <time>2019-10-19T15:21:19Z</time>
      </trkpt>
      <trkpt lat="38.3185590" lon="-0.6643680">
        <ele>245.0</ele>
        <time>2019-10-19T15:21:20Z</time>
      </trkpt>
      <trkpt lat="38.3185060" lon="-0.6643640">
        <ele>245.0</ele>
        <time>2019-10-19T15:21:21Z</time>
      </trkpt>
      <trkpt lat="38.3184520" lon="-0.6643590">
        <ele>245.0</ele>
        <time>2019-10-19T15:21:22Z</time>
      </trkpt>
      <trkpt lat="38.3183980" lon="-0.6643500">
        <ele>245.0</ele>
        <time>2019-10-19T15:21:23Z</time>
      </trkpt>
      <trkpt lat="38.3183450" lon="-0.6643400">
        <ele>245.0</ele>
        <time>2019-10-19T15:21:24Z</time>
      </trkpt>
      <trkpt lat="38.3182880" lon="-0.6643210">
        <ele>244.8</ele>
        <time>2019-10-19T15:21:25Z</time>
      </trkpt>
      <trkpt lat="38.3182310" lon="-0.6643000">
        <ele>244.6</ele>
        <time>2019-10-19T15:21:26Z</time>
      </trkpt>
      <trkpt lat="38.3181740" lon="-0.6642760">
        <ele>244.4</ele>
        <time>2019-10-19T15:21:27Z</time>
      </trkpt>
      <trkpt lat="38.3181150" lon="-0.6642480">
        <ele>244.2</ele>
        <time>2019-10-19T15:21:28Z</time>
      </trkpt>
      <trkpt lat="38.3180560" lon="-0.6642170">
        <ele>243.8</ele>
        <time>2019-10-19T15:21:29Z</time>
      </trkpt>
      <trkpt lat="38.3179960" lon="-0.6641830">
        <ele>243.8</ele>
        <time>2019-10-19T15:21:30Z</time>
      </trkpt>
      <trkpt lat="38.3179360" lon="-0.6641480">
        <ele>243.4</ele>
        <time>2019-10-19T15:21:31Z</time>
      </trkpt>
      <trkpt lat="38.3178760" lon="-0.6641110">
        <ele>243.2</ele>
        <time>2019-10-19T15:21:32Z</time>
      </trkpt>
      <trkpt lat="38.3178160" lon="-0.6640710">
        <ele>243.0</ele>
        <time>2019-10-19T15:21:33Z</time>
      </trkpt>
      <trkpt lat="38.3177570" lon="-0.6640300">
        <ele>243.0</ele>
        <time>2019-10-19T15:21:34Z</time>
      </trkpt>
      <trkpt lat="38.3176970" lon="-0.6639890">
        <ele>242.8</ele>
        <time>2019-10-19T15:21:35Z</time>
      </trkpt>
      <trkpt lat="38.3176370" lon="-0.6639470">
        <ele>242.6</ele>
        <time>2019-10-19T15:21:36Z</time>
      </trkpt>
      <trkpt lat="38.3175760" lon="-0.6639040">
        <ele>242.4</ele>
        <time>2019-10-19T15:21:37Z</time>
      </trkpt>
      <trkpt lat="38.3175140" lon="-0.6638600">
        <ele>242.0</ele>
        <time>2019-10-19T15:21:38Z</time>
      </trkpt>
      <trkpt lat="38.3174500" lon="-0.6638150">
        <ele>241.8</ele>
        <time>2019-10-19T15:21:39Z</time>
      </trkpt>
      <trkpt lat="38.3173850" lon="-0.6637680">
        <ele>241.6</ele>
        <time>2019-10-19T15:21:40Z</time>
      </trkpt>
      <trkpt lat="38.3173190" lon="-0.6637190">
        <ele>241.2</ele>
        <time>2019-10-19T15:21:41Z</time>
      </trkpt>
      <trkpt lat="38.3172520" lon="-0.6636690">
        <ele>241.0</ele>
        <time>2019-10-19T15:21:42Z</time>
      </trkpt>
      <trkpt lat="38.3171830" lon="-0.6636170">
        <ele>240.4</ele>
        <time>2019-10-19T15:21:43Z</time>
      </trkpt>
      <trkpt lat="38.3171120" lon="-0.6635630">
        <ele>239.8</ele>
        <time>2019-10-19T15:21:44Z</time>
      </trkpt>
      <trkpt lat="38.3170380" lon="-0.6635080">
        <ele>239.4</ele>
        <time>2019-10-19T15:21:45Z</time>
      </trkpt>
      <trkpt lat="38.3169630" lon="-0.6634510">
        <ele>239.0</ele>
        <time>2019-10-19T15:21:46Z</time>
      </trkpt>
      <trkpt lat="38.3168870" lon="-0.6633950">
        <ele>238.6</ele>
        <time>2019-10-19T15:21:47Z</time>
      </trkpt>
      <trkpt lat="38.3168100" lon="-0.6633370">
        <ele>238.2</ele>
        <time>2019-10-19T15:21:48Z</time>
      </trkpt>
      <trkpt lat="38.3167300" lon="-0.6632780">
        <ele>237.6</ele>
        <time>2019-10-19T15:21:49Z</time>
      </trkpt>
      <trkpt lat="38.3166480" lon="-0.6632180">
        <ele>236.8</ele>
        <time>2019-10-19T15:21:50Z</time>
      </trkpt>
      <trkpt lat="38.3165650" lon="-0.6631570">
        <ele>236.0</ele>
        <time>2019-10-19T15:21:51Z</time>
      </trkpt>
      <trkpt lat="38.3164810" lon="-0.6630950">
        <ele>235.4</ele>
        <time>2019-10-19T15:21:52Z</time>
      </trkpt>
      <trkpt lat="38.3163960" lon="-0.6630320">
        <ele>234.6</ele>
        <time>2019-10-19T15:21:53Z</time>
      </trkpt>
      <trkpt lat="38.3163100" lon="-0.6629680">
        <ele>234.0</ele>
        <time>2019-10-19T15:21:54Z</time>
      </trkpt>
      <trkpt lat="38.3162230" lon="-0.6629040">
        <ele>233.4</ele>
        <time>2019-10-19T15:21:55Z</time>
      </trkpt>
      <trkpt lat="38.3161350" lon="-0.6628380">
        <ele>232.8</ele>
        <time>2019-10-19T15:21:56Z</time>
      </trkpt>
      <trkpt lat="38.3160460" lon="-0.6627730">
        <ele>232.0</ele>
        <time>2019-10-19T15:21:57Z</time>
      </trkpt>
      <trkpt lat="38.3159580" lon="-0.6627060">
        <ele>231.6</ele>
        <time>2019-10-19T15:21:58Z</time>
      </trkpt>
      <trkpt lat="38.3158700" lon="-0.6626380">
        <ele>231.0</ele>
        <time>2019-10-19T15:21:59Z</time>
      </trkpt>
      <trkpt lat="38.3157820" lon="-0.6625650">
        <ele>230.2</ele>
        <time>2019-10-19T15:22:00Z</time>
      </trkpt>
      <trkpt lat="38.3156960" lon="-0.6624930">
        <ele>229.8</ele>
        <time>2019-10-19T15:22:01Z</time>
      </trkpt>
      <trkpt lat="38.3156110" lon="-0.6624190">
        <ele>229.2</ele>
        <time>2019-10-19T15:22:02Z</time>
      </trkpt>
      <trkpt lat="38.3155280" lon="-0.6623410">
        <ele>229.0</ele>
        <time>2019-10-19T15:22:03Z</time>
      </trkpt>
      <trkpt lat="38.3154470" lon="-0.6622630">
        <ele>228.6</ele>
        <time>2019-10-19T15:22:04Z</time>
      </trkpt>
      <trkpt lat="38.3153670" lon="-0.6621830">
        <ele>228.4</ele>
        <time>2019-10-19T15:22:05Z</time>
      </trkpt>
      <trkpt lat="38.3152900" lon="-0.6621060">
        <ele>228.4</ele>
        <time>2019-10-19T15:22:06Z</time>
      </trkpt>
      <trkpt lat="38.3152140" lon="-0.6620310">
        <ele>228.2</ele>
        <time>2019-10-19T15:22:07Z</time>
      </trkpt>
      <trkpt lat="38.3151390" lon="-0.6619550">
        <ele>228.2</ele>
        <time>2019-10-19T15:22:08Z</time>
      </trkpt>
      <trkpt lat="38.3150670" lon="-0.6618790">
        <ele>228.0</ele>
        <time>2019-10-19T15:22:09Z</time>
      </trkpt>
      <trkpt lat="38.3149960" lon="-0.6618030">
        <ele>228.0</ele>
        <time>2019-10-19T15:22:10Z</time>
      </trkpt>
      <trkpt lat="38.3149240" lon="-0.6617300">
        <ele>228.0</ele>
        <time>2019-10-19T15:22:11Z</time>
      </trkpt>
      <trkpt lat="38.3148550" lon="-0.6616560">
        <ele>227.6</ele>
        <time>2019-10-19T15:22:12Z</time>
      </trkpt>
      <trkpt lat="38.3147870" lon="-0.6615830">
        <ele>227.4</ele>
        <time>2019-10-19T15:22:13Z</time>
      </trkpt>
      <trkpt lat="38.3147180" lon="-0.6615110">
        <ele>227.2</ele>
        <time>2019-10-19T15:22:14Z</time>
      </trkpt>
      <trkpt lat="38.3146500" lon="-0.6614380">
        <ele>227.2</ele>
        <time>2019-10-19T15:22:15Z</time>
      </trkpt>
      <trkpt lat="38.3145820" lon="-0.6613670">
        <ele>227.2</ele>
        <time>2019-10-19T15:22:16Z</time>
      </trkpt>
      <trkpt lat="38.3145190" lon="-0.6612960">
        <ele>227.0</ele>
        <time>2019-10-19T15:22:17Z</time>
      </trkpt>
      <trkpt lat="38.3144560" lon="-0.6612220">
        <ele>226.8</ele>
        <time>2019-10-19T15:22:18Z</time>
      </trkpt>
      <trkpt lat="38.3143960" lon="-0.6611480">
        <ele>226.6</ele>
        <time>2019-10-19T15:22:19Z</time>
      </trkpt>
      <trkpt lat="38.3143390" lon="-0.6610710">
        <ele>226.6</ele>
        <time>2019-10-19T15:22:20Z</time>
      </trkpt>
      <trkpt lat="38.3142860" lon="-0.6609900">
        <ele>226.6</ele>
        <time>2019-10-19T15:22:21Z</time>
      </trkpt>
      <trkpt lat="38.3142360" lon="-0.6609070">
        <ele>226.6</ele>
        <time>2019-10-19T15:22:22Z</time>
      </trkpt>
      <trkpt lat="38.3141890" lon="-0.6608220">
        <ele>226.4</ele>
        <time>2019-10-19T15:22:23Z</time>
      </trkpt>
      <trkpt lat="38.3141420" lon="-0.6607380">
        <ele>226.4</ele>
        <time>2019-10-19T15:22:24Z</time>
      </trkpt>
      <trkpt lat="38.3140970" lon="-0.6606530">
        <ele>226.2</ele>
        <time>2019-10-19T15:22:25Z</time>
      </trkpt>
      <trkpt lat="38.3140530" lon="-0.6605680">
        <ele>226.0</ele>
        <time>2019-10-19T15:22:26Z</time>
      </trkpt>
      <trkpt lat="38.3140060" lon="-0.6604810">
        <ele>225.8</ele>
        <time>2019-10-19T15:22:27Z</time>
      </trkpt>
      <trkpt lat="38.3139580" lon="-0.6603960">
        <ele>225.6</ele>
        <time>2019-10-19T15:22:28Z</time>
      </trkpt>
      <trkpt lat="38.3139070" lon="-0.6603130">
        <ele>225.4</ele>
        <time>2019-10-19T15:22:29Z</time>
      </trkpt>
      <trkpt lat="38.3138530" lon="-0.6602330">
        <ele>225.2</ele>
        <time>2019-10-19T15:22:30Z</time>
      </trkpt>
      <trkpt lat="38.3137960" lon="-0.6601580">
        <ele>225.0</ele>
        <time>2019-10-19T15:22:31Z</time>
      </trkpt>
      <trkpt lat="38.3137360" lon="-0.6600870">
        <ele>225.0</ele>
        <time>2019-10-19T15:22:32Z</time>
      </trkpt>
      <trkpt lat="38.3136730" lon="-0.6600200">
        <ele>224.8</ele>
        <time>2019-10-19T15:22:33Z</time>
      </trkpt>
      <trkpt lat="38.3136050" lon="-0.6599600">
        <ele>224.6</ele>
        <time>2019-10-19T15:22:34Z</time>
      </trkpt>
      <trkpt lat="38.3135320" lon="-0.6599070">
        <ele>224.4</ele>
        <time>2019-10-19T15:22:35Z</time>
      </trkpt>
      <trkpt lat="38.3134560" lon="-0.6598620">
        <ele>224.0</ele>
        <time>2019-10-19T15:22:36Z</time>
      </trkpt>
      <trkpt lat="38.3133780" lon="-0.6598230">
        <ele>223.6</ele>
        <time>2019-10-19T15:22:37Z</time>
      </trkpt>
      <trkpt lat="38.3132960" lon="-0.6597860">
        <ele>223.2</ele>
        <time>2019-10-19T15:22:38Z</time>
      </trkpt>
      <trkpt lat="38.3132130" lon="-0.6597510">
        <ele>223.0</ele>
        <time>2019-10-19T15:22:39Z</time>
      </trkpt>
      <trkpt lat="38.3131310" lon="-0.6597190">
        <ele>222.6</ele>
        <time>2019-10-19T15:22:40Z</time>
      </trkpt>
      <trkpt lat="38.3130480" lon="-0.6596890">
        <ele>222.2</ele>
        <time>2019-10-19T15:22:41Z</time>
      </trkpt>
      <trkpt lat="38.3129620" lon="-0.6596620">
        <ele>221.8</ele>
        <time>2019-10-19T15:22:42Z</time>
      </trkpt>
      <trkpt lat="38.3128760" lon="-0.6596330">
        <ele>221.2</ele>
        <time>2019-10-19T15:22:43Z</time>
      </trkpt>
      <trkpt lat="38.3127900" lon="-0.6596030">
        <ele>221.0</ele>
        <time>2019-10-19T15:22:44Z</time>
      </trkpt>
      <trkpt lat="38.3127030" lon="-0.6595730">
        <ele>220.6</ele>
        <time>2019-10-19T15:22:45Z</time>
      </trkpt>
      <trkpt lat="38.3126150" lon="-0.6595420">
        <ele>220.2</ele>
        <time>2019-10-19T15:22:46Z</time>
      </trkpt>
      <trkpt lat="38.3125260" lon="-0.6595110">
        <ele>219.6</ele>
        <time>2019-10-19T15:22:47Z</time>
      </trkpt>
      <trkpt lat="38.3124350" lon="-0.6594830">
        <ele>219.0</ele>
        <time>2019-10-19T15:22:48Z</time>
      </trkpt>
      <trkpt lat="38.3123450" lon="-0.6594580">
        <ele>218.4</ele>
        <time>2019-10-19T15:22:49Z</time>
      </trkpt>
      <trkpt lat="38.3122540" lon="-0.6594360">
        <ele>217.8</ele>
        <time>2019-10-19T15:22:50Z</time>
      </trkpt>
      <trkpt lat="38.3121600" lon="-0.6594170">
        <ele>217.6</ele>
        <time>2019-10-19T15:22:51Z</time>
      </trkpt>
      <trkpt lat="38.3120670" lon="-0.6594000">
        <ele>216.8</ele>
        <time>2019-10-19T15:22:52Z</time>
      </trkpt>
      <trkpt lat="38.3119720" lon="-0.6593880">
        <ele>216.2</ele>
        <time>2019-10-19T15:22:53Z</time>
      </trkpt>
      <trkpt lat="38.3118730" lon="-0.6593780">
        <ele>215.8</ele>
        <time>2019-10-19T15:22:54Z</time>
      </trkpt>
      <trkpt lat="38.3117750" lon="-0.6593710">
        <ele>215.6</ele>
        <time>2019-10-19T15:22:55Z</time>
      </trkpt>
      <trkpt lat="38.3116750" lon="-0.6593610">
        <ele>215.0</ele>
        <time>2019-10-19T15:22:56Z</time>
      </trkpt>
      <trkpt lat="38.3115750" lon="-0.6593550">
        <ele>214.4</ele>
        <time>2019-10-19T15:22:57Z</time>
      </trkpt>
      <trkpt lat="38.3114750" lon="-0.6593510">
        <ele>213.8</ele>
        <time>2019-10-19T15:22:58Z</time>
      </trkpt>
      <trkpt lat="38.3113750" lon="-0.6593510">
        <ele>213.2</ele>
        <time>2019-10-19T15:22:59Z</time>
      </trkpt>
      <trkpt lat="38.3112710" lon="-0.6593520">
        <ele>212.6</ele>
        <time>2019-10-19T15:23:00Z</time>
      </trkpt>
      <trkpt lat="38.3111700" lon="-0.6593570">
        <ele>212.4</ele>
        <time>2019-10-19T15:23:01Z</time>
      </trkpt>
      <trkpt lat="38.3110690" lon="-0.6593670">
        <ele>212.0</ele>
        <time>2019-10-19T15:23:02Z</time>
      </trkpt>
      <trkpt lat="38.3109680" lon="-0.6593800">
        <ele>211.6</ele>
        <time>2019-10-19T15:23:03Z</time>
      </trkpt>
      <trkpt lat="38.3108680" lon="-0.6593970">
        <ele>211.2</ele>
        <time>2019-10-19T15:23:04Z</time>
      </trkpt>
      <trkpt lat="38.3107680" lon="-0.6594210">
        <ele>210.6</ele>
        <time>2019-10-19T15:23:05Z</time>
      </trkpt>
      <trkpt lat="38.3106700" lon="-0.6594550">
        <ele>210.2</ele>
        <time>2019-10-19T15:23:06Z</time>
      </trkpt>
      <trkpt lat="38.3105770" lon="-0.6595070">
        <ele>209.6</ele>
        <time>2019-10-19T15:23:07Z</time>
      </trkpt>
      <trkpt lat="38.3104900" lon="-0.6595760">
        <ele>209.4</ele>
        <time>2019-10-19T15:23:08Z</time>
      </trkpt>
      <trkpt lat="38.3104100" lon="-0.6596560">
        <ele>209.4</ele>
        <time>2019-10-19T15:23:09Z</time>
      </trkpt>
      <trkpt lat="38.3103350" lon="-0.6597420">
        <ele>209.2</ele>
        <time>2019-10-19T15:23:10Z</time>
      </trkpt>
      <trkpt lat="38.3102620" lon="-0.6598280">
        <ele>209.2</ele>
        <time>2019-10-19T15:23:11Z</time>
      </trkpt>
      <trkpt lat="38.3101920" lon="-0.6599130">
        <ele>208.8</ele>
        <time>2019-10-19T15:23:12Z</time>
      </trkpt>
      <trkpt lat="38.3101230" lon="-0.6599980">
        <ele>208.8</ele>
        <time>2019-10-19T15:23:13Z</time>
      </trkpt>
      <trkpt lat="38.3100560" lon="-0.6600820">
        <ele>208.8</ele>
        <time>2019-10-19T15:23:14Z</time>
      </trkpt>
      <trkpt lat="38.3099900" lon="-0.6601640">
        <ele>208.8</ele>
        <time>2019-10-19T15:23:15Z</time>
      </trkpt>
      <trkpt lat="38.3099240" lon="-0.6602460">
        <ele>208.8</ele>
        <time>2019-10-19T15:23:16Z</time>
      </trkpt>
      <trkpt lat="38.3098600" lon="-0.6603260">
        <ele>208.6</ele>
        <time>2019-10-19T15:23:17Z</time>
      </trkpt>
      <trkpt lat="38.3097980" lon="-0.6604070">
        <ele>208.6</ele>
        <time>2019-10-19T15:23:18Z</time>
      </trkpt>
      <trkpt lat="38.3097350" lon="-0.6604850">
        <ele>208.4</ele>
        <time>2019-10-19T15:23:19Z</time>
      </trkpt>
      <trkpt lat="38.3096740" lon="-0.6605620">
        <ele>208.2</ele>
        <time>2019-10-19T15:23:20Z</time>
      </trkpt>
      <trkpt lat="38.3096150" lon="-0.6606400">
        <ele>208.4</ele>
        <time>2019-10-19T15:23:21Z</time>
      </trkpt>
      <trkpt lat="38.3095550" lon="-0.6607160">
        <ele>208.4</ele>
        <time>2019-10-19T15:23:22Z</time>
      </trkpt>
      <trkpt lat="38.3094970" lon="-0.6607900">
        <ele>208.4</ele>
        <time>2019-10-19T15:23:23Z</time>
      </trkpt>
      <trkpt lat="38.3094370" lon="-0.6608630">
        <ele>208.4</ele>
        <time>2019-10-19T15:23:24Z</time>
      </trkpt>
      <trkpt lat="38.3093800" lon="-0.6609360">
        <ele>208.2</ele>
        <time>2019-10-19T15:23:25Z</time>
      </trkpt>
      <trkpt lat="38.3093220" lon="-0.6610070">
        <ele>208.4</ele>
        <time>2019-10-19T15:23:26Z</time>
      </trkpt>
      <trkpt lat="38.3092630" lon="-0.6610770">
        <ele>208.4</ele>
        <time>2019-10-19T15:23:27Z</time>
      </trkpt>
      <trkpt lat="38.3092030" lon="-0.6611470">
        <ele>208.6</ele>
        <time>2019-10-19T15:23:28Z</time>
      </trkpt>
      <trkpt lat="38.3091440" lon="-0.6612190">
        <ele>208.6</ele>
        <time>2019-10-19T15:23:29Z</time>
      </trkpt>
      <trkpt lat="38.3090870" lon="-0.6612910">
        <ele>208.6</ele>
        <time>2019-10-19T15:23:30Z</time>
      </trkpt>
      <trkpt lat="38.3090310" lon="-0.6613620">
        <ele>208.8</ele>
        <time>2019-10-19T15:23:31Z</time>
      </trkpt>
      <trkpt lat="38.3089740" lon="-0.6614320">
        <ele>208.8</ele>
        <time>2019-10-19T15:23:32Z</time>
      </trkpt>
      <trkpt lat="38.3089170" lon="-0.6615020">
        <ele>208.8</ele>
        <time>2019-10-19T15:23:33Z</time>
      </trkpt>
      <trkpt lat="38.3088610" lon="-0.6615740">
        <ele>208.8</ele>
        <time>2019-10-19T15:23:34Z</time>
      </trkpt>
      <trkpt lat="38.3088060" lon="-0.6616450">
        <ele>208.8</ele>
        <time>2019-10-19T15:23:35Z</time>
      </trkpt>
      <trkpt lat="38.3087510" lon="-0.6617150">
        <ele>209.0</ele>
        <time>2019-10-19T15:23:36Z</time>
      </trkpt>
      <trkpt lat="38.3086980" lon="-0.6617830">
        <ele>208.8</ele>
        <time>2019-10-19T15:23:37Z</time>
      </trkpt>
      <trkpt lat="38.3086450" lon="-0.6618500">
        <ele>208.8</ele>
        <time>2019-10-19T15:23:38Z</time>
      </trkpt>
      <trkpt lat="38.3085910" lon="-0.6619170">
        <ele>208.8</ele>
        <time>2019-10-19T15:23:39Z</time>
      </trkpt>
      <trkpt lat="38.3085370" lon="-0.6619850">
        <ele>208.6</ele>
        <time>2019-10-19T15:23:40Z</time>
      </trkpt>
      <trkpt lat="38.3084830" lon="-0.6620540">
        <ele>208.8</ele>
        <time>2019-10-19T15:23:41Z</time>
      </trkpt>
      <trkpt lat="38.3084280" lon="-0.6621230">
        <ele>208.8</ele>
        <time>2019-10-19T15:23:42Z</time>
      </trkpt>
      <trkpt lat="38.3083740" lon="-0.6621910">
        <ele>208.4</ele>
        <time>2019-10-19T15:23:43Z</time>
      </trkpt>
      <trkpt lat="38.3083190" lon="-0.6622590">
        <ele>208.4</ele>
        <time>2019-10-19T15:23:44Z</time>
      </trkpt>
      <trkpt lat="38.3082650" lon="-0.6623270">
        <ele>208.2</ele>
        <time>2019-10-19T15:23:45Z</time>
      </trkpt>
      <trkpt lat="38.3082100" lon="-0.6623950">
        <ele>208.4</ele>
        <time>2019-10-19T15:23:46Z</time>
      </trkpt>
      <trkpt lat="38.3081550" lon="-0.6624640">
        <ele>208.4</ele>
        <time>2019-10-19T15:23:47Z</time>
      </trkpt>
      <trkpt lat="38.3081010" lon="-0.6625340">
        <ele>208.4</ele>
        <time>2019-10-19T15:23:48Z</time>
      </trkpt>
      <trkpt lat="38.3080460" lon="-0.6626030">
        <ele>208.2</ele>
        <time>2019-10-19T15:23:49Z</time>
      </trkpt>
      <trkpt lat="38.3079910" lon="-0.6626730">
        <ele>208.2</ele>
        <time>2019-10-19T15:23:50Z</time>
      </trkpt>
      <trkpt lat="38.3079350" lon="-0.6627430">
        <ele>208.0</ele>
        <time>2019-10-19T15:23:51Z</time>
      </trkpt>
      <trkpt lat="38.3078800" lon="-0.6628140">
        <ele>208.2</ele>
        <time>2019-10-19T15:23:52Z</time>
      </trkpt>
      <trkpt lat="38.3078240" lon="-0.6628850">
        <ele>208.0</ele>
        <time>2019-10-19T15:23:53Z</time>
      </trkpt>
      <trkpt lat="38.3077660" lon="-0.6629570">
        <ele>207.8</ele>
        <time>2019-10-19T15:23:54Z</time>
      </trkpt>
      <trkpt lat="38.3077090" lon="-0.6630280">
        <ele>207.8</ele>
        <time>2019-10-19T15:23:55Z</time>
      </trkpt>
      <trkpt lat="38.3076510" lon="-0.6631010">
        <ele>207.8</ele>
        <time>2019-10-19T15:23:56Z</time>
      </trkpt>
      <trkpt lat="38.3075940" lon="-0.6631740">
        <ele>207.8</ele>
        <time>2019-10-19T15:23:57Z</time>
      </trkpt>
      <trkpt lat="38.3075360" lon="-0.6632480">
        <ele>207.8</ele>
        <time>2019-10-19T15:23:58Z</time>
      </trkpt>
      <trkpt lat="38.3074780" lon="-0.6633220">
        <ele>207.8</ele>
        <time>2019-10-19T15:23:59Z</time>
      </trkpt>
      <trkpt lat="38.3074200" lon="-0.6633960">
        <ele>207.6</ele>
        <time>2019-10-19T15:24:00Z</time>
      </trkpt>
      <trkpt lat="38.3073600" lon="-0.6634680">
        <ele>207.6</ele>
        <time>2019-10-19T15:24:01Z</time>
      </trkpt>
      <trkpt lat="38.3073020" lon="-0.6635420">
        <ele>207.4</ele>
        <time>2019-10-19T15:24:02Z</time>
      </trkpt>
      <trkpt lat="38.3072440" lon="-0.6636150">
        <ele>207.4</ele>
        <time>2019-10-19T15:24:03Z</time>
      </trkpt>
      <trkpt lat="38.3071850" lon="-0.6636880">
        <ele>207.4</ele>
        <time>2019-10-19T15:24:04Z</time>
      </trkpt>
      <trkpt lat="38.3071270" lon="-0.6637610">
        <ele>207.4</ele>
        <time>2019-10-19T15:24:05Z</time>
      </trkpt>
      <trkpt lat="38.3070660" lon="-0.6638320">
        <ele>207.4</ele>
        <time>2019-10-19T15:24:06Z</time>
      </trkpt>
      <trkpt lat="38.3070030" lon="-0.6639000">
        <ele>207.4</ele>
        <time>2019-10-19T15:24:07Z</time>
      </trkpt>
      <trkpt lat="38.3069390" lon="-0.6639650">
        <ele>207.2</ele>
        <time>2019-10-19T15:24:08Z</time>
      </trkpt>
      <trkpt lat="38.3068720" lon="-0.6640270">
        <ele>207.2</ele>
        <time>2019-10-19T15:24:09Z</time>
      </trkpt>
      <trkpt lat="38.3068050" lon="-0.6640860">
        <ele>207.2</ele>
        <time>2019-10-19T15:24:10Z</time>
      </trkpt>
      <trkpt lat="38.3067350" lon="-0.6641420">
        <ele>207.2</ele>
        <time>2019-10-19T15:24:11Z</time>
      </trkpt>
      <trkpt lat="38.3066640" lon="-0.6641950">
        <ele>207.2</ele>
        <time>2019-10-19T15:24:12Z</time>
      </trkpt>
      <trkpt lat="38.3065920" lon="-0.6642460">
        <ele>207.2</ele>
        <time>2019-10-19T15:24:13Z</time>
      </trkpt>
      <trkpt lat="38.3065180" lon="-0.6642930">
        <ele>207.2</ele>
        <time>2019-10-19T15:24:14Z</time>
      </trkpt>
      <trkpt lat="38.3064440" lon="-0.6643360">
        <ele>207.2</ele>
        <time>2019-10-19T15:24:15Z</time>
      </trkpt>
      <trkpt lat="38.3063680" lon="-0.6643770">
        <ele>207.2</ele>
        <time>2019-10-19T15:24:16Z</time>
      </trkpt>
      <trkpt lat="38.3062940" lon="-0.6644160">
        <ele>207.0</ele>
        <time>2019-10-19T15:24:17Z</time>
      </trkpt>
      <trkpt lat="38.3062210" lon="-0.6644540">
        <ele>206.8</ele>
        <time>2019-10-19T15:24:18Z</time>
      </trkpt>
      <trkpt lat="38.3061500" lon="-0.6644960">
        <ele>206.6</ele>
        <time>2019-10-19T15:24:19Z</time>
      </trkpt>
      <trkpt lat="38.3060810" lon="-0.6645380">
        <ele>206.4</ele>
        <time>2019-10-19T15:24:20Z</time>
      </trkpt>
      <trkpt lat="38.3060120" lon="-0.6645800">
        <ele>206.6</ele>
        <time>2019-10-19T15:24:21Z</time>
      </trkpt>
      <trkpt lat="38.3059430" lon="-0.6646220">
        <ele>206.8</ele>
        <time>2019-10-19T15:24:22Z</time>
      </trkpt>
      <trkpt lat="38.3058760" lon="-0.6646690">
        <ele>206.6</ele>
        <time>2019-10-19T15:24:23Z</time>
      </trkpt>
      <trkpt lat="38.3058120" lon="-0.6647240">
        <ele>206.6</ele>
        <time>2019-10-19T15:24:24Z</time>
      </trkpt>
      <trkpt lat="38.3057540" lon="-0.6647890">
        <ele>206.6</ele>
        <time>2019-10-19T15:24:25Z</time>
      </trkpt>
      <trkpt lat="38.3057030" lon="-0.6648610">
        <ele>206.6</ele>
        <time>2019-10-19T15:24:26Z</time>
      </trkpt>
      <trkpt lat="38.3056580" lon="-0.6649380">
        <ele>206.6</ele>
        <time>2019-10-19T15:24:27Z</time>
      </trkpt>
      <trkpt lat="38.3056120" lon="-0.6650120">
        <ele>206.8</ele>
        <time>2019-10-19T15:24:28Z</time>
      </trkpt>
      <trkpt lat="38.3055610" lon="-0.6650800">
        <ele>207.0</ele>
        <time>2019-10-19T15:24:29Z</time>
      </trkpt>
      <trkpt lat="38.3055020" lon="-0.6651360">
        <ele>206.8</ele>
        <time>2019-10-19T15:24:30Z</time>
      </trkpt>
      <trkpt lat="38.3054340" lon="-0.6651670">
        <ele>206.6</ele>
        <time>2019-10-19T15:24:31Z</time>
      </trkpt>
      <trkpt lat="38.3053620" lon="-0.6651650">
        <ele>206.6</ele>
        <time>2019-10-19T15:24:32Z</time>
      </trkpt>
      <trkpt lat="38.3052960" lon="-0.6651330">
        <ele>206.4</ele>
        <time>2019-10-19T15:24:33Z</time>
      </trkpt>
      <trkpt lat="38.3052420" lon="-0.6650760">
        <ele>206.2</ele>
        <time>2019-10-19T15:24:34Z</time>
      </trkpt>
      <trkpt lat="38.3052080" lon="-0.6650000">
        <ele>206.2</ele>
        <time>2019-10-19T15:24:35Z</time>
      </trkpt>
      <trkpt lat="38.3051960" lon="-0.6649150">
        <ele>206.0</ele>
        <time>2019-10-19T15:24:36Z</time>
      </trkpt>
      <trkpt lat="38.3052110" lon="-0.6648290">
        <ele>206.0</ele>
        <time>2019-10-19T15:24:37Z</time>
      </trkpt>
      <trkpt lat="38.3052470" lon="-0.6647530">
        <ele>206.0</ele>
        <time>2019-10-19T15:24:38Z</time>
      </trkpt>
      <trkpt lat="38.3052990" lon="-0.6646950">
        <ele>206.2</ele>
        <time>2019-10-19T15:24:39Z</time>
      </trkpt>
      <trkpt lat="38.3053610" lon="-0.6646570">
        <ele>206.0</ele>
        <time>2019-10-19T15:24:40Z</time>
      </trkpt>
      <trkpt lat="38.3054270" lon="-0.6646430">
        <ele>206.2</ele>
        <time>2019-10-19T15:24:41Z</time>
      </trkpt>
      <trkpt lat="38.3054950" lon="-0.6646460">
        <ele>206.6</ele>
        <time>2019-10-19T15:24:42Z</time>
      </trkpt>
      <trkpt lat="38.3055620" lon="-0.6646500">
        <ele>206.6</ele>
        <time>2019-10-19T15:24:43Z</time>
      </trkpt>
      <trkpt lat="38.3056300" lon="-0.6646480">
        <ele>206.6</ele>
        <time>2019-10-19T15:24:44Z</time>
      </trkpt>
      <trkpt lat="38.3056980" lon="-0.6646340">
        <ele>206.6</ele>
        <time>2019-10-19T15:24:45Z</time>
      </trkpt>
      <trkpt lat="38.3057620" lon="-0.6646070">
        <ele>206.8</ele>
        <time>2019-10-19T15:24:46Z</time>
      </trkpt>
      <trkpt lat="38.3058240" lon="-0.6645740">
        <ele>206.8</ele>
        <time>2019-10-19T15:24:47Z</time>
      </trkpt>
      <trkpt lat="38.3058860" lon="-0.6645400">
        <ele>207.0</ele>
        <time>2019-10-19T15:24:48Z</time>
      </trkpt>
      <trkpt lat="38.3059500" lon="-0.6645100">
        <ele>207.0</ele>
        <time>2019-10-19T15:24:49Z</time>
      </trkpt>
      <trkpt lat="38.3060140" lon="-0.6644790">
        <ele>207.2</ele>
        <time>2019-10-19T15:24:50Z</time>
      </trkpt>
      <trkpt lat="38.3060780" lon="-0.6644450">
        <ele>207.2</ele>
        <time>2019-10-19T15:24:51Z</time>
      </trkpt>
      <trkpt lat="38.3061420" lon="-0.6644090">
        <ele>207.2</ele>
        <time>2019-10-19T15:24:52Z</time>
      </trkpt>
      <trkpt lat="38.3062060" lon="-0.6643730">
        <ele>207.4</ele>
        <time>2019-10-19T15:24:53Z</time>
      </trkpt>
      <trkpt lat="38.3062700" lon="-0.6643360">
        <ele>207.4</ele>
        <time>2019-10-19T15:24:54Z</time>
      </trkpt>
      <trkpt lat="38.3063360" lon="-0.6642990">
        <ele>207.2</ele>
        <time>2019-10-19T15:24:55Z</time>
      </trkpt>
      <trkpt lat="38.3064020" lon="-0.6642640">
        <ele>207.2</ele>
        <time>2019-10-19T15:24:56Z</time>
      </trkpt>
      <trkpt lat="38.3064660" lon="-0.6642230">
        <ele>207.2</ele>
        <time>2019-10-19T15:24:57Z</time>
      </trkpt>
      <trkpt lat="38.3065290" lon="-0.6641880">
        <ele>207.4</ele>
        <time>2019-10-19T15:24:58Z</time>
      </trkpt>
      <trkpt lat="38.3065920" lon="-0.6641560">
        <ele>207.4</ele>
        <time>2019-10-19T15:24:59Z</time>
      </trkpt>
      <trkpt lat="38.3066500" lon="-0.6641140">
        <ele>207.4</ele>
        <time>2019-10-19T15:25:00Z</time>
      </trkpt>
      <trkpt lat="38.3067010" lon="-0.6640630">
        <ele>207.4</ele>
        <time>2019-10-19T15:25:01Z</time>
      </trkpt>
      <trkpt lat="38.3067460" lon="-0.6640030">
        <ele>207.6</ele>
        <time>2019-10-19T15:25:02Z</time>
      </trkpt>
      <trkpt lat="38.3067910" lon="-0.6639380">
        <ele>207.4</ele>
        <time>2019-10-19T15:25:03Z</time>
      </trkpt>
      <trkpt lat="38.3068370" lon="-0.6638760">
        <ele>207.4</ele>
        <time>2019-10-19T15:25:04Z</time>
      </trkpt>
      <trkpt lat="38.3068840" lon="-0.6638180">
        <ele>207.6</ele>
        <time>2019-10-19T15:25:05Z</time>
      </trkpt>
      <trkpt lat="38.3069310" lon="-0.6637620">
        <ele>207.8</ele>
        <time>2019-10-19T15:25:06Z</time>
      </trkpt>
      <trkpt lat="38.3069790" lon="-0.6637060">
        <ele>208.0</ele>
        <time>2019-10-19T15:25:07Z</time>
      </trkpt>
      <trkpt lat="38.3070260" lon="-0.6636510">
        <ele>208.2</ele>
        <time>2019-10-19T15:25:08Z</time>
      </trkpt>
      <trkpt lat="38.3070710" lon="-0.6635960">
        <ele>208.2</ele>
        <time>2019-10-19T15:25:09Z</time>
      </trkpt>
      <trkpt lat="38.3071180" lon="-0.6635400">
        <ele>208.2</ele>
        <time>2019-10-19T15:25:10Z</time>
      </trkpt>
      <trkpt lat="38.3071630" lon="-0.6634860">
        <ele>208.4</ele>
        <time>2019-10-19T15:25:11Z</time>
      </trkpt>
      <trkpt lat="38.3072090" lon="-0.6634310">
        <ele>208.2</ele>
        <time>2019-10-19T15:25:12Z</time>
      </trkpt>
      <trkpt lat="38.3072540" lon="-0.6633740">
        <ele>208.2</ele>
        <time>2019-10-19T15:25:13Z</time>
      </trkpt>
      <trkpt lat="38.3072990" lon="-0.6633180">
        <ele>208.2</ele>
        <time>2019-10-19T15:25:14Z</time>
      </trkpt>
      <trkpt lat="38.3073440" lon="-0.6632630">
        <ele>208.2</ele>
        <time>2019-10-19T15:25:15Z</time>
      </trkpt>
      <trkpt lat="38.3073860" lon="-0.6632070">
        <ele>208.2</ele>
        <time>2019-10-19T15:25:16Z</time>
      </trkpt>
      <trkpt lat="38.3074260" lon="-0.6631490">
        <ele>208.2</ele>
        <time>2019-10-19T15:25:17Z</time>
      </trkpt>
      <trkpt lat="38.3074640" lon="-0.6630910">
        <ele>208.2</ele>
        <time>2019-10-19T15:25:18Z</time>
      </trkpt>
      <trkpt lat="38.3075050" lon="-0.6630450">
        <ele>208.2</ele>
        <time>2019-10-19T15:25:19Z</time>
      </trkpt>
      <trkpt lat="38.3075480" lon="-0.6630160">
        <ele>208.2</ele>
        <time>2019-10-19T15:25:20Z</time>
      </trkpt>
      <trkpt lat="38.3075830" lon="-0.6630200">
        <ele>208.4</ele>
        <time>2019-10-19T15:25:21Z</time>
      </trkpt>
      <trkpt lat="38.3076080" lon="-0.6630490">
        <ele>208.6</ele>
        <time>2019-10-19T15:25:22Z</time>
      </trkpt>
      <trkpt lat="38.3076130" lon="-0.6630930">
        <ele>208.6</ele>
        <time>2019-10-19T15:25:23Z</time>
      </trkpt>
      <trkpt lat="38.3076000" lon="-0.6631400">
        <ele>208.2</ele>
        <time>2019-10-19T15:25:24Z</time>
      </trkpt>
      <trkpt lat="38.3075760" lon="-0.6631840">
        <ele>208.2</ele>
        <time>2019-10-19T15:25:25Z</time>
      </trkpt>
      <trkpt lat="38.3075460" lon="-0.6632270">
        <ele>208.2</ele>
        <time>2019-10-19T15:25:26Z</time>
      </trkpt>
      <trkpt lat="38.3075110" lon="-0.6632720">
        <ele>208.2</ele>
        <time>2019-10-19T15:25:27Z</time>
      </trkpt>
      <trkpt lat="38.3074750" lon="-0.6633190">
        <ele>208.2</ele>
        <time>2019-10-19T15:25:28Z</time>
      </trkpt>
      <trkpt lat="38.3074370" lon="-0.6633660">
        <ele>208.2</ele>
        <time>2019-10-19T15:25:29Z</time>
      </trkpt>
      <trkpt lat="38.3073970" lon="-0.6634170">
        <ele>208.2</ele>
        <time>2019-10-19T15:25:30Z</time>
      </trkpt>
      <trkpt lat="38.3073560" lon="-0.6634670">
        <ele>208.0</ele>
        <time>2019-10-19T15:25:31Z</time>
      </trkpt>
      <trkpt lat="38.3073150" lon="-0.6635190">
        <ele>208.0</ele>
        <time>2019-10-19T15:25:32Z</time>
      </trkpt>
      <trkpt lat="38.3072740" lon="-0.6635700">
        <ele>208.0</ele>
        <time>2019-10-19T15:25:33Z</time>
      </trkpt>
      <trkpt lat="38.3072320" lon="-0.6636200">
        <ele>208.0</ele>
        <time>2019-10-19T15:25:34Z</time>
      </trkpt>
      <trkpt lat="38.3071910" lon="-0.6636700">
        <ele>208.0</ele>
        <time>2019-10-19T15:25:35Z</time>
      </trkpt>
      <trkpt lat="38.3071520" lon="-0.6637240">
        <ele>208.0</ele>
        <time>2019-10-19T15:25:36Z</time>
      </trkpt>
      <trkpt lat="38.3071110" lon="-0.6637770">
        <ele>208.2</ele>
        <time>2019-10-19T15:25:37Z</time>
      </trkpt>
      <trkpt lat="38.3070700" lon="-0.6638290">
        <ele>208.0</ele>
        <time>2019-10-19T15:25:38Z</time>
      </trkpt>
      <trkpt lat="38.3070250" lon="-0.6638780">
        <ele>207.8</ele>
        <time>2019-10-19T15:25:39Z</time>
      </trkpt>
      <trkpt lat="38.3069780" lon="-0.6639260">
        <ele>207.8</ele>
        <time>2019-10-19T15:25:40Z</time>
      </trkpt>
      <trkpt lat="38.3069300" lon="-0.6639730">
        <ele>207.8</ele>
        <time>2019-10-19T15:25:41Z</time>
      </trkpt>
      <trkpt lat="38.3068820" lon="-0.6640200">
        <ele>208.0</ele>
        <time>2019-10-19T15:25:42Z</time>
      </trkpt>
      <trkpt lat="38.3068330" lon="-0.6640650">
        <ele>208.0</ele>
        <time>2019-10-19T15:25:43Z</time>
      </trkpt>
      <trkpt lat="38.3067840" lon="-0.6641070">
        <ele>208.0</ele>
        <time>2019-10-19T15:25:44Z</time>
      </trkpt>
      <trkpt lat="38.3067340" lon="-0.6641460">
        <ele>208.0</ele>
        <time>2019-10-19T15:25:45Z</time>
      </trkpt>
      <trkpt lat="38.3066830" lon="-0.6641830">
        <ele>208.0</ele>
        <time>2019-10-19T15:25:46Z</time>
      </trkpt>
      <trkpt lat="38.3066320" lon="-0.6642160">
        <ele>207.8</ele>
        <time>2019-10-19T15:25:47Z</time>
      </trkpt>
      <trkpt lat="38.3065810" lon="-0.6642490">
        <ele>208.0</ele>
        <time>2019-10-19T15:25:48Z</time>
      </trkpt>
      <trkpt lat="38.3065310" lon="-0.6642800">
        <ele>207.8</ele>
        <time>2019-10-19T15:25:49Z</time>
      </trkpt>
      <trkpt lat="38.3064810" lon="-0.6643100">
        <ele>207.8</ele>
        <time>2019-10-19T15:25:50Z</time>
      </trkpt>
      <trkpt lat="38.3064280" lon="-0.6643400">
        <ele>207.8</ele>
        <time>2019-10-19T15:25:51Z</time>
      </trkpt>
      <trkpt lat="38.3063740" lon="-0.6643720">
        <ele>207.8</ele>
        <time>2019-10-19T15:25:52Z</time>
      </trkpt>
      <trkpt lat="38.3063180" lon="-0.6644030">
        <ele>207.6</ele>
        <time>2019-10-19T15:25:53Z</time>
      </trkpt>
      <trkpt lat="38.3062610" lon="-0.6644340">
        <ele>207.6</ele>
        <time>2019-10-19T15:25:54Z</time>
      </trkpt>
      <trkpt lat="38.3062030" lon="-0.6644660">
        <ele>207.2</ele>
        <time>2019-10-19T15:25:55Z</time>
      </trkpt>
      <trkpt lat="38.3061460" lon="-0.6645000">
        <ele>207.6</ele>
        <time>2019-10-19T15:25:56Z</time>
      </trkpt>
      <trkpt lat="38.3060880" lon="-0.6645340">
        <ele>207.2</ele>
        <time>2019-10-19T15:25:57Z</time>
      </trkpt>
      <trkpt lat="38.3060300" lon="-0.6645680">
        <ele>207.2</ele>
        <time>2019-10-19T15:25:58Z</time>
      </trkpt>
      <trkpt lat="38.3059730" lon="-0.6646030">
        <ele>207.2</ele>
        <time>2019-10-19T15:25:59Z</time>
      </trkpt>
      <trkpt lat="38.3059160" lon="-0.6646410">
        <ele>207.2</ele>
        <time>2019-10-19T15:26:00Z</time>
      </trkpt>
      <trkpt lat="38.3058600" lon="-0.6646850">
        <ele>207.4</ele>
        <time>2019-10-19T15:26:01Z</time>
      </trkpt>
      <trkpt lat="38.3058060" lon="-0.6647320">
        <ele>207.2</ele>
        <time>2019-10-19T15:26:02Z</time>
      </trkpt>
      <trkpt lat="38.3057560" lon="-0.6647880">
        <ele>207.4</ele>
        <time>2019-10-19T15:26:03Z</time>
      </trkpt>
      <trkpt lat="38.3057120" lon="-0.6648520">
        <ele>207.4</ele>
        <time>2019-10-19T15:26:04Z</time>
      </trkpt>
      <trkpt lat="38.3056770" lon="-0.6649230">
        <ele>207.4</ele>
        <time>2019-10-19T15:26:05Z</time>
      </trkpt>
      <trkpt lat="38.3056460" lon="-0.6649970">
        <ele>207.2</ele>
        <time>2019-10-19T15:26:06Z</time>
      </trkpt>
      <trkpt lat="38.3056120" lon="-0.6650680">
        <ele>207.4</ele>
        <time>2019-10-19T15:26:07Z</time>
      </trkpt>
      <trkpt lat="38.3055700" lon="-0.6651310">
        <ele>207.4</ele>
        <time>2019-10-19T15:26:08Z</time>
      </trkpt>
      <trkpt lat="38.3055180" lon="-0.6651800">
        <ele>207.2</ele>
        <time>2019-10-19T15:26:09Z</time>
      </trkpt>
      <trkpt lat="38.3054560" lon="-0.6652090">
        <ele>207.0</ele>
        <time>2019-10-19T15:26:10Z</time>
      </trkpt>
      <trkpt lat="38.3053890" lon="-0.6652150">
        <ele>206.8</ele>
        <time>2019-10-19T15:26:11Z</time>
      </trkpt>
      <trkpt lat="38.3053230" lon="-0.6651960">
        <ele>206.6</ele>
        <time>2019-10-19T15:26:12Z</time>
      </trkpt>
      <trkpt lat="38.3052620" lon="-0.6651540">
        <ele>206.6</ele>
        <time>2019-10-19T15:26:13Z</time>
      </trkpt>
      <trkpt lat="38.3052100" lon="-0.6650950">
        <ele>206.4</ele>
        <time>2019-10-19T15:26:14Z</time>
      </trkpt>
      <trkpt lat="38.3051640" lon="-0.6650270">
        <ele>206.6</ele>
        <time>2019-10-19T15:26:15Z</time>
      </trkpt>
      <trkpt lat="38.3051200" lon="-0.6649570">
        <ele>206.4</ele>
        <time>2019-10-19T15:26:16Z</time>
      </trkpt>
      <trkpt lat="38.3050720" lon="-0.6648900">
        <ele>206.2</ele>
        <time>2019-10-19T15:26:17Z</time>
      </trkpt>
      <trkpt lat="38.3050160" lon="-0.6648400">
        <ele>206.4</ele>
        <time>2019-10-19T15:26:18Z</time>
      </trkpt>
      <trkpt lat="38.3049560" lon="-0.6648070">
        <ele>206.6</ele>
        <time>2019-10-19T15:26:19Z</time>
      </trkpt>
      <trkpt lat="38.3048960" lon="-0.6647830">
        <ele>207.0</ele>
        <time>2019-10-19T15:26:20Z</time>
      </trkpt>
      <trkpt lat="38.3048380" lon="-0.6647650">
        <ele>207.2</ele>
        <time>2019-10-19T15:26:21Z</time>
      </trkpt>
      <trkpt lat="38.3047820" lon="-0.6647530">
        <ele>207.4</ele>
        <time>2019-10-19T15:26:22Z</time>
      </trkpt>
      <trkpt lat="38.3047260" lon="-0.6647470">
        <ele>207.6</ele>
        <time>2019-10-19T15:26:23Z</time>
      </trkpt>
      <trkpt lat="38.3046700" lon="-0.6647450">
        <ele>207.8</ele>
        <time>2019-10-19T15:26:24Z</time>
      </trkpt>
      <trkpt lat="38.3046140" lon="-0.6647430">
        <ele>208.0</ele>
        <time>2019-10-19T15:26:25Z</time>
      </trkpt>
      <trkpt lat="38.3045580" lon="-0.6647410">
        <ele>208.2</ele>
        <time>2019-10-19T15:26:26Z</time>
      </trkpt>
      <trkpt lat="38.3045000" lon="-0.6647420">
        <ele>208.6</ele>
        <time>2019-10-19T15:26:27Z</time>
      </trkpt>
      <trkpt lat="38.3044410" lon="-0.6647430">
        <ele>208.6</ele>
        <time>2019-10-19T15:26:28Z</time>
      </trkpt>
      <trkpt lat="38.3043800" lon="-0.6647420">
        <ele>208.6</ele>
        <time>2019-10-19T15:26:29Z</time>
      </trkpt>
      <trkpt lat="38.3043210" lon="-0.6647410">
        <ele>208.8</ele>
        <time>2019-10-19T15:26:30Z</time>
      </trkpt>
      <trkpt lat="38.3042610" lon="-0.6647430">
        <ele>208.8</ele>
        <time>2019-10-19T15:26:31Z</time>
      </trkpt>
      <trkpt lat="38.3042000" lon="-0.6647440">
        <ele>209.0</ele>
        <time>2019-10-19T15:26:32Z</time>
      </trkpt>
      <trkpt lat="38.3041400" lon="-0.6647440">
        <ele>209.0</ele>
        <time>2019-10-19T15:26:33Z</time>
      </trkpt>
      <trkpt lat="38.3040800" lon="-0.6647470">
        <ele>209.2</ele>
        <time>2019-10-19T15:26:34Z</time>
      </trkpt>
      <trkpt lat="38.3040210" lon="-0.6647540">
        <ele>209.2</ele>
        <time>2019-10-19T15:26:35Z</time>
      </trkpt>
      <trkpt lat="38.3039620" lon="-0.6647550">
        <ele>209.4</ele>
        <time>2019-10-19T15:26:36Z</time>
      </trkpt>
      <trkpt lat="38.3039020" lon="-0.6647530">
        <ele>209.6</ele>
        <time>2019-10-19T15:26:37Z</time>
      </trkpt>
      <trkpt lat="38.3038410" lon="-0.6647540">
        <ele>209.8</ele>
        <time>2019-10-19T15:26:38Z</time>
      </trkpt>
      <trkpt lat="38.3037780" lon="-0.6647510">
        <ele>210.0</ele>
        <time>2019-10-19T15:26:39Z</time>
      </trkpt>
      <trkpt lat="38.3037180" lon="-0.6647520">
        <ele>210.0</ele>
        <time>2019-10-19T15:26:40Z</time>
      </trkpt>
      <trkpt lat="38.3036570" lon="-0.6647510">
        <ele>210.0</ele>
        <time>2019-10-19T15:26:41Z</time>
      </trkpt>
      <trkpt lat="38.3035970" lon="-0.6647480">
        <ele>210.0</ele>
        <time>2019-10-19T15:26:42Z</time>
      </trkpt>
      <trkpt lat="38.3035360" lon="-0.6647460">
        <ele>210.4</ele>
        <time>2019-10-19T15:26:43Z</time>
      </trkpt>
      <trkpt lat="38.3034780" lon="-0.6647420">
        <ele>210.4</ele>
        <time>2019-10-19T15:26:44Z</time>
      </trkpt>
      <trkpt lat="38.3034200" lon="-0.6647340">
        <ele>210.6</ele>
        <time>2019-10-19T15:26:45Z</time>
      </trkpt>
      <trkpt lat="38.3033610" lon="-0.6647240">
        <ele>210.6</ele>
        <time>2019-10-19T15:26:46Z</time>
      </trkpt>
      <trkpt lat="38.3033010" lon="-0.6647140">
        <ele>210.6</ele>
        <time>2019-10-19T15:26:47Z</time>
      </trkpt>
      <trkpt lat="38.3032400" lon="-0.6647020">
        <ele>210.6</ele>
        <time>2019-10-19T15:26:48Z</time>
      </trkpt>
      <trkpt lat="38.3031800" lon="-0.6646890">
        <ele>210.6</ele>
        <time>2019-10-19T15:26:49Z</time>
      </trkpt>
      <trkpt lat="38.3031190" lon="-0.6646720">
        <ele>210.8</ele>
        <time>2019-10-19T15:26:50Z</time>
      </trkpt>
      <trkpt lat="38.3030580" lon="-0.6646540">
        <ele>210.6</ele>
        <time>2019-10-19T15:26:51Z</time>
      </trkpt>
      <trkpt lat="38.3029960" lon="-0.6646350">
        <ele>210.6</ele>
        <time>2019-10-19T15:26:52Z</time>
      </trkpt>
      <trkpt lat="38.3029320" lon="-0.6646150">
        <ele>210.4</ele>
        <time>2019-10-19T15:26:53Z</time>
      </trkpt>
      <trkpt lat="38.3028670" lon="-0.6645950">
        <ele>210.2</ele>
        <time>2019-10-19T15:26:54Z</time>
      </trkpt>
      <trkpt lat="38.3028020" lon="-0.6645770">
        <ele>210.2</ele>
        <time>2019-10-19T15:26:55Z</time>
      </trkpt>
      <trkpt lat="38.3027360" lon="-0.6645580">
        <ele>210.0</ele>
        <time>2019-10-19T15:26:56Z</time>
      </trkpt>
      <trkpt lat="38.3026700" lon="-0.6645400">
        <ele>209.8</ele>
        <time>2019-10-19T15:26:57Z</time>
      </trkpt>
      <trkpt lat="38.3026010" lon="-0.6645230">
        <ele>209.6</ele>
        <time>2019-10-19T15:26:58Z</time>
      </trkpt>
      <trkpt lat="38.3025310" lon="-0.6645070">
        <ele>209.4</ele>
        <time>2019-10-19T15:26:59Z</time>
      </trkpt>
      <trkpt lat="38.3024600" lon="-0.6644930">
        <ele>208.8</ele>
        <time>2019-10-19T15:27:00Z</time>
      </trkpt>
      <trkpt lat="38.3023860" lon="-0.6644830">
        <ele>208.4</ele>
        <time>2019-10-19T15:27:01Z</time>
      </trkpt>
      <trkpt lat="38.3023110" lon="-0.6644770">
        <ele>208.0</ele>
        <time>2019-10-19T15:27:02Z</time>
      </trkpt>
      <trkpt lat="38.3022330" lon="-0.6644730">
        <ele>207.6</ele>
        <time>2019-10-19T15:27:03Z</time>
      </trkpt>
      <trkpt lat="38.3021550" lon="-0.6644700">
        <ele>207.2</ele>
        <time>2019-10-19T15:27:04Z</time>
      </trkpt>
      <trkpt lat="38.3020760" lon="-0.6644680">
        <ele>206.8</ele>
        <time>2019-10-19T15:27:05Z</time>
      </trkpt>
      <trkpt lat="38.3019950" lon="-0.6644680">
        <ele>206.4</ele>
        <time>2019-10-19T15:27:06Z</time>
      </trkpt>
      <trkpt lat="38.3019130" lon="-0.6644720">
        <ele>206.0</ele>
        <time>2019-10-19T15:27:07Z</time>
      </trkpt>
      <trkpt lat="38.3018270" lon="-0.6644760">
        <ele>205.4</ele>
        <time>2019-10-19T15:27:08Z</time>
      </trkpt>
      <trkpt lat="38.3017390" lon="-0.6644840">
        <ele>204.8</ele>
        <time>2019-10-19T15:27:09Z</time>
      </trkpt>
      <trkpt lat="38.3016470" lon="-0.6644890">
        <ele>203.8</ele>
        <time>2019-10-19T15:27:10Z</time>
      </trkpt>
      <trkpt lat="38.3015510" lon="-0.6644930">
        <ele>203.0</ele>
        <time>2019-10-19T15:27:11Z</time>
      </trkpt>
      <trkpt lat="38.3014540" lon="-0.6644980">
        <ele>202.2</ele>
        <time>2019-10-19T15:27:12Z</time>
      </trkpt>
      <trkpt lat="38.3013530" lon="-0.6645040">
        <ele>201.2</ele>
        <time>2019-10-19T15:27:13Z</time>
      </trkpt>
      <trkpt lat="38.3012490" lon="-0.6645090">
        <ele>200.2</ele>
        <time>2019-10-19T15:27:14Z</time>
      </trkpt>
      <trkpt lat="38.3011410" lon="-0.6645140">
        <ele>199.4</ele>
        <time>2019-10-19T15:27:15Z</time>
      </trkpt>
      <trkpt lat="38.3010300" lon="-0.6645190">
        <ele>198.2</ele>
        <time>2019-10-19T15:27:16Z</time>
      </trkpt>
      <trkpt lat="38.3009160" lon="-0.6645250">
        <ele>197.2</ele>
        <time>2019-10-19T15:27:17Z</time>
      </trkpt>
      <trkpt lat="38.3008000" lon="-0.6645330">
        <ele>195.8</ele>
        <time>2019-10-19T15:27:18Z</time>
      </trkpt>
      <trkpt lat="38.3006810" lon="-0.6645400">
        <ele>194.8</ele>
        <time>2019-10-19T15:27:19Z</time>
      </trkpt>
      <trkpt lat="38.3005600" lon="-0.6645470">
        <ele>193.6</ele>
        <time>2019-10-19T15:27:20Z</time>
      </trkpt>
      <trkpt lat="38.3004350" lon="-0.6645550">
        <ele>192.4</ele>
        <time>2019-10-19T15:27:21Z</time>
      </trkpt>
      <trkpt lat="38.3003110" lon="-0.6645650">
        <ele>191.0</ele>
        <time>2019-10-19T15:27:22Z</time>
      </trkpt>
      <trkpt lat="38.3001820" lon="-0.6645770">
        <ele>190.0</ele>
        <time>2019-10-19T15:27:23Z</time>
      </trkpt>
      <trkpt lat="38.3000510" lon="-0.6645850">
        <ele>189.2</ele>
        <time>2019-10-19T15:27:24Z</time>
      </trkpt>
      <trkpt lat="38.2999230" lon="-0.6645950">
        <ele>188.8</ele>
        <time>2019-10-19T15:27:25Z</time>
      </trkpt>
      <trkpt lat="38.2998130" lon="-0.6645970">
        <ele>188.6</ele>
        <time>2019-10-19T15:27:26Z</time>
      </trkpt>
      <trkpt lat="38.2996990" lon="-0.6645970">
        <ele>188.2</ele>
        <time>2019-10-19T15:27:27Z</time>
      </trkpt>
      <trkpt lat="38.2995820" lon="-0.6645780">
        <ele>188.4</ele>
        <time>2019-10-19T15:27:28Z</time>
      </trkpt>
      <trkpt lat="38.2994540" lon="-0.6646000">
        <ele>188.6</ele>
        <time>2019-10-19T15:27:29Z</time>
      </trkpt>
      <trkpt lat="38.2993660" lon="-0.6646170">
        <ele>188.6</ele>
        <time>2019-10-19T15:27:30Z</time>
      </trkpt>
      <trkpt lat="38.2992630" lon="-0.6646240">
        <ele>188.8</ele>
        <time>2019-10-19T15:27:31Z</time>
      </trkpt>
      <trkpt lat="38.2991710" lon="-0.6646550">
        <ele>188.6</ele>
        <time>2019-10-19T15:27:32Z</time>
      </trkpt>
      <trkpt lat="38.2990800" lon="-0.6646800">
        <ele>188.8</ele>
        <time>2019-10-19T15:27:33Z</time>
      </trkpt>
      <trkpt lat="38.2989910" lon="-0.6647040">
        <ele>188.8</ele>
        <time>2019-10-19T15:27:34Z</time>
      </trkpt>
      <trkpt lat="38.2989010" lon="-0.6647230">
        <ele>188.8</ele>
        <time>2019-10-19T15:27:35Z</time>
      </trkpt>
      <trkpt lat="38.2988140" lon="-0.6647450">
        <ele>188.8</ele>
        <time>2019-10-19T15:27:36Z</time>
      </trkpt>
      <trkpt lat="38.2987270" lon="-0.6647710">
        <ele>188.8</ele>
        <time>2019-10-19T15:27:37Z</time>
      </trkpt>
      <trkpt lat="38.2986430" lon="-0.6647990">
        <ele>188.8</ele>
        <time>2019-10-19T15:27:38Z</time>
      </trkpt>
      <trkpt lat="38.2985590" lon="-0.6648240">
        <ele>188.6</ele>
        <time>2019-10-19T15:27:39Z</time>
      </trkpt>
      <trkpt lat="38.2984780" lon="-0.6648530">
        <ele>188.4</ele>
        <time>2019-10-19T15:27:40Z</time>
      </trkpt>
      <trkpt lat="38.2983990" lon="-0.6648850">
        <ele>188.4</ele>
        <time>2019-10-19T15:27:41Z</time>
      </trkpt>
      <trkpt lat="38.2983210" lon="-0.6649200">
        <ele>188.2</ele>
        <time>2019-10-19T15:27:42Z</time>
      </trkpt>
      <trkpt lat="38.2982430" lon="-0.6649550">
        <ele>188.2</ele>
        <time>2019-10-19T15:27:43Z</time>
      </trkpt>
      <trkpt lat="38.2981640" lon="-0.6649880">
        <ele>187.8</ele>
        <time>2019-10-19T15:27:44Z</time>
      </trkpt>
      <trkpt lat="38.2980870" lon="-0.6650220">
        <ele>187.4</ele>
        <time>2019-10-19T15:27:45Z</time>
      </trkpt>
      <trkpt lat="38.2980100" lon="-0.6650530">
        <ele>187.2</ele>
        <time>2019-10-19T15:27:46Z</time>
      </trkpt>
      <trkpt lat="38.2979310" lon="-0.6650670">
        <ele>187.2</ele>
        <time>2019-10-19T15:27:47Z</time>
      </trkpt>
      <trkpt lat="38.2978520" lon="-0.6650530">
        <ele>186.8</ele>
        <time>2019-10-19T15:27:48Z</time>
      </trkpt>
      <trkpt lat="38.2977750" lon="-0.6650150">
        <ele>186.2</ele>
        <time>2019-10-19T15:27:49Z</time>
      </trkpt>
      <trkpt lat="38.2977030" lon="-0.6649550">
        <ele>185.4</ele>
        <time>2019-10-19T15:27:50Z</time>
      </trkpt>
      <trkpt lat="38.2976350" lon="-0.6648820">
        <ele>184.8</ele>
        <time>2019-10-19T15:27:51Z</time>
      </trkpt>
      <trkpt lat="38.2975650" lon="-0.6648100">
        <ele>184.2</ele>
        <time>2019-10-19T15:27:52Z</time>
      </trkpt>
      <trkpt lat="38.2974890" lon="-0.6647450">
        <ele>183.8</ele>
        <time>2019-10-19T15:27:53Z</time>
      </trkpt>
      <trkpt lat="38.2974070" lon="-0.6646970">
        <ele>183.4</ele>
        <time>2019-10-19T15:27:54Z</time>
      </trkpt>
      <trkpt lat="38.2973210" lon="-0.6646720">
        <ele>182.8</ele>
        <time>2019-10-19T15:27:55Z</time>
      </trkpt>
      <trkpt lat="38.2972320" lon="-0.6646690">
        <ele>182.2</ele>
        <time>2019-10-19T15:27:56Z</time>
      </trkpt>
      <trkpt lat="38.2971390" lon="-0.6646660">
        <ele>182.0</ele>
        <time>2019-10-19T15:27:57Z</time>
      </trkpt>
      <trkpt lat="38.2970470" lon="-0.6646620">
        <ele>181.4</ele>
        <time>2019-10-19T15:27:58Z</time>
      </trkpt>
      <trkpt lat="38.2969510" lon="-0.6646640">
        <ele>180.8</ele>
        <time>2019-10-19T15:27:59Z</time>
      </trkpt>
      <trkpt lat="38.2968560" lon="-0.6646670">
        <ele>180.6</ele>
        <time>2019-10-19T15:28:00Z</time>
      </trkpt>
      <trkpt lat="38.2967600" lon="-0.6646720">
        <ele>180.0</ele>
        <time>2019-10-19T15:28:01Z</time>
      </trkpt>
      <trkpt lat="38.2966650" lon="-0.6646790">
        <ele>179.8</ele>
        <time>2019-10-19T15:28:02Z</time>
      </trkpt>
      <trkpt lat="38.2965700" lon="-0.6646850">
        <ele>179.8</ele>
        <time>2019-10-19T15:28:03Z</time>
      </trkpt>
      <trkpt lat="38.2964760" lon="-0.6646860">
        <ele>179.6</ele>
        <time>2019-10-19T15:28:04Z</time>
      </trkpt>
      <trkpt lat="38.2963830" lon="-0.6646810">
        <ele>179.6</ele>
        <time>2019-10-19T15:28:05Z</time>
      </trkpt>
      <trkpt lat="38.2962920" lon="-0.6646680">
        <ele>179.2</ele>
        <time>2019-10-19T15:28:06Z</time>
      </trkpt>
      <trkpt lat="38.2962020" lon="-0.6646490">
        <ele>179.0</ele>
        <time>2019-10-19T15:28:07Z</time>
      </trkpt>
      <trkpt lat="38.2961140" lon="-0.6646280">
        <ele>178.8</ele>
        <time>2019-10-19T15:28:08Z</time>
      </trkpt>
      <trkpt lat="38.2960280" lon="-0.6646020">
        <ele>178.6</ele>
        <time>2019-10-19T15:28:09Z</time>
      </trkpt>
      <trkpt lat="38.2959440" lon="-0.6645710">
        <ele>178.8</ele>
        <time>2019-10-19T15:28:10Z</time>
      </trkpt>
      <trkpt lat="38.2958610" lon="-0.6645420">
        <ele>178.6</ele>
        <time>2019-10-19T15:28:11Z</time>
      </trkpt>
      <trkpt lat="38.2957770" lon="-0.6645220">
        <ele>177.8</ele>
        <time>2019-10-19T15:28:12Z</time>
      </trkpt>
      <trkpt lat="38.2956900" lon="-0.6645150">
        <ele>177.6</ele>
        <time>2019-10-19T15:28:13Z</time>
      </trkpt>
      <trkpt lat="38.2956030" lon="-0.6645180">
        <ele>177.4</ele>
        <time>2019-10-19T15:28:14Z</time>
      </trkpt>
      <trkpt lat="38.2955190" lon="-0.6645260">
        <ele>177.4</ele>
        <time>2019-10-19T15:28:15Z</time>
      </trkpt>
      <trkpt lat="38.2954340" lon="-0.6645370">
        <ele>177.2</ele>
        <time>2019-10-19T15:28:16Z</time>
      </trkpt>
      <trkpt lat="38.2953510" lon="-0.6645450">
        <ele>176.6</ele>
        <time>2019-10-19T15:28:17Z</time>
      </trkpt>
      <trkpt lat="38.2952700" lon="-0.6645550">
        <ele>176.6</ele>
        <time>2019-10-19T15:28:18Z</time>
      </trkpt>
      <trkpt lat="38.2951890" lon="-0.6645610">
        <ele>176.8</ele>
        <time>2019-10-19T15:28:19Z</time>
      </trkpt>
      <trkpt lat="38.2951100" lon="-0.6645670">
        <ele>176.8</ele>
        <time>2019-10-19T15:28:20Z</time>
      </trkpt>
      <trkpt lat="38.2950300" lon="-0.6645660">
        <ele>176.6</ele>
        <time>2019-10-19T15:28:21Z</time>
      </trkpt>
      <trkpt lat="38.2949520" lon="-0.6645600">
        <ele>176.2</ele>
        <time>2019-10-19T15:28:22Z</time>
      </trkpt>
      <trkpt lat="38.2948750" lon="-0.6645540">
        <ele>175.8</ele>
        <time>2019-10-19T15:28:23Z</time>
      </trkpt>
      <trkpt lat="38.2947990" lon="-0.6645480">
        <ele>176.6</ele>
        <time>2019-10-19T15:28:24Z</time>
      </trkpt>
      <trkpt lat="38.2947240" lon="-0.6645440">
        <ele>176.2</ele>
        <time>2019-10-19T15:28:25Z</time>
      </trkpt>
      <trkpt lat="38.2946490" lon="-0.6645410">
        <ele>176.2</ele>
        <time>2019-10-19T15:28:26Z</time>
      </trkpt>
      <trkpt lat="38.2945750" lon="-0.6645390">
        <ele>176.2</ele>
        <time>2019-10-19T15:28:27Z</time>
      </trkpt>
      <trkpt lat="38.2945000" lon="-0.6645360">
        <ele>176.0</ele>
        <time>2019-10-19T15:28:28Z</time>
      </trkpt>
      <trkpt lat="38.2944260" lon="-0.6645340">
        <ele>176.4</ele>
        <time>2019-10-19T15:28:29Z</time>
      </trkpt>
      <trkpt lat="38.2943510" lon="-0.6645320">
        <ele>176.4</ele>
        <time>2019-10-19T15:28:30Z</time>
      </trkpt>
      <trkpt lat="38.2942760" lon="-0.6645320">
        <ele>176.2</ele>
        <time>2019-10-19T15:28:31Z</time>
      </trkpt>
      <trkpt lat="38.2942010" lon="-0.6645330">
        <ele>176.2</ele>
        <time>2019-10-19T15:28:32Z</time>
      </trkpt>
      <trkpt lat="38.2941270" lon="-0.6645290">
        <ele>176.2</ele>
        <time>2019-10-19T15:28:33Z</time>
      </trkpt>
      <trkpt lat="38.2940520" lon="-0.6645270">
        <ele>176.0</ele>
        <time>2019-10-19T15:28:34Z</time>
      </trkpt>
      <trkpt lat="38.2939770" lon="-0.6645220">
        <ele>176.2</ele>
        <time>2019-10-19T15:28:35Z</time>
      </trkpt>
      <trkpt lat="38.2939030" lon="-0.6645110">
        <ele>176.2</ele>
        <time>2019-10-19T15:28:36Z</time>
      </trkpt>
      <trkpt lat="38.2938290" lon="-0.6644980">
        <ele>175.8</ele>
        <time>2019-10-19T15:28:37Z</time>
      </trkpt>
      <trkpt lat="38.2937550" lon="-0.6644830">
        <ele>176.0</ele>
        <time>2019-10-19T15:28:38Z</time>
      </trkpt>
      <trkpt lat="38.2936800" lon="-0.6644660">
        <ele>176.0</ele>
        <time>2019-10-19T15:28:39Z</time>
      </trkpt>
      <trkpt lat="38.2936060" lon="-0.6644550">
        <ele>175.6</ele>
        <time>2019-10-19T15:28:40Z</time>
      </trkpt>
      <trkpt lat="38.2935320" lon="-0.6644550">
        <ele>175.4</ele>
        <time>2019-10-19T15:28:41Z</time>
      </trkpt>
      <trkpt lat="38.2934590" lon="-0.6644650">
        <ele>175.2</ele>
        <time>2019-10-19T15:28:42Z</time>
      </trkpt>
      <trkpt lat="38.2933840" lon="-0.6644800">
        <ele>175.0</ele>
        <time>2019-10-19T15:28:43Z</time>
      </trkpt>
      <trkpt lat="38.2933080" lon="-0.6645020">
        <ele>174.6</ele>
        <time>2019-10-19T15:28:44Z</time>
      </trkpt>
      <trkpt lat="38.2932330" lon="-0.6645190">
        <ele>174.6</ele>
        <time>2019-10-19T15:28:45Z</time>
      </trkpt>
      <trkpt lat="38.2931570" lon="-0.6645320">
        <ele>174.6</ele>
        <time>2019-10-19T15:28:46Z</time>
      </trkpt>
      <trkpt lat="38.2930790" lon="-0.6645370">
        <ele>174.0</ele>
        <time>2019-10-19T15:28:47Z</time>
      </trkpt>
      <trkpt lat="38.2930030" lon="-0.6645430">
        <ele>174.2</ele>
        <time>2019-10-19T15:28:48Z</time>
      </trkpt>
      <trkpt lat="38.2929260" lon="-0.6645540">
        <ele>174.2</ele>
        <time>2019-10-19T15:28:49Z</time>
      </trkpt>
      <trkpt lat="38.2928500" lon="-0.6645710">
        <ele>174.2</ele>
        <time>2019-10-19T15:28:50Z</time>
      </trkpt>
      <trkpt lat="38.2927750" lon="-0.6645920">
        <ele>174.0</ele>
        <time>2019-10-19T15:28:51Z</time>
      </trkpt>
      <trkpt lat="38.2926990" lon="-0.6646160">
        <ele>174.0</ele>
        <time>2019-10-19T15:28:52Z</time>
      </trkpt>
      <trkpt lat="38.2926230" lon="-0.6646430">
        <ele>173.8</ele>
        <time>2019-10-19T15:28:53Z</time>
      </trkpt>
      <trkpt lat="38.2925470" lon="-0.6646700">
        <ele>173.8</ele>
        <time>2019-10-19T15:28:54Z</time>
      </trkpt>
      <trkpt lat="38.2924710" lon="-0.6646930">
        <ele>173.4</ele>
        <time>2019-10-19T15:28:55Z</time>
      </trkpt>
      <trkpt lat="38.2923940" lon="-0.6647090">
        <ele>173.6</ele>
        <time>2019-10-19T15:28:56Z</time>
      </trkpt>
      <trkpt lat="38.2923170" lon="-0.6647230">
        <ele>173.2</ele>
        <time>2019-10-19T15:28:57Z</time>
      </trkpt>
      <trkpt lat="38.2922390" lon="-0.6647350">
        <ele>173.0</ele>
        <time>2019-10-19T15:28:58Z</time>
      </trkpt>
      <trkpt lat="38.2921620" lon="-0.6647520">
        <ele>173.2</ele>
        <time>2019-10-19T15:28:59Z</time>
      </trkpt>
      <trkpt lat="38.2920840" lon="-0.6647710">
        <ele>172.8</ele>
        <time>2019-10-19T15:29:00Z</time>
      </trkpt>
      <trkpt lat="38.2920050" lon="-0.6647860">
        <ele>172.8</ele>
        <time>2019-10-19T15:29:01Z</time>
      </trkpt>
      <trkpt lat="38.2919270" lon="-0.6648010">
        <ele>172.8</ele>
        <time>2019-10-19T15:29:02Z</time>
      </trkpt>
      <trkpt lat="38.2918510" lon="-0.6648200">
        <ele>172.6</ele>
        <time>2019-10-19T15:29:03Z</time>
      </trkpt>
      <trkpt lat="38.2917730" lon="-0.6648360">
        <ele>172.4</ele>
        <time>2019-10-19T15:29:04Z</time>
      </trkpt>
      <trkpt lat="38.2916970" lon="-0.6648540">
        <ele>172.2</ele>
        <time>2019-10-19T15:29:05Z</time>
      </trkpt>
      <trkpt lat="38.2916200" lon="-0.6648700">
        <ele>172.4</ele>
        <time>2019-10-19T15:29:06Z</time>
      </trkpt>
      <trkpt lat="38.2915450" lon="-0.6648860">
        <ele>172.4</ele>
        <time>2019-10-19T15:29:07Z</time>
      </trkpt>
      <trkpt lat="38.2914700" lon="-0.6649010">
        <ele>172.2</ele>
        <time>2019-10-19T15:29:08Z</time>
      </trkpt>
      <trkpt lat="38.2913960" lon="-0.6649150">
        <ele>172.2</ele>
        <time>2019-10-19T15:29:09Z</time>
      </trkpt>
      <trkpt lat="38.2913220" lon="-0.6649280">
        <ele>172.4</ele>
        <time>2019-10-19T15:29:10Z</time>
      </trkpt>
      <trkpt lat="38.2912520" lon="-0.6649430">
        <ele>172.2</ele>
        <time>2019-10-19T15:29:11Z</time>
      </trkpt>
      <trkpt lat="38.2911820" lon="-0.6649560">
        <ele>172.0</ele>
        <time>2019-10-19T15:29:12Z</time>
      </trkpt>
      <trkpt lat="38.2911140" lon="-0.6649740">
        <ele>171.8</ele>
        <time>2019-10-19T15:29:13Z</time>
      </trkpt>
      <trkpt lat="38.2910510" lon="-0.6650000">
        <ele>172.0</ele>
        <time>2019-10-19T15:29:14Z</time>
      </trkpt>
      <trkpt lat="38.2909940" lon="-0.6650370">
        <ele>172.2</ele>
        <time>2019-10-19T15:29:15Z</time>
      </trkpt>
      <trkpt lat="38.2909430" lon="-0.6650840">
        <ele>172.2</ele>
        <time>2019-10-19T15:29:16Z</time>
      </trkpt>
      <trkpt lat="38.2908980" lon="-0.6651420">
        <ele>172.2</ele>
        <time>2019-10-19T15:29:17Z</time>
      </trkpt>
      <trkpt lat="38.2908540" lon="-0.6652010">
        <ele>172.4</ele>
        <time>2019-10-19T15:29:18Z</time>
      </trkpt>
      <trkpt lat="38.2908070" lon="-0.6652500">
        <ele>172.2</ele>
        <time>2019-10-19T15:29:19Z</time>
      </trkpt>
      <trkpt lat="38.2907530" lon="-0.6652840">
        <ele>172.2</ele>
        <time>2019-10-19T15:29:20Z</time>
      </trkpt>
      <trkpt lat="38.2906940" lon="-0.6652950">
        <ele>172.2</ele>
        <time>2019-10-19T15:29:21Z</time>
      </trkpt>
      <trkpt lat="38.2906330" lon="-0.6652810">
        <ele>171.8</ele>
        <time>2019-10-19T15:29:22Z</time>
      </trkpt>
      <trkpt lat="38.2905750" lon="-0.6652500">
        <ele>171.8</ele>
        <time>2019-10-19T15:29:23Z</time>
      </trkpt>
      <trkpt lat="38.2905200" lon="-0.6652160">
        <ele>171.6</ele>
        <time>2019-10-19T15:29:24Z</time>
      </trkpt>
      <trkpt lat="38.2904640" lon="-0.6651750">
        <ele>171.6</ele>
        <time>2019-10-19T15:29:25Z</time>
      </trkpt>
      <trkpt lat="38.2904070" lon="-0.6651360">
        <ele>171.4</ele>
        <time>2019-10-19T15:29:26Z</time>
      </trkpt>
      <trkpt lat="38.2903460" lon="-0.6650950">
        <ele>171.2</ele>
        <time>2019-10-19T15:29:27Z</time>
      </trkpt>
      <trkpt lat="38.2902840" lon="-0.6650590">
        <ele>171.0</ele>
        <time>2019-10-19T15:29:28Z</time>
      </trkpt>
      <trkpt lat="38.2902210" lon="-0.6650270">
        <ele>171.0</ele>
        <time>2019-10-19T15:29:29Z</time>
      </trkpt>
      <trkpt lat="38.2901570" lon="-0.6649990">
        <ele>170.8</ele>
        <time>2019-10-19T15:29:30Z</time>
      </trkpt>
      <trkpt lat="38.2900910" lon="-0.6649710">
        <ele>170.6</ele>
        <time>2019-10-19T15:29:31Z</time>
      </trkpt>
      <trkpt lat="38.2900220" lon="-0.6649400">
        <ele>170.4</ele>
        <time>2019-10-19T15:29:32Z</time>
      </trkpt>
      <trkpt lat="38.2899550" lon="-0.6649110">
        <ele>170.2</ele>
        <time>2019-10-19T15:29:33Z</time>
      </trkpt>
      <trkpt lat="38.2898890" lon="-0.6648750">
        <ele>170.0</ele>
        <time>2019-10-19T15:29:34Z</time>
      </trkpt>
      <trkpt lat="38.2898230" lon="-0.6648360">
        <ele>169.8</ele>
        <time>2019-10-19T15:29:35Z</time>
      </trkpt>
      <trkpt lat="38.2897590" lon="-0.6647920">
        <ele>169.4</ele>
        <time>2019-10-19T15:29:36Z</time>
      </trkpt>
      <trkpt lat="38.2896950" lon="-0.6647440">
        <ele>169.6</ele>
        <time>2019-10-19T15:29:37Z</time>
      </trkpt>
      <trkpt lat="38.2896320" lon="-0.6646930">
        <ele>169.4</ele>
        <time>2019-10-19T15:29:38Z</time>
      </trkpt>
      <trkpt lat="38.2895720" lon="-0.6646480">
        <ele>169.4</ele>
        <time>2019-10-19T15:29:39Z</time>
      </trkpt>
      <trkpt lat="38.2895090" lon="-0.6645990">
        <ele>169.6</ele>
        <time>2019-10-19T15:29:40Z</time>
      </trkpt>
      <trkpt lat="38.2894480" lon="-0.6645520">
        <ele>169.4</ele>
        <time>2019-10-19T15:29:41Z</time>
      </trkpt>
      <trkpt lat="38.2893850" lon="-0.6645040">
        <ele>169.6</ele>
        <time>2019-10-19T15:29:42Z</time>
      </trkpt>
      <trkpt lat="38.2893230" lon="-0.6644590">
        <ele>169.2</ele>
        <time>2019-10-19T15:29:43Z</time>
      </trkpt>
      <trkpt lat="38.2892620" lon="-0.6644180">
        <ele>169.0</ele>
        <time>2019-10-19T15:29:44Z</time>
      </trkpt>
      <trkpt lat="38.2892000" lon="-0.6643770">
        <ele>168.8</ele>
        <time>2019-10-19T15:29:45Z</time>
      </trkpt>
      <trkpt lat="38.2891380" lon="-0.6643360">
        <ele>168.6</ele>
        <time>2019-10-19T15:29:46Z</time>
      </trkpt>
      <trkpt lat="38.2890720" lon="-0.6642920">
        <ele>168.6</ele>
        <time>2019-10-19T15:29:47Z</time>
      </trkpt>
      <trkpt lat="38.2890050" lon="-0.6642460">
        <ele>168.6</ele>
        <time>2019-10-19T15:29:48Z</time>
      </trkpt>
      <trkpt lat="38.2889380" lon="-0.6642000">
        <ele>168.4</ele>
        <time>2019-10-19T15:29:49Z</time>
      </trkpt>
      <trkpt lat="38.2888710" lon="-0.6641510">
        <ele>168.0</ele>
        <time>2019-10-19T15:29:50Z</time>
      </trkpt>
      <trkpt lat="38.2888030" lon="-0.6641040">
        <ele>168.0</ele>
        <time>2019-10-19T15:29:51Z</time>
      </trkpt>
      <trkpt lat="38.2887390" lon="-0.6640580">
        <ele>168.0</ele>
        <time>2019-10-19T15:29:52Z</time>
      </trkpt>
      <trkpt lat="38.2886770" lon="-0.6640110">
        <ele>167.8</ele>
        <time>2019-10-19T15:29:53Z</time>
      </trkpt>
      <trkpt lat="38.2886130" lon="-0.6639600">
        <ele>167.6</ele>
        <time>2019-10-19T15:29:54Z</time>
      </trkpt>
      <trkpt lat="38.2885490" lon="-0.6639080">
        <ele>167.8</ele>
        <time>2019-10-19T15:29:55Z</time>
      </trkpt>
      <trkpt lat="38.2884830" lon="-0.6638540">
        <ele>167.6</ele>
        <time>2019-10-19T15:29:56Z</time>
      </trkpt>
      <trkpt lat="38.2884180" lon="-0.6638040">
        <ele>167.4</ele>
        <time>2019-10-19T15:29:57Z</time>
      </trkpt>
      <trkpt lat="38.2883530" lon="-0.6637530">
        <ele>167.4</ele>
        <time>2019-10-19T15:29:58Z</time>
      </trkpt>
      <trkpt lat="38.2882860" lon="-0.6637010">
        <ele>167.4</ele>
        <time>2019-10-19T15:29:59Z</time>
      </trkpt>
      <trkpt lat="38.2882170" lon="-0.6636530">
        <ele>167.2</ele>
        <time>2019-10-19T15:30:00Z</time>
      </trkpt>
      <trkpt lat="38.2881480" lon="-0.6636040">
        <ele>166.8</ele>
        <time>2019-10-19T15:30:01Z</time>
      </trkpt>
      <trkpt lat="38.2880790" lon="-0.6635610">
        <ele>166.6</ele>
        <time>2019-10-19T15:30:02Z</time>
      </trkpt>
      <trkpt lat="38.2880090" lon="-0.6635180">
        <ele>166.6</ele>
        <time>2019-10-19T15:30:03Z</time>
      </trkpt>
      <trkpt lat="38.2879400" lon="-0.6634740">
        <ele>166.4</ele>
        <time>2019-10-19T15:30:04Z</time>
      </trkpt>
      <trkpt lat="38.2878680" lon="-0.6634310">
        <ele>166.2</ele>
        <time>2019-10-19T15:30:05Z</time>
      </trkpt>
      <trkpt lat="38.2877940" lon="-0.6633890">
        <ele>166.0</ele>
        <time>2019-10-19T15:30:06Z</time>
      </trkpt>
      <trkpt lat="38.2877200" lon="-0.6633430">
        <ele>165.8</ele>
        <time>2019-10-19T15:30:07Z</time>
      </trkpt>
      <trkpt lat="38.2876470" lon="-0.6632970">
        <ele>165.6</ele>
        <time>2019-10-19T15:30:08Z</time>
      </trkpt>
      <trkpt lat="38.2875740" lon="-0.6632510">
        <ele>165.0</ele>
        <time>2019-10-19T15:30:09Z</time>
      </trkpt>
      <trkpt lat="38.2875010" lon="-0.6632100">
        <ele>165.2</ele>
        <time>2019-10-19T15:30:10Z</time>
      </trkpt>
      <trkpt lat="38.2874270" lon="-0.6631720">
        <ele>165.0</ele>
        <time>2019-10-19T15:30:11Z</time>
      </trkpt>
      <trkpt lat="38.2873550" lon="-0.6631410">
        <ele>164.8</ele>
        <time>2019-10-19T15:30:12Z</time>
      </trkpt>
      <trkpt lat="38.2872850" lon="-0.6631160">
        <ele>164.6</ele>
        <time>2019-10-19T15:30:13Z</time>
      </trkpt>
      <trkpt lat="38.2872290" lon="-0.6631030">
        <ele>164.6</ele>
        <time>2019-10-19T15:30:14Z</time>
      </trkpt>
      <trkpt lat="38.2871820" lon="-0.6631040">
        <ele>164.6</ele>
        <time>2019-10-19T15:30:15Z</time>
      </trkpt>
      <trkpt lat="38.2871470" lon="-0.6631300">
        <ele>164.8</ele>
        <time>2019-10-19T15:30:16Z</time>
      </trkpt>
      <trkpt lat="38.2871250" lon="-0.6631750">
        <ele>165.0</ele>
        <time>2019-10-19T15:30:17Z</time>
      </trkpt>
      <trkpt lat="38.2870930" lon="-0.6633120">
        <ele>165.0</ele>
        <time>2019-10-19T15:30:21Z</time>
      </trkpt>
      <trkpt lat="38.2870750" lon="-0.6633930">
        <ele>165.2</ele>
        <time>2019-10-19T15:30:22Z</time>
      </trkpt>
      <trkpt lat="38.2870380" lon="-0.6635560">
        <ele>165.2</ele>
        <time>2019-10-19T15:30:23Z</time>
      </trkpt>
      <trkpt lat="38.2870230" lon="-0.6636260">
        <ele>165.0</ele>
        <time>2019-10-19T15:30:24Z</time>
      </trkpt>
      <trkpt lat="38.2870060" lon="-0.6636930">
        <ele>165.4</ele>
        <time>2019-10-19T15:30:25Z</time>
      </trkpt>
      <trkpt lat="38.2869900" lon="-0.6637600">
        <ele>165.4</ele>
        <time>2019-10-19T15:30:26Z</time>
      </trkpt>
      <trkpt lat="38.2869750" lon="-0.6638300">
        <ele>165.0</ele>
        <time>2019-10-19T15:30:27Z</time>
      </trkpt>
      <trkpt lat="38.2869590" lon="-0.6639000">
        <ele>165.8</ele>
        <time>2019-10-19T15:30:28Z</time>
      </trkpt>
      <trkpt lat="38.2869430" lon="-0.6639700">
        <ele>166.4</ele>
        <time>2019-10-19T15:30:29Z</time>
      </trkpt>
      <trkpt lat="38.2869280" lon="-0.6640390">
        <ele>166.4</ele>
        <time>2019-10-19T15:30:30Z</time>
      </trkpt>
      <trkpt lat="38.2869120" lon="-0.6641090">
        <ele>166.2</ele>
        <time>2019-10-19T15:30:31Z</time>
      </trkpt>
      <trkpt lat="38.2868960" lon="-0.6641800">
        <ele>166.4</ele>
        <time>2019-10-19T15:30:32Z</time>
      </trkpt>
      <trkpt lat="38.2868820" lon="-0.6642520">
        <ele>166.4</ele>
        <time>2019-10-19T15:30:33Z</time>
      </trkpt>
      <trkpt lat="38.2868690" lon="-0.6643270">
        <ele>166.6</ele>
        <time>2019-10-19T15:30:34Z</time>
      </trkpt>
      <trkpt lat="38.2868550" lon="-0.6644020">
        <ele>166.8</ele>
        <time>2019-10-19T15:30:35Z</time>
      </trkpt>
      <trkpt lat="38.2868420" lon="-0.6644800">
        <ele>167.0</ele>
        <time>2019-10-19T15:30:36Z</time>
      </trkpt>
      <trkpt lat="38.2868350" lon="-0.6645600">
        <ele>167.2</ele>
        <time>2019-10-19T15:30:37Z</time>
      </trkpt>
      <trkpt lat="38.2868360" lon="-0.6646410">
        <ele>167.2</ele>
        <time>2019-10-19T15:30:38Z</time>
      </trkpt>
      <trkpt lat="38.2868480" lon="-0.6647220">
        <ele>167.2</ele>
        <time>2019-10-19T15:30:39Z</time>
      </trkpt>
      <trkpt lat="38.2868720" lon="-0.6647990">
        <ele>167.6</ele>
        <time>2019-10-19T15:30:40Z</time>
      </trkpt>
      <trkpt lat="38.2869060" lon="-0.6648730">
        <ele>167.8</ele>
        <time>2019-10-19T15:30:41Z</time>
      </trkpt>
      <trkpt lat="38.2869450" lon="-0.6649450">
        <ele>168.0</ele>
        <time>2019-10-19T15:30:42Z</time>
      </trkpt>
      <trkpt lat="38.2869830" lon="-0.6650180">
        <ele>168.4</ele>
        <time>2019-10-19T15:30:43Z</time>
      </trkpt>
      <trkpt lat="38.2870140" lon="-0.6650960">
        <ele>168.6</ele>
        <time>2019-10-19T15:30:44Z</time>
      </trkpt>
      <trkpt lat="38.2870370" lon="-0.6651800">
        <ele>169.0</ele>
        <time>2019-10-19T15:30:45Z</time>
      </trkpt>
      <trkpt lat="38.2870530" lon="-0.6652660">
        <ele>169.0</ele>
        <time>2019-10-19T15:30:46Z</time>
      </trkpt>
      <trkpt lat="38.2870620" lon="-0.6653560">
        <ele>168.8</ele>
        <time>2019-10-19T15:30:47Z</time>
      </trkpt>
      <trkpt lat="38.2870590" lon="-0.6654460">
        <ele>169.2</ele>
        <time>2019-10-19T15:30:48Z</time>
      </trkpt>
      <trkpt lat="38.2870470" lon="-0.6655380">
        <ele>169.0</ele>
        <time>2019-10-19T15:30:49Z</time>
      </trkpt>
      <trkpt lat="38.2870240" lon="-0.6656280">
        <ele>168.0</ele>
        <time>2019-10-19T15:30:50Z</time>
      </trkpt>
      <trkpt lat="38.2869930" lon="-0.6657150">
        <ele>168.6</ele>
        <time>2019-10-19T15:30:51Z</time>
      </trkpt>
      <trkpt lat="38.2869520" lon="-0.6657960">
        <ele>168.2</ele>
        <time>2019-10-19T15:30:52Z</time>
      </trkpt>
      <trkpt lat="38.2869000" lon="-0.6658690">
        <ele>168.0</ele>
        <time>2019-10-19T15:30:53Z</time>
      </trkpt>
      <trkpt lat="38.2868410" lon="-0.6659300">
        <ele>167.8</ele>
        <time>2019-10-19T15:30:54Z</time>
      </trkpt>
      <trkpt lat="38.2867770" lon="-0.6659890">
        <ele>167.6</ele>
        <time>2019-10-19T15:30:55Z</time>
      </trkpt>
      <trkpt lat="38.2867080" lon="-0.6660420">
        <ele>167.0</ele>
        <time>2019-10-19T15:30:56Z</time>
      </trkpt>
      <trkpt lat="38.2866370" lon="-0.6661020">
        <ele>167.0</ele>
        <time>2019-10-19T15:30:57Z</time>
      </trkpt>
      <trkpt lat="38.2865740" lon="-0.6661770">
        <ele>166.8</ele>
        <time>2019-10-19T15:30:58Z</time>
      </trkpt>
      <trkpt lat="38.2865220" lon="-0.6662680">
        <ele>166.6</ele>
        <time>2019-10-19T15:30:59Z</time>
      </trkpt>
      <trkpt lat="38.2864880" lon="-0.6663700">
        <ele>166.4</ele>
        <time>2019-10-19T15:31:00Z</time>
      </trkpt>
      <trkpt lat="38.2864670" lon="-0.6664800">
        <ele>166.4</ele>
        <time>2019-10-19T15:31:01Z</time>
      </trkpt>
      <trkpt lat="38.2864470" lon="-0.6665920">
        <ele>166.4</ele>
        <time>2019-10-19T15:31:02Z</time>
      </trkpt>
      <trkpt lat="38.2864250" lon="-0.6667060">
        <ele>166.0</ele>
        <time>2019-10-19T15:31:03Z</time>
      </trkpt>
      <trkpt lat="38.2864010" lon="-0.6668280">
        <ele>166.0</ele>
        <time>2019-10-19T15:31:04Z</time>
      </trkpt>
      <trkpt lat="38.2863840" lon="-0.6669480">
        <ele>165.6</ele>
        <time>2019-10-19T15:31:05Z</time>
      </trkpt>
      <trkpt lat="38.2863600" lon="-0.6670690">
        <ele>165.8</ele>
        <time>2019-10-19T15:31:06Z</time>
      </trkpt>
      <trkpt lat="38.2863310" lon="-0.6671900">
        <ele>165.6</ele>
        <time>2019-10-19T15:31:07Z</time>
      </trkpt>
      <trkpt lat="38.2863030" lon="-0.6673130">
        <ele>165.2</ele>
        <time>2019-10-19T15:31:08Z</time>
      </trkpt>
      <trkpt lat="38.2862780" lon="-0.6674430">
        <ele>165.4</ele>
        <time>2019-10-19T15:31:09Z</time>
      </trkpt>
      <trkpt lat="38.2862580" lon="-0.6675720">
        <ele>165.6</ele>
        <time>2019-10-19T15:31:10Z</time>
      </trkpt>
      <trkpt lat="38.2862370" lon="-0.6676990">
        <ele>165.4</ele>
        <time>2019-10-19T15:31:11Z</time>
      </trkpt>
      <trkpt lat="38.2862190" lon="-0.6678290">
        <ele>165.4</ele>
        <time>2019-10-19T15:31:12Z</time>
      </trkpt>
      <trkpt lat="38.2862040" lon="-0.6679600">
        <ele>165.4</ele>
        <time>2019-10-19T15:31:13Z</time>
      </trkpt>
      <trkpt lat="38.2861840" lon="-0.6680910">
        <ele>165.0</ele>
        <time>2019-10-19T15:31:14Z</time>
      </trkpt>
      <trkpt lat="38.2861580" lon="-0.6682220">
        <ele>164.8</ele>
        <time>2019-10-19T15:31:15Z</time>
      </trkpt>
      <trkpt lat="38.2861270" lon="-0.6683510">
        <ele>164.8</ele>
        <time>2019-10-19T15:31:16Z</time>
      </trkpt>
      <trkpt lat="38.2860910" lon="-0.6684790">
        <ele>164.6</ele>
        <time>2019-10-19T15:31:17Z</time>
      </trkpt>
      <trkpt lat="38.2860520" lon="-0.6686060">
        <ele>164.8</ele>
        <time>2019-10-19T15:31:18Z</time>
      </trkpt>
      <trkpt lat="38.2860110" lon="-0.6687310">
        <ele>164.2</ele>
        <time>2019-10-19T15:31:19Z</time>
      </trkpt>
      <trkpt lat="38.2859670" lon="-0.6688530">
        <ele>164.4</ele>
        <time>2019-10-19T15:31:20Z</time>
      </trkpt>
      <trkpt lat="38.2859220" lon="-0.6689720">
        <ele>164.2</ele>
        <time>2019-10-19T15:31:21Z</time>
      </trkpt>
      <trkpt lat="38.2858740" lon="-0.6690890">
        <ele>164.2</ele>
        <time>2019-10-19T15:31:22Z</time>
      </trkpt>
      <trkpt lat="38.2858240" lon="-0.6692030">
        <ele>164.4</ele>
        <time>2019-10-19T15:31:23Z</time>
      </trkpt>
      <trkpt lat="38.2857720" lon="-0.6693120">
        <ele>164.4</ele>
        <time>2019-10-19T15:31:24Z</time>
      </trkpt>
      <trkpt lat="38.2857200" lon="-0.6694220">
        <ele>164.2</ele>
        <time>2019-10-19T15:31:25Z</time>
      </trkpt>
      <trkpt lat="38.2856660" lon="-0.6695300">
        <ele>164.2</ele>
        <time>2019-10-19T15:31:26Z</time>
      </trkpt>
      <trkpt lat="38.2856130" lon="-0.6696370">
        <ele>164.2</ele>
        <time>2019-10-19T15:31:27Z</time>
      </trkpt>
      <trkpt lat="38.2855590" lon="-0.6697400">
        <ele>164.0</ele>
        <time>2019-10-19T15:31:28Z</time>
      </trkpt>
      <trkpt lat="38.2855050" lon="-0.6698440">
        <ele>163.8</ele>
        <time>2019-10-19T15:31:29Z</time>
      </trkpt>
      <trkpt lat="38.2854530" lon="-0.6699470">
        <ele>163.8</ele>
        <time>2019-10-19T15:31:30Z</time>
      </trkpt>
      <trkpt lat="38.2854020" lon="-0.6700490">
        <ele>163.4</ele>
        <time>2019-10-19T15:31:31Z</time>
      </trkpt>
      <trkpt lat="38.2853510" lon="-0.6701490">
        <ele>163.6</ele>
        <time>2019-10-19T15:31:32Z</time>
      </trkpt>
      <trkpt lat="38.2852990" lon="-0.6702480">
        <ele>163.2</ele>
        <time>2019-10-19T15:31:33Z</time>
      </trkpt>
      <trkpt lat="38.2852470" lon="-0.6703470">
        <ele>163.4</ele>
        <time>2019-10-19T15:31:34Z</time>
      </trkpt>
      <trkpt lat="38.2851960" lon="-0.6704430">
        <ele>163.2</ele>
        <time>2019-10-19T15:31:35Z</time>
      </trkpt>
      <trkpt lat="38.2851450" lon="-0.6705390">
        <ele>162.8</ele>
        <time>2019-10-19T15:31:36Z</time>
      </trkpt>
      <trkpt lat="38.2850950" lon="-0.6706330">
        <ele>163.0</ele>
        <time>2019-10-19T15:31:37Z</time>
      </trkpt>
      <trkpt lat="38.2850490" lon="-0.6707280">
        <ele>163.0</ele>
        <time>2019-10-19T15:31:38Z</time>
      </trkpt>
      <trkpt lat="38.2850020" lon="-0.6708220">
        <ele>163.0</ele>
        <time>2019-10-19T15:31:39Z</time>
      </trkpt>
      <trkpt lat="38.2849560" lon="-0.6709140">
        <ele>163.0</ele>
        <time>2019-10-19T15:31:40Z</time>
      </trkpt>
      <trkpt lat="38.2849110" lon="-0.6710040">
        <ele>163.2</ele>
        <time>2019-10-19T15:31:41Z</time>
      </trkpt>
      <trkpt lat="38.2848670" lon="-0.6710950">
        <ele>163.2</ele>
        <time>2019-10-19T15:31:42Z</time>
      </trkpt>
      <trkpt lat="38.2848210" lon="-0.6711840">
        <ele>163.2</ele>
        <time>2019-10-19T15:31:43Z</time>
      </trkpt>
      <trkpt lat="38.2847760" lon="-0.6712720">
        <ele>163.2</ele>
        <time>2019-10-19T15:31:44Z</time>
      </trkpt>
      <trkpt lat="38.2847300" lon="-0.6713610">
        <ele>163.2</ele>
        <time>2019-10-19T15:31:45Z</time>
      </trkpt>
      <trkpt lat="38.2846850" lon="-0.6714500">
        <ele>163.0</ele>
        <time>2019-10-19T15:31:46Z</time>
      </trkpt>
      <trkpt lat="38.2846400" lon="-0.6715380">
        <ele>163.2</ele>
        <time>2019-10-19T15:31:47Z</time>
      </trkpt>
      <trkpt lat="38.2845950" lon="-0.6716270">
        <ele>162.8</ele>
        <time>2019-10-19T15:31:48Z</time>
      </trkpt>
      <trkpt lat="38.2845510" lon="-0.6717150">
        <ele>163.2</ele>
        <time>2019-10-19T15:31:49Z</time>
      </trkpt>
      <trkpt lat="38.2845060" lon="-0.6718030">
        <ele>162.8</ele>
        <time>2019-10-19T15:31:50Z</time>
      </trkpt>
      <trkpt lat="38.2844620" lon="-0.6718910">
        <ele>162.6</ele>
        <time>2019-10-19T15:31:51Z</time>
      </trkpt>
      <trkpt lat="38.2844180" lon="-0.6719790">
        <ele>162.8</ele>
        <time>2019-10-19T15:31:52Z</time>
      </trkpt>
      <trkpt lat="38.2843690" lon="-0.6720640">
        <ele>162.8</ele>
        <time>2019-10-19T15:31:53Z</time>
      </trkpt>
      <trkpt lat="38.2843230" lon="-0.6721500">
        <ele>162.6</ele>
        <time>2019-10-19T15:31:54Z</time>
      </trkpt>
      <trkpt lat="38.2842780" lon="-0.6722370">
        <ele>162.4</ele>
        <time>2019-10-19T15:31:55Z</time>
      </trkpt>
      <trkpt lat="38.2842340" lon="-0.6723220">
        <ele>162.4</ele>
        <time>2019-10-19T15:31:56Z</time>
      </trkpt>
      <trkpt lat="38.2841900" lon="-0.6724060">
        <ele>162.4</ele>
        <time>2019-10-19T15:31:57Z</time>
      </trkpt>
      <trkpt lat="38.2841460" lon="-0.6724910">
        <ele>162.4</ele>
        <time>2019-10-19T15:31:58Z</time>
      </trkpt>
      <trkpt lat="38.2841030" lon="-0.6725760">
        <ele>162.6</ele>
        <time>2019-10-19T15:31:59Z</time>
      </trkpt>
      <trkpt lat="38.2840580" lon="-0.6726610">
        <ele>162.6</ele>
        <time>2019-10-19T15:32:00Z</time>
      </trkpt>
      <trkpt lat="38.2840180" lon="-0.6727470">
        <ele>162.6</ele>
        <time>2019-10-19T15:32:01Z</time>
      </trkpt>
      <trkpt lat="38.2839880" lon="-0.6728390">
        <ele>162.6</ele>
        <time>2019-10-19T15:32:02Z</time>
      </trkpt>
      <trkpt lat="38.2839750" lon="-0.6729350">
        <ele>163.0</ele>
        <time>2019-10-19T15:32:03Z</time>
      </trkpt>
      <trkpt lat="38.2839790" lon="-0.6730310">
        <ele>163.0</ele>
        <time>2019-10-19T15:32:04Z</time>
      </trkpt>
      <trkpt lat="38.2839910" lon="-0.6731270">
        <ele>163.2</ele>
        <time>2019-10-19T15:32:05Z</time>
      </trkpt>
      <trkpt lat="38.2840020" lon="-0.6732250">
        <ele>163.2</ele>
        <time>2019-10-19T15:32:06Z</time>
      </trkpt>
      <trkpt lat="38.2840010" lon="-0.6733230">
        <ele>163.0</ele>
        <time>2019-10-19T15:32:07Z</time>
      </trkpt>
      <trkpt lat="38.2839830" lon="-0.6734200">
        <ele>163.0</ele>
        <time>2019-10-19T15:32:08Z</time>
      </trkpt>
      <trkpt lat="38.2839500" lon="-0.6735100">
        <ele>162.8</ele>
        <time>2019-10-19T15:32:09Z</time>
      </trkpt>
      <trkpt lat="38.2839060" lon="-0.6735840">
        <ele>162.8</ele>
        <time>2019-10-19T15:32:10Z</time>
      </trkpt>
      <trkpt lat="38.2838490" lon="-0.6736470">
        <ele>162.6</ele>
        <time>2019-10-19T15:32:11Z</time>
      </trkpt>
      <trkpt lat="38.2837810" lon="-0.6736990">
        <ele>162.6</ele>
        <time>2019-10-19T15:32:12Z</time>
      </trkpt>
      <trkpt lat="38.2837080" lon="-0.6737350">
        <ele>162.6</ele>
        <time>2019-10-19T15:32:13Z</time>
      </trkpt>
      <trkpt lat="38.2836340" lon="-0.6737670">
        <ele>162.6</ele>
        <time>2019-10-19T15:32:14Z</time>
      </trkpt>
      <trkpt lat="38.2835600" lon="-0.6738040">
        <ele>162.4</ele>
        <time>2019-10-19T15:32:15Z</time>
      </trkpt>
      <trkpt lat="38.2834920" lon="-0.6738520">
        <ele>162.2</ele>
        <time>2019-10-19T15:32:16Z</time>
      </trkpt>
      <trkpt lat="38.2834330" lon="-0.6739230">
        <ele>162.2</ele>
        <time>2019-10-19T15:32:17Z</time>
      </trkpt>
      <trkpt lat="38.2833800" lon="-0.6740040">
        <ele>162.2</ele>
        <time>2019-10-19T15:32:18Z</time>
      </trkpt>
      <trkpt lat="38.2833310" lon="-0.6740880">
        <ele>162.2</ele>
        <time>2019-10-19T15:32:19Z</time>
      </trkpt>
      <trkpt lat="38.2832860" lon="-0.6741740">
        <ele>162.2</ele>
        <time>2019-10-19T15:32:20Z</time>
      </trkpt>
      <trkpt lat="38.2832440" lon="-0.6742630">
        <ele>162.2</ele>
        <time>2019-10-19T15:32:21Z</time>
      </trkpt>
      <trkpt lat="38.2832020" lon="-0.6743550">
        <ele>162.2</ele>
        <time>2019-10-19T15:32:22Z</time>
      </trkpt>
      <trkpt lat="38.2831600" lon="-0.6744460">
        <ele>162.0</ele>
        <time>2019-10-19T15:32:23Z</time>
      </trkpt>
      <trkpt lat="38.2831190" lon="-0.6745390">
        <ele>161.8</ele>
        <time>2019-10-19T15:32:24Z</time>
      </trkpt>
      <trkpt lat="38.2830790" lon="-0.6746340">
        <ele>162.0</ele>
        <time>2019-10-19T15:32:25Z</time>
      </trkpt>
      <trkpt lat="38.2830410" lon="-0.6747300">
        <ele>162.0</ele>
        <time>2019-10-19T15:32:26Z</time>
      </trkpt>
      <trkpt lat="38.2830030" lon="-0.6748260">
        <ele>162.2</ele>
        <time>2019-10-19T15:32:27Z</time>
      </trkpt>
      <trkpt lat="38.2829670" lon="-0.6749240">
        <ele>162.0</ele>
        <time>2019-10-19T15:32:28Z</time>
      </trkpt>
      <trkpt lat="38.2829310" lon="-0.6750220">
        <ele>162.0</ele>
        <time>2019-10-19T15:32:29Z</time>
      </trkpt>
      <trkpt lat="38.2828970" lon="-0.6751210">
        <ele>161.8</ele>
        <time>2019-10-19T15:32:30Z</time>
      </trkpt>
      <trkpt lat="38.2828640" lon="-0.6752200">
        <ele>161.8</ele>
        <time>2019-10-19T15:32:31Z</time>
      </trkpt>
      <trkpt lat="38.2828330" lon="-0.6753210">
        <ele>162.0</ele>
        <time>2019-10-19T15:32:32Z</time>
      </trkpt>
      <trkpt lat="38.2828050" lon="-0.6754230">
        <ele>162.0</ele>
        <time>2019-10-19T15:32:33Z</time>
      </trkpt>
      <trkpt lat="38.2827790" lon="-0.6755270">
        <ele>162.0</ele>
        <time>2019-10-19T15:32:34Z</time>
      </trkpt>
      <trkpt lat="38.2827540" lon="-0.6756330">
        <ele>162.0</ele>
        <time>2019-10-19T15:32:35Z</time>
      </trkpt>
      <trkpt lat="38.2827310" lon="-0.6757390">
        <ele>161.8</ele>
        <time>2019-10-19T15:32:36Z</time>
      </trkpt>
      <trkpt lat="38.2827080" lon="-0.6758470">
        <ele>161.6</ele>
        <time>2019-10-19T15:32:37Z</time>
      </trkpt>
      <trkpt lat="38.2826870" lon="-0.6759550">
        <ele>162.0</ele>
        <time>2019-10-19T15:32:38Z</time>
      </trkpt>
      <trkpt lat="38.2826670" lon="-0.6760620">
        <ele>161.8</ele>
        <time>2019-10-19T15:32:39Z</time>
      </trkpt>
      <trkpt lat="38.2826520" lon="-0.6761700">
        <ele>161.6</ele>
        <time>2019-10-19T15:32:40Z</time>
      </trkpt>
      <trkpt lat="38.2826380" lon="-0.6762770">
        <ele>162.0</ele>
        <time>2019-10-19T15:32:41Z</time>
      </trkpt>
      <trkpt lat="38.2826260" lon="-0.6763850">
        <ele>161.8</ele>
        <time>2019-10-19T15:32:42Z</time>
      </trkpt>
      <trkpt lat="38.2826120" lon="-0.6764940">
        <ele>161.6</ele>
        <time>2019-10-19T15:32:43Z</time>
      </trkpt>
      <trkpt lat="38.2826000" lon="-0.6766040">
        <ele>162.2</ele>
        <time>2019-10-19T15:32:44Z</time>
      </trkpt>
      <trkpt lat="38.2825910" lon="-0.6767140">
        <ele>161.6</ele>
        <time>2019-10-19T15:32:45Z</time>
      </trkpt>
      <trkpt lat="38.2825810" lon="-0.6768220">
        <ele>161.8</ele>
        <time>2019-10-19T15:32:46Z</time>
      </trkpt>
      <trkpt lat="38.2825720" lon="-0.6769280">
        <ele>161.8</ele>
        <time>2019-10-19T15:32:47Z</time>
      </trkpt>
      <trkpt lat="38.2825610" lon="-0.6770360">
        <ele>161.6</ele>
        <time>2019-10-19T15:32:48Z</time>
      </trkpt>
      <trkpt lat="38.2825500" lon="-0.6771460">
        <ele>161.6</ele>
        <time>2019-10-19T15:32:49Z</time>
      </trkpt>
      <trkpt lat="38.2825400" lon="-0.6772540">
        <ele>161.6</ele>
        <time>2019-10-19T15:32:50Z</time>
      </trkpt>
      <trkpt lat="38.2825310" lon="-0.6773620">
        <ele>161.6</ele>
        <time>2019-10-19T15:32:51Z</time>
      </trkpt>
      <trkpt lat="38.2825220" lon="-0.6774720">
        <ele>161.6</ele>
        <time>2019-10-19T15:32:52Z</time>
      </trkpt>
      <trkpt lat="38.2825110" lon="-0.6775840">
        <ele>161.6</ele>
        <time>2019-10-19T15:32:53Z</time>
      </trkpt>
      <trkpt lat="38.2825000" lon="-0.6776950">
        <ele>161.6</ele>
        <time>2019-10-19T15:32:54Z</time>
      </trkpt>
      <trkpt lat="38.2824910" lon="-0.6778070">
        <ele>161.6</ele>
        <time>2019-10-19T15:32:55Z</time>
      </trkpt>
      <trkpt lat="38.2824840" lon="-0.6779180">
        <ele>161.4</ele>
        <time>2019-10-19T15:32:56Z</time>
      </trkpt>
      <trkpt lat="38.2824760" lon="-0.6780290">
        <ele>161.2</ele>
        <time>2019-10-19T15:32:57Z</time>
      </trkpt>
      <trkpt lat="38.2824690" lon="-0.6781430">
        <ele>161.4</ele>
        <time>2019-10-19T15:32:58Z</time>
      </trkpt>
      <trkpt lat="38.2824630" lon="-0.6782560">
        <ele>161.4</ele>
        <time>2019-10-19T15:32:59Z</time>
      </trkpt>
      <trkpt lat="38.2824570" lon="-0.6783680">
        <ele>161.4</ele>
        <time>2019-10-19T15:33:00Z</time>
      </trkpt>
      <trkpt lat="38.2824510" lon="-0.6784820">
        <ele>161.2</ele>
        <time>2019-10-19T15:33:01Z</time>
      </trkpt>
      <trkpt lat="38.2824480" lon="-0.6785930">
        <ele>161.0</ele>
        <time>2019-10-19T15:33:02Z</time>
      </trkpt>
      <trkpt lat="38.2824460" lon="-0.6787040">
        <ele>161.0</ele>
        <time>2019-10-19T15:33:03Z</time>
      </trkpt>
      <trkpt lat="38.2824440" lon="-0.6788170">
        <ele>161.0</ele>
        <time>2019-10-19T15:33:04Z</time>
      </trkpt>
      <trkpt lat="38.2824430" lon="-0.6789300">
        <ele>161.0</ele>
        <time>2019-10-19T15:33:05Z</time>
      </trkpt>
      <trkpt lat="38.2824440" lon="-0.6790430">
        <ele>160.8</ele>
        <time>2019-10-19T15:33:06Z</time>
      </trkpt>
      <trkpt lat="38.2824460" lon="-0.6791540">
        <ele>160.8</ele>
        <time>2019-10-19T15:33:07Z</time>
      </trkpt>
      <trkpt lat="38.2824480" lon="-0.6792650">
        <ele>160.8</ele>
        <time>2019-10-19T15:33:08Z</time>
      </trkpt>
      <trkpt lat="38.2824510" lon="-0.6793780">
        <ele>160.8</ele>
        <time>2019-10-19T15:33:09Z</time>
      </trkpt>
      <trkpt lat="38.2824550" lon="-0.6794890">
        <ele>160.8</ele>
        <time>2019-10-19T15:33:10Z</time>
      </trkpt>
      <trkpt lat="38.2824590" lon="-0.6795980">
        <ele>160.8</ele>
        <time>2019-10-19T15:33:11Z</time>
      </trkpt>
      <trkpt lat="38.2824610" lon="-0.6797080">
        <ele>160.8</ele>
        <time>2019-10-19T15:33:12Z</time>
      </trkpt>
      <trkpt lat="38.2824660" lon="-0.6798210">
        <ele>161.0</ele>
        <time>2019-10-19T15:33:13Z</time>
      </trkpt>
      <trkpt lat="38.2824730" lon="-0.6799300">
        <ele>160.8</ele>
        <time>2019-10-19T15:33:14Z</time>
      </trkpt>
      <trkpt lat="38.2824810" lon="-0.6800390">
        <ele>160.6</ele>
        <time>2019-10-19T15:33:15Z</time>
      </trkpt>
      <trkpt lat="38.2824900" lon="-0.6801520">
        <ele>160.4</ele>
        <time>2019-10-19T15:33:16Z</time>
      </trkpt>
      <trkpt lat="38.2825000" lon="-0.6802600">
        <ele>160.4</ele>
        <time>2019-10-19T15:33:17Z</time>
      </trkpt>
      <trkpt lat="38.2825100" lon="-0.6803710">
        <ele>160.4</ele>
        <time>2019-10-19T15:33:18Z</time>
      </trkpt>
      <trkpt lat="38.2825190" lon="-0.6804810">
        <ele>160.4</ele>
        <time>2019-10-19T15:33:19Z</time>
      </trkpt>
      <trkpt lat="38.2825290" lon="-0.6805830">
        <ele>160.2</ele>
        <time>2019-10-19T15:33:20Z</time>
      </trkpt>
      <trkpt lat="38.2825390" lon="-0.6806890">
        <ele>160.4</ele>
        <time>2019-10-19T15:33:21Z</time>
      </trkpt>
      <trkpt lat="38.2825470" lon="-0.6807980">
        <ele>160.6</ele>
        <time>2019-10-19T15:33:22Z</time>
      </trkpt>
      <trkpt lat="38.2825560" lon="-0.6809060">
        <ele>160.6</ele>
        <time>2019-10-19T15:33:23Z</time>
      </trkpt>
      <trkpt lat="38.2825650" lon="-0.6810140">
        <ele>160.6</ele>
        <time>2019-10-19T15:33:24Z</time>
      </trkpt>
      <trkpt lat="38.2825730" lon="-0.6811220">
        <ele>160.4</ele>
        <time>2019-10-19T15:33:25Z</time>
      </trkpt>
      <trkpt lat="38.2825810" lon="-0.6812280">
        <ele>160.6</ele>
        <time>2019-10-19T15:33:26Z</time>
      </trkpt>
      <trkpt lat="38.2825880" lon="-0.6813330">
        <ele>160.6</ele>
        <time>2019-10-19T15:33:27Z</time>
      </trkpt>
      <trkpt lat="38.2825940" lon="-0.6814370">
        <ele>160.4</ele>
        <time>2019-10-19T15:33:28Z</time>
      </trkpt>
      <trkpt lat="38.2826010" lon="-0.6815400">
        <ele>160.4</ele>
        <time>2019-10-19T15:33:29Z</time>
      </trkpt>
      <trkpt lat="38.2826100" lon="-0.6816420">
        <ele>160.4</ele>
        <time>2019-10-19T15:33:30Z</time>
      </trkpt>
      <trkpt lat="38.2826230" lon="-0.6817340">
        <ele>160.2</ele>
        <time>2019-10-19T15:33:31Z</time>
      </trkpt>
      <trkpt lat="38.2826530" lon="-0.6818260">
        <ele>160.2</ele>
        <time>2019-10-19T15:33:32Z</time>
      </trkpt>
      <trkpt lat="38.2826970" lon="-0.6819150">
        <ele>160.2</ele>
        <time>2019-10-19T15:33:33Z</time>
      </trkpt>
      <trkpt lat="38.2827480" lon="-0.6820000">
        <ele>160.2</ele>
        <time>2019-10-19T15:33:34Z</time>
      </trkpt>
      <trkpt lat="38.2827940" lon="-0.6820860">
        <ele>160.2</ele>
        <time>2019-10-19T15:33:35Z</time>
      </trkpt>
      <trkpt lat="38.2828280" lon="-0.6821810">
        <ele>160.2</ele>
        <time>2019-10-19T15:33:36Z</time>
      </trkpt>
      <trkpt lat="38.2828430" lon="-0.6822850">
        <ele>160.2</ele>
        <time>2019-10-19T15:33:37Z</time>
      </trkpt>
      <trkpt lat="38.2828380" lon="-0.6823860">
        <ele>160.0</ele>
        <time>2019-10-19T15:33:38Z</time>
      </trkpt>
      <trkpt lat="38.2828180" lon="-0.6824880">
        <ele>159.8</ele>
        <time>2019-10-19T15:33:39Z</time>
      </trkpt>
      <trkpt lat="38.2827840" lon="-0.6825870">
        <ele>159.4</ele>
        <time>2019-10-19T15:33:40Z</time>
      </trkpt>
      <trkpt lat="38.2827420" lon="-0.6826840">
        <ele>159.2</ele>
        <time>2019-10-19T15:33:41Z</time>
      </trkpt>
      <trkpt lat="38.2826970" lon="-0.6827840">
        <ele>159.0</ele>
        <time>2019-10-19T15:33:42Z</time>
      </trkpt>
      <trkpt lat="38.2826600" lon="-0.6828880">
        <ele>158.6</ele>
        <time>2019-10-19T15:33:43Z</time>
      </trkpt>
      <trkpt lat="38.2826370" lon="-0.6829980">
        <ele>158.2</ele>
        <time>2019-10-19T15:33:44Z</time>
      </trkpt>
      <trkpt lat="38.2826260" lon="-0.6831100">
        <ele>158.0</ele>
        <time>2019-10-19T15:33:45Z</time>
      </trkpt>
      <trkpt lat="38.2826220" lon="-0.6832240">
        <ele>157.8</ele>
        <time>2019-10-19T15:33:46Z</time>
      </trkpt>
      <trkpt lat="38.2826200" lon="-0.6833370">
        <ele>158.0</ele>
        <time>2019-10-19T15:33:47Z</time>
      </trkpt>
      <trkpt lat="38.2826160" lon="-0.6834490">
        <ele>158.2</ele>
        <time>2019-10-19T15:33:48Z</time>
      </trkpt>
      <trkpt lat="38.2826100" lon="-0.6835580">
        <ele>158.4</ele>
        <time>2019-10-19T15:33:49Z</time>
      </trkpt>
      <trkpt lat="38.2826030" lon="-0.6836660">
        <ele>158.4</ele>
        <time>2019-10-19T15:33:50Z</time>
      </trkpt>
      <trkpt lat="38.2825980" lon="-0.6837730">
        <ele>158.4</ele>
        <time>2019-10-19T15:33:51Z</time>
      </trkpt>
      <trkpt lat="38.2825910" lon="-0.6838800">
        <ele>158.6</ele>
        <time>2019-10-19T15:33:52Z</time>
      </trkpt>
      <trkpt lat="38.2825830" lon="-0.6839860">
        <ele>158.6</ele>
        <time>2019-10-19T15:33:53Z</time>
      </trkpt>
      <trkpt lat="38.2825750" lon="-0.6840900">
        <ele>158.6</ele>
        <time>2019-10-19T15:33:54Z</time>
      </trkpt>
      <trkpt lat="38.2825680" lon="-0.6841920">
        <ele>158.4</ele>
        <time>2019-10-19T15:33:55Z</time>
      </trkpt>
      <trkpt lat="38.2825580" lon="-0.6842950">
        <ele>158.6</ele>
        <time>2019-10-19T15:33:56Z</time>
      </trkpt>
      <trkpt lat="38.2825450" lon="-0.6843990">
        <ele>158.8</ele>
        <time>2019-10-19T15:33:57Z</time>
      </trkpt>
      <trkpt lat="38.2825300" lon="-0.6845030">
        <ele>158.8</ele>
        <time>2019-10-19T15:33:58Z</time>
      </trkpt>
      <trkpt lat="38.2825170" lon="-0.6846070">
        <ele>159.0</ele>
        <time>2019-10-19T15:33:59Z</time>
      </trkpt>
      <trkpt lat="38.2825030" lon="-0.6847080">
        <ele>159.0</ele>
        <time>2019-10-19T15:34:00Z</time>
      </trkpt>
      <trkpt lat="38.2824900" lon="-0.6848090">
        <ele>159.2</ele>
        <time>2019-10-19T15:34:01Z</time>
      </trkpt>
      <trkpt lat="38.2824750" lon="-0.6849110">
        <ele>159.2</ele>
        <time>2019-10-19T15:34:02Z</time>
      </trkpt>
      <trkpt lat="38.2824600" lon="-0.6850110">
        <ele>159.2</ele>
        <time>2019-10-19T15:34:03Z</time>
      </trkpt>
      <trkpt lat="38.2824440" lon="-0.6851100">
        <ele>159.2</ele>
        <time>2019-10-19T15:34:04Z</time>
      </trkpt>
      <trkpt lat="38.2824270" lon="-0.6852090">
        <ele>159.4</ele>
        <time>2019-10-19T15:34:05Z</time>
      </trkpt>
      <trkpt lat="38.2824090" lon="-0.6853090">
        <ele>159.4</ele>
        <time>2019-10-19T15:34:06Z</time>
      </trkpt>
      <trkpt lat="38.2823900" lon="-0.6854050">
        <ele>159.4</ele>
        <time>2019-10-19T15:34:07Z</time>
      </trkpt>
      <trkpt lat="38.2823720" lon="-0.6855040">
        <ele>159.4</ele>
        <time>2019-10-19T15:34:08Z</time>
      </trkpt>
      <trkpt lat="38.2823550" lon="-0.6855970">
        <ele>159.6</ele>
        <time>2019-10-19T15:34:09Z</time>
      </trkpt>
      <trkpt lat="38.2823360" lon="-0.6856930">
        <ele>159.4</ele>
        <time>2019-10-19T15:34:10Z</time>
      </trkpt>
      <trkpt lat="38.2823160" lon="-0.6857890">
        <ele>159.4</ele>
        <time>2019-10-19T15:34:11Z</time>
      </trkpt>
      <trkpt lat="38.2822960" lon="-0.6858860">
        <ele>159.6</ele>
        <time>2019-10-19T15:34:12Z</time>
      </trkpt>
      <trkpt lat="38.2822740" lon="-0.6859840">
        <ele>159.6</ele>
        <time>2019-10-19T15:34:13Z</time>
      </trkpt>
      <trkpt lat="38.2822520" lon="-0.6860790">
        <ele>159.6</ele>
        <time>2019-10-19T15:34:14Z</time>
      </trkpt>
      <trkpt lat="38.2822300" lon="-0.6861730">
        <ele>159.8</ele>
        <time>2019-10-19T15:34:15Z</time>
      </trkpt>
      <trkpt lat="38.2822080" lon="-0.6862660">
        <ele>159.6</ele>
        <time>2019-10-19T15:34:16Z</time>
      </trkpt>
      <trkpt lat="38.2821870" lon="-0.6863600">
        <ele>159.6</ele>
        <time>2019-10-19T15:34:17Z</time>
      </trkpt>
      <trkpt lat="38.2821630" lon="-0.6864530">
        <ele>160.0</ele>
        <time>2019-10-19T15:34:18Z</time>
      </trkpt>
      <trkpt lat="38.2821390" lon="-0.6865460">
        <ele>160.0</ele>
        <time>2019-10-19T15:34:19Z</time>
      </trkpt>
      <trkpt lat="38.2821130" lon="-0.6866400">
        <ele>160.0</ele>
        <time>2019-10-19T15:34:20Z</time>
      </trkpt>
      <trkpt lat="38.2820860" lon="-0.6867330">
        <ele>160.0</ele>
        <time>2019-10-19T15:34:21Z</time>
      </trkpt>
      <trkpt lat="38.2820590" lon="-0.6868260">
        <ele>160.0</ele>
        <time>2019-10-19T15:34:22Z</time>
      </trkpt>
      <trkpt lat="38.2820310" lon="-0.6869190">
        <ele>160.0</ele>
        <time>2019-10-19T15:34:23Z</time>
      </trkpt>
      <trkpt lat="38.2820020" lon="-0.6870110">
        <ele>160.0</ele>
        <time>2019-10-19T15:34:24Z</time>
      </trkpt>
      <trkpt lat="38.2819740" lon="-0.6871040">
        <ele>160.0</ele>
        <time>2019-10-19T15:34:25Z</time>
      </trkpt>
      <trkpt lat="38.2819450" lon="-0.6871960">
        <ele>160.0</ele>
        <time>2019-10-19T15:34:26Z</time>
      </trkpt>
      <trkpt lat="38.2819160" lon="-0.6872880">
        <ele>160.0</ele>
        <time>2019-10-19T15:34:27Z</time>
      </trkpt>
      <trkpt lat="38.2818850" lon="-0.6873790">
        <ele>160.2</ele>
        <time>2019-10-19T15:34:28Z</time>
      </trkpt>
      <trkpt lat="38.2818530" lon="-0.6874700">
        <ele>160.2</ele>
        <time>2019-10-19T15:34:29Z</time>
      </trkpt>
      <trkpt lat="38.2818230" lon="-0.6875590">
        <ele>160.4</ele>
        <time>2019-10-19T15:34:30Z</time>
      </trkpt>
      <trkpt lat="38.2817920" lon="-0.6876480">
        <ele>160.4</ele>
        <time>2019-10-19T15:34:31Z</time>
      </trkpt>
      <trkpt lat="38.2817600" lon="-0.6877400">
        <ele>160.4</ele>
        <time>2019-10-19T15:34:32Z</time>
      </trkpt>
      <trkpt lat="38.2817280" lon="-0.6878330">
        <ele>160.2</ele>
        <time>2019-10-19T15:34:33Z</time>
      </trkpt>
      <trkpt lat="38.2816930" lon="-0.6879230">
        <ele>160.4</ele>
        <time>2019-10-19T15:34:34Z</time>
      </trkpt>
      <trkpt lat="38.2816610" lon="-0.6880150">
        <ele>160.2</ele>
        <time>2019-10-19T15:34:35Z</time>
      </trkpt>
      <trkpt lat="38.2816290" lon="-0.6881090">
        <ele>160.2</ele>
        <time>2019-10-19T15:34:36Z</time>
      </trkpt>
      <trkpt lat="38.2815960" lon="-0.6882030">
        <ele>160.2</ele>
        <time>2019-10-19T15:34:37Z</time>
      </trkpt>
      <trkpt lat="38.2815640" lon="-0.6882980">
        <ele>160.0</ele>
        <time>2019-10-19T15:34:38Z</time>
      </trkpt>
      <trkpt lat="38.2815320" lon="-0.6883930">
        <ele>160.0</ele>
        <time>2019-10-19T15:34:39Z</time>
      </trkpt>
      <trkpt lat="38.2814990" lon="-0.6884870">
        <ele>160.2</ele>
        <time>2019-10-19T15:34:40Z</time>
      </trkpt>
      <trkpt lat="38.2814660" lon="-0.6885830">
        <ele>160.2</ele>
        <time>2019-10-19T15:34:41Z</time>
      </trkpt>
      <trkpt lat="38.2814320" lon="-0.6886770">
        <ele>160.4</ele>
        <time>2019-10-19T15:34:42Z</time>
      </trkpt>
      <trkpt lat="38.2813990" lon="-0.6887700">
        <ele>160.6</ele>
        <time>2019-10-19T15:34:43Z</time>
      </trkpt>
      <trkpt lat="38.2813680" lon="-0.6888650">
        <ele>160.6</ele>
        <time>2019-10-19T15:34:44Z</time>
      </trkpt>
      <trkpt lat="38.2813470" lon="-0.6889610">
        <ele>160.6</ele>
        <time>2019-10-19T15:34:45Z</time>
      </trkpt>
      <trkpt lat="38.2813440" lon="-0.6890610">
        <ele>161.0</ele>
        <time>2019-10-19T15:34:46Z</time>
      </trkpt>
      <trkpt lat="38.2813640" lon="-0.6891540">
        <ele>161.6</ele>
        <time>2019-10-19T15:34:47Z</time>
      </trkpt>
      <trkpt lat="38.2813990" lon="-0.6892380">
        <ele>161.8</ele>
        <time>2019-10-19T15:34:48Z</time>
      </trkpt>
      <trkpt lat="38.2814350" lon="-0.6893200">
        <ele>161.8</ele>
        <time>2019-10-19T15:34:49Z</time>
      </trkpt>
      <trkpt lat="38.2814640" lon="-0.6894080">
        <ele>161.8</ele>
        <time>2019-10-19T15:34:50Z</time>
      </trkpt>
      <trkpt lat="38.2814760" lon="-0.6895020">
        <ele>162.2</ele>
        <time>2019-10-19T15:34:51Z</time>
      </trkpt>
      <trkpt lat="38.2814680" lon="-0.6896000">
        <ele>162.2</ele>
        <time>2019-10-19T15:34:52Z</time>
      </trkpt>
      <trkpt lat="38.2814470" lon="-0.6896950">
        <ele>162.0</ele>
        <time>2019-10-19T15:34:53Z</time>
      </trkpt>
      <trkpt lat="38.2814110" lon="-0.6897830">
        <ele>161.8</ele>
        <time>2019-10-19T15:34:54Z</time>
      </trkpt>
      <trkpt lat="38.2813600" lon="-0.6898620">
        <ele>161.8</ele>
        <time>2019-10-19T15:34:55Z</time>
      </trkpt>
      <trkpt lat="38.2812960" lon="-0.6899240">
        <ele>161.8</ele>
        <time>2019-10-19T15:34:56Z</time>
      </trkpt>
      <trkpt lat="38.2812240" lon="-0.6899750">
        <ele>161.4</ele>
        <time>2019-10-19T15:34:57Z</time>
      </trkpt>
      <trkpt lat="38.2811500" lon="-0.6900260">
        <ele>161.2</ele>
        <time>2019-10-19T15:34:58Z</time>
      </trkpt>
      <trkpt lat="38.2810820" lon="-0.6900890">
        <ele>161.0</ele>
        <time>2019-10-19T15:34:59Z</time>
      </trkpt>
      <trkpt lat="38.2810230" lon="-0.6901660">
        <ele>160.8</ele>
        <time>2019-10-19T15:35:00Z</time>
      </trkpt>
      <trkpt lat="38.2809750" lon="-0.6902540">
        <ele>160.6</ele>
        <time>2019-10-19T15:35:01Z</time>
      </trkpt>
      <trkpt lat="38.2809350" lon="-0.6903500">
        <ele>160.6</ele>
        <time>2019-10-19T15:35:02Z</time>
      </trkpt>
      <trkpt lat="38.2809000" lon="-0.6904520">
        <ele>160.4</ele>
        <time>2019-10-19T15:35:03Z</time>
      </trkpt>
      <trkpt lat="38.2808660" lon="-0.6905550">
        <ele>160.2</ele>
        <time>2019-10-19T15:35:04Z</time>
      </trkpt>
      <trkpt lat="38.2808320" lon="-0.6906550">
        <ele>160.2</ele>
        <time>2019-10-19T15:35:05Z</time>
      </trkpt>
      <trkpt lat="38.2807970" lon="-0.6907550">
        <ele>160.4</ele>
        <time>2019-10-19T15:35:06Z</time>
      </trkpt>
      <trkpt lat="38.2807630" lon="-0.6908560">
        <ele>160.2</ele>
        <time>2019-10-19T15:35:07Z</time>
      </trkpt>
      <trkpt lat="38.2807300" lon="-0.6909560">
        <ele>160.2</ele>
        <time>2019-10-19T15:35:08Z</time>
      </trkpt>
      <trkpt lat="38.2806940" lon="-0.6910550">
        <ele>160.4</ele>
        <time>2019-10-19T15:35:09Z</time>
      </trkpt>
      <trkpt lat="38.2806590" lon="-0.6911560">
        <ele>160.4</ele>
        <time>2019-10-19T15:35:10Z</time>
      </trkpt>
      <trkpt lat="38.2806250" lon="-0.6912560">
        <ele>160.4</ele>
        <time>2019-10-19T15:35:11Z</time>
      </trkpt>
      <trkpt lat="38.2805910" lon="-0.6913570">
        <ele>160.0</ele>
        <time>2019-10-19T15:35:12Z</time>
      </trkpt>
      <trkpt lat="38.2805580" lon="-0.6914580">
        <ele>160.0</ele>
        <time>2019-10-19T15:35:13Z</time>
      </trkpt>
      <trkpt lat="38.2805240" lon="-0.6915590">
        <ele>160.0</ele>
        <time>2019-10-19T15:35:14Z</time>
      </trkpt>
      <trkpt lat="38.2804900" lon="-0.6916590">
        <ele>159.8</ele>
        <time>2019-10-19T15:35:15Z</time>
      </trkpt>
      <trkpt lat="38.2804550" lon="-0.6917600">
        <ele>159.8</ele>
        <time>2019-10-19T15:35:16Z</time>
      </trkpt>
      <trkpt lat="38.2804220" lon="-0.6918600">
        <ele>159.8</ele>
        <time>2019-10-19T15:35:17Z</time>
      </trkpt>
      <trkpt lat="38.2803880" lon="-0.6919600">
        <ele>159.8</ele>
        <time>2019-10-19T15:35:18Z</time>
      </trkpt>
      <trkpt lat="38.2803530" lon="-0.6920590">
        <ele>159.6</ele>
        <time>2019-10-19T15:35:19Z</time>
      </trkpt>
      <trkpt lat="38.2803200" lon="-0.6921570">
        <ele>159.6</ele>
        <time>2019-10-19T15:35:20Z</time>
      </trkpt>
      <trkpt lat="38.2802870" lon="-0.6922550">
        <ele>159.6</ele>
        <time>2019-10-19T15:35:21Z</time>
      </trkpt>
      <trkpt lat="38.2802570" lon="-0.6923550">
        <ele>159.4</ele>
        <time>2019-10-19T15:35:22Z</time>
      </trkpt>
      <trkpt lat="38.2802270" lon="-0.6924580">
        <ele>159.4</ele>
        <time>2019-10-19T15:35:23Z</time>
      </trkpt>
      <trkpt lat="38.2802010" lon="-0.6925600">
        <ele>159.2</ele>
        <time>2019-10-19T15:35:24Z</time>
      </trkpt>
      <trkpt lat="38.2801790" lon="-0.6926600">
        <ele>159.2</ele>
        <time>2019-10-19T15:35:25Z</time>
      </trkpt>
      <trkpt lat="38.2801610" lon="-0.6927650">
        <ele>159.0</ele>
        <time>2019-10-19T15:35:26Z</time>
      </trkpt>
      <trkpt lat="38.2801430" lon="-0.6928640">
        <ele>159.0</ele>
        <time>2019-10-19T15:35:27Z</time>
      </trkpt>
      <trkpt lat="38.2801250" lon="-0.6929660">
        <ele>159.2</ele>
        <time>2019-10-19T15:35:28Z</time>
      </trkpt>
      <trkpt lat="38.2801110" lon="-0.6930720">
        <ele>159.2</ele>
        <time>2019-10-19T15:35:29Z</time>
      </trkpt>
      <trkpt lat="38.2801000" lon="-0.6931790">
        <ele>159.0</ele>
        <time>2019-10-19T15:35:30Z</time>
      </trkpt>
      <trkpt lat="38.2800900" lon="-0.6932850">
        <ele>158.8</ele>
        <time>2019-10-19T15:35:31Z</time>
      </trkpt>
      <trkpt lat="38.2800830" lon="-0.6933900">
        <ele>158.8</ele>
        <time>2019-10-19T15:35:32Z</time>
      </trkpt>
      <trkpt lat="38.2800750" lon="-0.6934960">
        <ele>158.8</ele>
        <time>2019-10-19T15:35:33Z</time>
      </trkpt>
      <trkpt lat="38.2800670" lon="-0.6936010">
        <ele>158.8</ele>
        <time>2019-10-19T15:35:34Z</time>
      </trkpt>
      <trkpt lat="38.2800620" lon="-0.6937050">
        <ele>158.6</ele>
        <time>2019-10-19T15:35:35Z</time>
      </trkpt>
      <trkpt lat="38.2800550" lon="-0.6938090">
        <ele>158.6</ele>
        <time>2019-10-19T15:35:36Z</time>
      </trkpt>
      <trkpt lat="38.2800490" lon="-0.6939130">
        <ele>158.4</ele>
        <time>2019-10-19T15:35:37Z</time>
      </trkpt>
      <trkpt lat="38.2800420" lon="-0.6940160">
        <ele>158.4</ele>
        <time>2019-10-19T15:35:38Z</time>
      </trkpt>
      <trkpt lat="38.2800360" lon="-0.6941180">
        <ele>158.4</ele>
        <time>2019-10-19T15:35:39Z</time>
      </trkpt>
      <trkpt lat="38.2800290" lon="-0.6942190">
        <ele>158.4</ele>
        <time>2019-10-19T15:35:40Z</time>
      </trkpt>
      <trkpt lat="38.2800210" lon="-0.6943180">
        <ele>158.4</ele>
        <time>2019-10-19T15:35:41Z</time>
      </trkpt>
      <trkpt lat="38.2800150" lon="-0.6944170">
        <ele>158.2</ele>
        <time>2019-10-19T15:35:42Z</time>
      </trkpt>
      <trkpt lat="38.2800090" lon="-0.6945170">
        <ele>158.4</ele>
        <time>2019-10-19T15:35:43Z</time>
      </trkpt>
      <trkpt lat="38.2800020" lon="-0.6946180">
        <ele>158.4</ele>
        <time>2019-10-19T15:35:44Z</time>
      </trkpt>
      <trkpt lat="38.2799930" lon="-0.6947180">
        <ele>158.0</ele>
        <time>2019-10-19T15:35:45Z</time>
      </trkpt>
      <trkpt lat="38.2799860" lon="-0.6948170">
        <ele>158.0</ele>
        <time>2019-10-19T15:35:46Z</time>
      </trkpt>
      <trkpt lat="38.2799800" lon="-0.6949130">
        <ele>158.0</ele>
        <time>2019-10-19T15:35:47Z</time>
      </trkpt>
      <trkpt lat="38.2799760" lon="-0.6950080">
        <ele>158.0</ele>
        <time>2019-10-19T15:35:48Z</time>
      </trkpt>
      <trkpt lat="38.2799690" lon="-0.6951050">
        <ele>158.2</ele>
        <time>2019-10-19T15:35:49Z</time>
      </trkpt>
      <trkpt lat="38.2799610" lon="-0.6952030">
        <ele>157.8</ele>
        <time>2019-10-19T15:35:50Z</time>
      </trkpt>
      <trkpt lat="38.2799540" lon="-0.6953020">
        <ele>158.0</ele>
        <time>2019-10-19T15:35:51Z</time>
      </trkpt>
      <trkpt lat="38.2799480" lon="-0.6953950">
        <ele>157.8</ele>
        <time>2019-10-19T15:35:52Z</time>
      </trkpt>
      <trkpt lat="38.2799420" lon="-0.6954890">
        <ele>157.8</ele>
        <time>2019-10-19T15:35:53Z</time>
      </trkpt>
      <trkpt lat="38.2799360" lon="-0.6955810">
        <ele>157.8</ele>
        <time>2019-10-19T15:35:54Z</time>
      </trkpt>
      <trkpt lat="38.2799290" lon="-0.6956720">
        <ele>158.0</ele>
        <time>2019-10-19T15:35:55Z</time>
      </trkpt>
      <trkpt lat="38.2799230" lon="-0.6957640">
        <ele>157.8</ele>
        <time>2019-10-19T15:35:56Z</time>
      </trkpt>
      <trkpt lat="38.2799230" lon="-0.6958510">
        <ele>157.6</ele>
        <time>2019-10-19T15:35:57Z</time>
      </trkpt>
      <trkpt lat="38.2799380" lon="-0.6959370">
        <ele>157.6</ele>
        <time>2019-10-19T15:35:58Z</time>
      </trkpt>
      <trkpt lat="38.2799650" lon="-0.6960200">
        <ele>157.8</ele>
        <time>2019-10-19T15:35:59Z</time>
      </trkpt>
      <trkpt lat="38.2800030" lon="-0.6960950">
        <ele>157.8</ele>
        <time>2019-10-19T15:36:00Z</time>
      </trkpt>
      <trkpt lat="38.2800460" lon="-0.6961670">
        <ele>157.8</ele>
        <time>2019-10-19T15:36:01Z</time>
      </trkpt>
      <trkpt lat="38.2800840" lon="-0.6962420">
        <ele>157.8</ele>
        <time>2019-10-19T15:36:02Z</time>
      </trkpt>
      <trkpt lat="38.2801120" lon="-0.6963210">
        <ele>157.8</ele>
        <time>2019-10-19T15:36:03Z</time>
      </trkpt>
      <trkpt lat="38.2801280" lon="-0.6964050">
        <ele>157.6</ele>
        <time>2019-10-19T15:36:04Z</time>
      </trkpt>
      <trkpt lat="38.2801280" lon="-0.6964920">
        <ele>157.6</ele>
        <time>2019-10-19T15:36:05Z</time>
      </trkpt>
      <trkpt lat="38.2801140" lon="-0.6965770">
        <ele>157.4</ele>
        <time>2019-10-19T15:36:06Z</time>
      </trkpt>
      <trkpt lat="38.2800870" lon="-0.6966580">
        <ele>157.4</ele>
        <time>2019-10-19T15:36:07Z</time>
      </trkpt>
      <trkpt lat="38.2800480" lon="-0.6967360">
        <ele>157.4</ele>
        <time>2019-10-19T15:36:08Z</time>
      </trkpt>
      <trkpt lat="38.2799960" lon="-0.6968040">
        <ele>157.2</ele>
        <time>2019-10-19T15:36:09Z</time>
      </trkpt>
      <trkpt lat="38.2799320" lon="-0.6968600">
        <ele>157.0</ele>
        <time>2019-10-19T15:36:10Z</time>
      </trkpt>
      <trkpt lat="38.2798590" lon="-0.6968960">
        <ele>156.6</ele>
        <time>2019-10-19T15:36:11Z</time>
      </trkpt>
      <trkpt lat="38.2797790" lon="-0.6969070">
        <ele>156.6</ele>
        <time>2019-10-19T15:36:12Z</time>
      </trkpt>
      <trkpt lat="38.2796980" lon="-0.6968960">
        <ele>156.4</ele>
        <time>2019-10-19T15:36:13Z</time>
      </trkpt>
      <trkpt lat="38.2796180" lon="-0.6968700">
        <ele>156.2</ele>
        <time>2019-10-19T15:36:14Z</time>
      </trkpt>
      <trkpt lat="38.2795390" lon="-0.6968320">
        <ele>156.6</ele>
        <time>2019-10-19T15:36:15Z</time>
      </trkpt>
      <trkpt lat="38.2794580" lon="-0.6967960">
        <ele>156.4</ele>
        <time>2019-10-19T15:36:16Z</time>
      </trkpt>
      <trkpt lat="38.2793750" lon="-0.6967800">
        <ele>156.4</ele>
        <time>2019-10-19T15:36:17Z</time>
      </trkpt>
      <trkpt lat="38.2792910" lon="-0.6967720">
        <ele>156.0</ele>
        <time>2019-10-19T15:36:18Z</time>
      </trkpt>
      <trkpt lat="38.2792050" lon="-0.6967650">
        <ele>155.8</ele>
        <time>2019-10-19T15:36:19Z</time>
      </trkpt>
      <trkpt lat="38.2791200" lon="-0.6967540">
        <ele>155.4</ele>
        <time>2019-10-19T15:36:20Z</time>
      </trkpt>
      <trkpt lat="38.2790350" lon="-0.6967320">
        <ele>154.8</ele>
        <time>2019-10-19T15:36:21Z</time>
      </trkpt>
      <trkpt lat="38.2789480" lon="-0.6967050">
        <ele>154.6</ele>
        <time>2019-10-19T15:36:22Z</time>
      </trkpt>
      <trkpt lat="38.2788610" lon="-0.6966750">
        <ele>154.4</ele>
        <time>2019-10-19T15:36:23Z</time>
      </trkpt>
      <trkpt lat="38.2787740" lon="-0.6966450">
        <ele>154.4</ele>
        <time>2019-10-19T15:36:24Z</time>
      </trkpt>
      <trkpt lat="38.2786870" lon="-0.6966100">
        <ele>154.4</ele>
        <time>2019-10-19T15:36:25Z</time>
      </trkpt>
      <trkpt lat="38.2785990" lon="-0.6965790">
        <ele>153.8</ele>
        <time>2019-10-19T15:36:26Z</time>
      </trkpt>
      <trkpt lat="38.2785090" lon="-0.6965520">
        <ele>154.0</ele>
        <time>2019-10-19T15:36:27Z</time>
      </trkpt>
      <trkpt lat="38.2784180" lon="-0.6965270">
        <ele>153.8</ele>
        <time>2019-10-19T15:36:28Z</time>
      </trkpt>
      <trkpt lat="38.2783280" lon="-0.6965050">
        <ele>153.4</ele>
        <time>2019-10-19T15:36:29Z</time>
      </trkpt>
      <trkpt lat="38.2782380" lon="-0.6964890">
        <ele>153.2</ele>
        <time>2019-10-19T15:36:30Z</time>
      </trkpt>
      <trkpt lat="38.2781510" lon="-0.6964710">
        <ele>153.2</ele>
        <time>2019-10-19T15:36:31Z</time>
      </trkpt>
      <trkpt lat="38.2780640" lon="-0.6964400">
        <ele>153.2</ele>
        <time>2019-10-19T15:36:32Z</time>
      </trkpt>
      <trkpt lat="38.2779800" lon="-0.6964070">
        <ele>153.2</ele>
        <time>2019-10-19T15:36:33Z</time>
      </trkpt>
      <trkpt lat="38.2778940" lon="-0.6963710">
        <ele>152.8</ele>
        <time>2019-10-19T15:36:34Z</time>
      </trkpt>
      <trkpt lat="38.2778080" lon="-0.6963370">
        <ele>152.6</ele>
        <time>2019-10-19T15:36:35Z</time>
      </trkpt>
      <trkpt lat="38.2777200" lon="-0.6963070">
        <ele>152.4</ele>
        <time>2019-10-19T15:36:36Z</time>
      </trkpt>
      <trkpt lat="38.2776310" lon="-0.6962880">
        <ele>152.2</ele>
        <time>2019-10-19T15:36:37Z</time>
      </trkpt>
      <trkpt lat="38.2775370" lon="-0.6962750">
        <ele>151.8</ele>
        <time>2019-10-19T15:36:38Z</time>
      </trkpt>
      <trkpt lat="38.2774430" lon="-0.6962650">
        <ele>151.8</ele>
        <time>2019-10-19T15:36:39Z</time>
      </trkpt>
      <trkpt lat="38.2773480" lon="-0.6962620">
        <ele>151.8</ele>
        <time>2019-10-19T15:36:40Z</time>
      </trkpt>
      <trkpt lat="38.2772540" lon="-0.6962610">
        <ele>151.8</ele>
        <time>2019-10-19T15:36:41Z</time>
      </trkpt>
      <trkpt lat="38.2771620" lon="-0.6962600">
        <ele>151.6</ele>
        <time>2019-10-19T15:36:42Z</time>
      </trkpt>
      <trkpt lat="38.2770720" lon="-0.6962700">
        <ele>151.8</ele>
        <time>2019-10-19T15:36:43Z</time>
      </trkpt>
      <trkpt lat="38.2769840" lon="-0.6962810">
        <ele>151.8</ele>
        <time>2019-10-19T15:36:44Z</time>
      </trkpt>
      <trkpt lat="38.2768980" lon="-0.6962910">
        <ele>151.6</ele>
        <time>2019-10-19T15:36:45Z</time>
      </trkpt>
      <trkpt lat="38.2768150" lon="-0.6962960">
        <ele>151.4</ele>
        <time>2019-10-19T15:36:46Z</time>
      </trkpt>
      <trkpt lat="38.2767300" lon="-0.6963170">
        <ele>151.6</ele>
        <time>2019-10-19T15:36:47Z</time>
      </trkpt>
      <trkpt lat="38.2766420" lon="-0.6963490">
        <ele>151.4</ele>
        <time>2019-10-19T15:36:48Z</time>
      </trkpt>
      <trkpt lat="38.2765530" lon="-0.6963870">
        <ele>151.4</ele>
        <time>2019-10-19T15:36:49Z</time>
      </trkpt>
      <trkpt lat="38.2764620" lon="-0.6964220">
        <ele>151.6</ele>
        <time>2019-10-19T15:36:50Z</time>
      </trkpt>
      <trkpt lat="38.2763690" lon="-0.6964530">
        <ele>151.4</ele>
        <time>2019-10-19T15:36:51Z</time>
      </trkpt>
      <trkpt lat="38.2762760" lon="-0.6964850">
        <ele>151.0</ele>
        <time>2019-10-19T15:36:52Z</time>
      </trkpt>
      <trkpt lat="38.2761810" lon="-0.6965110">
        <ele>151.0</ele>
        <time>2019-10-19T15:36:53Z</time>
      </trkpt>
      <trkpt lat="38.2760850" lon="-0.6965310">
        <ele>150.8</ele>
        <time>2019-10-19T15:36:54Z</time>
      </trkpt>
      <trkpt lat="38.2759870" lon="-0.6965440">
        <ele>150.8</ele>
        <time>2019-10-19T15:36:55Z</time>
      </trkpt>
      <trkpt lat="38.2758900" lon="-0.6965460">
        <ele>150.8</ele>
        <time>2019-10-19T15:36:56Z</time>
      </trkpt>
      <trkpt lat="38.2757980" lon="-0.6965350">
        <ele>150.8</ele>
        <time>2019-10-19T15:36:57Z</time>
      </trkpt>
      <trkpt lat="38.2757080" lon="-0.6965050">
        <ele>150.6</ele>
        <time>2019-10-19T15:36:58Z</time>
      </trkpt>
      <trkpt lat="38.2756220" lon="-0.6964590">
        <ele>150.6</ele>
        <time>2019-10-19T15:36:59Z</time>
      </trkpt>
      <trkpt lat="38.2755330" lon="-0.6964070">
        <ele>150.6</ele>
        <time>2019-10-19T15:37:00Z</time>
      </trkpt>
      <trkpt lat="38.2754480" lon="-0.6963610">
        <ele>150.6</ele>
        <time>2019-10-19T15:37:01Z</time>
      </trkpt>
      <trkpt lat="38.2753700" lon="-0.6963130">
        <ele>150.2</ele>
        <time>2019-10-19T15:37:02Z</time>
      </trkpt>
      <trkpt lat="38.2752940" lon="-0.6962650">
        <ele>150.4</ele>
        <time>2019-10-19T15:37:03Z</time>
      </trkpt>
      <trkpt lat="38.2752140" lon="-0.6962090">
        <ele>150.2</ele>
        <time>2019-10-19T15:37:04Z</time>
      </trkpt>
      <trkpt lat="38.2751400" lon="-0.6961530">
        <ele>150.0</ele>
        <time>2019-10-19T15:37:05Z</time>
      </trkpt>
      <trkpt lat="38.2750650" lon="-0.6960970">
        <ele>150.0</ele>
        <time>2019-10-19T15:37:06Z</time>
      </trkpt>
      <trkpt lat="38.2749900" lon="-0.6960390">
        <ele>150.0</ele>
        <time>2019-10-19T15:37:07Z</time>
      </trkpt>
      <trkpt lat="38.2749140" lon="-0.6959750">
        <ele>150.4</ele>
        <time>2019-10-19T15:37:08Z</time>
      </trkpt>
      <trkpt lat="38.2748410" lon="-0.6959130">
        <ele>150.2</ele>
        <time>2019-10-19T15:37:09Z</time>
      </trkpt>
      <trkpt lat="38.2747680" lon="-0.6958520">
        <ele>150.0</ele>
        <time>2019-10-19T15:37:10Z</time>
      </trkpt>
      <trkpt lat="38.2746950" lon="-0.6957890">
        <ele>149.8</ele>
        <time>2019-10-19T15:37:11Z</time>
      </trkpt>
      <trkpt lat="38.2746220" lon="-0.6957240">
        <ele>150.0</ele>
        <time>2019-10-19T15:37:12Z</time>
      </trkpt>
      <trkpt lat="38.2745470" lon="-0.6956550">
        <ele>149.6</ele>
        <time>2019-10-19T15:37:13Z</time>
      </trkpt>
      <trkpt lat="38.2744750" lon="-0.6955900">
        <ele>149.6</ele>
        <time>2019-10-19T15:37:14Z</time>
      </trkpt>
      <trkpt lat="38.2744040" lon="-0.6955310">
        <ele>149.4</ele>
        <time>2019-10-19T15:37:15Z</time>
      </trkpt>
      <trkpt lat="38.2743320" lon="-0.6954840">
        <ele>149.2</ele>
        <time>2019-10-19T15:37:16Z</time>
      </trkpt>
      <trkpt lat="38.2742530" lon="-0.6954320">
        <ele>149.0</ele>
        <time>2019-10-19T15:37:17Z</time>
      </trkpt>
      <trkpt lat="38.2741680" lon="-0.6953860">
        <ele>148.6</ele>
        <time>2019-10-19T15:37:18Z</time>
      </trkpt>
      <trkpt lat="38.2740820" lon="-0.6953730">
        <ele>148.6</ele>
        <time>2019-10-19T15:37:19Z</time>
      </trkpt>
      <trkpt lat="38.2739960" lon="-0.6953660">
        <ele>148.6</ele>
        <time>2019-10-19T15:37:20Z</time>
      </trkpt>
      <trkpt lat="38.2739100" lon="-0.6953630">
        <ele>148.6</ele>
        <time>2019-10-19T15:37:21Z</time>
      </trkpt>
      <trkpt lat="38.2738230" lon="-0.6953490">
        <ele>148.2</ele>
        <time>2019-10-19T15:37:22Z</time>
      </trkpt>
      <trkpt lat="38.2737440" lon="-0.6953320">
        <ele>148.4</ele>
        <time>2019-10-19T15:37:23Z</time>
      </trkpt>
      <trkpt lat="38.2736580" lon="-0.6953140">
        <ele>148.4</ele>
        <time>2019-10-19T15:37:24Z</time>
      </trkpt>
      <trkpt lat="38.2735780" lon="-0.6952930">
        <ele>148.6</ele>
        <time>2019-10-19T15:37:25Z</time>
      </trkpt>
      <trkpt lat="38.2735020" lon="-0.6952560">
        <ele>148.4</ele>
        <time>2019-10-19T15:37:26Z</time>
      </trkpt>
      <trkpt lat="38.2734210" lon="-0.6952280">
        <ele>148.6</ele>
        <time>2019-10-19T15:37:27Z</time>
      </trkpt>
      <trkpt lat="38.2733380" lon="-0.6951980">
        <ele>148.6</ele>
        <time>2019-10-19T15:37:28Z</time>
      </trkpt>
      <trkpt lat="38.2732590" lon="-0.6951660">
        <ele>148.4</ele>
        <time>2019-10-19T15:37:29Z</time>
      </trkpt>
      <trkpt lat="38.2731750" lon="-0.6951300">
        <ele>148.4</ele>
        <time>2019-10-19T15:37:30Z</time>
      </trkpt>
      <trkpt lat="38.2730930" lon="-0.6951010">
        <ele>148.4</ele>
        <time>2019-10-19T15:37:31Z</time>
      </trkpt>
      <trkpt lat="38.2730160" lon="-0.6950750">
        <ele>148.2</ele>
        <time>2019-10-19T15:37:32Z</time>
      </trkpt>
      <trkpt lat="38.2729360" lon="-0.6950480">
        <ele>148.0</ele>
        <time>2019-10-19T15:37:33Z</time>
      </trkpt>
      <trkpt lat="38.2728610" lon="-0.6950250">
        <ele>147.8</ele>
        <time>2019-10-19T15:37:34Z</time>
      </trkpt>
      <trkpt lat="38.2727810" lon="-0.6949920">
        <ele>147.8</ele>
        <time>2019-10-19T15:37:35Z</time>
      </trkpt>
      <trkpt lat="38.2727080" lon="-0.6949740">
        <ele>147.6</ele>
        <time>2019-10-19T15:37:36Z</time>
      </trkpt>
      <trkpt lat="38.2726340" lon="-0.6949550">
        <ele>147.2</ele>
        <time>2019-10-19T15:37:37Z</time>
      </trkpt>
      <trkpt lat="38.2725640" lon="-0.6949410">
        <ele>147.2</ele>
        <time>2019-10-19T15:37:38Z</time>
      </trkpt>
      <trkpt lat="38.2724980" lon="-0.6949430">
        <ele>146.6</ele>
        <time>2019-10-19T15:37:39Z</time>
      </trkpt>
      <trkpt lat="38.2724270" lon="-0.6949520">
        <ele>146.6</ele>
        <time>2019-10-19T15:37:40Z</time>
      </trkpt>
      <trkpt lat="38.2723530" lon="-0.6949620">
        <ele>146.6</ele>
        <time>2019-10-19T15:37:41Z</time>
      </trkpt>
      <trkpt lat="38.2722770" lon="-0.6949530">
        <ele>146.6</ele>
        <time>2019-10-19T15:37:42Z</time>
      </trkpt>
      <trkpt lat="38.2722070" lon="-0.6949190">
        <ele>146.4</ele>
        <time>2019-10-19T15:37:43Z</time>
      </trkpt>
      <trkpt lat="38.2721570" lon="-0.6948640">
        <ele>146.6</ele>
        <time>2019-10-19T15:37:44Z</time>
      </trkpt>
      <trkpt lat="38.2721270" lon="-0.6947860">
        <ele>146.6</ele>
        <time>2019-10-19T15:37:45Z</time>
      </trkpt>
      <trkpt lat="38.2721110" lon="-0.6946830">
        <ele>146.6</ele>
        <time>2019-10-19T15:37:46Z</time>
      </trkpt>
      <trkpt lat="38.2721190" lon="-0.6945910">
        <ele>146.6</ele>
        <time>2019-10-19T15:37:47Z</time>
      </trkpt>
      <trkpt lat="38.2721350" lon="-0.6944970">
        <ele>147.0</ele>
        <time>2019-10-19T15:37:48Z</time>
      </trkpt>
      <trkpt lat="38.2721570" lon="-0.6944140">
        <ele>147.0</ele>
        <time>2019-10-19T15:37:49Z</time>
      </trkpt>
      <trkpt lat="38.2721850" lon="-0.6943450">
        <ele>146.4</ele>
        <time>2019-10-19T15:37:50Z</time>
      </trkpt>
      <trkpt lat="38.2722030" lon="-0.6942670">
        <ele>146.6</ele>
        <time>2019-10-19T15:37:51Z</time>
      </trkpt>
      <trkpt lat="38.2722200" lon="-0.6941940">
        <ele>146.8</ele>
        <time>2019-10-19T15:37:52Z</time>
      </trkpt>
      <trkpt lat="38.2722360" lon="-0.6941150">
        <ele>146.8</ele>
        <time>2019-10-19T15:37:53Z</time>
      </trkpt>
      <trkpt lat="38.2722470" lon="-0.6940280">
        <ele>146.4</ele>
        <time>2019-10-19T15:37:54Z</time>
      </trkpt>
      <trkpt lat="38.2722600" lon="-0.6939350">
        <ele>146.6</ele>
        <time>2019-10-19T15:37:55Z</time>
      </trkpt>
      <trkpt lat="38.2722740" lon="-0.6938390">
        <ele>146.4</ele>
        <time>2019-10-19T15:37:56Z</time>
      </trkpt>
      <trkpt lat="38.2722860" lon="-0.6937460">
        <ele>146.6</ele>
        <time>2019-10-19T15:37:57Z</time>
      </trkpt>
      <trkpt lat="38.2722960" lon="-0.6936490">
        <ele>146.4</ele>
        <time>2019-10-19T15:37:58Z</time>
      </trkpt>
      <trkpt lat="38.2723070" lon="-0.6935570">
        <ele>146.4</ele>
        <time>2019-10-19T15:37:59Z</time>
      </trkpt>
      <trkpt lat="38.2723210" lon="-0.6934700">
        <ele>146.6</ele>
        <time>2019-10-19T15:38:00Z</time>
      </trkpt>
      <trkpt lat="38.2723330" lon="-0.6933740">
        <ele>146.6</ele>
        <time>2019-10-19T15:38:01Z</time>
      </trkpt>
      <trkpt lat="38.2723410" lon="-0.6932820">
        <ele>146.6</ele>
        <time>2019-10-19T15:38:02Z</time>
      </trkpt>
      <trkpt lat="38.2723520" lon="-0.6931920">
        <ele>146.6</ele>
        <time>2019-10-19T15:38:03Z</time>
      </trkpt>
      <trkpt lat="38.2723710" lon="-0.6931010">
        <ele>146.6</ele>
        <time>2019-10-19T15:38:04Z</time>
      </trkpt>
      <trkpt lat="38.2723890" lon="-0.6930050">
        <ele>146.6</ele>
        <time>2019-10-19T15:38:05Z</time>
      </trkpt>
      <trkpt lat="38.2724050" lon="-0.6929120">
        <ele>146.8</ele>
        <time>2019-10-19T15:38:06Z</time>
      </trkpt>
      <trkpt lat="38.2724170" lon="-0.6928210">
        <ele>146.8</ele>
        <time>2019-10-19T15:38:07Z</time>
      </trkpt>
      <trkpt lat="38.2724330" lon="-0.6927330">
        <ele>146.8</ele>
        <time>2019-10-19T15:38:08Z</time>
      </trkpt>
      <trkpt lat="38.2724520" lon="-0.6926430">
        <ele>146.8</ele>
        <time>2019-10-19T15:38:09Z</time>
      </trkpt>
      <trkpt lat="38.2724690" lon="-0.6925540">
        <ele>146.8</ele>
        <time>2019-10-19T15:38:10Z</time>
      </trkpt>
      <trkpt lat="38.2724900" lon="-0.6924650">
        <ele>146.6</ele>
        <time>2019-10-19T15:38:11Z</time>
      </trkpt>
      <trkpt lat="38.2725160" lon="-0.6923840">
        <ele>146.8</ele>
        <time>2019-10-19T15:38:12Z</time>
      </trkpt>
      <trkpt lat="38.2725380" lon="-0.6922940">
        <ele>146.6</ele>
        <time>2019-10-19T15:38:13Z</time>
      </trkpt>
      <trkpt lat="38.2725580" lon="-0.6922060">
        <ele>146.6</ele>
        <time>2019-10-19T15:38:14Z</time>
      </trkpt>
      <trkpt lat="38.2725750" lon="-0.6921140">
        <ele>146.6</ele>
        <time>2019-10-19T15:38:15Z</time>
      </trkpt>
      <trkpt lat="38.2725900" lon="-0.6920170">
        <ele>146.6</ele>
        <time>2019-10-19T15:38:16Z</time>
      </trkpt>
      <trkpt lat="38.2726050" lon="-0.6919180">
        <ele>146.6</ele>
        <time>2019-10-19T15:38:17Z</time>
      </trkpt>
      <trkpt lat="38.2726190" lon="-0.6918160">
        <ele>146.4</ele>
        <time>2019-10-19T15:38:18Z</time>
      </trkpt>
      <trkpt lat="38.2726330" lon="-0.6917170">
        <ele>146.2</ele>
        <time>2019-10-19T15:38:19Z</time>
      </trkpt>
      <trkpt lat="38.2726510" lon="-0.6916210">
        <ele>146.4</ele>
        <time>2019-10-19T15:38:20Z</time>
      </trkpt>
      <trkpt lat="38.2726690" lon="-0.6915230">
        <ele>146.2</ele>
        <time>2019-10-19T15:38:21Z</time>
      </trkpt>
      <trkpt lat="38.2726840" lon="-0.6914270">
        <ele>146.2</ele>
        <time>2019-10-19T15:38:22Z</time>
      </trkpt>
      <trkpt lat="38.2726980" lon="-0.6913330">
        <ele>146.4</ele>
        <time>2019-10-19T15:38:23Z</time>
      </trkpt>
      <trkpt lat="38.2727120" lon="-0.6912420">
        <ele>146.2</ele>
        <time>2019-10-19T15:38:24Z</time>
      </trkpt>
      <trkpt lat="38.2727240" lon="-0.6911540">
        <ele>146.4</ele>
        <time>2019-10-19T15:38:25Z</time>
      </trkpt>
      <trkpt lat="38.2727370" lon="-0.6910710">
        <ele>146.6</ele>
        <time>2019-10-19T15:38:26Z</time>
      </trkpt>
      <trkpt lat="38.2727490" lon="-0.6910040">
        <ele>146.6</ele>
        <time>2019-10-19T15:38:27Z</time>
      </trkpt>
      <trkpt lat="38.2727610" lon="-0.6909450">
        <ele>146.6</ele>
        <time>2019-10-19T15:38:28Z</time>
      </trkpt>
      <trkpt lat="38.2727690" lon="-0.6908930">
        <ele>146.4</ele>
        <time>2019-10-19T15:38:29Z</time>
      </trkpt>
      <trkpt lat="38.2727680" lon="-0.6908380">
        <ele>146.4</ele>
        <time>2019-10-19T15:38:30Z</time>
      </trkpt>
      <trkpt lat="38.2727560" lon="-0.6907820">
        <ele>146.4</ele>
        <time>2019-10-19T15:38:31Z</time>
      </trkpt>
      <trkpt lat="38.2727370" lon="-0.6907240">
        <ele>146.4</ele>
        <time>2019-10-19T15:38:32Z</time>
      </trkpt>
      <trkpt lat="38.2727200" lon="-0.6906620">
        <ele>146.4</ele>
        <time>2019-10-19T15:38:33Z</time>
      </trkpt>
      <trkpt lat="38.2727080" lon="-0.6905950">
        <ele>146.4</ele>
        <time>2019-10-19T15:38:34Z</time>
      </trkpt>
      <trkpt lat="38.2727100" lon="-0.6905260">
        <ele>146.4</ele>
        <time>2019-10-19T15:38:35Z</time>
      </trkpt>
      <trkpt lat="38.2727260" lon="-0.6904590">
        <ele>146.4</ele>
        <time>2019-10-19T15:38:36Z</time>
      </trkpt>
      <trkpt lat="38.2727540" lon="-0.6903960">
        <ele>146.4</ele>
        <time>2019-10-19T15:38:37Z</time>
      </trkpt>
      <trkpt lat="38.2727850" lon="-0.6903450">
        <ele>146.4</ele>
        <time>2019-10-19T15:38:38Z</time>
      </trkpt>
      <trkpt lat="38.2728170" lon="-0.6902960">
        <ele>146.6</ele>
        <time>2019-10-19T15:38:39Z</time>
      </trkpt>
      <trkpt lat="38.2728420" lon="-0.6902410">
        <ele>146.4</ele>
        <time>2019-10-19T15:38:40Z</time>
      </trkpt>
      <trkpt lat="38.2728520" lon="-0.6901820">
        <ele>146.4</ele>
        <time>2019-10-19T15:38:41Z</time>
      </trkpt>
      <trkpt lat="38.2728470" lon="-0.6901200">
        <ele>146.6</ele>
        <time>2019-10-19T15:38:42Z</time>
      </trkpt>
      <trkpt lat="38.2728320" lon="-0.6900580">
        <ele>146.4</ele>
        <time>2019-10-19T15:38:43Z</time>
      </trkpt>
      <trkpt lat="38.2728170" lon="-0.6899950">
        <ele>146.2</ele>
        <time>2019-10-19T15:38:44Z</time>
      </trkpt>
      <trkpt lat="38.2728090" lon="-0.6899260">
        <ele>146.4</ele>
        <time>2019-10-19T15:38:45Z</time>
      </trkpt>
      <trkpt lat="38.2728130" lon="-0.6898540">
        <ele>146.4</ele>
        <time>2019-10-19T15:38:46Z</time>
      </trkpt>
      <trkpt lat="38.2728260" lon="-0.6897810">
        <ele>146.0</ele>
        <time>2019-10-19T15:38:47Z</time>
      </trkpt>
      <trkpt lat="38.2728420" lon="-0.6897070">
        <ele>146.0</ele>
        <time>2019-10-19T15:38:48Z</time>
      </trkpt>
      <trkpt lat="38.2728610" lon="-0.6896280">
        <ele>146.0</ele>
        <time>2019-10-19T15:38:49Z</time>
      </trkpt>
      <trkpt lat="38.2728830" lon="-0.6895470">
        <ele>146.0</ele>
        <time>2019-10-19T15:38:50Z</time>
      </trkpt>
      <trkpt lat="38.2729030" lon="-0.6894630">
        <ele>146.0</ele>
        <time>2019-10-19T15:38:51Z</time>
      </trkpt>
      <trkpt lat="38.2729210" lon="-0.6893790">
        <ele>145.8</ele>
        <time>2019-10-19T15:38:52Z</time>
      </trkpt>
      <trkpt lat="38.2729340" lon="-0.6892950">
        <ele>145.6</ele>
        <time>2019-10-19T15:38:53Z</time>
      </trkpt>
      <trkpt lat="38.2729470" lon="-0.6892120">
        <ele>145.6</ele>
        <time>2019-10-19T15:38:54Z</time>
      </trkpt>
      <trkpt lat="38.2729630" lon="-0.6891300">
        <ele>145.4</ele>
        <time>2019-10-19T15:38:55Z</time>
      </trkpt>
      <trkpt lat="38.2729790" lon="-0.6890500">
        <ele>145.4</ele>
        <time>2019-10-19T15:38:56Z</time>
      </trkpt>
      <trkpt lat="38.2729940" lon="-0.6889720">
        <ele>145.4</ele>
        <time>2019-10-19T15:38:57Z</time>
      </trkpt>
      <trkpt lat="38.2730070" lon="-0.6889020">
        <ele>145.4</ele>
        <time>2019-10-19T15:38:58Z</time>
      </trkpt>
      <trkpt lat="38.2730130" lon="-0.6888460">
        <ele>145.4</ele>
        <time>2019-10-19T15:38:59Z</time>
      </trkpt>
      <trkpt lat="38.2730190" lon="-0.6887970">
        <ele>145.4</ele>
        <time>2019-10-19T15:39:00Z</time>
      </trkpt>
      <trkpt lat="38.2730250" lon="-0.6887500">
        <ele>145.4</ele>
        <time>2019-10-19T15:39:01Z</time>
      </trkpt>
      <trkpt lat="38.2730330" lon="-0.6887110">
        <ele>145.4</ele>
        <time>2019-10-19T15:39:02Z</time>
      </trkpt>
      <trkpt lat="38.2730400" lon="-0.6886730">
        <ele>145.4</ele>
        <time>2019-10-19T15:39:03Z</time>
      </trkpt>
      <trkpt lat="38.2730470" lon="-0.6886280">
        <ele>145.4</ele>
        <time>2019-10-19T15:39:04Z</time>
      </trkpt>
      <trkpt lat="38.2730530" lon="-0.6885720">
        <ele>145.4</ele>
        <time>2019-10-19T15:39:05Z</time>
      </trkpt>
      <trkpt lat="38.2730600" lon="-0.6885070">
        <ele>145.2</ele>
        <time>2019-10-19T15:39:06Z</time>
      </trkpt>
      <trkpt lat="38.2730680" lon="-0.6884350">
        <ele>145.0</ele>
        <time>2019-10-19T15:39:07Z</time>
      </trkpt>
      <trkpt lat="38.2730750" lon="-0.6883550">
        <ele>144.8</ele>
        <time>2019-10-19T15:39:08Z</time>
      </trkpt>
      <trkpt lat="38.2730780" lon="-0.6882750">
        <ele>144.8</ele>
        <time>2019-10-19T15:39:09Z</time>
      </trkpt>
      <trkpt lat="38.2730900" lon="-0.6881890">
        <ele>144.8</ele>
        <time>2019-10-19T15:39:10Z</time>
      </trkpt>
      <trkpt lat="38.2731010" lon="-0.6881000">
        <ele>144.8</ele>
        <time>2019-10-19T15:39:11Z</time>
      </trkpt>
      <trkpt lat="38.2731160" lon="-0.6880110">
        <ele>144.8</ele>
        <time>2019-10-19T15:39:12Z</time>
      </trkpt>
      <trkpt lat="38.2731310" lon="-0.6879200">
        <ele>144.6</ele>
        <time>2019-10-19T15:39:13Z</time>
      </trkpt>
      <trkpt lat="38.2731460" lon="-0.6878300">
        <ele>144.4</ele>
        <time>2019-10-19T15:39:14Z</time>
      </trkpt>
      <trkpt lat="38.2731600" lon="-0.6877390">
        <ele>144.4</ele>
        <time>2019-10-19T15:39:15Z</time>
      </trkpt>
      <trkpt lat="38.2731730" lon="-0.6876470">
        <ele>144.2</ele>
        <time>2019-10-19T15:39:16Z</time>
      </trkpt>
      <trkpt lat="38.2731860" lon="-0.6875530">
        <ele>144.2</ele>
        <time>2019-10-19T15:39:17Z</time>
      </trkpt>
      <trkpt lat="38.2731980" lon="-0.6874560">
        <ele>144.0</ele>
        <time>2019-10-19T15:39:18Z</time>
      </trkpt>
      <trkpt lat="38.2732150" lon="-0.6873600">
        <ele>144.2</ele>
        <time>2019-10-19T15:39:19Z</time>
      </trkpt>
      <trkpt lat="38.2732310" lon="-0.6872630">
        <ele>144.2</ele>
        <time>2019-10-19T15:39:20Z</time>
      </trkpt>
      <trkpt lat="38.2732460" lon="-0.6871660">
        <ele>144.0</ele>
        <time>2019-10-19T15:39:21Z</time>
      </trkpt>
      <trkpt lat="38.2732490" lon="-0.6870730">
        <ele>144.0</ele>
        <time>2019-10-19T15:39:22Z</time>
      </trkpt>
      <trkpt lat="38.2732620" lon="-0.6869790">
        <ele>144.0</ele>
        <time>2019-10-19T15:39:23Z</time>
      </trkpt>
      <trkpt lat="38.2732810" lon="-0.6868810">
        <ele>144.2</ele>
        <time>2019-10-19T15:39:24Z</time>
      </trkpt>
      <trkpt lat="38.2733000" lon="-0.6867850">
        <ele>144.2</ele>
        <time>2019-10-19T15:39:25Z</time>
      </trkpt>
      <trkpt lat="38.2733170" lon="-0.6866880">
        <ele>144.2</ele>
        <time>2019-10-19T15:39:26Z</time>
      </trkpt>
      <trkpt lat="38.2733370" lon="-0.6865870">
        <ele>144.2</ele>
        <time>2019-10-19T15:39:27Z</time>
      </trkpt>
      <trkpt lat="38.2733540" lon="-0.6864900">
        <ele>144.2</ele>
        <time>2019-10-19T15:39:28Z</time>
      </trkpt>
      <trkpt lat="38.2733680" lon="-0.6863920">
        <ele>144.2</ele>
        <time>2019-10-19T15:39:29Z</time>
      </trkpt>
      <trkpt lat="38.2733850" lon="-0.6862960">
        <ele>144.4</ele>
        <time>2019-10-19T15:39:30Z</time>
      </trkpt>
      <trkpt lat="38.2734040" lon="-0.6862030">
        <ele>144.4</ele>
        <time>2019-10-19T15:39:31Z</time>
      </trkpt>
      <trkpt lat="38.2734230" lon="-0.6861060">
        <ele>144.6</ele>
        <time>2019-10-19T15:39:32Z</time>
      </trkpt>
      <trkpt lat="38.2734390" lon="-0.6860080">
        <ele>144.4</ele>
        <time>2019-10-19T15:39:33Z</time>
      </trkpt>
      <trkpt lat="38.2734570" lon="-0.6859080">
        <ele>144.4</ele>
        <time>2019-10-19T15:39:34Z</time>
      </trkpt>
      <trkpt lat="38.2734710" lon="-0.6858080">
        <ele>144.4</ele>
        <time>2019-10-19T15:39:35Z</time>
      </trkpt>
      <trkpt lat="38.2734850" lon="-0.6857080">
        <ele>144.4</ele>
        <time>2019-10-19T15:39:36Z</time>
      </trkpt>
      <trkpt lat="38.2734980" lon="-0.6856090">
        <ele>144.6</ele>
        <time>2019-10-19T15:39:37Z</time>
      </trkpt>
      <trkpt lat="38.2735160" lon="-0.6855090">
        <ele>144.4</ele>
        <time>2019-10-19T15:39:38Z</time>
      </trkpt>
      <trkpt lat="38.2735330" lon="-0.6854090">
        <ele>144.4</ele>
        <time>2019-10-19T15:39:39Z</time>
      </trkpt>
      <trkpt lat="38.2735500" lon="-0.6853100">
        <ele>144.4</ele>
        <time>2019-10-19T15:39:40Z</time>
      </trkpt>
      <trkpt lat="38.2735670" lon="-0.6852120">
        <ele>144.4</ele>
        <time>2019-10-19T15:39:41Z</time>
      </trkpt>
      <trkpt lat="38.2735850" lon="-0.6851180">
        <ele>144.8</ele>
        <time>2019-10-19T15:39:42Z</time>
      </trkpt>
      <trkpt lat="38.2736000" lon="-0.6850250">
        <ele>144.4</ele>
        <time>2019-10-19T15:39:43Z</time>
      </trkpt>
      <trkpt lat="38.2736140" lon="-0.6849320">
        <ele>144.4</ele>
        <time>2019-10-19T15:39:44Z</time>
      </trkpt>
      <trkpt lat="38.2736330" lon="-0.6848450">
        <ele>144.6</ele>
        <time>2019-10-19T15:39:45Z</time>
      </trkpt>
      <trkpt lat="38.2736440" lon="-0.6847580">
        <ele>144.6</ele>
        <time>2019-10-19T15:39:46Z</time>
      </trkpt>
      <trkpt lat="38.2736560" lon="-0.6846660">
        <ele>144.6</ele>
        <time>2019-10-19T15:39:47Z</time>
      </trkpt>
      <trkpt lat="38.2736710" lon="-0.6845720">
        <ele>144.6</ele>
        <time>2019-10-19T15:39:48Z</time>
      </trkpt>
      <trkpt lat="38.2736850" lon="-0.6844740">
        <ele>144.6</ele>
        <time>2019-10-19T15:39:49Z</time>
      </trkpt>
      <trkpt lat="38.2736980" lon="-0.6843770">
        <ele>144.8</ele>
        <time>2019-10-19T15:39:50Z</time>
      </trkpt>
      <trkpt lat="38.2737130" lon="-0.6842840">
        <ele>144.8</ele>
        <time>2019-10-19T15:39:51Z</time>
      </trkpt>
      <trkpt lat="38.2737290" lon="-0.6841900">
        <ele>144.8</ele>
        <time>2019-10-19T15:39:52Z</time>
      </trkpt>
      <trkpt lat="38.2737400" lon="-0.6840990">
        <ele>144.8</ele>
        <time>2019-10-19T15:39:53Z</time>
      </trkpt>
      <trkpt lat="38.2737510" lon="-0.6840260">
        <ele>145.0</ele>
        <time>2019-10-19T15:39:54Z</time>
      </trkpt>
      <trkpt lat="38.2737460" lon="-0.6839780">
        <ele>145.0</ele>
        <time>2019-10-19T15:39:55Z</time>
      </trkpt>
    </trkseg>
  </trk>
</gpx>
